<?xml version="1.0" encoding="UTF-8"?>
<gpx version="1.1" creator="https://www.youtrack.es" xsi:schemaLocation="http://www.topografix.com/GPX/1/1 http://www.topografix.com/GPX/1/1/gpx.xsd http://www.garmin.com/xmlschemas/GpxExtensions/v3 http://www.garmin.com/xmlschemas/GpxExtensionsv3.xsd http://www.garmin.com/xmlschemas/TrackPointExtension/v1 http://www.garmin.com/xmlschemas/TrackPointExtensionv1.xsd" xmlns:gpxtpx="http://www.garmin.com/xmlschemas/TrackPointExtension/v1" xmlns:gpxx="http://www.garmin.com/xmlschemas/GpxExtensions/v3" xmlns:xsi="http://www.w3.org/2001/XMLSchema-instance">
  <metadata>
    <author>
      <name>Juan Martínez Cerezo</name>
      <email id="juanmcerezo" domain="gmail.com"/>
    </author>
    <link href="https://www.youtrack.es">
      <text>YouTrack.es</text>
    </link>
    <time>2026-05-08T22:06:51Z</time>
  </metadata>
  <trk>
    <src>https://www.youtrack.es</src>
    <link href="https://www.youtrack.es/ruta/36025-castellon">
      <text>YouTrack.es</text>
    </link>
    <trkseg>
      <trkpt lat="39.943914" lon="-0.105053">
        <ele>53.4</ele>
        <time>2021-07-23T08:29:10.744Z</time>
      </trkpt>
      <trkpt lat="39.943914" lon="-0.105053">
        <ele>53.4</ele>
        <time>2021-07-23T08:29:10.847Z</time>
      </trkpt>
      <trkpt lat="39.944428" lon="-0.105418">
        <ele>53.4</ele>
        <time>2021-07-23T08:29:23.497Z</time>
      </trkpt>
      <trkpt lat="39.944818" lon="-0.105695">
        <ele>53.4</ele>
        <time>2021-07-23T08:29:32.139Z</time>
      </trkpt>
      <trkpt lat="39.944880" lon="-0.105740">
        <ele>53.4</ele>
        <time>2021-07-23T08:29:33.918Z</time>
      </trkpt>
      <trkpt lat="39.945387" lon="-0.106097">
        <ele>53.6</ele>
        <time>2021-07-23T08:29:48.126Z</time>
      </trkpt>
      <trkpt lat="39.945445" lon="-0.106138">
        <ele>53.7</ele>
        <time>2021-07-23T08:29:49.251Z</time>
      </trkpt>
      <trkpt lat="39.946032" lon="-0.106554">
        <ele>53.9</ele>
        <time>2021-07-23T08:30:02.519Z</time>
      </trkpt>
      <trkpt lat="39.946444" lon="-0.106847">
        <ele>54.2</ele>
        <time>2021-07-23T08:30:12.591Z</time>
      </trkpt>
      <trkpt lat="39.947226" lon="-0.107402">
        <ele>55.4</ele>
        <time>2021-07-23T08:30:37.529Z</time>
      </trkpt>
      <trkpt lat="39.947443" lon="-0.107555">
        <ele>55.8</ele>
        <time>2021-07-23T08:30:45.027Z</time>
      </trkpt>
      <trkpt lat="39.948020" lon="-0.107961">
        <ele>56.6</ele>
        <time>2021-07-23T08:31:03.708Z</time>
      </trkpt>
      <trkpt lat="39.948274" lon="-0.108141">
        <ele>56.9</ele>
        <time>2021-07-23T08:31:11.286Z</time>
      </trkpt>
      <trkpt lat="39.948484" lon="-0.108289">
        <ele>57.2</ele>
        <time>2021-07-23T08:31:17.518Z</time>
      </trkpt>
      <trkpt lat="39.948898" lon="-0.108580">
        <ele>57.7</ele>
        <time>2021-07-23T08:31:29.287Z</time>
      </trkpt>
      <trkpt lat="39.949045" lon="-0.108684">
        <ele>57.9</ele>
        <time>2021-07-23T08:31:33.471Z</time>
      </trkpt>
      <trkpt lat="39.949121" lon="-0.108738">
        <ele>58.0</ele>
        <time>2021-07-23T08:31:35.712Z</time>
      </trkpt>
      <trkpt lat="39.949248" lon="-0.108827">
        <ele>58.2</ele>
        <time>2021-07-23T08:31:39.140Z</time>
      </trkpt>
      <trkpt lat="39.949680" lon="-0.109132">
        <ele>58.7</ele>
        <time>2021-07-23T08:31:51.548Z</time>
      </trkpt>
      <trkpt lat="39.949906" lon="-0.109291">
        <ele>58.9</ele>
        <time>2021-07-23T08:31:57.730Z</time>
      </trkpt>
      <trkpt lat="39.949995" lon="-0.109354">
        <ele>59.0</ele>
        <time>2021-07-23T08:32:00.164Z</time>
      </trkpt>
      <trkpt lat="39.950144" lon="-0.109459">
        <ele>59.2</ele>
        <time>2021-07-23T08:32:04.083Z</time>
      </trkpt>
      <trkpt lat="39.950544" lon="-0.109741">
        <ele>59.6</ele>
        <time>2021-07-23T08:32:14.855Z</time>
      </trkpt>
      <trkpt lat="39.950707" lon="-0.109855">
        <ele>59.8</ele>
        <time>2021-07-23T08:32:19.447Z</time>
      </trkpt>
      <trkpt lat="39.950859" lon="-0.109962">
        <ele>59.9</ele>
        <time>2021-07-23T08:32:23.646Z</time>
      </trkpt>
      <trkpt lat="39.950953" lon="-0.110027">
        <ele>60.0</ele>
        <time>2021-07-23T08:32:26.398Z</time>
      </trkpt>
      <trkpt lat="39.951176" lon="-0.110183">
        <ele>60.3</ele>
        <time>2021-07-23T08:32:33.168Z</time>
      </trkpt>
      <trkpt lat="39.951198" lon="-0.110136">
        <ele>60.4</ele>
        <time>2021-07-23T08:32:34.991Z</time>
      </trkpt>
      <trkpt lat="39.951565" lon="-0.110396">
        <ele>60.9</ele>
        <time>2021-07-23T08:32:47.050Z</time>
      </trkpt>
      <trkpt lat="39.952025" lon="-0.110706">
        <ele>61.5</ele>
        <time>2021-07-23T08:33:01.011Z</time>
      </trkpt>
      <trkpt lat="39.951998" lon="-0.110755">
        <ele>61.6</ele>
        <time>2021-07-23T08:33:02.316Z</time>
      </trkpt>
      <trkpt lat="39.952162" lon="-0.110869">
        <ele>61.8</ele>
        <time>2021-07-23T08:33:07.278Z</time>
      </trkpt>
      <trkpt lat="39.952371" lon="-0.111010">
        <ele>62.1</ele>
        <time>2021-07-23T08:33:13.067Z</time>
      </trkpt>
      <trkpt lat="39.952473" lon="-0.111079">
        <ele>62.2</ele>
        <time>2021-07-23T08:33:15.997Z</time>
      </trkpt>
      <trkpt lat="39.952648" lon="-0.111197">
        <ele>62.4</ele>
        <time>2021-07-23T08:33:20.611Z</time>
      </trkpt>
      <trkpt lat="39.952672" lon="-0.111214">
        <ele>62.4</ele>
        <time>2021-07-23T08:33:21.466Z</time>
      </trkpt>
      <trkpt lat="39.954690" lon="-0.112570">
        <ele>64.5</ele>
        <time>2021-07-23T08:34:16.214Z</time>
      </trkpt>
      <trkpt lat="39.954806" lon="-0.112607">
        <ele>64.7</ele>
        <time>2021-07-23T08:34:19.106Z</time>
      </trkpt>
      <trkpt lat="39.954848" lon="-0.112564">
        <ele>64.7</ele>
        <time>2021-07-23T08:34:20.294Z</time>
      </trkpt>
      <trkpt lat="39.954893" lon="-0.112550">
        <ele>64.8</ele>
        <time>2021-07-23T08:34:21.344Z</time>
      </trkpt>
      <trkpt lat="39.954939" lon="-0.112558">
        <ele>64.9</ele>
        <time>2021-07-23T08:34:22.484Z</time>
      </trkpt>
      <trkpt lat="39.954950" lon="-0.112564">
        <ele>64.9</ele>
        <time>2021-07-23T08:34:22.771Z</time>
      </trkpt>
      <trkpt lat="39.955009" lon="-0.112640">
        <ele>65.0</ele>
        <time>2021-07-23T08:34:25.171Z</time>
      </trkpt>
      <trkpt lat="39.955020" lon="-0.112726">
        <ele>65.0</ele>
        <time>2021-07-23T08:34:26.869Z</time>
      </trkpt>
      <trkpt lat="39.955121" lon="-0.112847">
        <ele>65.2</ele>
        <time>2021-07-23T08:34:30.123Z</time>
      </trkpt>
      <trkpt lat="39.955289" lon="-0.112971">
        <ele>65.4</ele>
        <time>2021-07-23T08:34:35.710Z</time>
      </trkpt>
      <trkpt lat="39.955442" lon="-0.113084">
        <ele>65.6</ele>
        <time>2021-07-23T08:34:40.014Z</time>
      </trkpt>
      <trkpt lat="39.955495" lon="-0.113127">
        <ele>65.7</ele>
        <time>2021-07-23T08:34:41.818Z</time>
      </trkpt>
      <trkpt lat="39.955554" lon="-0.113167">
        <ele>65.8</ele>
        <time>2021-07-23T08:34:44.029Z</time>
      </trkpt>
      <trkpt lat="39.955664" lon="-0.113242">
        <ele>65.9</ele>
        <time>2021-07-23T08:34:47.270Z</time>
      </trkpt>
      <trkpt lat="39.955957" lon="-0.113440">
        <ele>66.5</ele>
        <time>2021-07-23T08:34:56.422Z</time>
      </trkpt>
      <trkpt lat="39.956399" lon="-0.113746">
        <ele>67.3</ele>
        <time>2021-07-23T08:35:09.953Z</time>
      </trkpt>
      <trkpt lat="39.956486" lon="-0.113807">
        <ele>67.4</ele>
        <time>2021-07-23T08:35:13.142Z</time>
      </trkpt>
      <trkpt lat="39.957149" lon="-0.114266">
        <ele>68.6</ele>
        <time>2021-07-23T08:35:33.480Z</time>
      </trkpt>
      <trkpt lat="39.958139" lon="-0.114951">
        <ele>69.6</ele>
        <time>2021-07-23T08:36:01.660Z</time>
      </trkpt>
      <trkpt lat="39.958442" lon="-0.115161">
        <ele>69.8</ele>
        <time>2021-07-23T08:36:09.135Z</time>
      </trkpt>
      <trkpt lat="39.958489" lon="-0.115193">
        <ele>69.9</ele>
        <time>2021-07-23T08:36:10.704Z</time>
      </trkpt>
      <trkpt lat="39.958835" lon="-0.115429">
        <ele>70.2</ele>
        <time>2021-07-23T08:36:17.951Z</time>
      </trkpt>
      <trkpt lat="39.958888" lon="-0.115465">
        <ele>70.1</ele>
        <time>2021-07-23T08:36:19.334Z</time>
      </trkpt>
      <trkpt lat="39.959142" lon="-0.115637">
        <ele>69.9</ele>
        <time>2021-07-23T08:36:24.187Z</time>
      </trkpt>
      <trkpt lat="39.959313" lon="-0.115751">
        <ele>69.8</ele>
        <time>2021-07-23T08:36:29.167Z</time>
      </trkpt>
      <trkpt lat="39.959313" lon="-0.115751">
        <ele>69.8</ele>
        <time>2021-07-23T08:36:29.192Z</time>
      </trkpt>
      <trkpt lat="39.959953" lon="-0.116284">
        <ele>69.1</ele>
        <time>2021-07-23T08:36:42.747Z</time>
      </trkpt>
      <trkpt lat="39.959997" lon="-0.116320">
        <ele>69.1</ele>
        <time>2021-07-23T08:36:43.441Z</time>
      </trkpt>
      <trkpt lat="39.960318" lon="-0.116668">
        <ele>68.8</ele>
        <time>2021-07-23T08:36:50.494Z</time>
      </trkpt>
      <trkpt lat="39.960378" lon="-0.116733">
        <ele>68.6</ele>
        <time>2021-07-23T08:36:51.992Z</time>
      </trkpt>
      <trkpt lat="39.960483" lon="-0.116884">
        <ele>68.2</ele>
        <time>2021-07-23T08:36:54.564Z</time>
      </trkpt>
      <trkpt lat="39.961596" lon="-0.118588">
        <ele>63.7</ele>
        <time>2021-07-23T08:37:19.386Z</time>
      </trkpt>
      <trkpt lat="39.962685" lon="-0.120298">
        <ele>60.2</ele>
        <time>2021-07-23T08:37:44.889Z</time>
      </trkpt>
      <trkpt lat="39.962750" lon="-0.120400">
        <ele>60.5</ele>
        <time>2021-07-23T08:37:47.222Z</time>
      </trkpt>
      <trkpt lat="39.962450" lon="-0.120776">
        <ele>61.6</ele>
        <time>2021-07-23T08:37:59.369Z</time>
      </trkpt>
      <trkpt lat="39.962197" lon="-0.121536">
        <ele>63.3</ele>
        <time>2021-07-23T08:38:23.326Z</time>
      </trkpt>
      <trkpt lat="39.962140" lon="-0.121707">
        <ele>63.7</ele>
        <time>2021-07-23T08:38:30.041Z</time>
      </trkpt>
      <trkpt lat="39.961801" lon="-0.122616">
        <ele>65.3</ele>
        <time>2021-07-23T08:39:03.810Z</time>
      </trkpt>
      <trkpt lat="39.961734" lon="-0.122913">
        <ele>65.5</ele>
        <time>2021-07-23T08:39:12.371Z</time>
      </trkpt>
      <trkpt lat="39.961643" lon="-0.123313">
        <ele>65.8</ele>
        <time>2021-07-23T08:39:21.026Z</time>
      </trkpt>
      <trkpt lat="39.961639" lon="-0.123403">
        <ele>65.9</ele>
        <time>2021-07-23T08:39:22.909Z</time>
      </trkpt>
      <trkpt lat="39.961656" lon="-0.123714">
        <ele>66.1</ele>
        <time>2021-07-23T08:39:27.284Z</time>
      </trkpt>
      <trkpt lat="39.961825" lon="-0.124854">
        <ele>66.5</ele>
        <time>2021-07-23T08:39:42.826Z</time>
      </trkpt>
      <trkpt lat="39.961844" lon="-0.124940">
        <ele>66.4</ele>
        <time>2021-07-23T08:39:43.915Z</time>
      </trkpt>
      <trkpt lat="39.961935" lon="-0.125225">
        <ele>66.2</ele>
        <time>2021-07-23T08:39:47.838Z</time>
      </trkpt>
      <trkpt lat="39.962061" lon="-0.125607">
        <ele>65.8</ele>
        <time>2021-07-23T08:39:53.293Z</time>
      </trkpt>
      <trkpt lat="39.962245" lon="-0.125980">
        <ele>65.5</ele>
        <time>2021-07-23T08:39:59.327Z</time>
      </trkpt>
      <trkpt lat="39.962245" lon="-0.126075">
        <ele>65.4</ele>
        <time>2021-07-23T08:40:00.564Z</time>
      </trkpt>
      <trkpt lat="39.962469" lon="-0.126573">
        <ele>64.9</ele>
        <time>2021-07-23T08:40:08.213Z</time>
      </trkpt>
      <trkpt lat="39.962633" lon="-0.126711">
        <ele>65.1</ele>
        <time>2021-07-23T08:40:11.706Z</time>
      </trkpt>
      <trkpt lat="39.962874" lon="-0.127133">
        <ele>65.8</ele>
        <time>2021-07-23T08:40:20.830Z</time>
      </trkpt>
      <trkpt lat="39.963069" lon="-0.127722">
        <ele>66.7</ele>
        <time>2021-07-23T08:40:35.122Z</time>
      </trkpt>
      <trkpt lat="39.963122" lon="-0.128272">
        <ele>67.4</ele>
        <time>2021-07-23T08:40:49.955Z</time>
      </trkpt>
      <trkpt lat="39.963264" lon="-0.128636">
        <ele>68.0</ele>
        <time>2021-07-23T08:41:01.304Z</time>
      </trkpt>
      <trkpt lat="39.963393" lon="-0.128791">
        <ele>68.5</ele>
        <time>2021-07-23T08:41:08.496Z</time>
      </trkpt>
      <trkpt lat="39.964139" lon="-0.129691">
        <ele>71.5</ele>
        <time>2021-07-23T08:41:46.963Z</time>
      </trkpt>
      <trkpt lat="39.964521" lon="-0.130643">
        <ele>73.5</ele>
        <time>2021-07-23T08:42:14.312Z</time>
      </trkpt>
      <trkpt lat="39.965213" lon="-0.132152">
        <ele>74.2</ele>
        <time>2021-07-23T08:42:43.751Z</time>
      </trkpt>
      <trkpt lat="39.965703" lon="-0.133032">
        <ele>74.3</ele>
        <time>2021-07-23T08:42:59.115Z</time>
      </trkpt>
      <trkpt lat="39.965978" lon="-0.133808">
        <ele>74.3</ele>
        <time>2021-07-23T08:43:11.762Z</time>
      </trkpt>
      <trkpt lat="39.967063" lon="-0.137880">
        <ele>76.3</ele>
        <time>2021-07-23T08:44:29.252Z</time>
      </trkpt>
      <trkpt lat="39.967182" lon="-0.138373">
        <ele>76.6</ele>
        <time>2021-07-23T08:44:39.658Z</time>
      </trkpt>
      <trkpt lat="39.969836" lon="-0.136344">
        <ele>80.4</ele>
        <time>2021-07-23T08:46:03.343Z</time>
      </trkpt>
      <trkpt lat="39.969836" lon="-0.136344">
        <ele>80.4</ele>
        <time>2021-07-23T08:46:03.733Z</time>
      </trkpt>
      <trkpt lat="39.972727" lon="-0.134137">
        <ele>82.0</ele>
        <time>2021-07-23T08:47:17.591Z</time>
      </trkpt>
      <trkpt lat="39.972904" lon="-0.134002">
        <ele>81.9</ele>
        <time>2021-07-23T08:47:21.457Z</time>
      </trkpt>
      <trkpt lat="39.972960" lon="-0.133960">
        <ele>81.9</ele>
        <time>2021-07-23T08:47:22.689Z</time>
      </trkpt>
      <trkpt lat="39.973170" lon="-0.133799">
        <ele>81.8</ele>
        <time>2021-07-23T08:47:27.300Z</time>
      </trkpt>
      <trkpt lat="39.974268" lon="-0.132961">
        <ele>81.6</ele>
        <time>2021-07-23T08:47:51.366Z</time>
      </trkpt>
      <trkpt lat="39.975189" lon="-0.132258">
        <ele>81.4</ele>
        <time>2021-07-23T08:48:12.499Z</time>
      </trkpt>
      <trkpt lat="39.976362" lon="-0.133687">
        <ele>82.1</ele>
        <time>2021-07-23T08:48:47.612Z</time>
      </trkpt>
      <trkpt lat="39.979723" lon="-0.137785">
        <ele>86.3</ele>
        <time>2021-07-23T08:50:44.242Z</time>
      </trkpt>
      <trkpt lat="39.979583" lon="-0.137980">
        <ele>86.4</ele>
        <time>2021-07-23T08:50:49.171Z</time>
      </trkpt>
      <trkpt lat="39.978206" lon="-0.139899">
        <ele>87.6</ele>
        <time>2021-07-23T08:51:33.466Z</time>
      </trkpt>
      <trkpt lat="39.978035" lon="-0.140136">
        <ele>87.8</ele>
        <time>2021-07-23T08:51:38.845Z</time>
      </trkpt>
      <trkpt lat="39.978035" lon="-0.140136">
        <ele>87.8</ele>
        <time>2021-07-23T08:51:38.882Z</time>
      </trkpt>
      <trkpt lat="39.978035" lon="-0.140136">
        <ele>87.8</ele>
        <time>2021-07-23T08:51:38.918Z</time>
      </trkpt>
      <trkpt lat="39.978206" lon="-0.139899">
        <ele>87.9</ele>
        <time>2021-07-23T08:51:45.078Z</time>
      </trkpt>
      <trkpt lat="39.978478" lon="-0.140281">
        <ele>88.2</ele>
        <time>2021-07-23T08:51:55.094Z</time>
      </trkpt>
      <trkpt lat="39.978632" lon="-0.140597">
        <ele>88.5</ele>
        <time>2021-07-23T08:52:02.883Z</time>
      </trkpt>
      <trkpt lat="39.978764" lon="-0.140944">
        <ele>88.9</ele>
        <time>2021-07-23T08:52:10.862Z</time>
      </trkpt>
      <trkpt lat="39.978908" lon="-0.141126">
        <ele>89.1</ele>
        <time>2021-07-23T08:52:16.097Z</time>
      </trkpt>
      <trkpt lat="39.979066" lon="-0.141184">
        <ele>89.3</ele>
        <time>2021-07-23T08:52:20.230Z</time>
      </trkpt>
      <trkpt lat="39.979208" lon="-0.141108">
        <ele>89.5</ele>
        <time>2021-07-23T08:52:24.062Z</time>
      </trkpt>
      <trkpt lat="39.979359" lon="-0.141148">
        <ele>89.7</ele>
        <time>2021-07-23T08:52:27.774Z</time>
      </trkpt>
      <trkpt lat="39.979467" lon="-0.141289">
        <ele>89.9</ele>
        <time>2021-07-23T08:52:31.187Z</time>
      </trkpt>
      <trkpt lat="39.979498" lon="-0.141485">
        <ele>90.1</ele>
        <time>2021-07-23T08:52:35.293Z</time>
      </trkpt>
      <trkpt lat="39.979567" lon="-0.141670">
        <ele>90.2</ele>
        <time>2021-07-23T08:52:38.869Z</time>
      </trkpt>
      <trkpt lat="39.979667" lon="-0.141848">
        <ele>90.4</ele>
        <time>2021-07-23T08:52:43.458Z</time>
      </trkpt>
      <trkpt lat="39.980004" lon="-0.142180">
        <ele>90.7</ele>
        <time>2021-07-23T08:52:54.360Z</time>
      </trkpt>
      <trkpt lat="39.980419" lon="-0.142575">
        <ele>91.1</ele>
        <time>2021-07-23T08:53:06.646Z</time>
      </trkpt>
      <trkpt lat="39.980785" lon="-0.142924">
        <ele>91.5</ele>
        <time>2021-07-23T08:53:17.018Z</time>
      </trkpt>
      <trkpt lat="39.980995" lon="-0.143014">
        <ele>91.7</ele>
        <time>2021-07-23T08:53:21.549Z</time>
      </trkpt>
      <trkpt lat="39.981137" lon="-0.142952">
        <ele>91.5</ele>
        <time>2021-07-23T08:53:24.400Z</time>
      </trkpt>
      <trkpt lat="39.981287" lon="-0.142970">
        <ele>91.4</ele>
        <time>2021-07-23T08:53:27.388Z</time>
      </trkpt>
      <trkpt lat="39.981417" lon="-0.142859">
        <ele>91.3</ele>
        <time>2021-07-23T08:53:30.060Z</time>
      </trkpt>
      <trkpt lat="39.981485" lon="-0.142799">
        <ele>91.3</ele>
        <time>2021-07-23T08:53:31.489Z</time>
      </trkpt>
      <trkpt lat="39.982101" lon="-0.141972">
        <ele>90.6</ele>
        <time>2021-07-23T08:53:47.269Z</time>
      </trkpt>
      <trkpt lat="39.982220" lon="-0.141788">
        <ele>90.5</ele>
        <time>2021-07-23T08:53:50.250Z</time>
      </trkpt>
      <trkpt lat="39.982275" lon="-0.141607">
        <ele>90.4</ele>
        <time>2021-07-23T08:53:52.587Z</time>
      </trkpt>
      <trkpt lat="39.982192" lon="-0.141284">
        <ele>89.6</ele>
        <time>2021-07-23T08:53:56.597Z</time>
      </trkpt>
      <trkpt lat="39.982052" lon="-0.140924">
        <ele>88.7</ele>
        <time>2021-07-23T08:54:01.191Z</time>
      </trkpt>
      <trkpt lat="39.982034" lon="-0.140767">
        <ele>88.3</ele>
        <time>2021-07-23T08:54:03.032Z</time>
      </trkpt>
      <trkpt lat="39.982065" lon="-0.140635">
        <ele>88.0</ele>
        <time>2021-07-23T08:54:04.515Z</time>
      </trkpt>
      <trkpt lat="39.982293" lon="-0.140235">
        <ele>86.8</ele>
        <time>2021-07-23T08:54:09.987Z</time>
      </trkpt>
      <trkpt lat="39.982520" lon="-0.140108">
        <ele>86.1</ele>
        <time>2021-07-23T08:54:13.468Z</time>
      </trkpt>
      <trkpt lat="39.982520" lon="-0.140108">
        <ele>86.1</ele>
        <time>2021-07-23T08:54:13.507Z</time>
      </trkpt>
      <trkpt lat="39.982520" lon="-0.140108">
        <ele>86.1</ele>
        <time>2021-07-23T08:54:13.512Z</time>
      </trkpt>
      <trkpt lat="39.983018" lon="-0.139557">
        <ele>84.2</ele>
        <time>2021-07-23T08:54:41.457Z</time>
      </trkpt>
      <trkpt lat="39.983515" lon="-0.139005">
        <ele>82.5</ele>
        <time>2021-07-23T08:55:09.388Z</time>
      </trkpt>
      <trkpt lat="39.984012" lon="-0.138454">
        <ele>80.8</ele>
        <time>2021-07-23T08:55:37.283Z</time>
      </trkpt>
      <trkpt lat="39.984011" lon="-0.138547">
        <ele>80.6</ele>
        <time>2021-07-23T08:55:38.980Z</time>
      </trkpt>
      <trkpt lat="39.984456" lon="-0.139554">
        <ele>80.8</ele>
        <time>2021-07-23T08:56:00.872Z</time>
      </trkpt>
      <trkpt lat="39.984551" lon="-0.139638">
        <ele>80.9</ele>
        <time>2021-07-23T08:56:03.658Z</time>
      </trkpt>
      <trkpt lat="39.984651" lon="-0.139654">
        <ele>80.9</ele>
        <time>2021-07-23T08:56:06.874Z</time>
      </trkpt>
      <trkpt lat="39.984664" lon="-0.139550">
        <ele>81.0</ele>
        <time>2021-07-23T08:56:09.432Z</time>
      </trkpt>
      <trkpt lat="39.985921" lon="-0.137966">
        <ele>83.7</ele>
        <time>2021-07-23T08:57:03.320Z</time>
      </trkpt>
      <trkpt lat="39.986001" lon="-0.137884">
        <ele>83.9</ele>
        <time>2021-07-23T08:57:06.352Z</time>
      </trkpt>
      <trkpt lat="39.986168" lon="-0.137855">
        <ele>84.3</ele>
        <time>2021-07-23T08:57:11.432Z</time>
      </trkpt>
      <trkpt lat="39.987670" lon="-0.138578">
        <ele>88.3</ele>
        <time>2021-07-23T08:58:02.346Z</time>
      </trkpt>
      <trkpt lat="39.988418" lon="-0.140421">
        <ele>92.6</ele>
        <time>2021-07-23T08:58:59.907Z</time>
      </trkpt>
      <trkpt lat="39.988645" lon="-0.140812">
        <ele>93.6</ele>
        <time>2021-07-23T08:59:12.604Z</time>
      </trkpt>
      <trkpt lat="39.988955" lon="-0.141235">
        <ele>94.8</ele>
        <time>2021-07-23T08:59:27.113Z</time>
      </trkpt>
      <trkpt lat="39.989314" lon="-0.141737">
        <ele>95.6</ele>
        <time>2021-07-23T08:59:42.369Z</time>
      </trkpt>
      <trkpt lat="39.989656" lon="-0.142516">
        <ele>96.5</ele>
        <time>2021-07-23T09:00:01.184Z</time>
      </trkpt>
      <trkpt lat="39.989776" lon="-0.143062">
        <ele>97.0</ele>
        <time>2021-07-23T09:00:11.658Z</time>
      </trkpt>
      <trkpt lat="39.989815" lon="-0.143741">
        <ele>97.2</ele>
        <time>2021-07-23T09:00:22.982Z</time>
      </trkpt>
      <trkpt lat="39.989736" lon="-0.144388">
        <ele>96.9</ele>
        <time>2021-07-23T09:00:33.229Z</time>
      </trkpt>
      <trkpt lat="39.989656" lon="-0.144730">
        <ele>96.7</ele>
        <time>2021-07-23T09:00:38.744Z</time>
      </trkpt>
      <trkpt lat="39.992185" lon="-0.149525">
        <ele>90.4</ele>
        <time>2021-07-23T09:01:54.271Z</time>
      </trkpt>
      <trkpt lat="39.992231" lon="-0.149620">
        <ele>90.4</ele>
        <time>2021-07-23T09:01:55.842Z</time>
      </trkpt>
      <trkpt lat="39.992258" lon="-0.149743">
        <ele>90.4</ele>
        <time>2021-07-23T09:01:57.474Z</time>
      </trkpt>
      <trkpt lat="39.992252" lon="-0.149822">
        <ele>90.3</ele>
        <time>2021-07-23T09:01:58.450Z</time>
      </trkpt>
      <trkpt lat="39.992145" lon="-0.150033">
        <ele>90.3</ele>
        <time>2021-07-23T09:02:01.841Z</time>
      </trkpt>
      <trkpt lat="39.992061" lon="-0.150135">
        <ele>90.3</ele>
        <time>2021-07-23T09:02:03.729Z</time>
      </trkpt>
      <trkpt lat="39.992140" lon="-0.150191">
        <ele>90.2</ele>
        <time>2021-07-23T09:02:05.322Z</time>
      </trkpt>
      <trkpt lat="39.992272" lon="-0.150249">
        <ele>90.2</ele>
        <time>2021-07-23T09:02:08.126Z</time>
      </trkpt>
      <trkpt lat="39.992905" lon="-0.150182">
        <ele>90.0</ele>
        <time>2021-07-23T09:02:20.770Z</time>
      </trkpt>
      <trkpt lat="39.993373" lon="-0.149885">
        <ele>90.7</ele>
        <time>2021-07-23T09:02:34.235Z</time>
      </trkpt>
      <trkpt lat="39.993514" lon="-0.149877">
        <ele>91.1</ele>
        <time>2021-07-23T09:02:38.272Z</time>
      </trkpt>
      <trkpt lat="39.993747" lon="-0.149983">
        <ele>91.8</ele>
        <time>2021-07-23T09:02:46.244Z</time>
      </trkpt>
      <trkpt lat="39.993756" lon="-0.150047">
        <ele>92.0</ele>
        <time>2021-07-23T09:02:48.049Z</time>
      </trkpt>
      <trkpt lat="39.993785" lon="-0.150275">
        <ele>92.5</ele>
        <time>2021-07-23T09:02:54.110Z</time>
      </trkpt>
      <trkpt lat="39.993678" lon="-0.150737">
        <ele>93.6</ele>
        <time>2021-07-23T09:03:07.952Z</time>
      </trkpt>
      <trkpt lat="39.993764" lon="-0.151226">
        <ele>94.8</ele>
        <time>2021-07-23T09:03:23.565Z</time>
      </trkpt>
      <trkpt lat="39.993034" lon="-0.151810">
        <ele>99.0</ele>
        <time>2021-07-23T09:04:01.743Z</time>
      </trkpt>
      <trkpt lat="39.993005" lon="-0.151951">
        <ele>99.6</ele>
        <time>2021-07-23T09:04:07.098Z</time>
      </trkpt>
      <trkpt lat="39.994067" lon="-0.153881">
        <ele>109.5</ele>
        <time>2021-07-23T09:05:37.832Z</time>
      </trkpt>
      <trkpt lat="39.994600" lon="-0.154508">
        <ele>113.4</ele>
        <time>2021-07-23T09:06:12.024Z</time>
      </trkpt>
      <trkpt lat="39.995111" lon="-0.155748">
        <ele>118.1</ele>
        <time>2021-07-23T09:06:58.451Z</time>
      </trkpt>
      <trkpt lat="39.995256" lon="-0.156257">
        <ele>119.7</ele>
        <time>2021-07-23T09:07:14.577Z</time>
      </trkpt>
      <trkpt lat="39.995308" lon="-0.156801">
        <ele>121.3</ele>
        <time>2021-07-23T09:07:29.830Z</time>
      </trkpt>
      <trkpt lat="39.995599" lon="-0.157735">
        <ele>123.5</ele>
        <time>2021-07-23T09:07:56.116Z</time>
      </trkpt>
      <trkpt lat="39.995856" lon="-0.158103">
        <ele>124.4</ele>
        <time>2021-07-23T09:08:08.411Z</time>
      </trkpt>
      <trkpt lat="39.995986" lon="-0.159076">
        <ele>126.3</ele>
        <time>2021-07-23T09:08:32.321Z</time>
      </trkpt>
      <trkpt lat="39.996345" lon="-0.160839">
        <ele>129.5</ele>
        <time>2021-07-23T09:09:16.174Z</time>
      </trkpt>
      <trkpt lat="39.996471" lon="-0.161186">
        <ele>130.2</ele>
        <time>2021-07-23T09:09:25.703Z</time>
      </trkpt>
      <trkpt lat="39.996813" lon="-0.161815">
        <ele>131.9</ele>
        <time>2021-07-23T09:09:45.445Z</time>
      </trkpt>
      <trkpt lat="39.996862" lon="-0.162191">
        <ele>132.9</ele>
        <time>2021-07-23T09:09:55.578Z</time>
      </trkpt>
      <trkpt lat="39.996698" lon="-0.162667">
        <ele>134.1</ele>
        <time>2021-07-23T09:10:09.858Z</time>
      </trkpt>
      <trkpt lat="39.996747" lon="-0.162894">
        <ele>134.7</ele>
        <time>2021-07-23T09:10:16.521Z</time>
      </trkpt>
      <trkpt lat="39.996697" lon="-0.163247">
        <ele>135.5</ele>
        <time>2021-07-23T09:10:26.868Z</time>
      </trkpt>
      <trkpt lat="39.996739" lon="-0.163493">
        <ele>136.1</ele>
        <time>2021-07-23T09:10:34.275Z</time>
      </trkpt>
      <trkpt lat="39.997095" lon="-0.164447">
        <ele>139.2</ele>
        <time>2021-07-23T09:11:06.540Z</time>
      </trkpt>
      <trkpt lat="39.997795" lon="-0.165310">
        <ele>142.9</ele>
        <time>2021-07-23T09:11:44.904Z</time>
      </trkpt>
      <trkpt lat="39.998154" lon="-0.165840">
        <ele>144.7</ele>
        <time>2021-07-23T09:12:05.659Z</time>
      </trkpt>
      <trkpt lat="39.998226" lon="-0.166036">
        <ele>145.2</ele>
        <time>2021-07-23T09:12:11.935Z</time>
      </trkpt>
      <trkpt lat="39.998297" lon="-0.166857">
        <ele>147.3</ele>
        <time>2021-07-23T09:12:34.908Z</time>
      </trkpt>
      <trkpt lat="39.998393" lon="-0.167418">
        <ele>148.8</ele>
        <time>2021-07-23T09:12:50.390Z</time>
      </trkpt>
      <trkpt lat="39.997993" lon="-0.168815">
        <ele>152.3</ele>
        <time>2021-07-23T09:13:30.605Z</time>
      </trkpt>
      <trkpt lat="39.997826" lon="-0.169901">
        <ele>155.0</ele>
        <time>2021-07-23T09:14:01.107Z</time>
      </trkpt>
      <trkpt lat="39.997496" lon="-0.170722">
        <ele>157.4</ele>
        <time>2021-07-23T09:14:28.757Z</time>
      </trkpt>
      <trkpt lat="39.997416" lon="-0.171187">
        <ele>158.6</ele>
        <time>2021-07-23T09:14:42.737Z</time>
      </trkpt>
      <trkpt lat="39.997221" lon="-0.171432">
        <ele>159.5</ele>
        <time>2021-07-23T09:14:52.861Z</time>
      </trkpt>
      <trkpt lat="39.997192" lon="-0.171537">
        <ele>159.8</ele>
        <time>2021-07-23T09:14:55.785Z</time>
      </trkpt>
      <trkpt lat="39.997185" lon="-0.171692">
        <ele>160.2</ele>
        <time>2021-07-23T09:15:00.565Z</time>
      </trkpt>
      <trkpt lat="39.997742" lon="-0.172021">
        <ele>161.4</ele>
        <time>2021-07-23T09:15:20.967Z</time>
      </trkpt>
      <trkpt lat="39.998655" lon="-0.172474">
        <ele>163.1</ele>
        <time>2021-07-23T09:15:48.562Z</time>
      </trkpt>
      <trkpt lat="39.999191" lon="-0.172630">
        <ele>163.6</ele>
        <time>2021-07-23T09:16:00.479Z</time>
      </trkpt>
      <trkpt lat="39.999298" lon="-0.172595">
        <ele>163.5</ele>
        <time>2021-07-23T09:16:02.834Z</time>
      </trkpt>
      <trkpt lat="39.999399" lon="-0.172461">
        <ele>163.5</ele>
        <time>2021-07-23T09:16:05.500Z</time>
      </trkpt>
      <trkpt lat="39.999477" lon="-0.172163">
        <ele>163.4</ele>
        <time>2021-07-23T09:16:10.478Z</time>
      </trkpt>
      <trkpt lat="39.999515" lon="-0.171647">
        <ele>163.3</ele>
        <time>2021-07-23T09:16:18.052Z</time>
      </trkpt>
      <trkpt lat="39.999581" lon="-0.171472">
        <ele>163.2</ele>
        <time>2021-07-23T09:16:20.841Z</time>
      </trkpt>
      <trkpt lat="39.999707" lon="-0.171380">
        <ele>163.2</ele>
        <time>2021-07-23T09:16:23.636Z</time>
      </trkpt>
      <trkpt lat="40.000545" lon="-0.171343">
        <ele>162.2</ele>
        <time>2021-07-23T09:16:38.821Z</time>
      </trkpt>
      <trkpt lat="40.001704" lon="-0.170971">
        <ele>160.1</ele>
        <time>2021-07-23T09:16:58.771Z</time>
      </trkpt>
      <trkpt lat="40.001915" lon="-0.170847">
        <ele>159.5</ele>
        <time>2021-07-23T09:17:02.341Z</time>
      </trkpt>
      <trkpt lat="40.002217" lon="-0.170575">
        <ele>158.0</ele>
        <time>2021-07-23T09:17:07.878Z</time>
      </trkpt>
      <trkpt lat="40.002685" lon="-0.169523">
        <ele>154.1</ele>
        <time>2021-07-23T09:17:21.368Z</time>
      </trkpt>
      <trkpt lat="40.003069" lon="-0.169470">
        <ele>152.5</ele>
        <time>2021-07-23T09:17:26.828Z</time>
      </trkpt>
      <trkpt lat="40.003322" lon="-0.169508">
        <ele>151.4</ele>
        <time>2021-07-23T09:17:30.450Z</time>
      </trkpt>
      <trkpt lat="40.003842" lon="-0.169716">
        <ele>149.0</ele>
        <time>2021-07-23T09:17:38.119Z</time>
      </trkpt>
      <trkpt lat="40.004020" lon="-0.169696">
        <ele>148.2</ele>
        <time>2021-07-23T09:17:40.668Z</time>
      </trkpt>
      <trkpt lat="40.004725" lon="-0.169262">
        <ele>144.8</ele>
        <time>2021-07-23T09:17:52.119Z</time>
      </trkpt>
      <trkpt lat="40.004994" lon="-0.168975">
        <ele>143.9</ele>
        <time>2021-07-23T09:17:57.460Z</time>
      </trkpt>
      <trkpt lat="40.005204" lon="-0.168846">
        <ele>143.4</ele>
        <time>2021-07-23T09:18:03.584Z</time>
      </trkpt>
      <trkpt lat="40.005645" lon="-0.168446">
        <ele>142.3</ele>
        <time>2021-07-23T09:18:18.216Z</time>
      </trkpt>
      <trkpt lat="40.007443" lon="-0.165388">
        <ele>137.4</ele>
        <time>2021-07-23T09:19:43.216Z</time>
      </trkpt>
      <trkpt lat="40.007761" lon="-0.165003">
        <ele>136.4</ele>
        <time>2021-07-23T09:19:55.050Z</time>
      </trkpt>
      <trkpt lat="40.007761" lon="-0.165003">
        <ele>136.4</ele>
        <time>2021-07-23T09:19:55.112Z</time>
      </trkpt>
      <trkpt lat="40.007761" lon="-0.165003">
        <ele>136.4</ele>
        <time>2021-07-23T09:19:55.116Z</time>
      </trkpt>
      <trkpt lat="40.007782" lon="-0.165033">
        <ele>136.3</ele>
        <time>2021-07-23T09:19:56.449Z</time>
      </trkpt>
      <trkpt lat="40.007827" lon="-0.164954">
        <ele>136.2</ele>
        <time>2021-07-23T09:19:59.678Z</time>
      </trkpt>
      <trkpt lat="40.008310" lon="-0.164067">
        <ele>134.2</ele>
        <time>2021-07-23T09:20:35.381Z</time>
      </trkpt>
      <trkpt lat="40.008793" lon="-0.163181">
        <ele>131.5</ele>
        <time>2021-07-23T09:21:11.063Z</time>
      </trkpt>
      <trkpt lat="40.009277" lon="-0.162294">
        <ele>128.8</ele>
        <time>2021-07-23T09:21:46.793Z</time>
      </trkpt>
      <trkpt lat="40.009760" lon="-0.161407">
        <ele>126.8</ele>
        <time>2021-07-23T09:22:22.509Z</time>
      </trkpt>
      <trkpt lat="40.009794" lon="-0.161466">
        <ele>126.7</ele>
        <time>2021-07-23T09:22:24.930Z</time>
      </trkpt>
      <trkpt lat="40.009843" lon="-0.161496">
        <ele>126.5</ele>
        <time>2021-07-23T09:22:27.243Z</time>
      </trkpt>
      <trkpt lat="40.009913" lon="-0.161539">
        <ele>126.4</ele>
        <time>2021-07-23T09:22:30.549Z</time>
      </trkpt>
      <trkpt lat="40.009977" lon="-0.161579">
        <ele>126.2</ele>
        <time>2021-07-23T09:22:33.582Z</time>
      </trkpt>
      <trkpt lat="40.010019" lon="-0.161603">
        <ele>126.1</ele>
        <time>2021-07-23T09:22:35.541Z</time>
      </trkpt>
      <trkpt lat="40.010084" lon="-0.161654">
        <ele>126.0</ele>
        <time>2021-07-23T09:22:38.793Z</time>
      </trkpt>
      <trkpt lat="40.010146" lon="-0.161719">
        <ele>125.8</ele>
        <time>2021-07-23T09:22:42.196Z</time>
      </trkpt>
      <trkpt lat="40.010191" lon="-0.161756">
        <ele>125.7</ele>
        <time>2021-07-23T09:22:44.469Z</time>
      </trkpt>
      <trkpt lat="40.010233" lon="-0.161823">
        <ele>125.5</ele>
        <time>2021-07-23T09:22:47.307Z</time>
      </trkpt>
      <trkpt lat="40.010262" lon="-0.161900">
        <ele>125.4</ele>
        <time>2021-07-23T09:22:50.124Z</time>
      </trkpt>
      <trkpt lat="40.010282" lon="-0.161954">
        <ele>125.3</ele>
        <time>2021-07-23T09:22:52.092Z</time>
      </trkpt>
      <trkpt lat="40.010268" lon="-0.161964">
        <ele>125.2</ele>
        <time>2021-07-23T09:22:52.806Z</time>
      </trkpt>
      <trkpt lat="40.010321" lon="-0.162084">
        <ele>125.0</ele>
        <time>2021-07-23T09:22:56.750Z</time>
      </trkpt>
      <trkpt lat="40.010388" lon="-0.162460">
        <ele>124.3</ele>
        <time>2021-07-23T09:23:05.027Z</time>
      </trkpt>
      <trkpt lat="40.010503" lon="-0.162652">
        <ele>124.2</ele>
        <time>2021-07-23T09:23:12.185Z</time>
      </trkpt>
      <trkpt lat="40.010732" lon="-0.163331">
        <ele>123.8</ele>
        <time>2021-07-23T09:23:28.444Z</time>
      </trkpt>
      <trkpt lat="40.010973" lon="-0.163557">
        <ele>123.6</ele>
        <time>2021-07-23T09:23:36.932Z</time>
      </trkpt>
      <trkpt lat="40.011293" lon="-0.164010">
        <ele>123.4</ele>
        <time>2021-07-23T09:23:53.272Z</time>
      </trkpt>
      <trkpt lat="40.011320" lon="-0.164117">
        <ele>123.3</ele>
        <time>2021-07-23T09:23:56.001Z</time>
      </trkpt>
      <trkpt lat="40.011475" lon="-0.164267">
        <ele>123.2</ele>
        <time>2021-07-23T09:24:02.033Z</time>
      </trkpt>
      <trkpt lat="40.011699" lon="-0.165406">
        <ele>123.3</ele>
        <time>2021-07-23T09:24:29.463Z</time>
      </trkpt>
      <trkpt lat="40.011578" lon="-0.166230">
        <ele>123.4</ele>
        <time>2021-07-23T09:24:49.921Z</time>
      </trkpt>
      <trkpt lat="40.011452" lon="-0.166648">
        <ele>123.6</ele>
        <time>2021-07-23T09:25:02.451Z</time>
      </trkpt>
      <trkpt lat="40.011220" lon="-0.166848">
        <ele>124.3</ele>
        <time>2021-07-23T09:25:13.566Z</time>
      </trkpt>
      <trkpt lat="40.011055" lon="-0.166856">
        <ele>124.7</ele>
        <time>2021-07-23T09:25:20.387Z</time>
      </trkpt>
      <trkpt lat="40.010747" lon="-0.167182">
        <ele>125.7</ele>
        <time>2021-07-23T09:25:38.355Z</time>
      </trkpt>
      <trkpt lat="40.010626" lon="-0.167350">
        <ele>126.2</ele>
        <time>2021-07-23T09:25:46.737Z</time>
      </trkpt>
      <trkpt lat="40.010600" lon="-0.167485">
        <ele>126.5</ele>
        <time>2021-07-23T09:25:51.723Z</time>
      </trkpt>
      <trkpt lat="40.010453" lon="-0.167412">
        <ele>126.9</ele>
        <time>2021-07-23T09:25:59.611Z</time>
      </trkpt>
      <trkpt lat="40.010108" lon="-0.168024">
        <ele>128.3</ele>
        <time>2021-07-23T09:26:28.374Z</time>
      </trkpt>
      <trkpt lat="40.009766" lon="-0.168265">
        <ele>129.2</ele>
        <time>2021-07-23T09:26:47.233Z</time>
      </trkpt>
      <trkpt lat="40.009664" lon="-0.168256">
        <ele>129.4</ele>
        <time>2021-07-23T09:26:52.164Z</time>
      </trkpt>
      <trkpt lat="40.009593" lon="-0.168471">
        <ele>129.8</ele>
        <time>2021-07-23T09:27:00.195Z</time>
      </trkpt>
      <trkpt lat="40.008892" lon="-0.169145">
        <ele>131.7</ele>
        <time>2021-07-23T09:27:36.300Z</time>
      </trkpt>
      <trkpt lat="40.008798" lon="-0.169342">
        <ele>132.0</ele>
        <time>2021-07-23T09:27:42.615Z</time>
      </trkpt>
      <trkpt lat="40.008199" lon="-0.169908">
        <ele>131.8</ele>
        <time>2021-07-23T09:28:06.058Z</time>
      </trkpt>
      <trkpt lat="40.007907" lon="-0.170523">
        <ele>131.6</ele>
        <time>2021-07-23T09:28:22.413Z</time>
      </trkpt>
      <trkpt lat="40.007662" lon="-0.170732">
        <ele>131.5</ele>
        <time>2021-07-23T09:28:30.836Z</time>
      </trkpt>
      <trkpt lat="40.007007" lon="-0.171588">
        <ele>131.5</ele>
        <time>2021-07-23T09:28:58.418Z</time>
      </trkpt>
      <trkpt lat="40.006865" lon="-0.171926">
        <ele>131.5</ele>
        <time>2021-07-23T09:29:07.763Z</time>
      </trkpt>
      <trkpt lat="40.006620" lon="-0.172320">
        <ele>131.5</ele>
        <time>2021-07-23T09:29:20.842Z</time>
      </trkpt>
      <trkpt lat="40.006394" lon="-0.172535">
        <ele>131.5</ele>
        <time>2021-07-23T09:29:30.787Z</time>
      </trkpt>
      <trkpt lat="40.005904" lon="-0.173163">
        <ele>132.4</ele>
        <time>2021-07-23T09:29:57.480Z</time>
      </trkpt>
      <trkpt lat="40.005635" lon="-0.173249">
        <ele>132.8</ele>
        <time>2021-07-23T09:30:08.688Z</time>
      </trkpt>
      <trkpt lat="40.005508" lon="-0.173434">
        <ele>133.1</ele>
        <time>2021-07-23T09:30:15.897Z</time>
      </trkpt>
      <trkpt lat="40.005230" lon="-0.173686">
        <ele>133.7</ele>
        <time>2021-07-23T09:30:28.985Z</time>
      </trkpt>
      <trkpt lat="40.005202" lon="-0.173809">
        <ele>133.8</ele>
        <time>2021-07-23T09:30:33.619Z</time>
      </trkpt>
      <trkpt lat="40.005409" lon="-0.173852">
        <ele>134.1</ele>
        <time>2021-07-23T09:30:42.133Z</time>
      </trkpt>
      <trkpt lat="40.005579" lon="-0.174098">
        <ele>134.8</ele>
        <time>2021-07-23T09:30:53.001Z</time>
      </trkpt>
      <trkpt lat="40.005602" lon="-0.174332">
        <ele>135.3</ele>
        <time>2021-07-23T09:31:00.685Z</time>
      </trkpt>
      <trkpt lat="40.005459" lon="-0.174756">
        <ele>136.2</ele>
        <time>2021-07-23T09:31:16.305Z</time>
      </trkpt>
      <trkpt lat="40.005268" lon="-0.175021">
        <ele>137.0</ele>
        <time>2021-07-23T09:31:29.072Z</time>
      </trkpt>
      <trkpt lat="40.005197" lon="-0.175292">
        <ele>137.6</ele>
        <time>2021-07-23T09:31:39.089Z</time>
      </trkpt>
      <trkpt lat="40.005176" lon="-0.175429">
        <ele>137.9</ele>
        <time>2021-07-23T09:31:44.437Z</time>
      </trkpt>
      <trkpt lat="40.005118" lon="-0.175665">
        <ele>138.4</ele>
        <time>2021-07-23T09:31:52.639Z</time>
      </trkpt>
      <trkpt lat="40.005227" lon="-0.176116">
        <ele>139.6</ele>
        <time>2021-07-23T09:32:09.963Z</time>
      </trkpt>
      <trkpt lat="40.005203" lon="-0.176266">
        <ele>140.1</ele>
        <time>2021-07-23T09:32:15.974Z</time>
      </trkpt>
      <trkpt lat="40.005320" lon="-0.176481">
        <ele>141.1</ele>
        <time>2021-07-23T09:32:25.961Z</time>
      </trkpt>
      <trkpt lat="40.005373" lon="-0.176829">
        <ele>142.3</ele>
        <time>2021-07-23T09:32:42.409Z</time>
      </trkpt>
      <trkpt lat="40.005424" lon="-0.176902">
        <ele>142.7</ele>
        <time>2021-07-23T09:32:46.087Z</time>
      </trkpt>
      <trkpt lat="40.005421" lon="-0.177176">
        <ele>143.7</ele>
        <time>2021-07-23T09:32:59.619Z</time>
      </trkpt>
      <trkpt lat="40.005490" lon="-0.177218">
        <ele>144.0</ele>
        <time>2021-07-23T09:33:03.683Z</time>
      </trkpt>
      <trkpt lat="40.005498" lon="-0.177426">
        <ele>144.8</ele>
        <time>2021-07-23T09:33:13.234Z</time>
      </trkpt>
      <trkpt lat="40.005562" lon="-0.177485">
        <ele>145.1</ele>
        <time>2021-07-23T09:33:17.564Z</time>
      </trkpt>
      <trkpt lat="40.005581" lon="-0.177767">
        <ele>146.2</ele>
        <time>2021-07-23T09:33:28.751Z</time>
      </trkpt>
      <trkpt lat="40.005652" lon="-0.177954">
        <ele>146.9</ele>
        <time>2021-07-23T09:33:38.861Z</time>
      </trkpt>
      <trkpt lat="40.005621" lon="-0.178225">
        <ele>147.9</ele>
        <time>2021-07-23T09:33:49.637Z</time>
      </trkpt>
      <trkpt lat="40.005626" lon="-0.178265">
        <ele>148.0</ele>
        <time>2021-07-23T09:33:52.645Z</time>
      </trkpt>
      <trkpt lat="40.005645" lon="-0.178505">
        <ele>148.9</ele>
        <time>2021-07-23T09:34:02.708Z</time>
      </trkpt>
      <trkpt lat="40.005748" lon="-0.179516">
        <ele>152.7</ele>
        <time>2021-07-23T09:34:45.604Z</time>
      </trkpt>
      <trkpt lat="40.005794" lon="-0.180468">
        <ele>156.2</ele>
        <time>2021-07-23T09:35:27.864Z</time>
      </trkpt>
      <trkpt lat="40.005634" lon="-0.180806">
        <ele>157.5</ele>
        <time>2021-07-23T09:35:43.499Z</time>
      </trkpt>
      <trkpt lat="40.005924" lon="-0.181087">
        <ele>159.0</ele>
        <time>2021-07-23T09:36:02.540Z</time>
      </trkpt>
      <trkpt lat="40.006068" lon="-0.181210">
        <ele>159.8</ele>
        <time>2021-07-23T09:36:12.293Z</time>
      </trkpt>
      <trkpt lat="40.005640" lon="-0.182843">
        <ele>164.9</ele>
        <time>2021-07-23T09:37:07.159Z</time>
      </trkpt>
      <trkpt lat="40.005601" lon="-0.183192">
        <ele>165.6</ele>
        <time>2021-07-23T09:37:16.531Z</time>
      </trkpt>
      <trkpt lat="40.005468" lon="-0.183726">
        <ele>166.7</ele>
        <time>2021-07-23T09:37:31.223Z</time>
      </trkpt>
      <trkpt lat="40.005382" lon="-0.184586">
        <ele>168.4</ele>
        <time>2021-07-23T09:37:48.707Z</time>
      </trkpt>
      <trkpt lat="40.005352" lon="-0.184663">
        <ele>168.6</ele>
        <time>2021-07-23T09:37:51.661Z</time>
      </trkpt>
      <trkpt lat="40.005238" lon="-0.184695">
        <ele>168.8</ele>
        <time>2021-07-23T09:37:53.967Z</time>
      </trkpt>
      <trkpt lat="40.004640" lon="-0.184742">
        <ele>169.6</ele>
        <time>2021-07-23T09:38:11.332Z</time>
      </trkpt>
      <trkpt lat="40.004365" lon="-0.184848">
        <ele>170.1</ele>
        <time>2021-07-23T09:38:18.033Z</time>
      </trkpt>
      <trkpt lat="40.004095" lon="-0.185055">
        <ele>170.5</ele>
        <time>2021-07-23T09:38:26.344Z</time>
      </trkpt>
      <trkpt lat="40.004269" lon="-0.185202">
        <ele>170.8</ele>
        <time>2021-07-23T09:38:32.671Z</time>
      </trkpt>
      <trkpt lat="40.004720" lon="-0.185897">
        <ele>171.8</ele>
        <time>2021-07-23T09:38:51.478Z</time>
      </trkpt>
      <trkpt lat="40.005089" lon="-0.187051">
        <ele>173.2</ele>
        <time>2021-07-23T09:39:19.249Z</time>
      </trkpt>
      <trkpt lat="40.005249" lon="-0.187363">
        <ele>173.6</ele>
        <time>2021-07-23T09:39:26.008Z</time>
      </trkpt>
      <trkpt lat="40.005611" lon="-0.188068">
        <ele>174.3</ele>
        <time>2021-07-23T09:39:39.173Z</time>
      </trkpt>
      <trkpt lat="40.005713" lon="-0.188412">
        <ele>174.6</ele>
        <time>2021-07-23T09:39:44.909Z</time>
      </trkpt>
      <trkpt lat="40.005783" lon="-0.188961">
        <ele>174.9</ele>
        <time>2021-07-23T09:39:54.152Z</time>
      </trkpt>
      <trkpt lat="40.005903" lon="-0.189120">
        <ele>175.1</ele>
        <time>2021-07-23T09:39:58.087Z</time>
      </trkpt>
      <trkpt lat="40.005782" lon="-0.189357">
        <ele>175.3</ele>
        <time>2021-07-23T09:40:03.541Z</time>
      </trkpt>
      <trkpt lat="40.005692" lon="-0.189525">
        <ele>175.4</ele>
        <time>2021-07-23T09:40:07.535Z</time>
      </trkpt>
      <trkpt lat="40.006041" lon="-0.190001">
        <ele>177.7</ele>
        <time>2021-07-23T09:40:22.051Z</time>
      </trkpt>
      <trkpt lat="40.007689" lon="-0.192841">
        <ele>194.8</ele>
        <time>2021-07-23T09:42:40.749Z</time>
      </trkpt>
      <trkpt lat="40.007816" lon="-0.192866">
        <ele>195.8</ele>
        <time>2021-07-23T09:42:51.261Z</time>
      </trkpt>
      <trkpt lat="40.008048" lon="-0.192736">
        <ele>197.6</ele>
        <time>2021-07-23T09:43:07.032Z</time>
      </trkpt>
      <trkpt lat="40.008109" lon="-0.192793">
        <ele>198.3</ele>
        <time>2021-07-23T09:43:15.686Z</time>
      </trkpt>
      <trkpt lat="40.008326" lon="-0.192923">
        <ele>200.7</ele>
        <time>2021-07-23T09:43:33.994Z</time>
      </trkpt>
      <trkpt lat="40.008514" lon="-0.193158">
        <ele>203.3</ele>
        <time>2021-07-23T09:43:57.428Z</time>
      </trkpt>
      <trkpt lat="40.008645" lon="-0.193807">
        <ele>208.4</ele>
        <time>2021-07-23T09:44:41.895Z</time>
      </trkpt>
      <trkpt lat="40.009074" lon="-0.194561">
        <ele>215.6</ele>
        <time>2021-07-23T09:45:41.799Z</time>
      </trkpt>
      <trkpt lat="40.009251" lon="-0.194735">
        <ele>216.7</ele>
        <time>2021-07-23T09:45:57.111Z</time>
      </trkpt>
      <trkpt lat="40.009403" lon="-0.195125">
        <ele>218.3</ele>
        <time>2021-07-23T09:46:18.989Z</time>
      </trkpt>
      <trkpt lat="40.009590" lon="-0.195224">
        <ele>219.2</ele>
        <time>2021-07-23T09:46:31.068Z</time>
      </trkpt>
      <trkpt lat="40.009640" lon="-0.195348">
        <ele>219.7</ele>
        <time>2021-07-23T09:46:37.500Z</time>
      </trkpt>
      <trkpt lat="40.009596" lon="-0.196442">
        <ele>223.7</ele>
        <time>2021-07-23T09:47:18.245Z</time>
      </trkpt>
      <trkpt lat="40.009629" lon="-0.196720">
        <ele>224.0</ele>
        <time>2021-07-23T09:47:26.151Z</time>
      </trkpt>
      <trkpt lat="40.009694" lon="-0.196774">
        <ele>223.9</ele>
        <time>2021-07-23T09:47:28.663Z</time>
      </trkpt>
      <trkpt lat="40.009569" lon="-0.197339">
        <ele>223.0</ele>
        <time>2021-07-23T09:47:42.048Z</time>
      </trkpt>
      <trkpt lat="40.009326" lon="-0.197879">
        <ele>222.1</ele>
        <time>2021-07-23T09:47:55.098Z</time>
      </trkpt>
      <trkpt lat="40.009015" lon="-0.198286">
        <ele>221.3</ele>
        <time>2021-07-23T09:48:06.410Z</time>
      </trkpt>
      <trkpt lat="40.008904" lon="-0.198935">
        <ele>219.5</ele>
        <time>2021-07-23T09:48:18.961Z</time>
      </trkpt>
      <trkpt lat="40.008905" lon="-0.199444">
        <ele>217.5</ele>
        <time>2021-07-23T09:48:28.349Z</time>
      </trkpt>
      <trkpt lat="40.008854" lon="-0.199818">
        <ele>216.0</ele>
        <time>2021-07-23T09:48:35.261Z</time>
      </trkpt>
      <trkpt lat="40.008812" lon="-0.200013">
        <ele>215.2</ele>
        <time>2021-07-23T09:48:38.936Z</time>
      </trkpt>
      <trkpt lat="40.008644" lon="-0.200334">
        <ele>213.6</ele>
        <time>2021-07-23T09:48:45.974Z</time>
      </trkpt>
      <trkpt lat="40.008005" lon="-0.201273">
        <ele>208.7</ele>
        <time>2021-07-23T09:49:08.760Z</time>
      </trkpt>
      <trkpt lat="40.007679" lon="-0.201038">
        <ele>206.8</ele>
        <time>2021-07-23T09:49:17.654Z</time>
      </trkpt>
      <trkpt lat="40.007067" lon="-0.201518">
        <ele>203.1</ele>
        <time>2021-07-23T09:49:34.819Z</time>
      </trkpt>
      <trkpt lat="40.006970" lon="-0.202056">
        <ele>201.6</ele>
        <time>2021-07-23T09:49:45.199Z</time>
      </trkpt>
      <trkpt lat="40.007162" lon="-0.202419">
        <ele>200.7</ele>
        <time>2021-07-23T09:49:53.645Z</time>
      </trkpt>
      <trkpt lat="40.006633" lon="-0.202887">
        <ele>198.9</ele>
        <time>2021-07-23T09:50:10.485Z</time>
      </trkpt>
      <trkpt lat="40.006307" lon="-0.203443">
        <ele>197.4</ele>
        <time>2021-07-23T09:50:25.692Z</time>
      </trkpt>
      <trkpt lat="40.006221" lon="-0.203725">
        <ele>197.2</ele>
        <time>2021-07-23T09:50:32.557Z</time>
      </trkpt>
      <trkpt lat="40.005725" lon="-0.204348">
        <ele>196.9</ele>
        <time>2021-07-23T09:50:53.924Z</time>
      </trkpt>
      <trkpt lat="40.005564" lon="-0.204659">
        <ele>196.8</ele>
        <time>2021-07-23T09:51:03.589Z</time>
      </trkpt>
      <trkpt lat="40.005303" lon="-0.204616">
        <ele>196.6</ele>
        <time>2021-07-23T09:51:12.541Z</time>
      </trkpt>
      <trkpt lat="40.005123" lon="-0.204690">
        <ele>196.6</ele>
        <time>2021-07-23T09:51:19.165Z</time>
      </trkpt>
      <trkpt lat="40.004651" lon="-0.205208">
        <ele>195.2</ele>
        <time>2021-07-23T09:51:37.033Z</time>
      </trkpt>
      <trkpt lat="40.004443" lon="-0.206214">
        <ele>193.1</ele>
        <time>2021-07-23T09:51:57.890Z</time>
      </trkpt>
      <trkpt lat="40.004336" lon="-0.206438">
        <ele>192.5</ele>
        <time>2021-07-23T09:52:02.720Z</time>
      </trkpt>
      <trkpt lat="40.004549" lon="-0.206520">
        <ele>191.9</ele>
        <time>2021-07-23T09:52:08.844Z</time>
      </trkpt>
      <trkpt lat="40.004617" lon="-0.206551">
        <ele>191.7</ele>
        <time>2021-07-23T09:52:10.399Z</time>
      </trkpt>
      <trkpt lat="40.004698" lon="-0.206553">
        <ele>191.5</ele>
        <time>2021-07-23T09:52:11.557Z</time>
      </trkpt>
      <trkpt lat="40.005460" lon="-0.206971">
        <ele>189.3</ele>
        <time>2021-07-23T09:52:23.710Z</time>
      </trkpt>
      <trkpt lat="40.005478" lon="-0.207067">
        <ele>189.1</ele>
        <time>2021-07-23T09:52:24.913Z</time>
      </trkpt>
      <trkpt lat="40.004691" lon="-0.208573">
        <ele>186.9</ele>
        <time>2021-07-23T09:52:49.013Z</time>
      </trkpt>
      <trkpt lat="40.004656" lon="-0.208582">
        <ele>186.9</ele>
        <time>2021-07-23T09:52:49.804Z</time>
      </trkpt>
      <trkpt lat="40.004721" lon="-0.208712">
        <ele>187.0</ele>
        <time>2021-07-23T09:52:55.743Z</time>
      </trkpt>
      <trkpt lat="40.004831" lon="-0.208882">
        <ele>187.0</ele>
        <time>2021-07-23T09:53:00.934Z</time>
      </trkpt>
      <trkpt lat="40.005008" lon="-0.208990">
        <ele>187.1</ele>
        <time>2021-07-23T09:53:09.421Z</time>
      </trkpt>
      <trkpt lat="40.004961" lon="-0.209242">
        <ele>187.2</ele>
        <time>2021-07-23T09:53:15.573Z</time>
      </trkpt>
      <trkpt lat="40.004959" lon="-0.209361">
        <ele>187.2</ele>
        <time>2021-07-23T09:53:19.799Z</time>
      </trkpt>
      <trkpt lat="40.004959" lon="-0.209402">
        <ele>187.2</ele>
        <time>2021-07-23T09:53:21.674Z</time>
      </trkpt>
      <trkpt lat="40.004902" lon="-0.209660">
        <ele>187.3</ele>
        <time>2021-07-23T09:53:28.382Z</time>
      </trkpt>
      <trkpt lat="40.004647" lon="-0.210119">
        <ele>187.3</ele>
        <time>2021-07-23T09:53:45.064Z</time>
      </trkpt>
      <trkpt lat="40.004311" lon="-0.210882">
        <ele>187.1</ele>
        <time>2021-07-23T09:54:09.105Z</time>
      </trkpt>
      <trkpt lat="40.004152" lon="-0.211497">
        <ele>187.0</ele>
        <time>2021-07-23T09:54:24.176Z</time>
      </trkpt>
      <trkpt lat="40.004113" lon="-0.211927">
        <ele>186.9</ele>
        <time>2021-07-23T09:54:33.416Z</time>
      </trkpt>
      <trkpt lat="40.003749" lon="-0.212761">
        <ele>184.9</ele>
        <time>2021-07-23T09:54:53.112Z</time>
      </trkpt>
      <trkpt lat="40.003607" lon="-0.212969">
        <ele>184.3</ele>
        <time>2021-07-23T09:54:58.639Z</time>
      </trkpt>
      <trkpt lat="40.003439" lon="-0.213075">
        <ele>183.7</ele>
        <time>2021-07-23T09:55:03.442Z</time>
      </trkpt>
      <trkpt lat="40.002679" lon="-0.213370">
        <ele>181.2</ele>
        <time>2021-07-23T09:55:23.508Z</time>
      </trkpt>
      <trkpt lat="40.002216" lon="-0.213835">
        <ele>178.9</ele>
        <time>2021-07-23T09:55:38.089Z</time>
      </trkpt>
      <trkpt lat="40.002003" lon="-0.213977">
        <ele>177.9</ele>
        <time>2021-07-23T09:55:43.925Z</time>
      </trkpt>
      <trkpt lat="40.001517" lon="-0.214592">
        <ele>175.1</ele>
        <time>2021-07-23T09:56:00.648Z</time>
      </trkpt>
      <trkpt lat="40.001314" lon="-0.214779">
        <ele>174.1</ele>
        <time>2021-07-23T09:56:07.011Z</time>
      </trkpt>
      <trkpt lat="40.001241" lon="-0.214775">
        <ele>173.9</ele>
        <time>2021-07-23T09:56:08.715Z</time>
      </trkpt>
      <trkpt lat="40.000822" lon="-0.215486">
        <ele>171.8</ele>
        <time>2021-07-23T09:56:18.987Z</time>
      </trkpt>
      <trkpt lat="40.000669" lon="-0.215567">
        <ele>171.3</ele>
        <time>2021-07-23T09:56:21.457Z</time>
      </trkpt>
      <trkpt lat="40.001027" lon="-0.216092">
        <ele>169.6</ele>
        <time>2021-07-23T09:56:29.809Z</time>
      </trkpt>
      <trkpt lat="40.001035" lon="-0.216104">
        <ele>169.5</ele>
        <time>2021-07-23T09:56:29.972Z</time>
      </trkpt>
      <trkpt lat="40.001238" lon="-0.216398">
        <ele>168.6</ele>
        <time>2021-07-23T09:56:34.890Z</time>
      </trkpt>
      <trkpt lat="40.001763" lon="-0.217063">
        <ele>167.5</ele>
        <time>2021-07-23T09:56:47.764Z</time>
      </trkpt>
      <trkpt lat="40.001780" lon="-0.217135">
        <ele>167.5</ele>
        <time>2021-07-23T09:56:48.785Z</time>
      </trkpt>
      <trkpt lat="40.001763" lon="-0.217063">
        <ele>167.4</ele>
        <time>2021-07-23T09:56:49.729Z</time>
      </trkpt>
      <trkpt lat="40.001238" lon="-0.216398">
        <ele>166.3</ele>
        <time>2021-07-23T09:57:02.492Z</time>
      </trkpt>
      <trkpt lat="40.001035" lon="-0.216104">
        <ele>165.9</ele>
        <time>2021-07-23T09:57:08.033Z</time>
      </trkpt>
      <trkpt lat="40.001086" lon="-0.216036">
        <ele>165.8</ele>
        <time>2021-07-23T09:57:09.935Z</time>
      </trkpt>
      <trkpt lat="40.001138" lon="-0.216036">
        <ele>165.7</ele>
        <time>2021-07-23T09:57:11.492Z</time>
      </trkpt>
      <trkpt lat="40.001449" lon="-0.216503">
        <ele>165.1</ele>
        <time>2021-07-23T09:57:25.108Z</time>
      </trkpt>
      <trkpt lat="40.002275" lon="-0.217326">
        <ele>163.6</ele>
        <time>2021-07-23T09:57:53.728Z</time>
      </trkpt>
      <trkpt lat="40.002485" lon="-0.218203">
        <ele>164.7</ele>
        <time>2021-07-23T09:58:15.456Z</time>
      </trkpt>
      <trkpt lat="40.002887" lon="-0.218440">
        <ele>165.6</ele>
        <time>2021-07-23T09:58:32.605Z</time>
      </trkpt>
      <trkpt lat="40.002921" lon="-0.218514">
        <ele>165.7</ele>
        <time>2021-07-23T09:58:35.397Z</time>
      </trkpt>
      <trkpt lat="40.002903" lon="-0.218554">
        <ele>165.8</ele>
        <time>2021-07-23T09:58:36.597Z</time>
      </trkpt>
      <trkpt lat="40.002835" lon="-0.218709">
        <ele>166.1</ele>
        <time>2021-07-23T09:58:43.842Z</time>
      </trkpt>
      <trkpt lat="40.002660" lon="-0.218988">
        <ele>166.7</ele>
        <time>2021-07-23T09:58:57.557Z</time>
      </trkpt>
      <trkpt lat="40.002596" lon="-0.219180">
        <ele>167.0</ele>
        <time>2021-07-23T09:59:06.767Z</time>
      </trkpt>
      <trkpt lat="40.003338" lon="-0.219342">
        <ele>172.5</ele>
        <time>2021-07-23T09:59:55.779Z</time>
      </trkpt>
      <trkpt lat="40.003602" lon="-0.219676">
        <ele>175.5</ele>
        <time>2021-07-23T10:00:23.833Z</time>
      </trkpt>
      <trkpt lat="40.003857" lon="-0.219839">
        <ele>177.7</ele>
        <time>2021-07-23T10:00:46.054Z</time>
      </trkpt>
      <trkpt lat="40.005243" lon="-0.219959">
        <ele>189.6</ele>
        <time>2021-07-23T10:02:36.425Z</time>
      </trkpt>
      <trkpt lat="40.005535" lon="-0.220059">
        <ele>192.2</ele>
        <time>2021-07-23T10:02:59.383Z</time>
      </trkpt>
      <trkpt lat="40.005982" lon="-0.220012">
        <ele>196.2</ele>
        <time>2021-07-23T10:03:32.236Z</time>
      </trkpt>
      <trkpt lat="40.006318" lon="-0.220145">
        <ele>198.9</ele>
        <time>2021-07-23T10:03:56.532Z</time>
      </trkpt>
      <trkpt lat="40.007023" lon="-0.220243">
        <ele>203.9</ele>
        <time>2021-07-23T10:04:41.960Z</time>
      </trkpt>
      <trkpt lat="40.007601" lon="-0.220165">
        <ele>208.1</ele>
        <time>2021-07-23T10:05:23.647Z</time>
      </trkpt>
      <trkpt lat="40.008254" lon="-0.220344">
        <ele>212.5</ele>
        <time>2021-07-23T10:06:05.105Z</time>
      </trkpt>
      <trkpt lat="40.008408" lon="-0.220307">
        <ele>213.5</ele>
        <time>2021-07-23T10:06:16.841Z</time>
      </trkpt>
      <trkpt lat="40.008564" lon="-0.220409">
        <ele>202.4</ele>
        <time>2021-07-23T10:06:28.329Z</time>
      </trkpt>
      <trkpt lat="40.008602" lon="-0.220537">
        <ele>200.6</ele>
        <time>2021-07-23T10:06:34.428Z</time>
      </trkpt>
      <trkpt lat="40.008894" lon="-0.220563">
        <ele>194.9</ele>
        <time>2021-07-23T10:06:51.426Z</time>
      </trkpt>
      <trkpt lat="40.008995" lon="-0.220826">
        <ele>188.9</ele>
        <time>2021-07-23T10:07:04.686Z</time>
      </trkpt>
      <trkpt lat="40.009247" lon="-0.221089">
        <ele>180.2</ele>
        <time>2021-07-23T10:07:23.657Z</time>
      </trkpt>
      <trkpt lat="40.009398" lon="-0.220655">
        <ele>185.0</ele>
        <time>2021-07-23T10:07:44.693Z</time>
      </trkpt>
      <trkpt lat="40.010234" lon="-0.219905">
        <ele>188.0</ele>
        <time>2021-07-23T10:08:42.737Z</time>
      </trkpt>
      <trkpt lat="40.010818" lon="-0.219945">
        <ele>175.8</ele>
        <time>2021-07-23T10:09:16.790Z</time>
      </trkpt>
      <trkpt lat="40.011422" lon="-0.219301">
        <ele>172.2</ele>
        <time>2021-07-23T10:10:01.461Z</time>
      </trkpt>
      <trkpt lat="40.011432" lon="-0.218012">
        <ele>181.4</ele>
        <time>2021-07-23T10:10:58.130Z</time>
      </trkpt>
      <trkpt lat="40.011996" lon="-0.217054">
        <ele>182.3</ele>
        <time>2021-07-23T10:11:51.097Z</time>
      </trkpt>
      <trkpt lat="40.012699" lon="-0.216345">
        <ele>182.5</ele>
        <time>2021-07-23T10:12:41.941Z</time>
      </trkpt>
      <trkpt lat="40.012888" lon="-0.215263">
        <ele>188.9</ele>
        <time>2021-07-23T10:13:30.666Z</time>
      </trkpt>
      <trkpt lat="40.013345" lon="-0.214584">
        <ele>190.1</ele>
        <time>2021-07-23T10:14:10.328Z</time>
      </trkpt>
      <trkpt lat="40.013925" lon="-0.214110">
        <ele>194.3</ele>
        <time>2021-07-23T10:14:52.905Z</time>
      </trkpt>
      <trkpt lat="40.014418" lon="-0.214529">
        <ele>202.1</ele>
        <time>2021-07-23T10:15:29.748Z</time>
      </trkpt>
      <trkpt lat="40.014545" lon="-0.214521">
        <ele>201.6</ele>
        <time>2021-07-23T10:15:32.932Z</time>
      </trkpt>
      <trkpt lat="40.014865" lon="-0.214145">
        <ele>200.0</ele>
        <time>2021-07-23T10:15:43.543Z</time>
      </trkpt>
      <trkpt lat="40.015035" lon="-0.214124">
        <ele>199.3</ele>
        <time>2021-07-23T10:15:48.222Z</time>
      </trkpt>
      <trkpt lat="40.015220" lon="-0.213933">
        <ele>198.4</ele>
        <time>2021-07-23T10:15:55.359Z</time>
      </trkpt>
      <trkpt lat="40.015300" lon="-0.214082">
        <ele>198.3</ele>
        <time>2021-07-23T10:15:59.661Z</time>
      </trkpt>
      <trkpt lat="40.015395" lon="-0.214055">
        <ele>198.7</ele>
        <time>2021-07-23T10:16:02.883Z</time>
      </trkpt>
      <trkpt lat="40.015427" lon="-0.213945">
        <ele>199.0</ele>
        <time>2021-07-23T10:16:05.908Z</time>
      </trkpt>
      <trkpt lat="40.015323" lon="-0.213466">
        <ele>200.3</ele>
        <time>2021-07-23T10:16:19.879Z</time>
      </trkpt>
      <trkpt lat="40.015337" lon="-0.213248">
        <ele>200.9</ele>
        <time>2021-07-23T10:16:27.994Z</time>
      </trkpt>
      <trkpt lat="40.015369" lon="-0.213088">
        <ele>201.3</ele>
        <time>2021-07-23T10:16:34.459Z</time>
      </trkpt>
      <trkpt lat="40.015485" lon="-0.212943">
        <ele>201.8</ele>
        <time>2021-07-23T10:16:42.811Z</time>
      </trkpt>
      <trkpt lat="40.015560" lon="-0.212902">
        <ele>202.1</ele>
        <time>2021-07-23T10:16:47.790Z</time>
      </trkpt>
      <trkpt lat="40.015628" lon="-0.213181">
        <ele>202.9</ele>
        <time>2021-07-23T10:17:01.177Z</time>
      </trkpt>
      <trkpt lat="40.015678" lon="-0.213416">
        <ele>203.5</ele>
        <time>2021-07-23T10:17:12.928Z</time>
      </trkpt>
      <trkpt lat="40.015659" lon="-0.213628">
        <ele>204.1</ele>
        <time>2021-07-23T10:17:23.117Z</time>
      </trkpt>
      <trkpt lat="40.015720" lon="-0.213796">
        <ele>204.9</ele>
        <time>2021-07-23T10:17:32.374Z</time>
      </trkpt>
      <trkpt lat="40.015921" lon="-0.213842">
        <ele>206.4</ele>
        <time>2021-07-23T10:17:46.230Z</time>
      </trkpt>
      <trkpt lat="40.016148" lon="-0.213771">
        <ele>208.1</ele>
        <time>2021-07-23T10:18:03.165Z</time>
      </trkpt>
      <trkpt lat="40.016225" lon="-0.213709">
        <ele>208.7</ele>
        <time>2021-07-23T10:18:09.642Z</time>
      </trkpt>
      <trkpt lat="40.016571" lon="-0.213431">
        <ele>211.6</ele>
        <time>2021-07-23T10:18:39.750Z</time>
      </trkpt>
      <trkpt lat="40.017048" lon="-0.213108">
        <ele>215.5</ele>
        <time>2021-07-23T10:19:16.299Z</time>
      </trkpt>
      <trkpt lat="40.017449" lon="-0.212820">
        <ele>218.1</ele>
        <time>2021-07-23T10:19:46.918Z</time>
      </trkpt>
      <trkpt lat="40.017795" lon="-0.212617">
        <ele>219.6</ele>
        <time>2021-07-23T10:20:08.985Z</time>
      </trkpt>
      <trkpt lat="40.020198" lon="-0.210810">
        <ele>227.7</ele>
        <time>2021-07-23T10:22:12.512Z</time>
      </trkpt>
      <trkpt lat="40.020455" lon="-0.210669">
        <ele>228.3</ele>
        <time>2021-07-23T10:22:22.631Z</time>
      </trkpt>
      <trkpt lat="40.020495" lon="-0.210663">
        <ele>228.3</ele>
        <time>2021-07-23T10:22:24.417Z</time>
      </trkpt>
      <trkpt lat="40.020551" lon="-0.210678">
        <ele>228.4</ele>
        <time>2021-07-23T10:22:26.617Z</time>
      </trkpt>
      <trkpt lat="40.020600" lon="-0.210638">
        <ele>228.5</ele>
        <time>2021-07-23T10:22:28.653Z</time>
      </trkpt>
      <trkpt lat="40.020671" lon="-0.210860">
        <ele>228.7</ele>
        <time>2021-07-23T10:22:35.095Z</time>
      </trkpt>
      <trkpt lat="40.020916" lon="-0.211324">
        <ele>229.2</ele>
        <time>2021-07-23T10:22:50.626Z</time>
      </trkpt>
      <trkpt lat="40.021103" lon="-0.211627">
        <ele>229.5</ele>
        <time>2021-07-23T10:23:00.841Z</time>
      </trkpt>
      <trkpt lat="40.021310" lon="-0.211833">
        <ele>229.8</ele>
        <time>2021-07-23T10:23:10.284Z</time>
      </trkpt>
      <trkpt lat="40.021494" lon="-0.211829">
        <ele>230.0</ele>
        <time>2021-07-23T10:23:17.621Z</time>
      </trkpt>
      <trkpt lat="40.021755" lon="-0.212323">
        <ele>230.7</ele>
        <time>2021-07-23T10:23:29.559Z</time>
      </trkpt>
      <trkpt lat="40.021812" lon="-0.212525">
        <ele>231.0</ele>
        <time>2021-07-23T10:23:34.701Z</time>
      </trkpt>
      <trkpt lat="40.021821" lon="-0.212765">
        <ele>231.4</ele>
        <time>2021-07-23T10:23:39.424Z</time>
      </trkpt>
      <trkpt lat="40.021896" lon="-0.212806">
        <ele>231.6</ele>
        <time>2021-07-23T10:23:41.609Z</time>
      </trkpt>
      <trkpt lat="40.022020" lon="-0.212970">
        <ele>231.9</ele>
        <time>2021-07-23T10:23:47.779Z</time>
      </trkpt>
      <trkpt lat="40.022128" lon="-0.213179">
        <ele>232.3</ele>
        <time>2021-07-23T10:23:52.792Z</time>
      </trkpt>
      <trkpt lat="40.022131" lon="-0.213188">
        <ele>232.3</ele>
        <time>2021-07-23T10:23:53.251Z</time>
      </trkpt>
      <trkpt lat="40.022162" lon="-0.213291">
        <ele>232.5</ele>
        <time>2021-07-23T10:23:56.518Z</time>
      </trkpt>
      <trkpt lat="40.022314" lon="-0.213627">
        <ele>233.0</ele>
        <time>2021-07-23T10:24:05.344Z</time>
      </trkpt>
      <trkpt lat="40.022328" lon="-0.213690">
        <ele>233.1</ele>
        <time>2021-07-23T10:24:07.541Z</time>
      </trkpt>
      <trkpt lat="40.022331" lon="-0.213785">
        <ele>233.3</ele>
        <time>2021-07-23T10:24:10.114Z</time>
      </trkpt>
      <trkpt lat="40.022392" lon="-0.214016">
        <ele>233.6</ele>
        <time>2021-07-23T10:24:15.202Z</time>
      </trkpt>
      <trkpt lat="40.022332" lon="-0.214492">
        <ele>234.1</ele>
        <time>2021-07-23T10:24:27.226Z</time>
      </trkpt>
      <trkpt lat="40.022482" lon="-0.215670">
        <ele>235.2</ele>
        <time>2021-07-23T10:24:54.907Z</time>
      </trkpt>
      <trkpt lat="40.022286" lon="-0.216712">
        <ele>235.5</ele>
        <time>2021-07-23T10:25:10.942Z</time>
      </trkpt>
      <trkpt lat="40.022301" lon="-0.217882">
        <ele>233.8</ele>
        <time>2021-07-23T10:25:25.775Z</time>
      </trkpt>
      <trkpt lat="40.022563" lon="-0.219283">
        <ele>232.2</ele>
        <time>2021-07-23T10:25:43.300Z</time>
      </trkpt>
      <trkpt lat="40.022826" lon="-0.219605">
        <ele>231.8</ele>
        <time>2021-07-23T10:25:49.327Z</time>
      </trkpt>
      <trkpt lat="40.022904" lon="-0.219735">
        <ele>231.7</ele>
        <time>2021-07-23T10:25:52.956Z</time>
      </trkpt>
      <trkpt lat="40.023159" lon="-0.220398">
        <ele>231.1</ele>
        <time>2021-07-23T10:26:09.691Z</time>
      </trkpt>
      <trkpt lat="40.023676" lon="-0.222370">
        <ele>232.7</ele>
        <time>2021-07-23T10:27:10.524Z</time>
      </trkpt>
      <trkpt lat="40.023991" lon="-0.222843">
        <ele>233.5</ele>
        <time>2021-07-23T10:27:31.703Z</time>
      </trkpt>
      <trkpt lat="40.024627" lon="-0.223422">
        <ele>235.6</ele>
        <time>2021-07-23T10:28:06.816Z</time>
      </trkpt>
      <trkpt lat="40.024946" lon="-0.223847">
        <ele>236.8</ele>
        <time>2021-07-23T10:28:27.914Z</time>
      </trkpt>
      <trkpt lat="40.025699" lon="-0.223463">
        <ele>239.1</ele>
        <time>2021-07-23T10:29:05.491Z</time>
      </trkpt>
      <trkpt lat="40.027498" lon="-0.222579">
        <ele>244.1</ele>
        <time>2021-07-23T10:30:33.550Z</time>
      </trkpt>
      <trkpt lat="40.028528" lon="-0.222342">
        <ele>246.0</ele>
        <time>2021-07-23T10:31:16.711Z</time>
      </trkpt>
      <trkpt lat="40.028821" lon="-0.222171">
        <ele>246.6</ele>
        <time>2021-07-23T10:31:28.730Z</time>
      </trkpt>
      <trkpt lat="40.029100" lon="-0.222100">
        <ele>246.8</ele>
        <time>2021-07-23T10:31:38.866Z</time>
      </trkpt>
      <trkpt lat="40.029719" lon="-0.221683">
        <ele>246.7</ele>
        <time>2021-07-23T10:32:01.821Z</time>
      </trkpt>
      <trkpt lat="40.030173" lon="-0.221537">
        <ele>246.7</ele>
        <time>2021-07-23T10:32:16.190Z</time>
      </trkpt>
      <trkpt lat="40.030681" lon="-0.221136">
        <ele>246.5</ele>
        <time>2021-07-23T10:32:33.661Z</time>
      </trkpt>
      <trkpt lat="40.031424" lon="-0.220709">
        <ele>245.4</ele>
        <time>2021-07-23T10:32:56.946Z</time>
      </trkpt>
      <trkpt lat="40.031675" lon="-0.220693">
        <ele>245.1</ele>
        <time>2021-07-23T10:33:04.128Z</time>
      </trkpt>
      <trkpt lat="40.031780" lon="-0.220658">
        <ele>245.0</ele>
        <time>2021-07-23T10:33:07.184Z</time>
      </trkpt>
      <trkpt lat="40.032198" lon="-0.220519">
        <ele>244.4</ele>
        <time>2021-07-23T10:33:19.420Z</time>
      </trkpt>
      <trkpt lat="40.032859" lon="-0.220000">
        <ele>243.2</ele>
        <time>2021-07-23T10:33:40.980Z</time>
      </trkpt>
      <trkpt lat="40.032976" lon="-0.219693">
        <ele>242.8</ele>
        <time>2021-07-23T10:33:48.255Z</time>
      </trkpt>
      <trkpt lat="40.033393" lon="-0.219241">
        <ele>241.9</ele>
        <time>2021-07-23T10:34:03.335Z</time>
      </trkpt>
      <trkpt lat="40.033555" lon="-0.218471">
        <ele>241.2</ele>
        <time>2021-07-23T10:34:20.805Z</time>
      </trkpt>
      <trkpt lat="40.033645" lon="-0.218278">
        <ele>241.1</ele>
        <time>2021-07-23T10:34:25.969Z</time>
      </trkpt>
      <trkpt lat="40.033914" lon="-0.218117">
        <ele>241.0</ele>
        <time>2021-07-23T10:34:34.768Z</time>
      </trkpt>
      <trkpt lat="40.034044" lon="-0.217973">
        <ele>240.9</ele>
        <time>2021-07-23T10:34:39.971Z</time>
      </trkpt>
      <trkpt lat="40.034070" lon="-0.217937">
        <ele>240.8</ele>
        <time>2021-07-23T10:34:41.019Z</time>
      </trkpt>
      <trkpt lat="40.034297" lon="-0.217752">
        <ele>240.7</ele>
        <time>2021-07-23T10:34:49.401Z</time>
      </trkpt>
      <trkpt lat="40.034644" lon="-0.217456">
        <ele>240.4</ele>
        <time>2021-07-23T10:35:02.385Z</time>
      </trkpt>
      <trkpt lat="40.034998" lon="-0.216941">
        <ele>240.1</ele>
        <time>2021-07-23T10:35:19.348Z</time>
      </trkpt>
      <trkpt lat="40.035266" lon="-0.216748">
        <ele>240.0</ele>
        <time>2021-07-23T10:35:29.389Z</time>
      </trkpt>
      <trkpt lat="40.035634" lon="-0.216277">
        <ele>239.7</ele>
        <time>2021-07-23T10:35:46.147Z</time>
      </trkpt>
      <trkpt lat="40.035877" lon="-0.216069">
        <ele>239.5</ele>
        <time>2021-07-23T10:35:54.751Z</time>
      </trkpt>
      <trkpt lat="40.036528" lon="-0.215823">
        <ele>238.1</ele>
        <time>2021-07-23T10:36:13.074Z</time>
      </trkpt>
      <trkpt lat="40.036907" lon="-0.215776">
        <ele>236.8</ele>
        <time>2021-07-23T10:36:23.003Z</time>
      </trkpt>
      <trkpt lat="40.037209" lon="-0.215443">
        <ele>235.6</ele>
        <time>2021-07-23T10:36:33.091Z</time>
      </trkpt>
      <trkpt lat="40.037430" lon="-0.215695">
        <ele>234.6</ele>
        <time>2021-07-23T10:36:37.432Z</time>
      </trkpt>
      <trkpt lat="40.037595" lon="-0.215828">
        <ele>234.0</ele>
        <time>2021-07-23T10:36:40.276Z</time>
      </trkpt>
      <trkpt lat="40.037817" lon="-0.216445">
        <ele>232.0</ele>
        <time>2021-07-23T10:36:47.842Z</time>
      </trkpt>
      <trkpt lat="40.038215" lon="-0.217015">
        <ele>229.5</ele>
        <time>2021-07-23T10:36:56.342Z</time>
      </trkpt>
      <trkpt lat="40.038561" lon="-0.217649">
        <ele>227.1</ele>
        <time>2021-07-23T10:37:05.192Z</time>
      </trkpt>
      <trkpt lat="40.038973" lon="-0.218709">
        <ele>224.1</ele>
        <time>2021-07-23T10:37:18.926Z</time>
      </trkpt>
      <trkpt lat="40.039450" lon="-0.219414">
        <ele>221.9</ele>
        <time>2021-07-23T10:37:29.886Z</time>
      </trkpt>
      <trkpt lat="40.040192" lon="-0.219967">
        <ele>220.8</ele>
        <time>2021-07-23T10:37:44.194Z</time>
      </trkpt>
      <trkpt lat="40.040336" lon="-0.220089">
        <ele>220.8</ele>
        <time>2021-07-23T10:37:47.147Z</time>
      </trkpt>
      <trkpt lat="40.040623" lon="-0.220495">
        <ele>220.9</ele>
        <time>2021-07-23T10:37:55.665Z</time>
      </trkpt>
      <trkpt lat="40.041039" lon="-0.220997">
        <ele>220.9</ele>
        <time>2021-07-23T10:38:10.326Z</time>
      </trkpt>
      <trkpt lat="40.041625" lon="-0.221844">
        <ele>223.6</ele>
        <time>2021-07-23T10:38:40.756Z</time>
      </trkpt>
      <trkpt lat="40.041882" lon="-0.222072">
        <ele>224.8</ele>
        <time>2021-07-23T10:38:53.472Z</time>
      </trkpt>
      <trkpt lat="40.043050" lon="-0.223447">
        <ele>231.8</ele>
        <time>2021-07-23T10:40:03.056Z</time>
      </trkpt>
      <trkpt lat="40.043579" lon="-0.223954">
        <ele>235.2</ele>
        <time>2021-07-23T10:40:33.724Z</time>
      </trkpt>
      <trkpt lat="40.043816" lon="-0.224299">
        <ele>237.0</ele>
        <time>2021-07-23T10:40:50.720Z</time>
      </trkpt>
      <trkpt lat="40.043990" lon="-0.224431">
        <ele>238.2</ele>
        <time>2021-07-23T10:41:00.516Z</time>
      </trkpt>
      <trkpt lat="40.044503" lon="-0.224553">
        <ele>241.2</ele>
        <time>2021-07-23T10:41:25.954Z</time>
      </trkpt>
      <trkpt lat="40.044821" lon="-0.224816">
        <ele>243.3</ele>
        <time>2021-07-23T10:41:44.490Z</time>
      </trkpt>
      <trkpt lat="40.045489" lon="-0.225111">
        <ele>247.3</ele>
        <time>2021-07-23T10:42:19.180Z</time>
      </trkpt>
      <trkpt lat="40.046010" lon="-0.225461">
        <ele>250.3</ele>
        <time>2021-07-23T10:42:47.423Z</time>
      </trkpt>
      <trkpt lat="40.046437" lon="-0.225917">
        <ele>253.0</ele>
        <time>2021-07-23T10:43:12.710Z</time>
      </trkpt>
      <trkpt lat="40.046658" lon="-0.225943">
        <ele>254.1</ele>
        <time>2021-07-23T10:43:22.318Z</time>
      </trkpt>
      <trkpt lat="40.047470" lon="-0.225851">
        <ele>257.4</ele>
        <time>2021-07-23T10:43:56.408Z</time>
      </trkpt>
      <trkpt lat="40.048252" lon="-0.226360">
        <ele>260.1</ele>
        <time>2021-07-23T10:44:27.793Z</time>
      </trkpt>
      <trkpt lat="40.048510" lon="-0.226539">
        <ele>261.0</ele>
        <time>2021-07-23T10:44:37.268Z</time>
      </trkpt>
      <trkpt lat="40.048440" lon="-0.227229">
        <ele>262.1</ele>
        <time>2021-07-23T10:44:58.882Z</time>
      </trkpt>
      <trkpt lat="40.048212" lon="-0.227768">
        <ele>262.7</ele>
        <time>2021-07-23T10:45:17.138Z</time>
      </trkpt>
      <trkpt lat="40.048223" lon="-0.227948">
        <ele>262.8</ele>
        <time>2021-07-23T10:45:22.196Z</time>
      </trkpt>
      <trkpt lat="40.048309" lon="-0.229502">
        <ele>264.0</ele>
        <time>2021-07-23T10:46:04.512Z</time>
      </trkpt>
      <trkpt lat="40.048482" lon="-0.229762">
        <ele>264.1</ele>
        <time>2021-07-23T10:46:13.754Z</time>
      </trkpt>
      <trkpt lat="40.048896" lon="-0.230050">
        <ele>264.4</ele>
        <time>2021-07-23T10:46:30.601Z</time>
      </trkpt>
      <trkpt lat="40.049020" lon="-0.230194">
        <ele>264.5</ele>
        <time>2021-07-23T10:46:36.490Z</time>
      </trkpt>
      <trkpt lat="40.049013" lon="-0.230652">
        <ele>264.7</ele>
        <time>2021-07-23T10:46:48.563Z</time>
      </trkpt>
      <trkpt lat="40.049290" lon="-0.231451">
        <ele>264.1</ele>
        <time>2021-07-23T10:47:09.869Z</time>
      </trkpt>
      <trkpt lat="40.049414" lon="-0.231631">
        <ele>263.8</ele>
        <time>2021-07-23T10:47:15.498Z</time>
      </trkpt>
      <trkpt lat="40.049386" lon="-0.231766">
        <ele>263.7</ele>
        <time>2021-07-23T10:47:18.631Z</time>
      </trkpt>
      <trkpt lat="40.049200" lon="-0.231981">
        <ele>263.3</ele>
        <time>2021-07-23T10:47:25.745Z</time>
      </trkpt>
      <trkpt lat="40.048689" lon="-0.233311">
        <ele>260.8</ele>
        <time>2021-07-23T10:47:55.713Z</time>
      </trkpt>
      <trkpt lat="40.048503" lon="-0.233598">
        <ele>259.8</ele>
        <time>2021-07-23T10:48:02.871Z</time>
      </trkpt>
      <trkpt lat="40.048081" lon="-0.233913">
        <ele>258.0</ele>
        <time>2021-07-23T10:48:14.852Z</time>
      </trkpt>
      <trkpt lat="40.047708" lon="-0.234398">
        <ele>256.1</ele>
        <time>2021-07-23T10:48:28.013Z</time>
      </trkpt>
      <trkpt lat="40.047640" lon="-0.234568">
        <ele>255.5</ele>
        <time>2021-07-23T10:48:31.765Z</time>
      </trkpt>
      <trkpt lat="40.047445" lon="-0.234673">
        <ele>255.2</ele>
        <time>2021-07-23T10:48:37.151Z</time>
      </trkpt>
      <trkpt lat="40.047405" lon="-0.234694">
        <ele>255.2</ele>
        <time>2021-07-23T10:48:38.227Z</time>
      </trkpt>
      <trkpt lat="40.047047" lon="-0.234748">
        <ele>255.0</ele>
        <time>2021-07-23T10:48:47.777Z</time>
      </trkpt>
      <trkpt lat="40.046921" lon="-0.234818">
        <ele>254.9</ele>
        <time>2021-07-23T10:48:51.619Z</time>
      </trkpt>
      <trkpt lat="40.046728" lon="-0.234811">
        <ele>254.8</ele>
        <time>2021-07-23T10:48:57.227Z</time>
      </trkpt>
      <trkpt lat="40.046452" lon="-0.235152">
        <ele>254.5</ele>
        <time>2021-07-23T10:49:09.604Z</time>
      </trkpt>
      <trkpt lat="40.046231" lon="-0.235188">
        <ele>254.4</ele>
        <time>2021-07-23T10:49:17.997Z</time>
      </trkpt>
      <trkpt lat="40.046072" lon="-0.235287">
        <ele>254.3</ele>
        <time>2021-07-23T10:49:24.960Z</time>
      </trkpt>
      <trkpt lat="40.045987" lon="-0.235272">
        <ele>254.2</ele>
        <time>2021-07-23T10:49:28.642Z</time>
      </trkpt>
      <trkpt lat="40.045879" lon="-0.235412">
        <ele>254.5</ele>
        <time>2021-07-23T10:49:34.911Z</time>
      </trkpt>
      <trkpt lat="40.045577" lon="-0.235571">
        <ele>255.4</ele>
        <time>2021-07-23T10:49:49.532Z</time>
      </trkpt>
      <trkpt lat="40.045308" lon="-0.235561">
        <ele>256.2</ele>
        <time>2021-07-23T10:50:02.306Z</time>
      </trkpt>
      <trkpt lat="40.045467" lon="-0.235862">
        <ele>257.0</ele>
        <time>2021-07-23T10:50:15.659Z</time>
      </trkpt>
      <trkpt lat="40.045909" lon="-0.236711">
        <ele>259.3</ele>
        <time>2021-07-23T10:50:53.972Z</time>
      </trkpt>
      <trkpt lat="40.045980" lon="-0.236977">
        <ele>260.0</ele>
        <time>2021-07-23T10:51:04.538Z</time>
      </trkpt>
      <trkpt lat="40.045618" lon="-0.237562">
        <ele>261.6</ele>
        <time>2021-07-23T10:51:31.432Z</time>
      </trkpt>
      <trkpt lat="40.045495" lon="-0.238073">
        <ele>262.8</ele>
        <time>2021-07-23T10:51:49.806Z</time>
      </trkpt>
      <trkpt lat="40.045318" lon="-0.238267">
        <ele>263.5</ele>
        <time>2021-07-23T10:52:00.180Z</time>
      </trkpt>
      <trkpt lat="40.045303" lon="-0.238677">
        <ele>264.4</ele>
        <time>2021-07-23T10:52:14.402Z</time>
      </trkpt>
      <trkpt lat="40.045230" lon="-0.238728">
        <ele>264.6</ele>
        <time>2021-07-23T10:52:18.118Z</time>
      </trkpt>
      <trkpt lat="40.044717" lon="-0.238777">
        <ele>266.0</ele>
        <time>2021-07-23T10:52:41.757Z</time>
      </trkpt>
      <trkpt lat="40.044610" lon="-0.238842">
        <ele>266.4</ele>
        <time>2021-07-23T10:52:47.258Z</time>
      </trkpt>
      <trkpt lat="40.044698" lon="-0.239522">
        <ele>267.8</ele>
        <time>2021-07-23T10:53:11.977Z</time>
      </trkpt>
      <trkpt lat="40.044805" lon="-0.239952">
        <ele>268.8</ele>
        <time>2021-07-23T10:53:28.145Z</time>
      </trkpt>
      <trkpt lat="40.044772" lon="-0.240152">
        <ele>269.2</ele>
        <time>2021-07-23T10:53:35.421Z</time>
      </trkpt>
      <trkpt lat="40.044520" lon="-0.240563">
        <ele>269.8</ele>
        <time>2021-07-23T10:53:53.123Z</time>
      </trkpt>
      <trkpt lat="40.043922" lon="-0.240953">
        <ele>270.2</ele>
        <time>2021-07-23T10:54:19.554Z</time>
      </trkpt>
      <trkpt lat="40.043725" lon="-0.241393">
        <ele>270.5</ele>
        <time>2021-07-23T10:54:33.212Z</time>
      </trkpt>
      <trkpt lat="40.043403" lon="-0.241648">
        <ele>270.7</ele>
        <time>2021-07-23T10:54:44.407Z</time>
      </trkpt>
      <trkpt lat="40.043298" lon="-0.242018">
        <ele>270.1</ele>
        <time>2021-07-23T10:54:52.804Z</time>
      </trkpt>
      <trkpt lat="40.043198" lon="-0.243017">
        <ele>267.4</ele>
        <time>2021-07-23T10:55:12.661Z</time>
      </trkpt>
      <trkpt lat="40.043102" lon="-0.243150">
        <ele>266.9</ele>
        <time>2021-07-23T10:55:16.173Z</time>
      </trkpt>
      <trkpt lat="40.042856" lon="-0.243122">
        <ele>266.1</ele>
        <time>2021-07-23T10:55:22.200Z</time>
      </trkpt>
      <trkpt lat="40.041953" lon="-0.243020">
        <ele>262.6</ele>
        <time>2021-07-23T10:55:44.181Z</time>
      </trkpt>
      <trkpt lat="40.041858" lon="-0.242888">
        <ele>262.0</ele>
        <time>2021-07-23T10:55:47.536Z</time>
      </trkpt>
      <trkpt lat="40.041877" lon="-0.242375">
        <ele>260.4</ele>
        <time>2021-07-23T10:55:57.085Z</time>
      </trkpt>
      <trkpt lat="40.041338" lon="-0.242133">
        <ele>258.0</ele>
        <time>2021-07-23T10:56:11.364Z</time>
      </trkpt>
      <trkpt lat="40.040927" lon="-0.242222">
        <ele>256.6</ele>
        <time>2021-07-23T10:56:22.211Z</time>
      </trkpt>
      <trkpt lat="40.040592" lon="-0.242152">
        <ele>255.8</ele>
        <time>2021-07-23T10:56:31.276Z</time>
      </trkpt>
      <trkpt lat="40.040395" lon="-0.242278">
        <ele>255.2</ele>
        <time>2021-07-23T10:56:37.178Z</time>
      </trkpt>
      <trkpt lat="40.040128" lon="-0.242305">
        <ele>254.6</ele>
        <time>2021-07-23T10:56:44.415Z</time>
      </trkpt>
      <trkpt lat="40.039517" lon="-0.242940">
        <ele>252.6</ele>
        <time>2021-07-23T10:57:05.664Z</time>
      </trkpt>
      <trkpt lat="40.039380" lon="-0.242982">
        <ele>252.1</ele>
        <time>2021-07-23T10:57:09.474Z</time>
      </trkpt>
      <trkpt lat="40.038965" lon="-0.242915">
        <ele>250.6</ele>
        <time>2021-07-23T10:57:20.536Z</time>
      </trkpt>
      <trkpt lat="40.038320" lon="-0.242327">
        <ele>247.8</ele>
        <time>2021-07-23T10:57:40.507Z</time>
      </trkpt>
      <trkpt lat="40.038100" lon="-0.242262">
        <ele>247.0</ele>
        <time>2021-07-23T10:57:46.066Z</time>
      </trkpt>
      <trkpt lat="40.037803" lon="-0.242405">
        <ele>245.7</ele>
        <time>2021-07-23T10:57:53.743Z</time>
      </trkpt>
      <trkpt lat="40.037185" lon="-0.243055">
        <ele>241.4</ele>
        <time>2021-07-23T10:58:12.524Z</time>
      </trkpt>
      <trkpt lat="40.036825" lon="-0.243928">
        <ele>237.3</ele>
        <time>2021-07-23T10:58:30.293Z</time>
      </trkpt>
      <trkpt lat="40.036623" lon="-0.244183">
        <ele>236.0</ele>
        <time>2021-07-23T10:58:36.950Z</time>
      </trkpt>
      <trkpt lat="40.036465" lon="-0.244260">
        <ele>235.3</ele>
        <time>2021-07-23T10:58:41.007Z</time>
      </trkpt>
      <trkpt lat="40.036385" lon="-0.244213">
        <ele>235.0</ele>
        <time>2021-07-23T10:58:43.119Z</time>
      </trkpt>
      <trkpt lat="40.036347" lon="-0.244107">
        <ele>234.7</ele>
        <time>2021-07-23T10:58:45.304Z</time>
      </trkpt>
      <trkpt lat="40.036268" lon="-0.243455">
        <ele>232.8</ele>
        <time>2021-07-23T10:58:57.985Z</time>
      </trkpt>
      <trkpt lat="40.036067" lon="-0.243118">
        <ele>231.6</ele>
        <time>2021-07-23T10:59:06.441Z</time>
      </trkpt>
      <trkpt lat="40.035490" lon="-0.242933">
        <ele>229.6</ele>
        <time>2021-07-23T10:59:22.340Z</time>
      </trkpt>
      <trkpt lat="40.035273" lon="-0.242808">
        <ele>229.1</ele>
        <time>2021-07-23T10:59:28.998Z</time>
      </trkpt>
      <trkpt lat="40.035098" lon="-0.242573">
        <ele>228.6</ele>
        <time>2021-07-23T10:59:36.157Z</time>
      </trkpt>
      <trkpt lat="40.034978" lon="-0.242192">
        <ele>227.9</ele>
        <time>2021-07-23T10:59:45.272Z</time>
      </trkpt>
      <trkpt lat="40.034540" lon="-0.241862">
        <ele>226.9</ele>
        <time>2021-07-23T10:59:59.501Z</time>
      </trkpt>
      <trkpt lat="40.034450" lon="-0.241847">
        <ele>226.7</ele>
        <time>2021-07-23T11:00:01.849Z</time>
      </trkpt>
      <trkpt lat="40.033953" lon="-0.242108">
        <ele>224.8</ele>
        <time>2021-07-23T11:00:15.941Z</time>
      </trkpt>
      <trkpt lat="40.033939" lon="-0.242491">
        <ele>223.2</ele>
        <time>2021-07-23T11:00:23.214Z</time>
      </trkpt>
      <trkpt lat="40.033862" lon="-0.242835">
        <ele>221.7</ele>
        <time>2021-07-23T11:00:29.795Z</time>
      </trkpt>
      <trkpt lat="40.033922" lon="-0.243218">
        <ele>220.0</ele>
        <time>2021-07-23T11:00:36.903Z</time>
      </trkpt>
      <trkpt lat="40.033917" lon="-0.243259">
        <ele>219.9</ele>
        <time>2021-07-23T11:00:37.605Z</time>
      </trkpt>
      <trkpt lat="40.033887" lon="-0.243558">
        <ele>218.6</ele>
        <time>2021-07-23T11:00:42.998Z</time>
      </trkpt>
      <trkpt lat="40.033947" lon="-0.243959">
        <ele>216.9</ele>
        <time>2021-07-23T11:00:50.119Z</time>
      </trkpt>
      <trkpt lat="40.033911" lon="-0.244323">
        <ele>215.0</ele>
        <time>2021-07-23T11:00:56.396Z</time>
      </trkpt>
      <trkpt lat="40.033769" lon="-0.244815">
        <ele>212.0</ele>
        <time>2021-07-23T11:01:05.327Z</time>
      </trkpt>
      <trkpt lat="40.033670" lon="-0.244947">
        <ele>210.9</ele>
        <time>2021-07-23T11:01:08.477Z</time>
      </trkpt>
      <trkpt lat="40.033634" lon="-0.245345">
        <ele>208.6</ele>
        <time>2021-07-23T11:01:15.260Z</time>
      </trkpt>
      <trkpt lat="40.033530" lon="-0.245575">
        <ele>207.1</ele>
        <time>2021-07-23T11:01:19.815Z</time>
      </trkpt>
      <trkpt lat="40.033522" lon="-0.245750">
        <ele>206.1</ele>
        <time>2021-07-23T11:01:22.744Z</time>
      </trkpt>
      <trkpt lat="40.033554" lon="-0.245974">
        <ele>204.7</ele>
        <time>2021-07-23T11:01:26.753Z</time>
      </trkpt>
      <trkpt lat="40.033756" lon="-0.246523">
        <ele>202.4</ele>
        <time>2021-07-23T11:01:37.597Z</time>
      </trkpt>
      <trkpt lat="40.033895" lon="-0.246559">
        <ele>202.1</ele>
        <time>2021-07-23T11:01:40.935Z</time>
      </trkpt>
      <trkpt lat="40.034067" lon="-0.246456">
        <ele>201.7</ele>
        <time>2021-07-23T11:01:45.699Z</time>
      </trkpt>
      <trkpt lat="40.034194" lon="-0.246482">
        <ele>201.5</ele>
        <time>2021-07-23T11:01:48.786Z</time>
      </trkpt>
      <trkpt lat="40.034302" lon="-0.246712">
        <ele>201.1</ele>
        <time>2021-07-23T11:01:54.633Z</time>
      </trkpt>
      <trkpt lat="40.034240" lon="-0.246897">
        <ele>200.8</ele>
        <time>2021-07-23T11:01:58.742Z</time>
      </trkpt>
      <trkpt lat="40.034307" lon="-0.247145">
        <ele>200.5</ele>
        <time>2021-07-23T11:02:05.747Z</time>
      </trkpt>
      <trkpt lat="40.034627" lon="-0.247190">
        <ele>199.9</ele>
        <time>2021-07-23T11:02:16.963Z</time>
      </trkpt>
      <trkpt lat="40.035213" lon="-0.247490">
        <ele>200.9</ele>
        <time>2021-07-23T11:02:43.764Z</time>
      </trkpt>
      <trkpt lat="40.035474" lon="-0.247524">
        <ele>202.0</ele>
        <time>2021-07-23T11:02:57.036Z</time>
      </trkpt>
      <trkpt lat="40.035845" lon="-0.247449">
        <ele>203.5</ele>
        <time>2021-07-23T11:03:19.505Z</time>
      </trkpt>
      <trkpt lat="40.036041" lon="-0.247488">
        <ele>204.3</ele>
        <time>2021-07-23T11:03:30.387Z</time>
      </trkpt>
      <trkpt lat="40.036496" lon="-0.247151">
        <ele>206.4</ele>
        <time>2021-07-23T11:04:01.742Z</time>
      </trkpt>
      <trkpt lat="40.036692" lon="-0.247181">
        <ele>206.9</ele>
        <time>2021-07-23T11:04:11.668Z</time>
      </trkpt>
      <trkpt lat="40.036914" lon="-0.247125">
        <ele>207.3</ele>
        <time>2021-07-23T11:04:24.262Z</time>
      </trkpt>
      <trkpt lat="40.037116" lon="-0.247197">
        <ele>207.7</ele>
        <time>2021-07-23T11:04:33.187Z</time>
      </trkpt>
      <trkpt lat="40.037182" lon="-0.247274">
        <ele>207.8</ele>
        <time>2021-07-23T11:04:38.340Z</time>
      </trkpt>
      <trkpt lat="40.037421" lon="-0.247553">
        <ele>208.3</ele>
        <time>2021-07-23T11:04:50.549Z</time>
      </trkpt>
      <trkpt lat="40.037358" lon="-0.247847">
        <ele>208.7</ele>
        <time>2021-07-23T11:04:58.590Z</time>
      </trkpt>
      <trkpt lat="40.037541" lon="-0.248134">
        <ele>209.2</ele>
        <time>2021-07-23T11:05:08.394Z</time>
      </trkpt>
      <trkpt lat="40.037538" lon="-0.248274">
        <ele>209.4</ele>
        <time>2021-07-23T11:05:11.526Z</time>
      </trkpt>
      <trkpt lat="40.037366" lon="-0.248495">
        <ele>209.6</ele>
        <time>2021-07-23T11:05:19.070Z</time>
      </trkpt>
      <trkpt lat="40.037181" lon="-0.249162">
        <ele>208.7</ele>
        <time>2021-07-23T11:05:34.359Z</time>
      </trkpt>
      <trkpt lat="40.036951" lon="-0.249397">
        <ele>208.1</ele>
        <time>2021-07-23T11:05:42.007Z</time>
      </trkpt>
      <trkpt lat="40.036861" lon="-0.249697">
        <ele>207.7</ele>
        <time>2021-07-23T11:05:48.471Z</time>
      </trkpt>
      <trkpt lat="40.036573" lon="-0.249921">
        <ele>207.1</ele>
        <time>2021-07-23T11:05:57.408Z</time>
      </trkpt>
      <trkpt lat="40.036306" lon="-0.250285">
        <ele>206.5</ele>
        <time>2021-07-23T11:06:08.103Z</time>
      </trkpt>
      <trkpt lat="40.036264" lon="-0.250742">
        <ele>206.8</ele>
        <time>2021-07-23T11:06:18.494Z</time>
      </trkpt>
      <trkpt lat="40.036449" lon="-0.251122">
        <ele>207.1</ele>
        <time>2021-07-23T11:06:29.611Z</time>
      </trkpt>
      <trkpt lat="40.036424" lon="-0.251478">
        <ele>207.3</ele>
        <time>2021-07-23T11:06:39.682Z</time>
      </trkpt>
      <trkpt lat="40.036518" lon="-0.251906">
        <ele>207.6</ele>
        <time>2021-07-23T11:06:53.560Z</time>
      </trkpt>
      <trkpt lat="40.036743" lon="-0.252348">
        <ele>208.0</ele>
        <time>2021-07-23T11:07:11.653Z</time>
      </trkpt>
      <trkpt lat="40.037368" lon="-0.253279">
        <ele>210.2</ele>
        <time>2021-07-23T11:07:57.943Z</time>
      </trkpt>
      <trkpt lat="40.037859" lon="-0.253713">
        <ele>211.6</ele>
        <time>2021-07-23T11:08:25.152Z</time>
      </trkpt>
      <trkpt lat="40.038174" lon="-0.253878">
        <ele>212.1</ele>
        <time>2021-07-23T11:08:37.671Z</time>
      </trkpt>
      <trkpt lat="40.038300" lon="-0.254004">
        <ele>211.7</ele>
        <time>2021-07-23T11:08:42.640Z</time>
      </trkpt>
      <trkpt lat="40.038482" lon="-0.254430">
        <ele>210.6</ele>
        <time>2021-07-23T11:08:53.480Z</time>
      </trkpt>
      <trkpt lat="40.038511" lon="-0.254689">
        <ele>210.1</ele>
        <time>2021-07-23T11:08:58.824Z</time>
      </trkpt>
      <trkpt lat="40.037385" lon="-0.254592">
        <ele>206.9</ele>
        <time>2021-07-23T11:09:14.043Z</time>
      </trkpt>
      <trkpt lat="40.036806" lon="-0.254541">
        <ele>205.3</ele>
        <time>2021-07-23T11:09:21.746Z</time>
      </trkpt>
      <trkpt lat="40.036647" lon="-0.254569">
        <ele>204.9</ele>
        <time>2021-07-23T11:09:23.999Z</time>
      </trkpt>
      <trkpt lat="40.036377" lon="-0.254815">
        <ele>204.0</ele>
        <time>2021-07-23T11:09:28.760Z</time>
      </trkpt>
      <trkpt lat="40.036301" lon="-0.255046">
        <ele>203.5</ele>
        <time>2021-07-23T11:09:31.689Z</time>
      </trkpt>
      <trkpt lat="40.036275" lon="-0.255476">
        <ele>202.6</ele>
        <time>2021-07-23T11:09:37.439Z</time>
      </trkpt>
      <trkpt lat="40.036101" lon="-0.255848">
        <ele>203.2</ele>
        <time>2021-07-23T11:09:45.522Z</time>
      </trkpt>
      <trkpt lat="40.035938" lon="-0.255970">
        <ele>203.9</ele>
        <time>2021-07-23T11:09:51.696Z</time>
      </trkpt>
      <trkpt lat="40.035638" lon="-0.255994">
        <ele>205.0</ele>
        <time>2021-07-23T11:10:03.513Z</time>
      </trkpt>
      <trkpt lat="40.035306" lon="-0.255769">
        <ele>206.4</ele>
        <time>2021-07-23T11:10:19.738Z</time>
      </trkpt>
      <trkpt lat="40.034211" lon="-0.254713">
        <ele>211.9</ele>
        <time>2021-07-23T11:11:21.181Z</time>
      </trkpt>
      <trkpt lat="40.033987" lon="-0.254258">
        <ele>213.8</ele>
        <time>2021-07-23T11:11:38.665Z</time>
      </trkpt>
      <trkpt lat="40.033827" lon="-0.253575">
        <ele>216.2</ele>
        <time>2021-07-23T11:12:00.657Z</time>
      </trkpt>
      <trkpt lat="40.033648" lon="-0.253453">
        <ele>217.1</ele>
        <time>2021-07-23T11:12:07.247Z</time>
      </trkpt>
      <trkpt lat="40.033573" lon="-0.253475">
        <ele>217.3</ele>
        <time>2021-07-23T11:12:09.980Z</time>
      </trkpt>
      <trkpt lat="40.033543" lon="-0.253485">
        <ele>217.4</ele>
        <time>2021-07-23T11:12:11.900Z</time>
      </trkpt>
      <trkpt lat="40.033460" lon="-0.253586">
        <ele>217.8</ele>
        <time>2021-07-23T11:12:15.446Z</time>
      </trkpt>
      <trkpt lat="40.033423" lon="-0.253751">
        <ele>218.2</ele>
        <time>2021-07-23T11:12:19.359Z</time>
      </trkpt>
      <trkpt lat="40.033453" lon="-0.253932">
        <ele>218.7</ele>
        <time>2021-07-23T11:12:25.132Z</time>
      </trkpt>
      <trkpt lat="40.033841" lon="-0.255037">
        <ele>221.7</ele>
        <time>2021-07-23T11:12:57.471Z</time>
      </trkpt>
      <trkpt lat="40.034081" lon="-0.255364">
        <ele>222.8</ele>
        <time>2021-07-23T11:13:10.410Z</time>
      </trkpt>
      <trkpt lat="40.034198" lon="-0.255471">
        <ele>223.3</ele>
        <time>2021-07-23T11:13:15.109Z</time>
      </trkpt>
      <trkpt lat="40.034331" lon="-0.255593">
        <ele>223.8</ele>
        <time>2021-07-23T11:13:20.568Z</time>
      </trkpt>
      <trkpt lat="40.034331" lon="-0.255593">
        <ele>223.8</ele>
        <time>2021-07-23T11:13:20.586Z</time>
      </trkpt>
      <trkpt lat="40.034429" lon="-0.255731">
        <ele>224.2</ele>
        <time>2021-07-23T11:13:25.077Z</time>
      </trkpt>
      <trkpt lat="40.034494" lon="-0.255935">
        <ele>224.7</ele>
        <time>2021-07-23T11:13:30.416Z</time>
      </trkpt>
      <trkpt lat="40.034501" lon="-0.256134">
        <ele>225.2</ele>
        <time>2021-07-23T11:13:35.271Z</time>
      </trkpt>
      <trkpt lat="40.034463" lon="-0.256320">
        <ele>225.7</ele>
        <time>2021-07-23T11:13:40.640Z</time>
      </trkpt>
      <trkpt lat="40.034368" lon="-0.256483">
        <ele>226.1</ele>
        <time>2021-07-23T11:13:45.901Z</time>
      </trkpt>
      <trkpt lat="40.034200" lon="-0.256613">
        <ele>226.8</ele>
        <time>2021-07-23T11:13:52.999Z</time>
      </trkpt>
      <trkpt lat="40.033966" lon="-0.256662">
        <ele>227.5</ele>
        <time>2021-07-23T11:14:01.083Z</time>
      </trkpt>
      <trkpt lat="40.034015" lon="-0.256763">
        <ele>227.8</ele>
        <time>2021-07-23T11:14:04.382Z</time>
      </trkpt>
      <trkpt lat="40.034015" lon="-0.256763">
        <ele>227.8</ele>
        <time>2021-07-23T11:14:04.849Z</time>
      </trkpt>
      <trkpt lat="40.034015" lon="-0.256763">
        <ele>227.8</ele>
        <time>2021-07-23T11:14:04.888Z</time>
      </trkpt>
      <trkpt lat="40.034124" lon="-0.256752">
        <ele>228.1</ele>
        <time>2021-07-23T11:14:10.809Z</time>
      </trkpt>
      <trkpt lat="40.034321" lon="-0.256667">
        <ele>228.8</ele>
        <time>2021-07-23T11:14:20.186Z</time>
      </trkpt>
      <trkpt lat="40.034567" lon="-0.256446">
        <ele>229.9</ele>
        <time>2021-07-23T11:14:34.792Z</time>
      </trkpt>
      <trkpt lat="40.034650" lon="-0.256493">
        <ele>230.2</ele>
        <time>2021-07-23T11:14:38.515Z</time>
      </trkpt>
      <trkpt lat="40.034680" lon="-0.256510">
        <ele>230.4</ele>
        <time>2021-07-23T11:14:41.210Z</time>
      </trkpt>
      <trkpt lat="40.035725" lon="-0.258662">
        <ele>237.9</ele>
        <time>2021-07-23T11:16:20.404Z</time>
      </trkpt>
      <trkpt lat="40.035852" lon="-0.259171">
        <ele>239.7</ele>
        <time>2021-07-23T11:16:42.904Z</time>
      </trkpt>
      <trkpt lat="40.036255" lon="-0.260004">
        <ele>242.9</ele>
        <time>2021-07-23T11:17:24.213Z</time>
      </trkpt>
      <trkpt lat="40.036593" lon="-0.260348">
        <ele>244.8</ele>
        <time>2021-07-23T11:17:47.383Z</time>
      </trkpt>
      <trkpt lat="40.036833" lon="-0.260670">
        <ele>246.3</ele>
        <time>2021-07-23T11:18:05.897Z</time>
      </trkpt>
      <trkpt lat="40.037074" lon="-0.261109">
        <ele>248.1</ele>
        <time>2021-07-23T11:18:27.993Z</time>
      </trkpt>
      <trkpt lat="40.037283" lon="-0.261644">
        <ele>250.1</ele>
        <time>2021-07-23T11:18:52.715Z</time>
      </trkpt>
      <trkpt lat="40.037242" lon="-0.261942">
        <ele>251.0</ele>
        <time>2021-07-23T11:19:05.143Z</time>
      </trkpt>
      <trkpt lat="40.038229" lon="-0.263380">
        <ele>256.2</ele>
        <time>2021-07-23T11:20:17.832Z</time>
      </trkpt>
      <trkpt lat="40.038350" lon="-0.263626">
        <ele>257.0</ele>
        <time>2021-07-23T11:20:28.714Z</time>
      </trkpt>
      <trkpt lat="40.038423" lon="-0.264414">
        <ele>258.8</ele>
        <time>2021-07-23T11:20:57.236Z</time>
      </trkpt>
      <trkpt lat="40.038423" lon="-0.264414">
        <ele>258.8</ele>
        <time>2021-07-23T11:20:57.257Z</time>
      </trkpt>
      <trkpt lat="40.038405" lon="-0.264417">
        <ele>258.8</ele>
        <time>2021-07-23T11:20:58.032Z</time>
      </trkpt>
      <trkpt lat="40.038427" lon="-0.264509">
        <ele>259.1</ele>
        <time>2021-07-23T11:21:01.196Z</time>
      </trkpt>
      <trkpt lat="40.038431" lon="-0.264586">
        <ele>259.2</ele>
        <time>2021-07-23T11:21:03.730Z</time>
      </trkpt>
      <trkpt lat="40.038449" lon="-0.264702">
        <ele>259.5</ele>
        <time>2021-07-23T11:21:07.616Z</time>
      </trkpt>
      <trkpt lat="40.038466" lon="-0.264758">
        <ele>259.6</ele>
        <time>2021-07-23T11:21:09.593Z</time>
      </trkpt>
      <trkpt lat="40.038430" lon="-0.264796">
        <ele>259.8</ele>
        <time>2021-07-23T11:21:11.573Z</time>
      </trkpt>
      <trkpt lat="40.038416" lon="-0.264737">
        <ele>259.9</ele>
        <time>2021-07-23T11:21:13.601Z</time>
      </trkpt>
      <trkpt lat="40.038450" lon="-0.264785">
        <ele>260.1</ele>
        <time>2021-07-23T11:21:15.744Z</time>
      </trkpt>
      <trkpt lat="40.038448" lon="-0.264849">
        <ele>260.2</ele>
        <time>2021-07-23T11:21:17.848Z</time>
      </trkpt>
      <trkpt lat="40.038485" lon="-0.264886">
        <ele>260.3</ele>
        <time>2021-07-23T11:21:19.841Z</time>
      </trkpt>
      <trkpt lat="40.038450" lon="-0.264927">
        <ele>260.5</ele>
        <time>2021-07-23T11:21:21.853Z</time>
      </trkpt>
      <trkpt lat="40.038489" lon="-0.265013">
        <ele>260.7</ele>
        <time>2021-07-23T11:21:25.131Z</time>
      </trkpt>
      <trkpt lat="40.038492" lon="-0.265098">
        <ele>260.9</ele>
        <time>2021-07-23T11:21:27.925Z</time>
      </trkpt>
      <trkpt lat="40.038513" lon="-0.265189">
        <ele>261.1</ele>
        <time>2021-07-23T11:21:31.046Z</time>
      </trkpt>
      <trkpt lat="40.038522" lon="-0.265296">
        <ele>261.3</ele>
        <time>2021-07-23T11:21:34.580Z</time>
      </trkpt>
      <trkpt lat="40.038540" lon="-0.265410">
        <ele>261.6</ele>
        <time>2021-07-23T11:21:38.401Z</time>
      </trkpt>
      <trkpt lat="40.038555" lon="-0.265543">
        <ele>261.9</ele>
        <time>2021-07-23T11:21:42.814Z</time>
      </trkpt>
      <trkpt lat="40.038586" lon="-0.265672">
        <ele>262.2</ele>
        <time>2021-07-23T11:21:47.251Z</time>
      </trkpt>
      <trkpt lat="40.038605" lon="-0.265770">
        <ele>262.4</ele>
        <time>2021-07-23T11:21:50.571Z</time>
      </trkpt>
      <trkpt lat="40.038628" lon="-0.265846">
        <ele>262.6</ele>
        <time>2021-07-23T11:21:53.251Z</time>
      </trkpt>
      <trkpt lat="40.038664" lon="-0.265914">
        <ele>262.7</ele>
        <time>2021-07-23T11:21:55.964Z</time>
      </trkpt>
      <trkpt lat="40.038698" lon="-0.265992">
        <ele>262.9</ele>
        <time>2021-07-23T11:21:58.909Z</time>
      </trkpt>
      <trkpt lat="40.038743" lon="-0.266082">
        <ele>263.1</ele>
        <time>2021-07-23T11:22:02.434Z</time>
      </trkpt>
      <trkpt lat="40.038791" lon="-0.266176">
        <ele>263.3</ele>
        <time>2021-07-23T11:22:06.140Z</time>
      </trkpt>
      <trkpt lat="40.038839" lon="-0.266248">
        <ele>263.5</ele>
        <time>2021-07-23T11:22:09.269Z</time>
      </trkpt>
      <trkpt lat="40.038897" lon="-0.266314">
        <ele>263.7</ele>
        <time>2021-07-23T11:22:12.561Z</time>
      </trkpt>
      <trkpt lat="40.038929" lon="-0.266377">
        <ele>263.8</ele>
        <time>2021-07-23T11:22:15.040Z</time>
      </trkpt>
      <trkpt lat="40.038964" lon="-0.266457">
        <ele>264.0</ele>
        <time>2021-07-23T11:22:18.063Z</time>
      </trkpt>
      <trkpt lat="40.039002" lon="-0.266523">
        <ele>264.2</ele>
        <time>2021-07-23T11:22:20.770Z</time>
      </trkpt>
      <trkpt lat="40.039047" lon="-0.266618">
        <ele>264.4</ele>
        <time>2021-07-23T11:22:24.434Z</time>
      </trkpt>
      <trkpt lat="40.039099" lon="-0.266717">
        <ele>264.6</ele>
        <time>2021-07-23T11:22:28.371Z</time>
      </trkpt>
      <trkpt lat="40.039146" lon="-0.266814">
        <ele>264.8</ele>
        <time>2021-07-23T11:22:32.136Z</time>
      </trkpt>
      <trkpt lat="40.039192" lon="-0.266914">
        <ele>265.1</ele>
        <time>2021-07-23T11:22:35.963Z</time>
      </trkpt>
      <trkpt lat="40.039229" lon="-0.266999">
        <ele>265.3</ele>
        <time>2021-07-23T11:22:39.168Z</time>
      </trkpt>
      <trkpt lat="40.039264" lon="-0.267074">
        <ele>265.4</ele>
        <time>2021-07-23T11:22:42.050Z</time>
      </trkpt>
      <trkpt lat="40.039285" lon="-0.267161">
        <ele>265.6</ele>
        <time>2021-07-23T11:22:45.043Z</time>
      </trkpt>
      <trkpt lat="40.039305" lon="-0.267252">
        <ele>265.8</ele>
        <time>2021-07-23T11:22:48.152Z</time>
      </trkpt>
      <trkpt lat="40.039323" lon="-0.267354">
        <ele>266.0</ele>
        <time>2021-07-23T11:22:51.588Z</time>
      </trkpt>
      <trkpt lat="40.039339" lon="-0.267472">
        <ele>266.2</ele>
        <time>2021-07-23T11:22:55.522Z</time>
      </trkpt>
      <trkpt lat="40.039375" lon="-0.267588">
        <ele>266.5</ele>
        <time>2021-07-23T11:22:59.629Z</time>
      </trkpt>
      <trkpt lat="40.039402" lon="-0.267696">
        <ele>266.7</ele>
        <time>2021-07-23T11:23:03.358Z</time>
      </trkpt>
      <trkpt lat="40.039430" lon="-0.267783">
        <ele>266.8</ele>
        <time>2021-07-23T11:23:06.455Z</time>
      </trkpt>
      <trkpt lat="40.039459" lon="-0.267870">
        <ele>267.0</ele>
        <time>2021-07-23T11:23:09.568Z</time>
      </trkpt>
      <trkpt lat="40.039458" lon="-0.267960">
        <ele>267.1</ele>
        <time>2021-07-23T11:23:12.522Z</time>
      </trkpt>
      <trkpt lat="40.039467" lon="-0.268021">
        <ele>267.2</ele>
        <time>2021-07-23T11:23:14.562Z</time>
      </trkpt>
      <trkpt lat="40.039488" lon="-0.268106">
        <ele>267.3</ele>
        <time>2021-07-23T11:23:17.494Z</time>
      </trkpt>
      <trkpt lat="40.039518" lon="-0.268212">
        <ele>267.5</ele>
        <time>2021-07-23T11:23:21.203Z</time>
      </trkpt>
      <trkpt lat="40.039558" lon="-0.268332">
        <ele>267.7</ele>
        <time>2021-07-23T11:23:25.497Z</time>
      </trkpt>
      <trkpt lat="40.039602" lon="-0.268461">
        <ele>267.9</ele>
        <time>2021-07-23T11:23:30.130Z</time>
      </trkpt>
      <trkpt lat="40.039637" lon="-0.268606">
        <ele>268.2</ele>
        <time>2021-07-23T11:23:35.119Z</time>
      </trkpt>
      <trkpt lat="40.039675" lon="-0.268741">
        <ele>268.4</ele>
        <time>2021-07-23T11:23:39.840Z</time>
      </trkpt>
      <trkpt lat="40.039701" lon="-0.268852">
        <ele>268.6</ele>
        <time>2021-07-23T11:23:43.647Z</time>
      </trkpt>
      <trkpt lat="40.039736" lon="-0.268955">
        <ele>268.7</ele>
        <time>2021-07-23T11:23:47.347Z</time>
      </trkpt>
      <trkpt lat="40.039775" lon="-0.269071">
        <ele>268.9</ele>
        <time>2021-07-23T11:23:51.501Z</time>
      </trkpt>
      <trkpt lat="40.039809" lon="-0.269195">
        <ele>269.1</ele>
        <time>2021-07-23T11:23:55.825Z</time>
      </trkpt>
      <trkpt lat="40.039854" lon="-0.269322">
        <ele>269.3</ele>
        <time>2021-07-23T11:24:00.416Z</time>
      </trkpt>
      <trkpt lat="40.039900" lon="-0.269454">
        <ele>269.6</ele>
        <time>2021-07-23T11:24:05.175Z</time>
      </trkpt>
      <trkpt lat="40.039933" lon="-0.269587">
        <ele>269.8</ele>
        <time>2021-07-23T11:24:09.763Z</time>
      </trkpt>
      <trkpt lat="40.039959" lon="-0.269715">
        <ele>270.0</ele>
        <time>2021-07-23T11:24:14.109Z</time>
      </trkpt>
      <trkpt lat="40.039986" lon="-0.269834">
        <ele>270.2</ele>
        <time>2021-07-23T11:24:18.182Z</time>
      </trkpt>
      <trkpt lat="40.040014" lon="-0.269951">
        <ele>270.3</ele>
        <time>2021-07-23T11:24:22.205Z</time>
      </trkpt>
      <trkpt lat="40.040036" lon="-0.270040">
        <ele>270.4</ele>
        <time>2021-07-23T11:24:25.274Z</time>
      </trkpt>
      <trkpt lat="40.040057" lon="-0.270121">
        <ele>270.5</ele>
        <time>2021-07-23T11:24:28.080Z</time>
      </trkpt>
      <trkpt lat="40.040044" lon="-0.270195">
        <ele>270.6</ele>
        <time>2021-07-23T11:24:30.572Z</time>
      </trkpt>
      <trkpt lat="40.039999" lon="-0.270277">
        <ele>270.7</ele>
        <time>2021-07-23T11:24:33.880Z</time>
      </trkpt>
      <trkpt lat="40.039946" lon="-0.270327">
        <ele>270.8</ele>
        <time>2021-07-23T11:24:36.675Z</time>
      </trkpt>
      <trkpt lat="40.039879" lon="-0.270385">
        <ele>270.9</ele>
        <time>2021-07-23T11:24:40.112Z</time>
      </trkpt>
      <trkpt lat="40.039802" lon="-0.270448">
        <ele>271.0</ele>
        <time>2021-07-23T11:24:43.998Z</time>
      </trkpt>
      <trkpt lat="40.039724" lon="-0.270500">
        <ele>271.1</ele>
        <time>2021-07-23T11:24:47.741Z</time>
      </trkpt>
      <trkpt lat="40.039657" lon="-0.270556">
        <ele>271.2</ele>
        <time>2021-07-23T11:24:51.143Z</time>
      </trkpt>
      <trkpt lat="40.039588" lon="-0.270619">
        <ele>271.3</ele>
        <time>2021-07-23T11:24:54.743Z</time>
      </trkpt>
      <trkpt lat="40.039517" lon="-0.270680">
        <ele>271.5</ele>
        <time>2021-07-23T11:24:58.376Z</time>
      </trkpt>
      <trkpt lat="40.039457" lon="-0.270731">
        <ele>271.6</ele>
        <time>2021-07-23T11:25:01.438Z</time>
      </trkpt>
      <trkpt lat="40.039418" lon="-0.270784">
        <ele>271.6</ele>
        <time>2021-07-23T11:25:03.846Z</time>
      </trkpt>
      <trkpt lat="40.039387" lon="-0.270865">
        <ele>271.7</ele>
        <time>2021-07-23T11:25:06.817Z</time>
      </trkpt>
      <trkpt lat="40.039372" lon="-0.270964">
        <ele>271.8</ele>
        <time>2021-07-23T11:25:10.129Z</time>
      </trkpt>
      <trkpt lat="40.039358" lon="-0.271066">
        <ele>271.9</ele>
        <time>2021-07-23T11:25:13.529Z</time>
      </trkpt>
      <trkpt lat="40.039313" lon="-0.271141">
        <ele>272.0</ele>
        <time>2021-07-23T11:25:16.654Z</time>
      </trkpt>
      <trkpt lat="40.039256" lon="-0.271218">
        <ele>272.1</ele>
        <time>2021-07-23T11:25:20.163Z</time>
      </trkpt>
      <trkpt lat="40.039185" lon="-0.271277">
        <ele>272.3</ele>
        <time>2021-07-23T11:25:23.761Z</time>
      </trkpt>
      <trkpt lat="40.039127" lon="-0.271326">
        <ele>272.3</ele>
        <time>2021-07-23T11:25:26.714Z</time>
      </trkpt>
      <trkpt lat="40.039088" lon="-0.271367">
        <ele>272.4</ele>
        <time>2021-07-23T11:25:28.856Z</time>
      </trkpt>
      <trkpt lat="40.039047" lon="-0.271478">
        <ele>272.5</ele>
        <time>2021-07-23T11:25:32.897Z</time>
      </trkpt>
      <trkpt lat="40.039046" lon="-0.271572">
        <ele>272.6</ele>
        <time>2021-07-23T11:25:35.985Z</time>
      </trkpt>
      <trkpt lat="40.039061" lon="-0.271673">
        <ele>272.7</ele>
        <time>2021-07-23T11:25:39.361Z</time>
      </trkpt>
      <trkpt lat="40.039082" lon="-0.271768">
        <ele>272.8</ele>
        <time>2021-07-23T11:25:42.605Z</time>
      </trkpt>
      <trkpt lat="40.039099" lon="-0.271858">
        <ele>272.8</ele>
        <time>2021-07-23T11:25:45.647Z</time>
      </trkpt>
      <trkpt lat="40.039104" lon="-0.271955">
        <ele>272.8</ele>
        <time>2021-07-23T11:25:48.840Z</time>
      </trkpt>
      <trkpt lat="40.039102" lon="-0.272063">
        <ele>272.9</ele>
        <time>2021-07-23T11:25:52.386Z</time>
      </trkpt>
      <trkpt lat="40.039111" lon="-0.272141">
        <ele>272.9</ele>
        <time>2021-07-23T11:25:54.974Z</time>
      </trkpt>
      <trkpt lat="40.039111" lon="-0.272202">
        <ele>273.0</ele>
        <time>2021-07-23T11:25:56.977Z</time>
      </trkpt>
      <trkpt lat="40.039082" lon="-0.272253">
        <ele>273.0</ele>
        <time>2021-07-23T11:25:59.060Z</time>
      </trkpt>
      <trkpt lat="40.039035" lon="-0.272300">
        <ele>273.0</ele>
        <time>2021-07-23T11:26:01.592Z</time>
      </trkpt>
      <trkpt lat="40.039001" lon="-0.272367">
        <ele>273.1</ele>
        <time>2021-07-23T11:26:04.227Z</time>
      </trkpt>
      <trkpt lat="40.038964" lon="-0.272436">
        <ele>273.1</ele>
        <time>2021-07-23T11:26:06.989Z</time>
      </trkpt>
      <trkpt lat="40.038911" lon="-0.272498">
        <ele>273.1</ele>
        <time>2021-07-23T11:26:10.033Z</time>
      </trkpt>
      <trkpt lat="40.038851" lon="-0.272553">
        <ele>273.2</ele>
        <time>2021-07-23T11:26:13.167Z</time>
      </trkpt>
      <trkpt lat="40.038803" lon="-0.272614">
        <ele>273.2</ele>
        <time>2021-07-23T11:26:16.033Z</time>
      </trkpt>
      <trkpt lat="40.038781" lon="-0.272683">
        <ele>273.3</ele>
        <time>2021-07-23T11:26:18.485Z</time>
      </trkpt>
      <trkpt lat="40.038755" lon="-0.272740">
        <ele>273.3</ele>
        <time>2021-07-23T11:26:20.661Z</time>
      </trkpt>
      <trkpt lat="40.038720" lon="-0.272789">
        <ele>273.3</ele>
        <time>2021-07-23T11:26:22.856Z</time>
      </trkpt>
      <trkpt lat="40.038681" lon="-0.272826">
        <ele>273.3</ele>
        <time>2021-07-23T11:26:24.918Z</time>
      </trkpt>
      <trkpt lat="40.038604" lon="-0.272864">
        <ele>273.4</ele>
        <time>2021-07-23T11:26:28.435Z</time>
      </trkpt>
      <trkpt lat="40.038553" lon="-0.272853">
        <ele>273.4</ele>
        <time>2021-07-23T11:26:30.642Z</time>
      </trkpt>
      <trkpt lat="40.038494" lon="-0.272802">
        <ele>273.5</ele>
        <time>2021-07-23T11:26:33.668Z</time>
      </trkpt>
      <trkpt lat="40.038425" lon="-0.272747">
        <ele>273.5</ele>
        <time>2021-07-23T11:26:37.123Z</time>
      </trkpt>
      <trkpt lat="40.038360" lon="-0.272689">
        <ele>273.6</ele>
        <time>2021-07-23T11:26:40.490Z</time>
      </trkpt>
      <trkpt lat="40.038296" lon="-0.272633">
        <ele>273.6</ele>
        <time>2021-07-23T11:26:43.783Z</time>
      </trkpt>
      <trkpt lat="40.038242" lon="-0.272575">
        <ele>273.6</ele>
        <time>2021-07-23T11:26:46.772Z</time>
      </trkpt>
      <trkpt lat="40.038196" lon="-0.272527">
        <ele>273.7</ele>
        <time>2021-07-23T11:26:49.292Z</time>
      </trkpt>
      <trkpt lat="40.038148" lon="-0.272462">
        <ele>273.7</ele>
        <time>2021-07-23T11:26:52.251Z</time>
      </trkpt>
      <trkpt lat="40.038107" lon="-0.272365">
        <ele>273.7</ele>
        <time>2021-07-23T11:26:55.883Z</time>
      </trkpt>
      <trkpt lat="40.038084" lon="-0.272257">
        <ele>273.7</ele>
        <time>2021-07-23T11:26:59.563Z</time>
      </trkpt>
      <trkpt lat="40.038047" lon="-0.272155">
        <ele>273.7</ele>
        <time>2021-07-23T11:27:03.266Z</time>
      </trkpt>
      <trkpt lat="40.038002" lon="-0.272046">
        <ele>273.7</ele>
        <time>2021-07-23T11:27:07.327Z</time>
      </trkpt>
      <trkpt lat="40.037960" lon="-0.271934">
        <ele>273.7</ele>
        <time>2021-07-23T11:27:11.418Z</time>
      </trkpt>
      <trkpt lat="40.037921" lon="-0.271832">
        <ele>273.7</ele>
        <time>2021-07-23T11:27:15.158Z</time>
      </trkpt>
      <trkpt lat="40.037880" lon="-0.271743">
        <ele>273.7</ele>
        <time>2021-07-23T11:27:18.564Z</time>
      </trkpt>
      <trkpt lat="40.037832" lon="-0.271660">
        <ele>273.7</ele>
        <time>2021-07-23T11:27:21.973Z</time>
      </trkpt>
      <trkpt lat="40.037776" lon="-0.271580">
        <ele>273.6</ele>
        <time>2021-07-23T11:27:25.525Z</time>
      </trkpt>
      <trkpt lat="40.037729" lon="-0.271497">
        <ele>273.6</ele>
        <time>2021-07-23T11:27:28.909Z</time>
      </trkpt>
      <trkpt lat="40.037683" lon="-0.271429">
        <ele>273.6</ele>
        <time>2021-07-23T11:27:31.883Z</time>
      </trkpt>
      <trkpt lat="40.037636" lon="-0.271366">
        <ele>273.6</ele>
        <time>2021-07-23T11:27:34.764Z</time>
      </trkpt>
      <trkpt lat="40.037573" lon="-0.271316">
        <ele>273.6</ele>
        <time>2021-07-23T11:27:37.916Z</time>
      </trkpt>
      <trkpt lat="40.037499" lon="-0.271263">
        <ele>273.6</ele>
        <time>2021-07-23T11:27:41.522Z</time>
      </trkpt>
      <trkpt lat="40.037416" lon="-0.271215">
        <ele>273.6</ele>
        <time>2021-07-23T11:27:45.403Z</time>
      </trkpt>
      <trkpt lat="40.037341" lon="-0.271175">
        <ele>273.6</ele>
        <time>2021-07-23T11:27:48.862Z</time>
      </trkpt>
      <trkpt lat="40.037280" lon="-0.271148">
        <ele>273.6</ele>
        <time>2021-07-23T11:27:51.616Z</time>
      </trkpt>
      <trkpt lat="40.037223" lon="-0.271118">
        <ele>273.5</ele>
        <time>2021-07-23T11:27:54.242Z</time>
      </trkpt>
      <trkpt lat="40.037169" lon="-0.271073">
        <ele>273.5</ele>
        <time>2021-07-23T11:27:56.980Z</time>
      </trkpt>
      <trkpt lat="40.037111" lon="-0.271024">
        <ele>273.5</ele>
        <time>2021-07-23T11:27:59.932Z</time>
      </trkpt>
      <trkpt lat="40.037036" lon="-0.270981">
        <ele>273.5</ele>
        <time>2021-07-23T11:28:03.434Z</time>
      </trkpt>
      <trkpt lat="40.036955" lon="-0.270935">
        <ele>273.5</ele>
        <time>2021-07-23T11:28:07.208Z</time>
      </trkpt>
      <trkpt lat="40.036874" lon="-0.270890">
        <ele>273.5</ele>
        <time>2021-07-23T11:28:10.970Z</time>
      </trkpt>
      <trkpt lat="40.036790" lon="-0.270857">
        <ele>273.4</ele>
        <time>2021-07-23T11:28:14.717Z</time>
      </trkpt>
      <trkpt lat="40.036716" lon="-0.270830">
        <ele>273.4</ele>
        <time>2021-07-23T11:28:17.999Z</time>
      </trkpt>
      <trkpt lat="40.036651" lon="-0.270786">
        <ele>273.3</ele>
        <time>2021-07-23T11:28:21.129Z</time>
      </trkpt>
      <trkpt lat="40.036583" lon="-0.270760">
        <ele>273.2</ele>
        <time>2021-07-23T11:28:24.156Z</time>
      </trkpt>
      <trkpt lat="40.036514" lon="-0.270723">
        <ele>273.2</ele>
        <time>2021-07-23T11:28:27.343Z</time>
      </trkpt>
      <trkpt lat="40.036454" lon="-0.270685">
        <ele>273.1</ele>
        <time>2021-07-23T11:28:30.193Z</time>
      </trkpt>
      <trkpt lat="40.036405" lon="-0.270642">
        <ele>273.1</ele>
        <time>2021-07-23T11:28:32.717Z</time>
      </trkpt>
      <trkpt lat="40.036361" lon="-0.270595">
        <ele>273.0</ele>
        <time>2021-07-23T11:28:35.147Z</time>
      </trkpt>
      <trkpt lat="40.036311" lon="-0.270538">
        <ele>273.0</ele>
        <time>2021-07-23T11:28:37.987Z</time>
      </trkpt>
      <trkpt lat="40.036234" lon="-0.270497">
        <ele>272.9</ele>
        <time>2021-07-23T11:28:41.541Z</time>
      </trkpt>
      <trkpt lat="40.036153" lon="-0.270440">
        <ele>272.8</ele>
        <time>2021-07-23T11:28:45.473Z</time>
      </trkpt>
      <trkpt lat="40.036077" lon="-0.270377">
        <ele>272.8</ele>
        <time>2021-07-23T11:28:49.321Z</time>
      </trkpt>
      <trkpt lat="40.036015" lon="-0.270328">
        <ele>272.7</ele>
        <time>2021-07-23T11:28:52.418Z</time>
      </trkpt>
      <trkpt lat="40.035974" lon="-0.270285">
        <ele>272.7</ele>
        <time>2021-07-23T11:28:54.668Z</time>
      </trkpt>
      <trkpt lat="40.035924" lon="-0.270227">
        <ele>272.6</ele>
        <time>2021-07-23T11:28:57.529Z</time>
      </trkpt>
      <trkpt lat="40.035854" lon="-0.270233">
        <ele>272.6</ele>
        <time>2021-07-23T11:29:00.526Z</time>
      </trkpt>
      <trkpt lat="40.035817" lon="-0.270305">
        <ele>272.5</ele>
        <time>2021-07-23T11:29:03.369Z</time>
      </trkpt>
      <trkpt lat="40.035768" lon="-0.270398">
        <ele>272.4</ele>
        <time>2021-07-23T11:29:07.071Z</time>
      </trkpt>
      <trkpt lat="40.035709" lon="-0.270488">
        <ele>272.4</ele>
        <time>2021-07-23T11:29:10.954Z</time>
      </trkpt>
      <trkpt lat="40.035654" lon="-0.270575">
        <ele>272.3</ele>
        <time>2021-07-23T11:29:14.652Z</time>
      </trkpt>
      <trkpt lat="40.035606" lon="-0.270639">
        <ele>272.2</ele>
        <time>2021-07-23T11:29:17.587Z</time>
      </trkpt>
      <trkpt lat="40.035563" lon="-0.270661">
        <ele>272.2</ele>
        <time>2021-07-23T11:29:19.561Z</time>
      </trkpt>
      <trkpt lat="40.035499" lon="-0.270685">
        <ele>272.1</ele>
        <time>2021-07-23T11:29:22.405Z</time>
      </trkpt>
      <trkpt lat="40.035417" lon="-0.270618">
        <ele>272.1</ele>
        <time>2021-07-23T11:29:26.541Z</time>
      </trkpt>
      <trkpt lat="40.035353" lon="-0.270537">
        <ele>272.0</ele>
        <time>2021-07-23T11:29:30.354Z</time>
      </trkpt>
      <trkpt lat="40.035274" lon="-0.270448">
        <ele>271.8</ele>
        <time>2021-07-23T11:29:34.817Z</time>
      </trkpt>
      <trkpt lat="40.035188" lon="-0.270356">
        <ele>271.7</ele>
        <time>2021-07-23T11:29:39.573Z</time>
      </trkpt>
      <trkpt lat="40.035108" lon="-0.270274">
        <ele>271.5</ele>
        <time>2021-07-23T11:29:43.923Z</time>
      </trkpt>
      <trkpt lat="40.035038" lon="-0.270203">
        <ele>271.4</ele>
        <time>2021-07-23T11:29:47.713Z</time>
      </trkpt>
      <trkpt lat="40.034956" lon="-0.270145">
        <ele>271.3</ele>
        <time>2021-07-23T11:29:51.700Z</time>
      </trkpt>
      <trkpt lat="40.034857" lon="-0.270096">
        <ele>271.2</ele>
        <time>2021-07-23T11:29:56.224Z</time>
      </trkpt>
      <trkpt lat="40.034750" lon="-0.270039">
        <ele>271.0</ele>
        <time>2021-07-23T11:30:01.162Z</time>
      </trkpt>
      <trkpt lat="40.034654" lon="-0.269984">
        <ele>270.9</ele>
        <time>2021-07-23T11:30:05.642Z</time>
      </trkpt>
      <trkpt lat="40.034575" lon="-0.269942">
        <ele>270.7</ele>
        <time>2021-07-23T11:30:09.286Z</time>
      </trkpt>
      <trkpt lat="40.034506" lon="-0.269903">
        <ele>270.6</ele>
        <time>2021-07-23T11:30:12.501Z</time>
      </trkpt>
      <trkpt lat="40.034438" lon="-0.269876">
        <ele>270.5</ele>
        <time>2021-07-23T11:30:15.536Z</time>
      </trkpt>
      <trkpt lat="40.034360" lon="-0.269867">
        <ele>270.4</ele>
        <time>2021-07-23T11:30:18.881Z</time>
      </trkpt>
      <trkpt lat="40.034268" lon="-0.269870">
        <ele>270.3</ele>
        <time>2021-07-23T11:30:22.812Z</time>
      </trkpt>
      <trkpt lat="40.034170" lon="-0.269869">
        <ele>270.2</ele>
        <time>2021-07-23T11:30:26.999Z</time>
      </trkpt>
      <trkpt lat="40.034071" lon="-0.269862">
        <ele>270.1</ele>
        <time>2021-07-23T11:30:31.233Z</time>
      </trkpt>
      <trkpt lat="40.033978" lon="-0.269846">
        <ele>269.9</ele>
        <time>2021-07-23T11:30:35.237Z</time>
      </trkpt>
      <trkpt lat="40.033885" lon="-0.269827">
        <ele>269.8</ele>
        <time>2021-07-23T11:30:39.258Z</time>
      </trkpt>
      <trkpt lat="40.033775" lon="-0.269792">
        <ele>269.6</ele>
        <time>2021-07-23T11:30:44.098Z</time>
      </trkpt>
      <trkpt lat="40.033666" lon="-0.269752">
        <ele>269.5</ele>
        <time>2021-07-23T11:30:48.935Z</time>
      </trkpt>
      <trkpt lat="40.033566" lon="-0.269724">
        <ele>269.3</ele>
        <time>2021-07-23T11:30:53.303Z</time>
      </trkpt>
      <trkpt lat="40.033478" lon="-0.269709">
        <ele>269.2</ele>
        <time>2021-07-23T11:30:57.097Z</time>
      </trkpt>
      <trkpt lat="40.033392" lon="-0.269710">
        <ele>269.0</ele>
        <time>2021-07-23T11:31:00.770Z</time>
      </trkpt>
      <trkpt lat="40.033297" lon="-0.269718">
        <ele>268.9</ele>
        <time>2021-07-23T11:31:04.836Z</time>
      </trkpt>
      <trkpt lat="40.033191" lon="-0.269753">
        <ele>268.7</ele>
        <time>2021-07-23T11:31:09.507Z</time>
      </trkpt>
      <trkpt lat="40.033084" lon="-0.269804">
        <ele>268.5</ele>
        <time>2021-07-23T11:31:14.376Z</time>
      </trkpt>
      <trkpt lat="40.032981" lon="-0.269845">
        <ele>268.4</ele>
        <time>2021-07-23T11:31:18.977Z</time>
      </trkpt>
      <trkpt lat="40.032891" lon="-0.269885">
        <ele>268.2</ele>
        <time>2021-07-23T11:31:23.038Z</time>
      </trkpt>
      <trkpt lat="40.032813" lon="-0.269914">
        <ele>268.1</ele>
        <time>2021-07-23T11:31:26.506Z</time>
      </trkpt>
      <trkpt lat="40.032741" lon="-0.269925">
        <ele>268.0</ele>
        <time>2021-07-23T11:31:29.603Z</time>
      </trkpt>
      <trkpt lat="40.032682" lon="-0.269941">
        <ele>267.9</ele>
        <time>2021-07-23T11:31:32.175Z</time>
      </trkpt>
      <trkpt lat="40.032619" lon="-0.269982">
        <ele>267.8</ele>
        <time>2021-07-23T11:31:35.186Z</time>
      </trkpt>
      <trkpt lat="40.032557" lon="-0.270097">
        <ele>267.6</ele>
        <time>2021-07-23T11:31:39.797Z</time>
      </trkpt>
      <trkpt lat="40.032509" lon="-0.270174">
        <ele>267.5</ele>
        <time>2021-07-23T11:31:43.077Z</time>
      </trkpt>
      <trkpt lat="40.032462" lon="-0.270240">
        <ele>267.4</ele>
        <time>2021-07-23T11:31:46.029Z</time>
      </trkpt>
      <trkpt lat="40.032402" lon="-0.270283">
        <ele>267.3</ele>
        <time>2021-07-23T11:31:48.956Z</time>
      </trkpt>
      <trkpt lat="40.032318" lon="-0.270306">
        <ele>267.1</ele>
        <time>2021-07-23T11:31:52.622Z</time>
      </trkpt>
      <trkpt lat="40.032235" lon="-0.270347">
        <ele>267.0</ele>
        <time>2021-07-23T11:31:56.417Z</time>
      </trkpt>
      <trkpt lat="40.032136" lon="-0.270382">
        <ele>266.8</ele>
        <time>2021-07-23T11:32:00.804Z</time>
      </trkpt>
      <trkpt lat="40.032028" lon="-0.270385">
        <ele>266.9</ele>
        <time>2021-07-23T11:32:05.419Z</time>
      </trkpt>
      <trkpt lat="40.031921" lon="-0.270382">
        <ele>267.0</ele>
        <time>2021-07-23T11:32:09.990Z</time>
      </trkpt>
      <trkpt lat="40.031823" lon="-0.270376">
        <ele>267.2</ele>
        <time>2021-07-23T11:32:14.193Z</time>
      </trkpt>
      <trkpt lat="40.031743" lon="-0.270370">
        <ele>267.3</ele>
        <time>2021-07-23T11:32:17.616Z</time>
      </trkpt>
      <trkpt lat="40.031669" lon="-0.270363">
        <ele>267.4</ele>
        <time>2021-07-23T11:32:20.787Z</time>
      </trkpt>
      <trkpt lat="40.031618" lon="-0.270361">
        <ele>267.4</ele>
        <time>2021-07-23T11:32:22.967Z</time>
      </trkpt>
      <trkpt lat="40.031566" lon="-0.270359">
        <ele>267.5</ele>
        <time>2021-07-23T11:32:25.189Z</time>
      </trkpt>
      <trkpt lat="40.031520" lon="-0.270347">
        <ele>267.6</ele>
        <time>2021-07-23T11:32:27.196Z</time>
      </trkpt>
      <trkpt lat="40.031528" lon="-0.270412">
        <ele>267.6</ele>
        <time>2021-07-23T11:32:29.364Z</time>
      </trkpt>
      <trkpt lat="40.031513" lon="-0.270491">
        <ele>267.7</ele>
        <time>2021-07-23T11:32:32.036Z</time>
      </trkpt>
      <trkpt lat="40.031560" lon="-0.270522">
        <ele>267.8</ele>
        <time>2021-07-23T11:32:34.289Z</time>
      </trkpt>
      <trkpt lat="40.031608" lon="-0.270608">
        <ele>267.9</ele>
        <time>2021-07-23T11:32:37.779Z</time>
      </trkpt>
      <trkpt lat="40.031656" lon="-0.270726">
        <ele>268.0</ele>
        <time>2021-07-23T11:32:42.165Z</time>
      </trkpt>
      <trkpt lat="40.031681" lon="-0.270710">
        <ele>268.1</ele>
        <time>2021-07-23T11:32:43.380Z</time>
      </trkpt>
      <trkpt lat="40.031835" lon="-0.271119">
        <ele>268.5</ele>
        <time>2021-07-23T11:32:59.125Z</time>
      </trkpt>
      <trkpt lat="40.031947" lon="-0.271313">
        <ele>268.8</ele>
        <time>2021-07-23T11:33:08.359Z</time>
      </trkpt>
      <trkpt lat="40.032127" lon="-0.271777">
        <ele>269.8</ele>
        <time>2021-07-23T11:33:28.727Z</time>
      </trkpt>
      <trkpt lat="40.032447" lon="-0.272389">
        <ele>273.1</ele>
        <time>2021-07-23T11:33:58.313Z</time>
      </trkpt>
      <trkpt lat="40.033004" lon="-0.273883">
        <ele>280.7</ele>
        <time>2021-07-23T11:35:24.593Z</time>
      </trkpt>
      <trkpt lat="40.033013" lon="-0.274139">
        <ele>281.8</ele>
        <time>2021-07-23T11:35:38.458Z</time>
      </trkpt>
      <trkpt lat="40.033096" lon="-0.274503">
        <ele>283.5</ele>
        <time>2021-07-23T11:35:58.036Z</time>
      </trkpt>
      <trkpt lat="40.033107" lon="-0.274883">
        <ele>285.2</ele>
        <time>2021-07-23T11:36:17.232Z</time>
      </trkpt>
      <trkpt lat="40.032916" lon="-0.275261">
        <ele>287.3</ele>
        <time>2021-07-23T11:36:37.956Z</time>
      </trkpt>
      <trkpt lat="40.032723" lon="-0.275499">
        <ele>288.8</ele>
        <time>2021-07-23T11:36:52.862Z</time>
      </trkpt>
      <trkpt lat="40.032562" lon="-0.275574">
        <ele>289.9</ele>
        <time>2021-07-23T11:37:00.888Z</time>
      </trkpt>
      <trkpt lat="40.032467" lon="-0.275698">
        <ele>290.5</ele>
        <time>2021-07-23T11:37:08.903Z</time>
      </trkpt>
      <trkpt lat="40.032407" lon="-0.275858">
        <ele>290.9</ele>
        <time>2021-07-23T11:37:15.800Z</time>
      </trkpt>
      <trkpt lat="40.032564" lon="-0.276030">
        <ele>291.5</ele>
        <time>2021-07-23T11:37:25.743Z</time>
      </trkpt>
      <trkpt lat="40.032808" lon="-0.276336">
        <ele>292.5</ele>
        <time>2021-07-23T11:37:41.849Z</time>
      </trkpt>
      <trkpt lat="40.032948" lon="-0.277137">
        <ele>294.2</ele>
        <time>2021-07-23T11:38:10.010Z</time>
      </trkpt>
      <trkpt lat="40.032939" lon="-0.277400">
        <ele>294.8</ele>
        <time>2021-07-23T11:38:19.755Z</time>
      </trkpt>
      <trkpt lat="40.032995" lon="-0.277792">
        <ele>295.5</ele>
        <time>2021-07-23T11:38:30.578Z</time>
      </trkpt>
      <trkpt lat="40.033107" lon="-0.278128">
        <ele>295.8</ele>
        <time>2021-07-23T11:38:41.479Z</time>
      </trkpt>
      <trkpt lat="40.033192" lon="-0.278251">
        <ele>295.9</ele>
        <time>2021-07-23T11:38:46.304Z</time>
      </trkpt>
      <trkpt lat="40.033360" lon="-0.278281">
        <ele>296.1</ele>
        <time>2021-07-23T11:38:53.161Z</time>
      </trkpt>
      <trkpt lat="40.033777" lon="-0.278214">
        <ele>296.4</ele>
        <time>2021-07-23T11:39:09.535Z</time>
      </trkpt>
      <trkpt lat="40.034428" lon="-0.277926">
        <ele>297.0</ele>
        <time>2021-07-23T11:39:33.521Z</time>
      </trkpt>
      <trkpt lat="40.034606" lon="-0.277951">
        <ele>296.9</ele>
        <time>2021-07-23T11:39:38.876Z</time>
      </trkpt>
      <trkpt lat="40.034742" lon="-0.278134">
        <ele>296.5</ele>
        <time>2021-07-23T11:39:44.617Z</time>
      </trkpt>
      <trkpt lat="40.035210" lon="-0.278397">
        <ele>295.6</ele>
        <time>2021-07-23T11:39:58.702Z</time>
      </trkpt>
      <trkpt lat="40.035374" lon="-0.278593">
        <ele>295.2</ele>
        <time>2021-07-23T11:40:04.657Z</time>
      </trkpt>
      <trkpt lat="40.035463" lon="-0.278826">
        <ele>294.8</ele>
        <time>2021-07-23T11:40:09.911Z</time>
      </trkpt>
      <trkpt lat="40.035486" lon="-0.279162">
        <ele>294.3</ele>
        <time>2021-07-23T11:40:16.697Z</time>
      </trkpt>
      <trkpt lat="40.035711" lon="-0.279774">
        <ele>293.8</ele>
        <time>2021-07-23T11:40:30.395Z</time>
      </trkpt>
      <trkpt lat="40.035941" lon="-0.280171">
        <ele>293.8</ele>
        <time>2021-07-23T11:40:40.754Z</time>
      </trkpt>
      <trkpt lat="40.036070" lon="-0.280776">
        <ele>293.8</ele>
        <time>2021-07-23T11:40:55.720Z</time>
      </trkpt>
      <trkpt lat="40.036193" lon="-0.280927">
        <ele>293.8</ele>
        <time>2021-07-23T11:41:01.435Z</time>
      </trkpt>
      <trkpt lat="40.036557" lon="-0.281182">
        <ele>293.9</ele>
        <time>2021-07-23T11:41:19.278Z</time>
      </trkpt>
      <trkpt lat="40.036852" lon="-0.281290">
        <ele>294.7</ele>
        <time>2021-07-23T11:41:33.664Z</time>
      </trkpt>
      <trkpt lat="40.037014" lon="-0.281636">
        <ele>296.2</ele>
        <time>2021-07-23T11:41:49.386Z</time>
      </trkpt>
      <trkpt lat="40.037077" lon="-0.281731">
        <ele>296.6</ele>
        <time>2021-07-23T11:41:55.043Z</time>
      </trkpt>
      <trkpt lat="40.037120" lon="-0.281796">
        <ele>297.0</ele>
        <time>2021-07-23T11:41:59.522Z</time>
      </trkpt>
      <trkpt lat="40.037216" lon="-0.282177">
        <ele>298.4</ele>
        <time>2021-07-23T11:42:16.185Z</time>
      </trkpt>
      <trkpt lat="40.037315" lon="-0.282380">
        <ele>299.3</ele>
        <time>2021-07-23T11:42:26.885Z</time>
      </trkpt>
      <trkpt lat="40.037468" lon="-0.282557">
        <ele>300.3</ele>
        <time>2021-07-23T11:42:39.729Z</time>
      </trkpt>
      <trkpt lat="40.037868" lon="-0.282726">
        <ele>302.3</ele>
        <time>2021-07-23T11:43:05.649Z</time>
      </trkpt>
      <trkpt lat="40.038077" lon="-0.283089">
        <ele>304.1</ele>
        <time>2021-07-23T11:43:27.624Z</time>
      </trkpt>
      <trkpt lat="40.038560" lon="-0.283496">
        <ele>307.0</ele>
        <time>2021-07-23T11:43:59.931Z</time>
      </trkpt>
      <trkpt lat="40.038630" lon="-0.283656">
        <ele>307.7</ele>
        <time>2021-07-23T11:44:07.778Z</time>
      </trkpt>
      <trkpt lat="40.038630" lon="-0.283838">
        <ele>308.4</ele>
        <time>2021-07-23T11:44:15.581Z</time>
      </trkpt>
      <trkpt lat="40.038355" lon="-0.284538">
        <ele>311.5</ele>
        <time>2021-07-23T11:44:49.118Z</time>
      </trkpt>
      <trkpt lat="40.038435" lon="-0.284724">
        <ele>312.2</ele>
        <time>2021-07-23T11:44:58.237Z</time>
      </trkpt>
      <trkpt lat="40.038690" lon="-0.285014">
        <ele>313.7</ele>
        <time>2021-07-23T11:45:16.973Z</time>
      </trkpt>
      <trkpt lat="40.039905" lon="-0.286138">
        <ele>320.3</ele>
        <time>2021-07-23T11:46:36.691Z</time>
      </trkpt>
      <trkpt lat="40.040057" lon="-0.286454">
        <ele>321.5</ele>
        <time>2021-07-23T11:46:51.543Z</time>
      </trkpt>
      <trkpt lat="40.040223" lon="-0.287190">
        <ele>324.0</ele>
        <time>2021-07-23T11:47:22.120Z</time>
      </trkpt>
      <trkpt lat="40.040321" lon="-0.287403">
        <ele>324.8</ele>
        <time>2021-07-23T11:47:32.004Z</time>
      </trkpt>
      <trkpt lat="40.040339" lon="-0.287440">
        <ele>324.9</ele>
        <time>2021-07-23T11:47:34.477Z</time>
      </trkpt>
      <trkpt lat="40.040756" lon="-0.288020">
        <ele>327.6</ele>
        <time>2021-07-23T11:48:05.779Z</time>
      </trkpt>
      <trkpt lat="40.040981" lon="-0.288647">
        <ele>330.6</ele>
        <time>2021-07-23T11:48:35.758Z</time>
      </trkpt>
      <trkpt lat="40.041895" lon="-0.289075">
        <ele>336.0</ele>
        <time>2021-07-23T11:49:34.066Z</time>
      </trkpt>
      <trkpt lat="40.042256" lon="-0.290053">
        <ele>342.0</ele>
        <time>2021-07-23T11:50:30.530Z</time>
      </trkpt>
      <trkpt lat="40.042309" lon="-0.290494">
        <ele>344.7</ele>
        <time>2021-07-23T11:50:55.647Z</time>
      </trkpt>
      <trkpt lat="40.042726" lon="-0.291251">
        <ele>350.2</ele>
        <time>2021-07-23T11:51:49.081Z</time>
      </trkpt>
      <trkpt lat="40.042733" lon="-0.291359">
        <ele>350.9</ele>
        <time>2021-07-23T11:51:55.193Z</time>
      </trkpt>
      <trkpt lat="40.042610" lon="-0.291554">
        <ele>352.3</ele>
        <time>2021-07-23T11:52:09.140Z</time>
      </trkpt>
      <trkpt lat="40.042193" lon="-0.291904">
        <ele>355.9</ele>
        <time>2021-07-23T11:52:43.807Z</time>
      </trkpt>
      <trkpt lat="40.041858" lon="-0.292540">
        <ele>360.2</ele>
        <time>2021-07-23T11:53:23.758Z</time>
      </trkpt>
      <trkpt lat="40.041858" lon="-0.292708">
        <ele>361.1</ele>
        <time>2021-07-23T11:53:32.333Z</time>
      </trkpt>
      <trkpt lat="40.041935" lon="-0.292886">
        <ele>362.2</ele>
        <time>2021-07-23T11:53:42.571Z</time>
      </trkpt>
      <trkpt lat="40.042147" lon="-0.293132">
        <ele>364.3</ele>
        <time>2021-07-23T11:54:00.932Z</time>
      </trkpt>
      <trkpt lat="40.042206" lon="-0.293262">
        <ele>365.0</ele>
        <time>2021-07-23T11:54:08.404Z</time>
      </trkpt>
      <trkpt lat="40.042186" lon="-0.293374">
        <ele>365.5</ele>
        <time>2021-07-23T11:54:13.941Z</time>
      </trkpt>
      <trkpt lat="40.041968" lon="-0.293444">
        <ele>366.9</ele>
        <time>2021-07-23T11:54:27.752Z</time>
      </trkpt>
      <trkpt lat="40.041454" lon="-0.293340">
        <ele>370.1</ele>
        <time>2021-07-23T11:54:59.041Z</time>
      </trkpt>
      <trkpt lat="40.041249" lon="-0.293478">
        <ele>371.5</ele>
        <time>2021-07-23T11:55:13.018Z</time>
      </trkpt>
      <trkpt lat="40.041137" lon="-0.293738">
        <ele>372.9</ele>
        <time>2021-07-23T11:55:26.999Z</time>
      </trkpt>
      <trkpt lat="40.041117" lon="-0.293997">
        <ele>374.1</ele>
        <time>2021-07-23T11:55:39.594Z</time>
      </trkpt>
      <trkpt lat="40.041316" lon="-0.294490">
        <ele>376.9</ele>
        <time>2021-07-23T11:56:07.072Z</time>
      </trkpt>
      <trkpt lat="40.041309" lon="-0.294763">
        <ele>378.3</ele>
        <time>2021-07-23T11:56:20.829Z</time>
      </trkpt>
      <trkpt lat="40.041402" lon="-0.295399">
        <ele>381.6</ele>
        <time>2021-07-23T11:56:53.740Z</time>
      </trkpt>
      <trkpt lat="40.041325" lon="-0.296142">
        <ele>385.5</ele>
        <time>2021-07-23T11:57:31.747Z</time>
      </trkpt>
      <trkpt lat="40.041233" lon="-0.296311">
        <ele>386.6</ele>
        <time>2021-07-23T11:57:42.175Z</time>
      </trkpt>
      <trkpt lat="40.040858" lon="-0.296501">
        <ele>389.2</ele>
        <time>2021-07-23T11:58:08.472Z</time>
      </trkpt>
      <trkpt lat="40.040434" lon="-0.296514">
        <ele>391.9</ele>
        <time>2021-07-23T11:58:36.040Z</time>
      </trkpt>
      <trkpt lat="40.040014" lon="-0.296908">
        <ele>395.2</ele>
        <time>2021-07-23T11:59:09.637Z</time>
      </trkpt>
      <trkpt lat="40.039676" lon="-0.297565">
        <ele>399.1</ele>
        <time>2021-07-23T11:59:47.617Z</time>
      </trkpt>
      <trkpt lat="40.039577" lon="-0.297669">
        <ele>399.8</ele>
        <time>2021-07-23T11:59:55.286Z</time>
      </trkpt>
      <trkpt lat="40.039438" lon="-0.297643">
        <ele>400.7</ele>
        <time>2021-07-23T12:00:03.583Z</time>
      </trkpt>
      <trkpt lat="40.039292" lon="-0.297526">
        <ele>401.7</ele>
        <time>2021-07-23T12:00:13.567Z</time>
      </trkpt>
      <trkpt lat="40.039166" lon="-0.297513">
        <ele>402.5</ele>
        <time>2021-07-23T12:00:20.762Z</time>
      </trkpt>
      <trkpt lat="40.039041" lon="-0.297583">
        <ele>403.3</ele>
        <time>2021-07-23T12:00:28.490Z</time>
      </trkpt>
      <trkpt lat="40.038736" lon="-0.298006">
        <ele>405.9</ele>
        <time>2021-07-23T12:00:53.327Z</time>
      </trkpt>
      <trkpt lat="40.038375" lon="-0.298629">
        <ele>409.5</ele>
        <time>2021-07-23T12:01:33.547Z</time>
      </trkpt>
      <trkpt lat="40.037938" lon="-0.298958">
        <ele>413.4</ele>
        <time>2021-07-23T12:02:08.510Z</time>
      </trkpt>
      <trkpt lat="40.037822" lon="-0.299161">
        <ele>414.9</ele>
        <time>2021-07-23T12:02:22.838Z</time>
      </trkpt>
      <trkpt lat="40.037770" lon="-0.299432">
        <ele>416.5</ele>
        <time>2021-07-23T12:02:37.099Z</time>
      </trkpt>
      <trkpt lat="40.037832" lon="-0.299566">
        <ele>417.5</ele>
        <time>2021-07-23T12:02:46.314Z</time>
      </trkpt>
      <trkpt lat="40.037881" lon="-0.299604">
        <ele>417.9</ele>
        <time>2021-07-23T12:02:50.569Z</time>
      </trkpt>
      <trkpt lat="40.038206" lon="-0.299628">
        <ele>420.5</ele>
        <time>2021-07-23T12:03:13.959Z</time>
      </trkpt>
      <trkpt lat="40.038699" lon="-0.299581">
        <ele>424.2</ele>
        <time>2021-07-23T12:03:49.248Z</time>
      </trkpt>
      <trkpt lat="40.039342" lon="-0.299269">
        <ele>428.2</ele>
        <time>2021-07-23T12:04:38.529Z</time>
      </trkpt>
      <trkpt lat="40.039802" lon="-0.299408">
        <ele>430.9</ele>
        <time>2021-07-23T12:05:06.859Z</time>
      </trkpt>
      <trkpt lat="40.039875" lon="-0.299373">
        <ele>431.4</ele>
        <time>2021-07-23T12:05:10.865Z</time>
      </trkpt>
      <trkpt lat="40.040263" lon="-0.298763">
        <ele>434.6</ele>
        <time>2021-07-23T12:05:40.388Z</time>
      </trkpt>
      <trkpt lat="40.040623" lon="-0.298461">
        <ele>436.0</ele>
        <time>2021-07-23T12:05:59.597Z</time>
      </trkpt>
      <trkpt lat="40.041802" lon="-0.297799">
        <ele>440.1</ele>
        <time>2021-07-23T12:06:58.550Z</time>
      </trkpt>
      <trkpt lat="40.042445" lon="-0.297288">
        <ele>444.3</ele>
        <time>2021-07-23T12:07:40.110Z</time>
      </trkpt>
      <trkpt lat="40.042743" lon="-0.297180">
        <ele>446.1</ele>
        <time>2021-07-23T12:07:59.258Z</time>
      </trkpt>
      <trkpt lat="40.043054" lon="-0.297284">
        <ele>447.9</ele>
        <time>2021-07-23T12:08:20.546Z</time>
      </trkpt>
      <trkpt lat="40.043385" lon="-0.297288">
        <ele>449.7</ele>
        <time>2021-07-23T12:08:43.393Z</time>
      </trkpt>
      <trkpt lat="40.043455" lon="-0.297232">
        <ele>450.2</ele>
        <time>2021-07-23T12:08:48.994Z</time>
      </trkpt>
      <trkpt lat="40.043468" lon="-0.297064">
        <ele>451.0</ele>
        <time>2021-07-23T12:08:57.904Z</time>
      </trkpt>
      <trkpt lat="40.043613" lon="-0.296774">
        <ele>452.6</ele>
        <time>2021-07-23T12:09:15.943Z</time>
      </trkpt>
      <trkpt lat="40.044196" lon="-0.296285">
        <ele>456.8</ele>
        <time>2021-07-23T12:10:01.353Z</time>
      </trkpt>
      <trkpt lat="40.044332" lon="-0.296099">
        <ele>458.0</ele>
        <time>2021-07-23T12:10:13.404Z</time>
      </trkpt>
      <trkpt lat="40.044401" lon="-0.295494">
        <ele>460.8</ele>
        <time>2021-07-23T12:10:39.852Z</time>
      </trkpt>
      <trkpt lat="40.044875" lon="-0.295083">
        <ele>462.4</ele>
        <time>2021-07-23T12:11:08.306Z</time>
      </trkpt>
      <trkpt lat="40.045663" lon="-0.294265">
        <ele>465.1</ele>
        <time>2021-07-23T12:11:50.213Z</time>
      </trkpt>
      <trkpt lat="40.045845" lon="-0.294149">
        <ele>465.6</ele>
        <time>2021-07-23T12:11:58.154Z</time>
      </trkpt>
      <trkpt lat="40.046295" lon="-0.294105">
        <ele>468.0</ele>
        <time>2021-07-23T12:12:16.160Z</time>
      </trkpt>
      <trkpt lat="40.046355" lon="-0.294019">
        <ele>468.5</ele>
        <time>2021-07-23T12:12:19.988Z</time>
      </trkpt>
      <trkpt lat="40.046295" lon="-0.293751">
        <ele>469.6</ele>
        <time>2021-07-23T12:12:29.785Z</time>
      </trkpt>
      <trkpt lat="40.046345" lon="-0.293629">
        <ele>470.2</ele>
        <time>2021-07-23T12:12:36.362Z</time>
      </trkpt>
      <trkpt lat="40.047044" lon="-0.292964">
        <ele>474.9</ele>
        <time>2021-07-23T12:13:34.861Z</time>
      </trkpt>
      <trkpt lat="40.047418" lon="-0.292609">
        <ele>479.1</ele>
        <time>2021-07-23T12:14:10.532Z</time>
      </trkpt>
      <trkpt lat="40.047577" lon="-0.292734">
        <ele>481.1</ele>
        <time>2021-07-23T12:14:26.937Z</time>
      </trkpt>
      <trkpt lat="40.048090" lon="-0.293245">
        <ele>487.8</ele>
        <time>2021-07-23T12:15:22.742Z</time>
      </trkpt>
      <trkpt lat="40.048484" lon="-0.293656">
        <ele>493.0</ele>
        <time>2021-07-23T12:16:08.786Z</time>
      </trkpt>
      <trkpt lat="40.048927" lon="-0.293859">
        <ele>496.8</ele>
        <time>2021-07-23T12:16:49.868Z</time>
      </trkpt>
      <trkpt lat="40.049901" lon="-0.294097">
        <ele>504.0</ele>
        <time>2021-07-23T12:17:58.603Z</time>
      </trkpt>
      <trkpt lat="40.051381" lon="-0.293790">
        <ele>509.5</ele>
        <time>2021-07-23T12:19:12.372Z</time>
      </trkpt>
      <trkpt lat="40.051573" lon="-0.293768">
        <ele>509.8</ele>
        <time>2021-07-23T12:19:18.980Z</time>
      </trkpt>
      <trkpt lat="40.051808" lon="-0.293820">
        <ele>510.3</ele>
        <time>2021-07-23T12:19:26.759Z</time>
      </trkpt>
      <trkpt lat="40.052450" lon="-0.293681">
        <ele>510.6</ele>
        <time>2021-07-23T12:19:46.213Z</time>
      </trkpt>
      <trkpt lat="40.054059" lon="-0.294036">
        <ele>508.9</ele>
        <time>2021-07-23T12:20:32.855Z</time>
      </trkpt>
      <trkpt lat="40.054380" lon="-0.293911">
        <ele>508.4</ele>
        <time>2021-07-23T12:20:43.089Z</time>
      </trkpt>
      <trkpt lat="40.054996" lon="-0.293837">
        <ele>507.5</ele>
        <time>2021-07-23T12:21:01.366Z</time>
      </trkpt>
      <trkpt lat="40.055274" lon="-0.293835">
        <ele>507.1</ele>
        <time>2021-07-23T12:21:09.362Z</time>
      </trkpt>
      <trkpt lat="40.055375" lon="-0.293783">
        <ele>506.9</ele>
        <time>2021-07-23T12:21:12.307Z</time>
      </trkpt>
      <trkpt lat="40.055610" lon="-0.293436">
        <ele>506.1</ele>
        <time>2021-07-23T12:21:22.004Z</time>
      </trkpt>
      <trkpt lat="40.055784" lon="-0.292879">
        <ele>503.2</ele>
        <time>2021-07-23T12:21:34.138Z</time>
      </trkpt>
      <trkpt lat="40.056076" lon="-0.290893">
        <ele>492.2</ele>
        <time>2021-07-23T12:22:08.743Z</time>
      </trkpt>
      <trkpt lat="40.056348" lon="-0.290476">
        <ele>487.8</ele>
        <time>2021-07-23T12:22:17.699Z</time>
      </trkpt>
      <trkpt lat="40.056332" lon="-0.290433">
        <ele>487.4</ele>
        <time>2021-07-23T12:22:18.415Z</time>
      </trkpt>
      <trkpt lat="40.056412" lon="-0.290266">
        <ele>485.9</ele>
        <time>2021-07-23T12:22:21.573Z</time>
      </trkpt>
      <trkpt lat="40.056666" lon="-0.289607">
        <ele>480.0</ele>
        <time>2021-07-23T12:22:33.529Z</time>
      </trkpt>
      <trkpt lat="40.056862" lon="-0.289240">
        <ele>476.4</ele>
        <time>2021-07-23T12:22:40.798Z</time>
      </trkpt>
      <trkpt lat="40.057682" lon="-0.288413">
        <ele>466.7</ele>
        <time>2021-07-23T12:23:03.083Z</time>
      </trkpt>
      <trkpt lat="40.057858" lon="-0.287754">
        <ele>461.6</ele>
        <time>2021-07-23T12:23:14.980Z</time>
      </trkpt>
      <trkpt lat="40.058264" lon="-0.287121">
        <ele>455.3</ele>
        <time>2021-07-23T12:23:28.923Z</time>
      </trkpt>
      <trkpt lat="40.058284" lon="-0.286830">
        <ele>453.0</ele>
        <time>2021-07-23T12:23:33.821Z</time>
      </trkpt>
      <trkpt lat="40.058456" lon="-0.286345">
        <ele>448.7</ele>
        <time>2021-07-23T12:23:42.715Z</time>
      </trkpt>
      <trkpt lat="40.058651" lon="-0.286146">
        <ele>446.1</ele>
        <time>2021-07-23T12:23:48.022Z</time>
      </trkpt>
      <trkpt lat="40.059225" lon="-0.284610">
        <ele>429.3</ele>
        <time>2021-07-23T12:24:15.015Z</time>
      </trkpt>
      <trkpt lat="40.059244" lon="-0.284402">
        <ele>427.0</ele>
        <time>2021-07-23T12:24:18.246Z</time>
      </trkpt>
      <trkpt lat="40.059163" lon="-0.284160">
        <ele>424.1</ele>
        <time>2021-07-23T12:24:22.327Z</time>
      </trkpt>
      <trkpt lat="40.059137" lon="-0.283879">
        <ele>421.0</ele>
        <time>2021-07-23T12:24:26.706Z</time>
      </trkpt>
      <trkpt lat="40.059249" lon="-0.283701">
        <ele>418.5</ele>
        <time>2021-07-23T12:24:30.258Z</time>
      </trkpt>
      <trkpt lat="40.059726" lon="-0.284018">
        <ele>410.8</ele>
        <time>2021-07-23T12:24:41.049Z</time>
      </trkpt>
      <trkpt lat="40.059843" lon="-0.284043">
        <ele>409.1</ele>
        <time>2021-07-23T12:24:43.455Z</time>
      </trkpt>
      <trkpt lat="40.059999" lon="-0.283890">
        <ele>406.3</ele>
        <time>2021-07-23T12:24:47.415Z</time>
      </trkpt>
      <trkpt lat="40.060108" lon="-0.283640">
        <ele>403.1</ele>
        <time>2021-07-23T12:24:51.918Z</time>
      </trkpt>
      <trkpt lat="40.060355" lon="-0.283379">
        <ele>398.5</ele>
        <time>2021-07-23T12:24:58.389Z</time>
      </trkpt>
      <trkpt lat="40.060437" lon="-0.283155">
        <ele>395.8</ele>
        <time>2021-07-23T12:25:02.211Z</time>
      </trkpt>
      <trkpt lat="40.060796" lon="-0.283211">
        <ele>390.6</ele>
        <time>2021-07-23T12:25:09.586Z</time>
      </trkpt>
      <trkpt lat="40.060999" lon="-0.283359">
        <ele>387.5</ele>
        <time>2021-07-23T12:25:14.442Z</time>
      </trkpt>
      <trkpt lat="40.061452" lon="-0.283175">
        <ele>381.8</ele>
        <time>2021-07-23T12:25:24.239Z</time>
      </trkpt>
      <trkpt lat="40.061484" lon="-0.283078">
        <ele>380.8</ele>
        <time>2021-07-23T12:25:26.008Z</time>
      </trkpt>
      <trkpt lat="40.061422" lon="-0.282857">
        <ele>378.6</ele>
        <time>2021-07-23T12:25:29.801Z</time>
      </trkpt>
      <trkpt lat="40.061386" lon="-0.282825">
        <ele>378.1</ele>
        <time>2021-07-23T12:25:30.317Z</time>
      </trkpt>
      <trkpt lat="40.061358" lon="-0.282649">
        <ele>376.4</ele>
        <time>2021-07-23T12:25:32.104Z</time>
      </trkpt>
      <trkpt lat="40.061421" lon="-0.282488">
        <ele>374.8</ele>
        <time>2021-07-23T12:25:33.834Z</time>
      </trkpt>
      <trkpt lat="40.061572" lon="-0.282103">
        <ele>370.8</ele>
        <time>2021-07-23T12:25:37.962Z</time>
      </trkpt>
      <trkpt lat="40.061544" lon="-0.281891">
        <ele>368.8</ele>
        <time>2021-07-23T12:25:39.983Z</time>
      </trkpt>
      <trkpt lat="40.061779" lon="-0.281526">
        <ele>364.7</ele>
        <time>2021-07-23T12:25:44.525Z</time>
      </trkpt>
      <trkpt lat="40.061762" lon="-0.281323">
        <ele>363.1</ele>
        <time>2021-07-23T12:25:46.504Z</time>
      </trkpt>
      <trkpt lat="40.062114" lon="-0.279962">
        <ele>351.5</ele>
        <time>2021-07-23T12:26:00.449Z</time>
      </trkpt>
      <trkpt lat="40.062148" lon="-0.279408">
        <ele>347.1</ele>
        <time>2021-07-23T12:26:05.912Z</time>
      </trkpt>
      <trkpt lat="40.062248" lon="-0.279209">
        <ele>345.3</ele>
        <time>2021-07-23T12:26:08.255Z</time>
      </trkpt>
      <trkpt lat="40.062327" lon="-0.278655">
        <ele>341.1</ele>
        <time>2021-07-23T12:26:13.724Z</time>
      </trkpt>
      <trkpt lat="40.062327" lon="-0.277866">
        <ele>335.2</ele>
        <time>2021-07-23T12:26:21.443Z</time>
      </trkpt>
      <trkpt lat="40.062286" lon="-0.277591">
        <ele>333.1</ele>
        <time>2021-07-23T12:26:24.326Z</time>
      </trkpt>
      <trkpt lat="40.062327" lon="-0.277099">
        <ele>329.6</ele>
        <time>2021-07-23T12:26:29.150Z</time>
      </trkpt>
      <trkpt lat="40.062267" lon="-0.276982">
        <ele>328.7</ele>
        <time>2021-07-23T12:26:30.511Z</time>
      </trkpt>
      <trkpt lat="40.062286" lon="-0.276953">
        <ele>328.5</ele>
        <time>2021-07-23T12:26:30.834Z</time>
      </trkpt>
      <trkpt lat="40.062488" lon="-0.276016">
        <ele>322.4</ele>
        <time>2021-07-23T12:26:39.907Z</time>
      </trkpt>
      <trkpt lat="40.062730" lon="-0.275861">
        <ele>320.1</ele>
        <time>2021-07-23T12:26:43.331Z</time>
      </trkpt>
      <trkpt lat="40.062781" lon="-0.275756">
        <ele>319.3</ele>
        <time>2021-07-23T12:26:44.448Z</time>
      </trkpt>
      <trkpt lat="40.062805" lon="-0.275705">
        <ele>319.0</ele>
        <time>2021-07-23T12:26:44.972Z</time>
      </trkpt>
      <trkpt lat="40.062847" lon="-0.275490">
        <ele>317.6</ele>
        <time>2021-07-23T12:26:47.327Z</time>
      </trkpt>
      <trkpt lat="40.062824" lon="-0.275365">
        <ele>316.8</ele>
        <time>2021-07-23T12:26:48.518Z</time>
      </trkpt>
      <trkpt lat="40.062717" lon="-0.275258">
        <ele>315.7</ele>
        <time>2021-07-23T12:26:50.146Z</time>
      </trkpt>
      <trkpt lat="40.062674" lon="-0.275132">
        <ele>315.4</ele>
        <time>2021-07-23T12:26:51.762Z</time>
      </trkpt>
      <trkpt lat="40.062719" lon="-0.274950">
        <ele>315.0</ele>
        <time>2021-07-23T12:26:53.813Z</time>
      </trkpt>
      <trkpt lat="40.062800" lon="-0.274890">
        <ele>314.8</ele>
        <time>2021-07-23T12:26:54.941Z</time>
      </trkpt>
      <trkpt lat="40.062865" lon="-0.274895">
        <ele>314.6</ele>
        <time>2021-07-23T12:26:55.890Z</time>
      </trkpt>
      <trkpt lat="40.063428" lon="-0.274940">
        <ele>313.0</ele>
        <time>2021-07-23T12:27:04.048Z</time>
      </trkpt>
      <trkpt lat="40.063535" lon="-0.274975">
        <ele>312.7</ele>
        <time>2021-07-23T12:27:05.440Z</time>
      </trkpt>
      <trkpt lat="40.063583" lon="-0.274990">
        <ele>312.6</ele>
        <time>2021-07-23T12:27:06.263Z</time>
      </trkpt>
      <trkpt lat="40.064060" lon="-0.275561">
        <ele>310.7</ele>
        <time>2021-07-23T12:27:18.743Z</time>
      </trkpt>
      <trkpt lat="40.064166" lon="-0.275671">
        <ele>311.0</ele>
        <time>2021-07-23T12:27:21.423Z</time>
      </trkpt>
      <trkpt lat="40.064230" lon="-0.275709">
        <ele>311.2</ele>
        <time>2021-07-23T12:27:22.904Z</time>
      </trkpt>
      <trkpt lat="40.064222" lon="-0.275808">
        <ele>311.4</ele>
        <time>2021-07-23T12:27:26.749Z</time>
      </trkpt>
      <trkpt lat="40.064043" lon="-0.275983">
        <ele>311.9</ele>
        <time>2021-07-23T12:27:34.904Z</time>
      </trkpt>
      <trkpt lat="40.064003" lon="-0.276122">
        <ele>312.1</ele>
        <time>2021-07-23T12:27:40.078Z</time>
      </trkpt>
      <trkpt lat="40.064039" lon="-0.276254">
        <ele>312.3</ele>
        <time>2021-07-23T12:27:44.147Z</time>
      </trkpt>
      <trkpt lat="40.064204" lon="-0.276381">
        <ele>312.8</ele>
        <time>2021-07-23T12:27:52.182Z</time>
      </trkpt>
      <trkpt lat="40.064701" lon="-0.277274">
        <ele>314.7</ele>
        <time>2021-07-23T12:28:32.908Z</time>
      </trkpt>
      <trkpt lat="40.064910" lon="-0.278116">
        <ele>317.5</ele>
        <time>2021-07-23T12:29:07.139Z</time>
      </trkpt>
      <trkpt lat="40.065279" lon="-0.278273">
        <ele>319.2</ele>
        <time>2021-07-23T12:29:28.023Z</time>
      </trkpt>
      <trkpt lat="40.065331" lon="-0.278357">
        <ele>319.6</ele>
        <time>2021-07-23T12:29:32.532Z</time>
      </trkpt>
      <trkpt lat="40.065349" lon="-0.278612">
        <ele>320.5</ele>
        <time>2021-07-23T12:29:43.463Z</time>
      </trkpt>
      <trkpt lat="40.065490" lon="-0.279093">
        <ele>322.2</ele>
        <time>2021-07-23T12:30:05.919Z</time>
      </trkpt>
      <trkpt lat="40.065609" lon="-0.279306">
        <ele>323.2</ele>
        <time>2021-07-23T12:30:17.576Z</time>
      </trkpt>
      <trkpt lat="40.065690" lon="-0.279367">
        <ele>323.7</ele>
        <time>2021-07-23T12:30:22.965Z</time>
      </trkpt>
      <trkpt lat="40.065953" lon="-0.279325">
        <ele>325.2</ele>
        <time>2021-07-23T12:30:38.394Z</time>
      </trkpt>
      <trkpt lat="40.066209" lon="-0.279743">
        <ele>327.5</ele>
        <time>2021-07-23T12:31:02.619Z</time>
      </trkpt>
      <trkpt lat="40.066473" lon="-0.280021">
        <ele>329.4</ele>
        <time>2021-07-23T12:31:23.240Z</time>
      </trkpt>
      <trkpt lat="40.066807" lon="-0.280813">
        <ele>333.4</ele>
        <time>2021-07-23T12:32:06.358Z</time>
      </trkpt>
      <trkpt lat="40.067074" lon="-0.281034">
        <ele>335.4</ele>
        <time>2021-07-23T12:32:25.834Z</time>
      </trkpt>
      <trkpt lat="40.067128" lon="-0.281157">
        <ele>336.1</ele>
        <time>2021-07-23T12:32:32.570Z</time>
      </trkpt>
      <trkpt lat="40.067237" lon="-0.281791">
        <ele>339.3</ele>
        <time>2021-07-23T12:33:03.705Z</time>
      </trkpt>
      <trkpt lat="40.067316" lon="-0.281665">
        <ele>340.1</ele>
        <time>2021-07-23T12:33:11.553Z</time>
      </trkpt>
      <trkpt lat="40.067238" lon="-0.281395">
        <ele>341.5</ele>
        <time>2021-07-23T12:33:25.580Z</time>
      </trkpt>
      <trkpt lat="40.067336" lon="-0.280803">
        <ele>344.4</ele>
        <time>2021-07-23T12:33:55.804Z</time>
      </trkpt>
      <trkpt lat="40.067370" lon="-0.280711">
        <ele>345.0</ele>
        <time>2021-07-23T12:34:01.013Z</time>
      </trkpt>
      <trkpt lat="40.067480" lon="-0.280680">
        <ele>345.7</ele>
        <time>2021-07-23T12:34:08.674Z</time>
      </trkpt>
      <trkpt lat="40.067645" lon="-0.280752">
        <ele>346.9</ele>
        <time>2021-07-23T12:34:20.486Z</time>
      </trkpt>
      <trkpt lat="40.068002" lon="-0.281265">
        <ele>350.6</ele>
        <time>2021-07-23T12:34:56.536Z</time>
      </trkpt>
      <trkpt lat="40.067919" lon="-0.281848">
        <ele>353.8</ele>
        <time>2021-07-23T12:35:26.941Z</time>
      </trkpt>
      <trkpt lat="40.067969" lon="-0.281995">
        <ele>354.6</ele>
        <time>2021-07-23T12:35:35.097Z</time>
      </trkpt>
      <trkpt lat="40.068134" lon="-0.282120">
        <ele>355.9</ele>
        <time>2021-07-23T12:35:48.001Z</time>
      </trkpt>
      <trkpt lat="40.068406" lon="-0.282461">
        <ele>358.2</ele>
        <time>2021-07-23T12:36:12.652Z</time>
      </trkpt>
      <trkpt lat="40.068936" lon="-0.282085">
        <ele>361.5</ele>
        <time>2021-07-23T12:36:50.303Z</time>
      </trkpt>
      <trkpt lat="40.069073" lon="-0.282076">
        <ele>362.2</ele>
        <time>2021-07-23T12:36:58.284Z</time>
      </trkpt>
      <trkpt lat="40.069360" lon="-0.282179">
        <ele>363.9</ele>
        <time>2021-07-23T12:37:15.464Z</time>
      </trkpt>
      <trkpt lat="40.069549" lon="-0.282123">
        <ele>364.9</ele>
        <time>2021-07-23T12:37:26.255Z</time>
      </trkpt>
      <trkpt lat="40.070123" lon="-0.281802">
        <ele>368.0</ele>
        <time>2021-07-23T12:37:57.667Z</time>
      </trkpt>
      <trkpt lat="40.070180" lon="-0.281770">
        <ele>368.3</ele>
        <time>2021-07-23T12:38:01.692Z</time>
      </trkpt>
      <trkpt lat="40.070298" lon="-0.281751">
        <ele>368.8</ele>
        <time>2021-07-23T12:38:07.933Z</time>
      </trkpt>
      <trkpt lat="40.070638" lon="-0.281912">
        <ele>370.4</ele>
        <time>2021-07-23T12:38:27.337Z</time>
      </trkpt>
      <trkpt lat="40.071351" lon="-0.281908">
        <ele>373.6</ele>
        <time>2021-07-23T12:39:05.404Z</time>
      </trkpt>
      <trkpt lat="40.071481" lon="-0.281891">
        <ele>374.2</ele>
        <time>2021-07-23T12:39:11.930Z</time>
      </trkpt>
      <trkpt lat="40.071669" lon="-0.281967">
        <ele>375.1</ele>
        <time>2021-07-23T12:39:23.843Z</time>
      </trkpt>
      <trkpt lat="40.071729" lon="-0.282085">
        <ele>375.7</ele>
        <time>2021-07-23T12:39:29.483Z</time>
      </trkpt>
      <trkpt lat="40.072562" lon="-0.282899">
        <ele>380.9</ele>
        <time>2021-07-23T12:40:30.510Z</time>
      </trkpt>
      <trkpt lat="40.072772" lon="-0.283370">
        <ele>383.0</ele>
        <time>2021-07-23T12:40:55.299Z</time>
      </trkpt>
      <trkpt lat="40.072785" lon="-0.283794">
        <ele>384.4</ele>
        <time>2021-07-23T12:41:12.791Z</time>
      </trkpt>
      <trkpt lat="40.073212" lon="-0.284258">
        <ele>386.5</ele>
        <time>2021-07-23T12:41:41.153Z</time>
      </trkpt>
      <trkpt lat="40.073358" lon="-0.284723">
        <ele>387.9</ele>
        <time>2021-07-23T12:42:00.211Z</time>
      </trkpt>
      <trkpt lat="40.073392" lon="-0.284982">
        <ele>388.7</ele>
        <time>2021-07-23T12:42:09.962Z</time>
      </trkpt>
      <trkpt lat="40.073272" lon="-0.285344">
        <ele>389.8</ele>
        <time>2021-07-23T12:42:24.454Z</time>
      </trkpt>
      <trkpt lat="40.073273" lon="-0.285476">
        <ele>390.2</ele>
        <time>2021-07-23T12:42:29.135Z</time>
      </trkpt>
      <trkpt lat="40.073388" lon="-0.285569">
        <ele>390.8</ele>
        <time>2021-07-23T12:42:35.417Z</time>
      </trkpt>
      <trkpt lat="40.073648" lon="-0.285600">
        <ele>391.9</ele>
        <time>2021-07-23T12:42:47.827Z</time>
      </trkpt>
      <trkpt lat="40.074195" lon="-0.285803">
        <ele>394.3</ele>
        <time>2021-07-23T12:43:16.543Z</time>
      </trkpt>
      <trkpt lat="40.074404" lon="-0.286036">
        <ele>395.5</ele>
        <time>2021-07-23T12:43:31.560Z</time>
      </trkpt>
      <trkpt lat="40.074579" lon="-0.286535">
        <ele>397.3</ele>
        <time>2021-07-23T12:43:55.977Z</time>
      </trkpt>
      <trkpt lat="40.074728" lon="-0.286813">
        <ele>398.5</ele>
        <time>2021-07-23T12:44:11.525Z</time>
      </trkpt>
      <trkpt lat="40.075213" lon="-0.287274">
        <ele>401.2</ele>
        <time>2021-07-23T12:44:47.543Z</time>
      </trkpt>
      <trkpt lat="40.075317" lon="-0.287553">
        <ele>402.3</ele>
        <time>2021-07-23T12:45:01.560Z</time>
      </trkpt>
      <trkpt lat="40.075310" lon="-0.287696">
        <ele>402.8</ele>
        <time>2021-07-23T12:45:08.146Z</time>
      </trkpt>
      <trkpt lat="40.075146" lon="-0.288088">
        <ele>404.3</ele>
        <time>2021-07-23T12:45:27.220Z</time>
      </trkpt>
      <trkpt lat="40.075092" lon="-0.288331">
        <ele>405.2</ele>
        <time>2021-07-23T12:45:37.071Z</time>
      </trkpt>
      <trkpt lat="40.075101" lon="-0.288610">
        <ele>406.1</ele>
        <time>2021-07-23T12:45:47.439Z</time>
      </trkpt>
      <trkpt lat="40.075174" lon="-0.288954">
        <ele>405.8</ele>
        <time>2021-07-23T12:45:58.640Z</time>
      </trkpt>
      <trkpt lat="40.075378" lon="-0.289442">
        <ele>405.0</ele>
        <time>2021-07-23T12:46:12.187Z</time>
      </trkpt>
      <trkpt lat="40.075624" lon="-0.289881">
        <ele>404.2</ele>
        <time>2021-07-23T12:46:23.497Z</time>
      </trkpt>
      <trkpt lat="40.075912" lon="-0.290177">
        <ele>403.5</ele>
        <time>2021-07-23T12:46:32.729Z</time>
      </trkpt>
      <trkpt lat="40.075954" lon="-0.290337">
        <ele>403.3</ele>
        <time>2021-07-23T12:46:35.827Z</time>
      </trkpt>
      <trkpt lat="40.075783" lon="-0.290647">
        <ele>402.7</ele>
        <time>2021-07-23T12:46:42.553Z</time>
      </trkpt>
      <trkpt lat="40.075769" lon="-0.290868">
        <ele>402.2</ele>
        <time>2021-07-23T12:46:46.573Z</time>
      </trkpt>
      <trkpt lat="40.075838" lon="-0.291033">
        <ele>401.7</ele>
        <time>2021-07-23T12:46:50.036Z</time>
      </trkpt>
      <trkpt lat="40.076026" lon="-0.291194">
        <ele>401.1</ele>
        <time>2021-07-23T12:46:55.338Z</time>
      </trkpt>
      <trkpt lat="40.076593" lon="-0.291155">
        <ele>399.4</ele>
        <time>2021-07-23T12:47:09.468Z</time>
      </trkpt>
      <trkpt lat="40.076975" lon="-0.291006">
        <ele>398.2</ele>
        <time>2021-07-23T12:47:20.444Z</time>
      </trkpt>
      <trkpt lat="40.077162" lon="-0.291053">
        <ele>397.7</ele>
        <time>2021-07-23T12:47:27.954Z</time>
      </trkpt>
      <trkpt lat="40.077362" lon="-0.291278">
        <ele>398.9</ele>
        <time>2021-07-23T12:47:37.716Z</time>
      </trkpt>
      <trkpt lat="40.077564" lon="-0.292267">
        <ele>403.2</ele>
        <time>2021-07-23T12:48:21.102Z</time>
      </trkpt>
      <trkpt lat="40.077941" lon="-0.292919">
        <ele>406.6</ele>
        <time>2021-07-23T12:49:07.806Z</time>
      </trkpt>
      <trkpt lat="40.078055" lon="-0.293440">
        <ele>409.6</ele>
        <time>2021-07-23T12:49:39.984Z</time>
      </trkpt>
      <trkpt lat="40.078052" lon="-0.294178">
        <ele>414.0</ele>
        <time>2021-07-23T12:50:22.733Z</time>
      </trkpt>
      <trkpt lat="40.077888" lon="-0.295298">
        <ele>421.0</ele>
        <time>2021-07-23T12:51:23.196Z</time>
      </trkpt>
      <trkpt lat="40.077882" lon="-0.295837">
        <ele>423.3</ele>
        <time>2021-07-23T12:51:50.441Z</time>
      </trkpt>
      <trkpt lat="40.077819" lon="-0.296230">
        <ele>424.9</ele>
        <time>2021-07-23T12:52:09.146Z</time>
      </trkpt>
      <trkpt lat="40.077660" lon="-0.296541">
        <ele>426.4</ele>
        <time>2021-07-23T12:52:25.178Z</time>
      </trkpt>
      <trkpt lat="40.077343" lon="-0.296849">
        <ele>428.4</ele>
        <time>2021-07-23T12:52:46.562Z</time>
      </trkpt>
      <trkpt lat="40.077123" lon="-0.297014">
        <ele>429.7</ele>
        <time>2021-07-23T12:52:59.599Z</time>
      </trkpt>
      <trkpt lat="40.076996" lon="-0.297128">
        <ele>430.5</ele>
        <time>2021-07-23T12:53:07.866Z</time>
      </trkpt>
      <trkpt lat="40.076808" lon="-0.297196">
        <ele>431.3</ele>
        <time>2021-07-23T12:53:17.461Z</time>
      </trkpt>
      <trkpt lat="40.076645" lon="-0.297434">
        <ele>432.1</ele>
        <time>2021-07-23T12:53:29.898Z</time>
      </trkpt>
      <trkpt lat="40.076399" lon="-0.297616">
        <ele>433.0</ele>
        <time>2021-07-23T12:53:44.064Z</time>
      </trkpt>
      <trkpt lat="40.076321" lon="-0.297873">
        <ele>433.7</ele>
        <time>2021-07-23T12:53:54.092Z</time>
      </trkpt>
      <trkpt lat="40.076306" lon="-0.298152">
        <ele>434.4</ele>
        <time>2021-07-23T12:54:04.753Z</time>
      </trkpt>
      <trkpt lat="40.076343" lon="-0.298323">
        <ele>434.8</ele>
        <time>2021-07-23T12:54:11.229Z</time>
      </trkpt>
      <trkpt lat="40.076436" lon="-0.298461">
        <ele>435.3</ele>
        <time>2021-07-23T12:54:18.174Z</time>
      </trkpt>
      <trkpt lat="40.076679" lon="-0.298604">
        <ele>436.2</ele>
        <time>2021-07-23T12:54:29.467Z</time>
      </trkpt>
      <trkpt lat="40.076688" lon="-0.298799">
        <ele>436.7</ele>
        <time>2021-07-23T12:54:35.911Z</time>
      </trkpt>
      <trkpt lat="40.075918" lon="-0.300435">
        <ele>440.9</ele>
        <time>2021-07-23T12:55:44.237Z</time>
      </trkpt>
      <trkpt lat="40.075961" lon="-0.300627">
        <ele>441.3</ele>
        <time>2021-07-23T12:55:51.165Z</time>
      </trkpt>
      <trkpt lat="40.076103" lon="-0.300867">
        <ele>442.0</ele>
        <time>2021-07-23T12:56:01.549Z</time>
      </trkpt>
      <trkpt lat="40.076447" lon="-0.302852">
        <ele>446.7</ele>
        <time>2021-07-23T12:57:13.796Z</time>
      </trkpt>
      <trkpt lat="40.076375" lon="-0.303134">
        <ele>447.4</ele>
        <time>2021-07-23T12:57:24.645Z</time>
      </trkpt>
      <trkpt lat="40.076140" lon="-0.303564">
        <ele>449.8</ele>
        <time>2021-07-23T12:57:44.925Z</time>
      </trkpt>
      <trkpt lat="40.075829" lon="-0.303875">
        <ele>452.1</ele>
        <time>2021-07-23T12:58:06.518Z</time>
      </trkpt>
      <trkpt lat="40.075833" lon="-0.304009">
        <ele>452.7</ele>
        <time>2021-07-23T12:58:12.587Z</time>
      </trkpt>
      <trkpt lat="40.075961" lon="-0.304000">
        <ele>453.5</ele>
        <time>2021-07-23T12:58:20.052Z</time>
      </trkpt>
      <trkpt lat="40.076550" lon="-0.303522">
        <ele>457.6</ele>
        <time>2021-07-23T12:59:05.253Z</time>
      </trkpt>
      <trkpt lat="40.077570" lon="-0.302365">
        <ele>473.8</ele>
        <time>2021-07-23T13:01:03.631Z</time>
      </trkpt>
      <trkpt lat="40.077724" lon="-0.302295">
        <ele>475.8</ele>
        <time>2021-07-23T13:01:20.983Z</time>
      </trkpt>
      <trkpt lat="40.077861" lon="-0.302326">
        <ele>477.6</ele>
        <time>2021-07-23T13:01:36.423Z</time>
      </trkpt>
      <trkpt lat="40.077993" lon="-0.302508">
        <ele>480.0</ele>
        <time>2021-07-23T13:01:58.286Z</time>
      </trkpt>
      <trkpt lat="40.078027" lon="-0.302706">
        <ele>482.5</ele>
        <time>2021-07-23T13:02:16.457Z</time>
      </trkpt>
      <trkpt lat="40.077797" lon="-0.303778">
        <ele>497.9</ele>
        <time>2021-07-23T13:04:01.443Z</time>
      </trkpt>
      <trkpt lat="40.077724" lon="-0.304413">
        <ele>506.7</ele>
        <time>2021-07-23T13:05:04.994Z</time>
      </trkpt>
      <trkpt lat="40.077753" lon="-0.304547">
        <ele>508.6</ele>
        <time>2021-07-23T13:05:18.716Z</time>
      </trkpt>
      <trkpt lat="40.077922" lon="-0.304580">
        <ele>511.7</ele>
        <time>2021-07-23T13:05:40.126Z</time>
      </trkpt>
      <trkpt lat="40.078146" lon="-0.304461">
        <ele>515.6</ele>
        <time>2021-07-23T13:06:09.753Z</time>
      </trkpt>
      <trkpt lat="40.078298" lon="-0.304469">
        <ele>518.0</ele>
        <time>2021-07-23T13:06:27.878Z</time>
      </trkpt>
      <trkpt lat="40.078635" lon="-0.305017">
        <ele>526.4</ele>
        <time>2021-07-23T13:07:30.040Z</time>
      </trkpt>
      <trkpt lat="40.078691" lon="-0.305516">
        <ele>532.5</ele>
        <time>2021-07-23T13:08:11.733Z</time>
      </trkpt>
      <trkpt lat="40.078568" lon="-0.305771">
        <ele>536.1</ele>
        <time>2021-07-23T13:08:35.408Z</time>
      </trkpt>
      <trkpt lat="40.078313" lon="-0.306047">
        <ele>541.2</ele>
        <time>2021-07-23T13:09:08.159Z</time>
      </trkpt>
      <trkpt lat="40.077352" lon="-0.306344">
        <ele>553.3</ele>
        <time>2021-07-23T13:10:39.438Z</time>
      </trkpt>
      <trkpt lat="40.077049" lon="-0.306507">
        <ele>557.3</ele>
        <time>2021-07-23T13:11:08.792Z</time>
      </trkpt>
      <trkpt lat="40.076936" lon="-0.306683">
        <ele>559.4</ele>
        <time>2021-07-23T13:11:24.710Z</time>
      </trkpt>
      <trkpt lat="40.076801" lon="-0.307506">
        <ele>567.6</ele>
        <time>2021-07-23T13:12:24.641Z</time>
      </trkpt>
      <trkpt lat="40.076565" lon="-0.308249">
        <ele>575.5</ele>
        <time>2021-07-23T13:13:22.832Z</time>
      </trkpt>
      <trkpt lat="40.076523" lon="-0.308526">
        <ele>578.3</ele>
        <time>2021-07-23T13:13:43.237Z</time>
      </trkpt>
      <trkpt lat="40.076622" lon="-0.308995">
        <ele>583.2</ele>
        <time>2021-07-23T13:14:18.245Z</time>
      </trkpt>
      <trkpt lat="40.076742" lon="-0.309190">
        <ele>585.6</ele>
        <time>2021-07-23T13:14:35.960Z</time>
      </trkpt>
      <trkpt lat="40.077025" lon="-0.309465">
        <ele>591.3</ele>
        <time>2021-07-23T13:15:16.386Z</time>
      </trkpt>
      <trkpt lat="40.077406" lon="-0.310204">
        <ele>602.5</ele>
        <time>2021-07-23T13:16:35.640Z</time>
      </trkpt>
      <trkpt lat="40.077410" lon="-0.310390">
        <ele>604.9</ele>
        <time>2021-07-23T13:16:51.750Z</time>
      </trkpt>
      <trkpt lat="40.077263" lon="-0.310688">
        <ele>609.4</ele>
        <time>2021-07-23T13:17:23.054Z</time>
      </trkpt>
      <trkpt lat="40.077144" lon="-0.310740">
        <ele>611.4</ele>
        <time>2021-07-23T13:17:38.831Z</time>
      </trkpt>
      <trkpt lat="40.077006" lon="-0.310898">
        <ele>614.5</ele>
        <time>2021-07-23T13:18:01.016Z</time>
      </trkpt>
      <trkpt lat="40.076776" lon="-0.311278">
        <ele>620.8</ele>
        <time>2021-07-23T13:18:45.602Z</time>
      </trkpt>
      <trkpt lat="40.076522" lon="-0.311828">
        <ele>629.3</ele>
        <time>2021-07-23T13:19:46.049Z</time>
      </trkpt>
      <trkpt lat="40.076306" lon="-0.312468">
        <ele>638.5</ele>
        <time>2021-07-23T13:20:53.247Z</time>
      </trkpt>
      <trkpt lat="40.076354" lon="-0.313290">
        <ele>648.8</ele>
        <time>2021-07-23T13:22:02.741Z</time>
      </trkpt>
      <trkpt lat="40.076230" lon="-0.314614">
        <ele>662.3</ele>
        <time>2021-07-23T13:23:45.569Z</time>
      </trkpt>
      <trkpt lat="40.076281" lon="-0.314859">
        <ele>664.9</ele>
        <time>2021-07-23T13:24:03.913Z</time>
      </trkpt>
      <trkpt lat="40.076299" lon="-0.314947">
        <ele>665.8</ele>
        <time>2021-07-23T13:24:10.874Z</time>
      </trkpt>
      <trkpt lat="40.076210" lon="-0.315408">
        <ele>670.6</ele>
        <time>2021-07-23T13:24:42.876Z</time>
      </trkpt>
      <trkpt lat="40.076160" lon="-0.315487">
        <ele>671.4</ele>
        <time>2021-07-23T13:24:48.834Z</time>
      </trkpt>
      <trkpt lat="40.075724" lon="-0.315556">
        <ele>675.6</ele>
        <time>2021-07-23T13:25:25.967Z</time>
      </trkpt>
      <trkpt lat="40.075634" lon="-0.315707">
        <ele>677.0</ele>
        <time>2021-07-23T13:25:38.712Z</time>
      </trkpt>
      <trkpt lat="40.075464" lon="-0.316324">
        <ele>681.8</ele>
        <time>2021-07-23T13:26:18.803Z</time>
      </trkpt>
      <trkpt lat="40.075211" lon="-0.316651">
        <ele>685.2</ele>
        <time>2021-07-23T13:26:44.414Z</time>
      </trkpt>
      <trkpt lat="40.075080" lon="-0.316689">
        <ele>686.5</ele>
        <time>2021-07-23T13:26:53.747Z</time>
      </trkpt>
      <trkpt lat="40.074909" lon="-0.316645">
        <ele>688.1</ele>
        <time>2021-07-23T13:27:07.066Z</time>
      </trkpt>
      <trkpt lat="40.074706" lon="-0.316723">
        <ele>689.9</ele>
        <time>2021-07-23T13:27:21.776Z</time>
      </trkpt>
      <trkpt lat="40.074500" lon="-0.316674">
        <ele>691.6</ele>
        <time>2021-07-23T13:27:38.333Z</time>
      </trkpt>
      <trkpt lat="40.074275" lon="-0.315986">
        <ele>696.3</ele>
        <time>2021-07-23T13:28:18.259Z</time>
      </trkpt>
      <trkpt lat="40.074275" lon="-0.315986">
        <ele>696.3</ele>
        <time>2021-07-23T13:28:18.310Z</time>
      </trkpt>
      <trkpt lat="40.074275" lon="-0.315986">
        <ele>696.3</ele>
        <time>2021-07-23T13:28:18.314Z</time>
      </trkpt>
      <trkpt lat="40.074327" lon="-0.315941">
        <ele>696.8</ele>
        <time>2021-07-23T13:28:20.994Z</time>
      </trkpt>
      <trkpt lat="40.074291" lon="-0.315901">
        <ele>697.2</ele>
        <time>2021-07-23T13:28:23.040Z</time>
      </trkpt>
      <trkpt lat="40.074248" lon="-0.315955">
        <ele>697.7</ele>
        <time>2021-07-23T13:28:25.597Z</time>
      </trkpt>
      <trkpt lat="40.074235" lon="-0.316016">
        <ele>698.1</ele>
        <time>2021-07-23T13:28:27.676Z</time>
      </trkpt>
      <trkpt lat="40.074233" lon="-0.316104">
        <ele>698.7</ele>
        <time>2021-07-23T13:28:30.568Z</time>
      </trkpt>
      <trkpt lat="40.074218" lon="-0.316206">
        <ele>699.3</ele>
        <time>2021-07-23T13:28:33.980Z</time>
      </trkpt>
      <trkpt lat="40.074202" lon="-0.316319">
        <ele>700.0</ele>
        <time>2021-07-23T13:28:37.776Z</time>
      </trkpt>
      <trkpt lat="40.074173" lon="-0.316427">
        <ele>700.7</ele>
        <time>2021-07-23T13:28:41.540Z</time>
      </trkpt>
      <trkpt lat="40.074164" lon="-0.316508">
        <ele>701.3</ele>
        <time>2021-07-23T13:28:44.227Z</time>
      </trkpt>
      <trkpt lat="40.074145" lon="-0.316579">
        <ele>701.7</ele>
        <time>2021-07-23T13:28:46.695Z</time>
      </trkpt>
      <trkpt lat="40.074073" lon="-0.316551">
        <ele>702.4</ele>
        <time>2021-07-23T13:28:49.910Z</time>
      </trkpt>
      <trkpt lat="40.074051" lon="-0.316477">
        <ele>702.8</ele>
        <time>2021-07-23T13:28:52.528Z</time>
      </trkpt>
      <trkpt lat="40.074054" lon="-0.316378">
        <ele>703.4</ele>
        <time>2021-07-23T13:28:55.803Z</time>
      </trkpt>
      <trkpt lat="40.074053" lon="-0.316273">
        <ele>704.0</ele>
        <time>2021-07-23T13:28:59.250Z</time>
      </trkpt>
      <trkpt lat="40.074048" lon="-0.316179">
        <ele>704.6</ele>
        <time>2021-07-23T13:29:02.343Z</time>
      </trkpt>
      <trkpt lat="40.074053" lon="-0.316114">
        <ele>705.0</ele>
        <time>2021-07-23T13:29:04.487Z</time>
      </trkpt>
      <trkpt lat="40.074008" lon="-0.316084">
        <ele>705.4</ele>
        <time>2021-07-23T13:29:06.654Z</time>
      </trkpt>
      <trkpt lat="40.073960" lon="-0.316115">
        <ele>705.8</ele>
        <time>2021-07-23T13:29:08.967Z</time>
      </trkpt>
      <trkpt lat="40.073941" lon="-0.316184">
        <ele>706.2</ele>
        <time>2021-07-23T13:29:11.387Z</time>
      </trkpt>
      <trkpt lat="40.073939" lon="-0.316285">
        <ele>706.8</ele>
        <time>2021-07-23T13:29:14.703Z</time>
      </trkpt>
      <trkpt lat="40.073915" lon="-0.316395">
        <ele>707.5</ele>
        <time>2021-07-23T13:29:18.457Z</time>
      </trkpt>
      <trkpt lat="40.073888" lon="-0.316499">
        <ele>708.1</ele>
        <time>2021-07-23T13:29:22.067Z</time>
      </trkpt>
      <trkpt lat="40.073829" lon="-0.316483">
        <ele>708.6</ele>
        <time>2021-07-23T13:29:24.657Z</time>
      </trkpt>
      <trkpt lat="40.073678" lon="-0.317425">
        <ele>714.2</ele>
        <time>2021-07-23T13:30:15.508Z</time>
      </trkpt>
      <trkpt lat="40.073678" lon="-0.317425">
        <ele>714.2</ele>
        <time>2021-07-23T13:30:15.605Z</time>
      </trkpt>
      <trkpt lat="40.073678" lon="-0.317425">
        <ele>714.2</ele>
        <time>2021-07-23T13:30:15.614Z</time>
      </trkpt>
      <trkpt lat="40.073678" lon="-0.317425">
        <ele>714.2</ele>
        <time>2021-07-23T13:30:15.618Z</time>
      </trkpt>
      <trkpt lat="40.073742" lon="-0.317443">
        <ele>714.7</ele>
        <time>2021-07-23T13:30:18.418Z</time>
      </trkpt>
      <trkpt lat="40.073726" lon="-0.317531">
        <ele>715.2</ele>
        <time>2021-07-23T13:30:21.387Z</time>
      </trkpt>
      <trkpt lat="40.073732" lon="-0.317630">
        <ele>715.8</ele>
        <time>2021-07-23T13:30:24.647Z</time>
      </trkpt>
      <trkpt lat="40.073746" lon="-0.317733">
        <ele>716.4</ele>
        <time>2021-07-23T13:30:28.083Z</time>
      </trkpt>
      <trkpt lat="40.073754" lon="-0.317807">
        <ele>716.9</ele>
        <time>2021-07-23T13:30:30.551Z</time>
      </trkpt>
      <trkpt lat="40.073731" lon="-0.317876">
        <ele>717.3</ele>
        <time>2021-07-23T13:30:33.029Z</time>
      </trkpt>
      <trkpt lat="40.073686" lon="-0.317898">
        <ele>717.6</ele>
        <time>2021-07-23T13:30:35.084Z</time>
      </trkpt>
      <trkpt lat="40.073608" lon="-0.317840">
        <ele>718.3</ele>
        <time>2021-07-23T13:30:38.932Z</time>
      </trkpt>
      <trkpt lat="40.073608" lon="-0.317753">
        <ele>718.8</ele>
        <time>2021-07-23T13:30:41.789Z</time>
      </trkpt>
      <trkpt lat="40.073604" lon="-0.317638">
        <ele>719.4</ele>
        <time>2021-07-23T13:30:45.581Z</time>
      </trkpt>
      <trkpt lat="40.073603" lon="-0.317539">
        <ele>719.9</ele>
        <time>2021-07-23T13:30:48.839Z</time>
      </trkpt>
      <trkpt lat="40.073557" lon="-0.317461">
        <ele>720.5</ele>
        <time>2021-07-23T13:30:52.067Z</time>
      </trkpt>
      <trkpt lat="40.073465" lon="-0.317457">
        <ele>721.2</ele>
        <time>2021-07-23T13:30:56.011Z</time>
      </trkpt>
      <trkpt lat="40.073416" lon="-0.317496">
        <ele>721.6</ele>
        <time>2021-07-23T13:30:58.465Z</time>
      </trkpt>
      <trkpt lat="40.073361" lon="-0.317552">
        <ele>722.1</ele>
        <time>2021-07-23T13:31:01.451Z</time>
      </trkpt>
      <trkpt lat="40.073314" lon="-0.317638">
        <ele>722.7</ele>
        <time>2021-07-23T13:31:04.924Z</time>
      </trkpt>
      <trkpt lat="40.073264" lon="-0.317742">
        <ele>723.3</ele>
        <time>2021-07-23T13:31:08.961Z</time>
      </trkpt>
      <trkpt lat="40.073209" lon="-0.317841">
        <ele>724.0</ele>
        <time>2021-07-23T13:31:12.974Z</time>
      </trkpt>
      <trkpt lat="40.073174" lon="-0.317925">
        <ele>724.6</ele>
        <time>2021-07-23T13:31:16.113Z</time>
      </trkpt>
      <trkpt lat="40.073146" lon="-0.317992">
        <ele>725.0</ele>
        <time>2021-07-23T13:31:18.629Z</time>
      </trkpt>
      <trkpt lat="40.073177" lon="-0.317994">
        <ele>725.2</ele>
        <time>2021-07-23T13:31:19.970Z</time>
      </trkpt>
      <trkpt lat="40.073173" lon="-0.318095">
        <ele>725.8</ele>
        <time>2021-07-23T13:31:24.625Z</time>
      </trkpt>
      <trkpt lat="40.073264" lon="-0.318341">
        <ele>727.3</ele>
        <time>2021-07-23T13:31:39.575Z</time>
      </trkpt>
      <trkpt lat="40.073381" lon="-0.318457">
        <ele>728.4</ele>
        <time>2021-07-23T13:31:48.686Z</time>
      </trkpt>
      <trkpt lat="40.073397" lon="-0.318490">
        <ele>728.6</ele>
        <time>2021-07-23T13:31:52.529Z</time>
      </trkpt>
      <trkpt lat="40.073465" lon="-0.318632">
        <ele>729.5</ele>
        <time>2021-07-23T13:32:00.800Z</time>
      </trkpt>
      <trkpt lat="40.073583" lon="-0.318713">
        <ele>730.5</ele>
        <time>2021-07-23T13:32:09.187Z</time>
      </trkpt>
      <trkpt lat="40.074147" lon="-0.318808">
        <ele>734.6</ele>
        <time>2021-07-23T13:32:48.835Z</time>
      </trkpt>
      <trkpt lat="40.074470" lon="-0.318966">
        <ele>737.1</ele>
        <time>2021-07-23T13:33:12.618Z</time>
      </trkpt>
      <trkpt lat="40.074751" lon="-0.319023">
        <ele>739.2</ele>
        <time>2021-07-23T13:33:34.536Z</time>
      </trkpt>
      <trkpt lat="40.075069" lon="-0.319295">
        <ele>741.9</ele>
        <time>2021-07-23T13:33:59.918Z</time>
      </trkpt>
      <trkpt lat="40.075254" lon="-0.319688">
        <ele>743.5</ele>
        <time>2021-07-23T13:34:21.426Z</time>
      </trkpt>
      <trkpt lat="40.075377" lon="-0.320307">
        <ele>745.0</ele>
        <time>2021-07-23T13:34:48.862Z</time>
      </trkpt>
      <trkpt lat="40.075518" lon="-0.320660">
        <ele>746.0</ele>
        <time>2021-07-23T13:35:03.818Z</time>
      </trkpt>
      <trkpt lat="40.075404" lon="-0.320701">
        <ele>746.4</ele>
        <time>2021-07-23T13:35:07.942Z</time>
      </trkpt>
      <trkpt lat="40.075360" lon="-0.320772">
        <ele>746.6</ele>
        <time>2021-07-23T13:35:10.649Z</time>
      </trkpt>
      <trkpt lat="40.075298" lon="-0.320789">
        <ele>746.8</ele>
        <time>2021-07-23T13:35:11.612Z</time>
      </trkpt>
      <trkpt lat="40.074201" lon="-0.321052">
        <ele>747.5</ele>
        <time>2021-07-23T13:35:33.872Z</time>
      </trkpt>
      <trkpt lat="40.074096" lon="-0.321011">
        <ele>747.4</ele>
        <time>2021-07-23T13:35:35.749Z</time>
      </trkpt>
      <trkpt lat="40.073971" lon="-0.320962">
        <ele>747.2</ele>
        <time>2021-07-23T13:35:37.713Z</time>
      </trkpt>
      <trkpt lat="40.073365" lon="-0.320529">
        <ele>746.2</ele>
        <time>2021-07-23T13:35:47.713Z</time>
      </trkpt>
      <trkpt lat="40.073014" lon="-0.320483">
        <ele>745.8</ele>
        <time>2021-07-23T13:35:53.188Z</time>
      </trkpt>
      <trkpt lat="40.072895" lon="-0.320509">
        <ele>745.7</ele>
        <time>2021-07-23T13:35:55.077Z</time>
      </trkpt>
      <trkpt lat="40.072806" lon="-0.320547">
        <ele>745.6</ele>
        <time>2021-07-23T13:35:56.591Z</time>
      </trkpt>
      <trkpt lat="40.072073" lon="-0.321252">
        <ele>745.0</ele>
        <time>2021-07-23T13:36:12.522Z</time>
      </trkpt>
      <trkpt lat="40.071095" lon="-0.322009">
        <ele>744.2</ele>
        <time>2021-07-23T13:36:35.932Z</time>
      </trkpt>
      <trkpt lat="40.070899" lon="-0.322154">
        <ele>744.0</ele>
        <time>2021-07-23T13:36:40.855Z</time>
      </trkpt>
      <trkpt lat="40.069682" lon="-0.323092">
        <ele>741.2</ele>
        <time>2021-07-23T13:37:03.590Z</time>
      </trkpt>
      <trkpt lat="40.068842" lon="-0.323630">
        <ele>736.8</ele>
        <time>2021-07-23T13:37:16.023Z</time>
      </trkpt>
      <trkpt lat="40.068566" lon="-0.323731">
        <ele>735.4</ele>
        <time>2021-07-23T13:37:19.680Z</time>
      </trkpt>
      <trkpt lat="40.068199" lon="-0.323740">
        <ele>733.0</ele>
        <time>2021-07-23T13:37:24.272Z</time>
      </trkpt>
      <trkpt lat="40.068060" lon="-0.323827">
        <ele>731.8</ele>
        <time>2021-07-23T13:37:26.172Z</time>
      </trkpt>
      <trkpt lat="40.067853" lon="-0.324443">
        <ele>727.8</ele>
        <time>2021-07-23T13:37:32.550Z</time>
      </trkpt>
      <trkpt lat="40.067445" lon="-0.324893">
        <ele>723.6</ele>
        <time>2021-07-23T13:37:39.105Z</time>
      </trkpt>
      <trkpt lat="40.067063" lon="-0.325517">
        <ele>719.0</ele>
        <time>2021-07-23T13:37:46.632Z</time>
      </trkpt>
      <trkpt lat="40.066984" lon="-0.325843">
        <ele>717.3</ele>
        <time>2021-07-23T13:37:49.869Z</time>
      </trkpt>
      <trkpt lat="40.066814" lon="-0.327236">
        <ele>710.3</ele>
        <time>2021-07-23T13:38:03.585Z</time>
      </trkpt>
      <trkpt lat="40.066659" lon="-0.327544">
        <ele>708.7</ele>
        <time>2021-07-23T13:38:07.449Z</time>
      </trkpt>
      <trkpt lat="40.066178" lon="-0.328167">
        <ele>707.9</ele>
        <time>2021-07-23T13:38:17.423Z</time>
      </trkpt>
      <trkpt lat="40.066223" lon="-0.328214">
        <ele>707.8</ele>
        <time>2021-07-23T13:38:20.350Z</time>
      </trkpt>
      <trkpt lat="40.066693" lon="-0.328453">
        <ele>707.2</ele>
        <time>2021-07-23T13:38:35.459Z</time>
      </trkpt>
      <trkpt lat="40.067236" lon="-0.328817">
        <ele>706.7</ele>
        <time>2021-07-23T13:38:58.890Z</time>
      </trkpt>
      <trkpt lat="40.068367" lon="-0.329834">
        <ele>707.2</ele>
        <time>2021-07-23T13:39:50.282Z</time>
      </trkpt>
      <trkpt lat="40.068612" lon="-0.330153">
        <ele>707.3</ele>
        <time>2021-07-23T13:40:00.132Z</time>
      </trkpt>
      <trkpt lat="40.068679" lon="-0.330898">
        <ele>705.6</ele>
        <time>2021-07-23T13:40:16.078Z</time>
      </trkpt>
      <trkpt lat="40.068685" lon="-0.330981">
        <ele>705.4</ele>
        <time>2021-07-23T13:40:17.553Z</time>
      </trkpt>
      <trkpt lat="40.068692" lon="-0.331123">
        <ele>705.1</ele>
        <time>2021-07-23T13:40:20.345Z</time>
      </trkpt>
      <trkpt lat="40.068652" lon="-0.331482">
        <ele>704.2</ele>
        <time>2021-07-23T13:40:27.516Z</time>
      </trkpt>
      <trkpt lat="40.068578" lon="-0.331674">
        <ele>703.7</ele>
        <time>2021-07-23T13:40:31.757Z</time>
      </trkpt>
      <trkpt lat="40.068403" lon="-0.331747">
        <ele>703.2</ele>
        <time>2021-07-23T13:40:36.258Z</time>
      </trkpt>
      <trkpt lat="40.068045" lon="-0.331603">
        <ele>702.0</ele>
        <time>2021-07-23T13:40:45.522Z</time>
      </trkpt>
      <trkpt lat="40.067976" lon="-0.331621">
        <ele>701.8</ele>
        <time>2021-07-23T13:40:47.217Z</time>
      </trkpt>
      <trkpt lat="40.067829" lon="-0.331770">
        <ele>700.9</ele>
        <time>2021-07-23T13:40:51.922Z</time>
      </trkpt>
      <trkpt lat="40.067622" lon="-0.332156">
        <ele>699.4</ele>
        <time>2021-07-23T13:41:00.634Z</time>
      </trkpt>
      <trkpt lat="40.067593" lon="-0.332295">
        <ele>698.9</ele>
        <time>2021-07-23T13:41:03.465Z</time>
      </trkpt>
      <trkpt lat="40.067672" lon="-0.332635">
        <ele>697.7</ele>
        <time>2021-07-23T13:41:10.307Z</time>
      </trkpt>
      <trkpt lat="40.067649" lon="-0.333046">
        <ele>696.3</ele>
        <time>2021-07-23T13:41:18.225Z</time>
      </trkpt>
      <trkpt lat="40.067694" lon="-0.333238">
        <ele>695.7</ele>
        <time>2021-07-23T13:41:22.078Z</time>
      </trkpt>
      <trkpt lat="40.067814" lon="-0.333530">
        <ele>694.6</ele>
        <time>2021-07-23T13:41:28.276Z</time>
      </trkpt>
      <trkpt lat="40.067409" lon="-0.333873">
        <ele>691.5</ele>
        <time>2021-07-23T13:41:39.897Z</time>
      </trkpt>
      <trkpt lat="40.067239" lon="-0.333922">
        <ele>690.3</ele>
        <time>2021-07-23T13:41:43.992Z</time>
      </trkpt>
      <trkpt lat="40.067134" lon="-0.334102">
        <ele>689.1</ele>
        <time>2021-07-23T13:41:48.046Z</time>
      </trkpt>
      <trkpt lat="40.067054" lon="-0.334449">
        <ele>687.2</ele>
        <time>2021-07-23T13:41:54.414Z</time>
      </trkpt>
      <trkpt lat="40.066931" lon="-0.334572">
        <ele>686.1</ele>
        <time>2021-07-23T13:41:57.936Z</time>
      </trkpt>
      <trkpt lat="40.066713" lon="-0.335285">
        <ele>682.1</ele>
        <time>2021-07-23T13:42:10.989Z</time>
      </trkpt>
      <trkpt lat="40.066533" lon="-0.335272">
        <ele>680.4</ele>
        <time>2021-07-23T13:42:14.909Z</time>
      </trkpt>
      <trkpt lat="40.066196" lon="-0.335545">
        <ele>676.2</ele>
        <time>2021-07-23T13:42:23.422Z</time>
      </trkpt>
      <trkpt lat="40.065964" lon="-0.335960">
        <ele>672.1</ele>
        <time>2021-07-23T13:42:31.778Z</time>
      </trkpt>
      <trkpt lat="40.065703" lon="-0.336115">
        <ele>669.0</ele>
        <time>2021-07-23T13:42:37.807Z</time>
      </trkpt>
      <trkpt lat="40.065532" lon="-0.336152">
        <ele>667.2</ele>
        <time>2021-07-23T13:42:41.450Z</time>
      </trkpt>
      <trkpt lat="40.065414" lon="-0.336337">
        <ele>665.3</ele>
        <time>2021-07-23T13:42:45.341Z</time>
      </trkpt>
      <trkpt lat="40.065362" lon="-0.336573">
        <ele>663.3</ele>
        <time>2021-07-23T13:42:49.296Z</time>
      </trkpt>
      <trkpt lat="40.065144" lon="-0.336864">
        <ele>660.2</ele>
        <time>2021-07-23T13:42:55.868Z</time>
      </trkpt>
      <trkpt lat="40.065016" lon="-0.336876">
        <ele>658.9</ele>
        <time>2021-07-23T13:42:58.566Z</time>
      </trkpt>
      <trkpt lat="40.064841" lon="-0.336759">
        <ele>657.0</ele>
        <time>2021-07-23T13:43:02.735Z</time>
      </trkpt>
      <trkpt lat="40.064324" lon="-0.336660">
        <ele>651.9</ele>
        <time>2021-07-23T13:43:13.864Z</time>
      </trkpt>
      <trkpt lat="40.063727" lon="-0.336300">
        <ele>645.5</ele>
        <time>2021-07-23T13:43:28.266Z</time>
      </trkpt>
      <trkpt lat="40.063419" lon="-0.336319">
        <ele>643.9</ele>
        <time>2021-07-23T13:43:35.242Z</time>
      </trkpt>
      <trkpt lat="40.063144" lon="-0.336127">
        <ele>642.5</ele>
        <time>2021-07-23T13:43:42.478Z</time>
      </trkpt>
      <trkpt lat="40.063044" lon="-0.336282">
        <ele>641.8</ele>
        <time>2021-07-23T13:43:46.152Z</time>
      </trkpt>
      <trkpt lat="40.062712" lon="-0.336269">
        <ele>640.3</ele>
        <time>2021-07-23T13:43:54.256Z</time>
      </trkpt>
      <trkpt lat="40.062499" lon="-0.336369">
        <ele>639.3</ele>
        <time>2021-07-23T13:44:00.009Z</time>
      </trkpt>
      <trkpt lat="40.062001" lon="-0.336882">
        <ele>637.3</ele>
        <time>2021-07-23T13:44:17.597Z</time>
      </trkpt>
      <trkpt lat="40.061916" lon="-0.337130">
        <ele>637.6</ele>
        <time>2021-07-23T13:44:24.122Z</time>
      </trkpt>
      <trkpt lat="40.061741" lon="-0.337376">
        <ele>638.1</ele>
        <time>2021-07-23T13:44:33.375Z</time>
      </trkpt>
      <trkpt lat="40.061660" lon="-0.337624">
        <ele>638.4</ele>
        <time>2021-07-23T13:44:41.597Z</time>
      </trkpt>
      <trkpt lat="40.061409" lon="-0.337810">
        <ele>638.9</ele>
        <time>2021-07-23T13:44:54.317Z</time>
      </trkpt>
      <trkpt lat="40.061238" lon="-0.338039">
        <ele>639.3</ele>
        <time>2021-07-23T13:45:06.091Z</time>
      </trkpt>
      <trkpt lat="40.061210" lon="-0.338150">
        <ele>639.5</ele>
        <time>2021-07-23T13:45:10.589Z</time>
      </trkpt>
      <trkpt lat="40.060759" lon="-0.338317">
        <ele>640.3</ele>
        <time>2021-07-23T13:45:35.443Z</time>
      </trkpt>
      <trkpt lat="40.060376" lon="-0.338615">
        <ele>641.4</ele>
        <time>2021-07-23T13:45:54.390Z</time>
      </trkpt>
      <trkpt lat="40.059892" lon="-0.338875">
        <ele>642.7</ele>
        <time>2021-07-23T13:46:20.532Z</time>
      </trkpt>
      <trkpt lat="40.059778" lon="-0.338850">
        <ele>643.0</ele>
        <time>2021-07-23T13:46:26.431Z</time>
      </trkpt>
      <trkpt lat="40.059565" lon="-0.338912">
        <ele>643.5</ele>
        <time>2021-07-23T13:46:34.316Z</time>
      </trkpt>
      <trkpt lat="40.059385" lon="-0.339041">
        <ele>644.1</ele>
        <time>2021-07-23T13:46:42.756Z</time>
      </trkpt>
      <trkpt lat="40.059385" lon="-0.339041">
        <ele>644.1</ele>
        <time>2021-07-23T13:46:42.951Z</time>
      </trkpt>
      <trkpt lat="40.059385" lon="-0.339041">
        <ele>644.1</ele>
        <time>2021-07-23T13:46:42.972Z</time>
      </trkpt>
      <trkpt lat="40.059352" lon="-0.338963">
        <ele>644.2</ele>
        <time>2021-07-23T13:46:45.894Z</time>
      </trkpt>
      <trkpt lat="40.059260" lon="-0.338997">
        <ele>644.5</ele>
        <time>2021-07-23T13:46:50.004Z</time>
      </trkpt>
      <trkpt lat="40.059181" lon="-0.339021">
        <ele>644.4</ele>
        <time>2021-07-23T13:46:53.469Z</time>
      </trkpt>
      <trkpt lat="40.059099" lon="-0.339048">
        <ele>644.2</ele>
        <time>2021-07-23T13:46:57.081Z</time>
      </trkpt>
      <trkpt lat="40.059032" lon="-0.339075">
        <ele>644.0</ele>
        <time>2021-07-23T13:47:00.097Z</time>
      </trkpt>
      <trkpt lat="40.058985" lon="-0.339108">
        <ele>643.8</ele>
        <time>2021-07-23T13:47:02.378Z</time>
      </trkpt>
      <trkpt lat="40.058904" lon="-0.339186">
        <ele>643.5</ele>
        <time>2021-07-23T13:47:06.697Z</time>
      </trkpt>
      <trkpt lat="40.058858" lon="-0.339235">
        <ele>643.3</ele>
        <time>2021-07-23T13:47:09.235Z</time>
      </trkpt>
      <trkpt lat="40.058807" lon="-0.339301">
        <ele>643.1</ele>
        <time>2021-07-23T13:47:12.307Z</time>
      </trkpt>
      <trkpt lat="40.058767" lon="-0.339352">
        <ele>642.9</ele>
        <time>2021-07-23T13:47:14.728Z</time>
      </trkpt>
      <trkpt lat="40.058728" lon="-0.339397">
        <ele>642.8</ele>
        <time>2021-07-23T13:47:16.955Z</time>
      </trkpt>
      <trkpt lat="40.058692" lon="-0.339438">
        <ele>642.7</ele>
        <time>2021-07-23T13:47:19.012Z</time>
      </trkpt>
      <trkpt lat="40.058655" lon="-0.339475">
        <ele>642.5</ele>
        <time>2021-07-23T13:47:21.007Z</time>
      </trkpt>
      <trkpt lat="40.058668" lon="-0.339418">
        <ele>642.4</ele>
        <time>2021-07-23T13:47:22.958Z</time>
      </trkpt>
      <trkpt lat="40.058678" lon="-0.339355">
        <ele>642.2</ele>
        <time>2021-07-23T13:47:25.069Z</time>
      </trkpt>
      <trkpt lat="40.058655" lon="-0.339289">
        <ele>642.1</ele>
        <time>2021-07-23T13:47:27.448Z</time>
      </trkpt>
      <trkpt lat="40.058619" lon="-0.339222">
        <ele>641.9</ele>
        <time>2021-07-23T13:47:30.165Z</time>
      </trkpt>
      <trkpt lat="40.058577" lon="-0.339142">
        <ele>641.6</ele>
        <time>2021-07-23T13:47:33.345Z</time>
      </trkpt>
      <trkpt lat="40.058529" lon="-0.339075">
        <ele>641.4</ele>
        <time>2021-07-23T13:47:36.361Z</time>
      </trkpt>
      <trkpt lat="40.058482" lon="-0.339014">
        <ele>641.2</ele>
        <time>2021-07-23T13:47:39.196Z</time>
      </trkpt>
      <trkpt lat="40.058425" lon="-0.338937">
        <ele>641.0</ele>
        <time>2021-07-23T13:47:42.707Z</time>
      </trkpt>
      <trkpt lat="40.058375" lon="-0.338870">
        <ele>640.8</ele>
        <time>2021-07-23T13:47:45.828Z</time>
      </trkpt>
      <trkpt lat="40.058329" lon="-0.338811">
        <ele>640.6</ele>
        <time>2021-07-23T13:47:48.594Z</time>
      </trkpt>
      <trkpt lat="40.058292" lon="-0.338861">
        <ele>640.4</ele>
        <time>2021-07-23T13:47:50.902Z</time>
      </trkpt>
      <trkpt lat="40.058277" lon="-0.338842">
        <ele>640.4</ele>
        <time>2021-07-23T13:47:51.328Z</time>
      </trkpt>
      <trkpt lat="40.058033" lon="-0.338683">
        <ele>639.5</ele>
        <time>2021-07-23T13:47:57.314Z</time>
      </trkpt>
      <trkpt lat="40.057784" lon="-0.338616">
        <ele>637.9</ele>
        <time>2021-07-23T13:48:03.529Z</time>
      </trkpt>
      <trkpt lat="40.057398" lon="-0.337853">
        <ele>631.2</ele>
        <time>2021-07-23T13:48:19.088Z</time>
      </trkpt>
      <trkpt lat="40.057365" lon="-0.337679">
        <ele>629.9</ele>
        <time>2021-07-23T13:48:21.934Z</time>
      </trkpt>
      <trkpt lat="40.057272" lon="-0.337830">
        <ele>628.5</ele>
        <time>2021-07-23T13:48:25.312Z</time>
      </trkpt>
      <trkpt lat="40.057158" lon="-0.337983">
        <ele>626.9</ele>
        <time>2021-07-23T13:48:28.802Z</time>
      </trkpt>
      <trkpt lat="40.055904" lon="-0.338952">
        <ele>610.0</ele>
        <time>2021-07-23T13:48:59.071Z</time>
      </trkpt>
      <trkpt lat="40.055901" lon="-0.338849">
        <ele>609.0</ele>
        <time>2021-07-23T13:49:00.719Z</time>
      </trkpt>
      <trkpt lat="40.055840" lon="-0.338829">
        <ele>608.2</ele>
        <time>2021-07-23T13:49:02.029Z</time>
      </trkpt>
      <trkpt lat="40.055691" lon="-0.338925">
        <ele>606.1</ele>
        <time>2021-07-23T13:49:05.473Z</time>
      </trkpt>
      <trkpt lat="40.055609" lon="-0.339196">
        <ele>603.3</ele>
        <time>2021-07-23T13:49:10.099Z</time>
      </trkpt>
      <trkpt lat="40.055143" lon="-0.338962">
        <ele>596.6</ele>
        <time>2021-07-23T13:49:20.298Z</time>
      </trkpt>
      <trkpt lat="40.055065" lon="-0.338813">
        <ele>594.7</ele>
        <time>2021-07-23T13:49:23.101Z</time>
      </trkpt>
      <trkpt lat="40.054824" lon="-0.338835">
        <ele>591.2</ele>
        <time>2021-07-23T13:49:27.992Z</time>
      </trkpt>
      <trkpt lat="40.054732" lon="-0.338731">
        <ele>589.5</ele>
        <time>2021-07-23T13:49:30.454Z</time>
      </trkpt>
      <trkpt lat="40.054626" lon="-0.338738">
        <ele>587.9</ele>
        <time>2021-07-23T13:49:32.605Z</time>
      </trkpt>
      <trkpt lat="40.054486" lon="-0.338800">
        <ele>585.8</ele>
        <time>2021-07-23T13:49:35.585Z</time>
      </trkpt>
      <trkpt lat="40.054263" lon="-0.339027">
        <ele>581.8</ele>
        <time>2021-07-23T13:49:41.313Z</time>
      </trkpt>
      <trkpt lat="40.054137" lon="-0.339024">
        <ele>580.0</ele>
        <time>2021-07-23T13:49:43.866Z</time>
      </trkpt>
      <trkpt lat="40.054032" lon="-0.339207">
        <ele>577.5</ele>
        <time>2021-07-23T13:49:47.437Z</time>
      </trkpt>
      <trkpt lat="40.053750" lon="-0.339479">
        <ele>572.8</ele>
        <time>2021-07-23T13:49:54.589Z</time>
      </trkpt>
      <trkpt lat="40.053350" lon="-0.339275">
        <ele>569.6</ele>
        <time>2021-07-23T13:50:03.413Z</time>
      </trkpt>
      <trkpt lat="40.053119" lon="-0.339375">
        <ele>567.7</ele>
        <time>2021-07-23T13:50:08.474Z</time>
      </trkpt>
      <trkpt lat="40.052948" lon="-0.339557">
        <ele>566.0</ele>
        <time>2021-07-23T13:50:13.339Z</time>
      </trkpt>
      <trkpt lat="40.052966" lon="-0.338952">
        <ele>562.5</ele>
        <time>2021-07-23T13:50:24.449Z</time>
      </trkpt>
      <trkpt lat="40.053145" lon="-0.338654">
        <ele>560.3</ele>
        <time>2021-07-23T13:50:32.275Z</time>
      </trkpt>
      <trkpt lat="40.053156" lon="-0.338084">
        <ele>561.4</ele>
        <time>2021-07-23T13:50:47.862Z</time>
      </trkpt>
      <trkpt lat="40.053139" lon="-0.337921">
        <ele>562.1</ele>
        <time>2021-07-23T13:50:52.596Z</time>
      </trkpt>
      <trkpt lat="40.053330" lon="-0.337724">
        <ele>563.4</ele>
        <time>2021-07-23T13:51:06.546Z</time>
      </trkpt>
      <trkpt lat="40.053562" lon="-0.337284">
        <ele>565.5</ele>
        <time>2021-07-23T13:51:31.577Z</time>
      </trkpt>
      <trkpt lat="40.053589" lon="-0.337233">
        <ele>565.8</ele>
        <time>2021-07-23T13:51:34.974Z</time>
      </trkpt>
      <trkpt lat="40.053425" lon="-0.336950">
        <ele>567.2</ele>
        <time>2021-07-23T13:51:55.777Z</time>
      </trkpt>
      <trkpt lat="40.053504" lon="-0.336469">
        <ele>569.3</ele>
        <time>2021-07-23T13:52:26.323Z</time>
      </trkpt>
      <trkpt lat="40.053488" lon="-0.336354">
        <ele>569.9</ele>
        <time>2021-07-23T13:52:33.237Z</time>
      </trkpt>
      <trkpt lat="40.053441" lon="-0.336259">
        <ele>570.5</ele>
        <time>2021-07-23T13:52:41.444Z</time>
      </trkpt>
      <trkpt lat="40.053375" lon="-0.336236">
        <ele>571.0</ele>
        <time>2021-07-23T13:52:47.775Z</time>
      </trkpt>
      <trkpt lat="40.053110" lon="-0.336371">
        <ele>572.9</ele>
        <time>2021-07-23T13:53:10.600Z</time>
      </trkpt>
      <trkpt lat="40.052775" lon="-0.336417">
        <ele>575.3</ele>
        <time>2021-07-23T13:53:35.230Z</time>
      </trkpt>
      <trkpt lat="40.053135" lon="-0.335913">
        <ele>578.9</ele>
        <time>2021-07-23T13:54:10.177Z</time>
      </trkpt>
      <trkpt lat="40.053297" lon="-0.335340">
        <ele>581.5</ele>
        <time>2021-07-23T13:54:32.980Z</time>
      </trkpt>
      <trkpt lat="40.053312" lon="-0.335096">
        <ele>581.3</ele>
        <time>2021-07-23T13:54:41.126Z</time>
      </trkpt>
      <trkpt lat="40.053499" lon="-0.335007">
        <ele>581.0</ele>
        <time>2021-07-23T13:54:47.916Z</time>
      </trkpt>
      <trkpt lat="40.053355" lon="-0.334701">
        <ele>580.6</ele>
        <time>2021-07-23T13:54:56.604Z</time>
      </trkpt>
      <trkpt lat="40.053352" lon="-0.334602">
        <ele>580.5</ele>
        <time>2021-07-23T13:54:58.755Z</time>
      </trkpt>
      <trkpt lat="40.053415" lon="-0.334503">
        <ele>580.4</ele>
        <time>2021-07-23T13:55:02.012Z</time>
      </trkpt>
      <trkpt lat="40.053168" lon="-0.334275">
        <ele>579.9</ele>
        <time>2021-07-23T13:55:06.483Z</time>
      </trkpt>
      <trkpt lat="40.053036" lon="-0.334089">
        <ele>579.7</ele>
        <time>2021-07-23T13:55:09.260Z</time>
      </trkpt>
      <trkpt lat="40.052739" lon="-0.333390">
        <ele>577.4</ele>
        <time>2021-07-23T13:55:17.441Z</time>
      </trkpt>
      <trkpt lat="40.052260" lon="-0.332900">
        <ele>572.6</ele>
        <time>2021-07-23T13:55:24.961Z</time>
      </trkpt>
      <trkpt lat="40.052031" lon="-0.332799">
        <ele>570.8</ele>
        <time>2021-07-23T13:55:27.958Z</time>
      </trkpt>
      <trkpt lat="40.051740" lon="-0.332896">
        <ele>568.4</ele>
        <time>2021-07-23T13:55:31.660Z</time>
      </trkpt>
      <trkpt lat="40.051538" lon="-0.332885">
        <ele>566.8</ele>
        <time>2021-07-23T13:55:34.119Z</time>
      </trkpt>
      <trkpt lat="40.051322" lon="-0.332673">
        <ele>564.6</ele>
        <time>2021-07-23T13:55:37.383Z</time>
      </trkpt>
      <trkpt lat="40.051231" lon="-0.332474">
        <ele>562.7</ele>
        <time>2021-07-23T13:55:39.515Z</time>
      </trkpt>
      <trkpt lat="40.051232" lon="-0.332179">
        <ele>560.3</ele>
        <time>2021-07-23T13:55:42.189Z</time>
      </trkpt>
      <trkpt lat="40.051095" lon="-0.331709">
        <ele>556.1</ele>
        <time>2021-07-23T13:55:46.727Z</time>
      </trkpt>
      <trkpt lat="40.050719" lon="-0.331129">
        <ele>549.9</ele>
        <time>2021-07-23T13:55:53.563Z</time>
      </trkpt>
      <trkpt lat="40.050426" lon="-0.331095">
        <ele>546.7</ele>
        <time>2021-07-23T13:55:57.027Z</time>
      </trkpt>
      <trkpt lat="40.050085" lon="-0.330839">
        <ele>543.2</ele>
        <time>2021-07-23T13:56:01.695Z</time>
      </trkpt>
      <trkpt lat="40.049517" lon="-0.330894">
        <ele>538.5</ele>
        <time>2021-07-23T13:56:08.554Z</time>
      </trkpt>
      <trkpt lat="40.049373" lon="-0.330819">
        <ele>537.2</ele>
        <time>2021-07-23T13:56:10.442Z</time>
      </trkpt>
      <trkpt lat="40.049095" lon="-0.330270">
        <ele>533.0</ele>
        <time>2021-07-23T13:56:16.741Z</time>
      </trkpt>
      <trkpt lat="40.049015" lon="-0.330216">
        <ele>532.3</ele>
        <time>2021-07-23T13:56:17.905Z</time>
      </trkpt>
      <trkpt lat="40.048936" lon="-0.330252">
        <ele>531.6</ele>
        <time>2021-07-23T13:56:18.994Z</time>
      </trkpt>
      <trkpt lat="40.048739" lon="-0.330638">
        <ele>529.2</ele>
        <time>2021-07-23T13:56:23.927Z</time>
      </trkpt>
      <trkpt lat="40.048490" lon="-0.330920">
        <ele>527.1</ele>
        <time>2021-07-23T13:56:28.294Z</time>
      </trkpt>
      <trkpt lat="40.048376" lon="-0.330919">
        <ele>526.3</ele>
        <time>2021-07-23T13:56:29.876Z</time>
      </trkpt>
      <trkpt lat="40.048152" lon="-0.330741">
        <ele>524.7</ele>
        <time>2021-07-23T13:56:33.265Z</time>
      </trkpt>
      <trkpt lat="40.048015" lon="-0.330732">
        <ele>523.8</ele>
        <time>2021-07-23T13:56:35.119Z</time>
      </trkpt>
      <trkpt lat="40.047644" lon="-0.330939">
        <ele>521.2</ele>
        <time>2021-07-23T13:56:40.230Z</time>
      </trkpt>
      <trkpt lat="40.047580" lon="-0.331011">
        <ele>520.7</ele>
        <time>2021-07-23T13:56:41.279Z</time>
      </trkpt>
      <trkpt lat="40.047473" lon="-0.330880">
        <ele>519.7</ele>
        <time>2021-07-23T13:56:44.532Z</time>
      </trkpt>
      <trkpt lat="40.047381" lon="-0.330838">
        <ele>518.9</ele>
        <time>2021-07-23T13:56:46.751Z</time>
      </trkpt>
      <trkpt lat="40.047255" lon="-0.331002">
        <ele>516.6</ele>
        <time>2021-07-23T13:56:50.547Z</time>
      </trkpt>
      <trkpt lat="40.047095" lon="-0.331065">
        <ele>514.5</ele>
        <time>2021-07-23T13:56:54.241Z</time>
      </trkpt>
      <trkpt lat="40.046878" lon="-0.331269">
        <ele>511.2</ele>
        <time>2021-07-23T13:56:59.889Z</time>
      </trkpt>
      <trkpt lat="40.046574" lon="-0.331445">
        <ele>507.1</ele>
        <time>2021-07-23T13:57:06.832Z</time>
      </trkpt>
      <trkpt lat="40.046141" lon="-0.332010">
        <ele>499.4</ele>
        <time>2021-07-23T13:57:19.215Z</time>
      </trkpt>
      <trkpt lat="40.045955" lon="-0.332114">
        <ele>496.9</ele>
        <time>2021-07-23T13:57:23.264Z</time>
      </trkpt>
      <trkpt lat="40.045703" lon="-0.332111">
        <ele>493.4</ele>
        <time>2021-07-23T13:57:28.262Z</time>
      </trkpt>
      <trkpt lat="40.045451" lon="-0.332204">
        <ele>489.8</ele>
        <time>2021-07-23T13:57:33.549Z</time>
      </trkpt>
      <trkpt lat="40.045161" lon="-0.332341">
        <ele>485.5</ele>
        <time>2021-07-23T13:57:39.855Z</time>
      </trkpt>
      <trkpt lat="40.045051" lon="-0.332455">
        <ele>483.6</ele>
        <time>2021-07-23T13:57:42.610Z</time>
      </trkpt>
      <trkpt lat="40.044855" lon="-0.332353">
        <ele>480.7</ele>
        <time>2021-07-23T13:57:47.116Z</time>
      </trkpt>
      <trkpt lat="40.044817" lon="-0.332321">
        <ele>480.1</ele>
        <time>2021-07-23T13:57:47.992Z</time>
      </trkpt>
      <trkpt lat="40.044852" lon="-0.332418">
        <ele>478.9</ele>
        <time>2021-07-23T13:57:49.625Z</time>
      </trkpt>
      <trkpt lat="40.044865" lon="-0.332631">
        <ele>476.7</ele>
        <time>2021-07-23T13:57:53.212Z</time>
      </trkpt>
      <trkpt lat="40.044797" lon="-0.332841">
        <ele>474.3</ele>
        <time>2021-07-23T13:57:56.770Z</time>
      </trkpt>
      <trkpt lat="40.044631" lon="-0.333001">
        <ele>471.7</ele>
        <time>2021-07-23T13:58:01.323Z</time>
      </trkpt>
      <trkpt lat="40.044492" lon="-0.333043">
        <ele>470.7</ele>
        <time>2021-07-23T13:58:04.235Z</time>
      </trkpt>
      <trkpt lat="40.044361" lon="-0.332852">
        <ele>469.2</ele>
        <time>2021-07-23T13:58:08.650Z</time>
      </trkpt>
      <trkpt lat="40.044184" lon="-0.332721">
        <ele>467.7</ele>
        <time>2021-07-23T13:58:12.908Z</time>
      </trkpt>
      <trkpt lat="40.043937" lon="-0.332721">
        <ele>465.9</ele>
        <time>2021-07-23T13:58:18.582Z</time>
      </trkpt>
      <trkpt lat="40.043668" lon="-0.332792">
        <ele>463.9</ele>
        <time>2021-07-23T13:58:24.707Z</time>
      </trkpt>
      <trkpt lat="40.043175" lon="-0.333264">
        <ele>459.3</ele>
        <time>2021-07-23T13:58:39.735Z</time>
      </trkpt>
      <trkpt lat="40.042759" lon="-0.333073">
        <ele>456.8</ele>
        <time>2021-07-23T13:58:50.730Z</time>
      </trkpt>
      <trkpt lat="40.042621" lon="-0.333174">
        <ele>455.9</ele>
        <time>2021-07-23T13:58:54.631Z</time>
      </trkpt>
      <trkpt lat="40.042382" lon="-0.333939">
        <ele>452.4</ele>
        <time>2021-07-23T13:59:09.842Z</time>
      </trkpt>
      <trkpt lat="40.042251" lon="-0.334522">
        <ele>449.8</ele>
        <time>2021-07-23T13:59:20.677Z</time>
      </trkpt>
      <trkpt lat="40.041273" lon="-0.334351">
        <ele>440.1</ele>
        <time>2021-07-23T13:59:42.630Z</time>
      </trkpt>
      <trkpt lat="40.041111" lon="-0.334381">
        <ele>438.3</ele>
        <time>2021-07-23T13:59:46.102Z</time>
      </trkpt>
      <trkpt lat="40.040872" lon="-0.334663">
        <ele>434.9</ele>
        <time>2021-07-23T13:59:52.841Z</time>
      </trkpt>
      <trkpt lat="40.040765" lon="-0.334874">
        <ele>432.8</ele>
        <time>2021-07-23T13:59:56.852Z</time>
      </trkpt>
      <trkpt lat="40.040780" lon="-0.335055">
        <ele>431.3</ele>
        <time>2021-07-23T13:59:59.696Z</time>
      </trkpt>
      <trkpt lat="40.040687" lon="-0.335286">
        <ele>429.0</ele>
        <time>2021-07-23T14:00:03.773Z</time>
      </trkpt>
      <trkpt lat="40.040148" lon="-0.335810">
        <ele>418.0</ele>
        <time>2021-07-23T14:00:17.245Z</time>
      </trkpt>
      <trkpt lat="40.039756" lon="-0.336031">
        <ele>411.0</ele>
        <time>2021-07-23T14:00:25.750Z</time>
      </trkpt>
      <trkpt lat="40.039232" lon="-0.336212">
        <ele>402.1</ele>
        <time>2021-07-23T14:00:36.480Z</time>
      </trkpt>
      <trkpt lat="40.038862" lon="-0.336242">
        <ele>396.7</ele>
        <time>2021-07-23T14:00:43.851Z</time>
      </trkpt>
      <trkpt lat="40.038446" lon="-0.336172">
        <ele>390.8</ele>
        <time>2021-07-23T14:00:52.244Z</time>
      </trkpt>
      <trkpt lat="40.037953" lon="-0.335800">
        <ele>382.9</ele>
        <time>2021-07-23T14:01:03.919Z</time>
      </trkpt>
      <trkpt lat="40.037653" lon="-0.335407">
        <ele>377.0</ele>
        <time>2021-07-23T14:01:12.802Z</time>
      </trkpt>
      <trkpt lat="40.037514" lon="-0.335035">
        <ele>373.3</ele>
        <time>2021-07-23T14:01:19.639Z</time>
      </trkpt>
      <trkpt lat="40.037514" lon="-0.335005">
        <ele>373.1</ele>
        <time>2021-07-23T14:01:20.103Z</time>
      </trkpt>
      <trkpt lat="40.037507" lon="-0.334763">
        <ele>371.2</ele>
        <time>2021-07-23T14:01:24.117Z</time>
      </trkpt>
      <trkpt lat="40.037168" lon="-0.334482">
        <ele>367.1</ele>
        <time>2021-07-23T14:01:32.819Z</time>
      </trkpt>
      <trkpt lat="40.037083" lon="-0.334301">
        <ele>365.5</ele>
        <time>2021-07-23T14:01:36.300Z</time>
      </trkpt>
      <trkpt lat="40.036429" lon="-0.334180">
        <ele>358.8</ele>
        <time>2021-07-23T14:01:50.571Z</time>
      </trkpt>
      <trkpt lat="40.036174" lon="-0.333848">
        <ele>354.7</ele>
        <time>2021-07-23T14:01:58.332Z</time>
      </trkpt>
      <trkpt lat="40.035982" lon="-0.333687">
        <ele>351.7</ele>
        <time>2021-07-23T14:02:03.299Z</time>
      </trkpt>
      <trkpt lat="40.036053" lon="-0.334302">
        <ele>345.5</ele>
        <time>2021-07-23T14:02:13.069Z</time>
      </trkpt>
      <trkpt lat="40.036198" lon="-0.335558">
        <ele>332.8</ele>
        <time>2021-07-23T14:02:32.924Z</time>
      </trkpt>
      <trkpt lat="40.036135" lon="-0.335785">
        <ele>330.4</ele>
        <time>2021-07-23T14:02:36.645Z</time>
      </trkpt>
      <trkpt lat="40.036059" lon="-0.336061">
        <ele>327.4</ele>
        <time>2021-07-23T14:02:41.237Z</time>
      </trkpt>
      <trkpt lat="40.034337" lon="-0.336235">
        <ele>306.5</ele>
        <time>2021-07-23T14:03:16.810Z</time>
      </trkpt>
      <trkpt lat="40.033054" lon="-0.336789">
        <ele>295.9</ele>
        <time>2021-07-23T14:03:47.383Z</time>
      </trkpt>
      <trkpt lat="40.032552" lon="-0.336932">
        <ele>296.0</ele>
        <time>2021-07-23T14:04:01.367Z</time>
      </trkpt>
      <trkpt lat="40.033144" lon="-0.337311">
        <ele>296.8</ele>
        <time>2021-07-23T14:04:17.613Z</time>
      </trkpt>
      <trkpt lat="40.033281" lon="-0.337379">
        <ele>297.0</ele>
        <time>2021-07-23T14:04:24.305Z</time>
      </trkpt>
      <trkpt lat="40.033676" lon="-0.337507">
        <ele>297.6</ele>
        <time>2021-07-23T14:04:41.299Z</time>
      </trkpt>
      <trkpt lat="40.034546" lon="-0.337794">
        <ele>301.8</ele>
        <time>2021-07-23T14:05:29.926Z</time>
      </trkpt>
      <trkpt lat="40.034751" lon="-0.337860">
        <ele>302.9</ele>
        <time>2021-07-23T14:05:41.726Z</time>
      </trkpt>
      <trkpt lat="40.035247" lon="-0.337932">
        <ele>305.6</ele>
        <time>2021-07-23T14:06:04.224Z</time>
      </trkpt>
      <trkpt lat="40.035485" lon="-0.337984">
        <ele>306.9</ele>
        <time>2021-07-23T14:06:14.237Z</time>
      </trkpt>
      <trkpt lat="40.035541" lon="-0.337993">
        <ele>307.2</ele>
        <time>2021-07-23T14:06:17.192Z</time>
      </trkpt>
      <trkpt lat="40.035957" lon="-0.337522">
        <ele>307.4</ele>
        <time>2021-07-23T14:06:35.379Z</time>
      </trkpt>
      <trkpt lat="40.036342" lon="-0.337363">
        <ele>307.5</ele>
        <time>2021-07-23T14:06:44.992Z</time>
      </trkpt>
      <trkpt lat="40.036434" lon="-0.337370">
        <ele>307.5</ele>
        <time>2021-07-23T14:06:46.932Z</time>
      </trkpt>
      <trkpt lat="40.036616" lon="-0.337631">
        <ele>307.5</ele>
        <time>2021-07-23T14:06:51.862Z</time>
      </trkpt>
      <trkpt lat="40.036954" lon="-0.337721">
        <ele>307.6</ele>
        <time>2021-07-23T14:06:57.526Z</time>
      </trkpt>
      <trkpt lat="40.037571" lon="-0.338288">
        <ele>305.4</ele>
        <time>2021-07-23T14:07:08.671Z</time>
      </trkpt>
      <trkpt lat="40.037891" lon="-0.338297">
        <ele>304.1</ele>
        <time>2021-07-23T14:07:13.321Z</time>
      </trkpt>
      <trkpt lat="40.038138" lon="-0.338414">
        <ele>303.2</ele>
        <time>2021-07-23T14:07:17.119Z</time>
      </trkpt>
      <trkpt lat="40.038406" lon="-0.338460">
        <ele>302.1</ele>
        <time>2021-07-23T14:07:21.062Z</time>
      </trkpt>
      <trkpt lat="40.038923" lon="-0.338701">
        <ele>300.3</ele>
        <time>2021-07-23T14:07:29.243Z</time>
      </trkpt>
      <trkpt lat="40.039184" lon="-0.338750">
        <ele>299.6</ele>
        <time>2021-07-23T14:07:33.258Z</time>
      </trkpt>
      <trkpt lat="40.039625" lon="-0.339084">
        <ele>298.3</ele>
        <time>2021-07-23T14:07:41.173Z</time>
      </trkpt>
      <trkpt lat="40.040159" lon="-0.339312">
        <ele>296.9</ele>
        <time>2021-07-23T14:07:50.349Z</time>
      </trkpt>
      <trkpt lat="40.040613" lon="-0.339319">
        <ele>296.0</ele>
        <time>2021-07-23T14:07:58.189Z</time>
      </trkpt>
      <trkpt lat="40.040867" lon="-0.339073">
        <ele>295.7</ele>
        <time>2021-07-23T14:08:03.840Z</time>
      </trkpt>
      <trkpt lat="40.041103" lon="-0.339001">
        <ele>295.5</ele>
        <time>2021-07-23T14:08:08.184Z</time>
      </trkpt>
      <trkpt lat="40.041199" lon="-0.338817">
        <ele>295.3</ele>
        <time>2021-07-23T14:08:11.415Z</time>
      </trkpt>
      <trkpt lat="40.041264" lon="-0.338798">
        <ele>295.2</ele>
        <time>2021-07-23T14:08:12.614Z</time>
      </trkpt>
      <trkpt lat="40.041612" lon="-0.339186">
        <ele>294.8</ele>
        <time>2021-07-23T14:08:20.776Z</time>
      </trkpt>
      <trkpt lat="40.041837" lon="-0.339341">
        <ele>294.6</ele>
        <time>2021-07-23T14:08:25.482Z</time>
      </trkpt>
      <trkpt lat="40.041969" lon="-0.339600">
        <ele>294.4</ele>
        <time>2021-07-23T14:08:29.872Z</time>
      </trkpt>
      <trkpt lat="40.042238" lon="-0.339533">
        <ele>294.2</ele>
        <time>2021-07-23T14:08:35.126Z</time>
      </trkpt>
      <trkpt lat="40.042419" lon="-0.339560">
        <ele>294.0</ele>
        <time>2021-07-23T14:08:38.810Z</time>
      </trkpt>
      <trkpt lat="40.042666" lon="-0.339813">
        <ele>293.8</ele>
        <time>2021-07-23T14:08:44.939Z</time>
      </trkpt>
      <trkpt lat="40.043120" lon="-0.340139">
        <ele>293.4</ele>
        <time>2021-07-23T14:08:55.192Z</time>
      </trkpt>
      <trkpt lat="40.043618" lon="-0.340051">
        <ele>292.7</ele>
        <time>2021-07-23T14:09:04.244Z</time>
      </trkpt>
      <trkpt lat="40.043908" lon="-0.340320">
        <ele>291.3</ele>
        <time>2021-07-23T14:09:09.626Z</time>
      </trkpt>
      <trkpt lat="40.044196" lon="-0.340333">
        <ele>290.2</ele>
        <time>2021-07-23T14:09:13.976Z</time>
      </trkpt>
      <trkpt lat="40.044522" lon="-0.341181">
        <ele>287.4</ele>
        <time>2021-07-23T14:09:24.502Z</time>
      </trkpt>
      <trkpt lat="40.044537" lon="-0.341317">
        <ele>287.0</ele>
        <time>2021-07-23T14:09:25.917Z</time>
      </trkpt>
      <trkpt lat="40.044494" lon="-0.341357">
        <ele>286.8</ele>
        <time>2021-07-23T14:09:27.036Z</time>
      </trkpt>
      <trkpt lat="40.044473" lon="-0.341770">
        <ele>285.4</ele>
        <time>2021-07-23T14:09:34.819Z</time>
      </trkpt>
      <trkpt lat="40.044535" lon="-0.342178">
        <ele>284.1</ele>
        <time>2021-07-23T14:09:42.504Z</time>
      </trkpt>
      <trkpt lat="40.044519" lon="-0.342388">
        <ele>283.4</ele>
        <time>2021-07-23T14:09:46.240Z</time>
      </trkpt>
      <trkpt lat="40.044149" lon="-0.342807">
        <ele>281.2</ele>
        <time>2021-07-23T14:09:58.175Z</time>
      </trkpt>
      <trkpt lat="40.044066" lon="-0.343117">
        <ele>280.1</ele>
        <time>2021-07-23T14:10:04.035Z</time>
      </trkpt>
      <trkpt lat="40.044076" lon="-0.343295">
        <ele>279.5</ele>
        <time>2021-07-23T14:10:07.741Z</time>
      </trkpt>
      <trkpt lat="40.044254" lon="-0.343560">
        <ele>278.3</ele>
        <time>2021-07-23T14:10:15.103Z</time>
      </trkpt>
      <trkpt lat="40.044450" lon="-0.343600">
        <ele>278.2</ele>
        <time>2021-07-23T14:10:20.715Z</time>
      </trkpt>
      <trkpt lat="40.044620" lon="-0.343717">
        <ele>278.0</ele>
        <time>2021-07-23T14:10:26.096Z</time>
      </trkpt>
      <trkpt lat="40.044645" lon="-0.343846">
        <ele>278.0</ele>
        <time>2021-07-23T14:10:29.115Z</time>
      </trkpt>
      <trkpt lat="40.044570" lon="-0.343943">
        <ele>277.9</ele>
        <time>2021-07-23T14:10:32.158Z</time>
      </trkpt>
      <trkpt lat="40.044455" lon="-0.343881">
        <ele>277.8</ele>
        <time>2021-07-23T14:10:35.765Z</time>
      </trkpt>
      <trkpt lat="40.044411" lon="-0.343935">
        <ele>277.7</ele>
        <time>2021-07-23T14:10:37.581Z</time>
      </trkpt>
      <trkpt lat="40.044355" lon="-0.344478">
        <ele>277.4</ele>
        <time>2021-07-23T14:10:50.411Z</time>
      </trkpt>
      <trkpt lat="40.044374" lon="-0.344656">
        <ele>277.3</ele>
        <time>2021-07-23T14:10:54.682Z</time>
      </trkpt>
      <trkpt lat="40.044289" lon="-0.344982">
        <ele>277.1</ele>
        <time>2021-07-23T14:11:03.068Z</time>
      </trkpt>
      <trkpt lat="40.043788" lon="-0.345406">
        <ele>277.7</ele>
        <time>2021-07-23T14:11:23.894Z</time>
      </trkpt>
      <trkpt lat="40.043660" lon="-0.345392">
        <ele>278.0</ele>
        <time>2021-07-23T14:11:28.057Z</time>
      </trkpt>
      <trkpt lat="40.043584" lon="-0.345049">
        <ele>278.5</ele>
        <time>2021-07-23T14:11:39.411Z</time>
      </trkpt>
      <trkpt lat="40.043005" lon="-0.344672">
        <ele>279.7</ele>
        <time>2021-07-23T14:12:07.946Z</time>
      </trkpt>
      <trkpt lat="40.042982" lon="-0.344574">
        <ele>279.8</ele>
        <time>2021-07-23T14:12:10.413Z</time>
      </trkpt>
      <trkpt lat="40.043049" lon="-0.344366">
        <ele>280.2</ele>
        <time>2021-07-23T14:12:17.842Z</time>
      </trkpt>
      <trkpt lat="40.043049" lon="-0.344366">
        <ele>280.2</ele>
        <time>2021-07-23T14:12:18.004Z</time>
      </trkpt>
      <trkpt lat="40.043049" lon="-0.344366">
        <ele>280.2</ele>
        <time>2021-07-23T14:12:18.004Z</time>
      </trkpt>
      <trkpt lat="40.043033" lon="-0.344347">
        <ele>280.2</ele>
        <time>2021-07-23T14:12:18.932Z</time>
      </trkpt>
      <trkpt lat="40.043042" lon="-0.344300">
        <ele>280.3</ele>
        <time>2021-07-23T14:12:20.522Z</time>
      </trkpt>
      <trkpt lat="40.043043" lon="-0.344255">
        <ele>280.3</ele>
        <time>2021-07-23T14:12:22.000Z</time>
      </trkpt>
      <trkpt lat="40.043047" lon="-0.344210">
        <ele>280.5</ele>
        <time>2021-07-23T14:12:23.487Z</time>
      </trkpt>
      <trkpt lat="40.043047" lon="-0.344160">
        <ele>280.6</ele>
        <time>2021-07-23T14:12:25.128Z</time>
      </trkpt>
      <trkpt lat="40.043048" lon="-0.344108">
        <ele>280.8</ele>
        <time>2021-07-23T14:12:26.836Z</time>
      </trkpt>
      <trkpt lat="40.043048" lon="-0.344052">
        <ele>281.0</ele>
        <time>2021-07-23T14:12:28.675Z</time>
      </trkpt>
      <trkpt lat="40.043045" lon="-0.343998">
        <ele>281.2</ele>
        <time>2021-07-23T14:12:30.452Z</time>
      </trkpt>
      <trkpt lat="40.043030" lon="-0.343948">
        <ele>281.3</ele>
        <time>2021-07-23T14:12:32.214Z</time>
      </trkpt>
      <trkpt lat="40.043010" lon="-0.343905">
        <ele>281.5</ele>
        <time>2021-07-23T14:12:33.890Z</time>
      </trkpt>
      <trkpt lat="40.042988" lon="-0.343870">
        <ele>281.7</ele>
        <time>2021-07-23T14:12:35.376Z</time>
      </trkpt>
      <trkpt lat="40.042965" lon="-0.343848">
        <ele>281.8</ele>
        <time>2021-07-23T14:12:36.596Z</time>
      </trkpt>
      <trkpt lat="40.042943" lon="-0.343842">
        <ele>281.9</ele>
        <time>2021-07-23T14:12:37.556Z</time>
      </trkpt>
      <trkpt lat="40.042920" lon="-0.343850">
        <ele>282.0</ele>
        <time>2021-07-23T14:12:38.573Z</time>
      </trkpt>
      <trkpt lat="40.042900" lon="-0.343867">
        <ele>282.1</ele>
        <time>2021-07-23T14:12:39.592Z</time>
      </trkpt>
      <trkpt lat="40.042878" lon="-0.343893">
        <ele>282.2</ele>
        <time>2021-07-23T14:12:40.862Z</time>
      </trkpt>
      <trkpt lat="40.042853" lon="-0.343937">
        <ele>282.4</ele>
        <time>2021-07-23T14:12:42.659Z</time>
      </trkpt>
      <trkpt lat="40.042828" lon="-0.343975">
        <ele>282.6</ele>
        <time>2021-07-23T14:12:44.300Z</time>
      </trkpt>
      <trkpt lat="40.042805" lon="-0.344008">
        <ele>282.7</ele>
        <time>2021-07-23T14:12:45.765Z</time>
      </trkpt>
      <trkpt lat="40.042783" lon="-0.344042">
        <ele>282.8</ele>
        <time>2021-07-23T14:12:47.223Z</time>
      </trkpt>
      <trkpt lat="40.042762" lon="-0.344077">
        <ele>283.0</ele>
        <time>2021-07-23T14:12:48.682Z</time>
      </trkpt>
      <trkpt lat="40.042742" lon="-0.344110">
        <ele>283.1</ele>
        <time>2021-07-23T14:12:50.095Z</time>
      </trkpt>
      <trkpt lat="40.042718" lon="-0.344145">
        <ele>283.3</ele>
        <time>2021-07-23T14:12:51.633Z</time>
      </trkpt>
      <trkpt lat="40.042700" lon="-0.344180">
        <ele>283.4</ele>
        <time>2021-07-23T14:12:53.015Z</time>
      </trkpt>
      <trkpt lat="40.042692" lon="-0.344207">
        <ele>283.5</ele>
        <time>2021-07-23T14:12:53.967Z</time>
      </trkpt>
      <trkpt lat="40.042688" lon="-0.344228">
        <ele>283.6</ele>
        <time>2021-07-23T14:12:54.675Z</time>
      </trkpt>
      <trkpt lat="40.042687" lon="-0.344245">
        <ele>283.6</ele>
        <time>2021-07-23T14:12:55.237Z</time>
      </trkpt>
      <trkpt lat="40.042688" lon="-0.344252">
        <ele>283.7</ele>
        <time>2021-07-23T14:12:55.471Z</time>
      </trkpt>
      <trkpt lat="40.042687" lon="-0.344255">
        <ele>283.7</ele>
        <time>2021-07-23T14:12:55.578Z</time>
      </trkpt>
      <trkpt lat="40.042682" lon="-0.344260">
        <ele>283.7</ele>
        <time>2021-07-23T14:12:55.847Z</time>
      </trkpt>
      <trkpt lat="40.042677" lon="-0.344262">
        <ele>283.7</ele>
        <time>2021-07-23T14:12:56.071Z</time>
      </trkpt>
      <trkpt lat="40.042680" lon="-0.344258">
        <ele>283.7</ele>
        <time>2021-07-23T14:12:56.254Z</time>
      </trkpt>
      <trkpt lat="40.042678" lon="-0.344263">
        <ele>283.8</ele>
        <time>2021-07-23T14:12:56.439Z</time>
      </trkpt>
      <trkpt lat="40.042675" lon="-0.344263">
        <ele>283.8</ele>
        <time>2021-07-23T14:12:56.567Z</time>
      </trkpt>
      <trkpt lat="40.042675" lon="-0.344257">
        <ele>283.8</ele>
        <time>2021-07-23T14:12:56.764Z</time>
      </trkpt>
      <trkpt lat="40.042682" lon="-0.344252">
        <ele>283.8</ele>
        <time>2021-07-23T14:12:57.105Z</time>
      </trkpt>
      <trkpt lat="40.042677" lon="-0.344238">
        <ele>283.9</ele>
        <time>2021-07-23T14:12:57.612Z</time>
      </trkpt>
      <trkpt lat="40.042672" lon="-0.344228">
        <ele>283.9</ele>
        <time>2021-07-23T14:12:58.005Z</time>
      </trkpt>
      <trkpt lat="40.042670" lon="-0.344220">
        <ele>283.9</ele>
        <time>2021-07-23T14:12:58.279Z</time>
      </trkpt>
      <trkpt lat="40.042670" lon="-0.344212">
        <ele>284.0</ele>
        <time>2021-07-23T14:12:58.543Z</time>
      </trkpt>
      <trkpt lat="40.042672" lon="-0.344198">
        <ele>284.0</ele>
        <time>2021-07-23T14:12:59.013Z</time>
      </trkpt>
      <trkpt lat="40.042677" lon="-0.344187">
        <ele>284.1</ele>
        <time>2021-07-23T14:12:59.432Z</time>
      </trkpt>
      <trkpt lat="40.042682" lon="-0.344175">
        <ele>284.1</ele>
        <time>2021-07-23T14:12:59.881Z</time>
      </trkpt>
      <trkpt lat="40.042693" lon="-0.344165">
        <ele>284.2</ele>
        <time>2021-07-23T14:13:00.454Z</time>
      </trkpt>
      <trkpt lat="40.042703" lon="-0.344150">
        <ele>284.2</ele>
        <time>2021-07-23T14:13:01.105Z</time>
      </trkpt>
      <trkpt lat="40.042718" lon="-0.344130">
        <ele>284.3</ele>
        <time>2021-07-23T14:13:02.023Z</time>
      </trkpt>
      <trkpt lat="40.042732" lon="-0.344107">
        <ele>284.4</ele>
        <time>2021-07-23T14:13:02.986Z</time>
      </trkpt>
      <trkpt lat="40.042750" lon="-0.344070">
        <ele>284.6</ele>
        <time>2021-07-23T14:13:04.456Z</time>
      </trkpt>
      <trkpt lat="40.042768" lon="-0.344040">
        <ele>284.7</ele>
        <time>2021-07-23T14:13:05.710Z</time>
      </trkpt>
      <trkpt lat="40.042785" lon="-0.344007">
        <ele>284.8</ele>
        <time>2021-07-23T14:13:07.014Z</time>
      </trkpt>
      <trkpt lat="40.042807" lon="-0.343975">
        <ele>284.9</ele>
        <time>2021-07-23T14:13:08.423Z</time>
      </trkpt>
      <trkpt lat="40.042837" lon="-0.343942">
        <ele>285.1</ele>
        <time>2021-07-23T14:13:10.101Z</time>
      </trkpt>
      <trkpt lat="40.042862" lon="-0.343910">
        <ele>285.3</ele>
        <time>2021-07-23T14:13:11.599Z</time>
      </trkpt>
      <trkpt lat="40.042878" lon="-0.343887">
        <ele>285.4</ele>
        <time>2021-07-23T14:13:12.617Z</time>
      </trkpt>
      <trkpt lat="40.042900" lon="-0.343860">
        <ele>285.5</ele>
        <time>2021-07-23T14:13:13.911Z</time>
      </trkpt>
      <trkpt lat="40.042917" lon="-0.343832">
        <ele>285.6</ele>
        <time>2021-07-23T14:13:15.086Z</time>
      </trkpt>
      <trkpt lat="40.042918" lon="-0.343805">
        <ele>285.7</ele>
        <time>2021-07-23T14:13:15.974Z</time>
      </trkpt>
      <trkpt lat="40.042913" lon="-0.343787">
        <ele>285.8</ele>
        <time>2021-07-23T14:13:16.602Z</time>
      </trkpt>
      <trkpt lat="40.042898" lon="-0.343775">
        <ele>285.8</ele>
        <time>2021-07-23T14:13:17.354Z</time>
      </trkpt>
      <trkpt lat="40.042878" lon="-0.343772">
        <ele>285.9</ele>
        <time>2021-07-23T14:13:18.214Z</time>
      </trkpt>
      <trkpt lat="40.042853" lon="-0.343775">
        <ele>286.0</ele>
        <time>2021-07-23T14:13:19.288Z</time>
      </trkpt>
      <trkpt lat="40.042828" lon="-0.343792">
        <ele>286.2</ele>
        <time>2021-07-23T14:13:20.537Z</time>
      </trkpt>
      <trkpt lat="40.042792" lon="-0.343825">
        <ele>286.3</ele>
        <time>2021-07-23T14:13:22.419Z</time>
      </trkpt>
      <trkpt lat="40.042763" lon="-0.343853">
        <ele>286.5</ele>
        <time>2021-07-23T14:13:23.961Z</time>
      </trkpt>
      <trkpt lat="40.042723" lon="-0.343903">
        <ele>286.7</ele>
        <time>2021-07-23T14:13:26.330Z</time>
      </trkpt>
      <trkpt lat="40.042700" lon="-0.343945">
        <ele>286.9</ele>
        <time>2021-07-23T14:13:28.023Z</time>
      </trkpt>
      <trkpt lat="40.042673" lon="-0.343998">
        <ele>287.1</ele>
        <time>2021-07-23T14:13:30.119Z</time>
      </trkpt>
      <trkpt lat="40.042642" lon="-0.344055">
        <ele>287.3</ele>
        <time>2021-07-23T14:13:32.411Z</time>
      </trkpt>
      <trkpt lat="40.042615" lon="-0.344103">
        <ele>287.5</ele>
        <time>2021-07-23T14:13:34.365Z</time>
      </trkpt>
      <trkpt lat="40.042598" lon="-0.344148">
        <ele>287.7</ele>
        <time>2021-07-23T14:13:36.022Z</time>
      </trkpt>
      <trkpt lat="40.042575" lon="-0.344207">
        <ele>287.9</ele>
        <time>2021-07-23T14:13:38.196Z</time>
      </trkpt>
      <trkpt lat="40.042553" lon="-0.344263">
        <ele>288.1</ele>
        <time>2021-07-23T14:13:40.261Z</time>
      </trkpt>
      <trkpt lat="40.042530" lon="-0.344310">
        <ele>288.3</ele>
        <time>2021-07-23T14:13:42.090Z</time>
      </trkpt>
      <trkpt lat="40.042505" lon="-0.344358">
        <ele>288.5</ele>
        <time>2021-07-23T14:13:43.994Z</time>
      </trkpt>
      <trkpt lat="40.042488" lon="-0.344388">
        <ele>288.7</ele>
        <time>2021-07-23T14:13:45.230Z</time>
      </trkpt>
      <trkpt lat="40.042475" lon="-0.344405">
        <ele>288.8</ele>
        <time>2021-07-23T14:13:46.021Z</time>
      </trkpt>
      <trkpt lat="40.042458" lon="-0.344418">
        <ele>288.9</ele>
        <time>2021-07-23T14:13:46.862Z</time>
      </trkpt>
      <trkpt lat="40.042445" lon="-0.344423">
        <ele>288.9</ele>
        <time>2021-07-23T14:13:47.443Z</time>
      </trkpt>
      <trkpt lat="40.042422" lon="-0.344423">
        <ele>289.0</ele>
        <time>2021-07-23T14:13:48.425Z</time>
      </trkpt>
      <trkpt lat="40.042403" lon="-0.344422">
        <ele>289.1</ele>
        <time>2021-07-23T14:13:49.237Z</time>
      </trkpt>
      <trkpt lat="40.042383" lon="-0.344423">
        <ele>289.2</ele>
        <time>2021-07-23T14:13:50.094Z</time>
      </trkpt>
      <trkpt lat="40.042362" lon="-0.344425">
        <ele>289.3</ele>
        <time>2021-07-23T14:13:51.001Z</time>
      </trkpt>
      <trkpt lat="40.042338" lon="-0.344433">
        <ele>289.4</ele>
        <time>2021-07-23T14:13:52.062Z</time>
      </trkpt>
      <trkpt lat="40.042323" lon="-0.344442">
        <ele>289.5</ele>
        <time>2021-07-23T14:13:52.765Z</time>
      </trkpt>
      <trkpt lat="40.042308" lon="-0.344458">
        <ele>289.6</ele>
        <time>2021-07-23T14:13:53.596Z</time>
      </trkpt>
      <trkpt lat="40.042297" lon="-0.344478">
        <ele>289.7</ele>
        <time>2021-07-23T14:13:54.403Z</time>
      </trkpt>
      <trkpt lat="40.042287" lon="-0.344502">
        <ele>289.8</ele>
        <time>2021-07-23T14:13:55.299Z</time>
      </trkpt>
      <trkpt lat="40.042278" lon="-0.344527">
        <ele>289.9</ele>
        <time>2021-07-23T14:13:56.205Z</time>
      </trkpt>
      <trkpt lat="40.042268" lon="-0.344560">
        <ele>290.0</ele>
        <time>2021-07-23T14:13:57.369Z</time>
      </trkpt>
      <trkpt lat="40.042258" lon="-0.344588">
        <ele>290.1</ele>
        <time>2021-07-23T14:13:58.383Z</time>
      </trkpt>
      <trkpt lat="40.042248" lon="-0.344618">
        <ele>290.3</ele>
        <time>2021-07-23T14:13:59.459Z</time>
      </trkpt>
      <trkpt lat="40.042233" lon="-0.344645">
        <ele>290.4</ele>
        <time>2021-07-23T14:14:00.571Z</time>
      </trkpt>
      <trkpt lat="40.042215" lon="-0.344665">
        <ele>290.5</ele>
        <time>2021-07-23T14:14:01.586Z</time>
      </trkpt>
      <trkpt lat="40.042192" lon="-0.344682">
        <ele>290.6</ele>
        <time>2021-07-23T14:14:02.716Z</time>
      </trkpt>
      <trkpt lat="40.042173" lon="-0.344687">
        <ele>290.7</ele>
        <time>2021-07-23T14:14:03.544Z</time>
      </trkpt>
      <trkpt lat="40.042145" lon="-0.344687">
        <ele>290.8</ele>
        <time>2021-07-23T14:14:04.740Z</time>
      </trkpt>
      <trkpt lat="40.042125" lon="-0.344680">
        <ele>290.9</ele>
        <time>2021-07-23T14:14:05.626Z</time>
      </trkpt>
      <trkpt lat="40.042112" lon="-0.344660">
        <ele>291.0</ele>
        <time>2021-07-23T14:14:06.491Z</time>
      </trkpt>
      <trkpt lat="40.042107" lon="-0.344635">
        <ele>291.1</ele>
        <time>2021-07-23T14:14:07.341Z</time>
      </trkpt>
      <trkpt lat="40.042103" lon="-0.344595">
        <ele>291.3</ele>
        <time>2021-07-23T14:14:08.665Z</time>
      </trkpt>
      <trkpt lat="40.042105" lon="-0.344565">
        <ele>291.4</ele>
        <time>2021-07-23T14:14:09.654Z</time>
      </trkpt>
      <trkpt lat="40.042103" lon="-0.344517">
        <ele>291.6</ele>
        <time>2021-07-23T14:14:11.232Z</time>
      </trkpt>
      <trkpt lat="40.042103" lon="-0.344485">
        <ele>291.7</ele>
        <time>2021-07-23T14:14:12.282Z</time>
      </trkpt>
      <trkpt lat="40.042110" lon="-0.344442">
        <ele>291.8</ele>
        <time>2021-07-23T14:14:13.725Z</time>
      </trkpt>
      <trkpt lat="40.042117" lon="-0.344407">
        <ele>292.0</ele>
        <time>2021-07-23T14:14:14.914Z</time>
      </trkpt>
      <trkpt lat="40.042122" lon="-0.344372">
        <ele>292.1</ele>
        <time>2021-07-23T14:14:16.109Z</time>
      </trkpt>
      <trkpt lat="40.042125" lon="-0.344335">
        <ele>292.2</ele>
        <time>2021-07-23T14:14:17.334Z</time>
      </trkpt>
      <trkpt lat="40.042130" lon="-0.344300">
        <ele>292.4</ele>
        <time>2021-07-23T14:14:18.503Z</time>
      </trkpt>
      <trkpt lat="40.042137" lon="-0.344263">
        <ele>292.5</ele>
        <time>2021-07-23T14:14:19.754Z</time>
      </trkpt>
      <trkpt lat="40.042138" lon="-0.344228">
        <ele>292.6</ele>
        <time>2021-07-23T14:14:20.903Z</time>
      </trkpt>
      <trkpt lat="40.042138" lon="-0.344197">
        <ele>292.7</ele>
        <time>2021-07-23T14:14:21.926Z</time>
      </trkpt>
      <trkpt lat="40.042138" lon="-0.344163">
        <ele>292.9</ele>
        <time>2021-07-23T14:14:23.043Z</time>
      </trkpt>
      <trkpt lat="40.042138" lon="-0.344130">
        <ele>293.0</ele>
        <time>2021-07-23T14:14:24.126Z</time>
      </trkpt>
      <trkpt lat="40.042138" lon="-0.344098">
        <ele>293.1</ele>
        <time>2021-07-23T14:14:25.176Z</time>
      </trkpt>
      <trkpt lat="40.042140" lon="-0.344063">
        <ele>293.2</ele>
        <time>2021-07-23T14:14:26.328Z</time>
      </trkpt>
      <trkpt lat="40.042140" lon="-0.344030">
        <ele>293.4</ele>
        <time>2021-07-23T14:14:27.412Z</time>
      </trkpt>
      <trkpt lat="40.042142" lon="-0.343997">
        <ele>293.5</ele>
        <time>2021-07-23T14:14:28.498Z</time>
      </trkpt>
      <trkpt lat="40.042143" lon="-0.343963">
        <ele>293.6</ele>
        <time>2021-07-23T14:14:29.615Z</time>
      </trkpt>
      <trkpt lat="40.042147" lon="-0.343930">
        <ele>293.7</ele>
        <time>2021-07-23T14:14:30.721Z</time>
      </trkpt>
      <trkpt lat="40.042148" lon="-0.343893">
        <ele>293.9</ele>
        <time>2021-07-23T14:14:31.963Z</time>
      </trkpt>
      <trkpt lat="40.042152" lon="-0.343865">
        <ele>294.0</ele>
        <time>2021-07-23T14:14:32.897Z</time>
      </trkpt>
      <trkpt lat="40.042158" lon="-0.343825">
        <ele>294.1</ele>
        <time>2021-07-23T14:14:34.237Z</time>
      </trkpt>
      <trkpt lat="40.042165" lon="-0.343798">
        <ele>294.2</ele>
        <time>2021-07-23T14:14:35.172Z</time>
      </trkpt>
      <trkpt lat="40.042168" lon="-0.343770">
        <ele>294.3</ele>
        <time>2021-07-23T14:14:36.099Z</time>
      </trkpt>
      <trkpt lat="40.042163" lon="-0.343742">
        <ele>294.4</ele>
        <time>2021-07-23T14:14:37.043Z</time>
      </trkpt>
      <trkpt lat="40.042155" lon="-0.343713">
        <ele>294.5</ele>
        <time>2021-07-23T14:14:38.057Z</time>
      </trkpt>
      <trkpt lat="40.042142" lon="-0.343690">
        <ele>294.6</ele>
        <time>2021-07-23T14:14:38.994Z</time>
      </trkpt>
      <trkpt lat="40.042118" lon="-0.343680">
        <ele>294.8</ele>
        <time>2021-07-23T14:14:40.071Z</time>
      </trkpt>
      <trkpt lat="40.042097" lon="-0.343682">
        <ele>294.9</ele>
        <time>2021-07-23T14:14:40.971Z</time>
      </trkpt>
      <trkpt lat="40.042072" lon="-0.343692">
        <ele>295.0</ele>
        <time>2021-07-23T14:14:42.088Z</time>
      </trkpt>
      <trkpt lat="40.042053" lon="-0.343713">
        <ele>295.1</ele>
        <time>2021-07-23T14:14:43.152Z</time>
      </trkpt>
      <trkpt lat="40.042037" lon="-0.343740">
        <ele>295.2</ele>
        <time>2021-07-23T14:14:44.272Z</time>
      </trkpt>
      <trkpt lat="40.042018" lon="-0.343773">
        <ele>295.4</ele>
        <time>2021-07-23T14:14:45.626Z</time>
      </trkpt>
      <trkpt lat="40.042002" lon="-0.343802">
        <ele>295.5</ele>
        <time>2021-07-23T14:14:46.900Z</time>
      </trkpt>
      <trkpt lat="40.041977" lon="-0.343837">
        <ele>295.7</ele>
        <time>2021-07-23T14:14:48.474Z</time>
      </trkpt>
      <trkpt lat="40.041962" lon="-0.343860">
        <ele>295.8</ele>
        <time>2021-07-23T14:14:49.464Z</time>
      </trkpt>
      <trkpt lat="40.041950" lon="-0.343895">
        <ele>295.9</ele>
        <time>2021-07-23T14:14:50.722Z</time>
      </trkpt>
      <trkpt lat="40.041937" lon="-0.343930">
        <ele>296.1</ele>
        <time>2021-07-23T14:14:51.998Z</time>
      </trkpt>
      <trkpt lat="40.041920" lon="-0.343962">
        <ele>296.2</ele>
        <time>2021-07-23T14:14:53.276Z</time>
      </trkpt>
      <trkpt lat="40.041902" lon="-0.343995">
        <ele>296.4</ele>
        <time>2021-07-23T14:14:54.605Z</time>
      </trkpt>
      <trkpt lat="40.041888" lon="-0.344028">
        <ele>296.5</ele>
        <time>2021-07-23T14:14:55.842Z</time>
      </trkpt>
      <trkpt lat="40.041873" lon="-0.344062">
        <ele>296.6</ele>
        <time>2021-07-23T14:14:57.129Z</time>
      </trkpt>
      <trkpt lat="40.041858" lon="-0.344097">
        <ele>296.7</ele>
        <time>2021-07-23T14:14:58.444Z</time>
      </trkpt>
      <trkpt lat="40.041840" lon="-0.344132">
        <ele>296.8</ele>
        <time>2021-07-23T14:14:59.827Z</time>
      </trkpt>
      <trkpt lat="40.041813" lon="-0.344163">
        <ele>296.9</ele>
        <time>2021-07-23T14:15:01.369Z</time>
      </trkpt>
      <trkpt lat="40.041795" lon="-0.344197">
        <ele>296.9</ele>
        <time>2021-07-23T14:15:02.805Z</time>
      </trkpt>
      <trkpt lat="40.041778" lon="-0.344225">
        <ele>297.0</ele>
        <time>2021-07-23T14:15:03.977Z</time>
      </trkpt>
      <trkpt lat="40.041763" lon="-0.344258">
        <ele>297.1</ele>
        <time>2021-07-23T14:15:05.235Z</time>
      </trkpt>
      <trkpt lat="40.041750" lon="-0.344292">
        <ele>297.1</ele>
        <time>2021-07-23T14:15:06.482Z</time>
      </trkpt>
      <trkpt lat="40.041735" lon="-0.344332">
        <ele>297.2</ele>
        <time>2021-07-23T14:15:07.943Z</time>
      </trkpt>
      <trkpt lat="40.041717" lon="-0.344382">
        <ele>297.3</ele>
        <time>2021-07-23T14:15:09.755Z</time>
      </trkpt>
      <trkpt lat="40.041705" lon="-0.344423">
        <ele>297.4</ele>
        <time>2021-07-23T14:15:11.195Z</time>
      </trkpt>
      <trkpt lat="40.041698" lon="-0.344463">
        <ele>297.5</ele>
        <time>2021-07-23T14:15:12.542Z</time>
      </trkpt>
      <trkpt lat="40.041685" lon="-0.344495">
        <ele>297.6</ele>
        <time>2021-07-23T14:15:13.730Z</time>
      </trkpt>
      <trkpt lat="40.041672" lon="-0.344530">
        <ele>297.6</ele>
        <time>2021-07-23T14:15:15.006Z</time>
      </trkpt>
      <trkpt lat="40.041652" lon="-0.344573">
        <ele>297.7</ele>
        <time>2021-07-23T14:15:16.657Z</time>
      </trkpt>
      <trkpt lat="40.041637" lon="-0.344620">
        <ele>297.8</ele>
        <time>2021-07-23T14:15:18.407Z</time>
      </trkpt>
      <trkpt lat="40.041622" lon="-0.344658">
        <ele>297.9</ele>
        <time>2021-07-23T14:15:19.810Z</time>
      </trkpt>
      <trkpt lat="40.041612" lon="-0.344690">
        <ele>298.0</ele>
        <time>2021-07-23T14:15:20.943Z</time>
      </trkpt>
      <trkpt lat="40.041603" lon="-0.344725">
        <ele>298.0</ele>
        <time>2021-07-23T14:15:22.155Z</time>
      </trkpt>
      <trkpt lat="40.041593" lon="-0.344760">
        <ele>298.1</ele>
        <time>2021-07-23T14:15:23.381Z</time>
      </trkpt>
      <trkpt lat="40.041583" lon="-0.344795">
        <ele>298.2</ele>
        <time>2021-07-23T14:15:24.606Z</time>
      </trkpt>
      <trkpt lat="40.041575" lon="-0.344822">
        <ele>298.2</ele>
        <time>2021-07-23T14:15:25.556Z</time>
      </trkpt>
      <trkpt lat="40.041562" lon="-0.344863">
        <ele>298.3</ele>
        <time>2021-07-23T14:15:27.012Z</time>
      </trkpt>
      <trkpt lat="40.041550" lon="-0.344900">
        <ele>298.4</ele>
        <time>2021-07-23T14:15:28.331Z</time>
      </trkpt>
      <trkpt lat="40.041538" lon="-0.344927">
        <ele>298.5</ele>
        <time>2021-07-23T14:15:29.355Z</time>
      </trkpt>
      <trkpt lat="40.041528" lon="-0.344967">
        <ele>298.5</ele>
        <time>2021-07-23T14:15:30.735Z</time>
      </trkpt>
      <trkpt lat="40.041517" lon="-0.345007">
        <ele>298.6</ele>
        <time>2021-07-23T14:15:32.130Z</time>
      </trkpt>
      <trkpt lat="40.041505" lon="-0.345050">
        <ele>298.7</ele>
        <time>2021-07-23T14:15:33.700Z</time>
      </trkpt>
      <trkpt lat="40.041492" lon="-0.345102">
        <ele>298.8</ele>
        <time>2021-07-23T14:15:35.494Z</time>
      </trkpt>
      <trkpt lat="40.041483" lon="-0.345138">
        <ele>298.9</ele>
        <time>2021-07-23T14:15:36.737Z</time>
      </trkpt>
      <trkpt lat="40.041473" lon="-0.345187">
        <ele>299.0</ele>
        <time>2021-07-23T14:15:38.402Z</time>
      </trkpt>
      <trkpt lat="40.041465" lon="-0.345237">
        <ele>299.1</ele>
        <time>2021-07-23T14:15:40.078Z</time>
      </trkpt>
      <trkpt lat="40.041457" lon="-0.345290">
        <ele>299.2</ele>
        <time>2021-07-23T14:15:41.852Z</time>
      </trkpt>
      <trkpt lat="40.041455" lon="-0.345345">
        <ele>299.3</ele>
        <time>2021-07-23T14:15:43.661Z</time>
      </trkpt>
      <trkpt lat="40.041450" lon="-0.345400">
        <ele>299.4</ele>
        <time>2021-07-23T14:15:45.479Z</time>
      </trkpt>
      <trkpt lat="40.041450" lon="-0.345467">
        <ele>299.5</ele>
        <time>2021-07-23T14:15:47.678Z</time>
      </trkpt>
      <trkpt lat="40.041463" lon="-0.345467">
        <ele>299.6</ele>
        <time>2021-07-23T14:15:48.305Z</time>
      </trkpt>
      <trkpt lat="40.041458" lon="-0.345761">
        <ele>300.1</ele>
        <time>2021-07-23T14:15:55.379Z</time>
      </trkpt>
      <trkpt lat="40.041264" lon="-0.346739">
        <ele>300.7</ele>
        <time>2021-07-23T14:16:21.138Z</time>
      </trkpt>
      <trkpt lat="40.041206" lon="-0.346856">
        <ele>300.6</ele>
        <time>2021-07-23T14:16:26.671Z</time>
      </trkpt>
      <trkpt lat="40.041120" lon="-0.346957">
        <ele>300.5</ele>
        <time>2021-07-23T14:16:29.902Z</time>
      </trkpt>
      <trkpt lat="40.041130" lon="-0.347082">
        <ele>300.4</ele>
        <time>2021-07-23T14:16:32.439Z</time>
      </trkpt>
      <trkpt lat="40.041330" lon="-0.347514">
        <ele>300.1</ele>
        <time>2021-07-23T14:16:44.147Z</time>
      </trkpt>
      <trkpt lat="40.041280" lon="-0.348198">
        <ele>299.7</ele>
        <time>2021-07-23T14:16:58.460Z</time>
      </trkpt>
      <trkpt lat="40.041341" lon="-0.348541">
        <ele>299.3</ele>
        <time>2021-07-23T14:17:06.082Z</time>
      </trkpt>
      <trkpt lat="40.041411" lon="-0.348681">
        <ele>299.1</ele>
        <time>2021-07-23T14:17:09.561Z</time>
      </trkpt>
      <trkpt lat="40.041490" lon="-0.348843">
        <ele>298.8</ele>
        <time>2021-07-23T14:17:13.903Z</time>
      </trkpt>
      <trkpt lat="40.041554" lon="-0.349152">
        <ele>298.3</ele>
        <time>2021-07-23T14:17:20.272Z</time>
      </trkpt>
      <trkpt lat="40.041318" lon="-0.349211">
        <ele>297.8</ele>
        <time>2021-07-23T14:17:27.679Z</time>
      </trkpt>
      <trkpt lat="40.041279" lon="-0.349333">
        <ele>297.6</ele>
        <time>2021-07-23T14:17:30.067Z</time>
      </trkpt>
      <trkpt lat="40.041459" lon="-0.350528">
        <ele>295.6</ele>
        <time>2021-07-23T14:17:56.188Z</time>
      </trkpt>
      <trkpt lat="40.041530" lon="-0.350556">
        <ele>295.4</ele>
        <time>2021-07-23T14:17:58.316Z</time>
      </trkpt>
      <trkpt lat="40.041570" lon="-0.350543">
        <ele>295.3</ele>
        <time>2021-07-23T14:17:59.293Z</time>
      </trkpt>
      <trkpt lat="40.041596" lon="-0.350571">
        <ele>295.2</ele>
        <time>2021-07-23T14:18:00.004Z</time>
      </trkpt>
      <trkpt lat="40.041585" lon="-0.351068">
        <ele>294.1</ele>
        <time>2021-07-23T14:18:10.214Z</time>
      </trkpt>
      <trkpt lat="40.041725" lon="-0.351279">
        <ele>293.5</ele>
        <time>2021-07-23T14:18:16.369Z</time>
      </trkpt>
      <trkpt lat="40.041897" lon="-0.351328">
        <ele>293.0</ele>
        <time>2021-07-23T14:18:20.736Z</time>
      </trkpt>
      <trkpt lat="40.042019" lon="-0.351558">
        <ele>292.4</ele>
        <time>2021-07-23T14:18:26.424Z</time>
      </trkpt>
      <trkpt lat="40.042043" lon="-0.351929">
        <ele>291.6</ele>
        <time>2021-07-23T14:18:33.543Z</time>
      </trkpt>
      <trkpt lat="40.042230" lon="-0.352462">
        <ele>290.6</ele>
        <time>2021-07-23T14:18:44.772Z</time>
      </trkpt>
      <trkpt lat="40.042429" lon="-0.352717">
        <ele>290.3</ele>
        <time>2021-07-23T14:18:52.307Z</time>
      </trkpt>
      <trkpt lat="40.042581" lon="-0.352948">
        <ele>290.1</ele>
        <time>2021-07-23T14:18:58.703Z</time>
      </trkpt>
      <trkpt lat="40.042746" lon="-0.353031">
        <ele>289.9</ele>
        <time>2021-07-23T14:19:03.913Z</time>
      </trkpt>
      <trkpt lat="40.042977" lon="-0.353043">
        <ele>289.6</ele>
        <time>2021-07-23T14:19:10.463Z</time>
      </trkpt>
      <trkpt lat="40.043250" lon="-0.352762">
        <ele>289.3</ele>
        <time>2021-07-23T14:19:21.074Z</time>
      </trkpt>
      <trkpt lat="40.043369" lon="-0.352773">
        <ele>289.1</ele>
        <time>2021-07-23T14:19:24.168Z</time>
      </trkpt>
      <trkpt lat="40.043530" lon="-0.352911">
        <ele>288.9</ele>
        <time>2021-07-23T14:19:28.327Z</time>
      </trkpt>
      <trkpt lat="40.043581" lon="-0.352930">
        <ele>288.9</ele>
        <time>2021-07-23T14:19:30.006Z</time>
      </trkpt>
      <trkpt lat="40.043716" lon="-0.352867">
        <ele>289.3</ele>
        <time>2021-07-23T14:19:36.104Z</time>
      </trkpt>
      <trkpt lat="40.044408" lon="-0.351887">
        <ele>292.0</ele>
        <time>2021-07-23T14:20:22.709Z</time>
      </trkpt>
      <trkpt lat="40.044839" lon="-0.351096">
        <ele>293.9</ele>
        <time>2021-07-23T14:21:00.977Z</time>
      </trkpt>
      <trkpt lat="40.044923" lon="-0.350752">
        <ele>294.3</ele>
        <time>2021-07-23T14:21:13.991Z</time>
      </trkpt>
      <trkpt lat="40.045585" lon="-0.349911">
        <ele>295.5</ele>
        <time>2021-07-23T14:21:51.721Z</time>
      </trkpt>
      <trkpt lat="40.046025" lon="-0.349693">
        <ele>296.1</ele>
        <time>2021-07-23T14:22:06.055Z</time>
      </trkpt>
      <trkpt lat="40.046619" lon="-0.349536">
        <ele>294.7</ele>
        <time>2021-07-23T14:22:22.318Z</time>
      </trkpt>
      <trkpt lat="40.046830" lon="-0.349373">
        <ele>294.2</ele>
        <time>2021-07-23T14:22:28.826Z</time>
      </trkpt>
      <trkpt lat="40.047072" lon="-0.349351">
        <ele>293.6</ele>
        <time>2021-07-23T14:22:35.147Z</time>
      </trkpt>
      <trkpt lat="40.047476" lon="-0.349190">
        <ele>292.6</ele>
        <time>2021-07-23T14:22:46.224Z</time>
      </trkpt>
      <trkpt lat="40.047604" lon="-0.349176">
        <ele>292.3</ele>
        <time>2021-07-23T14:22:49.485Z</time>
      </trkpt>
      <trkpt lat="40.047725" lon="-0.349734">
        <ele>291.6</ele>
        <time>2021-07-23T14:22:56.464Z</time>
      </trkpt>
      <trkpt lat="40.047798" lon="-0.350146">
        <ele>291.2</ele>
        <time>2021-07-23T14:23:01.661Z</time>
      </trkpt>
      <trkpt lat="40.048252" lon="-0.350518">
        <ele>290.5</ele>
        <time>2021-07-23T14:23:10.860Z</time>
      </trkpt>
      <trkpt lat="40.048825" lon="-0.350479">
        <ele>289.8</ele>
        <time>2021-07-23T14:23:21.854Z</time>
      </trkpt>
      <trkpt lat="40.048983" lon="-0.350387">
        <ele>289.8</ele>
        <time>2021-07-23T14:23:26.154Z</time>
      </trkpt>
      <trkpt lat="40.049339" lon="-0.350350">
        <ele>290.4</ele>
        <time>2021-07-23T14:23:35.355Z</time>
      </trkpt>
      <trkpt lat="40.049614" lon="-0.350573">
        <ele>291.0</ele>
        <time>2021-07-23T14:23:44.307Z</time>
      </trkpt>
      <trkpt lat="40.050054" lon="-0.350092">
        <ele>291.9</ele>
        <time>2021-07-23T14:24:01.450Z</time>
      </trkpt>
      <trkpt lat="40.050127" lon="-0.350125">
        <ele>292.1</ele>
        <time>2021-07-23T14:24:03.943Z</time>
      </trkpt>
      <trkpt lat="40.050342" lon="-0.350494">
        <ele>292.7</ele>
        <time>2021-07-23T14:24:15.518Z</time>
      </trkpt>
      <trkpt lat="40.050798" lon="-0.350927">
        <ele>294.1</ele>
        <time>2021-07-23T14:24:35.346Z</time>
      </trkpt>
      <trkpt lat="40.051110" lon="-0.350868">
        <ele>294.9</ele>
        <time>2021-07-23T14:24:46.612Z</time>
      </trkpt>
      <trkpt lat="40.051493" lon="-0.350962">
        <ele>295.9</ele>
        <time>2021-07-23T14:24:59.624Z</time>
      </trkpt>
      <trkpt lat="40.051613" lon="-0.351045">
        <ele>296.2</ele>
        <time>2021-07-23T14:25:03.989Z</time>
      </trkpt>
      <trkpt lat="40.051790" lon="-0.351333">
        <ele>296.9</ele>
        <time>2021-07-23T14:25:12.792Z</time>
      </trkpt>
      <trkpt lat="40.051895" lon="-0.351569">
        <ele>297.4</ele>
        <time>2021-07-23T14:25:19.455Z</time>
      </trkpt>
      <trkpt lat="40.051942" lon="-0.351573">
        <ele>297.4</ele>
        <time>2021-07-23T14:25:20.667Z</time>
      </trkpt>
      <trkpt lat="40.052026" lon="-0.351580">
        <ele>297.5</ele>
        <time>2021-07-23T14:25:22.814Z</time>
      </trkpt>
      <trkpt lat="40.052172" lon="-0.351526">
        <ele>297.7</ele>
        <time>2021-07-23T14:25:27.707Z</time>
      </trkpt>
      <trkpt lat="40.052403" lon="-0.351237">
        <ele>298.0</ele>
        <time>2021-07-23T14:25:36.644Z</time>
      </trkpt>
      <trkpt lat="40.052696" lon="-0.350647">
        <ele>298.6</ele>
        <time>2021-07-23T14:25:50.992Z</time>
      </trkpt>
      <trkpt lat="40.052849" lon="-0.350496">
        <ele>298.8</ele>
        <time>2021-07-23T14:25:55.457Z</time>
      </trkpt>
      <trkpt lat="40.052995" lon="-0.350349">
        <ele>299.0</ele>
        <time>2021-07-23T14:25:59.216Z</time>
      </trkpt>
      <trkpt lat="40.053257" lon="-0.350084">
        <ele>299.3</ele>
        <time>2021-07-23T14:26:05.494Z</time>
      </trkpt>
      <trkpt lat="40.053257" lon="-0.350084">
        <ele>299.3</ele>
        <time>2021-07-23T14:26:05.498Z</time>
      </trkpt>
      <trkpt lat="40.053525" lon="-0.349728">
        <ele>299.6</ele>
        <time>2021-07-23T14:26:12.948Z</time>
      </trkpt>
      <trkpt lat="40.053543" lon="-0.349692">
        <ele>299.7</ele>
        <time>2021-07-23T14:26:13.542Z</time>
      </trkpt>
      <trkpt lat="40.053648" lon="-0.349631">
        <ele>299.8</ele>
        <time>2021-07-23T14:26:15.770Z</time>
      </trkpt>
      <trkpt lat="40.053797" lon="-0.349575">
        <ele>299.9</ele>
        <time>2021-07-23T14:26:19.469Z</time>
      </trkpt>
      <trkpt lat="40.053881" lon="-0.349529">
        <ele>300.0</ele>
        <time>2021-07-23T14:26:21.198Z</time>
      </trkpt>
      <trkpt lat="40.053960" lon="-0.349498">
        <ele>300.0</ele>
        <time>2021-07-23T14:26:23.127Z</time>
      </trkpt>
      <trkpt lat="40.053960" lon="-0.349498">
        <ele>300.0</ele>
        <time>2021-07-23T14:26:23.131Z</time>
      </trkpt>
      <trkpt lat="40.053934" lon="-0.349327">
        <ele>300.2</ele>
        <time>2021-07-23T14:26:25.744Z</time>
      </trkpt>
      <trkpt lat="40.054354" lon="-0.349261">
        <ele>300.5</ele>
        <time>2021-07-23T14:26:39.591Z</time>
      </trkpt>
      <trkpt lat="40.054506" lon="-0.349134">
        <ele>300.7</ele>
        <time>2021-07-23T14:26:45.554Z</time>
      </trkpt>
      <trkpt lat="40.054553" lon="-0.349135">
        <ele>300.7</ele>
        <time>2021-07-23T14:26:46.396Z</time>
      </trkpt>
      <trkpt lat="40.054687" lon="-0.349129">
        <ele>301.1</ele>
        <time>2021-07-23T14:26:51.171Z</time>
      </trkpt>
      <trkpt lat="40.054953" lon="-0.349097">
        <ele>302.1</ele>
        <time>2021-07-23T14:26:58.736Z</time>
      </trkpt>
      <trkpt lat="40.055450" lon="-0.349448">
        <ele>304.3</ele>
        <time>2021-07-23T14:27:16.217Z</time>
      </trkpt>
      <trkpt lat="40.055481" lon="-0.349512">
        <ele>304.5</ele>
        <time>2021-07-23T14:27:19.295Z</time>
      </trkpt>
      <trkpt lat="40.055481" lon="-0.349512">
        <ele>304.5</ele>
        <time>2021-07-23T14:27:19.326Z</time>
      </trkpt>
      <trkpt lat="40.055492" lon="-0.349534">
        <ele>304.6</ele>
        <time>2021-07-23T14:27:19.764Z</time>
      </trkpt>
      <trkpt lat="40.055472" lon="-0.349585">
        <ele>304.8</ele>
        <time>2021-07-23T14:27:21.191Z</time>
      </trkpt>
      <trkpt lat="40.055463" lon="-0.349698">
        <ele>305.1</ele>
        <time>2021-07-23T14:27:24.931Z</time>
      </trkpt>
      <trkpt lat="40.055469" lon="-0.349868">
        <ele>305.6</ele>
        <time>2021-07-23T14:27:30.463Z</time>
      </trkpt>
      <trkpt lat="40.055796" lon="-0.349848">
        <ele>306.8</ele>
        <time>2021-07-23T14:27:45.742Z</time>
      </trkpt>
      <trkpt lat="40.055898" lon="-0.349812">
        <ele>307.2</ele>
        <time>2021-07-23T14:27:51.727Z</time>
      </trkpt>
      <trkpt lat="40.056144" lon="-0.349791">
        <ele>308.9</ele>
        <time>2021-07-23T14:28:03.700Z</time>
      </trkpt>
      <trkpt lat="40.056407" lon="-0.349791">
        <ele>311.2</ele>
        <time>2021-07-23T14:28:18.300Z</time>
      </trkpt>
      <trkpt lat="40.056813" lon="-0.350001">
        <ele>315.1</ele>
        <time>2021-07-23T14:28:51.096Z</time>
      </trkpt>
      <trkpt lat="40.057098" lon="-0.349979">
        <ele>317.7</ele>
        <time>2021-07-23T14:29:11.411Z</time>
      </trkpt>
      <trkpt lat="40.057429" lon="-0.350092">
        <ele>320.7</ele>
        <time>2021-07-23T14:29:38.101Z</time>
      </trkpt>
      <trkpt lat="40.057730" lon="-0.350001">
        <ele>323.4</ele>
        <time>2021-07-23T14:30:04.842Z</time>
      </trkpt>
      <trkpt lat="40.058031" lon="-0.350169">
        <ele>327.2</ele>
        <time>2021-07-23T14:30:39.643Z</time>
      </trkpt>
      <trkpt lat="40.058363" lon="-0.350620">
        <ele>332.9</ele>
        <time>2021-07-23T14:31:24.219Z</time>
      </trkpt>
      <trkpt lat="40.058577" lon="-0.351279">
        <ele>339.4</ele>
        <time>2021-07-23T14:32:17.404Z</time>
      </trkpt>
      <trkpt lat="40.058555" lon="-0.351393">
        <ele>340.5</ele>
        <time>2021-07-23T14:32:23.930Z</time>
      </trkpt>
      <trkpt lat="40.058441" lon="-0.351450">
        <ele>341.9</ele>
        <time>2021-07-23T14:32:32.814Z</time>
      </trkpt>
      <trkpt lat="40.058359" lon="-0.351459">
        <ele>342.9</ele>
        <time>2021-07-23T14:32:44.382Z</time>
      </trkpt>
      <trkpt lat="40.058013" lon="-0.351495">
        <ele>346.4</ele>
        <time>2021-07-23T14:33:12.185Z</time>
      </trkpt>
      <trkpt lat="40.057622" lon="-0.351212">
        <ele>350.2</ele>
        <time>2021-07-23T14:33:46.159Z</time>
      </trkpt>
      <trkpt lat="40.057452" lon="-0.351222">
        <ele>351.6</ele>
        <time>2021-07-23T14:33:56.196Z</time>
      </trkpt>
      <trkpt lat="40.057238" lon="-0.351381">
        <ele>353.7</ele>
        <time>2021-07-23T14:34:16.007Z</time>
      </trkpt>
      <trkpt lat="40.057135" lon="-0.351818">
        <ele>356.7</ele>
        <time>2021-07-23T14:34:41.638Z</time>
      </trkpt>
      <trkpt lat="40.057114" lon="-0.352560">
        <ele>361.7</ele>
        <time>2021-07-23T14:35:17.778Z</time>
      </trkpt>
      <trkpt lat="40.057026" lon="-0.352769">
        <ele>363.4</ele>
        <time>2021-07-23T14:35:30.549Z</time>
      </trkpt>
      <trkpt lat="40.056878" lon="-0.353630">
        <ele>369.6</ele>
        <time>2021-07-23T14:36:23.169Z</time>
      </trkpt>
      <trkpt lat="40.056743" lon="-0.353934">
        <ele>372.1</ele>
        <time>2021-07-23T14:36:45.477Z</time>
      </trkpt>
      <trkpt lat="40.056626" lon="-0.354014">
        <ele>373.3</ele>
        <time>2021-07-23T14:36:56.508Z</time>
      </trkpt>
      <trkpt lat="40.056460" lon="-0.354029">
        <ele>374.9</ele>
        <time>2021-07-23T14:37:10.760Z</time>
      </trkpt>
      <trkpt lat="40.056378" lon="-0.354193">
        <ele>376.3</ele>
        <time>2021-07-23T14:37:23.641Z</time>
      </trkpt>
      <trkpt lat="40.056343" lon="-0.354465">
        <ele>378.2</ele>
        <time>2021-07-23T14:37:42.140Z</time>
      </trkpt>
      <trkpt lat="40.056385" lon="-0.354736">
        <ele>380.1</ele>
        <time>2021-07-23T14:38:00.586Z</time>
      </trkpt>
      <trkpt lat="40.056488" lon="-0.354914">
        <ele>381.7</ele>
        <time>2021-07-23T14:38:15.119Z</time>
      </trkpt>
      <trkpt lat="40.056749" lon="-0.354992">
        <ele>384.1</ele>
        <time>2021-07-23T14:38:37.709Z</time>
      </trkpt>
      <trkpt lat="40.057315" lon="-0.355351">
        <ele>389.8</ele>
        <time>2021-07-23T14:39:25.993Z</time>
      </trkpt>
      <trkpt lat="40.057969" lon="-0.355475">
        <ele>395.1</ele>
        <time>2021-07-23T14:40:05.669Z</time>
      </trkpt>
      <trkpt lat="40.058048" lon="-0.355595">
        <ele>395.9</ele>
        <time>2021-07-23T14:40:16.365Z</time>
      </trkpt>
      <trkpt lat="40.058014" lon="-0.355785">
        <ele>397.0</ele>
        <time>2021-07-23T14:40:25.630Z</time>
      </trkpt>
      <trkpt lat="40.057857" lon="-0.355919">
        <ele>398.2</ele>
        <time>2021-07-23T14:40:37.137Z</time>
      </trkpt>
      <trkpt lat="40.057326" lon="-0.356171">
        <ele>402.1</ele>
        <time>2021-07-23T14:41:12.621Z</time>
      </trkpt>
      <trkpt lat="40.057262" lon="-0.356250">
        <ele>402.7</ele>
        <time>2021-07-23T14:41:14.758Z</time>
      </trkpt>
      <trkpt lat="40.057291" lon="-0.356328">
        <ele>403.1</ele>
        <time>2021-07-23T14:41:23.871Z</time>
      </trkpt>
      <trkpt lat="40.057365" lon="-0.356344">
        <ele>403.6</ele>
        <time>2021-07-23T14:41:28.964Z</time>
      </trkpt>
      <trkpt lat="40.057517" lon="-0.356236">
        <ele>404.8</ele>
        <time>2021-07-23T14:41:38.050Z</time>
      </trkpt>
      <trkpt lat="40.057671" lon="-0.356229">
        <ele>406.0</ele>
        <time>2021-07-23T14:41:50.789Z</time>
      </trkpt>
      <trkpt lat="40.057811" lon="-0.356295">
        <ele>407.4</ele>
        <time>2021-07-23T14:42:01.501Z</time>
      </trkpt>
      <trkpt lat="40.058347" lon="-0.356219">
        <ele>412.6</ele>
        <time>2021-07-23T14:42:43.814Z</time>
      </trkpt>
      <trkpt lat="40.058472" lon="-0.356325">
        <ele>414.0</ele>
        <time>2021-07-23T14:42:56.286Z</time>
      </trkpt>
      <trkpt lat="40.058643" lon="-0.356379">
        <ele>415.7</ele>
        <time>2021-07-23T14:43:09.188Z</time>
      </trkpt>
      <trkpt lat="40.058757" lon="-0.356345">
        <ele>416.8</ele>
        <time>2021-07-23T14:43:20.867Z</time>
      </trkpt>
      <trkpt lat="40.058865" lon="-0.356227">
        <ele>418.1</ele>
        <time>2021-07-23T14:43:33.220Z</time>
      </trkpt>
      <trkpt lat="40.058986" lon="-0.356219">
        <ele>419.3</ele>
        <time>2021-07-23T14:43:43.543Z</time>
      </trkpt>
      <trkpt lat="40.059032" lon="-0.356344">
        <ele>420.3</ele>
        <time>2021-07-23T14:43:52.258Z</time>
      </trkpt>
      <trkpt lat="40.059049" lon="-0.356890">
        <ele>424.3</ele>
        <time>2021-07-23T14:44:27.362Z</time>
      </trkpt>
      <trkpt lat="40.059022" lon="-0.357086">
        <ele>425.7</ele>
        <time>2021-07-23T14:44:39.886Z</time>
      </trkpt>
      <trkpt lat="40.058865" lon="-0.357342">
        <ele>428.1</ele>
        <time>2021-07-23T14:44:59.694Z</time>
      </trkpt>
      <trkpt lat="40.058866" lon="-0.357498">
        <ele>429.2</ele>
        <time>2021-07-23T14:45:09.489Z</time>
      </trkpt>
      <trkpt lat="40.059010" lon="-0.357975">
        <ele>432.9</ele>
        <time>2021-07-23T14:45:40.268Z</time>
      </trkpt>
      <trkpt lat="40.059261" lon="-0.358184">
        <ele>435.7</ele>
        <time>2021-07-23T14:46:02.899Z</time>
      </trkpt>
      <trkpt lat="40.059285" lon="-0.358219">
        <ele>436.1</ele>
        <time>2021-07-23T14:46:06.295Z</time>
      </trkpt>
      <trkpt lat="40.059509" lon="-0.358528">
        <ele>439.1</ele>
        <time>2021-07-23T14:46:30.499Z</time>
      </trkpt>
      <trkpt lat="40.059607" lon="-0.358574">
        <ele>440.2</ele>
        <time>2021-07-23T14:46:38.575Z</time>
      </trkpt>
      <trkpt lat="40.059685" lon="-0.358488">
        <ele>441.3</ele>
        <time>2021-07-23T14:46:46.043Z</time>
      </trkpt>
      <trkpt lat="40.059667" lon="-0.358361">
        <ele>442.4</ele>
        <time>2021-07-23T14:46:52.994Z</time>
      </trkpt>
      <trkpt lat="40.059565" lon="-0.358231">
        <ele>443.9</ele>
        <time>2021-07-23T14:47:04.168Z</time>
      </trkpt>
      <trkpt lat="40.059526" lon="-0.358086">
        <ele>445.2</ele>
        <time>2021-07-23T14:47:13.217Z</time>
      </trkpt>
      <trkpt lat="40.059514" lon="-0.357731">
        <ele>448.1</ele>
        <time>2021-07-23T14:47:35.383Z</time>
      </trkpt>
      <trkpt lat="40.059569" lon="-0.357619">
        <ele>449.2</ele>
        <time>2021-07-23T14:47:43.844Z</time>
      </trkpt>
      <trkpt lat="40.059707" lon="-0.357542">
        <ele>450.8</ele>
        <time>2021-07-23T14:47:56.584Z</time>
      </trkpt>
      <trkpt lat="40.060131" lon="-0.357530">
        <ele>455.4</ele>
        <time>2021-07-23T14:48:36.262Z</time>
      </trkpt>
      <trkpt lat="40.060181" lon="-0.357596">
        <ele>456.1</ele>
        <time>2021-07-23T14:48:42.911Z</time>
      </trkpt>
      <trkpt lat="40.060145" lon="-0.357826">
        <ele>458.1</ele>
        <time>2021-07-23T14:49:00.637Z</time>
      </trkpt>
      <trkpt lat="40.060279" lon="-0.357975">
        <ele>460.1</ele>
        <time>2021-07-23T14:49:16.787Z</time>
      </trkpt>
      <trkpt lat="40.060397" lon="-0.358016">
        <ele>461.5</ele>
        <time>2021-07-23T14:49:28.444Z</time>
      </trkpt>
      <trkpt lat="40.060737" lon="-0.358292">
        <ele>466.4</ele>
        <time>2021-07-23T14:50:07.714Z</time>
      </trkpt>
      <trkpt lat="40.061034" lon="-0.358367">
        <ele>470.0</ele>
        <time>2021-07-23T14:50:35.471Z</time>
      </trkpt>
      <trkpt lat="40.061091" lon="-0.358413">
        <ele>470.8</ele>
        <time>2021-07-23T14:50:42.945Z</time>
      </trkpt>
      <trkpt lat="40.061496" lon="-0.358734">
        <ele>476.5</ele>
        <time>2021-07-23T14:51:25.919Z</time>
      </trkpt>
      <trkpt lat="40.061682" lon="-0.359000">
        <ele>479.8</ele>
        <time>2021-07-23T14:51:53.528Z</time>
      </trkpt>
      <trkpt lat="40.061787" lon="-0.359018">
        <ele>480.7</ele>
        <time>2021-07-23T14:52:03.007Z</time>
      </trkpt>
      <trkpt lat="40.061926" lon="-0.358811">
        <ele>481.5</ele>
        <time>2021-07-23T14:52:20.796Z</time>
      </trkpt>
      <trkpt lat="40.062060" lon="-0.358816">
        <ele>482.0</ele>
        <time>2021-07-23T14:52:27.986Z</time>
      </trkpt>
      <trkpt lat="40.062324" lon="-0.358961">
        <ele>483.2</ele>
        <time>2021-07-23T14:52:45.980Z</time>
      </trkpt>
      <trkpt lat="40.062573" lon="-0.359182">
        <ele>484.3</ele>
        <time>2021-07-23T14:53:02.997Z</time>
      </trkpt>
      <trkpt lat="40.062682" lon="-0.359174">
        <ele>484.8</ele>
        <time>2021-07-23T14:53:05.948Z</time>
      </trkpt>
      <trkpt lat="40.062704" lon="-0.359121">
        <ele>485.0</ele>
        <time>2021-07-23T14:53:09.352Z</time>
      </trkpt>
      <trkpt lat="40.062732" lon="-0.359054">
        <ele>485.2</ele>
        <time>2021-07-23T14:53:14.487Z</time>
      </trkpt>
      <trkpt lat="40.062602" lon="-0.358797">
        <ele>486.1</ele>
        <time>2021-07-23T14:53:20.705Z</time>
      </trkpt>
      <trkpt lat="40.062732" lon="-0.359054">
        <ele>487.1</ele>
        <time>2021-07-23T14:53:31.412Z</time>
      </trkpt>
      <trkpt lat="40.062704" lon="-0.359121">
        <ele>487.3</ele>
        <time>2021-07-23T14:53:32.654Z</time>
      </trkpt>
      <trkpt lat="40.062682" lon="-0.359174">
        <ele>487.5</ele>
        <time>2021-07-23T14:53:33.665Z</time>
      </trkpt>
      <trkpt lat="40.062573" lon="-0.359182">
        <ele>487.3</ele>
        <time>2021-07-23T14:53:38.438Z</time>
      </trkpt>
      <trkpt lat="40.062324" lon="-0.358961">
        <ele>486.6</ele>
        <time>2021-07-23T14:53:45.701Z</time>
      </trkpt>
      <trkpt lat="40.062060" lon="-0.358816">
        <ele>485.9</ele>
        <time>2021-07-23T14:53:53.119Z</time>
      </trkpt>
      <trkpt lat="40.061926" lon="-0.358811">
        <ele>485.6</ele>
        <time>2021-07-23T14:53:57.013Z</time>
      </trkpt>
      <trkpt lat="40.061787" lon="-0.359018">
        <ele>485.1</ele>
        <time>2021-07-23T14:54:02.274Z</time>
      </trkpt>
      <trkpt lat="40.061682" lon="-0.359000">
        <ele>484.8</ele>
        <time>2021-07-23T14:54:04.737Z</time>
      </trkpt>
      <trkpt lat="40.061496" lon="-0.358734">
        <ele>484.1</ele>
        <time>2021-07-23T14:54:11.421Z</time>
      </trkpt>
      <trkpt lat="40.061091" lon="-0.358413">
        <ele>483.5</ele>
        <time>2021-07-23T14:54:24.949Z</time>
      </trkpt>
      <trkpt lat="40.061496" lon="-0.358734">
        <ele>485.8</ele>
        <time>2021-07-23T14:54:43.153Z</time>
      </trkpt>
      <trkpt lat="40.061682" lon="-0.359000">
        <ele>487.1</ele>
        <time>2021-07-23T14:54:58.958Z</time>
      </trkpt>
      <trkpt lat="40.061787" lon="-0.359018">
        <ele>487.6</ele>
        <time>2021-07-23T14:55:05.743Z</time>
      </trkpt>
      <trkpt lat="40.061926" lon="-0.358811">
        <ele>488.6</ele>
        <time>2021-07-23T14:55:19.302Z</time>
      </trkpt>
      <trkpt lat="40.062060" lon="-0.358816">
        <ele>489.3</ele>
        <time>2021-07-23T14:55:28.014Z</time>
      </trkpt>
      <trkpt lat="40.062324" lon="-0.358961">
        <ele>490.6</ele>
        <time>2021-07-23T14:55:48.366Z</time>
      </trkpt>
      <trkpt lat="40.062573" lon="-0.359182">
        <ele>492.3</ele>
        <time>2021-07-23T14:56:12.055Z</time>
      </trkpt>
      <trkpt lat="40.062682" lon="-0.359174">
        <ele>493.2</ele>
        <time>2021-07-23T14:56:19.231Z</time>
      </trkpt>
      <trkpt lat="40.062704" lon="-0.359121">
        <ele>493.5</ele>
        <time>2021-07-23T14:56:23.695Z</time>
      </trkpt>
      <trkpt lat="40.062732" lon="-0.359054">
        <ele>494.0</ele>
        <time>2021-07-23T14:56:30.179Z</time>
      </trkpt>
      <trkpt lat="40.062601" lon="-0.358795">
        <ele>495.9</ele>
        <time>2021-07-23T14:56:45.491Z</time>
      </trkpt>
      <trkpt lat="40.062230" lon="-0.358461">
        <ele>499.5</ele>
        <time>2021-07-23T14:57:20.133Z</time>
      </trkpt>
      <trkpt lat="40.062161" lon="-0.358305">
        <ele>500.6</ele>
        <time>2021-07-23T14:57:29.922Z</time>
      </trkpt>
      <trkpt lat="40.062205" lon="-0.358237">
        <ele>501.2</ele>
        <time>2021-07-23T14:57:34.046Z</time>
      </trkpt>
      <trkpt lat="40.062423" lon="-0.358245">
        <ele>502.9</ele>
        <time>2021-07-23T14:57:51.040Z</time>
      </trkpt>
      <trkpt lat="40.062466" lon="-0.358178">
        <ele>503.5</ele>
        <time>2021-07-23T14:57:55.251Z</time>
      </trkpt>
      <trkpt lat="40.062441" lon="-0.358029">
        <ele>504.4</ele>
        <time>2021-07-23T14:58:02.308Z</time>
      </trkpt>
      <trkpt lat="40.062173" lon="-0.357665">
        <ele>507.2</ele>
        <time>2021-07-23T14:58:29.955Z</time>
      </trkpt>
      <trkpt lat="40.061830" lon="-0.357502">
        <ele>509.3</ele>
        <time>2021-07-23T14:58:51.853Z</time>
      </trkpt>
      <trkpt lat="40.061699" lon="-0.357201">
        <ele>510.9</ele>
        <time>2021-07-23T14:59:08.124Z</time>
      </trkpt>
      <trkpt lat="40.061595" lon="-0.357084">
        <ele>511.7</ele>
        <time>2021-07-23T14:59:16.284Z</time>
      </trkpt>
      <trkpt lat="40.061612" lon="-0.356971">
        <ele>512.2</ele>
        <time>2021-07-23T14:59:21.622Z</time>
      </trkpt>
      <trkpt lat="40.061695" lon="-0.356946">
        <ele>512.7</ele>
        <time>2021-07-23T14:59:27.016Z</time>
      </trkpt>
      <trkpt lat="40.062001" lon="-0.357058">
        <ele>514.6</ele>
        <time>2021-07-23T14:59:46.202Z</time>
      </trkpt>
      <trkpt lat="40.062172" lon="-0.356971">
        <ele>515.7</ele>
        <time>2021-07-23T14:59:56.929Z</time>
      </trkpt>
      <trkpt lat="40.062436" lon="-0.356360">
        <ele>518.4</ele>
        <time>2021-07-23T15:00:27.719Z</time>
      </trkpt>
      <trkpt lat="40.062512" lon="-0.355990">
        <ele>519.7</ele>
        <time>2021-07-23T15:00:44.006Z</time>
      </trkpt>
      <trkpt lat="40.062629" lon="-0.355862">
        <ele>520.4</ele>
        <time>2021-07-23T15:00:52.513Z</time>
      </trkpt>
      <trkpt lat="40.062814" lon="-0.355848">
        <ele>521.2</ele>
        <time>2021-07-23T15:01:02.552Z</time>
      </trkpt>
      <trkpt lat="40.062872" lon="-0.355769">
        <ele>521.6</ele>
        <time>2021-07-23T15:01:07.008Z</time>
      </trkpt>
      <trkpt lat="40.062796" lon="-0.355442">
        <ele>522.7</ele>
        <time>2021-07-23T15:01:20.534Z</time>
      </trkpt>
      <trkpt lat="40.062623" lon="-0.355254">
        <ele>523.7</ele>
        <time>2021-07-23T15:01:31.842Z</time>
      </trkpt>
      <trkpt lat="40.062434" lon="-0.354861">
        <ele>525.4</ele>
        <time>2021-07-23T15:01:49.664Z</time>
      </trkpt>
      <trkpt lat="40.062335" lon="-0.354238">
        <ele>527.9</ele>
        <time>2021-07-23T15:02:14.686Z</time>
      </trkpt>
      <trkpt lat="40.062369" lon="-0.353895">
        <ele>529.2</ele>
        <time>2021-07-23T15:02:29.086Z</time>
      </trkpt>
      <trkpt lat="40.062474" lon="-0.353832">
        <ele>529.8</ele>
        <time>2021-07-23T15:02:35.569Z</time>
      </trkpt>
      <trkpt lat="40.062642" lon="-0.353950">
        <ele>530.8</ele>
        <time>2021-07-23T15:02:46.805Z</time>
      </trkpt>
      <trkpt lat="40.062681" lon="-0.354257">
        <ele>532.0</ele>
        <time>2021-07-23T15:03:00.788Z</time>
      </trkpt>
      <trkpt lat="40.062771" lon="-0.354281">
        <ele>532.4</ele>
        <time>2021-07-23T15:03:06.439Z</time>
      </trkpt>
      <trkpt lat="40.062962" lon="-0.353924">
        <ele>534.2</ele>
        <time>2021-07-23T15:03:27.612Z</time>
      </trkpt>
      <trkpt lat="40.062991" lon="-0.353535">
        <ele>536.6</ele>
        <time>2021-07-23T15:03:48.004Z</time>
      </trkpt>
      <trkpt lat="40.063089" lon="-0.353303">
        <ele>538.3</ele>
        <time>2021-07-23T15:04:02.590Z</time>
      </trkpt>
      <trkpt lat="40.063359" lon="-0.353015">
        <ele>541.1</ele>
        <time>2021-07-23T15:04:27.763Z</time>
      </trkpt>
      <trkpt lat="40.063598" lon="-0.352471">
        <ele>545.0</ele>
        <time>2021-07-23T15:05:03.067Z</time>
      </trkpt>
      <trkpt lat="40.063705" lon="-0.352566">
        <ele>546.0</ele>
        <time>2021-07-23T15:05:13.202Z</time>
      </trkpt>
      <trkpt lat="40.063601" lon="-0.352802">
        <ele>547.7</ele>
        <time>2021-07-23T15:05:28.794Z</time>
      </trkpt>
      <trkpt lat="40.063595" lon="-0.352946">
        <ele>548.6</ele>
        <time>2021-07-23T15:05:37.181Z</time>
      </trkpt>
      <trkpt lat="40.063424" lon="-0.353351">
        <ele>551.5</ele>
        <time>2021-07-23T15:06:05.954Z</time>
      </trkpt>
      <trkpt lat="40.063340" lon="-0.353781">
        <ele>554.2</ele>
        <time>2021-07-23T15:06:33.279Z</time>
      </trkpt>
      <trkpt lat="40.063390" lon="-0.354046">
        <ele>555.9</ele>
        <time>2021-07-23T15:06:48.987Z</time>
      </trkpt>
      <trkpt lat="40.063339" lon="-0.354436">
        <ele>558.3</ele>
        <time>2021-07-23T15:07:12.028Z</time>
      </trkpt>
      <trkpt lat="40.063446" lon="-0.354595">
        <ele>559.6</ele>
        <time>2021-07-23T15:07:22.783Z</time>
      </trkpt>
      <trkpt lat="40.063718" lon="-0.354807">
        <ele>562.2</ele>
        <time>2021-07-23T15:07:42.040Z</time>
      </trkpt>
      <trkpt lat="40.063815" lon="-0.354983">
        <ele>563.3</ele>
        <time>2021-07-23T15:07:53.644Z</time>
      </trkpt>
      <trkpt lat="40.063907" lon="-0.355239">
        <ele>564.1</ele>
        <time>2021-07-23T15:08:05.008Z</time>
      </trkpt>
      <trkpt lat="40.064093" lon="-0.355611">
        <ele>565.5</ele>
        <time>2021-07-23T15:08:23.979Z</time>
      </trkpt>
      <trkpt lat="40.064301" lon="-0.355749">
        <ele>566.4</ele>
        <time>2021-07-23T15:08:37.658Z</time>
      </trkpt>
      <trkpt lat="40.064386" lon="-0.355899">
        <ele>567.0</ele>
        <time>2021-07-23T15:08:44.423Z</time>
      </trkpt>
      <trkpt lat="40.064363" lon="-0.356116">
        <ele>567.7</ele>
        <time>2021-07-23T15:08:54.229Z</time>
      </trkpt>
      <trkpt lat="40.064168" lon="-0.356401">
        <ele>568.8</ele>
        <time>2021-07-23T15:09:08.241Z</time>
      </trkpt>
      <trkpt lat="40.063927" lon="-0.357116">
        <ele>570.7</ele>
        <time>2021-07-23T15:09:31.067Z</time>
      </trkpt>
      <trkpt lat="40.064047" lon="-0.357542">
        <ele>571.3</ele>
        <time>2021-07-23T15:09:44.680Z</time>
      </trkpt>
      <trkpt lat="40.064185" lon="-0.357953">
        <ele>572.0</ele>
        <time>2021-07-23T15:09:59.235Z</time>
      </trkpt>
      <trkpt lat="40.064832" lon="-0.358611">
        <ele>573.5</ele>
        <time>2021-07-23T15:10:34.099Z</time>
      </trkpt>
      <trkpt lat="40.065075" lon="-0.359333">
        <ele>574.9</ele>
        <time>2021-07-23T15:10:57.485Z</time>
      </trkpt>
      <trkpt lat="40.064885" lon="-0.360194">
        <ele>576.5</ele>
        <time>2021-07-23T15:11:25.620Z</time>
      </trkpt>
      <trkpt lat="40.064918" lon="-0.360482">
        <ele>577.0</ele>
        <time>2021-07-23T15:11:36.053Z</time>
      </trkpt>
      <trkpt lat="40.065086" lon="-0.360801">
        <ele>577.7</ele>
        <time>2021-07-23T15:11:50.534Z</time>
      </trkpt>
      <trkpt lat="40.065096" lon="-0.361122">
        <ele>578.9</ele>
        <time>2021-07-23T15:12:02.911Z</time>
      </trkpt>
      <trkpt lat="40.065028" lon="-0.361419">
        <ele>580.1</ele>
        <time>2021-07-23T15:12:15.501Z</time>
      </trkpt>
      <trkpt lat="40.064834" lon="-0.361683">
        <ele>581.6</ele>
        <time>2021-07-23T15:12:30.126Z</time>
      </trkpt>
      <trkpt lat="40.064619" lon="-0.361841">
        <ele>582.8</ele>
        <time>2021-07-23T15:12:43.223Z</time>
      </trkpt>
      <trkpt lat="40.064581" lon="-0.362065">
        <ele>583.7</ele>
        <time>2021-07-23T15:12:53.903Z</time>
      </trkpt>
      <trkpt lat="40.064449" lon="-0.362236">
        <ele>584.7</ele>
        <time>2021-07-23T15:13:04.395Z</time>
      </trkpt>
      <trkpt lat="40.064463" lon="-0.362455">
        <ele>585.6</ele>
        <time>2021-07-23T15:13:15.809Z</time>
      </trkpt>
      <trkpt lat="40.064635" lon="-0.362602">
        <ele>586.6</ele>
        <time>2021-07-23T15:13:29.218Z</time>
      </trkpt>
      <trkpt lat="40.064809" lon="-0.362593">
        <ele>587.7</ele>
        <time>2021-07-23T15:13:41.887Z</time>
      </trkpt>
      <trkpt lat="40.065233" lon="-0.362754">
        <ele>590.8</ele>
        <time>2021-07-23T15:14:13.330Z</time>
      </trkpt>
      <trkpt lat="40.065434" lon="-0.363108">
        <ele>593.1</ele>
        <time>2021-07-23T15:14:37.022Z</time>
      </trkpt>
      <trkpt lat="40.065762" lon="-0.363465">
        <ele>596.1</ele>
        <time>2021-07-23T15:15:05.011Z</time>
      </trkpt>
      <trkpt lat="40.066239" lon="-0.364330">
        <ele>601.8</ele>
        <time>2021-07-23T15:15:56.643Z</time>
      </trkpt>
      <trkpt lat="40.066281" lon="-0.364587">
        <ele>603.1</ele>
        <time>2021-07-23T15:16:09.307Z</time>
      </trkpt>
      <trkpt lat="40.066251" lon="-0.364949">
        <ele>605.0</ele>
        <time>2021-07-23T15:16:27.699Z</time>
      </trkpt>
      <trkpt lat="40.066529" lon="-0.365590">
        <ele>608.9</ele>
        <time>2021-07-23T15:17:05.068Z</time>
      </trkpt>
      <trkpt lat="40.066546" lon="-0.365733">
        <ele>609.6</ele>
        <time>2021-07-23T15:17:12.326Z</time>
      </trkpt>
      <trkpt lat="40.066216" lon="-0.366216">
        <ele>613.2</ele>
        <time>2021-07-23T15:17:45.109Z</time>
      </trkpt>
      <trkpt lat="40.066233" lon="-0.366383">
        <ele>614.2</ele>
        <time>2021-07-23T15:17:53.997Z</time>
      </trkpt>
      <trkpt lat="40.066826" lon="-0.366910">
        <ele>619.8</ele>
        <time>2021-07-23T15:18:49.755Z</time>
      </trkpt>
      <trkpt lat="40.067067" lon="-0.366894">
        <ele>621.7</ele>
        <time>2021-07-23T15:19:08.897Z</time>
      </trkpt>
      <trkpt lat="40.067499" lon="-0.367162">
        <ele>625.4</ele>
        <time>2021-07-23T15:19:40.550Z</time>
      </trkpt>
      <trkpt lat="40.067580" lon="-0.367254">
        <ele>626.0</ele>
        <time>2021-07-23T15:19:49.958Z</time>
      </trkpt>
      <trkpt lat="40.067507" lon="-0.367407">
        <ele>626.4</ele>
        <time>2021-07-23T15:19:57.480Z</time>
      </trkpt>
      <trkpt lat="40.067517" lon="-0.367787">
        <ele>627.0</ele>
        <time>2021-07-23T15:20:15.032Z</time>
      </trkpt>
      <trkpt lat="40.067597" lon="-0.367870">
        <ele>627.2</ele>
        <time>2021-07-23T15:20:18.621Z</time>
      </trkpt>
      <trkpt lat="40.068044" lon="-0.367969">
        <ele>628.3</ele>
        <time>2021-07-23T15:20:35.973Z</time>
      </trkpt>
      <trkpt lat="40.068106" lon="-0.368032">
        <ele>628.5</ele>
        <time>2021-07-23T15:20:40.904Z</time>
      </trkpt>
      <trkpt lat="40.068144" lon="-0.368181">
        <ele>628.7</ele>
        <time>2021-07-23T15:20:45.144Z</time>
      </trkpt>
      <trkpt lat="40.068017" lon="-0.368304">
        <ele>629.1</ele>
        <time>2021-07-23T15:20:49.592Z</time>
      </trkpt>
      <trkpt lat="40.067945" lon="-0.368455">
        <ele>629.4</ele>
        <time>2021-07-23T15:20:56.480Z</time>
      </trkpt>
      <trkpt lat="40.068010" lon="-0.368983">
        <ele>629.9</ele>
        <time>2021-07-23T15:21:07.933Z</time>
      </trkpt>
      <trkpt lat="40.067921" lon="-0.369178">
        <ele>629.8</ele>
        <time>2021-07-23T15:21:12.640Z</time>
      </trkpt>
      <trkpt lat="40.067863" lon="-0.369374">
        <ele>629.7</ele>
        <time>2021-07-23T15:21:17.275Z</time>
      </trkpt>
      <trkpt lat="40.067807" lon="-0.369471">
        <ele>629.6</ele>
        <time>2021-07-23T15:21:19.972Z</time>
      </trkpt>
      <trkpt lat="40.067416" lon="-0.369623">
        <ele>629.3</ele>
        <time>2021-07-23T15:21:31.870Z</time>
      </trkpt>
      <trkpt lat="40.067164" lon="-0.369933">
        <ele>629.0</ele>
        <time>2021-07-23T15:21:42.257Z</time>
      </trkpt>
      <trkpt lat="40.066801" lon="-0.370185">
        <ele>628.7</ele>
        <time>2021-07-23T15:21:54.404Z</time>
      </trkpt>
      <trkpt lat="40.066546" lon="-0.370543">
        <ele>628.3</ele>
        <time>2021-07-23T15:22:06.420Z</time>
      </trkpt>
      <trkpt lat="40.066447" lon="-0.370838">
        <ele>628.1</ele>
        <time>2021-07-23T15:22:15.052Z</time>
      </trkpt>
      <trkpt lat="40.066369" lon="-0.371461">
        <ele>627.5</ele>
        <time>2021-07-23T15:22:30.539Z</time>
      </trkpt>
      <trkpt lat="40.066381" lon="-0.371548">
        <ele>627.4</ele>
        <time>2021-07-23T15:22:32.562Z</time>
      </trkpt>
      <trkpt lat="40.066489" lon="-0.371618">
        <ele>627.3</ele>
        <time>2021-07-23T15:22:36.118Z</time>
      </trkpt>
      <trkpt lat="40.066516" lon="-0.371719">
        <ele>627.2</ele>
        <time>2021-07-23T15:22:38.467Z</time>
      </trkpt>
      <trkpt lat="40.066316" lon="-0.372258">
        <ele>626.7</ele>
        <time>2021-07-23T15:22:50.823Z</time>
      </trkpt>
      <trkpt lat="40.066204" lon="-0.372304">
        <ele>626.3</ele>
        <time>2021-07-23T15:22:53.791Z</time>
      </trkpt>
      <trkpt lat="40.065504" lon="-0.372182">
        <ele>623.2</ele>
        <time>2021-07-23T15:23:10.959Z</time>
      </trkpt>
      <trkpt lat="40.065292" lon="-0.372202">
        <ele>622.2</ele>
        <time>2021-07-23T15:23:16.034Z</time>
      </trkpt>
      <trkpt lat="40.065216" lon="-0.372249">
        <ele>621.9</ele>
        <time>2021-07-23T15:23:18.068Z</time>
      </trkpt>
      <trkpt lat="40.065131" lon="-0.372441">
        <ele>621.1</ele>
        <time>2021-07-23T15:23:22.178Z</time>
      </trkpt>
      <trkpt lat="40.064844" lon="-0.372604">
        <ele>619.7</ele>
        <time>2021-07-23T15:23:29.775Z</time>
      </trkpt>
      <trkpt lat="40.064777" lon="-0.372742">
        <ele>619.2</ele>
        <time>2021-07-23T15:23:32.813Z</time>
      </trkpt>
      <trkpt lat="40.064757" lon="-0.372994">
        <ele>618.3</ele>
        <time>2021-07-23T15:23:37.562Z</time>
      </trkpt>
      <trkpt lat="40.064708" lon="-0.373027">
        <ele>618.0</ele>
        <time>2021-07-23T15:23:38.925Z</time>
      </trkpt>
      <trkpt lat="40.064529" lon="-0.372852">
        <ele>617.0</ele>
        <time>2021-07-23T15:23:44.328Z</time>
      </trkpt>
      <trkpt lat="40.064168" lon="-0.372091">
        <ele>613.7</ele>
        <time>2021-07-23T15:24:00.914Z</time>
      </trkpt>
      <trkpt lat="40.063872" lon="-0.371894">
        <ele>612.1</ele>
        <time>2021-07-23T15:24:09.035Z</time>
      </trkpt>
      <trkpt lat="40.063545" lon="-0.371877">
        <ele>610.6</ele>
        <time>2021-07-23T15:24:17.114Z</time>
      </trkpt>
      <trkpt lat="40.063368" lon="-0.371771">
        <ele>609.5</ele>
        <time>2021-07-23T15:24:21.885Z</time>
      </trkpt>
      <trkpt lat="40.063301" lon="-0.371596">
        <ele>608.6</ele>
        <time>2021-07-23T15:24:25.567Z</time>
      </trkpt>
      <trkpt lat="40.063242" lon="-0.371066">
        <ele>606.1</ele>
        <time>2021-07-23T15:24:35.389Z</time>
      </trkpt>
      <trkpt lat="40.062571" lon="-0.369762">
        <ele>598.7</ele>
        <time>2021-07-23T15:25:02.969Z</time>
      </trkpt>
      <trkpt lat="40.062221" lon="-0.369473">
        <ele>595.8</ele>
        <time>2021-07-23T15:25:12.305Z</time>
      </trkpt>
      <trkpt lat="40.062005" lon="-0.369388">
        <ele>594.1</ele>
        <time>2021-07-23T15:25:17.418Z</time>
      </trkpt>
      <trkpt lat="40.061751" lon="-0.369420">
        <ele>592.3</ele>
        <time>2021-07-23T15:25:23.176Z</time>
      </trkpt>
      <trkpt lat="40.061587" lon="-0.369545">
        <ele>590.9</ele>
        <time>2021-07-23T15:25:27.468Z</time>
      </trkpt>
      <trkpt lat="40.061050" lon="-0.369611">
        <ele>587.0</ele>
        <time>2021-07-23T15:25:39.682Z</time>
      </trkpt>
      <trkpt lat="40.060945" lon="-0.369881">
        <ele>585.2</ele>
        <time>2021-07-23T15:25:44.937Z</time>
      </trkpt>
      <trkpt lat="40.061115" lon="-0.370167">
        <ele>582.8</ele>
        <time>2021-07-23T15:25:51.265Z</time>
      </trkpt>
      <trkpt lat="40.061115" lon="-0.370281">
        <ele>582.0</ele>
        <time>2021-07-23T15:25:53.250Z</time>
      </trkpt>
      <trkpt lat="40.060982" lon="-0.370492">
        <ele>580.2</ele>
        <time>2021-07-23T15:25:57.909Z</time>
      </trkpt>
      <trkpt lat="40.060854" lon="-0.370587">
        <ele>578.9</ele>
        <time>2021-07-23T15:26:01.204Z</time>
      </trkpt>
      <trkpt lat="40.060453" lon="-0.370683">
        <ele>575.4</ele>
        <time>2021-07-23T15:26:10.091Z</time>
      </trkpt>
      <trkpt lat="40.059784" lon="-0.370691">
        <ele>569.3</ele>
        <time>2021-07-23T15:26:24.452Z</time>
      </trkpt>
      <trkpt lat="40.059525" lon="-0.370778">
        <ele>566.3</ele>
        <time>2021-07-23T15:26:30.120Z</time>
      </trkpt>
      <trkpt lat="40.058774" lon="-0.370400">
        <ele>557.3</ele>
        <time>2021-07-23T15:26:47.014Z</time>
      </trkpt>
      <trkpt lat="40.058514" lon="-0.370198">
        <ele>554.0</ele>
        <time>2021-07-23T15:26:53.319Z</time>
      </trkpt>
      <trkpt lat="40.058267" lon="-0.369898">
        <ele>550.3</ele>
        <time>2021-07-23T15:27:00.366Z</time>
      </trkpt>
      <trkpt lat="40.057282" lon="-0.370269">
        <ele>542.7</ele>
        <time>2021-07-23T15:27:22.495Z</time>
      </trkpt>
      <trkpt lat="40.057127" lon="-0.370411">
        <ele>541.3</ele>
        <time>2021-07-23T15:27:26.934Z</time>
      </trkpt>
      <trkpt lat="40.056749" lon="-0.370287">
        <ele>538.4</ele>
        <time>2021-07-23T15:27:36.541Z</time>
      </trkpt>
      <trkpt lat="40.056567" lon="-0.370150">
        <ele>537.2</ele>
        <time>2021-07-23T15:27:41.501Z</time>
      </trkpt>
      <trkpt lat="40.056567" lon="-0.370150">
        <ele>537.2</ele>
        <time>2021-07-23T15:27:41.511Z</time>
      </trkpt>
      <trkpt lat="40.056395" lon="-0.369918">
        <ele>537.6</ele>
        <time>2021-07-23T15:27:50.765Z</time>
      </trkpt>
      <trkpt lat="40.056311" lon="-0.369825">
        <ele>537.8</ele>
        <time>2021-07-23T15:27:53.284Z</time>
      </trkpt>
      <trkpt lat="40.056393" lon="-0.370046">
        <ele>538.1</ele>
        <time>2021-07-23T15:28:02.803Z</time>
      </trkpt>
      <trkpt lat="40.056492" lon="-0.370233">
        <ele>538.3</ele>
        <time>2021-07-23T15:28:07.353Z</time>
      </trkpt>
      <trkpt lat="40.056445" lon="-0.370572">
        <ele>538.7</ele>
        <time>2021-07-23T15:28:21.566Z</time>
      </trkpt>
      <trkpt lat="40.056548" lon="-0.370793">
        <ele>539.0</ele>
        <time>2021-07-23T15:28:29.857Z</time>
      </trkpt>
      <trkpt lat="40.056691" lon="-0.370900">
        <ele>539.3</ele>
        <time>2021-07-23T15:28:38.983Z</time>
      </trkpt>
      <trkpt lat="40.056745" lon="-0.371010">
        <ele>539.4</ele>
        <time>2021-07-23T15:28:41.803Z</time>
      </trkpt>
      <trkpt lat="40.056932" lon="-0.371663">
        <ele>541.5</ele>
        <time>2021-07-23T15:29:14.247Z</time>
      </trkpt>
      <trkpt lat="40.056891" lon="-0.372090">
        <ele>543.9</ele>
        <time>2021-07-23T15:29:32.784Z</time>
      </trkpt>
      <trkpt lat="40.056916" lon="-0.372268">
        <ele>544.9</ele>
        <time>2021-07-23T15:29:42.528Z</time>
      </trkpt>
      <trkpt lat="40.057114" lon="-0.372873">
        <ele>548.5</ele>
        <time>2021-07-23T15:30:19.198Z</time>
      </trkpt>
      <trkpt lat="40.057087" lon="-0.373165">
        <ele>550.2</ele>
        <time>2021-07-23T15:30:35.724Z</time>
      </trkpt>
      <trkpt lat="40.056968" lon="-0.373487">
        <ele>552.1</ele>
        <time>2021-07-23T15:30:56.296Z</time>
      </trkpt>
      <trkpt lat="40.057073" lon="-0.373786">
        <ele>554.3</ele>
        <time>2021-07-23T15:31:15.626Z</time>
      </trkpt>
      <trkpt lat="40.057161" lon="-0.373937">
        <ele>555.7</ele>
        <time>2021-07-23T15:31:26.475Z</time>
      </trkpt>
      <trkpt lat="40.057303" lon="-0.374153">
        <ele>557.7</ele>
        <time>2021-07-23T15:31:43.772Z</time>
      </trkpt>
      <trkpt lat="40.057407" lon="-0.374387">
        <ele>559.6</ele>
        <time>2021-07-23T15:31:59.730Z</time>
      </trkpt>
      <trkpt lat="40.057605" lon="-0.374595">
        <ele>562.0</ele>
        <time>2021-07-23T15:32:20.164Z</time>
      </trkpt>
      <trkpt lat="40.057687" lon="-0.374874">
        <ele>564.2</ele>
        <time>2021-07-23T15:32:38.668Z</time>
      </trkpt>
      <trkpt lat="40.057707" lon="-0.375310">
        <ele>567.3</ele>
        <time>2021-07-23T15:33:06.167Z</time>
      </trkpt>
      <trkpt lat="40.057582" lon="-0.375701">
        <ele>570.2</ele>
        <time>2021-07-23T15:33:33.869Z</time>
      </trkpt>
      <trkpt lat="40.057578" lon="-0.375840">
        <ele>570.9</ele>
        <time>2021-07-23T15:33:42.971Z</time>
      </trkpt>
      <trkpt lat="40.057643" lon="-0.376019">
        <ele>571.9</ele>
        <time>2021-07-23T15:33:53.665Z</time>
      </trkpt>
      <trkpt lat="40.057783" lon="-0.376140">
        <ele>573.0</ele>
        <time>2021-07-23T15:34:05.336Z</time>
      </trkpt>
      <trkpt lat="40.057852" lon="-0.376286">
        <ele>573.9</ele>
        <time>2021-07-23T15:34:14.258Z</time>
      </trkpt>
      <trkpt lat="40.057808" lon="-0.376382">
        <ele>574.5</ele>
        <time>2021-07-23T15:34:19.964Z</time>
      </trkpt>
      <trkpt lat="40.057573" lon="-0.376471">
        <ele>576.1</ele>
        <time>2021-07-23T15:34:35.692Z</time>
      </trkpt>
      <trkpt lat="40.057336" lon="-0.376769">
        <ele>578.3</ele>
        <time>2021-07-23T15:34:55.866Z</time>
      </trkpt>
      <trkpt lat="40.057324" lon="-0.377215">
        <ele>580.5</ele>
        <time>2021-07-23T15:35:15.630Z</time>
      </trkpt>
      <trkpt lat="40.057264" lon="-0.377500">
        <ele>581.8</ele>
        <time>2021-07-23T15:35:28.075Z</time>
      </trkpt>
      <trkpt lat="40.057315" lon="-0.378372">
        <ele>583.1</ele>
        <time>2021-07-23T15:36:00.846Z</time>
      </trkpt>
      <trkpt lat="40.057431" lon="-0.379060">
        <ele>584.1</ele>
        <time>2021-07-23T15:36:23.335Z</time>
      </trkpt>
      <trkpt lat="40.057415" lon="-0.379260">
        <ele>584.4</ele>
        <time>2021-07-23T15:36:28.987Z</time>
      </trkpt>
      <trkpt lat="40.057310" lon="-0.379603">
        <ele>584.9</ele>
        <time>2021-07-23T15:36:37.853Z</time>
      </trkpt>
      <trkpt lat="40.057065" lon="-0.379904">
        <ele>584.2</ele>
        <time>2021-07-23T15:36:47.429Z</time>
      </trkpt>
      <trkpt lat="40.056875" lon="-0.380317">
        <ele>582.7</ele>
        <time>2021-07-23T15:36:57.180Z</time>
      </trkpt>
      <trkpt lat="40.056864" lon="-0.380962">
        <ele>580.7</ele>
        <time>2021-07-23T15:37:09.353Z</time>
      </trkpt>
      <trkpt lat="40.056870" lon="-0.381052">
        <ele>580.4</ele>
        <time>2021-07-23T15:37:11.097Z</time>
      </trkpt>
      <trkpt lat="40.056888" lon="-0.381437">
        <ele>579.3</ele>
        <time>2021-07-23T15:37:18.020Z</time>
      </trkpt>
      <trkpt lat="40.056857" lon="-0.381772">
        <ele>578.2</ele>
        <time>2021-07-23T15:37:24.041Z</time>
      </trkpt>
      <trkpt lat="40.056909" lon="-0.382895">
        <ele>574.1</ele>
        <time>2021-07-23T15:37:43.987Z</time>
      </trkpt>
      <trkpt lat="40.056712" lon="-0.383588">
        <ele>571.3</ele>
        <time>2021-07-23T15:37:57.458Z</time>
      </trkpt>
      <trkpt lat="40.056481" lon="-0.383969">
        <ele>569.5</ele>
        <time>2021-07-23T15:38:06.869Z</time>
      </trkpt>
      <trkpt lat="40.056395" lon="-0.384270">
        <ele>569.1</ele>
        <time>2021-07-23T15:38:13.574Z</time>
      </trkpt>
      <trkpt lat="40.056461" lon="-0.384672">
        <ele>569.1</ele>
        <time>2021-07-23T15:38:23.195Z</time>
      </trkpt>
      <trkpt lat="40.056554" lon="-0.384781">
        <ele>569.1</ele>
        <time>2021-07-23T15:38:27.774Z</time>
      </trkpt>
      <trkpt lat="40.056878" lon="-0.384884">
        <ele>569.2</ele>
        <time>2021-07-23T15:38:41.001Z</time>
      </trkpt>
      <trkpt lat="40.057155" lon="-0.384876">
        <ele>569.2</ele>
        <time>2021-07-23T15:38:49.750Z</time>
      </trkpt>
      <trkpt lat="40.057346" lon="-0.384796">
        <ele>569.3</ele>
        <time>2021-07-23T15:38:58.800Z</time>
      </trkpt>
      <trkpt lat="40.057599" lon="-0.384909">
        <ele>569.3</ele>
        <time>2021-07-23T15:39:08.022Z</time>
      </trkpt>
      <trkpt lat="40.057808" lon="-0.384920">
        <ele>569.4</ele>
        <time>2021-07-23T15:39:14.654Z</time>
      </trkpt>
      <trkpt lat="40.058007" lon="-0.384816">
        <ele>569.7</ele>
        <time>2021-07-23T15:39:24.864Z</time>
      </trkpt>
      <trkpt lat="40.058116" lon="-0.384903">
        <ele>569.9</ele>
        <time>2021-07-23T15:39:28.492Z</time>
      </trkpt>
      <trkpt lat="40.058209" lon="-0.385211">
        <ele>570.2</ele>
        <time>2021-07-23T15:39:40.631Z</time>
      </trkpt>
      <trkpt lat="40.058311" lon="-0.385273">
        <ele>570.4</ele>
        <time>2021-07-23T15:39:43.689Z</time>
      </trkpt>
      <trkpt lat="40.058705" lon="-0.386477">
        <ele>571.7</ele>
        <time>2021-07-23T15:40:23.838Z</time>
      </trkpt>
      <trkpt lat="40.058811" lon="-0.386644">
        <ele>572.0</ele>
        <time>2021-07-23T15:40:28.952Z</time>
      </trkpt>
      <trkpt lat="40.059317" lon="-0.386841">
        <ele>573.1</ele>
        <time>2021-07-23T15:40:48.918Z</time>
      </trkpt>
      <trkpt lat="40.059585" lon="-0.387258">
        <ele>574.0</ele>
        <time>2021-07-23T15:41:07.772Z</time>
      </trkpt>
      <trkpt lat="40.059984" lon="-0.387435">
        <ele>574.8</ele>
        <time>2021-07-23T15:41:27.279Z</time>
      </trkpt>
      <trkpt lat="40.060292" lon="-0.387392">
        <ele>575.5</ele>
        <time>2021-07-23T15:41:41.960Z</time>
      </trkpt>
      <trkpt lat="40.060299" lon="-0.387770">
        <ele>575.9</ele>
        <time>2021-07-23T15:41:54.494Z</time>
      </trkpt>
      <trkpt lat="40.059683" lon="-0.388626">
        <ele>577.3</ele>
        <time>2021-07-23T15:42:29.232Z</time>
      </trkpt>
      <trkpt lat="40.059698" lon="-0.388713">
        <ele>577.4</ele>
        <time>2021-07-23T15:42:31.819Z</time>
      </trkpt>
      <trkpt lat="40.059870" lon="-0.388776">
        <ele>577.6</ele>
        <time>2021-07-23T15:42:38.679Z</time>
      </trkpt>
      <trkpt lat="40.060080" lon="-0.388506">
        <ele>578.1</ele>
        <time>2021-07-23T15:42:48.956Z</time>
      </trkpt>
      <trkpt lat="40.060184" lon="-0.388557">
        <ele>578.4</ele>
        <time>2021-07-23T15:42:52.611Z</time>
      </trkpt>
      <trkpt lat="40.060164" lon="-0.389438">
        <ele>580.4</ele>
        <time>2021-07-23T15:43:16.536Z</time>
      </trkpt>
      <trkpt lat="40.060024" lon="-0.389858">
        <ele>581.4</ele>
        <time>2021-07-23T15:43:32.536Z</time>
      </trkpt>
      <trkpt lat="40.059938" lon="-0.390025">
        <ele>581.9</ele>
        <time>2021-07-23T15:43:38.581Z</time>
      </trkpt>
      <trkpt lat="40.059827" lon="-0.390108">
        <ele>582.2</ele>
        <time>2021-07-23T15:43:44.796Z</time>
      </trkpt>
      <trkpt lat="40.059709" lon="-0.390145">
        <ele>582.6</ele>
        <time>2021-07-23T15:43:53.099Z</time>
      </trkpt>
      <trkpt lat="40.059378" lon="-0.390087">
        <ele>584.1</ele>
        <time>2021-07-23T15:44:13.633Z</time>
      </trkpt>
      <trkpt lat="40.059257" lon="-0.390153">
        <ele>585.6</ele>
        <time>2021-07-23T15:44:21.033Z</time>
      </trkpt>
      <trkpt lat="40.059227" lon="-0.390237">
        <ele>586.4</ele>
        <time>2021-07-23T15:44:25.139Z</time>
      </trkpt>
      <trkpt lat="40.059228" lon="-0.390260">
        <ele>586.6</ele>
        <time>2021-07-23T15:44:25.498Z</time>
      </trkpt>
      <trkpt lat="40.059229" lon="-0.390349">
        <ele>587.4</ele>
        <time>2021-07-23T15:44:35.557Z</time>
      </trkpt>
      <trkpt lat="40.059375" lon="-0.390707">
        <ele>591.0</ele>
        <time>2021-07-23T15:44:58.443Z</time>
      </trkpt>
      <trkpt lat="40.059553" lon="-0.390937">
        <ele>593.9</ele>
        <time>2021-07-23T15:45:23.001Z</time>
      </trkpt>
      <trkpt lat="40.059831" lon="-0.391176">
        <ele>597.8</ele>
        <time>2021-07-23T15:45:56.805Z</time>
      </trkpt>
      <trkpt lat="40.059951" lon="-0.391451">
        <ele>600.6</ele>
        <time>2021-07-23T15:46:24.951Z</time>
      </trkpt>
      <trkpt lat="40.060024" lon="-0.391509">
        <ele>601.6</ele>
        <time>2021-07-23T15:46:31.715Z</time>
      </trkpt>
      <trkpt lat="40.060217" lon="-0.391438">
        <ele>603.9</ele>
        <time>2021-07-23T15:46:54.952Z</time>
      </trkpt>
      <trkpt lat="40.060266" lon="-0.391135">
        <ele>607.0</ele>
        <time>2021-07-23T15:47:18.066Z</time>
      </trkpt>
      <trkpt lat="40.060288" lon="-0.391057">
        <ele>607.8</ele>
        <time>2021-07-23T15:47:26.990Z</time>
      </trkpt>
      <trkpt lat="40.060341" lon="-0.390974">
        <ele>608.9</ele>
        <time>2021-07-23T15:47:37.029Z</time>
      </trkpt>
      <trkpt lat="40.060422" lon="-0.390869">
        <ele>610.4</ele>
        <time>2021-07-23T15:47:46.631Z</time>
      </trkpt>
      <trkpt lat="40.060521" lon="-0.390858">
        <ele>611.7</ele>
        <time>2021-07-23T15:47:55.022Z</time>
      </trkpt>
      <trkpt lat="40.060708" lon="-0.391393">
        <ele>617.6</ele>
        <time>2021-07-23T15:48:42.491Z</time>
      </trkpt>
      <trkpt lat="40.060709" lon="-0.391939">
        <ele>623.1</ele>
        <time>2021-07-23T15:49:22.570Z</time>
      </trkpt>
      <trkpt lat="40.060789" lon="-0.392314">
        <ele>627.0</ele>
        <time>2021-07-23T15:49:50.703Z</time>
      </trkpt>
      <trkpt lat="40.060906" lon="-0.392544">
        <ele>629.2</ele>
        <time>2021-07-23T15:50:07.566Z</time>
      </trkpt>
      <trkpt lat="40.061012" lon="-0.393189">
        <ele>634.0</ele>
        <time>2021-07-23T15:50:45.223Z</time>
      </trkpt>
      <trkpt lat="40.060866" lon="-0.393655">
        <ele>637.6</ele>
        <time>2021-07-23T15:51:14.616Z</time>
      </trkpt>
      <trkpt lat="40.061009" lon="-0.393969">
        <ele>640.3</ele>
        <time>2021-07-23T15:51:36.028Z</time>
      </trkpt>
      <trkpt lat="40.061025" lon="-0.393989">
        <ele>640.5</ele>
        <time>2021-07-23T15:51:38.615Z</time>
      </trkpt>
      <trkpt lat="40.061025" lon="-0.393989">
        <ele>640.5</ele>
        <time>2021-07-23T15:51:38.861Z</time>
      </trkpt>
      <trkpt lat="40.061087" lon="-0.394066">
        <ele>641.3</ele>
        <time>2021-07-23T15:51:46.237Z</time>
      </trkpt>
      <trkpt lat="40.061358" lon="-0.394191">
        <ele>644.0</ele>
        <time>2021-07-23T15:52:10.278Z</time>
      </trkpt>
      <trkpt lat="40.061488" lon="-0.394147">
        <ele>645.0</ele>
        <time>2021-07-23T15:52:20.486Z</time>
      </trkpt>
      <trkpt lat="40.061477" lon="-0.394032">
        <ele>645.3</ele>
        <time>2021-07-23T15:52:26.132Z</time>
      </trkpt>
      <trkpt lat="40.061286" lon="-0.393973">
        <ele>645.9</ele>
        <time>2021-07-23T15:52:41.639Z</time>
      </trkpt>
      <trkpt lat="40.061250" lon="-0.393870">
        <ele>646.2</ele>
        <time>2021-07-23T15:52:47.661Z</time>
      </trkpt>
      <trkpt lat="40.061243" lon="-0.393825">
        <ele>646.3</ele>
        <time>2021-07-23T15:52:49.529Z</time>
      </trkpt>
      <trkpt lat="40.061246" lon="-0.393729">
        <ele>646.5</ele>
        <time>2021-07-23T15:52:52.768Z</time>
      </trkpt>
      <trkpt lat="40.061264" lon="-0.393659">
        <ele>646.7</ele>
        <time>2021-07-23T15:52:56.243Z</time>
      </trkpt>
      <trkpt lat="40.061316" lon="-0.393661">
        <ele>646.9</ele>
        <time>2021-07-23T15:53:01.065Z</time>
      </trkpt>
      <trkpt lat="40.061534" lon="-0.393796">
        <ele>647.7</ele>
        <time>2021-07-23T15:53:12.982Z</time>
      </trkpt>
      <trkpt lat="40.061619" lon="-0.393824">
        <ele>648.0</ele>
        <time>2021-07-23T15:53:18.219Z</time>
      </trkpt>
      <trkpt lat="40.061787" lon="-0.393887">
        <ele>648.5</ele>
        <time>2021-07-23T15:53:28.334Z</time>
      </trkpt>
      <trkpt lat="40.061787" lon="-0.393888">
        <ele>648.5</ele>
        <time>2021-07-23T15:53:28.449Z</time>
      </trkpt>
      <trkpt lat="40.062084" lon="-0.394098">
        <ele>649.6</ele>
        <time>2021-07-23T15:53:38.498Z</time>
      </trkpt>
      <trkpt lat="40.062109" lon="-0.394128">
        <ele>649.7</ele>
        <time>2021-07-23T15:53:41.444Z</time>
      </trkpt>
      <trkpt lat="40.062170" lon="-0.394202">
        <ele>650.0</ele>
        <time>2021-07-23T15:53:43.352Z</time>
      </trkpt>
      <trkpt lat="40.062259" lon="-0.394763">
        <ele>648.5</ele>
        <time>2021-07-23T15:53:55.124Z</time>
      </trkpt>
      <trkpt lat="40.062587" lon="-0.395100">
        <ele>644.6</ele>
        <time>2021-07-23T15:54:04.691Z</time>
      </trkpt>
      <trkpt lat="40.062772" lon="-0.395483">
        <ele>641.4</ele>
        <time>2021-07-23T15:54:12.050Z</time>
      </trkpt>
      <trkpt lat="40.062781" lon="-0.395633">
        <ele>640.3</ele>
        <time>2021-07-23T15:54:14.443Z</time>
      </trkpt>
      <trkpt lat="40.062585" lon="-0.395921">
        <ele>637.5</ele>
        <time>2021-07-23T15:54:20.476Z</time>
      </trkpt>
      <trkpt lat="40.062502" lon="-0.396183">
        <ele>635.5</ele>
        <time>2021-07-23T15:54:24.915Z</time>
      </trkpt>
      <trkpt lat="40.062295" lon="-0.397403">
        <ele>626.5</ele>
        <time>2021-07-23T15:54:44.771Z</time>
      </trkpt>
      <trkpt lat="40.062003" lon="-0.398051">
        <ele>621.2</ele>
        <time>2021-07-23T15:54:57.161Z</time>
      </trkpt>
      <trkpt lat="40.061955" lon="-0.398251">
        <ele>619.7</ele>
        <time>2021-07-23T15:55:00.728Z</time>
      </trkpt>
      <trkpt lat="40.062187" lon="-0.399519">
        <ele>619.1</ele>
        <time>2021-07-23T15:55:28.771Z</time>
      </trkpt>
      <trkpt lat="40.062251" lon="-0.400217">
        <ele>620.6</ele>
        <time>2021-07-23T15:55:58.529Z</time>
      </trkpt>
      <trkpt lat="40.062330" lon="-0.400403">
        <ele>621.1</ele>
        <time>2021-07-23T15:56:07.576Z</time>
      </trkpt>
      <trkpt lat="40.062413" lon="-0.400475">
        <ele>621.4</ele>
        <time>2021-07-23T15:56:17.161Z</time>
      </trkpt>
      <trkpt lat="40.062699" lon="-0.400812">
        <ele>623.1</ele>
        <time>2021-07-23T15:56:44.883Z</time>
      </trkpt>
      <trkpt lat="40.062881" lon="-0.400878">
        <ele>624.8</ele>
        <time>2021-07-23T15:56:57.400Z</time>
      </trkpt>
      <trkpt lat="40.063358" lon="-0.400907">
        <ele>629.1</ele>
        <time>2021-07-23T15:57:38.955Z</time>
      </trkpt>
      <trkpt lat="40.063536" lon="-0.401024">
        <ele>630.9</ele>
        <time>2021-07-23T15:57:54.416Z</time>
      </trkpt>
      <trkpt lat="40.063816" lon="-0.401319">
        <ele>634.1</ele>
        <time>2021-07-23T15:58:25.187Z</time>
      </trkpt>
      <trkpt lat="40.063985" lon="-0.401410">
        <ele>635.7</ele>
        <time>2021-07-23T15:58:38.596Z</time>
      </trkpt>
      <trkpt lat="40.064189" lon="-0.401514">
        <ele>637.7</ele>
        <time>2021-07-23T15:58:53.686Z</time>
      </trkpt>
      <trkpt lat="40.064672" lon="-0.401627">
        <ele>640.8</ele>
        <time>2021-07-23T15:59:28.384Z</time>
      </trkpt>
      <trkpt lat="40.064838" lon="-0.401789">
        <ele>642.1</ele>
        <time>2021-07-23T15:59:40.910Z</time>
      </trkpt>
      <trkpt lat="40.065270" lon="-0.401942">
        <ele>644.8</ele>
        <time>2021-07-23T16:00:09.168Z</time>
      </trkpt>
      <trkpt lat="40.065398" lon="-0.402055">
        <ele>645.7</ele>
        <time>2021-07-23T16:00:17.915Z</time>
      </trkpt>
      <trkpt lat="40.065611" lon="-0.402491">
        <ele>648.0</ele>
        <time>2021-07-23T16:00:39.206Z</time>
      </trkpt>
      <trkpt lat="40.065705" lon="-0.402575">
        <ele>648.7</ele>
        <time>2021-07-23T16:00:44.661Z</time>
      </trkpt>
      <trkpt lat="40.065779" lon="-0.402641">
        <ele>649.2</ele>
        <time>2021-07-23T16:00:50.626Z</time>
      </trkpt>
      <trkpt lat="40.066537" lon="-0.403019">
        <ele>653.2</ele>
        <time>2021-07-23T16:01:33.140Z</time>
      </trkpt>
      <trkpt lat="40.066839" lon="-0.403506">
        <ele>655.5</ele>
        <time>2021-07-23T16:01:59.973Z</time>
      </trkpt>
      <trkpt lat="40.067507" lon="-0.404154">
        <ele>659.9</ele>
        <time>2021-07-23T16:02:50.168Z</time>
      </trkpt>
      <trkpt lat="40.068253" lon="-0.404533">
        <ele>664.6</ele>
        <time>2021-07-23T16:03:41.865Z</time>
      </trkpt>
      <trkpt lat="40.068793" lon="-0.404684">
        <ele>667.9</ele>
        <time>2021-07-23T16:04:18.123Z</time>
      </trkpt>
      <trkpt lat="40.068859" lon="-0.404638">
        <ele>668.3</ele>
        <time>2021-07-23T16:04:22.808Z</time>
      </trkpt>
      <trkpt lat="40.069107" lon="-0.404084">
        <ele>668.5</ele>
        <time>2021-07-23T16:04:46.904Z</time>
      </trkpt>
      <trkpt lat="40.069235" lon="-0.403913">
        <ele>668.6</ele>
        <time>2021-07-23T16:04:53.001Z</time>
      </trkpt>
      <trkpt lat="40.069889" lon="-0.403950">
        <ele>668.7</ele>
        <time>2021-07-23T16:05:12.977Z</time>
      </trkpt>
      <trkpt lat="40.070021" lon="-0.403909">
        <ele>668.7</ele>
        <time>2021-07-23T16:05:17.080Z</time>
      </trkpt>
      <trkpt lat="40.070145" lon="-0.403884">
        <ele>668.8</ele>
        <time>2021-07-23T16:05:20.554Z</time>
      </trkpt>
      <trkpt lat="40.070253" lon="-0.403938">
        <ele>668.8</ele>
        <time>2021-07-23T16:05:23.237Z</time>
      </trkpt>
      <trkpt lat="40.070388" lon="-0.404250">
        <ele>667.7</ele>
        <time>2021-07-23T16:05:30.441Z</time>
      </trkpt>
      <trkpt lat="40.070386" lon="-0.404886">
        <ele>664.3</ele>
        <time>2021-07-23T16:05:41.960Z</time>
      </trkpt>
      <trkpt lat="40.070526" lon="-0.405169">
        <ele>662.5</ele>
        <time>2021-07-23T16:05:47.778Z</time>
      </trkpt>
      <trkpt lat="40.071229" lon="-0.406175">
        <ele>654.8</ele>
        <time>2021-07-23T16:06:10.632Z</time>
      </trkpt>
      <trkpt lat="40.071287" lon="-0.406341">
        <ele>653.5</ele>
        <time>2021-07-23T16:06:13.673Z</time>
      </trkpt>
      <trkpt lat="40.071290" lon="-0.406620">
        <ele>651.5</ele>
        <time>2021-07-23T16:06:18.428Z</time>
      </trkpt>
      <trkpt lat="40.071232" lon="-0.406819">
        <ele>650.0</ele>
        <time>2021-07-23T16:06:21.944Z</time>
      </trkpt>
      <trkpt lat="40.070795" lon="-0.407552">
        <ele>643.2</ele>
        <time>2021-07-23T16:06:37.400Z</time>
      </trkpt>
      <trkpt lat="40.070535" lon="-0.407748">
        <ele>640.4</ele>
        <time>2021-07-23T16:06:43.855Z</time>
      </trkpt>
      <trkpt lat="40.070408" lon="-0.407972">
        <ele>638.3</ele>
        <time>2021-07-23T16:06:48.404Z</time>
      </trkpt>
      <trkpt lat="40.070322" lon="-0.409310">
        <ele>627.2</ele>
        <time>2021-07-23T16:07:10.427Z</time>
      </trkpt>
      <trkpt lat="40.070061" lon="-0.409892">
        <ele>621.7</ele>
        <time>2021-07-23T16:07:21.348Z</time>
      </trkpt>
      <trkpt lat="40.070141" lon="-0.410469">
        <ele>616.3</ele>
        <time>2021-07-23T16:07:30.777Z</time>
      </trkpt>
      <trkpt lat="40.070106" lon="-0.410563">
        <ele>615.3</ele>
        <time>2021-07-23T16:07:32.456Z</time>
      </trkpt>
      <trkpt lat="40.069582" lon="-0.410850">
        <ele>608.0</ele>
        <time>2021-07-23T16:07:44.256Z</time>
      </trkpt>
      <trkpt lat="40.069438" lon="-0.411065">
        <ele>605.2</ele>
        <time>2021-07-23T16:07:48.786Z</time>
      </trkpt>
      <trkpt lat="40.069313" lon="-0.411569">
        <ele>600.0</ele>
        <time>2021-07-23T16:07:57.161Z</time>
      </trkpt>
      <trkpt lat="40.068966" lon="-0.411823">
        <ele>594.4</ele>
        <time>2021-07-23T16:08:05.272Z</time>
      </trkpt>
      <trkpt lat="40.068263" lon="-0.412489">
        <ele>580.4</ele>
        <time>2021-07-23T16:08:22.757Z</time>
      </trkpt>
      <trkpt lat="40.068128" lon="-0.413515">
        <ele>567.6</ele>
        <time>2021-07-23T16:08:38.654Z</time>
      </trkpt>
      <trkpt lat="40.068189" lon="-0.413874">
        <ele>562.6</ele>
        <time>2021-07-23T16:08:44.247Z</time>
      </trkpt>
      <trkpt lat="40.068117" lon="-0.414063">
        <ele>559.8</ele>
        <time>2021-07-23T16:08:47.439Z</time>
      </trkpt>
      <trkpt lat="40.067974" lon="-0.414170">
        <ele>556.9</ele>
        <time>2021-07-23T16:08:50.696Z</time>
      </trkpt>
      <trkpt lat="40.067768" lon="-0.414142">
        <ele>553.2</ele>
        <time>2021-07-23T16:08:54.765Z</time>
      </trkpt>
      <trkpt lat="40.067640" lon="-0.414190">
        <ele>550.8</ele>
        <time>2021-07-23T16:08:57.389Z</time>
      </trkpt>
      <trkpt lat="40.067400" lon="-0.414323">
        <ele>546.2</ele>
        <time>2021-07-23T16:09:02.534Z</time>
      </trkpt>
      <trkpt lat="40.067264" lon="-0.414522">
        <ele>542.6</ele>
        <time>2021-07-23T16:09:06.580Z</time>
      </trkpt>
      <trkpt lat="40.067366" lon="-0.415269">
        <ele>533.0</ele>
        <time>2021-07-23T16:09:18.197Z</time>
      </trkpt>
      <trkpt lat="40.067255" lon="-0.415617">
        <ele>528.8</ele>
        <time>2021-07-23T16:09:24.002Z</time>
      </trkpt>
      <trkpt lat="40.067092" lon="-0.415738">
        <ele>526.0</ele>
        <time>2021-07-23T16:09:27.786Z</time>
      </trkpt>
      <trkpt lat="40.067072" lon="-0.415803">
        <ele>525.3</ele>
        <time>2021-07-23T16:09:28.870Z</time>
      </trkpt>
      <trkpt lat="40.067194" lon="-0.415963">
        <ele>522.7</ele>
        <time>2021-07-23T16:09:32.379Z</time>
      </trkpt>
      <trkpt lat="40.067499" lon="-0.416068">
        <ele>518.1</ele>
        <time>2021-07-23T16:09:38.799Z</time>
      </trkpt>
      <trkpt lat="40.067570" lon="-0.416173">
        <ele>516.5</ele>
        <time>2021-07-23T16:09:40.994Z</time>
      </trkpt>
      <trkpt lat="40.067544" lon="-0.416437">
        <ele>513.5</ele>
        <time>2021-07-23T16:09:45.182Z</time>
      </trkpt>
      <trkpt lat="40.067369" lon="-0.416848">
        <ele>508.7</ele>
        <time>2021-07-23T16:09:52.629Z</time>
      </trkpt>
      <trkpt lat="40.067205" lon="-0.417513">
        <ele>503.1</ele>
        <time>2021-07-23T16:10:03.874Z</time>
      </trkpt>
      <trkpt lat="40.067225" lon="-0.417948">
        <ele>499.6</ele>
        <time>2021-07-23T16:10:10.990Z</time>
      </trkpt>
      <trkpt lat="40.067121" lon="-0.418217">
        <ele>497.2</ele>
        <time>2021-07-23T16:10:15.931Z</time>
      </trkpt>
      <trkpt lat="40.066957" lon="-0.418419">
        <ele>494.8</ele>
        <time>2021-07-23T16:10:20.780Z</time>
      </trkpt>
      <trkpt lat="40.066600" lon="-0.419054">
        <ele>489.9</ele>
        <time>2021-07-23T16:10:34.071Z</time>
      </trkpt>
      <trkpt lat="40.066491" lon="-0.419163">
        <ele>489.3</ele>
        <time>2021-07-23T16:10:37.221Z</time>
      </trkpt>
      <trkpt lat="40.066250" lon="-0.419278">
        <ele>488.1</ele>
        <time>2021-07-23T16:10:43.132Z</time>
      </trkpt>
      <trkpt lat="40.066073" lon="-0.419517">
        <ele>487.0</ele>
        <time>2021-07-23T16:10:49.477Z</time>
      </trkpt>
      <trkpt lat="40.065896" lon="-0.419980">
        <ele>485.2</ele>
        <time>2021-07-23T16:10:59.479Z</time>
      </trkpt>
      <trkpt lat="40.065875" lon="-0.420127">
        <ele>484.7</ele>
        <time>2021-07-23T16:11:02.288Z</time>
      </trkpt>
      <trkpt lat="40.065929" lon="-0.420185">
        <ele>484.4</ele>
        <time>2021-07-23T16:11:04.656Z</time>
      </trkpt>
      <trkpt lat="40.066139" lon="-0.420244">
        <ele>483.4</ele>
        <time>2021-07-23T16:11:10.518Z</time>
      </trkpt>
      <trkpt lat="40.066662" lon="-0.420151">
        <ele>483.1</ele>
        <time>2021-07-23T16:11:26.635Z</time>
      </trkpt>
      <trkpt lat="40.066827" lon="-0.420272">
        <ele>483.2</ele>
        <time>2021-07-23T16:11:33.397Z</time>
      </trkpt>
      <trkpt lat="40.066976" lon="-0.420643">
        <ele>483.4</ele>
        <time>2021-07-23T16:11:45.869Z</time>
      </trkpt>
      <trkpt lat="40.067008" lon="-0.421013">
        <ele>483.5</ele>
        <time>2021-07-23T16:11:57.529Z</time>
      </trkpt>
      <trkpt lat="40.067069" lon="-0.421195">
        <ele>483.6</ele>
        <time>2021-07-23T16:12:04.010Z</time>
      </trkpt>
      <trkpt lat="40.067798" lon="-0.421439">
        <ele>482.9</ele>
        <time>2021-07-23T16:12:31.460Z</time>
      </trkpt>
      <trkpt lat="40.067990" lon="-0.421353">
        <ele>482.3</ele>
        <time>2021-07-23T16:12:37.326Z</time>
      </trkpt>
      <trkpt lat="40.068100" lon="-0.421236">
        <ele>481.8</ele>
        <time>2021-07-23T16:12:41.460Z</time>
      </trkpt>
      <trkpt lat="40.068289" lon="-0.420736">
        <ele>480.5</ele>
        <time>2021-07-23T16:12:52.994Z</time>
      </trkpt>
      <trkpt lat="40.068643" lon="-0.420549">
        <ele>479.4</ele>
        <time>2021-07-23T16:13:02.330Z</time>
      </trkpt>
      <trkpt lat="40.068753" lon="-0.420570">
        <ele>479.1</ele>
        <time>2021-07-23T16:13:04.906Z</time>
      </trkpt>
      <trkpt lat="40.068897" lon="-0.420702">
        <ele>478.5</ele>
        <time>2021-07-23T16:13:08.954Z</time>
      </trkpt>
      <trkpt lat="40.069012" lon="-0.420989">
        <ele>476.4</ele>
        <time>2021-07-23T16:13:14.486Z</time>
      </trkpt>
      <trkpt lat="40.069092" lon="-0.421080">
        <ele>475.3</ele>
        <time>2021-07-23T16:13:16.826Z</time>
      </trkpt>
      <trkpt lat="40.069518" lon="-0.421290">
        <ele>470.7</ele>
        <time>2021-07-23T16:13:26.651Z</time>
      </trkpt>
      <trkpt lat="40.069643" lon="-0.421465">
        <ele>468.9</ele>
        <time>2021-07-23T16:13:30.540Z</time>
      </trkpt>
      <trkpt lat="40.069882" lon="-0.422130">
        <ele>463.2</ele>
        <time>2021-07-23T16:13:42.376Z</time>
      </trkpt>
      <trkpt lat="40.069968" lon="-0.422734">
        <ele>458.5</ele>
        <time>2021-07-23T16:13:52.224Z</time>
      </trkpt>
      <trkpt lat="40.070089" lon="-0.423108">
        <ele>455.5</ele>
        <time>2021-07-23T16:13:58.786Z</time>
      </trkpt>
      <trkpt lat="40.070211" lon="-0.423216">
        <ele>454.0</ele>
        <time>2021-07-23T16:14:01.916Z</time>
      </trkpt>
      <trkpt lat="40.070701" lon="-0.423233">
        <ele>449.2</ele>
        <time>2021-07-23T16:14:12.467Z</time>
      </trkpt>
      <trkpt lat="40.070827" lon="-0.423301">
        <ele>447.9</ele>
        <time>2021-07-23T16:14:15.432Z</time>
      </trkpt>
      <trkpt lat="40.070858" lon="-0.423494">
        <ele>446.4</ele>
        <time>2021-07-23T16:14:18.751Z</time>
      </trkpt>
      <trkpt lat="40.070800" lon="-0.423725">
        <ele>444.5</ele>
        <time>2021-07-23T16:14:22.839Z</time>
      </trkpt>
      <trkpt lat="40.070655" lon="-0.424074">
        <ele>442.0</ele>
        <time>2021-07-23T16:14:29.603Z</time>
      </trkpt>
      <trkpt lat="40.070509" lon="-0.424296">
        <ele>440.8</ele>
        <time>2021-07-23T16:14:34.650Z</time>
      </trkpt>
      <trkpt lat="40.070189" lon="-0.424591">
        <ele>438.7</ele>
        <time>2021-07-23T16:14:43.618Z</time>
      </trkpt>
      <trkpt lat="40.069726" lon="-0.424692">
        <ele>436.2</ele>
        <time>2021-07-23T16:14:54.696Z</time>
      </trkpt>
      <trkpt lat="40.069614" lon="-0.424829">
        <ele>435.4</ele>
        <time>2021-07-23T16:14:58.490Z</time>
      </trkpt>
      <trkpt lat="40.069449" lon="-0.425610">
        <ele>433.0</ele>
        <time>2021-07-23T16:15:14.975Z</time>
      </trkpt>
      <trkpt lat="40.069399" lon="-0.426426">
        <ele>432.9</ele>
        <time>2021-07-23T16:15:33.304Z</time>
      </trkpt>
      <trkpt lat="40.069432" lon="-0.426606">
        <ele>432.9</ele>
        <time>2021-07-23T16:15:37.682Z</time>
      </trkpt>
      <trkpt lat="40.069479" lon="-0.426684">
        <ele>432.9</ele>
        <time>2021-07-23T16:15:40.369Z</time>
      </trkpt>
      <trkpt lat="40.069531" lon="-0.426769">
        <ele>432.9</ele>
        <time>2021-07-23T16:15:43.140Z</time>
      </trkpt>
      <trkpt lat="40.070007" lon="-0.427227">
        <ele>432.8</ele>
        <time>2021-07-23T16:16:05.708Z</time>
      </trkpt>
      <trkpt lat="40.070457" lon="-0.427822">
        <ele>434.5</ele>
        <time>2021-07-23T16:16:33.574Z</time>
      </trkpt>
      <trkpt lat="40.070476" lon="-0.427928">
        <ele>434.8</ele>
        <time>2021-07-23T16:16:37.542Z</time>
      </trkpt>
      <trkpt lat="40.070443" lon="-0.427984">
        <ele>435.0</ele>
        <time>2021-07-23T16:16:40.078Z</time>
      </trkpt>
      <trkpt lat="40.070365" lon="-0.427983">
        <ele>435.2</ele>
        <time>2021-07-23T16:16:43.589Z</time>
      </trkpt>
      <trkpt lat="40.070013" lon="-0.427867">
        <ele>436.4</ele>
        <time>2021-07-23T16:17:01.093Z</time>
      </trkpt>
      <trkpt lat="40.069857" lon="-0.427912">
        <ele>436.9</ele>
        <time>2021-07-23T16:17:09.145Z</time>
      </trkpt>
      <trkpt lat="40.069694" lon="-0.428072">
        <ele>437.6</ele>
        <time>2021-07-23T16:17:18.892Z</time>
      </trkpt>
      <trkpt lat="40.069277" lon="-0.428834">
        <ele>440.9</ele>
        <time>2021-07-23T16:17:57.729Z</time>
      </trkpt>
      <trkpt lat="40.068895" lon="-0.429866">
        <ele>446.1</ele>
        <time>2021-07-23T16:18:56.244Z</time>
      </trkpt>
      <trkpt lat="40.068328" lon="-0.430739">
        <ele>451.2</ele>
        <time>2021-07-23T16:19:49.118Z</time>
      </trkpt>
      <trkpt lat="40.068193" lon="-0.431014">
        <ele>452.6</ele>
        <time>2021-07-23T16:20:04.957Z</time>
      </trkpt>
      <trkpt lat="40.068200" lon="-0.431027">
        <ele>452.6</ele>
        <time>2021-07-23T16:20:05.553Z</time>
      </trkpt>
      <trkpt lat="40.068583" lon="-0.431699">
        <ele>456.3</ele>
        <time>2021-07-23T16:20:43.014Z</time>
      </trkpt>
      <trkpt lat="40.068838" lon="-0.432088">
        <ele>458.5</ele>
        <time>2021-07-23T16:21:06.253Z</time>
      </trkpt>
      <trkpt lat="40.068830" lon="-0.432295">
        <ele>459.4</ele>
        <time>2021-07-23T16:21:15.126Z</time>
      </trkpt>
      <trkpt lat="40.068732" lon="-0.432461">
        <ele>460.6</ele>
        <time>2021-07-23T16:21:24.977Z</time>
      </trkpt>
      <trkpt lat="40.068695" lon="-0.432658">
        <ele>461.8</ele>
        <time>2021-07-23T16:21:34.291Z</time>
      </trkpt>
      <trkpt lat="40.069128" lon="-0.433831">
        <ele>469.6</ele>
        <time>2021-07-23T16:22:40.942Z</time>
      </trkpt>
      <trkpt lat="40.069093" lon="-0.434614">
        <ele>517.0</ele>
        <time>2021-07-23T16:23:28.791Z</time>
      </trkpt>
      <trkpt lat="40.069295" lon="-0.435063">
        <ele>479.4</ele>
        <time>2021-07-23T16:24:04.487Z</time>
      </trkpt>
      <trkpt lat="40.069532" lon="-0.435313">
        <ele>482.7</ele>
        <time>2021-07-23T16:24:33.977Z</time>
      </trkpt>
      <trkpt lat="40.069522" lon="-0.435420">
        <ele>483.4</ele>
        <time>2021-07-23T16:24:38.845Z</time>
      </trkpt>
      <trkpt lat="40.069405" lon="-0.435518">
        <ele>485.3</ele>
        <time>2021-07-23T16:24:53.289Z</time>
      </trkpt>
      <trkpt lat="40.069103" lon="-0.435722">
        <ele>489.4</ele>
        <time>2021-07-23T16:25:26.906Z</time>
      </trkpt>
      <trkpt lat="40.069037" lon="-0.435788">
        <ele>491.8</ele>
        <time>2021-07-23T16:25:47.085Z</time>
      </trkpt>
      <trkpt lat="40.068928" lon="-0.435652">
        <ele>494.0</ele>
        <time>2021-07-23T16:25:49.262Z</time>
      </trkpt>
      <trkpt lat="40.068823" lon="-0.435617">
        <ele>496.0</ele>
        <time>2021-07-23T16:25:50.838Z</time>
      </trkpt>
      <trkpt lat="40.068901" lon="-0.435864">
        <ele>492.9</ele>
        <time>2021-07-23T16:25:53.799Z</time>
      </trkpt>
      <trkpt lat="40.068920" lon="-0.436014">
        <ele>494.3</ele>
        <time>2021-07-23T16:26:05.109Z</time>
      </trkpt>
      <trkpt lat="40.068857" lon="-0.436212">
        <ele>496.2</ele>
        <time>2021-07-23T16:26:22.840Z</time>
      </trkpt>
      <trkpt lat="40.068843" lon="-0.436308">
        <ele>497.1</ele>
        <time>2021-07-23T16:26:31.172Z</time>
      </trkpt>
      <trkpt lat="40.068838" lon="-0.436387">
        <ele>498.2</ele>
        <time>2021-07-23T16:26:42.742Z</time>
      </trkpt>
      <trkpt lat="40.068863" lon="-0.436647">
        <ele>498.4</ele>
        <time>2021-07-23T16:26:47.102Z</time>
      </trkpt>
      <trkpt lat="40.068714" lon="-0.437023">
        <ele>501.9</ele>
        <time>2021-07-23T16:27:20.518Z</time>
      </trkpt>
      <trkpt lat="40.068171" lon="-0.437638">
        <ele>507.7</ele>
        <time>2021-07-23T16:28:12.675Z</time>
      </trkpt>
      <trkpt lat="40.067761" lon="-0.438357">
        <ele>509.5</ele>
        <time>2021-07-23T16:28:42.467Z</time>
      </trkpt>
      <trkpt lat="40.067739" lon="-0.438544">
        <ele>509.4</ele>
        <time>2021-07-23T16:28:46.990Z</time>
      </trkpt>
      <trkpt lat="40.067842" lon="-0.439129">
        <ele>508.9</ele>
        <time>2021-07-23T16:29:00.250Z</time>
      </trkpt>
      <trkpt lat="40.067811" lon="-0.439505">
        <ele>508.7</ele>
        <time>2021-07-23T16:29:08.068Z</time>
      </trkpt>
      <trkpt lat="40.067689" lon="-0.439900">
        <ele>508.4</ele>
        <time>2021-07-23T16:29:16.495Z</time>
      </trkpt>
      <trkpt lat="40.067410" lon="-0.440179">
        <ele>507.0</ele>
        <time>2021-07-23T16:29:25.181Z</time>
      </trkpt>
      <trkpt lat="40.067310" lon="-0.440428">
        <ele>505.9</ele>
        <time>2021-07-23T16:29:29.342Z</time>
      </trkpt>
      <trkpt lat="40.067403" lon="-0.440863">
        <ele>503.2</ele>
        <time>2021-07-23T16:29:39.005Z</time>
      </trkpt>
      <trkpt lat="40.067799" lon="-0.441332">
        <ele>500.2</ele>
        <time>2021-07-23T16:29:49.359Z</time>
      </trkpt>
      <trkpt lat="40.068038" lon="-0.442032">
        <ele>496.3</ele>
        <time>2021-07-23T16:30:02.535Z</time>
      </trkpt>
      <trkpt lat="40.068182" lon="-0.442180">
        <ele>494.6</ele>
        <time>2021-07-23T16:30:06.595Z</time>
      </trkpt>
      <trkpt lat="40.068297" lon="-0.442408">
        <ele>492.7</ele>
        <time>2021-07-23T16:30:11.237Z</time>
      </trkpt>
      <trkpt lat="40.068245" lon="-0.442877">
        <ele>476.5</ele>
        <time>2021-07-23T16:30:20.886Z</time>
      </trkpt>
      <trkpt lat="40.068160" lon="-0.443038">
        <ele>467.0</ele>
        <time>2021-07-23T16:30:23.839Z</time>
      </trkpt>
      <trkpt lat="40.068183" lon="-0.443647">
        <ele>483.8</ele>
        <time>2021-07-23T16:30:32.217Z</time>
      </trkpt>
      <trkpt lat="40.067994" lon="-0.444553">
        <ele>475.9</ele>
        <time>2021-07-23T16:30:47.946Z</time>
      </trkpt>
      <trkpt lat="40.067832" lon="-0.444836">
        <ele>472.6</ele>
        <time>2021-07-23T16:30:53.633Z</time>
      </trkpt>
      <trkpt lat="40.067368" lon="-0.445306">
        <ele>465.3</ele>
        <time>2021-07-23T16:31:05.854Z</time>
      </trkpt>
      <trkpt lat="40.067345" lon="-0.445901">
        <ele>459.6</ele>
        <time>2021-07-23T16:31:15.246Z</time>
      </trkpt>
      <trkpt lat="40.067137" lon="-0.446316">
        <ele>454.6</ele>
        <time>2021-07-23T16:31:22.996Z</time>
      </trkpt>
      <trkpt lat="40.066633" lon="-0.447670">
        <ele>438.4</ele>
        <time>2021-07-23T16:31:46.448Z</time>
      </trkpt>
      <trkpt lat="40.066441" lon="-0.447982">
        <ele>434.2</ele>
        <time>2021-07-23T16:31:52.730Z</time>
      </trkpt>
      <trkpt lat="40.066380" lon="-0.448327">
        <ele>431.8</ele>
        <time>2021-07-23T16:31:56.539Z</time>
      </trkpt>
      <trkpt lat="40.066157" lon="-0.448328">
        <ele>462.3</ele>
        <time>2021-07-23T16:32:02.012Z</time>
      </trkpt>
      <trkpt lat="40.066143" lon="-0.448432">
        <ele>457.5</ele>
        <time>2021-07-23T16:32:03.417Z</time>
      </trkpt>
      <trkpt lat="40.065742" lon="-0.448641">
        <ele>424.9</ele>
        <time>2021-07-23T16:32:11.508Z</time>
      </trkpt>
      <trkpt lat="40.065509" lon="-0.448863">
        <ele>422.1</ele>
        <time>2021-07-23T16:32:17.694Z</time>
      </trkpt>
      <trkpt lat="40.064966" lon="-0.449084">
        <ele>416.6</ele>
        <time>2021-07-23T16:32:30.346Z</time>
      </trkpt>
      <trkpt lat="40.064719" lon="-0.449539">
        <ele>419.1</ele>
        <time>2021-07-23T16:32:41.508Z</time>
      </trkpt>
      <trkpt lat="40.064782" lon="-0.449620">
        <ele>414.7</ele>
        <time>2021-07-23T16:32:45.916Z</time>
      </trkpt>
      <trkpt lat="40.064878" lon="-0.449698">
        <ele>420.7</ele>
        <time>2021-07-23T16:32:54.404Z</time>
      </trkpt>
      <trkpt lat="40.065217" lon="-0.450020">
        <ele>414.2</ele>
        <time>2021-07-23T16:33:08.292Z</time>
      </trkpt>
      <trkpt lat="40.065667" lon="-0.450142">
        <ele>413.9</ele>
        <time>2021-07-23T16:33:32.568Z</time>
      </trkpt>
      <trkpt lat="40.066043" lon="-0.450600">
        <ele>437.6</ele>
        <time>2021-07-23T16:33:57.394Z</time>
      </trkpt>
      <trkpt lat="40.066254" lon="-0.451042">
        <ele>417.8</ele>
        <time>2021-07-23T16:34:16.845Z</time>
      </trkpt>
      <trkpt lat="40.066421" lon="-0.451214">
        <ele>418.9</ele>
        <time>2021-07-23T16:34:29.794Z</time>
      </trkpt>
      <trkpt lat="40.066629" lon="-0.451311">
        <ele>420.0</ele>
        <time>2021-07-23T16:34:43.743Z</time>
      </trkpt>
      <trkpt lat="40.066935" lon="-0.451238">
        <ele>421.7</ele>
        <time>2021-07-23T16:35:03.710Z</time>
      </trkpt>
      <trkpt lat="40.067158" lon="-0.451327">
        <ele>422.9</ele>
        <time>2021-07-23T16:35:18.653Z</time>
      </trkpt>
      <trkpt lat="40.067223" lon="-0.451651">
        <ele>424.3</ele>
        <time>2021-07-23T16:35:34.786Z</time>
      </trkpt>
      <trkpt lat="40.067476" lon="-0.452149">
        <ele>426.8</ele>
        <time>2021-07-23T16:36:02.994Z</time>
      </trkpt>
      <trkpt lat="40.067411" lon="-0.452746">
        <ele>429.3</ele>
        <time>2021-07-23T16:36:30.666Z</time>
      </trkpt>
      <trkpt lat="40.067311" lon="-0.453140">
        <ele>431.0</ele>
        <time>2021-07-23T16:36:50.459Z</time>
      </trkpt>
      <trkpt lat="40.067443" lon="-0.453485">
        <ele>462.4</ele>
        <time>2021-07-23T16:36:56.436Z</time>
      </trkpt>
      <trkpt lat="40.067887" lon="-0.453512">
        <ele>446.0</ele>
        <time>2021-07-23T16:37:03.281Z</time>
      </trkpt>
      <trkpt lat="40.067657" lon="-0.454092">
        <ele>433.0</ele>
        <time>2021-07-23T16:37:10.797Z</time>
      </trkpt>
      <trkpt lat="40.067417" lon="-0.454238">
        <ele>434.9</ele>
        <time>2021-07-23T16:37:30.758Z</time>
      </trkpt>
      <trkpt lat="40.067120" lon="-0.454175">
        <ele>435.8</ele>
        <time>2021-07-23T16:37:42.814Z</time>
      </trkpt>
      <trkpt lat="40.066955" lon="-0.454006">
        <ele>436.7</ele>
        <time>2021-07-23T16:37:52.747Z</time>
      </trkpt>
      <trkpt lat="40.066767" lon="-0.453827">
        <ele>437.7</ele>
        <time>2021-07-23T16:38:07.155Z</time>
      </trkpt>
      <trkpt lat="40.066655" lon="-0.453369">
        <ele>439.3</ele>
        <time>2021-07-23T16:38:26.533Z</time>
      </trkpt>
      <trkpt lat="40.066519" lon="-0.453276">
        <ele>439.9</ele>
        <time>2021-07-23T16:38:32.456Z</time>
      </trkpt>
      <trkpt lat="40.066263" lon="-0.452933">
        <ele>441.7</ele>
        <time>2021-07-23T16:38:52.605Z</time>
      </trkpt>
      <trkpt lat="40.066270" lon="-0.453165">
        <ele>442.7</ele>
        <time>2021-07-23T16:39:05.397Z</time>
      </trkpt>
      <trkpt lat="40.066252" lon="-0.453353">
        <ele>443.5</ele>
        <time>2021-07-23T16:39:11.432Z</time>
      </trkpt>
      <trkpt lat="40.066159" lon="-0.453476">
        <ele>444.2</ele>
        <time>2021-07-23T16:39:20.160Z</time>
      </trkpt>
      <trkpt lat="40.065956" lon="-0.453411">
        <ele>445.4</ele>
        <time>2021-07-23T16:39:31.323Z</time>
      </trkpt>
      <trkpt lat="40.065457" lon="-0.453882">
        <ele>448.8</ele>
        <time>2021-07-23T16:40:09.061Z</time>
      </trkpt>
      <trkpt lat="40.065458" lon="-0.454222">
        <ele>450.3</ele>
        <time>2021-07-23T16:40:26.158Z</time>
      </trkpt>
      <trkpt lat="40.065435" lon="-0.454338">
        <ele>450.8</ele>
        <time>2021-07-23T16:40:33.341Z</time>
      </trkpt>
      <trkpt lat="40.065356" lon="-0.454433">
        <ele>451.6</ele>
        <time>2021-07-23T16:40:39.959Z</time>
      </trkpt>
      <trkpt lat="40.064763" lon="-0.454451">
        <ele>455.9</ele>
        <time>2021-07-23T16:41:17.417Z</time>
      </trkpt>
      <trkpt lat="40.064671" lon="-0.454514">
        <ele>456.7</ele>
        <time>2021-07-23T16:41:24.202Z</time>
      </trkpt>
      <trkpt lat="40.064555" lon="-0.454931">
        <ele>459.1</ele>
        <time>2021-07-23T16:41:47.179Z</time>
      </trkpt>
      <trkpt lat="40.064568" lon="-0.455098">
        <ele>460.1</ele>
        <time>2021-07-23T16:41:56.154Z</time>
      </trkpt>
      <trkpt lat="40.064686" lon="-0.455328">
        <ele>461.6</ele>
        <time>2021-07-23T16:42:11.393Z</time>
      </trkpt>
      <trkpt lat="40.064844" lon="-0.455253">
        <ele>462.9</ele>
        <time>2021-07-23T16:42:23.457Z</time>
      </trkpt>
      <trkpt lat="40.064920" lon="-0.454887">
        <ele>465.5</ele>
        <time>2021-07-23T16:42:45.049Z</time>
      </trkpt>
      <trkpt lat="40.065046" lon="-0.454889">
        <ele>466.9</ele>
        <time>2021-07-23T16:42:54.932Z</time>
      </trkpt>
      <trkpt lat="40.065238" lon="-0.455033">
        <ele>469.3</ele>
        <time>2021-07-23T16:43:12.407Z</time>
      </trkpt>
      <trkpt lat="40.065747" lon="-0.455169">
        <ele>474.9</ele>
        <time>2021-07-23T16:43:55.849Z</time>
      </trkpt>
      <trkpt lat="40.065997" lon="-0.455087">
        <ele>477.7</ele>
        <time>2021-07-23T16:44:19.245Z</time>
      </trkpt>
      <trkpt lat="40.066109" lon="-0.455116">
        <ele>479.0</ele>
        <time>2021-07-23T16:44:33.000Z</time>
      </trkpt>
      <trkpt lat="40.066245" lon="-0.455373">
        <ele>481.6</ele>
        <time>2021-07-23T16:44:53.429Z</time>
      </trkpt>
      <trkpt lat="40.066342" lon="-0.455438">
        <ele>482.7</ele>
        <time>2021-07-23T16:45:07.046Z</time>
      </trkpt>
      <trkpt lat="40.066660" lon="-0.455392">
        <ele>486.1</ele>
        <time>2021-07-23T16:45:37.882Z</time>
      </trkpt>
      <trkpt lat="40.066767" lon="-0.455424">
        <ele>487.2</ele>
        <time>2021-07-23T16:45:45.946Z</time>
      </trkpt>
      <trkpt lat="40.067075" lon="-0.455994">
        <ele>492.7</ele>
        <time>2021-07-23T16:46:30.630Z</time>
      </trkpt>
      <trkpt lat="40.067061" lon="-0.456079">
        <ele>493.4</ele>
        <time>2021-07-23T16:46:40.366Z</time>
      </trkpt>
      <trkpt lat="40.066913" lon="-0.456040">
        <ele>494.9</ele>
        <time>2021-07-23T16:46:49.993Z</time>
      </trkpt>
      <trkpt lat="40.066782" lon="-0.455943">
        <ele>496.5</ele>
        <time>2021-07-23T16:47:00.876Z</time>
      </trkpt>
      <trkpt lat="40.066612" lon="-0.455930">
        <ele>498.2</ele>
        <time>2021-07-23T16:47:15.901Z</time>
      </trkpt>
      <trkpt lat="40.065934" lon="-0.456215">
        <ele>504.1</ele>
        <time>2021-07-23T16:48:07.626Z</time>
      </trkpt>
      <trkpt lat="40.065819" lon="-0.456411">
        <ele>505.3</ele>
        <time>2021-07-23T16:48:17.883Z</time>
      </trkpt>
      <trkpt lat="40.065558" lon="-0.457287">
        <ele>509.8</ele>
        <time>2021-07-23T16:49:01.470Z</time>
      </trkpt>
      <trkpt lat="40.065369" lon="-0.457689">
        <ele>512.1</ele>
        <time>2021-07-23T16:49:22.379Z</time>
      </trkpt>
      <trkpt lat="40.065020" lon="-0.458247">
        <ele>516.0</ele>
        <time>2021-07-23T16:49:55.776Z</time>
      </trkpt>
      <trkpt lat="40.064996" lon="-0.458406">
        <ele>516.9</ele>
        <time>2021-07-23T16:50:03.928Z</time>
      </trkpt>
      <trkpt lat="40.065033" lon="-0.458662">
        <ele>518.4</ele>
        <time>2021-07-23T16:50:17.024Z</time>
      </trkpt>
      <trkpt lat="40.065204" lon="-0.458984">
        <ele>520.6</ele>
        <time>2021-07-23T16:50:37.727Z</time>
      </trkpt>
      <trkpt lat="40.065218" lon="-0.459127">
        <ele>521.4</ele>
        <time>2021-07-23T16:50:45.340Z</time>
      </trkpt>
      <trkpt lat="40.065191" lon="-0.459287">
        <ele>522.4</ele>
        <time>2021-07-23T16:50:54.471Z</time>
      </trkpt>
      <trkpt lat="40.065035" lon="-0.459478">
        <ele>524.0</ele>
        <time>2021-07-23T16:51:09.650Z</time>
      </trkpt>
      <trkpt lat="40.065017" lon="-0.459638">
        <ele>524.9</ele>
        <time>2021-07-23T16:51:19.057Z</time>
      </trkpt>
      <trkpt lat="40.065120" lon="-0.459862">
        <ele>526.3</ele>
        <time>2021-07-23T16:51:34.073Z</time>
      </trkpt>
      <trkpt lat="40.065466" lon="-0.460307">
        <ele>531.2</ele>
        <time>2021-07-23T16:52:13.015Z</time>
      </trkpt>
      <trkpt lat="40.065708" lon="-0.460847">
        <ele>536.1</ele>
        <time>2021-07-23T16:52:52.800Z</time>
      </trkpt>
      <trkpt lat="40.065719" lon="-0.460972">
        <ele>537.1</ele>
        <time>2021-07-23T16:53:00.839Z</time>
      </trkpt>
      <trkpt lat="40.065623" lon="-0.461253">
        <ele>539.4</ele>
        <time>2021-07-23T16:53:20.897Z</time>
      </trkpt>
      <trkpt lat="40.065623" lon="-0.461497">
        <ele>541.3</ele>
        <time>2021-07-23T16:53:36.904Z</time>
      </trkpt>
      <trkpt lat="40.065812" lon="-0.461865">
        <ele>544.8</ele>
        <time>2021-07-23T16:54:06.155Z</time>
      </trkpt>
      <trkpt lat="40.065804" lon="-0.461996">
        <ele>545.8</ele>
        <time>2021-07-23T16:54:14.911Z</time>
      </trkpt>
      <trkpt lat="40.065661" lon="-0.462287">
        <ele>548.6</ele>
        <time>2021-07-23T16:54:37.507Z</time>
      </trkpt>
      <trkpt lat="40.065716" lon="-0.462372">
        <ele>549.4</ele>
        <time>2021-07-23T16:54:44.923Z</time>
      </trkpt>
      <trkpt lat="40.065942" lon="-0.462427">
        <ele>551.8</ele>
        <time>2021-07-23T16:55:04.609Z</time>
      </trkpt>
      <trkpt lat="40.066058" lon="-0.462405">
        <ele>553.0</ele>
        <time>2021-07-23T16:55:14.739Z</time>
      </trkpt>
      <trkpt lat="40.066119" lon="-0.462304">
        <ele>554.0</ele>
        <time>2021-07-23T16:55:23.227Z</time>
      </trkpt>
      <trkpt lat="40.066301" lon="-0.461508">
        <ele>560.6</ele>
        <time>2021-07-23T16:56:16.566Z</time>
      </trkpt>
      <trkpt lat="40.066557" lon="-0.461210">
        <ele>564.0</ele>
        <time>2021-07-23T16:56:43.793Z</time>
      </trkpt>
      <trkpt lat="40.066622" lon="-0.461066">
        <ele>565.1</ele>
        <time>2021-07-23T16:56:53.880Z</time>
      </trkpt>
      <trkpt lat="40.066559" lon="-0.460596">
        <ele>568.3</ele>
        <time>2021-07-23T16:57:21.763Z</time>
      </trkpt>
      <trkpt lat="40.066579" lon="-0.460224">
        <ele>570.8</ele>
        <time>2021-07-23T16:57:43.096Z</time>
      </trkpt>
      <trkpt lat="40.066661" lon="-0.460075">
        <ele>572.1</ele>
        <time>2021-07-23T16:57:53.672Z</time>
      </trkpt>
      <trkpt lat="40.066928" lon="-0.460080">
        <ele>574.4</ele>
        <time>2021-07-23T16:58:13.574Z</time>
      </trkpt>
      <trkpt lat="40.066986" lon="-0.460142">
        <ele>575.0</ele>
        <time>2021-07-23T16:58:19.114Z</time>
      </trkpt>
      <trkpt lat="40.067002" lon="-0.460273">
        <ele>575.9</ele>
        <time>2021-07-23T16:58:26.581Z</time>
      </trkpt>
      <trkpt lat="40.066888" lon="-0.460686">
        <ele>578.9</ele>
        <time>2021-07-23T16:58:51.147Z</time>
      </trkpt>
      <trkpt lat="40.066894" lon="-0.460806">
        <ele>579.7</ele>
        <time>2021-07-23T16:58:57.841Z</time>
      </trkpt>
      <trkpt lat="40.067197" lon="-0.461306">
        <ele>584.0</ele>
        <time>2021-07-23T16:59:33.054Z</time>
      </trkpt>
      <trkpt lat="40.067164" lon="-0.461569">
        <ele>585.8</ele>
        <time>2021-07-23T16:59:47.807Z</time>
      </trkpt>
      <trkpt lat="40.066999" lon="-0.461854">
        <ele>588.2</ele>
        <time>2021-07-23T17:00:07.779Z</time>
      </trkpt>
      <trkpt lat="40.066978" lon="-0.461980">
        <ele>589.1</ele>
        <time>2021-07-23T17:00:15.194Z</time>
      </trkpt>
      <trkpt lat="40.067022" lon="-0.462106">
        <ele>590.0</ele>
        <time>2021-07-23T17:00:23.194Z</time>
      </trkpt>
      <trkpt lat="40.067109" lon="-0.462160">
        <ele>590.8</ele>
        <time>2021-07-23T17:00:30.518Z</time>
      </trkpt>
      <trkpt lat="40.067211" lon="-0.462119">
        <ele>591.8</ele>
        <time>2021-07-23T17:00:38.915Z</time>
      </trkpt>
      <trkpt lat="40.067708" lon="-0.461252">
        <ele>600.6</ele>
        <time>2021-07-23T17:01:47.964Z</time>
      </trkpt>
      <trkpt lat="40.067844" lon="-0.461142">
        <ele>602.5</ele>
        <time>2021-07-23T17:02:01.824Z</time>
      </trkpt>
      <trkpt lat="40.068229" lon="-0.461099">
        <ele>607.1</ele>
        <time>2021-07-23T17:02:36.171Z</time>
      </trkpt>
      <trkpt lat="40.068820" lon="-0.461189">
        <ele>614.2</ele>
        <time>2021-07-23T17:03:33.403Z</time>
      </trkpt>
      <trkpt lat="40.069293" lon="-0.460961">
        <ele>620.3</ele>
        <time>2021-07-23T17:04:28.382Z</time>
      </trkpt>
      <trkpt lat="40.069501" lon="-0.460927">
        <ele>622.8</ele>
        <time>2021-07-23T17:04:48.668Z</time>
      </trkpt>
      <trkpt lat="40.069710" lon="-0.460934">
        <ele>625.3</ele>
        <time>2021-07-23T17:05:09.582Z</time>
      </trkpt>
      <trkpt lat="40.070080" lon="-0.461108">
        <ele>630.1</ele>
        <time>2021-07-23T17:05:45.839Z</time>
      </trkpt>
      <trkpt lat="40.070273" lon="-0.461129">
        <ele>632.4</ele>
        <time>2021-07-23T17:06:03.821Z</time>
      </trkpt>
      <trkpt lat="40.070311" lon="-0.461133">
        <ele>632.8</ele>
        <time>2021-07-23T17:06:08.783Z</time>
      </trkpt>
      <trkpt lat="40.070486" lon="-0.461122">
        <ele>635.0</ele>
        <time>2021-07-23T17:06:21.113Z</time>
      </trkpt>
      <trkpt lat="40.070712" lon="-0.461385">
        <ele>638.4</ele>
        <time>2021-07-23T17:06:45.549Z</time>
      </trkpt>
      <trkpt lat="40.070833" lon="-0.461450">
        <ele>639.3</ele>
        <time>2021-07-23T17:06:55.807Z</time>
      </trkpt>
      <trkpt lat="40.070952" lon="-0.461441">
        <ele>640.2</ele>
        <time>2021-07-23T17:07:06.403Z</time>
      </trkpt>
      <trkpt lat="40.071054" lon="-0.461277">
        <ele>641.4</ele>
        <time>2021-07-23T17:07:15.487Z</time>
      </trkpt>
      <trkpt lat="40.071123" lon="-0.459810">
        <ele>649.6</ele>
        <time>2021-07-23T17:08:30.174Z</time>
      </trkpt>
      <trkpt lat="40.071259" lon="-0.459410">
        <ele>652.1</ele>
        <time>2021-07-23T17:08:49.881Z</time>
      </trkpt>
      <trkpt lat="40.071439" lon="-0.459333">
        <ele>653.6</ele>
        <time>2021-07-23T17:09:00.849Z</time>
      </trkpt>
      <trkpt lat="40.071665" lon="-0.459237">
        <ele>655.5</ele>
        <time>2021-07-23T17:09:17.370Z</time>
      </trkpt>
      <trkpt lat="40.071785" lon="-0.459266">
        <ele>656.5</ele>
        <time>2021-07-23T17:09:24.167Z</time>
      </trkpt>
      <trkpt lat="40.071840" lon="-0.459473">
        <ele>657.8</ele>
        <time>2021-07-23T17:09:36.221Z</time>
      </trkpt>
      <trkpt lat="40.071806" lon="-0.460320">
        <ele>662.9</ele>
        <time>2021-07-23T17:10:21.858Z</time>
      </trkpt>
      <trkpt lat="40.071683" lon="-0.460958">
        <ele>667.6</ele>
        <time>2021-07-23T17:11:06.057Z</time>
      </trkpt>
      <trkpt lat="40.071676" lon="-0.462027">
        <ele>677.3</ele>
        <time>2021-07-23T17:12:16.082Z</time>
      </trkpt>
      <trkpt lat="40.071537" lon="-0.462658">
        <ele>683.3</ele>
        <time>2021-07-23T17:13:03.541Z</time>
      </trkpt>
      <trkpt lat="40.071559" lon="-0.462802">
        <ele>684.6</ele>
        <time>2021-07-23T17:13:16.347Z</time>
      </trkpt>
      <trkpt lat="40.071717" lon="-0.463007">
        <ele>687.4</ele>
        <time>2021-07-23T17:13:37.665Z</time>
      </trkpt>
      <trkpt lat="40.072143" lon="-0.463301">
        <ele>694.6</ele>
        <time>2021-07-23T17:14:30.131Z</time>
      </trkpt>
      <trkpt lat="40.072639" lon="-0.463297">
        <ele>702.0</ele>
        <time>2021-07-23T17:15:25.314Z</time>
      </trkpt>
      <trkpt lat="40.072863" lon="-0.463400">
        <ele>705.5</ele>
        <time>2021-07-23T17:15:52.737Z</time>
      </trkpt>
      <trkpt lat="40.072967" lon="-0.463389">
        <ele>707.1</ele>
        <time>2021-07-23T17:16:03.785Z</time>
      </trkpt>
      <trkpt lat="40.073379" lon="-0.463060">
        <ele>714.2</ele>
        <time>2021-07-23T17:16:53.435Z</time>
      </trkpt>
      <trkpt lat="40.073501" lon="-0.462776">
        <ele>717.5</ele>
        <time>2021-07-23T17:17:17.681Z</time>
      </trkpt>
      <trkpt lat="40.073691" lon="-0.462524">
        <ele>721.1</ele>
        <time>2021-07-23T17:17:45.007Z</time>
      </trkpt>
      <trkpt lat="40.073876" lon="-0.462391">
        <ele>723.9</ele>
        <time>2021-07-23T17:18:06.875Z</time>
      </trkpt>
      <trkpt lat="40.074233" lon="-0.462344">
        <ele>728.7</ele>
        <time>2021-07-23T17:18:41.279Z</time>
      </trkpt>
      <trkpt lat="40.074945" lon="-0.462545">
        <ele>738.3</ele>
        <time>2021-07-23T17:19:50.592Z</time>
      </trkpt>
      <trkpt lat="40.074945" lon="-0.462545">
        <ele>738.3</ele>
        <time>2021-07-23T17:19:51.001Z</time>
      </trkpt>
      <trkpt lat="40.075102" lon="-0.462573">
        <ele>740.3</ele>
        <time>2021-07-23T17:20:04.964Z</time>
      </trkpt>
      <trkpt lat="40.075208" lon="-0.462481">
        <ele>741.8</ele>
        <time>2021-07-23T17:20:17.111Z</time>
      </trkpt>
      <trkpt lat="40.075351" lon="-0.462425">
        <ele>743.7</ele>
        <time>2021-07-23T17:20:31.640Z</time>
      </trkpt>
      <trkpt lat="40.075438" lon="-0.462308">
        <ele>745.2</ele>
        <time>2021-07-23T17:20:42.233Z</time>
      </trkpt>
      <trkpt lat="40.075349" lon="-0.462093">
        <ele>747.6</ele>
        <time>2021-07-23T17:21:00.305Z</time>
      </trkpt>
      <trkpt lat="40.075058" lon="-0.462005">
        <ele>751.3</ele>
        <time>2021-07-23T17:21:26.412Z</time>
      </trkpt>
      <trkpt lat="40.075108" lon="-0.461878">
        <ele>752.6</ele>
        <time>2021-07-23T17:21:38.567Z</time>
      </trkpt>
      <trkpt lat="40.075260" lon="-0.461814">
        <ele>754.6</ele>
        <time>2021-07-23T17:21:53.376Z</time>
      </trkpt>
      <trkpt lat="40.075472" lon="-0.461877">
        <ele>757.3</ele>
        <time>2021-07-23T17:22:15.457Z</time>
      </trkpt>
      <trkpt lat="40.075472" lon="-0.461877">
        <ele>757.3</ele>
        <time>2021-07-23T17:22:15.607Z</time>
      </trkpt>
      <trkpt lat="40.075988" lon="-0.461819">
        <ele>762.8</ele>
        <time>2021-07-23T17:23:02.645Z</time>
      </trkpt>
      <trkpt lat="40.076846" lon="-0.461331">
        <ele>772.0</ele>
        <time>2021-07-23T17:24:20.586Z</time>
      </trkpt>
      <trkpt lat="40.077118" lon="-0.461347">
        <ele>774.6</ele>
        <time>2021-07-23T17:24:40.033Z</time>
      </trkpt>
      <trkpt lat="40.077378" lon="-0.461141">
        <ele>777.5</ele>
        <time>2021-07-23T17:25:00.928Z</time>
      </trkpt>
      <trkpt lat="40.077708" lon="-0.461112">
        <ele>779.9</ele>
        <time>2021-07-23T17:25:21.719Z</time>
      </trkpt>
      <trkpt lat="40.078038" lon="-0.461236">
        <ele>782.5</ele>
        <time>2021-07-23T17:25:40.849Z</time>
      </trkpt>
      <trkpt lat="40.078014" lon="-0.461367">
        <ele>783.2</ele>
        <time>2021-07-23T17:25:46.571Z</time>
      </trkpt>
      <trkpt lat="40.077805" lon="-0.461634">
        <ele>785.4</ele>
        <time>2021-07-23T17:26:04.317Z</time>
      </trkpt>
      <trkpt lat="40.077819" lon="-0.461795">
        <ele>786.3</ele>
        <time>2021-07-23T17:26:12.751Z</time>
      </trkpt>
      <trkpt lat="40.077974" lon="-0.461881">
        <ele>787.5</ele>
        <time>2021-07-23T17:26:24.886Z</time>
      </trkpt>
      <trkpt lat="40.078074" lon="-0.462387">
        <ele>790.5</ele>
        <time>2021-07-23T17:26:57.749Z</time>
      </trkpt>
      <trkpt lat="40.078422" lon="-0.462642">
        <ele>794.8</ele>
        <time>2021-07-23T17:27:32.147Z</time>
      </trkpt>
      <trkpt lat="40.078631" lon="-0.462857">
        <ele>797.7</ele>
        <time>2021-07-23T17:27:55.930Z</time>
      </trkpt>
      <trkpt lat="40.079406" lon="-0.462677">
        <ele>806.3</ele>
        <time>2021-07-23T17:29:06.704Z</time>
      </trkpt>
      <trkpt lat="40.079686" lon="-0.462097">
        <ele>811.0</ele>
        <time>2021-07-23T17:29:52.631Z</time>
      </trkpt>
      <trkpt lat="40.080063" lon="-0.461818">
        <ele>813.2</ele>
        <time>2021-07-23T17:30:26.384Z</time>
      </trkpt>
      <trkpt lat="40.080303" lon="-0.461831">
        <ele>814.4</ele>
        <time>2021-07-23T17:30:41.418Z</time>
      </trkpt>
      <trkpt lat="40.080572" lon="-0.462054">
        <ele>816.1</ele>
        <time>2021-07-23T17:30:57.154Z</time>
      </trkpt>
      <trkpt lat="40.080720" lon="-0.462548">
        <ele>818.1</ele>
        <time>2021-07-23T17:31:11.661Z</time>
      </trkpt>
      <trkpt lat="40.081023" lon="-0.462882">
        <ele>819.7</ele>
        <time>2021-07-23T17:31:24.367Z</time>
      </trkpt>
      <trkpt lat="40.081287" lon="-0.463404">
        <ele>820.8</ele>
        <time>2021-07-23T17:31:40.133Z</time>
      </trkpt>
      <trkpt lat="40.081729" lon="-0.464104">
        <ele>822.5</ele>
        <time>2021-07-23T17:32:08.538Z</time>
      </trkpt>
      <trkpt lat="40.081850" lon="-0.464562">
        <ele>823.4</ele>
        <time>2021-07-23T17:32:28.567Z</time>
      </trkpt>
      <trkpt lat="40.081873" lon="-0.465095">
        <ele>826.3</ele>
        <time>2021-07-23T17:32:54.478Z</time>
      </trkpt>
      <trkpt lat="40.081782" lon="-0.465213">
        <ele>827.4</ele>
        <time>2021-07-23T17:33:03.050Z</time>
      </trkpt>
      <trkpt lat="40.081787" lon="-0.465788">
        <ele>831.0</ele>
        <time>2021-07-23T17:33:35.693Z</time>
      </trkpt>
      <trkpt lat="40.081832" lon="-0.465926">
        <ele>832.0</ele>
        <time>2021-07-23T17:33:45.001Z</time>
      </trkpt>
      <trkpt lat="40.082183" lon="-0.466158">
        <ele>835.3</ele>
        <time>2021-07-23T17:34:17.543Z</time>
      </trkpt>
      <trkpt lat="40.082488" lon="-0.466734">
        <ele>839.7</ele>
        <time>2021-07-23T17:35:01.235Z</time>
      </trkpt>
      <trkpt lat="40.082853" lon="-0.467250">
        <ele>844.1</ele>
        <time>2021-07-23T17:35:44.800Z</time>
      </trkpt>
      <trkpt lat="40.082963" lon="-0.467651">
        <ele>846.7</ele>
        <time>2021-07-23T17:36:09.145Z</time>
      </trkpt>
      <trkpt lat="40.083133" lon="-0.467849">
        <ele>848.6</ele>
        <time>2021-07-23T17:36:25.039Z</time>
      </trkpt>
      <trkpt lat="40.083261" lon="-0.468277">
        <ele>851.4</ele>
        <time>2021-07-23T17:36:48.800Z</time>
      </trkpt>
      <trkpt lat="40.083612" lon="-0.468477">
        <ele>853.8</ele>
        <time>2021-07-23T17:37:13.404Z</time>
      </trkpt>
      <trkpt lat="40.084666" lon="-0.469858">
        <ele>859.2</ele>
        <time>2021-07-23T17:38:25.778Z</time>
      </trkpt>
      <trkpt lat="40.084787" lon="-0.470455">
        <ele>860.3</ele>
        <time>2021-07-23T17:38:44.520Z</time>
      </trkpt>
      <trkpt lat="40.084989" lon="-0.470681">
        <ele>860.8</ele>
        <time>2021-07-23T17:38:54.490Z</time>
      </trkpt>
      <trkpt lat="40.085474" lon="-0.471154">
        <ele>861.9</ele>
        <time>2021-07-23T17:39:17.852Z</time>
      </trkpt>
      <trkpt lat="40.086174" lon="-0.472372">
        <ele>864.6</ele>
        <time>2021-07-23T17:40:06.970Z</time>
      </trkpt>
      <trkpt lat="40.086309" lon="-0.472411">
        <ele>864.9</ele>
        <time>2021-07-23T17:40:13.590Z</time>
      </trkpt>
      <trkpt lat="40.086876" lon="-0.473272">
        <ele>867.4</ele>
        <time>2021-07-23T17:40:56.063Z</time>
      </trkpt>
      <trkpt lat="40.088453" lon="-0.474081">
        <ele>871.0</ele>
        <time>2021-07-23T17:42:11.569Z</time>
      </trkpt>
      <trkpt lat="40.089127" lon="-0.474300">
        <ele>871.6</ele>
        <time>2021-07-23T17:42:35.018Z</time>
      </trkpt>
      <trkpt lat="40.089954" lon="-0.474796">
        <ele>871.4</ele>
        <time>2021-07-23T17:43:02.312Z</time>
      </trkpt>
      <trkpt lat="40.090176" lon="-0.474564">
        <ele>871.3</ele>
        <time>2021-07-23T17:43:10.681Z</time>
      </trkpt>
      <trkpt lat="40.090619" lon="-0.474648">
        <ele>871.3</ele>
        <time>2021-07-23T17:43:24.141Z</time>
      </trkpt>
      <trkpt lat="40.090671" lon="-0.474939">
        <ele>871.4</ele>
        <time>2021-07-23T17:43:31.253Z</time>
      </trkpt>
      <trkpt lat="40.090849" lon="-0.475230">
        <ele>871.6</ele>
        <time>2021-07-23T17:43:40.480Z</time>
      </trkpt>
      <trkpt lat="40.091130" lon="-0.475528">
        <ele>871.8</ele>
        <time>2021-07-23T17:43:53.772Z</time>
      </trkpt>
      <trkpt lat="40.091688" lon="-0.475859">
        <ele>872.1</ele>
        <time>2021-07-23T17:44:16.753Z</time>
      </trkpt>
      <trkpt lat="40.092163" lon="-0.476017">
        <ele>872.5</ele>
        <time>2021-07-23T17:44:35.164Z</time>
      </trkpt>
      <trkpt lat="40.092540" lon="-0.476016">
        <ele>872.8</ele>
        <time>2021-07-23T17:44:48.994Z</time>
      </trkpt>
      <trkpt lat="40.092737" lon="-0.476903">
        <ele>873.4</ele>
        <time>2021-07-23T17:45:14.254Z</time>
      </trkpt>
      <trkpt lat="40.093262" lon="-0.477332">
        <ele>874.1</ele>
        <time>2021-07-23T17:45:35.944Z</time>
      </trkpt>
      <trkpt lat="40.093311" lon="-0.477955">
        <ele>874.7</ele>
        <time>2021-07-23T17:45:52.254Z</time>
      </trkpt>
      <trkpt lat="40.093459" lon="-0.479135">
        <ele>875.8</ele>
        <time>2021-07-23T17:46:27.350Z</time>
      </trkpt>
      <trkpt lat="40.093984" lon="-0.480637">
        <ele>879.1</ele>
        <time>2021-07-23T17:47:25.090Z</time>
      </trkpt>
      <trkpt lat="40.094707" lon="-0.482117">
        <ele>882.5</ele>
        <time>2021-07-23T17:48:28.361Z</time>
      </trkpt>
      <trkpt lat="40.096053" lon="-0.483469">
        <ele>885.5</ele>
        <time>2021-07-23T17:49:39.126Z</time>
      </trkpt>
      <trkpt lat="40.096841" lon="-0.483748">
        <ele>886.1</ele>
        <time>2021-07-23T17:50:07.544Z</time>
      </trkpt>
      <trkpt lat="40.098761" lon="-0.485100">
        <ele>884.5</ele>
        <time>2021-07-23T17:51:11.331Z</time>
      </trkpt>
      <trkpt lat="40.099689" lon="-0.485895">
        <ele>882.5</ele>
        <time>2021-07-23T17:51:42.043Z</time>
      </trkpt>
      <trkpt lat="40.099576" lon="-0.485960">
        <ele>882.2</ele>
        <time>2021-07-23T17:51:45.518Z</time>
      </trkpt>
      <trkpt lat="40.098776" lon="-0.485926">
        <ele>880.7</ele>
        <time>2021-07-23T17:52:07.308Z</time>
      </trkpt>
      <trkpt lat="40.098003" lon="-0.486180">
        <ele>878.9</ele>
        <time>2021-07-23T17:52:29.249Z</time>
      </trkpt>
      <trkpt lat="40.097008" lon="-0.486645">
        <ele>876.4</ele>
        <time>2021-07-23T17:52:57.472Z</time>
      </trkpt>
      <trkpt lat="40.096550" lon="-0.487088">
        <ele>874.6</ele>
        <time>2021-07-23T17:53:12.258Z</time>
      </trkpt>
      <trkpt lat="40.096040" lon="-0.487824">
        <ele>872.3</ele>
        <time>2021-07-23T17:53:31.769Z</time>
      </trkpt>
      <trkpt lat="40.095890" lon="-0.487934">
        <ele>871.8</ele>
        <time>2021-07-23T17:53:36.168Z</time>
      </trkpt>
      <trkpt lat="40.095353" lon="-0.488086">
        <ele>870.0</ele>
        <time>2021-07-23T17:53:50.202Z</time>
      </trkpt>
      <trkpt lat="40.095019" lon="-0.488065">
        <ele>868.9</ele>
        <time>2021-07-23T17:53:58.770Z</time>
      </trkpt>
      <trkpt lat="40.094664" lon="-0.488484">
        <ele>867.4</ele>
        <time>2021-07-23T17:54:11.077Z</time>
      </trkpt>
      <trkpt lat="40.093796" lon="-0.489045">
        <ele>864.3</ele>
        <time>2021-07-23T17:54:36.390Z</time>
      </trkpt>
      <trkpt lat="40.093436" lon="-0.489214">
        <ele>863.1</ele>
        <time>2021-07-23T17:54:46.365Z</time>
      </trkpt>
      <trkpt lat="40.093054" lon="-0.489258">
        <ele>861.9</ele>
        <time>2021-07-23T17:54:56.217Z</time>
      </trkpt>
      <trkpt lat="40.092433" lon="-0.489451">
        <ele>859.5</ele>
        <time>2021-07-23T17:55:12.605Z</time>
      </trkpt>
      <trkpt lat="40.092299" lon="-0.489551">
        <ele>858.6</ele>
        <time>2021-07-23T17:55:16.465Z</time>
      </trkpt>
      <trkpt lat="40.092144" lon="-0.489703">
        <ele>857.4</ele>
        <time>2021-07-23T17:55:21.387Z</time>
      </trkpt>
      <trkpt lat="40.092220" lon="-0.489822">
        <ele>856.7</ele>
        <time>2021-07-23T17:55:24.244Z</time>
      </trkpt>
      <trkpt lat="40.092281" lon="-0.490022">
        <ele>855.7</ele>
        <time>2021-07-23T17:55:28.325Z</time>
      </trkpt>
      <trkpt lat="40.092286" lon="-0.490293">
        <ele>854.5</ele>
        <time>2021-07-23T17:55:33.276Z</time>
      </trkpt>
      <trkpt lat="40.092354" lon="-0.490517">
        <ele>853.4</ele>
        <time>2021-07-23T17:55:37.665Z</time>
      </trkpt>
      <trkpt lat="40.092449" lon="-0.491356">
        <ele>849.5</ele>
        <time>2021-07-23T17:55:52.189Z</time>
      </trkpt>
      <trkpt lat="40.092402" lon="-0.491573">
        <ele>847.5</ele>
        <time>2021-07-23T17:55:55.911Z</time>
      </trkpt>
      <trkpt lat="40.092536" lon="-0.491683">
        <ele>845.6</ele>
        <time>2021-07-23T17:55:59.293Z</time>
      </trkpt>
      <trkpt lat="40.092938" lon="-0.491483">
        <ele>840.6</ele>
        <time>2021-07-23T17:56:08.422Z</time>
      </trkpt>
      <trkpt lat="40.093067" lon="-0.491497">
        <ele>839.1</ele>
        <time>2021-07-23T17:56:11.118Z</time>
      </trkpt>
      <trkpt lat="40.093338" lon="-0.491583">
        <ele>835.8</ele>
        <time>2021-07-23T17:56:16.898Z</time>
      </trkpt>
      <trkpt lat="40.093517" lon="-0.491820">
        <ele>832.9</ele>
        <time>2021-07-23T17:56:22.152Z</time>
      </trkpt>
      <trkpt lat="40.093717" lon="-0.492876">
        <ele>822.4</ele>
        <time>2021-07-23T17:56:39.217Z</time>
      </trkpt>
      <trkpt lat="40.093707" lon="-0.493320">
        <ele>817.8</ele>
        <time>2021-07-23T17:56:46.187Z</time>
      </trkpt>
      <trkpt lat="40.093604" lon="-0.493619">
        <ele>814.5</ele>
        <time>2021-07-23T17:56:51.362Z</time>
      </trkpt>
      <trkpt lat="40.093720" lon="-0.494011">
        <ele>810.2</ele>
        <time>2021-07-23T17:56:58.055Z</time>
      </trkpt>
      <trkpt lat="40.093699" lon="-0.494142">
        <ele>808.8</ele>
        <time>2021-07-23T17:57:00.173Z</time>
      </trkpt>
      <trkpt lat="40.093743" lon="-0.494406">
        <ele>806.1</ele>
        <time>2021-07-23T17:57:04.510Z</time>
      </trkpt>
      <trkpt lat="40.093804" lon="-0.494468">
        <ele>805.0</ele>
        <time>2021-07-23T17:57:06.093Z</time>
      </trkpt>
      <trkpt lat="40.093854" lon="-0.494441">
        <ele>804.3</ele>
        <time>2021-07-23T17:57:07.208Z</time>
      </trkpt>
      <trkpt lat="40.094437" lon="-0.493727">
        <ele>791.2</ele>
        <time>2021-07-23T17:57:23.557Z</time>
      </trkpt>
      <trkpt lat="40.094722" lon="-0.493653">
        <ele>786.4</ele>
        <time>2021-07-23T17:57:29.363Z</time>
      </trkpt>
      <trkpt lat="40.094938" lon="-0.493770">
        <ele>782.6</ele>
        <time>2021-07-23T17:57:33.992Z</time>
      </trkpt>
      <trkpt lat="40.095006" lon="-0.493887">
        <ele>780.7</ele>
        <time>2021-07-23T17:57:36.206Z</time>
      </trkpt>
      <trkpt lat="40.095003" lon="-0.494004">
        <ele>779.2</ele>
        <time>2021-07-23T17:57:37.970Z</time>
      </trkpt>
      <trkpt lat="40.094683" lon="-0.494372">
        <ele>771.2</ele>
        <time>2021-07-23T17:57:46.311Z</time>
      </trkpt>
      <trkpt lat="40.095043" lon="-0.494895">
        <ele>759.2</ele>
        <time>2021-07-23T17:57:56.734Z</time>
      </trkpt>
      <trkpt lat="40.095524" lon="-0.495307">
        <ele>746.4</ele>
        <time>2021-07-23T17:58:07.887Z</time>
      </trkpt>
      <trkpt lat="40.095659" lon="-0.495208">
        <ele>742.9</ele>
        <time>2021-07-23T17:58:10.871Z</time>
      </trkpt>
      <trkpt lat="40.095677" lon="-0.495356">
        <ele>740.4</ele>
        <time>2021-07-23T17:58:13.095Z</time>
      </trkpt>
      <trkpt lat="40.095722" lon="-0.495387">
        <ele>739.2</ele>
        <time>2021-07-23T17:58:14.070Z</time>
      </trkpt>
      <trkpt lat="40.095795" lon="-0.495325">
        <ele>737.3</ele>
        <time>2021-07-23T17:58:15.764Z</time>
      </trkpt>
      <trkpt lat="40.095785" lon="-0.495466">
        <ele>734.9</ele>
        <time>2021-07-23T17:58:17.868Z</time>
      </trkpt>
      <trkpt lat="40.096037" lon="-0.495416">
        <ele>730.1</ele>
        <time>2021-07-23T17:58:22.810Z</time>
      </trkpt>
      <trkpt lat="40.096020" lon="-0.495641">
        <ele>726.8</ele>
        <time>2021-07-23T17:58:26.181Z</time>
      </trkpt>
      <trkpt lat="40.095723" lon="-0.495991">
        <ele>719.3</ele>
        <time>2021-07-23T17:58:34.036Z</time>
      </trkpt>
      <trkpt lat="40.095756" lon="-0.496876">
        <ele>706.5</ele>
        <time>2021-07-23T17:58:47.539Z</time>
      </trkpt>
      <trkpt lat="40.095727" lon="-0.497333">
        <ele>699.9</ele>
        <time>2021-07-23T17:58:54.584Z</time>
      </trkpt>
      <trkpt lat="40.095653" lon="-0.497515">
        <ele>696.9</ele>
        <time>2021-07-23T17:58:57.765Z</time>
      </trkpt>
      <trkpt lat="40.095659" lon="-0.497691">
        <ele>694.4</ele>
        <time>2021-07-23T17:59:00.450Z</time>
      </trkpt>
      <trkpt lat="40.095561" lon="-0.497955">
        <ele>690.2</ele>
        <time>2021-07-23T17:59:04.954Z</time>
      </trkpt>
      <trkpt lat="40.095529" lon="-0.498201">
        <ele>652.2</ele>
        <time>2021-07-23T17:59:14.220Z</time>
      </trkpt>
      <trkpt lat="40.095690" lon="-0.498527">
        <ele>676.9</ele>
        <time>2021-07-23T17:59:18.909Z</time>
      </trkpt>
      <trkpt lat="40.095856" lon="-0.498750">
        <ele>672.8</ele>
        <time>2021-07-23T17:59:23.048Z</time>
      </trkpt>
      <trkpt lat="40.095846" lon="-0.498987">
        <ele>631.2</ele>
        <time>2021-07-23T17:59:25.569Z</time>
      </trkpt>
      <trkpt lat="40.095774" lon="-0.499417">
        <ele>662.2</ele>
        <time>2021-07-23T17:59:33.522Z</time>
      </trkpt>
      <trkpt lat="40.095564" lon="-0.499799">
        <ele>654.6</ele>
        <time>2021-07-23T17:59:40.491Z</time>
      </trkpt>
      <trkpt lat="40.095647" lon="-0.500386">
        <ele>644.9</ele>
        <time>2021-07-23T17:59:49.349Z</time>
      </trkpt>
      <trkpt lat="40.096003" lon="-0.500535">
        <ele>595.0</ele>
        <time>2021-07-23T17:59:57.467Z</time>
      </trkpt>
      <trkpt lat="40.096413" lon="-0.501377">
        <ele>583.2</ele>
        <time>2021-07-23T18:00:08.179Z</time>
      </trkpt>
      <trkpt lat="40.096572" lon="-0.501462">
        <ele>622.7</ele>
        <time>2021-07-23T18:00:13.666Z</time>
      </trkpt>
      <trkpt lat="40.096779" lon="-0.501381">
        <ele>619.8</ele>
        <time>2021-07-23T18:00:18.020Z</time>
      </trkpt>
      <trkpt lat="40.097311" lon="-0.500868">
        <ele>611.0</ele>
        <time>2021-07-23T18:00:31.796Z</time>
      </trkpt>
      <trkpt lat="40.097374" lon="-0.500717">
        <ele>609.3</ele>
        <time>2021-07-23T18:00:34.785Z</time>
      </trkpt>
      <trkpt lat="40.097459" lon="-0.500538">
        <ele>607.2</ele>
        <time>2021-07-23T18:00:38.179Z</time>
      </trkpt>
      <trkpt lat="40.097446" lon="-0.500477">
        <ele>606.5</ele>
        <time>2021-07-23T18:00:38.819Z</time>
      </trkpt>
      <trkpt lat="40.097436" lon="-0.500258">
        <ele>605.0</ele>
        <time>2021-07-23T18:00:41.057Z</time>
      </trkpt>
      <trkpt lat="40.097517" lon="-0.500248">
        <ele>604.6</ele>
        <time>2021-07-23T18:00:42.834Z</time>
      </trkpt>
      <trkpt lat="40.097586" lon="-0.500179">
        <ele>604.2</ele>
        <time>2021-07-23T18:00:44.726Z</time>
      </trkpt>
      <trkpt lat="40.097771" lon="-0.500060">
        <ele>603.3</ele>
        <time>2021-07-23T18:00:50.091Z</time>
      </trkpt>
      <trkpt lat="40.098054" lon="-0.499975">
        <ele>602.0</ele>
        <time>2021-07-23T18:00:57.154Z</time>
      </trkpt>
      <trkpt lat="40.098493" lon="-0.499680">
        <ele>599.7</ele>
        <time>2021-07-23T18:01:09.736Z</time>
      </trkpt>
      <trkpt lat="40.098694" lon="-0.499733">
        <ele>598.8</ele>
        <time>2021-07-23T18:01:15.117Z</time>
      </trkpt>
      <trkpt lat="40.098908" lon="-0.499873">
        <ele>597.7</ele>
        <time>2021-07-23T18:01:20.928Z</time>
      </trkpt>
      <trkpt lat="40.099117" lon="-0.499905">
        <ele>596.9</ele>
        <time>2021-07-23T18:01:26.460Z</time>
      </trkpt>
      <trkpt lat="40.099593" lon="-0.499444">
        <ele>595.4</ele>
        <time>2021-07-23T18:01:42.508Z</time>
      </trkpt>
      <trkpt lat="40.099855" lon="-0.499487">
        <ele>594.8</ele>
        <time>2021-07-23T18:01:49.644Z</time>
      </trkpt>
      <trkpt lat="40.100122" lon="-0.499272">
        <ele>594.0</ele>
        <time>2021-07-23T18:01:58.036Z</time>
      </trkpt>
      <trkpt lat="40.100335" lon="-0.499411">
        <ele>593.4</ele>
        <time>2021-07-23T18:02:04.374Z</time>
      </trkpt>
      <trkpt lat="40.100586" lon="-0.499765">
        <ele>592.5</ele>
        <time>2021-07-23T18:02:14.140Z</time>
      </trkpt>
      <trkpt lat="40.100840" lon="-0.499916">
        <ele>592.0</ele>
        <time>2021-07-23T18:02:21.584Z</time>
      </trkpt>
      <trkpt lat="40.101837" lon="-0.500254">
        <ele>590.3</ele>
        <time>2021-07-23T18:02:49.991Z</time>
      </trkpt>
      <trkpt lat="40.102075" lon="-0.500227">
        <ele>589.9</ele>
        <time>2021-07-23T18:02:57.019Z</time>
      </trkpt>
      <trkpt lat="40.102793" lon="-0.499814">
        <ele>589.3</ele>
        <time>2021-07-23T18:03:21.326Z</time>
      </trkpt>
      <trkpt lat="40.103708" lon="-0.499138">
        <ele>588.7</ele>
        <time>2021-07-23T18:03:54.140Z</time>
      </trkpt>
      <trkpt lat="40.103959" lon="-0.498832">
        <ele>588.1</ele>
        <time>2021-07-23T18:04:04.125Z</time>
      </trkpt>
      <trkpt lat="40.104020" lon="-0.498687">
        <ele>587.7</ele>
        <time>2021-07-23T18:04:07.726Z</time>
      </trkpt>
      <trkpt lat="40.104221" lon="-0.497850">
        <ele>585.7</ele>
        <time>2021-07-23T18:04:25.531Z</time>
      </trkpt>
      <trkpt lat="40.104283" lon="-0.497786">
        <ele>585.5</ele>
        <time>2021-07-23T18:04:27.508Z</time>
      </trkpt>
      <trkpt lat="40.104357" lon="-0.497791">
        <ele>585.3</ele>
        <time>2021-07-23T18:04:29.333Z</time>
      </trkpt>
      <trkpt lat="40.104426" lon="-0.497931">
        <ele>584.9</ele>
        <time>2021-07-23T18:04:32.469Z</time>
      </trkpt>
      <trkpt lat="40.104463" lon="-0.498301">
        <ele>584.1</ele>
        <time>2021-07-23T18:04:39.448Z</time>
      </trkpt>
      <trkpt lat="40.104878" lon="-0.499277">
        <ele>582.4</ele>
        <time>2021-07-23T18:05:00.628Z</time>
      </trkpt>
      <trkpt lat="40.104927" lon="-0.499540">
        <ele>582.1</ele>
        <time>2021-07-23T18:05:06.027Z</time>
      </trkpt>
      <trkpt lat="40.104890" lon="-0.499814">
        <ele>581.7</ele>
        <time>2021-07-23T18:05:11.649Z</time>
      </trkpt>
      <trkpt lat="40.104607" lon="-0.500720">
        <ele>580.6</ele>
        <time>2021-07-23T18:05:36.015Z</time>
      </trkpt>
      <trkpt lat="40.104463" lon="-0.500967">
        <ele>582.0</ele>
        <time>2021-07-23T18:05:47.582Z</time>
      </trkpt>
      <trkpt lat="40.104385" lon="-0.501348">
        <ele>583.9</ele>
        <time>2021-07-23T18:06:02.387Z</time>
      </trkpt>
      <trkpt lat="40.104369" lon="-0.501847">
        <ele>586.3</ele>
        <time>2021-07-23T18:06:30.508Z</time>
      </trkpt>
      <trkpt lat="40.104533" lon="-0.502196">
        <ele>588.2</ele>
        <time>2021-07-23T18:06:49.085Z</time>
      </trkpt>
      <trkpt lat="40.104550" lon="-0.502252">
        <ele>588.5</ele>
        <time>2021-07-23T18:06:55.876Z</time>
      </trkpt>
      <trkpt lat="40.104566" lon="-0.502303">
        <ele>588.8</ele>
        <time>2021-07-23T18:06:59.001Z</time>
      </trkpt>
      <trkpt lat="40.104550" lon="-0.502399">
        <ele>589.3</ele>
        <time>2021-07-23T18:07:03.826Z</time>
      </trkpt>
      <trkpt lat="40.104578" lon="-0.502598">
        <ele>590.2</ele>
        <time>2021-07-23T18:07:12.760Z</time>
      </trkpt>
      <trkpt lat="40.104808" lon="-0.502866">
        <ele>592.3</ele>
        <time>2021-07-23T18:07:36.883Z</time>
      </trkpt>
      <trkpt lat="40.104857" lon="-0.503000">
        <ele>593.2</ele>
        <time>2021-07-23T18:07:45.685Z</time>
      </trkpt>
      <trkpt lat="40.104870" lon="-0.503048">
        <ele>593.5</ele>
        <time>2021-07-23T18:07:51.402Z</time>
      </trkpt>
      <trkpt lat="40.104923" lon="-0.503563">
        <ele>596.8</ele>
        <time>2021-07-23T18:08:20.867Z</time>
      </trkpt>
      <trkpt lat="40.104968" lon="-0.503655">
        <ele>597.5</ele>
        <time>2021-07-23T18:08:26.176Z</time>
      </trkpt>
      <trkpt lat="40.105054" lon="-0.503687">
        <ele>598.2</ele>
        <time>2021-07-23T18:08:31.402Z</time>
      </trkpt>
      <trkpt lat="40.105411" lon="-0.503606">
        <ele>601.2</ele>
        <time>2021-07-23T18:08:59.903Z</time>
      </trkpt>
      <trkpt lat="40.105809" lon="-0.503284">
        <ele>605.1</ele>
        <time>2021-07-23T18:09:32.914Z</time>
      </trkpt>
      <trkpt lat="40.106055" lon="-0.503284">
        <ele>607.0</ele>
        <time>2021-07-23T18:09:51.053Z</time>
      </trkpt>
      <trkpt lat="40.106273" lon="-0.503397">
        <ele>608.6</ele>
        <time>2021-07-23T18:10:05.687Z</time>
      </trkpt>
      <trkpt lat="40.106355" lon="-0.503531">
        <ele>609.5</ele>
        <time>2021-07-23T18:10:14.078Z</time>
      </trkpt>
      <trkpt lat="40.106388" lon="-0.503859">
        <ele>611.2</ele>
        <time>2021-07-23T18:10:29.494Z</time>
      </trkpt>
      <trkpt lat="40.106404" lon="-0.504427">
        <ele>614.2</ele>
        <time>2021-07-23T18:10:55.911Z</time>
      </trkpt>
      <trkpt lat="40.106314" lon="-0.504846">
        <ele>616.5</ele>
        <time>2021-07-23T18:11:20.135Z</time>
      </trkpt>
      <trkpt lat="40.106326" lon="-0.504963">
        <ele>617.1</ele>
        <time>2021-07-23T18:11:28.317Z</time>
      </trkpt>
      <trkpt lat="40.106494" lon="-0.505076">
        <ele>618.4</ele>
        <time>2021-07-23T18:11:40.682Z</time>
      </trkpt>
      <trkpt lat="40.107335" lon="-0.505162">
        <ele>622.0</ele>
        <time>2021-07-23T18:12:32.444Z</time>
      </trkpt>
      <trkpt lat="40.107419" lon="-0.505183">
        <ele>622.3</ele>
        <time>2021-07-23T18:12:41.105Z</time>
      </trkpt>
      <trkpt lat="40.107463" lon="-0.505194">
        <ele>622.5</ele>
        <time>2021-07-23T18:12:42.418Z</time>
      </trkpt>
      <trkpt lat="40.107836" lon="-0.505302">
        <ele>624.0</ele>
        <time>2021-07-23T18:13:00.539Z</time>
      </trkpt>
      <trkpt lat="40.108427" lon="-0.505886">
        <ele>625.2</ele>
        <time>2021-07-23T18:13:27.748Z</time>
      </trkpt>
      <trkpt lat="40.108554" lon="-0.505875">
        <ele>624.7</ele>
        <time>2021-07-23T18:13:31.047Z</time>
      </trkpt>
      <trkpt lat="40.109079" lon="-0.505377">
        <ele>622.0</ele>
        <time>2021-07-23T18:13:47.918Z</time>
      </trkpt>
      <trkpt lat="40.109264" lon="-0.505318">
        <ele>621.2</ele>
        <time>2021-07-23T18:13:52.321Z</time>
      </trkpt>
      <trkpt lat="40.109346" lon="-0.505414">
        <ele>620.8</ele>
        <time>2021-07-23T18:13:54.880Z</time>
      </trkpt>
      <trkpt lat="40.109366" lon="-0.505623">
        <ele>620.1</ele>
        <time>2021-07-23T18:13:58.555Z</time>
      </trkpt>
      <trkpt lat="40.109321" lon="-0.505983">
        <ele>619.0</ele>
        <time>2021-07-23T18:14:04.865Z</time>
      </trkpt>
      <trkpt lat="40.109579" lon="-0.506715">
        <ele>614.7</ele>
        <time>2021-07-23T18:14:18.635Z</time>
      </trkpt>
      <trkpt lat="40.109608" lon="-0.507363">
        <ele>611.1</ele>
        <time>2021-07-23T18:14:29.771Z</time>
      </trkpt>
      <trkpt lat="40.109827" lon="-0.507563">
        <ele>609.2</ele>
        <time>2021-07-23T18:14:35.842Z</time>
      </trkpt>
      <trkpt lat="40.109905" lon="-0.507737">
        <ele>608.0</ele>
        <time>2021-07-23T18:14:39.355Z</time>
      </trkpt>
      <trkpt lat="40.109831" lon="-0.508345">
        <ele>605.1</ele>
        <time>2021-07-23T18:14:50.178Z</time>
      </trkpt>
      <trkpt lat="40.109695" lon="-0.508834">
        <ele>603.4</ele>
        <time>2021-07-23T18:14:59.522Z</time>
      </trkpt>
      <trkpt lat="40.109754" lon="-0.509070">
        <ele>602.6</ele>
        <time>2021-07-23T18:15:04.126Z</time>
      </trkpt>
      <trkpt lat="40.110016" lon="-0.509417">
        <ele>601.1</ele>
        <time>2021-07-23T18:15:13.454Z</time>
      </trkpt>
      <trkpt lat="40.110085" lon="-0.509688">
        <ele>600.2</ele>
        <time>2021-07-23T18:15:19.063Z</time>
      </trkpt>
      <trkpt lat="40.109994" lon="-0.510075">
        <ele>598.9</ele>
        <time>2021-07-23T18:15:27.238Z</time>
      </trkpt>
      <trkpt lat="40.110161" lon="-0.510818">
        <ele>598.2</ele>
        <time>2021-07-23T18:15:44.118Z</time>
      </trkpt>
      <trkpt lat="40.109806" lon="-0.511197">
        <ele>598.2</ele>
        <time>2021-07-23T18:15:58.235Z</time>
      </trkpt>
      <trkpt lat="40.109746" lon="-0.511626">
        <ele>598.3</ele>
        <time>2021-07-23T18:16:09.711Z</time>
      </trkpt>
      <trkpt lat="40.109781" lon="-0.512166">
        <ele>598.3</ele>
        <time>2021-07-23T18:16:25.004Z</time>
      </trkpt>
      <trkpt lat="40.109807" lon="-0.512193">
        <ele>598.3</ele>
        <time>2021-07-23T18:16:26.027Z</time>
      </trkpt>
      <trkpt lat="40.109807" lon="-0.512193">
        <ele>598.3</ele>
        <time>2021-07-23T18:16:26.153Z</time>
      </trkpt>
      <trkpt lat="40.109807" lon="-0.512193">
        <ele>598.3</ele>
        <time>2021-07-23T18:16:26.153Z</time>
      </trkpt>
      <trkpt lat="40.109850" lon="-0.512120">
        <ele>598.3</ele>
        <time>2021-07-23T18:16:29.170Z</time>
      </trkpt>
      <trkpt lat="40.110380" lon="-0.512570">
        <ele>600.1</ele>
        <time>2021-07-23T18:16:56.194Z</time>
      </trkpt>
      <trkpt lat="40.110910" lon="-0.513020">
        <ele>602.1</ele>
        <time>2021-07-23T18:17:23.216Z</time>
      </trkpt>
      <trkpt lat="40.110900" lon="-0.513020">
        <ele>602.1</ele>
        <time>2021-07-23T18:17:23.644Z</time>
      </trkpt>
      <trkpt lat="40.111010" lon="-0.513290">
        <ele>602.9</ele>
        <time>2021-07-23T18:17:33.691Z</time>
      </trkpt>
      <trkpt lat="40.110670" lon="-0.513490">
        <ele>604.1</ele>
        <time>2021-07-23T18:17:49.637Z</time>
      </trkpt>
      <trkpt lat="40.110300" lon="-0.513760">
        <ele>607.2</ele>
        <time>2021-07-23T18:18:07.776Z</time>
      </trkpt>
      <trkpt lat="40.110303" lon="-0.513726">
        <ele>607.4</ele>
        <time>2021-07-23T18:18:08.949Z</time>
      </trkpt>
      <trkpt lat="40.110122" lon="-0.513698">
        <ele>608.8</ele>
        <time>2021-07-23T18:18:24.888Z</time>
      </trkpt>
      <trkpt lat="40.109746" lon="-0.513501">
        <ele>611.7</ele>
        <time>2021-07-23T18:18:53.941Z</time>
      </trkpt>
      <trkpt lat="40.109423" lon="-0.513441">
        <ele>614.1</ele>
        <time>2021-07-23T18:19:17.423Z</time>
      </trkpt>
      <trkpt lat="40.109225" lon="-0.512985">
        <ele>617.1</ele>
        <time>2021-07-23T18:19:47.401Z</time>
      </trkpt>
      <trkpt lat="40.108850" lon="-0.512572">
        <ele>620.7</ele>
        <time>2021-07-23T18:20:24.846Z</time>
      </trkpt>
      <trkpt lat="40.108700" lon="-0.512055">
        <ele>623.8</ele>
        <time>2021-07-23T18:20:57.798Z</time>
      </trkpt>
      <trkpt lat="40.108654" lon="-0.511704">
        <ele>625.8</ele>
        <time>2021-07-23T18:21:17.287Z</time>
      </trkpt>
      <trkpt lat="40.108720" lon="-0.511141">
        <ele>629.0</ele>
        <time>2021-07-23T18:21:44.937Z</time>
      </trkpt>
      <trkpt lat="40.108648" lon="-0.510821">
        <ele>630.6</ele>
        <time>2021-07-23T18:21:59.192Z</time>
      </trkpt>
      <trkpt lat="40.108636" lon="-0.510510">
        <ele>631.2</ele>
        <time>2021-07-23T18:22:11.140Z</time>
      </trkpt>
      <trkpt lat="40.108712" lon="-0.509869">
        <ele>632.4</ele>
        <time>2021-07-23T18:22:32.756Z</time>
      </trkpt>
      <trkpt lat="40.108642" lon="-0.509799">
        <ele>632.6</ele>
        <time>2021-07-23T18:22:36.157Z</time>
      </trkpt>
      <trkpt lat="40.108521" lon="-0.509872">
        <ele>633.0</ele>
        <time>2021-07-23T18:22:41.390Z</time>
      </trkpt>
      <trkpt lat="40.108394" lon="-0.510414">
        <ele>634.0</ele>
        <time>2021-07-23T18:22:55.818Z</time>
      </trkpt>
      <trkpt lat="40.108259" lon="-0.510596">
        <ele>634.5</ele>
        <time>2021-07-23T18:23:04.980Z</time>
      </trkpt>
      <trkpt lat="40.108135" lon="-0.510419">
        <ele>635.1</ele>
        <time>2021-07-23T18:23:10.645Z</time>
      </trkpt>
      <trkpt lat="40.108211" lon="-0.509998">
        <ele>637.2</ele>
        <time>2021-07-23T18:23:26.044Z</time>
      </trkpt>
      <trkpt lat="40.108187" lon="-0.509655">
        <ele>638.9</ele>
        <time>2021-07-23T18:23:40.726Z</time>
      </trkpt>
      <trkpt lat="40.108113" lon="-0.509486">
        <ele>639.8</ele>
        <time>2021-07-23T18:23:48.417Z</time>
      </trkpt>
      <trkpt lat="40.108027" lon="-0.509411">
        <ele>640.5</ele>
        <time>2021-07-23T18:23:55.349Z</time>
      </trkpt>
      <trkpt lat="40.107852" lon="-0.509451">
        <ele>641.6</ele>
        <time>2021-07-23T18:24:06.019Z</time>
      </trkpt>
      <trkpt lat="40.107809" lon="-0.509483">
        <ele>641.9</ele>
        <time>2021-07-23T18:24:07.633Z</time>
      </trkpt>
      <trkpt lat="40.107764" lon="-0.509510">
        <ele>642.2</ele>
        <time>2021-07-23T18:24:13.239Z</time>
      </trkpt>
      <trkpt lat="40.107508" lon="-0.509754">
        <ele>644.2</ele>
        <time>2021-07-23T18:24:34.480Z</time>
      </trkpt>
      <trkpt lat="40.107438" lon="-0.509909">
        <ele>645.1</ele>
        <time>2021-07-23T18:24:47.349Z</time>
      </trkpt>
      <trkpt lat="40.107422" lon="-0.510170">
        <ele>646.4</ele>
        <time>2021-07-23T18:25:02.642Z</time>
      </trkpt>
      <trkpt lat="40.107579" lon="-0.510905">
        <ele>654.5</ele>
        <time>2021-07-23T18:25:59.854Z</time>
      </trkpt>
      <trkpt lat="40.107502" lon="-0.511500">
        <ele>660.9</ele>
        <time>2021-07-23T18:26:49.324Z</time>
      </trkpt>
      <trkpt lat="40.107600" lon="-0.512221">
        <ele>668.7</ele>
        <time>2021-07-23T18:27:50.442Z</time>
      </trkpt>
      <trkpt lat="40.107828" lon="-0.512938">
        <ele>676.7</ele>
        <time>2021-07-23T18:28:53.241Z</time>
      </trkpt>
      <trkpt lat="40.108010" lon="-0.513828">
        <ele>686.2</ele>
        <time>2021-07-23T18:30:02.749Z</time>
      </trkpt>
      <trkpt lat="40.108082" lon="-0.514740">
        <ele>695.6</ele>
        <time>2021-07-23T18:31:09.230Z</time>
      </trkpt>
      <trkpt lat="40.107775" lon="-0.515148">
        <ele>701.2</ele>
        <time>2021-07-23T18:31:50.640Z</time>
      </trkpt>
      <trkpt lat="40.107660" lon="-0.515547">
        <ele>705.3</ele>
        <time>2021-07-23T18:32:21.687Z</time>
      </trkpt>
      <trkpt lat="40.107645" lon="-0.515904">
        <ele>708.8</ele>
        <time>2021-07-23T18:32:47.605Z</time>
      </trkpt>
      <trkpt lat="40.107762" lon="-0.516607">
        <ele>715.8</ele>
        <time>2021-07-23T18:33:42.198Z</time>
      </trkpt>
      <trkpt lat="40.107729" lon="-0.516921">
        <ele>718.7</ele>
        <time>2021-07-23T18:34:05.407Z</time>
      </trkpt>
      <trkpt lat="40.107512" lon="-0.517211">
        <ele>721.2</ele>
        <time>2021-07-23T18:34:35.623Z</time>
      </trkpt>
      <trkpt lat="40.107122" lon="-0.517366">
        <ele>724.5</ele>
        <time>2021-07-23T18:35:10.397Z</time>
      </trkpt>
      <trkpt lat="40.107015" lon="-0.517468">
        <ele>725.6</ele>
        <time>2021-07-23T18:35:22.125Z</time>
      </trkpt>
      <trkpt lat="40.106942" lon="-0.517565">
        <ele>726.4</ele>
        <time>2021-07-23T18:35:31.124Z</time>
      </trkpt>
      <trkpt lat="40.106880" lon="-0.517817">
        <ele>728.1</ele>
        <time>2021-07-23T18:35:41.532Z</time>
      </trkpt>
      <trkpt lat="40.106892" lon="-0.517972">
        <ele>729.0</ele>
        <time>2021-07-23T18:35:53.911Z</time>
      </trkpt>
      <trkpt lat="40.106942" lon="-0.518069">
        <ele>729.8</ele>
        <time>2021-07-23T18:35:56.217Z</time>
      </trkpt>
      <trkpt lat="40.107167" lon="-0.518503">
        <ele>732.9</ele>
        <time>2021-07-23T18:36:15.811Z</time>
      </trkpt>
      <trkpt lat="40.107347" lon="-0.519536">
        <ele>732.4</ele>
        <time>2021-07-23T18:36:43.285Z</time>
      </trkpt>
      <trkpt lat="40.107518" lon="-0.520223">
        <ele>732.1</ele>
        <time>2021-07-23T18:36:58.007Z</time>
      </trkpt>
      <trkpt lat="40.107622" lon="-0.520476">
        <ele>732.0</ele>
        <time>2021-07-23T18:37:03.618Z</time>
      </trkpt>
      <trkpt lat="40.107887" lon="-0.520155">
        <ele>732.4</ele>
        <time>2021-07-23T18:37:13.307Z</time>
      </trkpt>
      <trkpt lat="40.108015" lon="-0.520092">
        <ele>732.8</ele>
        <time>2021-07-23T18:37:17.203Z</time>
      </trkpt>
      <trkpt lat="40.108490" lon="-0.520288">
        <ele>734.4</ele>
        <time>2021-07-23T18:37:34.041Z</time>
      </trkpt>
      <trkpt lat="40.108883" lon="-0.520284">
        <ele>735.7</ele>
        <time>2021-07-23T18:37:53.462Z</time>
      </trkpt>
      <trkpt lat="40.109730" lon="-0.520752">
        <ele>741.5</ele>
        <time>2021-07-23T18:38:58.263Z</time>
      </trkpt>
      <trkpt lat="40.110372" lon="-0.520736">
        <ele>749.6</ele>
        <time>2021-07-23T18:39:57.776Z</time>
      </trkpt>
      <trkpt lat="40.110528" lon="-0.521351">
        <ele>755.9</ele>
        <time>2021-07-23T18:40:50.827Z</time>
      </trkpt>
      <trkpt lat="40.110832" lon="-0.521918">
        <ele>762.9</ele>
        <time>2021-07-23T18:41:49.157Z</time>
      </trkpt>
      <trkpt lat="40.110800" lon="-0.522533">
        <ele>769.7</ele>
        <time>2021-07-23T18:42:40.939Z</time>
      </trkpt>
      <trkpt lat="40.111060" lon="-0.523017">
        <ele>776.3</ele>
        <time>2021-07-23T18:43:29.668Z</time>
      </trkpt>
      <trkpt lat="40.110403" lon="-0.524143">
        <ele>790.5</ele>
        <time>2021-07-23T18:45:18.058Z</time>
      </trkpt>
      <trkpt lat="40.110255" lon="-0.524724">
        <ele>795.5</ele>
        <time>2021-07-23T18:45:58.710Z</time>
      </trkpt>
      <trkpt lat="40.110449" lon="-0.525380">
        <ele>801.2</ele>
        <time>2021-07-23T18:46:41.695Z</time>
      </trkpt>
      <trkpt lat="40.109713" lon="-0.525741">
        <ele>807.9</ele>
        <time>2021-07-23T18:47:40.272Z</time>
      </trkpt>
      <trkpt lat="40.109573" lon="-0.525900">
        <ele>809.2</ele>
        <time>2021-07-23T18:47:52.637Z</time>
      </trkpt>
      <trkpt lat="40.110064" lon="-0.526844">
        <ele>814.9</ele>
        <time>2021-07-23T18:48:45.748Z</time>
      </trkpt>
      <trkpt lat="40.110380" lon="-0.526836">
        <ele>817.0</ele>
        <time>2021-07-23T18:49:04.152Z</time>
      </trkpt>
      <trkpt lat="40.110617" lon="-0.527241">
        <ele>819.3</ele>
        <time>2021-07-23T18:49:27.431Z</time>
      </trkpt>
      <trkpt lat="40.110369" lon="-0.527813">
        <ele>822.2</ele>
        <time>2021-07-23T18:49:58.562Z</time>
      </trkpt>
      <trkpt lat="40.110308" lon="-0.528344">
        <ele>824.6</ele>
        <time>2021-07-23T18:50:23.898Z</time>
      </trkpt>
      <trkpt lat="40.110385" lon="-0.528611">
        <ele>825.9</ele>
        <time>2021-07-23T18:50:37.118Z</time>
      </trkpt>
      <trkpt lat="40.110746" lon="-0.528776">
        <ele>828.2</ele>
        <time>2021-07-23T18:51:00.339Z</time>
      </trkpt>
      <trkpt lat="40.110600" lon="-0.529325">
        <ele>831.0</ele>
        <time>2021-07-23T18:51:28.215Z</time>
      </trkpt>
      <trkpt lat="40.111213" lon="-0.530944">
        <ele>839.8</ele>
        <time>2021-07-23T18:52:56.547Z</time>
      </trkpt>
      <trkpt lat="40.111201" lon="-0.532365">
        <ele>846.7</ele>
        <time>2021-07-23T18:54:08.575Z</time>
      </trkpt>
      <trkpt lat="40.110974" lon="-0.533283">
        <ele>851.0</ele>
        <time>2021-07-23T18:54:54.647Z</time>
      </trkpt>
      <trkpt lat="40.110825" lon="-0.533148">
        <ele>851.7</ele>
        <time>2021-07-23T18:55:03.716Z</time>
      </trkpt>
      <trkpt lat="40.109887" lon="-0.532056">
        <ele>856.0</ele>
        <time>2021-07-23T18:55:52.316Z</time>
      </trkpt>
      <trkpt lat="40.108665" lon="-0.531052">
        <ele>856.5</ele>
        <time>2021-07-23T18:56:20.689Z</time>
      </trkpt>
      <trkpt lat="40.108467" lon="-0.531019">
        <ele>856.4</ele>
        <time>2021-07-23T18:56:24.158Z</time>
      </trkpt>
      <trkpt lat="40.107875" lon="-0.531186">
        <ele>856.4</ele>
        <time>2021-07-23T18:56:34.467Z</time>
      </trkpt>
      <trkpt lat="40.106983" lon="-0.530940">
        <ele>856.7</ele>
        <time>2021-07-23T18:56:51.804Z</time>
      </trkpt>
      <trkpt lat="40.106785" lon="-0.530843">
        <ele>856.7</ele>
        <time>2021-07-23T18:56:57.251Z</time>
      </trkpt>
      <trkpt lat="40.106265" lon="-0.530038">
        <ele>857.9</ele>
        <time>2021-07-23T18:57:21.871Z</time>
      </trkpt>
      <trkpt lat="40.106062" lon="-0.530298">
        <ele>858.7</ele>
        <time>2021-07-23T18:57:35.793Z</time>
      </trkpt>
      <trkpt lat="40.105679" lon="-0.530783">
        <ele>860.3</ele>
        <time>2021-07-23T18:58:02.672Z</time>
      </trkpt>
      <trkpt lat="40.105319" lon="-0.531535">
        <ele>862.2</ele>
        <time>2021-07-23T18:58:36.792Z</time>
      </trkpt>
      <trkpt lat="40.105105" lon="-0.531805">
        <ele>861.4</ele>
        <time>2021-07-23T18:58:50.484Z</time>
      </trkpt>
      <trkpt lat="40.104747" lon="-0.532083">
        <ele>860.3</ele>
        <time>2021-07-23T18:59:03.559Z</time>
      </trkpt>
      <trkpt lat="40.104200" lon="-0.532741">
        <ele>858.5</ele>
        <time>2021-07-23T18:59:22.667Z</time>
      </trkpt>
      <trkpt lat="40.104037" lon="-0.533074">
        <ele>857.7</ele>
        <time>2021-07-23T18:59:29.529Z</time>
      </trkpt>
      <trkpt lat="40.103882" lon="-0.533181">
        <ele>855.2</ele>
        <time>2021-07-23T18:59:33.374Z</time>
      </trkpt>
      <trkpt lat="40.103803" lon="-0.533321">
        <ele>853.1</ele>
        <time>2021-07-23T18:59:36.237Z</time>
      </trkpt>
      <trkpt lat="40.103796" lon="-0.533354">
        <ele>852.8</ele>
        <time>2021-07-23T18:59:36.762Z</time>
      </trkpt>
      <trkpt lat="40.103719" lon="-0.533708">
        <ele>848.5</ele>
        <time>2021-07-23T18:59:42.643Z</time>
      </trkpt>
      <trkpt lat="40.103638" lon="-0.533832">
        <ele>846.6</ele>
        <time>2021-07-23T18:59:45.166Z</time>
      </trkpt>
      <trkpt lat="40.103481" lon="-0.533967">
        <ele>843.8</ele>
        <time>2021-07-23T18:59:48.976Z</time>
      </trkpt>
      <trkpt lat="40.103205" lon="-0.534042">
        <ele>839.5</ele>
        <time>2021-07-23T18:59:54.584Z</time>
      </trkpt>
      <trkpt lat="40.103089" lon="-0.534164">
        <ele>837.3</ele>
        <time>2021-07-23T18:59:57.540Z</time>
      </trkpt>
      <trkpt lat="40.102879" lon="-0.534663">
        <ele>830.7</ele>
        <time>2021-07-23T19:00:06.039Z</time>
      </trkpt>
      <trkpt lat="40.102673" lon="-0.534868">
        <ele>825.5</ele>
        <time>2021-07-23T19:00:11.092Z</time>
      </trkpt>
      <trkpt lat="40.102473" lon="-0.534986">
        <ele>821.1</ele>
        <time>2021-07-23T19:00:15.348Z</time>
      </trkpt>
      <trkpt lat="40.101811" lon="-0.535092">
        <ele>807.6</ele>
        <time>2021-07-23T19:00:28.266Z</time>
      </trkpt>
      <trkpt lat="40.101564" lon="-0.535246">
        <ele>802.0</ele>
        <time>2021-07-23T19:00:33.605Z</time>
      </trkpt>
      <trkpt lat="40.101362" lon="-0.535276">
        <ele>797.9</ele>
        <time>2021-07-23T19:00:37.576Z</time>
      </trkpt>
      <trkpt lat="40.101238" lon="-0.535191">
        <ele>795.1</ele>
        <time>2021-07-23T19:00:40.335Z</time>
      </trkpt>
      <trkpt lat="40.101149" lon="-0.534827">
        <ele>791.0</ele>
        <time>2021-07-23T19:00:46.157Z</time>
      </trkpt>
      <trkpt lat="40.100772" lon="-0.534289">
        <ele>783.7</ele>
        <time>2021-07-23T19:00:57.432Z</time>
      </trkpt>
      <trkpt lat="40.100448" lon="-0.534045">
        <ele>778.9</ele>
        <time>2021-07-23T19:01:05.213Z</time>
      </trkpt>
      <trkpt lat="40.100214" lon="-0.533276">
        <ele>770.8</ele>
        <time>2021-07-23T19:01:18.890Z</time>
      </trkpt>
      <trkpt lat="40.100032" lon="-0.533009">
        <ele>769.6</ele>
        <time>2021-07-23T19:01:25.088Z</time>
      </trkpt>
      <trkpt lat="40.099641" lon="-0.532066">
        <ele>766.2</ele>
        <time>2021-07-23T19:01:45.561Z</time>
      </trkpt>
      <trkpt lat="40.099604" lon="-0.531862">
        <ele>765.5</ele>
        <time>2021-07-23T19:01:49.640Z</time>
      </trkpt>
      <trkpt lat="40.099522" lon="-0.530992">
        <ele>763.0</ele>
        <time>2021-07-23T19:02:08.600Z</time>
      </trkpt>
      <trkpt lat="40.099460" lon="-0.530798">
        <ele>762.7</ele>
        <time>2021-07-23T19:02:13.383Z</time>
      </trkpt>
      <trkpt lat="40.099032" lon="-0.530414">
        <ele>761.9</ele>
        <time>2021-07-23T19:02:28.255Z</time>
      </trkpt>
      <trkpt lat="40.098709" lon="-0.529950">
        <ele>761.0</ele>
        <time>2021-07-23T19:02:42.369Z</time>
      </trkpt>
      <trkpt lat="40.098472" lon="-0.529492">
        <ele>760.3</ele>
        <time>2021-07-23T19:02:54.036Z</time>
      </trkpt>
      <trkpt lat="40.098375" lon="-0.529444">
        <ele>760.1</ele>
        <time>2021-07-23T19:02:56.744Z</time>
      </trkpt>
      <trkpt lat="40.098171" lon="-0.529528">
        <ele>759.2</ele>
        <time>2021-07-23T19:03:02.211Z</time>
      </trkpt>
      <trkpt lat="40.098038" lon="-0.529713">
        <ele>758.5</ele>
        <time>2021-07-23T19:03:07.126Z</time>
      </trkpt>
      <trkpt lat="40.097680" lon="-0.530527">
        <ele>755.6</ele>
        <time>2021-07-23T19:03:24.821Z</time>
      </trkpt>
      <trkpt lat="40.097463" lon="-0.530790">
        <ele>754.4</ele>
        <time>2021-07-23T19:03:31.978Z</time>
      </trkpt>
      <trkpt lat="40.097369" lon="-0.530816">
        <ele>754.0</ele>
        <time>2021-07-23T19:03:34.298Z</time>
      </trkpt>
      <trkpt lat="40.097224" lon="-0.530729">
        <ele>753.4</ele>
        <time>2021-07-23T19:03:38.144Z</time>
      </trkpt>
      <trkpt lat="40.096820" lon="-0.530093">
        <ele>751.4</ele>
        <time>2021-07-23T19:03:53.959Z</time>
      </trkpt>
      <trkpt lat="40.096712" lon="-0.530027">
        <ele>751.1</ele>
        <time>2021-07-23T19:03:56.939Z</time>
      </trkpt>
      <trkpt lat="40.096436" lon="-0.530127">
        <ele>750.2</ele>
        <time>2021-07-23T19:04:04.616Z</time>
      </trkpt>
      <trkpt lat="40.096150" lon="-0.530572">
        <ele>748.9</ele>
        <time>2021-07-23T19:04:16.428Z</time>
      </trkpt>
      <trkpt lat="40.096015" lon="-0.530585">
        <ele>748.5</ele>
        <time>2021-07-23T19:04:20.200Z</time>
      </trkpt>
      <trkpt lat="40.095904" lon="-0.530515">
        <ele>748.2</ele>
        <time>2021-07-23T19:04:23.568Z</time>
      </trkpt>
      <trkpt lat="40.095794" lon="-0.530444">
        <ele>747.8</ele>
        <time>2021-07-23T19:04:26.885Z</time>
      </trkpt>
      <trkpt lat="40.095731" lon="-0.530212">
        <ele>747.5</ele>
        <time>2021-07-23T19:04:32.262Z</time>
      </trkpt>
      <trkpt lat="40.095616" lon="-0.530189">
        <ele>747.3</ele>
        <time>2021-07-23T19:04:35.446Z</time>
      </trkpt>
      <trkpt lat="40.095472" lon="-0.530255">
        <ele>747.1</ele>
        <time>2021-07-23T19:04:39.883Z</time>
      </trkpt>
      <trkpt lat="40.095198" lon="-0.530460">
        <ele>746.7</ele>
        <time>2021-07-23T19:04:48.849Z</time>
      </trkpt>
      <trkpt lat="40.095173" lon="-0.530610">
        <ele>746.5</ele>
        <time>2021-07-23T19:04:52.090Z</time>
      </trkpt>
      <trkpt lat="40.095137" lon="-0.530739">
        <ele>746.4</ele>
        <time>2021-07-23T19:04:55.126Z</time>
      </trkpt>
      <trkpt lat="40.095047" lon="-0.530815">
        <ele>746.2</ele>
        <time>2021-07-23T19:04:58.279Z</time>
      </trkpt>
      <trkpt lat="40.094552" lon="-0.530725">
        <ele>745.5</ele>
        <time>2021-07-23T19:05:12.633Z</time>
      </trkpt>
      <trkpt lat="40.094421" lon="-0.530783">
        <ele>745.4</ele>
        <time>2021-07-23T19:05:16.635Z</time>
      </trkpt>
      <trkpt lat="40.094328" lon="-0.530952">
        <ele>745.4</ele>
        <time>2021-07-23T19:05:21.138Z</time>
      </trkpt>
      <trkpt lat="40.094317" lon="-0.530993">
        <ele>745.5</ele>
        <time>2021-07-23T19:05:21.938Z</time>
      </trkpt>
      <trkpt lat="40.094160" lon="-0.531596">
        <ele>746.7</ele>
        <time>2021-07-23T19:05:36.352Z</time>
      </trkpt>
      <trkpt lat="40.093989" lon="-0.531821">
        <ele>747.2</ele>
        <time>2021-07-23T19:05:45.719Z</time>
      </trkpt>
      <trkpt lat="40.094022" lon="-0.532300">
        <ele>748.1</ele>
        <time>2021-07-23T19:06:02.764Z</time>
      </trkpt>
      <trkpt lat="40.094149" lon="-0.532653">
        <ele>748.8</ele>
        <time>2021-07-23T19:06:18.562Z</time>
      </trkpt>
      <trkpt lat="40.094157" lon="-0.532883">
        <ele>749.3</ele>
        <time>2021-07-23T19:06:29.432Z</time>
      </trkpt>
      <trkpt lat="40.094126" lon="-0.533094">
        <ele>750.0</ele>
        <time>2021-07-23T19:06:39.154Z</time>
      </trkpt>
      <trkpt lat="40.093827" lon="-0.533028">
        <ele>752.8</ele>
        <time>2021-07-23T19:07:01.395Z</time>
      </trkpt>
      <trkpt lat="40.093753" lon="-0.532980">
        <ele>753.5</ele>
        <time>2021-07-23T19:07:06.653Z</time>
      </trkpt>
      <trkpt lat="40.093583" lon="-0.532646">
        <ele>756.4</ele>
        <time>2021-07-23T19:07:30.492Z</time>
      </trkpt>
      <trkpt lat="40.093494" lon="-0.532561">
        <ele>757.4</ele>
        <time>2021-07-23T19:07:39.353Z</time>
      </trkpt>
      <trkpt lat="40.093292" lon="-0.532428">
        <ele>759.5</ele>
        <time>2021-07-23T19:07:58.349Z</time>
      </trkpt>
      <trkpt lat="40.093158" lon="-0.532257">
        <ele>761.2</ele>
        <time>2021-07-23T19:08:14.305Z</time>
      </trkpt>
      <trkpt lat="40.092915" lon="-0.532129">
        <ele>763.6</ele>
        <time>2021-07-23T19:08:36.986Z</time>
      </trkpt>
      <trkpt lat="40.092739" lon="-0.531957">
        <ele>765.6</ele>
        <time>2021-07-23T19:08:58.333Z</time>
      </trkpt>
      <trkpt lat="40.092369" lon="-0.531595">
        <ele>769.3</ele>
        <time>2021-07-23T19:09:36.071Z</time>
      </trkpt>
      <trkpt lat="40.092232" lon="-0.531523">
        <ele>770.5</ele>
        <time>2021-07-23T19:09:47.937Z</time>
      </trkpt>
      <trkpt lat="40.091018" lon="-0.531243">
        <ele>780.1</ele>
        <time>2021-07-23T19:11:11.404Z</time>
      </trkpt>
      <trkpt lat="40.090888" lon="-0.531289">
        <ele>780.5</ele>
        <time>2021-07-23T19:11:18.796Z</time>
      </trkpt>
      <trkpt lat="40.090598" lon="-0.531636">
        <ele>781.2</ele>
        <time>2021-07-23T19:11:38.539Z</time>
      </trkpt>
      <trkpt lat="40.090102" lon="-0.531731">
        <ele>782.2</ele>
        <time>2021-07-23T19:11:59.736Z</time>
      </trkpt>
      <trkpt lat="40.089770" lon="-0.531901">
        <ele>782.9</ele>
        <time>2021-07-23T19:12:12.329Z</time>
      </trkpt>
      <trkpt lat="40.089302" lon="-0.531936">
        <ele>783.6</ele>
        <time>2021-07-23T19:12:26.384Z</time>
      </trkpt>
      <trkpt lat="40.089114" lon="-0.531889">
        <ele>783.3</ele>
        <time>2021-07-23T19:12:31.820Z</time>
      </trkpt>
      <trkpt lat="40.089114" lon="-0.531889">
        <ele>783.3</ele>
        <time>2021-07-23T19:12:31.824Z</time>
      </trkpt>
      <trkpt lat="40.088989" lon="-0.531785">
        <ele>783.0</ele>
        <time>2021-07-23T19:12:35.914Z</time>
      </trkpt>
      <trkpt lat="40.088809" lon="-0.531486">
        <ele>782.4</ele>
        <time>2021-07-23T19:12:43.844Z</time>
      </trkpt>
      <trkpt lat="40.088625" lon="-0.531285">
        <ele>782.0</ele>
        <time>2021-07-23T19:12:50.293Z</time>
      </trkpt>
      <trkpt lat="40.087841" lon="-0.531103">
        <ele>780.5</ele>
        <time>2021-07-23T19:13:11.637Z</time>
      </trkpt>
      <trkpt lat="40.087367" lon="-0.530734">
        <ele>778.9</ele>
        <time>2021-07-23T19:13:26.717Z</time>
      </trkpt>
      <trkpt lat="40.087226" lon="-0.530583">
        <ele>782.5</ele>
        <time>2021-07-23T19:13:32.262Z</time>
      </trkpt>
      <trkpt lat="40.087152" lon="-0.530153">
        <ele>777.4</ele>
        <time>2021-07-23T19:13:40.728Z</time>
      </trkpt>
      <trkpt lat="40.087090" lon="-0.529740">
        <ele>776.5</ele>
        <time>2021-07-23T19:13:49.571Z</time>
      </trkpt>
      <trkpt lat="40.087042" lon="-0.529628">
        <ele>776.2</ele>
        <time>2021-07-23T19:13:51.935Z</time>
      </trkpt>
      <trkpt lat="40.086966" lon="-0.529682">
        <ele>775.9</ele>
        <time>2021-07-23T19:13:54.237Z</time>
      </trkpt>
      <trkpt lat="40.086793" lon="-0.529715">
        <ele>775.4</ele>
        <time>2021-07-23T19:13:58.576Z</time>
      </trkpt>
      <trkpt lat="40.086376" lon="-0.529903">
        <ele>771.9</ele>
        <time>2021-07-23T19:14:08.869Z</time>
      </trkpt>
      <trkpt lat="40.086165" lon="-0.529962">
        <ele>771.0</ele>
        <time>2021-07-23T19:14:13.842Z</time>
      </trkpt>
      <trkpt lat="40.086062" lon="-0.529945">
        <ele>768.5</ele>
        <time>2021-07-23T19:14:27.229Z</time>
      </trkpt>
      <trkpt lat="40.085914" lon="-0.529859">
        <ele>766.3</ele>
        <time>2021-07-23T19:14:39.109Z</time>
      </trkpt>
      <trkpt lat="40.085844" lon="-0.529853">
        <ele>765.5</ele>
        <time>2021-07-23T19:14:43.001Z</time>
      </trkpt>
      <trkpt lat="40.085768" lon="-0.529914">
        <ele>764.6</ele>
        <time>2021-07-23T19:14:47.480Z</time>
      </trkpt>
      <trkpt lat="40.085649" lon="-0.530089">
        <ele>762.7</ele>
        <time>2021-07-23T19:14:57.277Z</time>
      </trkpt>
      <trkpt lat="40.085489" lon="-0.530187">
        <ele>760.8</ele>
        <time>2021-07-23T19:15:06.212Z</time>
      </trkpt>
      <trkpt lat="40.085544" lon="-0.530237">
        <ele>760.1</ele>
        <time>2021-07-23T19:15:09.713Z</time>
      </trkpt>
      <trkpt lat="40.085352" lon="-0.530330">
        <ele>758.0</ele>
        <time>2021-07-23T19:15:20.377Z</time>
      </trkpt>
      <trkpt lat="40.084854" lon="-0.530326">
        <ele>749.9</ele>
        <time>2021-07-23T19:15:44.742Z</time>
      </trkpt>
      <trkpt lat="40.084686" lon="-0.530243">
        <ele>746.3</ele>
        <time>2021-07-23T19:15:53.609Z</time>
      </trkpt>
      <trkpt lat="40.084370" lon="-0.530409">
        <ele>739.5</ele>
        <time>2021-07-23T19:16:09.895Z</time>
      </trkpt>
      <trkpt lat="40.083830" lon="-0.530447">
        <ele>728.8</ele>
        <time>2021-07-23T19:16:35.805Z</time>
      </trkpt>
      <trkpt lat="40.083686" lon="-0.530396">
        <ele>725.8</ele>
        <time>2021-07-23T19:16:42.965Z</time>
      </trkpt>
      <trkpt lat="40.083557" lon="-0.530418">
        <ele>723.3</ele>
        <time>2021-07-23T19:16:49.185Z</time>
      </trkpt>
      <trkpt lat="40.083421" lon="-0.530131">
        <ele>718.2</ele>
        <time>2021-07-23T19:17:01.639Z</time>
      </trkpt>
      <trkpt lat="40.083221" lon="-0.530121">
        <ele>714.5</ele>
        <time>2021-07-23T19:17:11.250Z</time>
      </trkpt>
      <trkpt lat="40.083000" lon="-0.529989">
        <ele>709.9</ele>
        <time>2021-07-23T19:17:22.930Z</time>
      </trkpt>
      <trkpt lat="40.082804" lon="-0.530004">
        <ele>706.2</ele>
        <time>2021-07-23T19:17:32.430Z</time>
      </trkpt>
      <trkpt lat="40.082549" lon="-0.529820">
        <ele>700.8</ele>
        <time>2021-07-23T19:17:46.548Z</time>
      </trkpt>
      <trkpt lat="40.082479" lon="-0.529878">
        <ele>699.2</ele>
        <time>2021-07-23T19:17:50.605Z</time>
      </trkpt>
      <trkpt lat="40.082423" lon="-0.529734">
        <ele>696.9</ele>
        <time>2021-07-23T19:17:56.661Z</time>
      </trkpt>
      <trkpt lat="40.082496" lon="-0.529481">
        <ele>693.0</ele>
        <time>2021-07-23T19:18:06.890Z</time>
      </trkpt>
      <trkpt lat="40.082494" lon="-0.528983">
        <ele>686.0</ele>
        <time>2021-07-23T19:18:25.949Z</time>
      </trkpt>
      <trkpt lat="40.082449" lon="-0.528763">
        <ele>683.4</ele>
        <time>2021-07-23T19:18:34.668Z</time>
      </trkpt>
      <trkpt lat="40.082299" lon="-0.528918">
        <ele>680.6</ele>
        <time>2021-07-23T19:18:44.380Z</time>
      </trkpt>
      <trkpt lat="40.082215" lon="-0.528437">
        <ele>675.2</ele>
        <time>2021-07-23T19:19:03.590Z</time>
      </trkpt>
      <trkpt lat="40.082013" lon="-0.528147">
        <ele>670.8</ele>
        <time>2021-07-23T19:19:18.875Z</time>
      </trkpt>
      <trkpt lat="40.082002" lon="-0.528047">
        <ele>669.7</ele>
        <time>2021-07-23T19:19:22.845Z</time>
      </trkpt>
      <trkpt lat="40.081897" lon="-0.527993">
        <ele>668.0</ele>
        <time>2021-07-23T19:19:28.595Z</time>
      </trkpt>
      <trkpt lat="40.081481" lon="-0.527980">
        <ele>662.0</ele>
        <time>2021-07-23T19:19:49.778Z</time>
      </trkpt>
      <trkpt lat="40.081269" lon="-0.527755">
        <ele>657.9</ele>
        <time>2021-07-23T19:20:03.855Z</time>
      </trkpt>
      <trkpt lat="40.080901" lon="-0.527702">
        <ele>652.2</ele>
        <time>2021-07-23T19:20:22.475Z</time>
      </trkpt>
      <trkpt lat="40.080326" lon="-0.526971">
        <ele>639.9</ele>
        <time>2021-07-23T19:21:02.434Z</time>
      </trkpt>
      <trkpt lat="40.080152" lon="-0.526879">
        <ele>637.1</ele>
        <time>2021-07-23T19:21:11.661Z</time>
      </trkpt>
      <trkpt lat="40.080016" lon="-0.526682">
        <ele>634.0</ele>
        <time>2021-07-23T19:21:22.149Z</time>
      </trkpt>
      <trkpt lat="40.079940" lon="-0.526656">
        <ele>632.8</ele>
        <time>2021-07-23T19:21:25.892Z</time>
      </trkpt>
      <trkpt lat="40.079889" lon="-0.526649">
        <ele>632.0</ele>
        <time>2021-07-23T19:21:28.483Z</time>
      </trkpt>
      <trkpt lat="40.079798" lon="-0.526585">
        <ele>630.5</ele>
        <time>2021-07-23T19:21:34.212Z</time>
      </trkpt>
      <trkpt lat="40.079757" lon="-0.526585">
        <ele>630.0</ele>
        <time>2021-07-23T19:21:36.293Z</time>
      </trkpt>
      <trkpt lat="40.079695" lon="-0.526581">
        <ele>629.1</ele>
        <time>2021-07-23T19:21:39.372Z</time>
      </trkpt>
      <trkpt lat="40.079583" lon="-0.526553">
        <ele>627.4</ele>
        <time>2021-07-23T19:21:44.911Z</time>
      </trkpt>
      <trkpt lat="40.079383" lon="-0.526731">
        <ele>624.0</ele>
        <time>2021-07-23T19:21:57.536Z</time>
      </trkpt>
      <trkpt lat="40.079285" lon="-0.526854">
        <ele>622.0</ele>
        <time>2021-07-23T19:22:04.211Z</time>
      </trkpt>
      <trkpt lat="40.079227" lon="-0.526752">
        <ele>620.6</ele>
        <time>2021-07-23T19:22:06.383Z</time>
      </trkpt>
      <trkpt lat="40.079198" lon="-0.526528">
        <ele>618.1</ele>
        <time>2021-07-23T19:22:09.922Z</time>
      </trkpt>
      <trkpt lat="40.079437" lon="-0.525994">
        <ele>611.3</ele>
        <time>2021-07-23T19:22:19.514Z</time>
      </trkpt>
      <trkpt lat="40.079447" lon="-0.525828">
        <ele>609.5</ele>
        <time>2021-07-23T19:22:22.297Z</time>
      </trkpt>
      <trkpt lat="40.079397" lon="-0.525710">
        <ele>608.0</ele>
        <time>2021-07-23T19:22:24.370Z</time>
      </trkpt>
      <trkpt lat="40.078396" lon="-0.525192">
        <ele>592.0</ele>
        <time>2021-07-23T19:22:46.226Z</time>
      </trkpt>
      <trkpt lat="40.077837" lon="-0.525017">
        <ele>583.7</ele>
        <time>2021-07-23T19:22:57.422Z</time>
      </trkpt>
      <trkpt lat="40.077475" lon="-0.525012">
        <ele>578.1</ele>
        <time>2021-07-23T19:23:06.026Z</time>
      </trkpt>
      <trkpt lat="40.077340" lon="-0.525010">
        <ele>577.4</ele>
        <time>2021-07-23T19:23:07.255Z</time>
      </trkpt>
      <trkpt lat="40.077235" lon="-0.525020">
        <ele>599.8</ele>
        <time>2021-07-23T19:23:08.244Z</time>
      </trkpt>
      <trkpt lat="40.077048" lon="-0.525050">
        <ele>575.9</ele>
        <time>2021-07-23T19:23:08.946Z</time>
      </trkpt>
      <trkpt lat="40.076915" lon="-0.525040">
        <ele>575.0</ele>
        <time>2021-07-23T19:23:10.071Z</time>
      </trkpt>
      <trkpt lat="40.076815" lon="-0.524982">
        <ele>590.9</ele>
        <time>2021-07-23T19:23:14.335Z</time>
      </trkpt>
      <trkpt lat="40.076817" lon="-0.524977">
        <ele>560.7</ele>
        <time>2021-07-23T19:23:28.072Z</time>
      </trkpt>
      <trkpt lat="40.076903" lon="-0.524960">
        <ele>560.4</ele>
        <time>2021-07-23T19:23:30.457Z</time>
      </trkpt>
      <trkpt lat="40.077206" lon="-0.524838">
        <ele>559.1</ele>
        <time>2021-07-23T19:23:35.616Z</time>
      </trkpt>
      <trkpt lat="40.077340" lon="-0.524708">
        <ele>558.4</ele>
        <time>2021-07-23T19:23:38.590Z</time>
      </trkpt>
      <trkpt lat="40.077464" lon="-0.524460">
        <ele>557.5</ele>
        <time>2021-07-23T19:23:42.636Z</time>
      </trkpt>
      <trkpt lat="40.077461" lon="-0.524074">
        <ele>556.3</ele>
        <time>2021-07-23T19:23:47.105Z</time>
      </trkpt>
      <trkpt lat="40.077375" lon="-0.524030">
        <ele>555.9</ele>
        <time>2021-07-23T19:23:50.022Z</time>
      </trkpt>
      <trkpt lat="40.077232" lon="-0.524235">
        <ele>555.0</ele>
        <time>2021-07-23T19:23:53.071Z</time>
      </trkpt>
      <trkpt lat="40.077118" lon="-0.524283">
        <ele>554.6</ele>
        <time>2021-07-23T19:23:55.640Z</time>
      </trkpt>
      <trkpt lat="40.076878" lon="-0.523926">
        <ele>552.0</ele>
        <time>2021-07-23T19:24:00.551Z</time>
      </trkpt>
      <trkpt lat="40.076332" lon="-0.523712">
        <ele>545.8</ele>
        <time>2021-07-23T19:24:07.855Z</time>
      </trkpt>
      <trkpt lat="40.075947" lon="-0.523344">
        <ele>540.6</ele>
        <time>2021-07-23T19:24:13.772Z</time>
      </trkpt>
      <trkpt lat="40.075678" lon="-0.523267">
        <ele>537.6</ele>
        <time>2021-07-23T19:24:17.194Z</time>
      </trkpt>
      <trkpt lat="40.075522" lon="-0.523230">
        <ele>565.1</ele>
        <time>2021-07-23T19:24:18.451Z</time>
      </trkpt>
      <trkpt lat="40.075380" lon="-0.523351">
        <ele>556.3</ele>
        <time>2021-07-23T19:24:26.602Z</time>
      </trkpt>
      <trkpt lat="40.075163" lon="-0.523476">
        <ele>530.5</ele>
        <time>2021-07-23T19:24:49.744Z</time>
      </trkpt>
      <trkpt lat="40.075008" lon="-0.523632">
        <ele>540.7</ele>
        <time>2021-07-23T19:25:01.905Z</time>
      </trkpt>
      <trkpt lat="40.074470" lon="-0.523830">
        <ele>518.3</ele>
        <time>2021-07-23T19:25:43.979Z</time>
      </trkpt>
      <trkpt lat="40.074389" lon="-0.524071">
        <ele>515.1</ele>
        <time>2021-07-23T19:25:58.154Z</time>
      </trkpt>
      <trkpt lat="40.074214" lon="-0.524174">
        <ele>522.4</ele>
        <time>2021-07-23T19:26:07.708Z</time>
      </trkpt>
      <trkpt lat="40.074265" lon="-0.524307">
        <ele>506.3</ele>
        <time>2021-07-23T19:26:37.339Z</time>
      </trkpt>
      <trkpt lat="40.073941" lon="-0.524325">
        <ele>517.1</ele>
        <time>2021-07-23T19:26:50.068Z</time>
      </trkpt>
      <trkpt lat="40.073948" lon="-0.524448">
        <ele>501.6</ele>
        <time>2021-07-23T19:27:00.344Z</time>
      </trkpt>
      <trkpt lat="40.073893" lon="-0.524788">
        <ele>499.4</ele>
        <time>2021-07-23T19:27:11.006Z</time>
      </trkpt>
      <trkpt lat="40.073792" lon="-0.524855">
        <ele>502.3</ele>
        <time>2021-07-23T19:27:13.882Z</time>
      </trkpt>
      <trkpt lat="40.073685" lon="-0.524835">
        <ele>501.8</ele>
        <time>2021-07-23T19:27:16.544Z</time>
      </trkpt>
      <trkpt lat="40.073625" lon="-0.524851">
        <ele>500.9</ele>
        <time>2021-07-23T19:27:18.061Z</time>
      </trkpt>
      <trkpt lat="40.073608" lon="-0.524940">
        <ele>500.0</ele>
        <time>2021-07-23T19:27:19.804Z</time>
      </trkpt>
      <trkpt lat="40.073548" lon="-0.524914">
        <ele>498.4</ele>
        <time>2021-07-23T19:27:21.417Z</time>
      </trkpt>
      <trkpt lat="40.073478" lon="-0.524991">
        <ele>496.8</ele>
        <time>2021-07-23T19:27:23.695Z</time>
      </trkpt>
      <trkpt lat="40.073505" lon="-0.525227">
        <ele>494.2</ele>
        <time>2021-07-23T19:27:36.605Z</time>
      </trkpt>
      <trkpt lat="40.073439" lon="-0.525513">
        <ele>490.9</ele>
        <time>2021-07-23T19:27:52.594Z</time>
      </trkpt>
      <trkpt lat="40.073441" lon="-0.525595">
        <ele>490.0</ele>
        <time>2021-07-23T19:27:57.160Z</time>
      </trkpt>
      <trkpt lat="40.073441" lon="-0.525595">
        <ele>490.0</ele>
        <time>2021-07-23T19:27:57.194Z</time>
      </trkpt>
      <trkpt lat="40.073479" lon="-0.525665">
        <ele>489.0</ele>
        <time>2021-07-23T19:28:01.783Z</time>
      </trkpt>
      <trkpt lat="40.073602" lon="-0.525662">
        <ele>487.3</ele>
        <time>2021-07-23T19:28:10.371Z</time>
      </trkpt>
      <trkpt lat="40.073554" lon="-0.525734">
        <ele>486.2</ele>
        <time>2021-07-23T19:28:11.831Z</time>
      </trkpt>
      <trkpt lat="40.073160" lon="-0.525974">
        <ele>480.0</ele>
        <time>2021-07-23T19:28:20.758Z</time>
      </trkpt>
      <trkpt lat="40.073031" lon="-0.525960">
        <ele>479.0</ele>
        <time>2021-07-23T19:28:23.539Z</time>
      </trkpt>
      <trkpt lat="40.072843" lon="-0.525826">
        <ele>477.4</ele>
        <time>2021-07-23T19:28:28.200Z</time>
      </trkpt>
      <trkpt lat="40.072820" lon="-0.525838">
        <ele>477.2</ele>
        <time>2021-07-23T19:28:28.722Z</time>
      </trkpt>
      <trkpt lat="40.072890" lon="-0.525919">
        <ele>476.5</ele>
        <time>2021-07-23T19:28:30.372Z</time>
      </trkpt>
      <trkpt lat="40.072991" lon="-0.526034">
        <ele>475.5</ele>
        <time>2021-07-23T19:28:32.921Z</time>
      </trkpt>
      <trkpt lat="40.073060" lon="-0.526113">
        <ele>474.8</ele>
        <time>2021-07-23T19:28:34.438Z</time>
      </trkpt>
      <trkpt lat="40.073751" lon="-0.526461">
        <ele>469.1</ele>
        <time>2021-07-23T19:28:47.335Z</time>
      </trkpt>
      <trkpt lat="40.073758" lon="-0.526484">
        <ele>469.0</ele>
        <time>2021-07-23T19:28:47.619Z</time>
      </trkpt>
      <trkpt lat="40.073745" lon="-0.526504">
        <ele>468.8</ele>
        <time>2021-07-23T19:28:47.939Z</time>
      </trkpt>
      <trkpt lat="40.073355" lon="-0.526473">
        <ele>454.0</ele>
        <time>2021-07-23T19:28:55.612Z</time>
      </trkpt>
      <trkpt lat="40.073027" lon="-0.526331">
        <ele>465.4</ele>
        <time>2021-07-23T19:29:02.319Z</time>
      </trkpt>
      <trkpt lat="40.072789" lon="-0.526248">
        <ele>464.8</ele>
        <time>2021-07-23T19:29:08.008Z</time>
      </trkpt>
      <trkpt lat="40.072652" lon="-0.526133">
        <ele>464.4</ele>
        <time>2021-07-23T19:29:11.595Z</time>
      </trkpt>
      <trkpt lat="40.072628" lon="-0.526126">
        <ele>464.4</ele>
        <time>2021-07-23T19:29:12.013Z</time>
      </trkpt>
      <trkpt lat="40.072528" lon="-0.526287">
        <ele>464.0</ele>
        <time>2021-07-23T19:29:17.144Z</time>
      </trkpt>
      <trkpt lat="40.072268" lon="-0.526286">
        <ele>463.4</ele>
        <time>2021-07-23T19:29:21.194Z</time>
      </trkpt>
      <trkpt lat="40.072190" lon="-0.526280">
        <ele>463.2</ele>
        <time>2021-07-23T19:29:26.595Z</time>
      </trkpt>
      <trkpt lat="40.071882" lon="-0.526186">
        <ele>462.5</ele>
        <time>2021-07-23T19:29:48.584Z</time>
      </trkpt>
      <trkpt lat="40.071746" lon="-0.526154">
        <ele>462.2</ele>
        <time>2021-07-23T19:29:58.182Z</time>
      </trkpt>
      <trkpt lat="40.071539" lon="-0.526143">
        <ele>461.8</ele>
        <time>2021-07-23T19:30:01.666Z</time>
      </trkpt>
      <trkpt lat="40.071481" lon="-0.526132">
        <ele>461.6</ele>
        <time>2021-07-23T19:30:03.603Z</time>
      </trkpt>
      <trkpt lat="40.071481" lon="-0.526132">
        <ele>461.6</ele>
        <time>2021-07-23T19:30:03.697Z</time>
      </trkpt>
      <trkpt lat="40.071444" lon="-0.526116">
        <ele>461.6</ele>
        <time>2021-07-23T19:30:04.170Z</time>
      </trkpt>
      <trkpt lat="40.071380" lon="-0.526023">
        <ele>461.4</ele>
        <time>2021-07-23T19:30:05.693Z</time>
      </trkpt>
      <trkpt lat="40.071335" lon="-0.525440">
        <ele>460.4</ele>
        <time>2021-07-23T19:30:12.897Z</time>
      </trkpt>
      <trkpt lat="40.070930" lon="-0.524440">
        <ele>458.6</ele>
        <time>2021-07-23T19:30:28.130Z</time>
      </trkpt>
      <trkpt lat="40.070830" lon="-0.524286">
        <ele>458.4</ele>
        <time>2021-07-23T19:30:30.243Z</time>
      </trkpt>
      <trkpt lat="40.070328" lon="-0.523516">
        <ele>458.4</ele>
        <time>2021-07-23T19:30:42.213Z</time>
      </trkpt>
      <trkpt lat="40.069647" lon="-0.522478">
        <ele>458.4</ele>
        <time>2021-07-23T19:30:59.617Z</time>
      </trkpt>
      <trkpt lat="40.069647" lon="-0.522478">
        <ele>458.4</ele>
        <time>2021-07-23T19:30:59.686Z</time>
      </trkpt>
      <trkpt lat="40.069836" lon="-0.522766">
        <ele>453.9</ele>
        <time>2021-08-10T11:03:20.823Z</time>
      </trkpt>
      <trkpt lat="40.069647" lon="-0.522478">
        <ele>453.9</ele>
        <time>2021-08-10T11:03:26.969Z</time>
      </trkpt>
      <trkpt lat="40.069641" lon="-0.522400">
        <ele>453.9</ele>
        <time>2021-08-10T11:03:28.286Z</time>
      </trkpt>
      <trkpt lat="40.069625" lon="-0.522341">
        <ele>453.9</ele>
        <time>2021-08-10T11:03:29.258Z</time>
      </trkpt>
      <trkpt lat="40.069565" lon="-0.522182">
        <ele>453.9</ele>
        <time>2021-08-10T11:03:33.713Z</time>
      </trkpt>
      <trkpt lat="40.069448" lon="-0.521926">
        <ele>453.9</ele>
        <time>2021-08-10T11:03:41.412Z</time>
      </trkpt>
      <trkpt lat="40.069276" lon="-0.521705">
        <ele>453.9</ele>
        <time>2021-08-10T11:03:49.308Z</time>
      </trkpt>
      <trkpt lat="40.068383" lon="-0.520774">
        <ele>454.4</ele>
        <time>2021-08-10T11:04:26.820Z</time>
      </trkpt>
      <trkpt lat="40.067850" lon="-0.520466">
        <ele>454.6</ele>
        <time>2021-08-10T11:04:47.393Z</time>
      </trkpt>
      <trkpt lat="40.067571" lon="-0.520462">
        <ele>454.8</ele>
        <time>2021-08-10T11:04:57.179Z</time>
      </trkpt>
      <trkpt lat="40.067387" lon="-0.520532">
        <ele>454.9</ele>
        <time>2021-08-10T11:05:03.871Z</time>
      </trkpt>
      <trkpt lat="40.067272" lon="-0.520657">
        <ele>455.1</ele>
        <time>2021-08-10T11:05:09.022Z</time>
      </trkpt>
      <trkpt lat="40.067074" lon="-0.521192">
        <ele>455.4</ele>
        <time>2021-08-10T11:05:24.507Z</time>
      </trkpt>
      <trkpt lat="40.066691" lon="-0.521498">
        <ele>455.7</ele>
        <time>2021-08-10T11:05:40.509Z</time>
      </trkpt>
      <trkpt lat="40.066616" lon="-0.521690">
        <ele>455.8</ele>
        <time>2021-08-10T11:05:46.728Z</time>
      </trkpt>
      <trkpt lat="40.066573" lon="-0.522924">
        <ele>457.4</ele>
        <time>2021-08-10T11:06:22.833Z</time>
      </trkpt>
      <trkpt lat="40.066591" lon="-0.523064">
        <ele>457.6</ele>
        <time>2021-08-10T11:06:27.129Z</time>
      </trkpt>
      <trkpt lat="40.066701" lon="-0.523298">
        <ele>457.9</ele>
        <time>2021-08-10T11:06:36.034Z</time>
      </trkpt>
      <trkpt lat="40.066755" lon="-0.524042">
        <ele>458.9</ele>
        <time>2021-08-10T11:07:00.037Z</time>
      </trkpt>
      <trkpt lat="40.066755" lon="-0.524042">
        <ele>458.9</ele>
        <time>2021-08-10T11:07:00.145Z</time>
      </trkpt>
      <trkpt lat="40.066799" lon="-0.524171">
        <ele>459.2</ele>
        <time>2021-08-10T11:07:05.070Z</time>
      </trkpt>
      <trkpt lat="40.066769" lon="-0.524225">
        <ele>459.4</ele>
        <time>2021-08-10T11:07:06.833Z</time>
      </trkpt>
      <trkpt lat="40.066725" lon="-0.524262">
        <ele>459.6</ele>
        <time>2021-08-10T11:07:08.658Z</time>
      </trkpt>
      <trkpt lat="40.066702" lon="-0.524278">
        <ele>459.7</ele>
        <time>2021-08-10T11:07:09.882Z</time>
      </trkpt>
      <trkpt lat="40.066573" lon="-0.524274">
        <ele>460.2</ele>
        <time>2021-08-10T11:07:15.840Z</time>
      </trkpt>
      <trkpt lat="40.066545" lon="-0.524299">
        <ele>460.4</ele>
        <time>2021-08-10T11:07:17.128Z</time>
      </trkpt>
      <trkpt lat="40.066522" lon="-0.524326">
        <ele>460.5</ele>
        <time>2021-08-10T11:07:19.283Z</time>
      </trkpt>
      <trkpt lat="40.066376" lon="-0.524459">
        <ele>461.2</ele>
        <time>2021-08-10T11:07:26.904Z</time>
      </trkpt>
      <trkpt lat="40.066244" lon="-0.524491">
        <ele>461.7</ele>
        <time>2021-08-10T11:07:33.373Z</time>
      </trkpt>
      <trkpt lat="40.065605" lon="-0.524425">
        <ele>464.1</ele>
        <time>2021-08-10T11:08:09.367Z</time>
      </trkpt>
      <trkpt lat="40.065281" lon="-0.524605">
        <ele>465.5</ele>
        <time>2021-08-10T11:08:28.703Z</time>
      </trkpt>
      <trkpt lat="40.064846" lon="-0.524712">
        <ele>466.6</ele>
        <time>2021-08-10T11:08:51.833Z</time>
      </trkpt>
      <trkpt lat="40.064787" lon="-0.524740">
        <ele>466.8</ele>
        <time>2021-08-10T11:08:56.235Z</time>
      </trkpt>
      <trkpt lat="40.064712" lon="-0.524790">
        <ele>466.9</ele>
        <time>2021-08-10T11:09:00.976Z</time>
      </trkpt>
      <trkpt lat="40.064056" lon="-0.524972">
        <ele>468.4</ele>
        <time>2021-08-10T11:09:30.809Z</time>
      </trkpt>
      <trkpt lat="40.063596" lon="-0.525497">
        <ele>469.7</ele>
        <time>2021-08-10T11:09:52.533Z</time>
      </trkpt>
      <trkpt lat="40.063254" lon="-0.525688">
        <ele>468.7</ele>
        <time>2021-08-10T11:10:03.141Z</time>
      </trkpt>
      <trkpt lat="40.062750" lon="-0.526833">
        <ele>465.8</ele>
        <time>2021-08-10T11:10:28.890Z</time>
      </trkpt>
      <trkpt lat="40.062619" lon="-0.527261">
        <ele>464.8</ele>
        <time>2021-08-10T11:10:37.793Z</time>
      </trkpt>
      <trkpt lat="40.062612" lon="-0.527303">
        <ele>464.7</ele>
        <time>2021-08-10T11:10:38.460Z</time>
      </trkpt>
      <trkpt lat="40.062618" lon="-0.527388">
        <ele>464.5</ele>
        <time>2021-08-10T11:10:40.062Z</time>
      </trkpt>
      <trkpt lat="40.062708" lon="-0.527583">
        <ele>464.0</ele>
        <time>2021-08-10T11:10:44.817Z</time>
      </trkpt>
      <trkpt lat="40.062856" lon="-0.527609">
        <ele>463.6</ele>
        <time>2021-08-10T11:10:48.335Z</time>
      </trkpt>
      <trkpt lat="40.062856" lon="-0.527609">
        <ele>463.6</ele>
        <time>2021-08-10T11:10:48.342Z</time>
      </trkpt>
      <trkpt lat="40.063355" lon="-0.527186">
        <ele>461.9</ele>
        <time>2021-08-10T11:11:03.942Z</time>
      </trkpt>
      <trkpt lat="40.063788" lon="-0.526942">
        <ele>460.6</ele>
        <time>2021-08-10T11:11:15.859Z</time>
      </trkpt>
      <trkpt lat="40.064055" lon="-0.526717">
        <ele>459.8</ele>
        <time>2021-08-10T11:11:25.007Z</time>
      </trkpt>
      <trkpt lat="40.065339" lon="-0.526210">
        <ele>459.8</ele>
        <time>2021-08-10T11:12:08.094Z</time>
      </trkpt>
      <trkpt lat="40.065636" lon="-0.525949">
        <ele>459.8</ele>
        <time>2021-08-10T11:12:21.319Z</time>
      </trkpt>
      <trkpt lat="40.065643" lon="-0.525942">
        <ele>459.8</ele>
        <time>2021-08-10T11:12:22.246Z</time>
      </trkpt>
      <trkpt lat="40.065849" lon="-0.525763">
        <ele>460.0</ele>
        <time>2021-08-10T11:12:31.093Z</time>
      </trkpt>
      <trkpt lat="40.066115" lon="-0.525751">
        <ele>460.5</ele>
        <time>2021-08-10T11:12:41.974Z</time>
      </trkpt>
      <trkpt lat="40.066340" lon="-0.525753">
        <ele>460.9</ele>
        <time>2021-08-10T11:12:49.834Z</time>
      </trkpt>
      <trkpt lat="40.066368" lon="-0.525711">
        <ele>460.9</ele>
        <time>2021-08-10T11:12:50.771Z</time>
      </trkpt>
      <trkpt lat="40.066404" lon="-0.525627">
        <ele>461.1</ele>
        <time>2021-08-10T11:12:52.494Z</time>
      </trkpt>
      <trkpt lat="40.066542" lon="-0.525436">
        <ele>461.4</ele>
        <time>2021-08-10T11:12:56.807Z</time>
      </trkpt>
      <trkpt lat="40.066877" lon="-0.525170">
        <ele>462.1</ele>
        <time>2021-08-10T11:13:08.510Z</time>
      </trkpt>
      <trkpt lat="40.067008" lon="-0.525125">
        <ele>462.3</ele>
        <time>2021-08-10T11:13:11.295Z</time>
      </trkpt>
      <trkpt lat="40.067025" lon="-0.525129">
        <ele>462.3</ele>
        <time>2021-08-10T11:13:13.055Z</time>
      </trkpt>
      <trkpt lat="40.067035" lon="-0.525087">
        <ele>462.4</ele>
        <time>2021-08-10T11:13:15.342Z</time>
      </trkpt>
      <trkpt lat="40.067094" lon="-0.524670">
        <ele>463.0</ele>
        <time>2021-08-10T11:13:26.006Z</time>
      </trkpt>
      <trkpt lat="40.067222" lon="-0.524406">
        <ele>463.3</ele>
        <time>2021-08-10T11:13:35.480Z</time>
      </trkpt>
      <trkpt lat="40.067266" lon="-0.524344">
        <ele>463.3</ele>
        <time>2021-08-10T11:13:36.797Z</time>
      </trkpt>
      <trkpt lat="40.067260" lon="-0.524176">
        <ele>463.5</ele>
        <time>2021-08-10T11:13:43.685Z</time>
      </trkpt>
      <trkpt lat="40.067260" lon="-0.523799">
        <ele>463.8</ele>
        <time>2021-08-10T11:13:51.433Z</time>
      </trkpt>
      <trkpt lat="40.067285" lon="-0.523800">
        <ele>463.8</ele>
        <time>2021-08-10T11:13:53.752Z</time>
      </trkpt>
      <trkpt lat="40.067548" lon="-0.523583">
        <ele>464.2</ele>
        <time>2021-08-10T11:14:01.648Z</time>
      </trkpt>
      <trkpt lat="40.067665" lon="-0.523518">
        <ele>464.4</ele>
        <time>2021-08-10T11:14:07.770Z</time>
      </trkpt>
      <trkpt lat="40.068122" lon="-0.523265">
        <ele>464.9</ele>
        <time>2021-08-10T11:14:19.222Z</time>
      </trkpt>
      <trkpt lat="40.068149" lon="-0.523251">
        <ele>465.0</ele>
        <time>2021-08-10T11:14:19.786Z</time>
      </trkpt>
      <trkpt lat="40.068271" lon="-0.523200">
        <ele>465.1</ele>
        <time>2021-08-10T11:14:23.890Z</time>
      </trkpt>
      <trkpt lat="40.068149" lon="-0.523251">
        <ele>464.9</ele>
        <time>2021-08-10T11:14:26.589Z</time>
      </trkpt>
      <trkpt lat="40.068122" lon="-0.523265">
        <ele>464.9</ele>
        <time>2021-08-10T11:14:27.141Z</time>
      </trkpt>
      <trkpt lat="40.067665" lon="-0.523518">
        <ele>464.5</ele>
        <time>2021-08-10T11:14:37.695Z</time>
      </trkpt>
      <trkpt lat="40.067567" lon="-0.523296">
        <ele>464.3</ele>
        <time>2021-08-10T11:14:42.474Z</time>
      </trkpt>
      <trkpt lat="40.067510" lon="-0.523075">
        <ele>464.1</ele>
        <time>2021-08-10T11:14:46.318Z</time>
      </trkpt>
      <trkpt lat="40.067526" lon="-0.523074">
        <ele>464.1</ele>
        <time>2021-08-10T11:14:46.742Z</time>
      </trkpt>
      <trkpt lat="40.067542" lon="-0.523083">
        <ele>464.1</ele>
        <time>2021-08-10T11:14:47.238Z</time>
      </trkpt>
      <trkpt lat="40.067541" lon="-0.523048">
        <ele>464.1</ele>
        <time>2021-08-10T11:14:47.724Z</time>
      </trkpt>
      <trkpt lat="40.067535" lon="-0.523009">
        <ele>464.1</ele>
        <time>2021-08-10T11:14:48.380Z</time>
      </trkpt>
      <trkpt lat="40.067484" lon="-0.522859">
        <ele>464.0</ele>
        <time>2021-08-10T11:14:51.061Z</time>
      </trkpt>
      <trkpt lat="40.067484" lon="-0.522859">
        <ele>464.0</ele>
        <time>2021-08-10T11:14:51.066Z</time>
      </trkpt>
      <trkpt lat="40.067484" lon="-0.522859">
        <ele>464.0</ele>
        <time>2021-08-10T11:14:51.111Z</time>
      </trkpt>
      <trkpt lat="40.067466" lon="-0.522869">
        <ele>463.9</ele>
        <time>2021-08-10T11:14:51.444Z</time>
      </trkpt>
      <trkpt lat="40.067379" lon="-0.522902">
        <ele>463.9</ele>
        <time>2021-08-10T11:14:54.660Z</time>
      </trkpt>
      <trkpt lat="40.067334" lon="-0.522817">
        <ele>463.8</ele>
        <time>2021-08-10T11:14:56.460Z</time>
      </trkpt>
      <trkpt lat="40.067310" lon="-0.522839">
        <ele>463.8</ele>
        <time>2021-08-10T11:14:56.994Z</time>
      </trkpt>
      <trkpt lat="40.067223" lon="-0.522912">
        <ele>463.7</ele>
        <time>2021-08-10T11:14:59.269Z</time>
      </trkpt>
      <trkpt lat="40.067187" lon="-0.522867">
        <ele>463.6</ele>
        <time>2021-08-10T11:15:00.161Z</time>
      </trkpt>
      <trkpt lat="40.067030" lon="-0.522905">
        <ele>463.5</ele>
        <time>2021-08-10T11:15:05.350Z</time>
      </trkpt>
      <trkpt lat="40.067022" lon="-0.522748">
        <ele>464.1</ele>
        <time>2021-08-10T11:15:08.396Z</time>
      </trkpt>
      <trkpt lat="40.067023" lon="-0.522706">
        <ele>464.3</ele>
        <time>2021-08-10T11:15:09.202Z</time>
      </trkpt>
      <trkpt lat="40.067028" lon="-0.522676">
        <ele>464.4</ele>
        <time>2021-08-10T11:15:09.628Z</time>
      </trkpt>
      <trkpt lat="40.066959" lon="-0.522641">
        <ele>464.8</ele>
        <time>2021-08-10T11:15:11.366Z</time>
      </trkpt>
      <trkpt lat="40.066926" lon="-0.522776">
        <ele>465.4</ele>
        <time>2021-08-10T11:15:16.594Z</time>
      </trkpt>
      <trkpt lat="40.066914" lon="-0.522833">
        <ele>465.6</ele>
        <time>2021-08-10T11:15:18.230Z</time>
      </trkpt>
      <trkpt lat="40.066781" lon="-0.522809">
        <ele>466.4</ele>
        <time>2021-08-10T11:15:22.372Z</time>
      </trkpt>
      <trkpt lat="40.066620" lon="-0.522789">
        <ele>467.2</ele>
        <time>2021-08-10T11:15:29.842Z</time>
      </trkpt>
      <trkpt lat="40.066365" lon="-0.522756">
        <ele>468.6</ele>
        <time>2021-08-10T11:15:41.747Z</time>
      </trkpt>
      <trkpt lat="40.066319" lon="-0.522741">
        <ele>468.9</ele>
        <time>2021-08-10T11:15:44.527Z</time>
      </trkpt>
      <trkpt lat="40.066304" lon="-0.522727">
        <ele>469.0</ele>
        <time>2021-08-10T11:15:45.491Z</time>
      </trkpt>
      <trkpt lat="40.066148" lon="-0.522452">
        <ele>470.4</ele>
        <time>2021-08-10T11:15:57.356Z</time>
      </trkpt>
      <trkpt lat="40.066059" lon="-0.522401">
        <ele>470.9</ele>
        <time>2021-08-10T11:16:08.512Z</time>
      </trkpt>
      <trkpt lat="40.066042" lon="-0.522422">
        <ele>471.0</ele>
        <time>2021-08-10T11:16:10.017Z</time>
      </trkpt>
      <trkpt lat="40.065995" lon="-0.522471">
        <ele>471.3</ele>
        <time>2021-08-10T11:16:15.428Z</time>
      </trkpt>
      <trkpt lat="40.065935" lon="-0.522437">
        <ele>471.7</ele>
        <time>2021-08-10T11:16:18.725Z</time>
      </trkpt>
      <trkpt lat="40.065809" lon="-0.522199">
        <ele>472.9</ele>
        <time>2021-08-10T11:16:37.004Z</time>
      </trkpt>
      <trkpt lat="40.064906" lon="-0.521688">
        <ele>485.4</ele>
        <time>2021-08-10T11:17:54.798Z</time>
      </trkpt>
      <trkpt lat="40.064880" lon="-0.521689">
        <ele>485.7</ele>
        <time>2021-08-10T11:17:58.372Z</time>
      </trkpt>
      <trkpt lat="40.064920" lon="-0.521747">
        <ele>486.5</ele>
        <time>2021-08-10T11:18:05.789Z</time>
      </trkpt>
      <trkpt lat="40.064985" lon="-0.521903">
        <ele>488.3</ele>
        <time>2021-08-10T11:18:18.932Z</time>
      </trkpt>
      <trkpt lat="40.065122" lon="-0.522703">
        <ele>496.5</ele>
        <time>2021-08-10T11:19:22.638Z</time>
      </trkpt>
      <trkpt lat="40.065218" lon="-0.523013">
        <ele>499.8</ele>
        <time>2021-08-10T11:19:48.332Z</time>
      </trkpt>
      <trkpt lat="40.065167" lon="-0.523183">
        <ele>501.7</ele>
        <time>2021-08-10T11:20:03.799Z</time>
      </trkpt>
      <trkpt lat="40.065069" lon="-0.523202">
        <ele>502.9</ele>
        <time>2021-08-10T11:20:12.980Z</time>
      </trkpt>
      <trkpt lat="40.064968" lon="-0.522971">
        <ele>505.6</ele>
        <time>2021-08-10T11:20:37.617Z</time>
      </trkpt>
      <trkpt lat="40.064798" lon="-0.522874">
        <ele>508.0</ele>
        <time>2021-08-10T11:20:55.049Z</time>
      </trkpt>
      <trkpt lat="40.064302" lon="-0.523024">
        <ele>514.6</ele>
        <time>2021-08-10T11:21:41.740Z</time>
      </trkpt>
      <trkpt lat="40.064030" lon="-0.523235">
        <ele>518.7</ele>
        <time>2021-08-10T11:22:10.448Z</time>
      </trkpt>
      <trkpt lat="40.063900" lon="-0.523460">
        <ele>521.1</ele>
        <time>2021-08-10T11:22:29.792Z</time>
      </trkpt>
      <trkpt lat="40.063514" lon="-0.523497">
        <ele>524.7</ele>
        <time>2021-08-10T11:23:03.517Z</time>
      </trkpt>
      <trkpt lat="40.063176" lon="-0.523599">
        <ele>528.0</ele>
        <time>2021-08-10T11:23:31.933Z</time>
      </trkpt>
      <trkpt lat="40.062322" lon="-0.524532">
        <ele>538.1</ele>
        <time>2021-08-10T11:24:53.737Z</time>
      </trkpt>
      <trkpt lat="40.061831" lon="-0.524646">
        <ele>541.6</ele>
        <time>2021-08-10T11:25:28.501Z</time>
      </trkpt>
      <trkpt lat="40.061496" lon="-0.524557">
        <ele>543.9</ele>
        <time>2021-08-10T11:25:51.737Z</time>
      </trkpt>
      <trkpt lat="40.061333" lon="-0.524414">
        <ele>545.3</ele>
        <time>2021-08-10T11:26:04.800Z</time>
      </trkpt>
      <trkpt lat="40.061172" lon="-0.524420">
        <ele>546.4</ele>
        <time>2021-08-10T11:26:15.083Z</time>
      </trkpt>
      <trkpt lat="40.060859" lon="-0.524547">
        <ele>548.6</ele>
        <time>2021-08-10T11:26:34.698Z</time>
      </trkpt>
      <trkpt lat="40.060422" lon="-0.524973">
        <ele>551.7</ele>
        <time>2021-08-10T11:27:05.379Z</time>
      </trkpt>
      <trkpt lat="40.059820" lon="-0.524934">
        <ele>554.9</ele>
        <time>2021-08-10T11:27:41.126Z</time>
      </trkpt>
      <trkpt lat="40.059401" lon="-0.525149">
        <ele>557.2</ele>
        <time>2021-08-10T11:28:06.938Z</time>
      </trkpt>
      <trkpt lat="40.059010" lon="-0.525227">
        <ele>559.3</ele>
        <time>2021-08-10T11:28:29.291Z</time>
      </trkpt>
      <trkpt lat="40.058761" lon="-0.525141">
        <ele>560.7</ele>
        <time>2021-08-10T11:28:44.076Z</time>
      </trkpt>
      <trkpt lat="40.058238" lon="-0.525192">
        <ele>563.6</ele>
        <time>2021-08-10T11:29:14.372Z</time>
      </trkpt>
      <trkpt lat="40.057752" lon="-0.524589">
        <ele>567.3</ele>
        <time>2021-08-10T11:29:56.629Z</time>
      </trkpt>
      <trkpt lat="40.056961" lon="-0.524368">
        <ele>570.4</ele>
        <time>2021-08-10T11:30:43.862Z</time>
      </trkpt>
      <trkpt lat="40.056847" lon="-0.524386">
        <ele>570.8</ele>
        <time>2021-08-10T11:30:49.880Z</time>
      </trkpt>
      <trkpt lat="40.056610" lon="-0.524696">
        <ele>571.8</ele>
        <time>2021-08-10T11:31:05.867Z</time>
      </trkpt>
      <trkpt lat="40.056456" lon="-0.524694">
        <ele>572.3</ele>
        <time>2021-08-10T11:31:12.411Z</time>
      </trkpt>
      <trkpt lat="40.056324" lon="-0.524763">
        <ele>572.8</ele>
        <time>2021-08-10T11:31:18.631Z</time>
      </trkpt>
      <trkpt lat="40.056113" lon="-0.525235">
        <ele>574.1</ele>
        <time>2021-08-10T11:31:34.995Z</time>
      </trkpt>
      <trkpt lat="40.055811" lon="-0.525482">
        <ele>574.4</ele>
        <time>2021-08-10T11:31:47.418Z</time>
      </trkpt>
      <trkpt lat="40.055748" lon="-0.525601">
        <ele>574.5</ele>
        <time>2021-08-10T11:31:50.814Z</time>
      </trkpt>
      <trkpt lat="40.055696" lon="-0.526011">
        <ele>574.5</ele>
        <time>2021-08-10T11:32:00.770Z</time>
      </trkpt>
      <trkpt lat="40.055633" lon="-0.526105">
        <ele>574.6</ele>
        <time>2021-08-10T11:32:03.650Z</time>
      </trkpt>
      <trkpt lat="40.055558" lon="-0.526101">
        <ele>574.6</ele>
        <time>2021-08-10T11:32:06.020Z</time>
      </trkpt>
      <trkpt lat="40.055292" lon="-0.525875">
        <ele>574.7</ele>
        <time>2021-08-10T11:32:15.736Z</time>
      </trkpt>
      <trkpt lat="40.055071" lon="-0.525811">
        <ele>574.7</ele>
        <time>2021-08-10T11:32:22.882Z</time>
      </trkpt>
      <trkpt lat="40.054872" lon="-0.525863">
        <ele>574.8</ele>
        <time>2021-08-10T11:32:29.481Z</time>
      </trkpt>
      <trkpt lat="40.054597" lon="-0.526035">
        <ele>575.1</ele>
        <time>2021-08-10T11:32:39.770Z</time>
      </trkpt>
      <trkpt lat="40.054459" lon="-0.526479">
        <ele>575.9</ele>
        <time>2021-08-10T11:32:53.633Z</time>
      </trkpt>
      <trkpt lat="40.054445" lon="-0.527136">
        <ele>577.0</ele>
        <time>2021-08-10T11:33:14.637Z</time>
      </trkpt>
      <trkpt lat="40.054306" lon="-0.527542">
        <ele>577.7</ele>
        <time>2021-08-10T11:33:29.739Z</time>
      </trkpt>
      <trkpt lat="40.054399" lon="-0.529019">
        <ele>580.7</ele>
        <time>2021-08-10T11:34:27.076Z</time>
      </trkpt>
      <trkpt lat="40.054280" lon="-0.529210">
        <ele>581.3</ele>
        <time>2021-08-10T11:34:36.439Z</time>
      </trkpt>
      <trkpt lat="40.054131" lon="-0.529190">
        <ele>581.7</ele>
        <time>2021-08-10T11:34:42.508Z</time>
      </trkpt>
      <trkpt lat="40.053925" lon="-0.529142">
        <ele>582.4</ele>
        <time>2021-08-10T11:34:52.480Z</time>
      </trkpt>
      <trkpt lat="40.053640" lon="-0.529120">
        <ele>583.2</ele>
        <time>2021-08-10T11:35:04.777Z</time>
      </trkpt>
      <trkpt lat="40.053263" lon="-0.529108">
        <ele>584.3</ele>
        <time>2021-08-10T11:35:21.129Z</time>
      </trkpt>
      <trkpt lat="40.052737" lon="-0.528717">
        <ele>585.5</ele>
        <time>2021-08-10T11:35:47.400Z</time>
      </trkpt>
      <trkpt lat="40.052608" lon="-0.528722">
        <ele>585.7</ele>
        <time>2021-08-10T11:35:53.294Z</time>
      </trkpt>
      <trkpt lat="40.052244" lon="-0.528874">
        <ele>586.5</ele>
        <time>2021-08-10T11:36:08.038Z</time>
      </trkpt>
      <trkpt lat="40.051999" lon="-0.528751">
        <ele>587.0</ele>
        <time>2021-08-10T11:36:17.666Z</time>
      </trkpt>
      <trkpt lat="40.051708" lon="-0.528747">
        <ele>587.6</ele>
        <time>2021-08-10T11:36:28.733Z</time>
      </trkpt>
      <trkpt lat="40.051484" lon="-0.528645">
        <ele>588.4</ele>
        <time>2021-08-10T11:36:38.424Z</time>
      </trkpt>
      <trkpt lat="40.051402" lon="-0.528535">
        <ele>588.9</ele>
        <time>2021-08-10T11:36:43.658Z</time>
      </trkpt>
      <trkpt lat="40.051194" lon="-0.527949">
        <ele>590.9</ele>
        <time>2021-08-10T11:37:08.276Z</time>
      </trkpt>
      <trkpt lat="40.050820" lon="-0.527318">
        <ele>593.3</ele>
        <time>2021-08-10T11:37:42.949Z</time>
      </trkpt>
      <trkpt lat="40.050594" lon="-0.527172">
        <ele>594.3</ele>
        <time>2021-08-10T11:37:57.640Z</time>
      </trkpt>
      <trkpt lat="40.050313" lon="-0.527371">
        <ele>595.9</ele>
        <time>2021-08-10T11:38:16.163Z</time>
      </trkpt>
      <trkpt lat="40.049902" lon="-0.527230">
        <ele>598.1</ele>
        <time>2021-08-10T11:38:41.426Z</time>
      </trkpt>
      <trkpt lat="40.049528" lon="-0.526516">
        <ele>601.7</ele>
        <time>2021-08-10T11:39:22.151Z</time>
      </trkpt>
      <trkpt lat="40.049133" lon="-0.525538">
        <ele>606.6</ele>
        <time>2021-08-10T11:40:09.355Z</time>
      </trkpt>
      <trkpt lat="40.048998" lon="-0.525353">
        <ele>607.8</ele>
        <time>2021-08-10T11:40:18.407Z</time>
      </trkpt>
      <trkpt lat="40.048699" lon="-0.525184">
        <ele>609.9</ele>
        <time>2021-08-10T11:40:38.490Z</time>
      </trkpt>
      <trkpt lat="40.048476" lon="-0.525352">
        <ele>611.6</ele>
        <time>2021-08-10T11:40:55.771Z</time>
      </trkpt>
      <trkpt lat="40.048315" lon="-0.525353">
        <ele>612.6</ele>
        <time>2021-08-10T11:41:03.618Z</time>
      </trkpt>
      <trkpt lat="40.048071" lon="-0.525122">
        <ele>614.5</ele>
        <time>2021-08-10T11:41:26.230Z</time>
      </trkpt>
      <trkpt lat="40.047815" lon="-0.524750">
        <ele>617.8</ele>
        <time>2021-08-10T11:41:55.259Z</time>
      </trkpt>
      <trkpt lat="40.047749" lon="-0.524708">
        <ele>618.7</ele>
        <time>2021-08-10T11:41:58.695Z</time>
      </trkpt>
      <trkpt lat="40.047768" lon="-0.524644">
        <ele>619.4</ele>
        <time>2021-08-10T11:42:06.439Z</time>
      </trkpt>
      <trkpt lat="40.047797" lon="-0.524285">
        <ele>622.7</ele>
        <time>2021-08-10T11:42:25.981Z</time>
      </trkpt>
      <trkpt lat="40.047731" lon="-0.523796">
        <ele>627.3</ele>
        <time>2021-08-10T11:42:59.550Z</time>
      </trkpt>
      <trkpt lat="40.047920" lon="-0.523283">
        <ele>632.6</ele>
        <time>2021-08-10T11:43:46.917Z</time>
      </trkpt>
      <trkpt lat="40.047915" lon="-0.523199">
        <ele>633.4</ele>
        <time>2021-08-10T11:43:53.111Z</time>
      </trkpt>
      <trkpt lat="40.047412" lon="-0.522778">
        <ele>640.8</ele>
        <time>2021-08-10T11:44:55.626Z</time>
      </trkpt>
      <trkpt lat="40.047256" lon="-0.522355">
        <ele>645.4</ele>
        <time>2021-08-10T11:45:32.092Z</time>
      </trkpt>
      <trkpt lat="40.047030" lon="-0.522045">
        <ele>649.7</ele>
        <time>2021-08-10T11:46:04.817Z</time>
      </trkpt>
      <trkpt lat="40.046897" lon="-0.521650">
        <ele>653.9</ele>
        <time>2021-08-10T11:46:36.369Z</time>
      </trkpt>
      <trkpt lat="40.046515" lon="-0.521167">
        <ele>660.7</ele>
        <time>2021-08-10T11:47:23.943Z</time>
      </trkpt>
      <trkpt lat="40.046457" lon="-0.520921">
        <ele>662.8</ele>
        <time>2021-08-10T11:47:41.001Z</time>
      </trkpt>
      <trkpt lat="40.046496" lon="-0.520263">
        <ele>667.9</ele>
        <time>2021-08-10T11:48:23.623Z</time>
      </trkpt>
      <trkpt lat="40.046237" lon="-0.520059">
        <ele>671.0</ele>
        <time>2021-08-10T11:48:48.105Z</time>
      </trkpt>
      <trkpt lat="40.046117" lon="-0.519631">
        <ele>674.6</ele>
        <time>2021-08-10T11:49:16.363Z</time>
      </trkpt>
      <trkpt lat="40.045694" lon="-0.519143">
        <ele>680.2</ele>
        <time>2021-08-10T11:50:01.459Z</time>
      </trkpt>
      <trkpt lat="40.045437" lon="-0.519043">
        <ele>682.8</ele>
        <time>2021-08-10T11:50:22.671Z</time>
      </trkpt>
      <trkpt lat="40.045224" lon="-0.519125">
        <ele>685.0</ele>
        <time>2021-08-10T11:50:39.821Z</time>
      </trkpt>
      <trkpt lat="40.045083" lon="-0.519022">
        <ele>686.5</ele>
        <time>2021-08-10T11:50:52.997Z</time>
      </trkpt>
      <trkpt lat="40.044891" lon="-0.518549">
        <ele>690.5</ele>
        <time>2021-08-10T11:51:26.672Z</time>
      </trkpt>
      <trkpt lat="40.044861" lon="-0.517894">
        <ele>695.4</ele>
        <time>2021-08-10T11:52:07.735Z</time>
      </trkpt>
      <trkpt lat="40.044782" lon="-0.517693">
        <ele>696.9</ele>
        <time>2021-08-10T11:52:21.820Z</time>
      </trkpt>
      <trkpt lat="40.044640" lon="-0.517527">
        <ele>698.3</ele>
        <time>2021-08-10T11:52:36.307Z</time>
      </trkpt>
      <trkpt lat="40.044329" lon="-0.517546">
        <ele>700.6</ele>
        <time>2021-08-10T11:53:00.124Z</time>
      </trkpt>
      <trkpt lat="40.044027" lon="-0.517728">
        <ele>703.0</ele>
        <time>2021-08-10T11:53:24.351Z</time>
      </trkpt>
      <trkpt lat="40.043743" lon="-0.517797">
        <ele>705.0</ele>
        <time>2021-08-10T11:53:43.964Z</time>
      </trkpt>
      <trkpt lat="40.043539" lon="-0.518083">
        <ele>707.2</ele>
        <time>2021-08-10T11:54:02.989Z</time>
      </trkpt>
      <trkpt lat="40.043339" lon="-0.518240">
        <ele>708.9</ele>
        <time>2021-08-10T11:54:16.611Z</time>
      </trkpt>
      <trkpt lat="40.043173" lon="-0.518526">
        <ele>710.0</ele>
        <time>2021-08-10T11:54:31.592Z</time>
      </trkpt>
      <trkpt lat="40.042867" lon="-0.518706">
        <ele>710.7</ele>
        <time>2021-08-10T11:54:47.662Z</time>
      </trkpt>
      <trkpt lat="40.042577" lon="-0.519210">
        <ele>711.8</ele>
        <time>2021-08-10T11:55:06.849Z</time>
      </trkpt>
      <trkpt lat="40.042450" lon="-0.519324">
        <ele>712.1</ele>
        <time>2021-08-10T11:55:12.432Z</time>
      </trkpt>
      <trkpt lat="40.042199" lon="-0.519348">
        <ele>712.6</ele>
        <time>2021-08-10T11:55:20.246Z</time>
      </trkpt>
      <trkpt lat="40.041774" lon="-0.519145">
        <ele>713.6</ele>
        <time>2021-08-10T11:55:37.668Z</time>
      </trkpt>
      <trkpt lat="40.041584" lon="-0.519190">
        <ele>714.1</ele>
        <time>2021-08-10T11:55:44.457Z</time>
      </trkpt>
      <trkpt lat="40.041394" lon="-0.519396">
        <ele>714.7</ele>
        <time>2021-08-10T11:55:54.542Z</time>
      </trkpt>
      <trkpt lat="40.041188" lon="-0.519835">
        <ele>715.6</ele>
        <time>2021-08-10T11:56:10.501Z</time>
      </trkpt>
      <trkpt lat="40.041143" lon="-0.519949">
        <ele>715.8</ele>
        <time>2021-08-10T11:56:13.518Z</time>
      </trkpt>
      <trkpt lat="40.041007" lon="-0.519549">
        <ele>716.6</ele>
        <time>2021-08-10T11:56:28.983Z</time>
      </trkpt>
      <trkpt lat="40.040773" lon="-0.519098">
        <ele>717.6</ele>
        <time>2021-08-10T11:56:49.242Z</time>
      </trkpt>
      <trkpt lat="40.040055" lon="-0.518192">
        <ele>722.5</ele>
        <time>2021-08-10T11:57:46.751Z</time>
      </trkpt>
      <trkpt lat="40.039672" lon="-0.517827">
        <ele>724.8</ele>
        <time>2021-08-10T11:58:13.837Z</time>
      </trkpt>
      <trkpt lat="40.039412" lon="-0.517475">
        <ele>726.7</ele>
        <time>2021-08-10T11:58:35.730Z</time>
      </trkpt>
      <trkpt lat="40.039243" lon="-0.517162">
        <ele>728.5</ele>
        <time>2021-08-10T11:58:53.335Z</time>
      </trkpt>
      <trkpt lat="40.039198" lon="-0.516760">
        <ele>730.5</ele>
        <time>2021-08-10T11:59:12.173Z</time>
      </trkpt>
      <trkpt lat="40.039122" lon="-0.516599">
        <ele>731.5</ele>
        <time>2021-08-10T11:59:20.952Z</time>
      </trkpt>
      <trkpt lat="40.038672" lon="-0.516222">
        <ele>734.9</ele>
        <time>2021-08-10T11:59:54.794Z</time>
      </trkpt>
      <trkpt lat="40.038444" lon="-0.515698">
        <ele>737.8</ele>
        <time>2021-08-10T12:00:25.774Z</time>
      </trkpt>
      <trkpt lat="40.037943" lon="-0.515423">
        <ele>742.5</ele>
        <time>2021-08-10T12:01:04.043Z</time>
      </trkpt>
      <trkpt lat="40.037623" lon="-0.514871">
        <ele>747.2</ele>
        <time>2021-08-10T12:01:44.696Z</time>
      </trkpt>
      <trkpt lat="40.036948" lon="-0.514012">
        <ele>755.8</ele>
        <time>2021-08-10T12:03:01.325Z</time>
      </trkpt>
      <trkpt lat="40.036593" lon="-0.513349">
        <ele>762.0</ele>
        <time>2021-08-10T12:03:53.105Z</time>
      </trkpt>
      <trkpt lat="40.036048" lon="-0.512864">
        <ele>768.6</ele>
        <time>2021-08-10T12:04:47.303Z</time>
      </trkpt>
      <trkpt lat="40.036022" lon="-0.512528">
        <ele>771.1</ele>
        <time>2021-08-10T12:05:08.268Z</time>
      </trkpt>
      <trkpt lat="40.036067" lon="-0.512276">
        <ele>773.1</ele>
        <time>2021-08-10T12:05:24.231Z</time>
      </trkpt>
      <trkpt lat="40.036328" lon="-0.511943">
        <ele>776.5</ele>
        <time>2021-08-10T12:05:52.847Z</time>
      </trkpt>
      <trkpt lat="40.036657" lon="-0.511358">
        <ele>781.6</ele>
        <time>2021-08-10T12:06:35.748Z</time>
      </trkpt>
      <trkpt lat="40.036712" lon="-0.511167">
        <ele>783.1</ele>
        <time>2021-08-10T12:06:47.744Z</time>
      </trkpt>
      <trkpt lat="40.036725" lon="-0.510790">
        <ele>785.8</ele>
        <time>2021-08-10T12:07:09.852Z</time>
      </trkpt>
      <trkpt lat="40.036637" lon="-0.510574">
        <ele>787.5</ele>
        <time>2021-08-10T12:07:24.139Z</time>
      </trkpt>
      <trkpt lat="40.036430" lon="-0.510415">
        <ele>789.9</ele>
        <time>2021-08-10T12:07:42.394Z</time>
      </trkpt>
      <trkpt lat="40.035897" lon="-0.509212">
        <ele>802.1</ele>
        <time>2021-08-10T12:09:12.111Z</time>
      </trkpt>
      <trkpt lat="40.035606" lon="-0.508824">
        <ele>806.9</ele>
        <time>2021-08-10T12:09:55.175Z</time>
      </trkpt>
      <trkpt lat="40.035449" lon="-0.508696">
        <ele>809.0</ele>
        <time>2021-08-10T12:10:10.550Z</time>
      </trkpt>
      <trkpt lat="40.035198" lon="-0.508594">
        <ele>812.6</ele>
        <time>2021-08-10T12:10:38.984Z</time>
      </trkpt>
      <trkpt lat="40.035092" lon="-0.508424">
        <ele>815.0</ele>
        <time>2021-08-10T12:10:53.397Z</time>
      </trkpt>
      <trkpt lat="40.035094" lon="-0.508361">
        <ele>815.7</ele>
        <time>2021-08-10T12:11:00.432Z</time>
      </trkpt>
      <trkpt lat="40.035113" lon="-0.508327">
        <ele>816.1</ele>
        <time>2021-08-10T12:11:05.168Z</time>
      </trkpt>
      <trkpt lat="40.035332" lon="-0.508072">
        <ele>820.3</ele>
        <time>2021-08-10T12:11:31.579Z</time>
      </trkpt>
      <trkpt lat="40.035434" lon="-0.507670">
        <ele>824.9</ele>
        <time>2021-08-10T12:12:05.968Z</time>
      </trkpt>
      <trkpt lat="40.035564" lon="-0.507493">
        <ele>827.6</ele>
        <time>2021-08-10T12:12:29.155Z</time>
      </trkpt>
      <trkpt lat="40.035627" lon="-0.507227">
        <ele>830.7</ele>
        <time>2021-08-10T12:12:49.735Z</time>
      </trkpt>
      <trkpt lat="40.035801" lon="-0.507024">
        <ele>834.0</ele>
        <time>2021-08-10T12:13:15.646Z</time>
      </trkpt>
      <trkpt lat="40.035863" lon="-0.506825">
        <ele>836.0</ele>
        <time>2021-08-10T12:13:34.481Z</time>
      </trkpt>
      <trkpt lat="40.035908" lon="-0.506561">
        <ele>838.1</ele>
        <time>2021-08-10T12:13:55.379Z</time>
      </trkpt>
      <trkpt lat="40.035871" lon="-0.506070">
        <ele>841.8</ele>
        <time>2021-08-10T12:14:27.841Z</time>
      </trkpt>
      <trkpt lat="40.035706" lon="-0.505568">
        <ele>845.9</ele>
        <time>2021-08-10T12:15:01.540Z</time>
      </trkpt>
      <trkpt lat="40.035876" lon="-0.504972">
        <ele>850.7</ele>
        <time>2021-08-10T12:15:36.334Z</time>
      </trkpt>
      <trkpt lat="40.035910" lon="-0.504915">
        <ele>851.2</ele>
        <time>2021-08-10T12:15:40.516Z</time>
      </trkpt>
      <trkpt lat="40.035963" lon="-0.504969">
        <ele>851.9</ele>
        <time>2021-08-10T12:15:44.571Z</time>
      </trkpt>
      <trkpt lat="40.036002" lon="-0.505060">
        <ele>852.7</ele>
        <time>2021-08-10T12:15:49.644Z</time>
      </trkpt>
      <trkpt lat="40.036247" lon="-0.504805">
        <ele>853.9</ele>
        <time>2021-08-10T12:16:08.418Z</time>
      </trkpt>
      <trkpt lat="40.036511" lon="-0.504754">
        <ele>854.7</ele>
        <time>2021-08-10T12:16:23.115Z</time>
      </trkpt>
      <trkpt lat="40.036708" lon="-0.504602">
        <ele>855.5</ele>
        <time>2021-08-10T12:16:34.057Z</time>
      </trkpt>
      <trkpt lat="40.036859" lon="-0.504266">
        <ele>856.4</ele>
        <time>2021-08-10T12:16:47.550Z</time>
      </trkpt>
      <trkpt lat="40.036916" lon="-0.503755">
        <ele>857.7</ele>
        <time>2021-08-10T12:17:03.864Z</time>
      </trkpt>
      <trkpt lat="40.037036" lon="-0.503336">
        <ele>858.7</ele>
        <time>2021-08-10T12:17:16.746Z</time>
      </trkpt>
      <trkpt lat="40.037617" lon="-0.503291">
        <ele>858.5</ele>
        <time>2021-08-10T12:17:36.182Z</time>
      </trkpt>
      <trkpt lat="40.038453" lon="-0.503430">
        <ele>858.1</ele>
        <time>2021-08-10T12:18:01.572Z</time>
      </trkpt>
      <trkpt lat="40.039000" lon="-0.503312">
        <ele>857.4</ele>
        <time>2021-08-10T12:18:17.193Z</time>
      </trkpt>
      <trkpt lat="40.039432" lon="-0.503288">
        <ele>855.9</ele>
        <time>2021-08-10T12:18:28.930Z</time>
      </trkpt>
      <trkpt lat="40.039536" lon="-0.503414">
        <ele>855.5</ele>
        <time>2021-08-10T12:18:32.680Z</time>
      </trkpt>
      <trkpt lat="40.039483" lon="-0.504013">
        <ele>853.9</ele>
        <time>2021-08-10T12:18:44.528Z</time>
      </trkpt>
      <trkpt lat="40.039614" lon="-0.504970">
        <ele>851.0</ele>
        <time>2021-08-10T12:19:02.641Z</time>
      </trkpt>
      <trkpt lat="40.039724" lon="-0.505062">
        <ele>850.3</ele>
        <time>2021-08-10T12:19:05.711Z</time>
      </trkpt>
      <trkpt lat="40.040171" lon="-0.505033">
        <ele>847.6</ele>
        <time>2021-08-10T12:19:16.114Z</time>
      </trkpt>
      <trkpt lat="40.040870" lon="-0.504511">
        <ele>842.7</ele>
        <time>2021-08-10T12:19:34.647Z</time>
      </trkpt>
      <trkpt lat="40.041074" lon="-0.504230">
        <ele>841.0</ele>
        <time>2021-08-10T12:19:41.504Z</time>
      </trkpt>
      <trkpt lat="40.041518" lon="-0.503793">
        <ele>837.7</ele>
        <time>2021-08-10T12:19:54.573Z</time>
      </trkpt>
      <trkpt lat="40.041518" lon="-0.503793">
        <ele>837.7</ele>
        <time>2021-08-10T12:19:54.590Z</time>
      </trkpt>
      <trkpt lat="40.041759" lon="-0.503292">
        <ele>835.0</ele>
        <time>2021-08-10T12:20:05.341Z</time>
      </trkpt>
      <trkpt lat="40.041915" lon="-0.503157">
        <ele>833.9</ele>
        <time>2021-08-10T12:20:09.819Z</time>
      </trkpt>
      <trkpt lat="40.042123" lon="-0.503095">
        <ele>832.6</ele>
        <time>2021-08-10T12:20:14.820Z</time>
      </trkpt>
      <trkpt lat="40.042571" lon="-0.503127">
        <ele>829.7</ele>
        <time>2021-08-10T12:20:25.412Z</time>
      </trkpt>
      <trkpt lat="40.042679" lon="-0.503182">
        <ele>828.7</ele>
        <time>2021-08-10T12:20:28.025Z</time>
      </trkpt>
      <trkpt lat="40.043204" lon="-0.503176">
        <ele>824.3</ele>
        <time>2021-08-10T12:20:40.023Z</time>
      </trkpt>
      <trkpt lat="40.043343" lon="-0.503279">
        <ele>823.0</ele>
        <time>2021-08-10T12:20:43.567Z</time>
      </trkpt>
      <trkpt lat="40.043475" lon="-0.503585">
        <ele>820.7</ele>
        <time>2021-08-10T12:20:49.528Z</time>
      </trkpt>
      <trkpt lat="40.043600" lon="-0.503527">
        <ele>819.6</ele>
        <time>2021-08-10T12:20:52.369Z</time>
      </trkpt>
      <trkpt lat="40.043859" lon="-0.503627">
        <ele>817.3</ele>
        <time>2021-08-10T12:20:58.187Z</time>
      </trkpt>
      <trkpt lat="40.044119" lon="-0.503600">
        <ele>815.0</ele>
        <time>2021-08-10T12:21:03.670Z</time>
      </trkpt>
      <trkpt lat="40.044461" lon="-0.503746">
        <ele>810.9</ele>
        <time>2021-08-10T12:21:11.250Z</time>
      </trkpt>
      <trkpt lat="40.044665" lon="-0.503984">
        <ele>807.7</ele>
        <time>2021-08-10T12:21:16.970Z</time>
      </trkpt>
      <trkpt lat="40.044927" lon="-0.504104">
        <ele>804.5</ele>
        <time>2021-08-10T12:21:22.767Z</time>
      </trkpt>
      <trkpt lat="40.044978" lon="-0.504352">
        <ele>802.2</ele>
        <time>2021-08-10T12:21:26.886Z</time>
      </trkpt>
      <trkpt lat="40.045024" lon="-0.504395">
        <ele>801.5</ele>
        <time>2021-08-10T12:21:28.066Z</time>
      </trkpt>
      <trkpt lat="40.045622" lon="-0.504481">
        <ele>794.6</ele>
        <time>2021-08-10T12:21:40.740Z</time>
      </trkpt>
      <trkpt lat="40.046415" lon="-0.504733">
        <ele>784.4</ele>
        <time>2021-08-10T12:21:57.680Z</time>
      </trkpt>
      <trkpt lat="40.046575" lon="-0.504821">
        <ele>782.2</ele>
        <time>2021-08-10T12:22:01.243Z</time>
      </trkpt>
      <trkpt lat="40.046868" lon="-0.505209">
        <ele>777.0</ele>
        <time>2021-08-10T12:22:09.908Z</time>
      </trkpt>
      <trkpt lat="40.047184" lon="-0.505372">
        <ele>772.8</ele>
        <time>2021-08-10T12:22:16.932Z</time>
      </trkpt>
      <trkpt lat="40.047286" lon="-0.505366">
        <ele>771.5</ele>
        <time>2021-08-10T12:22:19.034Z</time>
      </trkpt>
      <trkpt lat="40.047303" lon="-0.505610">
        <ele>769.2</ele>
        <time>2021-08-10T12:22:22.887Z</time>
      </trkpt>
      <trkpt lat="40.047277" lon="-0.506045">
        <ele>765.0</ele>
        <time>2021-08-10T12:22:29.855Z</time>
      </trkpt>
      <trkpt lat="40.047220" lon="-0.506175">
        <ele>763.6</ele>
        <time>2021-08-10T12:22:32.305Z</time>
      </trkpt>
      <trkpt lat="40.046955" lon="-0.506216">
        <ele>760.3</ele>
        <time>2021-08-10T12:22:37.748Z</time>
      </trkpt>
      <trkpt lat="40.047286" lon="-0.506357">
        <ele>756.0</ele>
        <time>2021-08-10T12:22:44.894Z</time>
      </trkpt>
      <trkpt lat="40.047309" lon="-0.506513">
        <ele>754.5</ele>
        <time>2021-08-10T12:22:47.411Z</time>
      </trkpt>
      <trkpt lat="40.047572" lon="-0.506789">
        <ele>750.3</ele>
        <time>2021-08-10T12:22:54.377Z</time>
      </trkpt>
      <trkpt lat="40.047741" lon="-0.506854">
        <ele>748.8</ele>
        <time>2021-08-10T12:22:58.248Z</time>
      </trkpt>
      <trkpt lat="40.047972" lon="-0.506832">
        <ele>747.0</ele>
        <time>2021-08-10T12:23:03.291Z</time>
      </trkpt>
      <trkpt lat="40.048233" lon="-0.506857">
        <ele>745.1</ele>
        <time>2021-08-10T12:23:09.166Z</time>
      </trkpt>
      <trkpt lat="40.048167" lon="-0.506913">
        <ele>744.5</ele>
        <time>2021-08-10T12:23:10.855Z</time>
      </trkpt>
      <trkpt lat="40.047958" lon="-0.507042">
        <ele>742.7</ele>
        <time>2021-08-10T12:23:16.156Z</time>
      </trkpt>
      <trkpt lat="40.047916" lon="-0.507247">
        <ele>741.5</ele>
        <time>2021-08-10T12:23:19.802Z</time>
      </trkpt>
      <trkpt lat="40.047942" lon="-0.507349">
        <ele>740.8</ele>
        <time>2021-08-10T12:23:21.750Z</time>
      </trkpt>
      <trkpt lat="40.048544" lon="-0.507662">
        <ele>736.0</ele>
        <time>2021-08-10T12:23:36.867Z</time>
      </trkpt>
      <trkpt lat="40.048769" lon="-0.508119">
        <ele>733.9</ele>
        <time>2021-08-10T12:23:46.851Z</time>
      </trkpt>
      <trkpt lat="40.049049" lon="-0.508413">
        <ele>732.1</ele>
        <time>2021-08-10T12:23:55.824Z</time>
      </trkpt>
      <trkpt lat="40.049105" lon="-0.508625">
        <ele>731.3</ele>
        <time>2021-08-10T12:24:00.085Z</time>
      </trkpt>
      <trkpt lat="40.049098" lon="-0.509094">
        <ele>729.5</ele>
        <time>2021-08-10T12:24:08.846Z</time>
      </trkpt>
      <trkpt lat="40.049284" lon="-0.509748">
        <ele>726.9</ele>
        <time>2021-08-10T12:24:21.598Z</time>
      </trkpt>
      <trkpt lat="40.049332" lon="-0.509853">
        <ele>726.5</ele>
        <time>2021-08-10T12:24:23.816Z</time>
      </trkpt>
      <trkpt lat="40.049564" lon="-0.510060">
        <ele>725.3</ele>
        <time>2021-08-10T12:24:30.436Z</time>
      </trkpt>
      <trkpt lat="40.049656" lon="-0.510366">
        <ele>724.2</ele>
        <time>2021-08-10T12:24:36.438Z</time>
      </trkpt>
      <trkpt lat="40.049949" lon="-0.510365">
        <ele>723.0</ele>
        <time>2021-08-10T12:24:43.452Z</time>
      </trkpt>
      <trkpt lat="40.050133" lon="-0.510496">
        <ele>722.1</ele>
        <time>2021-08-10T12:24:48.514Z</time>
      </trkpt>
      <trkpt lat="40.050496" lon="-0.510404">
        <ele>720.5</ele>
        <time>2021-08-10T12:24:57.792Z</time>
      </trkpt>
      <trkpt lat="40.050781" lon="-0.510456">
        <ele>719.8</ele>
        <time>2021-08-10T12:25:05.598Z</time>
      </trkpt>
      <trkpt lat="40.051028" lon="-0.510308">
        <ele>720.4</ele>
        <time>2021-08-10T12:25:13.696Z</time>
      </trkpt>
      <trkpt lat="40.051169" lon="-0.510307">
        <ele>720.7</ele>
        <time>2021-08-10T12:25:18.141Z</time>
      </trkpt>
      <trkpt lat="40.051493" lon="-0.510534">
        <ele>721.4</ele>
        <time>2021-08-10T12:25:33.368Z</time>
      </trkpt>
      <trkpt lat="40.051865" lon="-0.510682">
        <ele>722.2</ele>
        <time>2021-08-10T12:25:52.890Z</time>
      </trkpt>
      <trkpt lat="40.051977" lon="-0.510831">
        <ele>722.5</ele>
        <time>2021-08-10T12:26:01.549Z</time>
      </trkpt>
      <trkpt lat="40.052109" lon="-0.511359">
        <ele>723.4</ele>
        <time>2021-08-10T12:26:25.045Z</time>
      </trkpt>
      <trkpt lat="40.052241" lon="-0.511645">
        <ele>724.1</ele>
        <time>2021-08-10T12:26:39.118Z</time>
      </trkpt>
      <trkpt lat="40.052265" lon="-0.511845">
        <ele>724.5</ele>
        <time>2021-08-10T12:26:47.883Z</time>
      </trkpt>
      <trkpt lat="40.052186" lon="-0.512348">
        <ele>725.6</ele>
        <time>2021-08-10T12:27:08.907Z</time>
      </trkpt>
      <trkpt lat="40.052266" lon="-0.513778">
        <ele>727.7</ele>
        <time>2021-08-10T12:27:53.179Z</time>
      </trkpt>
      <trkpt lat="40.052330" lon="-0.513812">
        <ele>727.6</ele>
        <time>2021-08-10T12:27:55.082Z</time>
      </trkpt>
      <trkpt lat="40.052622" lon="-0.513625">
        <ele>726.7</ele>
        <time>2021-08-10T12:28:03.859Z</time>
      </trkpt>
      <trkpt lat="40.052807" lon="-0.513604">
        <ele>726.2</ele>
        <time>2021-08-10T12:28:08.617Z</time>
      </trkpt>
      <trkpt lat="40.053296" lon="-0.513791">
        <ele>724.9</ele>
        <time>2021-08-10T12:28:21.613Z</time>
      </trkpt>
      <trkpt lat="40.053340" lon="-0.513898">
        <ele>724.7</ele>
        <time>2021-08-10T12:28:23.976Z</time>
      </trkpt>
      <trkpt lat="40.053094" lon="-0.514796">
        <ele>722.2</ele>
        <time>2021-08-10T12:28:42.379Z</time>
      </trkpt>
      <trkpt lat="40.052900" lon="-0.515255">
        <ele>720.1</ele>
        <time>2021-08-10T12:28:52.233Z</time>
      </trkpt>
      <trkpt lat="40.052610" lon="-0.515354">
        <ele>718.6</ele>
        <time>2021-08-10T12:28:59.480Z</time>
      </trkpt>
      <trkpt lat="40.052395" lon="-0.515934">
        <ele>716.0</ele>
        <time>2021-08-10T12:29:11.175Z</time>
      </trkpt>
      <trkpt lat="40.052241" lon="-0.516174">
        <ele>714.8</ele>
        <time>2021-08-10T12:29:16.761Z</time>
      </trkpt>
      <trkpt lat="40.052123" lon="-0.516259">
        <ele>714.0</ele>
        <time>2021-08-10T12:29:19.882Z</time>
      </trkpt>
      <trkpt lat="40.051821" lon="-0.516337">
        <ele>711.3</ele>
        <time>2021-08-10T12:29:26.924Z</time>
      </trkpt>
      <trkpt lat="40.051815" lon="-0.516433">
        <ele>710.7</ele>
        <time>2021-08-10T12:29:28.600Z</time>
      </trkpt>
      <trkpt lat="40.051929" lon="-0.516648">
        <ele>709.0</ele>
        <time>2021-08-10T12:29:33.101Z</time>
      </trkpt>
      <trkpt lat="40.051894" lon="-0.517057">
        <ele>706.2</ele>
        <time>2021-08-10T12:29:40.056Z</time>
      </trkpt>
      <trkpt lat="40.052001" lon="-0.517137">
        <ele>705.2</ele>
        <time>2021-08-10T12:29:42.758Z</time>
      </trkpt>
      <trkpt lat="40.052381" lon="-0.517196">
        <ele>701.8</ele>
        <time>2021-08-10T12:29:50.983Z</time>
      </trkpt>
      <trkpt lat="40.052846" lon="-0.517419">
        <ele>697.5</ele>
        <time>2021-08-10T12:30:01.552Z</time>
      </trkpt>
      <trkpt lat="40.053226" lon="-0.517765">
        <ele>693.2</ele>
        <time>2021-08-10T12:30:11.411Z</time>
      </trkpt>
      <trkpt lat="40.053373" lon="-0.517778">
        <ele>691.8</ele>
        <time>2021-08-10T12:30:14.569Z</time>
      </trkpt>
      <trkpt lat="40.053502" lon="-0.517639">
        <ele>690.3</ele>
        <time>2021-08-10T12:30:18.169Z</time>
      </trkpt>
      <trkpt lat="40.053578" lon="-0.517648">
        <ele>689.6</ele>
        <time>2021-08-10T12:30:19.815Z</time>
      </trkpt>
      <trkpt lat="40.054084" lon="-0.518093">
        <ele>683.9</ele>
        <time>2021-08-10T12:30:33.181Z</time>
      </trkpt>
      <trkpt lat="40.054376" lon="-0.518279">
        <ele>681.3</ele>
        <time>2021-08-10T12:30:40.466Z</time>
      </trkpt>
      <trkpt lat="40.054650" lon="-0.518276">
        <ele>679.9</ele>
        <time>2021-08-10T12:30:46.693Z</time>
      </trkpt>
      <trkpt lat="40.054981" lon="-0.518190">
        <ele>678.2</ele>
        <time>2021-08-10T12:30:54.560Z</time>
      </trkpt>
      <trkpt lat="40.055050" lon="-0.518203">
        <ele>677.9</ele>
        <time>2021-08-10T12:30:56.233Z</time>
      </trkpt>
      <trkpt lat="40.055169" lon="-0.518342">
        <ele>677.1</ele>
        <time>2021-08-10T12:31:00.097Z</time>
      </trkpt>
      <trkpt lat="40.055464" lon="-0.518246">
        <ele>675.5</ele>
        <time>2021-08-10T12:31:07.572Z</time>
      </trkpt>
      <trkpt lat="40.055704" lon="-0.518313">
        <ele>674.3</ele>
        <time>2021-08-10T12:31:13.799Z</time>
      </trkpt>
      <trkpt lat="40.055784" lon="-0.518448">
        <ele>673.6</ele>
        <time>2021-08-10T12:31:17.243Z</time>
      </trkpt>
      <trkpt lat="40.055796" lon="-0.518611">
        <ele>673.0</ele>
        <time>2021-08-10T12:31:20.620Z</time>
      </trkpt>
      <trkpt lat="40.055485" lon="-0.519775">
        <ele>669.3</ele>
        <time>2021-08-10T12:31:45.360Z</time>
      </trkpt>
      <trkpt lat="40.055293" lon="-0.520126">
        <ele>668.1</ele>
        <time>2021-08-10T12:31:53.632Z</time>
      </trkpt>
      <trkpt lat="40.054996" lon="-0.520352">
        <ele>666.8</ele>
        <time>2021-08-10T12:32:02.157Z</time>
      </trkpt>
      <trkpt lat="40.054919" lon="-0.520368">
        <ele>666.5</ele>
        <time>2021-08-10T12:32:04.131Z</time>
      </trkpt>
      <trkpt lat="40.054953" lon="-0.520449">
        <ele>666.2</ele>
        <time>2021-08-10T12:32:05.666Z</time>
      </trkpt>
      <trkpt lat="40.054981" lon="-0.520494">
        <ele>666.1</ele>
        <time>2021-08-10T12:32:06.776Z</time>
      </trkpt>
      <trkpt lat="40.055132" lon="-0.520465">
        <ele>664.8</ele>
        <time>2021-08-10T12:32:10.656Z</time>
      </trkpt>
      <trkpt lat="40.055247" lon="-0.520550">
        <ele>663.6</ele>
        <time>2021-08-10T12:32:13.756Z</time>
      </trkpt>
      <trkpt lat="40.055519" lon="-0.520433">
        <ele>660.9</ele>
        <time>2021-08-10T12:32:20.699Z</time>
      </trkpt>
      <trkpt lat="40.055736" lon="-0.520162">
        <ele>658.2</ele>
        <time>2021-08-10T12:32:27.119Z</time>
      </trkpt>
      <trkpt lat="40.056011" lon="-0.519992">
        <ele>655.3</ele>
        <time>2021-08-10T12:32:33.661Z</time>
      </trkpt>
      <trkpt lat="40.056472" lon="-0.520251">
        <ele>650.7</ele>
        <time>2021-08-10T12:32:44.161Z</time>
      </trkpt>
      <trkpt lat="40.056574" lon="-0.520186">
        <ele>649.6</ele>
        <time>2021-08-10T12:32:46.640Z</time>
      </trkpt>
      <trkpt lat="40.056825" lon="-0.519855">
        <ele>644.3</ele>
        <time>2021-08-10T12:32:53.991Z</time>
      </trkpt>
      <trkpt lat="40.056834" lon="-0.519770">
        <ele>643.3</ele>
        <time>2021-08-10T12:32:55.297Z</time>
      </trkpt>
      <trkpt lat="40.056853" lon="-0.519665">
        <ele>642.0</ele>
        <time>2021-08-10T12:32:56.918Z</time>
      </trkpt>
      <trkpt lat="40.057104" lon="-0.519422">
        <ele>637.1</ele>
        <time>2021-08-10T12:33:03.293Z</time>
      </trkpt>
      <trkpt lat="40.057527" lon="-0.519204">
        <ele>629.9</ele>
        <time>2021-08-10T12:33:12.397Z</time>
      </trkpt>
      <trkpt lat="40.057757" lon="-0.518739">
        <ele>623.3</ele>
        <time>2021-08-10T12:33:20.819Z</time>
      </trkpt>
      <trkpt lat="40.057893" lon="-0.518561">
        <ele>620.2</ele>
        <time>2021-08-10T12:33:24.597Z</time>
      </trkpt>
      <trkpt lat="40.058050" lon="-0.518618">
        <ele>617.5</ele>
        <time>2021-08-10T12:33:27.809Z</time>
      </trkpt>
      <trkpt lat="40.058388" lon="-0.518597">
        <ele>611.8</ele>
        <time>2021-08-10T12:33:34.542Z</time>
      </trkpt>
      <trkpt lat="40.058592" lon="-0.518331">
        <ele>606.9</ele>
        <time>2021-08-10T12:33:40.293Z</time>
      </trkpt>
      <trkpt lat="40.058945" lon="-0.518181">
        <ele>600.7</ele>
        <time>2021-08-10T12:33:47.671Z</time>
      </trkpt>
      <trkpt lat="40.059146" lon="-0.517874">
        <ele>595.5</ele>
        <time>2021-08-10T12:33:53.855Z</time>
      </trkpt>
      <trkpt lat="40.059428" lon="-0.517930">
        <ele>590.7</ele>
        <time>2021-08-10T12:33:59.578Z</time>
      </trkpt>
      <trkpt lat="40.059582" lon="-0.517886">
        <ele>588.5</ele>
        <time>2021-08-10T12:34:02.775Z</time>
      </trkpt>
      <trkpt lat="40.059681" lon="-0.517809">
        <ele>586.9</ele>
        <time>2021-08-10T12:34:05.093Z</time>
      </trkpt>
      <trkpt lat="40.059932" lon="-0.517409">
        <ele>581.4</ele>
        <time>2021-08-10T12:34:13.163Z</time>
      </trkpt>
      <trkpt lat="40.060152" lon="-0.517215">
        <ele>577.6</ele>
        <time>2021-08-10T12:34:18.645Z</time>
      </trkpt>
      <trkpt lat="40.060529" lon="-0.517005">
        <ele>571.9</ele>
        <time>2021-08-10T12:34:27.076Z</time>
      </trkpt>
      <trkpt lat="40.060780" lon="-0.517037">
        <ele>568.4</ele>
        <time>2021-08-10T12:34:32.286Z</time>
      </trkpt>
      <trkpt lat="40.060925" lon="-0.516992">
        <ele>566.3</ele>
        <time>2021-08-10T12:34:35.313Z</time>
      </trkpt>
      <trkpt lat="40.061031" lon="-0.517097">
        <ele>564.6</ele>
        <time>2021-08-10T12:34:37.946Z</time>
      </trkpt>
      <trkpt lat="40.061049" lon="-0.517267">
        <ele>563.0</ele>
        <time>2021-08-10T12:34:40.869Z</time>
      </trkpt>
      <trkpt lat="40.061120" lon="-0.517368">
        <ele>561.7</ele>
        <time>2021-08-10T12:34:42.967Z</time>
      </trkpt>
      <trkpt lat="40.061247" lon="-0.517429">
        <ele>560.0</ele>
        <time>2021-08-10T12:34:45.706Z</time>
      </trkpt>
      <trkpt lat="40.061433" lon="-0.517425">
        <ele>557.7</ele>
        <time>2021-08-10T12:34:49.762Z</time>
      </trkpt>
      <trkpt lat="40.061541" lon="-0.517372">
        <ele>556.3</ele>
        <time>2021-08-10T12:34:52.055Z</time>
      </trkpt>
      <trkpt lat="40.061578" lon="-0.517382">
        <ele>555.9</ele>
        <time>2021-08-10T12:34:52.793Z</time>
      </trkpt>
      <trkpt lat="40.061771" lon="-0.517251">
        <ele>553.2</ele>
        <time>2021-08-10T12:34:57.585Z</time>
      </trkpt>
      <trkpt lat="40.061977" lon="-0.517334">
        <ele>550.6</ele>
        <time>2021-08-10T12:35:02.011Z</time>
      </trkpt>
      <trkpt lat="40.062052" lon="-0.517281">
        <ele>549.5</ele>
        <time>2021-08-10T12:35:03.975Z</time>
      </trkpt>
      <trkpt lat="40.062081" lon="-0.517217">
        <ele>548.8</ele>
        <time>2021-08-10T12:35:05.149Z</time>
      </trkpt>
      <trkpt lat="40.062134" lon="-0.517255">
        <ele>548.1</ele>
        <time>2021-08-10T12:35:05.850Z</time>
      </trkpt>
      <trkpt lat="40.062472" lon="-0.517770">
        <ele>541.9</ele>
        <time>2021-08-10T12:35:12.394Z</time>
      </trkpt>
      <trkpt lat="40.062551" lon="-0.518009">
        <ele>539.8</ele>
        <time>2021-08-10T12:35:14.839Z</time>
      </trkpt>
      <trkpt lat="40.062552" lon="-0.518174">
        <ele>538.5</ele>
        <time>2021-08-10T12:35:16.425Z</time>
      </trkpt>
      <trkpt lat="40.062517" lon="-0.518346">
        <ele>537.0</ele>
        <time>2021-08-10T12:35:18.241Z</time>
      </trkpt>
      <trkpt lat="40.062156" lon="-0.518901">
        <ele>531.1</ele>
        <time>2021-08-10T12:35:25.204Z</time>
      </trkpt>
      <trkpt lat="40.062070" lon="-0.519445">
        <ele>526.5</ele>
        <time>2021-08-10T12:35:30.728Z</time>
      </trkpt>
      <trkpt lat="40.062355" lon="-0.519782">
        <ele>522.3</ele>
        <time>2021-08-10T12:35:35.612Z</time>
      </trkpt>
      <trkpt lat="40.062575" lon="-0.520298">
        <ele>517.0</ele>
        <time>2021-08-10T12:35:41.304Z</time>
      </trkpt>
      <trkpt lat="40.063093" lon="-0.520709">
        <ele>510.0</ele>
        <time>2021-08-10T12:35:48.863Z</time>
      </trkpt>
      <trkpt lat="40.063420" lon="-0.520652">
        <ele>506.2</ele>
        <time>2021-08-10T12:35:52.952Z</time>
      </trkpt>
      <trkpt lat="40.063638" lon="-0.520699">
        <ele>503.6</ele>
        <time>2021-08-10T12:35:55.707Z</time>
      </trkpt>
      <trkpt lat="40.063760" lon="-0.520813">
        <ele>501.8</ele>
        <time>2021-08-10T12:35:57.485Z</time>
      </trkpt>
      <trkpt lat="40.064011" lon="-0.521223">
        <ele>496.8</ele>
        <time>2021-08-10T12:36:02.398Z</time>
      </trkpt>
      <trkpt lat="40.064282" lon="-0.521245">
        <ele>493.5</ele>
        <time>2021-08-10T12:36:05.687Z</time>
      </trkpt>
      <trkpt lat="40.064854" lon="-0.521697">
        <ele>485.2</ele>
        <time>2021-08-10T12:36:14.055Z</time>
      </trkpt>
      <trkpt lat="40.064880" lon="-0.521689">
        <ele>484.9</ele>
        <time>2021-08-10T12:36:14.372Z</time>
      </trkpt>
      <trkpt lat="40.064906" lon="-0.521688">
        <ele>484.6</ele>
        <time>2021-08-10T12:36:14.682Z</time>
      </trkpt>
      <trkpt lat="40.065809" lon="-0.522199">
        <ele>475.3</ele>
        <time>2021-08-10T12:36:27.273Z</time>
      </trkpt>
      <trkpt lat="40.065935" lon="-0.522437">
        <ele>473.4</ele>
        <time>2021-08-10T12:36:30.135Z</time>
      </trkpt>
      <trkpt lat="40.065995" lon="-0.522471">
        <ele>472.9</ele>
        <time>2021-08-10T12:36:31.087Z</time>
      </trkpt>
      <trkpt lat="40.066042" lon="-0.522422">
        <ele>472.4</ele>
        <time>2021-08-10T12:36:31.833Z</time>
      </trkpt>
      <trkpt lat="40.066071" lon="-0.522469">
        <ele>472.0</ele>
        <time>2021-08-10T12:36:33.159Z</time>
      </trkpt>
      <trkpt lat="40.066151" lon="-0.522763">
        <ele>470.0</ele>
        <time>2021-08-10T12:36:38.231Z</time>
      </trkpt>
      <trkpt lat="40.066023" lon="-0.523083">
        <ele>467.6</ele>
        <time>2021-08-10T12:36:44.705Z</time>
      </trkpt>
      <trkpt lat="40.066039" lon="-0.523215">
        <ele>466.8</ele>
        <time>2021-08-10T12:36:47.249Z</time>
      </trkpt>
      <trkpt lat="40.066459" lon="-0.524258">
        <ele>462.7</ele>
        <time>2021-08-10T12:37:09.119Z</time>
      </trkpt>
      <trkpt lat="40.066545" lon="-0.524299">
        <ele>462.3</ele>
        <time>2021-08-10T12:37:11.163Z</time>
      </trkpt>
      <trkpt lat="40.066573" lon="-0.524274">
        <ele>462.2</ele>
        <time>2021-08-10T12:37:12.137Z</time>
      </trkpt>
      <trkpt lat="40.066702" lon="-0.524278">
        <ele>461.6</ele>
        <time>2021-08-10T12:37:15.654Z</time>
      </trkpt>
      <trkpt lat="40.066725" lon="-0.524262">
        <ele>461.5</ele>
        <time>2021-08-10T12:37:16.340Z</time>
      </trkpt>
      <trkpt lat="40.066769" lon="-0.524225">
        <ele>461.3</ele>
        <time>2021-08-10T12:37:17.458Z</time>
      </trkpt>
      <trkpt lat="40.066799" lon="-0.524171">
        <ele>461.1</ele>
        <time>2021-08-10T12:37:18.401Z</time>
      </trkpt>
      <trkpt lat="40.066755" lon="-0.524042">
        <ele>460.6</ele>
        <time>2021-08-10T12:37:21.028Z</time>
      </trkpt>
      <trkpt lat="40.066701" lon="-0.523298">
        <ele>458.5</ele>
        <time>2021-08-10T12:37:36.249Z</time>
      </trkpt>
      <trkpt lat="40.066591" lon="-0.523064">
        <ele>458.1</ele>
        <time>2021-08-10T12:37:41.550Z</time>
      </trkpt>
      <trkpt lat="40.066573" lon="-0.522924">
        <ele>457.9</ele>
        <time>2021-08-10T12:37:44.603Z</time>
      </trkpt>
      <trkpt lat="40.066616" lon="-0.521690">
        <ele>456.2</ele>
        <time>2021-08-10T12:38:11.007Z</time>
      </trkpt>
      <trkpt lat="40.066691" lon="-0.521498">
        <ele>455.9</ele>
        <time>2021-08-10T12:38:15.747Z</time>
      </trkpt>
      <trkpt lat="40.067074" lon="-0.521192">
        <ele>455.3</ele>
        <time>2021-08-10T12:38:29.088Z</time>
      </trkpt>
      <trkpt lat="40.067272" lon="-0.520657">
        <ele>455.1</ele>
        <time>2021-08-10T12:38:42.998Z</time>
      </trkpt>
      <trkpt lat="40.067387" lon="-0.520532">
        <ele>455.0</ele>
        <time>2021-08-10T12:38:47.536Z</time>
      </trkpt>
      <trkpt lat="40.067571" lon="-0.520462">
        <ele>454.9</ele>
        <time>2021-08-10T12:38:53.320Z</time>
      </trkpt>
      <trkpt lat="40.067850" lon="-0.520466">
        <ele>454.8</ele>
        <time>2021-08-10T12:39:01.675Z</time>
      </trkpt>
      <trkpt lat="40.068383" lon="-0.520774">
        <ele>454.5</ele>
        <time>2021-08-10T12:39:19.085Z</time>
      </trkpt>
      <trkpt lat="40.069276" lon="-0.521705">
        <ele>455.9</ele>
        <time>2021-08-10T12:39:58.328Z</time>
      </trkpt>
      <trkpt lat="40.069448" lon="-0.521926">
        <ele>456.2</ele>
        <time>2021-08-10T12:40:07.386Z</time>
      </trkpt>
      <trkpt lat="40.069565" lon="-0.522182">
        <ele>456.5</ele>
        <time>2021-08-10T12:40:17.820Z</time>
      </trkpt>
      <trkpt lat="40.069625" lon="-0.522341">
        <ele>456.7</ele>
        <time>2021-08-10T12:40:23.225Z</time>
      </trkpt>
      <trkpt lat="40.069766" lon="-0.522198">
        <ele>457.7</ele>
        <time>2021-08-10T12:40:31.658Z</time>
      </trkpt>
      <trkpt lat="40.069766" lon="-0.522198">
        <ele>457.7</ele>
        <time>2021-08-10T12:40:31.660Z</time>
      </trkpt>
      <trkpt lat="40.069914" lon="-0.522030">
        <ele>458.9</ele>
        <time>2021-08-10T12:40:39.973Z</time>
      </trkpt>
      <trkpt lat="40.070007" lon="-0.521929">
        <ele>459.6</ele>
        <time>2021-08-10T12:40:47.323Z</time>
      </trkpt>
      <trkpt lat="40.070435" lon="-0.521434">
        <ele>463.1</ele>
        <time>2021-08-10T12:41:17.475Z</time>
      </trkpt>
      <trkpt lat="40.070280" lon="-0.521033">
        <ele>465.1</ele>
        <time>2021-08-10T12:41:37.122Z</time>
      </trkpt>
      <trkpt lat="40.070303" lon="-0.520911">
        <ele>465.7</ele>
        <time>2021-08-10T12:41:42.730Z</time>
      </trkpt>
      <trkpt lat="40.070507" lon="-0.520631">
        <ele>467.5</ele>
        <time>2021-08-10T12:42:04.170Z</time>
      </trkpt>
      <trkpt lat="40.070550" lon="-0.520682">
        <ele>468.1</ele>
        <time>2021-08-10T12:42:07.915Z</time>
      </trkpt>
      <trkpt lat="40.070794" lon="-0.520994">
        <ele>471.6</ele>
        <time>2021-08-10T12:42:32.134Z</time>
      </trkpt>
      <trkpt lat="40.070979" lon="-0.521144">
        <ele>473.9</ele>
        <time>2021-08-10T12:42:46.195Z</time>
      </trkpt>
      <trkpt lat="40.071193" lon="-0.521455">
        <ele>477.3</ele>
        <time>2021-08-10T12:43:08.885Z</time>
      </trkpt>
      <trkpt lat="40.071480" lon="-0.521615">
        <ele>480.6</ele>
        <time>2021-08-10T12:43:35.062Z</time>
      </trkpt>
      <trkpt lat="40.071558" lon="-0.521657">
        <ele>481.5</ele>
        <time>2021-08-10T12:43:42.661Z</time>
      </trkpt>
      <trkpt lat="40.071663" lon="-0.521713">
        <ele>482.7</ele>
        <time>2021-08-10T12:43:51.069Z</time>
      </trkpt>
      <trkpt lat="40.071737" lon="-0.521800">
        <ele>483.7</ele>
        <time>2021-08-10T12:43:57.450Z</time>
      </trkpt>
      <trkpt lat="40.071817" lon="-0.522096">
        <ele>486.2</ele>
        <time>2021-08-10T12:44:21.172Z</time>
      </trkpt>
      <trkpt lat="40.071942" lon="-0.522332">
        <ele>489.2</ele>
        <time>2021-08-10T12:44:39.466Z</time>
      </trkpt>
      <trkpt lat="40.072142" lon="-0.522513">
        <ele>492.6</ele>
        <time>2021-08-10T12:44:59.005Z</time>
      </trkpt>
      <trkpt lat="40.072188" lon="-0.522524">
        <ele>493.3</ele>
        <time>2021-08-10T12:45:05.293Z</time>
      </trkpt>
      <trkpt lat="40.072491" lon="-0.522534">
        <ele>497.5</ele>
        <time>2021-08-10T12:45:30.931Z</time>
      </trkpt>
      <trkpt lat="40.072557" lon="-0.522538">
        <ele>498.4</ele>
        <time>2021-08-10T12:45:39.347Z</time>
      </trkpt>
      <trkpt lat="40.072855" lon="-0.522592">
        <ele>502.6</ele>
        <time>2021-08-10T12:46:05.276Z</time>
      </trkpt>
      <trkpt lat="40.072961" lon="-0.522523">
        <ele>504.3</ele>
        <time>2021-08-10T12:46:17.984Z</time>
      </trkpt>
      <trkpt lat="40.073001" lon="-0.522497">
        <ele>504.9</ele>
        <time>2021-08-10T12:46:23.935Z</time>
      </trkpt>
      <trkpt lat="40.073141" lon="-0.522453">
        <ele>506.9</ele>
        <time>2021-08-10T12:46:32.025Z</time>
      </trkpt>
      <trkpt lat="40.073340" lon="-0.522196">
        <ele>510.8</ele>
        <time>2021-08-10T12:46:59.047Z</time>
      </trkpt>
      <trkpt lat="40.073598" lon="-0.522027">
        <ele>514.1</ele>
        <time>2021-08-10T12:47:26.139Z</time>
      </trkpt>
      <trkpt lat="40.074124" lon="-0.522012">
        <ele>520.0</ele>
        <time>2021-08-10T12:48:04.518Z</time>
      </trkpt>
      <trkpt lat="40.074363" lon="-0.521922">
        <ele>522.8</ele>
        <time>2021-08-10T12:48:23.792Z</time>
      </trkpt>
      <trkpt lat="40.074789" lon="-0.522330">
        <ele>528.7</ele>
        <time>2021-08-10T12:48:57.859Z</time>
      </trkpt>
      <trkpt lat="40.074928" lon="-0.522781">
        <ele>532.7</ele>
        <time>2021-08-10T12:49:23.554Z</time>
      </trkpt>
      <trkpt lat="40.075389" lon="-0.523253">
        <ele>538.4</ele>
        <time>2021-08-10T12:50:05.960Z</time>
      </trkpt>
      <trkpt lat="40.075572" lon="-0.523271">
        <ele>540.2</ele>
        <time>2021-08-10T12:50:18.148Z</time>
      </trkpt>
      <trkpt lat="40.075678" lon="-0.523267">
        <ele>541.2</ele>
        <time>2021-08-10T12:50:27.616Z</time>
      </trkpt>
      <trkpt lat="40.075947" lon="-0.523344">
        <ele>543.9</ele>
        <time>2021-08-10T12:50:45.354Z</time>
      </trkpt>
      <trkpt lat="40.076332" lon="-0.523712">
        <ele>548.6</ele>
        <time>2021-08-10T12:51:18.416Z</time>
      </trkpt>
      <trkpt lat="40.076878" lon="-0.523926">
        <ele>551.7</ele>
        <time>2021-08-10T12:51:53.726Z</time>
      </trkpt>
      <trkpt lat="40.077118" lon="-0.524283">
        <ele>553.5</ele>
        <time>2021-08-10T12:52:13.156Z</time>
      </trkpt>
      <trkpt lat="40.077232" lon="-0.524235">
        <ele>554.1</ele>
        <time>2021-08-10T12:52:15.494Z</time>
      </trkpt>
      <trkpt lat="40.077375" lon="-0.524030">
        <ele>555.2</ele>
        <time>2021-08-10T12:52:24.855Z</time>
      </trkpt>
      <trkpt lat="40.077461" lon="-0.524074">
        <ele>555.7</ele>
        <time>2021-08-10T12:52:26.349Z</time>
      </trkpt>
      <trkpt lat="40.077464" lon="-0.524460">
        <ele>557.2</ele>
        <time>2021-08-10T12:52:37.515Z</time>
      </trkpt>
      <trkpt lat="40.077340" lon="-0.524708">
        <ele>558.4</ele>
        <time>2021-08-10T12:52:43.229Z</time>
      </trkpt>
      <trkpt lat="40.077206" lon="-0.524838">
        <ele>559.5</ele>
        <time>2021-08-10T12:52:47.536Z</time>
      </trkpt>
      <trkpt lat="40.076903" lon="-0.524960">
        <ele>561.8</ele>
        <time>2021-08-10T12:52:57.360Z</time>
      </trkpt>
      <trkpt lat="40.076817" lon="-0.524977">
        <ele>562.4</ele>
        <time>2021-08-10T12:52:58.846Z</time>
      </trkpt>
      <trkpt lat="40.076724" lon="-0.525025">
        <ele>563.1</ele>
        <time>2021-08-10T12:53:05.104Z</time>
      </trkpt>
      <trkpt lat="40.076376" lon="-0.525206">
        <ele>565.8</ele>
        <time>2021-08-10T12:53:27.051Z</time>
      </trkpt>
      <trkpt lat="40.076350" lon="-0.525293">
        <ele>566.3</ele>
        <time>2021-08-10T12:53:30.087Z</time>
      </trkpt>
      <trkpt lat="40.076385" lon="-0.525372">
        <ele>566.8</ele>
        <time>2021-08-10T12:53:39.408Z</time>
      </trkpt>
      <trkpt lat="40.076819" lon="-0.525345">
        <ele>569.9</ele>
        <time>2021-08-10T12:54:07.232Z</time>
      </trkpt>
      <trkpt lat="40.077139" lon="-0.525179">
        <ele>573.8</ele>
        <time>2021-08-10T12:54:35.130Z</time>
      </trkpt>
      <trkpt lat="40.077223" lon="-0.525129">
        <ele>575.1</ele>
        <time>2021-08-10T12:54:43.131Z</time>
      </trkpt>
      <trkpt lat="40.077272" lon="-0.525092">
        <ele>575.9</ele>
        <time>2021-08-10T12:54:47.710Z</time>
      </trkpt>
      <trkpt lat="40.077346" lon="-0.525068">
        <ele>577.0</ele>
        <time>2021-08-10T12:54:52.622Z</time>
      </trkpt>
      <trkpt lat="40.077368" lon="-0.525068">
        <ele>577.4</ele>
        <time>2021-08-10T12:54:54.617Z</time>
      </trkpt>
      <trkpt lat="40.077417" lon="-0.525065">
        <ele>578.1</ele>
        <time>2021-08-10T12:55:01.911Z</time>
      </trkpt>
      <trkpt lat="40.077843" lon="-0.525084">
        <ele>584.2</ele>
        <time>2021-08-10T12:55:47.765Z</time>
      </trkpt>
      <trkpt lat="40.078396" lon="-0.525192">
        <ele>592.3</ele>
        <time>2021-08-10T12:56:50.762Z</time>
      </trkpt>
      <trkpt lat="40.079397" lon="-0.525710">
        <ele>604.8</ele>
        <time>2021-08-10T12:58:42.408Z</time>
      </trkpt>
      <trkpt lat="40.079447" lon="-0.525828">
        <ele>605.8</ele>
        <time>2021-08-10T12:58:50.798Z</time>
      </trkpt>
      <trkpt lat="40.079437" lon="-0.525994">
        <ele>607.2</ele>
        <time>2021-08-10T12:59:00.191Z</time>
      </trkpt>
      <trkpt lat="40.079198" lon="-0.526528">
        <ele>612.1</ele>
        <time>2021-08-10T12:59:35.682Z</time>
      </trkpt>
      <trkpt lat="40.079227" lon="-0.526752">
        <ele>613.9</ele>
        <time>2021-08-10T12:59:47.619Z</time>
      </trkpt>
      <trkpt lat="40.079285" lon="-0.526854">
        <ele>614.9</ele>
        <time>2021-08-10T12:59:53.215Z</time>
      </trkpt>
      <trkpt lat="40.079376" lon="-0.526998">
        <ele>615.8</ele>
        <time>2021-08-10T13:00:03.428Z</time>
      </trkpt>
      <trkpt lat="40.080180" lon="-0.528247">
        <ele>618.7</ele>
        <time>2021-08-10T13:01:01.930Z</time>
      </trkpt>
      <trkpt lat="40.080526" lon="-0.528900">
        <ele>619.1</ele>
        <time>2021-08-10T13:01:20.181Z</time>
      </trkpt>
      <trkpt lat="40.080719" lon="-0.529868">
        <ele>615.3</ele>
        <time>2021-08-10T13:01:39.439Z</time>
      </trkpt>
      <trkpt lat="40.080678" lon="-0.530116">
        <ele>614.3</ele>
        <time>2021-08-10T13:01:43.980Z</time>
      </trkpt>
      <trkpt lat="40.080206" lon="-0.530542">
        <ele>611.5</ele>
        <time>2021-08-10T13:01:56.949Z</time>
      </trkpt>
      <trkpt lat="40.080069" lon="-0.530850">
        <ele>610.0</ele>
        <time>2021-08-10T13:02:02.992Z</time>
      </trkpt>
      <trkpt lat="40.080006" lon="-0.531112">
        <ele>608.8</ele>
        <time>2021-08-10T13:02:07.697Z</time>
      </trkpt>
      <trkpt lat="40.079961" lon="-0.531300">
        <ele>607.9</ele>
        <time>2021-08-10T13:02:11.042Z</time>
      </trkpt>
      <trkpt lat="40.080020" lon="-0.531681">
        <ele>606.2</ele>
        <time>2021-08-10T13:02:17.579Z</time>
      </trkpt>
      <trkpt lat="40.079853" lon="-0.532330">
        <ele>603.1</ele>
        <time>2021-08-10T13:02:30.461Z</time>
      </trkpt>
      <trkpt lat="40.079826" lon="-0.532586">
        <ele>601.9</ele>
        <time>2021-08-10T13:02:34.993Z</time>
      </trkpt>
      <trkpt lat="40.079771" lon="-0.533089">
        <ele>600.1</ele>
        <time>2021-08-10T13:02:44.944Z</time>
      </trkpt>
      <trkpt lat="40.079706" lon="-0.533283">
        <ele>599.9</ele>
        <time>2021-08-10T13:02:51.341Z</time>
      </trkpt>
      <trkpt lat="40.079558" lon="-0.533518">
        <ele>599.6</ele>
        <time>2021-08-10T13:02:56.969Z</time>
      </trkpt>
      <trkpt lat="40.079550" lon="-0.533553">
        <ele>599.6</ele>
        <time>2021-08-10T13:03:01.133Z</time>
      </trkpt>
      <trkpt lat="40.079579" lon="-0.533796">
        <ele>599.3</ele>
        <time>2021-08-10T13:03:06.147Z</time>
      </trkpt>
      <trkpt lat="40.079653" lon="-0.533908">
        <ele>599.2</ele>
        <time>2021-08-10T13:03:08.956Z</time>
      </trkpt>
      <trkpt lat="40.079716" lon="-0.533906">
        <ele>599.1</ele>
        <time>2021-08-10T13:03:14.334Z</time>
      </trkpt>
      <trkpt lat="40.079941" lon="-0.533628">
        <ele>598.7</ele>
        <time>2021-08-10T13:03:22.642Z</time>
      </trkpt>
      <trkpt lat="40.080070" lon="-0.533564">
        <ele>598.5</ele>
        <time>2021-08-10T13:03:30.706Z</time>
      </trkpt>
      <trkpt lat="40.080547" lon="-0.533737">
        <ele>597.9</ele>
        <time>2021-08-10T13:03:44.937Z</time>
      </trkpt>
      <trkpt lat="40.080557" lon="-0.533816">
        <ele>597.8</ele>
        <time>2021-08-10T13:03:46.273Z</time>
      </trkpt>
      <trkpt lat="40.080442" lon="-0.534132">
        <ele>597.6</ele>
        <time>2021-08-10T13:03:55.765Z</time>
      </trkpt>
      <trkpt lat="40.080570" lon="-0.534392">
        <ele>597.4</ele>
        <time>2021-08-10T13:04:01.819Z</time>
      </trkpt>
      <trkpt lat="40.080638" lon="-0.534529">
        <ele>597.3</ele>
        <time>2021-08-10T13:04:05.778Z</time>
      </trkpt>
      <trkpt lat="40.080641" lon="-0.534642">
        <ele>597.2</ele>
        <time>2021-08-10T13:04:08.393Z</time>
      </trkpt>
      <trkpt lat="40.080621" lon="-0.534750">
        <ele>597.1</ele>
        <time>2021-08-10T13:04:10.543Z</time>
      </trkpt>
      <trkpt lat="40.080270" lon="-0.535275">
        <ele>596.6</ele>
        <time>2021-08-10T13:04:27.247Z</time>
      </trkpt>
      <trkpt lat="40.080155" lon="-0.535483">
        <ele>596.4</ele>
        <time>2021-08-10T13:04:32.605Z</time>
      </trkpt>
      <trkpt lat="40.080117" lon="-0.535552">
        <ele>596.4</ele>
        <time>2021-08-10T13:04:35.054Z</time>
      </trkpt>
      <trkpt lat="40.080145" lon="-0.535697">
        <ele>596.3</ele>
        <time>2021-08-10T13:04:39.155Z</time>
      </trkpt>
      <trkpt lat="40.080141" lon="-0.535806">
        <ele>596.5</ele>
        <time>2021-08-10T13:04:42.019Z</time>
      </trkpt>
      <trkpt lat="40.080117" lon="-0.535912">
        <ele>596.7</ele>
        <time>2021-08-10T13:04:44.154Z</time>
      </trkpt>
      <trkpt lat="40.080117" lon="-0.535979">
        <ele>596.8</ele>
        <time>2021-08-10T13:04:46.164Z</time>
      </trkpt>
      <trkpt lat="40.080136" lon="-0.536217">
        <ele>597.3</ele>
        <time>2021-08-10T13:04:51.578Z</time>
      </trkpt>
      <trkpt lat="40.080137" lon="-0.536230">
        <ele>597.3</ele>
        <time>2021-08-10T13:04:52.602Z</time>
      </trkpt>
      <trkpt lat="40.080160" lon="-0.536218">
        <ele>597.4</ele>
        <time>2021-08-10T13:04:54.282Z</time>
      </trkpt>
      <trkpt lat="40.080343" lon="-0.536063">
        <ele>597.9</ele>
        <time>2021-08-10T13:05:00.901Z</time>
      </trkpt>
      <trkpt lat="40.080402" lon="-0.536087">
        <ele>598.0</ele>
        <time>2021-08-10T13:05:03.273Z</time>
      </trkpt>
      <trkpt lat="40.080232" lon="-0.536551">
        <ele>598.9</ele>
        <time>2021-08-10T13:05:18.342Z</time>
      </trkpt>
      <trkpt lat="40.080353" lon="-0.536886">
        <ele>599.6</ele>
        <time>2021-08-10T13:05:32.951Z</time>
      </trkpt>
      <trkpt lat="40.080298" lon="-0.537075">
        <ele>600.0</ele>
        <time>2021-08-10T13:05:44.257Z</time>
      </trkpt>
      <trkpt lat="40.080383" lon="-0.537362">
        <ele>600.5</ele>
        <time>2021-08-10T13:05:58.842Z</time>
      </trkpt>
      <trkpt lat="40.080517" lon="-0.537488">
        <ele>601.1</ele>
        <time>2021-08-10T13:06:10.705Z</time>
      </trkpt>
      <trkpt lat="40.080801" lon="-0.537632">
        <ele>602.1</ele>
        <time>2021-08-10T13:06:27.829Z</time>
      </trkpt>
      <trkpt lat="40.080898" lon="-0.537804">
        <ele>602.7</ele>
        <time>2021-08-10T13:06:36.953Z</time>
      </trkpt>
      <trkpt lat="40.081018" lon="-0.538019">
        <ele>603.4</ele>
        <time>2021-08-10T13:06:47.126Z</time>
      </trkpt>
      <trkpt lat="40.081131" lon="-0.538380">
        <ele>604.4</ele>
        <time>2021-08-10T13:07:01.476Z</time>
      </trkpt>
      <trkpt lat="40.081474" lon="-0.538651">
        <ele>605.8</ele>
        <time>2021-08-10T13:07:19.396Z</time>
      </trkpt>
      <trkpt lat="40.081646" lon="-0.538682">
        <ele>606.4</ele>
        <time>2021-08-10T13:07:27.346Z</time>
      </trkpt>
      <trkpt lat="40.081772" lon="-0.538622">
        <ele>606.5</ele>
        <time>2021-08-10T13:07:32.616Z</time>
      </trkpt>
      <trkpt lat="40.081928" lon="-0.538439">
        <ele>605.3</ele>
        <time>2021-08-10T13:07:40.854Z</time>
      </trkpt>
      <trkpt lat="40.082615" lon="-0.537939">
        <ele>601.0</ele>
        <time>2021-08-10T13:08:01.427Z</time>
      </trkpt>
      <trkpt lat="40.082840" lon="-0.538018">
        <ele>599.8</ele>
        <time>2021-08-10T13:08:06.500Z</time>
      </trkpt>
      <trkpt lat="40.082992" lon="-0.538218">
        <ele>598.6</ele>
        <time>2021-08-10T13:08:11.222Z</time>
      </trkpt>
      <trkpt lat="40.083315" lon="-0.538496">
        <ele>595.8</ele>
        <time>2021-08-10T13:08:19.278Z</time>
      </trkpt>
      <trkpt lat="40.083315" lon="-0.538496">
        <ele>595.8</ele>
        <time>2021-08-10T13:08:19.357Z</time>
      </trkpt>
      <trkpt lat="40.083614" lon="-0.538879">
        <ele>589.5</ele>
        <time>2021-08-10T13:08:27.923Z</time>
      </trkpt>
      <trkpt lat="40.083772" lon="-0.538970">
        <ele>586.9</ele>
        <time>2021-08-10T13:08:31.513Z</time>
      </trkpt>
      <trkpt lat="40.083599" lon="-0.538985">
        <ele>584.4</ele>
        <time>2021-08-10T13:08:34.932Z</time>
      </trkpt>
      <trkpt lat="40.083270" lon="-0.538771">
        <ele>578.9</ele>
        <time>2021-08-10T13:08:42.300Z</time>
      </trkpt>
      <trkpt lat="40.083067" lon="-0.538735">
        <ele>575.8</ele>
        <time>2021-08-10T13:08:46.498Z</time>
      </trkpt>
      <trkpt lat="40.082989" lon="-0.538803">
        <ele>574.4</ele>
        <time>2021-08-10T13:08:48.332Z</time>
      </trkpt>
      <trkpt lat="40.083233" lon="-0.539017">
        <ele>570.0</ele>
        <time>2021-08-10T13:08:54.222Z</time>
      </trkpt>
      <trkpt lat="40.083233" lon="-0.539017">
        <ele>570.0</ele>
        <time>2021-08-10T13:08:54.265Z</time>
      </trkpt>
      <trkpt lat="40.083321" lon="-0.539293">
        <ele>567.3</ele>
        <time>2021-08-10T13:08:58.887Z</time>
      </trkpt>
      <trkpt lat="40.083480" lon="-0.539491">
        <ele>564.6</ele>
        <time>2021-08-10T13:09:03.292Z</time>
      </trkpt>
      <trkpt lat="40.083767" lon="-0.539536">
        <ele>561.1</ele>
        <time>2021-08-10T13:09:09.237Z</time>
      </trkpt>
      <trkpt lat="40.084094" lon="-0.539677">
        <ele>556.9</ele>
        <time>2021-08-10T13:09:16.496Z</time>
      </trkpt>
      <trkpt lat="40.084376" lon="-0.539587">
        <ele>553.4</ele>
        <time>2021-08-10T13:09:22.840Z</time>
      </trkpt>
      <trkpt lat="40.084500" lon="-0.539799">
        <ele>550.9</ele>
        <time>2021-08-10T13:09:27.253Z</time>
      </trkpt>
      <trkpt lat="40.084713" lon="-0.539931">
        <ele>548.1</ele>
        <time>2021-08-10T13:09:32.397Z</time>
      </trkpt>
      <trkpt lat="40.084888" lon="-0.539912">
        <ele>546.8</ele>
        <time>2021-08-10T13:09:36.055Z</time>
      </trkpt>
      <trkpt lat="40.085510" lon="-0.539656">
        <ele>542.0</ele>
        <time>2021-08-10T13:09:50.404Z</time>
      </trkpt>
      <trkpt lat="40.086035" lon="-0.539722">
        <ele>538.2</ele>
        <time>2021-08-10T13:10:02.596Z</time>
      </trkpt>
      <trkpt lat="40.086040" lon="-0.539756">
        <ele>538.0</ele>
        <time>2021-08-10T13:10:04.001Z</time>
      </trkpt>
      <trkpt lat="40.086095" lon="-0.540151">
        <ele>535.8</ele>
        <time>2021-08-10T13:10:11.147Z</time>
      </trkpt>
      <trkpt lat="40.086125" lon="-0.540137">
        <ele>535.5</ele>
        <time>2021-08-10T13:10:12.722Z</time>
      </trkpt>
      <trkpt lat="40.086110" lon="-0.540077">
        <ele>535.2</ele>
        <time>2021-08-10T13:10:14.210Z</time>
      </trkpt>
      <trkpt lat="40.086221" lon="-0.540091">
        <ele>534.8</ele>
        <time>2021-08-10T13:10:16.718Z</time>
      </trkpt>
      <trkpt lat="40.086378" lon="-0.540038">
        <ele>534.3</ele>
        <time>2021-08-10T13:10:20.316Z</time>
      </trkpt>
      <trkpt lat="40.086528" lon="-0.540083">
        <ele>533.8</ele>
        <time>2021-08-10T13:10:24.514Z</time>
      </trkpt>
      <trkpt lat="40.087116" lon="-0.539945">
        <ele>532.0</ele>
        <time>2021-08-10T13:10:38.813Z</time>
      </trkpt>
      <trkpt lat="40.087153" lon="-0.539932">
        <ele>531.8</ele>
        <time>2021-08-10T13:10:41.091Z</time>
      </trkpt>
      <trkpt lat="40.087183" lon="-0.539954">
        <ele>531.7</ele>
        <time>2021-08-10T13:10:41.902Z</time>
      </trkpt>
      <trkpt lat="40.087435" lon="-0.539959">
        <ele>531.0</ele>
        <time>2021-08-10T13:10:47.806Z</time>
      </trkpt>
      <trkpt lat="40.087593" lon="-0.540057">
        <ele>530.4</ele>
        <time>2021-08-10T13:10:56.318Z</time>
      </trkpt>
      <trkpt lat="40.087696" lon="-0.540185">
        <ele>530.0</ele>
        <time>2021-08-10T13:11:00.482Z</time>
      </trkpt>
      <trkpt lat="40.087849" lon="-0.540272">
        <ele>529.6</ele>
        <time>2021-08-10T13:11:07.885Z</time>
      </trkpt>
      <trkpt lat="40.088239" lon="-0.540785">
        <ele>530.6</ele>
        <time>2021-08-10T13:11:28.395Z</time>
      </trkpt>
      <trkpt lat="40.088317" lon="-0.541270">
        <ele>531.3</ele>
        <time>2021-08-10T13:11:45.387Z</time>
      </trkpt>
      <trkpt lat="40.088230" lon="-0.541643">
        <ele>531.9</ele>
        <time>2021-08-10T13:11:57.717Z</time>
      </trkpt>
      <trkpt lat="40.087650" lon="-0.542278">
        <ele>533.7</ele>
        <time>2021-08-10T13:12:30.451Z</time>
      </trkpt>
      <trkpt lat="40.087480" lon="-0.542336">
        <ele>534.4</ele>
        <time>2021-08-10T13:12:39.958Z</time>
      </trkpt>
      <trkpt lat="40.087238" lon="-0.542418">
        <ele>535.3</ele>
        <time>2021-08-10T13:12:51.171Z</time>
      </trkpt>
      <trkpt lat="40.086571" lon="-0.542661">
        <ele>538.0</ele>
        <time>2021-08-10T13:13:25.863Z</time>
      </trkpt>
      <trkpt lat="40.086376" lon="-0.542689">
        <ele>538.7</ele>
        <time>2021-08-10T13:13:36.096Z</time>
      </trkpt>
      <trkpt lat="40.086072" lon="-0.542646">
        <ele>540.1</ele>
        <time>2021-08-10T13:13:52.162Z</time>
      </trkpt>
      <trkpt lat="40.085886" lon="-0.542599">
        <ele>541.8</ele>
        <time>2021-08-10T13:14:03.954Z</time>
      </trkpt>
      <trkpt lat="40.085762" lon="-0.542601">
        <ele>543.0</ele>
        <time>2021-08-10T13:14:11.382Z</time>
      </trkpt>
      <trkpt lat="40.085191" lon="-0.542513">
        <ele>548.3</ele>
        <time>2021-08-10T13:14:50.078Z</time>
      </trkpt>
      <trkpt lat="40.084622" lon="-0.542613">
        <ele>553.7</ele>
        <time>2021-08-10T13:15:36.952Z</time>
      </trkpt>
      <trkpt lat="40.084519" lon="-0.542672">
        <ele>554.7</ele>
        <time>2021-08-10T13:15:46.786Z</time>
      </trkpt>
      <trkpt lat="40.084429" lon="-0.542725">
        <ele>555.6</ele>
        <time>2021-08-10T13:15:58.411Z</time>
      </trkpt>
      <trkpt lat="40.083609" lon="-0.543391">
        <ele>564.3</ele>
        <time>2021-08-10T13:17:18.074Z</time>
      </trkpt>
      <trkpt lat="40.083437" lon="-0.543595">
        <ele>566.4</ele>
        <time>2021-08-10T13:17:36.768Z</time>
      </trkpt>
      <trkpt lat="40.083186" lon="-0.544063">
        <ele>570.3</ele>
        <time>2021-08-10T13:18:05.350Z</time>
      </trkpt>
      <trkpt lat="40.083135" lon="-0.544073">
        <ele>570.8</ele>
        <time>2021-08-10T13:18:07.545Z</time>
      </trkpt>
      <trkpt lat="40.083125" lon="-0.544068">
        <ele>570.9</ele>
        <time>2021-08-10T13:18:09.536Z</time>
      </trkpt>
      <trkpt lat="40.083099" lon="-0.544135">
        <ele>571.4</ele>
        <time>2021-08-10T13:18:10.328Z</time>
      </trkpt>
      <trkpt lat="40.083084" lon="-0.544347">
        <ele>572.7</ele>
        <time>2021-08-10T13:18:14.415Z</time>
      </trkpt>
      <trkpt lat="40.083160" lon="-0.544973">
        <ele>573.4</ele>
        <time>2021-08-10T13:18:25.369Z</time>
      </trkpt>
      <trkpt lat="40.083103" lon="-0.545626">
        <ele>574.2</ele>
        <time>2021-08-10T13:18:39.393Z</time>
      </trkpt>
      <trkpt lat="40.083145" lon="-0.545756">
        <ele>574.4</ele>
        <time>2021-08-10T13:18:42.132Z</time>
      </trkpt>
      <trkpt lat="40.083335" lon="-0.546015">
        <ele>574.8</ele>
        <time>2021-08-10T13:18:48.216Z</time>
      </trkpt>
      <trkpt lat="40.083449" lon="-0.546392">
        <ele>575.3</ele>
        <time>2021-08-10T13:18:53.375Z</time>
      </trkpt>
      <trkpt lat="40.083563" lon="-0.546822">
        <ele>577.2</ele>
        <time>2021-08-10T13:19:02.308Z</time>
      </trkpt>
      <trkpt lat="40.083571" lon="-0.546942">
        <ele>577.8</ele>
        <time>2021-08-10T13:19:08.585Z</time>
      </trkpt>
      <trkpt lat="40.083549" lon="-0.547183">
        <ele>579.1</ele>
        <time>2021-08-10T13:19:13.543Z</time>
      </trkpt>
      <trkpt lat="40.083456" lon="-0.547463">
        <ele>580.7</ele>
        <time>2021-08-10T13:19:25.168Z</time>
      </trkpt>
      <trkpt lat="40.083457" lon="-0.547769">
        <ele>582.3</ele>
        <time>2021-08-10T13:19:35.280Z</time>
      </trkpt>
      <trkpt lat="40.084408" lon="-0.549600">
        <ele>597.7</ele>
        <time>2021-08-10T13:21:47.099Z</time>
      </trkpt>
      <trkpt lat="40.084458" lon="-0.549874">
        <ele>600.1</ele>
        <time>2021-08-10T13:22:09.524Z</time>
      </trkpt>
      <trkpt lat="40.084376" lon="-0.550120">
        <ele>602.4</ele>
        <time>2021-08-10T13:22:19.669Z</time>
      </trkpt>
      <trkpt lat="40.084303" lon="-0.550258">
        <ele>603.8</ele>
        <time>2021-08-10T13:22:35.710Z</time>
      </trkpt>
      <trkpt lat="40.084321" lon="-0.550390">
        <ele>582.8</ele>
        <time>2021-08-10T13:22:43.893Z</time>
      </trkpt>
      <trkpt lat="40.084355" lon="-0.550600">
        <ele>608.3</ele>
        <time>2021-08-10T13:23:07.690Z</time>
      </trkpt>
      <trkpt lat="40.084385" lon="-0.550712">
        <ele>608.8</ele>
        <time>2021-08-10T13:23:09.408Z</time>
      </trkpt>
      <trkpt lat="40.084583" lon="-0.551298">
        <ele>611.6</ele>
        <time>2021-08-10T13:23:41.953Z</time>
      </trkpt>
      <trkpt lat="40.084603" lon="-0.551883">
        <ele>614.1</ele>
        <time>2021-08-10T13:24:04.483Z</time>
      </trkpt>
      <trkpt lat="40.084670" lon="-0.552305">
        <ele>615.9</ele>
        <time>2021-08-10T13:24:14.719Z</time>
      </trkpt>
      <trkpt lat="40.084664" lon="-0.552768">
        <ele>617.8</ele>
        <time>2021-08-10T13:24:24.148Z</time>
      </trkpt>
      <trkpt lat="40.084664" lon="-0.552912">
        <ele>617.8</ele>
        <time>2021-08-10T13:24:26.561Z</time>
      </trkpt>
      <trkpt lat="40.084687" lon="-0.553074">
        <ele>617.8</ele>
        <time>2021-08-10T13:24:29.398Z</time>
      </trkpt>
      <trkpt lat="40.085005" lon="-0.553546">
        <ele>617.8</ele>
        <time>2021-08-10T13:24:38.844Z</time>
      </trkpt>
      <trkpt lat="40.085052" lon="-0.553677">
        <ele>617.8</ele>
        <time>2021-08-10T13:24:40.959Z</time>
      </trkpt>
      <trkpt lat="40.085061" lon="-0.553818">
        <ele>617.8</ele>
        <time>2021-08-10T13:24:43.564Z</time>
      </trkpt>
      <trkpt lat="40.085042" lon="-0.554256">
        <ele>617.7</ele>
        <time>2021-08-10T13:24:49.730Z</time>
      </trkpt>
      <trkpt lat="40.085033" lon="-0.554425">
        <ele>617.7</ele>
        <time>2021-08-10T13:24:51.650Z</time>
      </trkpt>
      <trkpt lat="40.085096" lon="-0.554711">
        <ele>617.7</ele>
        <time>2021-08-10T13:24:55.925Z</time>
      </trkpt>
      <trkpt lat="40.085319" lon="-0.554970">
        <ele>617.6</ele>
        <time>2021-08-10T13:25:00.484Z</time>
      </trkpt>
      <trkpt lat="40.085536" lon="-0.555030">
        <ele>617.4</ele>
        <time>2021-08-10T13:25:04.397Z</time>
      </trkpt>
      <trkpt lat="40.085945" lon="-0.554982">
        <ele>617.0</ele>
        <time>2021-08-10T13:25:11.899Z</time>
      </trkpt>
      <trkpt lat="40.086123" lon="-0.555074">
        <ele>616.8</ele>
        <time>2021-08-10T13:25:15.483Z</time>
      </trkpt>
      <trkpt lat="40.086249" lon="-0.555362">
        <ele>616.5</ele>
        <time>2021-08-10T13:25:19.444Z</time>
      </trkpt>
      <trkpt lat="40.086367" lon="-0.555931">
        <ele>616.1</ele>
        <time>2021-08-10T13:25:27.177Z</time>
      </trkpt>
      <trkpt lat="40.086475" lon="-0.556081">
        <ele>615.9</ele>
        <time>2021-08-10T13:25:29.865Z</time>
      </trkpt>
      <trkpt lat="40.086992" lon="-0.556262">
        <ele>615.5</ele>
        <time>2021-08-10T13:25:38.321Z</time>
      </trkpt>
      <trkpt lat="40.087157" lon="-0.556445">
        <ele>615.4</ele>
        <time>2021-08-10T13:25:41.908Z</time>
      </trkpt>
      <trkpt lat="40.087185" lon="-0.556755">
        <ele>615.2</ele>
        <time>2021-08-10T13:25:46.096Z</time>
      </trkpt>
      <trkpt lat="40.087089" lon="-0.557780">
        <ele>614.7</ele>
        <time>2021-08-10T13:26:01.224Z</time>
      </trkpt>
      <trkpt lat="40.087191" lon="-0.558030">
        <ele>615.2</ele>
        <time>2021-08-10T13:26:05.350Z</time>
      </trkpt>
      <trkpt lat="40.087293" lon="-0.558109">
        <ele>615.4</ele>
        <time>2021-08-10T13:26:07.594Z</time>
      </trkpt>
      <trkpt lat="40.087441" lon="-0.558115">
        <ele>615.8</ele>
        <time>2021-08-10T13:26:10.284Z</time>
      </trkpt>
      <trkpt lat="40.088014" lon="-0.557983">
        <ele>617.0</ele>
        <time>2021-08-10T13:26:21.378Z</time>
      </trkpt>
      <trkpt lat="40.088205" lon="-0.558079">
        <ele>617.5</ele>
        <time>2021-08-10T13:26:29.313Z</time>
      </trkpt>
      <trkpt lat="40.088273" lon="-0.558211">
        <ele>617.8</ele>
        <time>2021-08-10T13:26:35.723Z</time>
      </trkpt>
      <trkpt lat="40.088281" lon="-0.558465">
        <ele>618.2</ele>
        <time>2021-08-10T13:26:42.634Z</time>
      </trkpt>
      <trkpt lat="40.088063" lon="-0.558977">
        <ele>620.5</ele>
        <time>2021-08-10T13:27:07.965Z</time>
      </trkpt>
      <trkpt lat="40.087638" lon="-0.559508">
        <ele>625.0</ele>
        <time>2021-08-10T13:27:37.002Z</time>
      </trkpt>
      <trkpt lat="40.087557" lon="-0.559623">
        <ele>625.9</ele>
        <time>2021-08-10T13:27:46.289Z</time>
      </trkpt>
      <trkpt lat="40.087511" lon="-0.559566">
        <ele>626.4</ele>
        <time>2021-08-10T13:27:52.893Z</time>
      </trkpt>
      <trkpt lat="40.087247" lon="-0.559639">
        <ele>628.4</ele>
        <time>2021-08-10T13:28:08.609Z</time>
      </trkpt>
      <trkpt lat="40.087215" lon="-0.559738">
        <ele>629.0</ele>
        <time>2021-08-10T13:28:17.889Z</time>
      </trkpt>
      <trkpt lat="40.087220" lon="-0.559849">
        <ele>629.7</ele>
        <time>2021-08-10T13:28:21.649Z</time>
      </trkpt>
      <trkpt lat="40.087279" lon="-0.560025">
        <ele>630.8</ele>
        <time>2021-08-10T13:28:30.993Z</time>
      </trkpt>
      <trkpt lat="40.087885" lon="-0.560631">
        <ele>638.2</ele>
        <time>2021-08-10T13:29:32.861Z</time>
      </trkpt>
      <trkpt lat="40.087954" lon="-0.560768">
        <ele>639.5</ele>
        <time>2021-08-10T13:29:46.015Z</time>
      </trkpt>
      <trkpt lat="40.087987" lon="-0.560955">
        <ele>641.0</ele>
        <time>2021-08-10T13:29:55.689Z</time>
      </trkpt>
      <trkpt lat="40.087961" lon="-0.561152">
        <ele>642.6</ele>
        <time>2021-08-10T13:30:08.866Z</time>
      </trkpt>
      <trkpt lat="40.087855" lon="-0.561422">
        <ele>645.0</ele>
        <time>2021-08-10T13:30:26.318Z</time>
      </trkpt>
      <trkpt lat="40.087654" lon="-0.561616">
        <ele>647.6</ele>
        <time>2021-08-10T13:30:47.555Z</time>
      </trkpt>
      <trkpt lat="40.087025" lon="-0.561854">
        <ele>655.5</ele>
        <time>2021-08-10T13:31:48.759Z</time>
      </trkpt>
      <trkpt lat="40.086908" lon="-0.562364">
        <ele>661.1</ele>
        <time>2021-08-10T13:32:29.914Z</time>
      </trkpt>
      <trkpt lat="40.086811" lon="-0.562505">
        <ele>663.1</ele>
        <time>2021-08-10T13:32:45.273Z</time>
      </trkpt>
      <trkpt lat="40.086401" lon="-0.562523">
        <ele>668.8</ele>
        <time>2021-08-10T13:33:29.314Z</time>
      </trkpt>
      <trkpt lat="40.085806" lon="-0.562321">
        <ele>677.0</ele>
        <time>2021-08-10T13:34:34.855Z</time>
      </trkpt>
      <trkpt lat="40.085520" lon="-0.562342">
        <ele>680.2</ele>
        <time>2021-08-10T13:35:03.705Z</time>
      </trkpt>
      <trkpt lat="40.085211" lon="-0.562436">
        <ele>683.6</ele>
        <time>2021-08-10T13:35:33.555Z</time>
      </trkpt>
      <trkpt lat="40.084499" lon="-0.562982">
        <ele>692.7</ele>
        <time>2021-08-10T13:36:41.611Z</time>
      </trkpt>
      <trkpt lat="40.084408" lon="-0.563171">
        <ele>694.6</ele>
        <time>2021-08-10T13:36:54.029Z</time>
      </trkpt>
      <trkpt lat="40.084386" lon="-0.564266">
        <ele>700.5</ele>
        <time>2021-08-10T13:37:50.014Z</time>
      </trkpt>
      <trkpt lat="40.084569" lon="-0.564491">
        <ele>702.2</ele>
        <time>2021-08-10T13:38:05.591Z</time>
      </trkpt>
      <trkpt lat="40.084597" lon="-0.564579">
        <ele>702.7</ele>
        <time>2021-08-10T13:38:10.105Z</time>
      </trkpt>
      <trkpt lat="40.084548" lon="-0.564730">
        <ele>703.5</ele>
        <time>2021-08-10T13:38:17.827Z</time>
      </trkpt>
      <trkpt lat="40.084001" lon="-0.564993">
        <ele>707.3</ele>
        <time>2021-08-10T13:38:52.904Z</time>
      </trkpt>
      <trkpt lat="40.083037" lon="-0.566590">
        <ele>718.3</ele>
        <time>2021-08-10T13:40:31.947Z</time>
      </trkpt>
      <trkpt lat="40.082994" lon="-0.566876">
        <ele>719.9</ele>
        <time>2021-08-10T13:40:48.828Z</time>
      </trkpt>
      <trkpt lat="40.082995" lon="-0.567345">
        <ele>723.8</ele>
        <time>2021-08-10T13:41:18.558Z</time>
      </trkpt>
      <trkpt lat="40.082841" lon="-0.568029">
        <ele>730.2</ele>
        <time>2021-08-10T13:42:07.548Z</time>
      </trkpt>
      <trkpt lat="40.082769" lon="-0.568243">
        <ele>732.2</ele>
        <time>2021-08-10T13:42:22.493Z</time>
      </trkpt>
      <trkpt lat="40.082655" lon="-0.568414">
        <ele>734.2</ele>
        <time>2021-08-10T13:42:40.162Z</time>
      </trkpt>
      <trkpt lat="40.082467" lon="-0.568607">
        <ele>737.0</ele>
        <time>2021-08-10T13:43:01.872Z</time>
      </trkpt>
      <trkpt lat="40.082384" lon="-0.568770">
        <ele>738.7</ele>
        <time>2021-08-10T13:43:17.042Z</time>
      </trkpt>
      <trkpt lat="40.082288" lon="-0.569271">
        <ele>743.6</ele>
        <time>2021-08-10T13:43:56.101Z</time>
      </trkpt>
      <trkpt lat="40.082090" lon="-0.569810">
        <ele>749.5</ele>
        <time>2021-08-10T13:44:42.962Z</time>
      </trkpt>
      <trkpt lat="40.082069" lon="-0.570142">
        <ele>752.8</ele>
        <time>2021-08-10T13:45:10.862Z</time>
      </trkpt>
      <trkpt lat="40.081995" lon="-0.570451">
        <ele>756.0</ele>
        <time>2021-08-10T13:45:33.429Z</time>
      </trkpt>
      <trkpt lat="40.081700" lon="-0.570837">
        <ele>761.4</ele>
        <time>2021-08-10T13:46:11.281Z</time>
      </trkpt>
      <trkpt lat="40.081577" lon="-0.571173">
        <ele>765.0</ele>
        <time>2021-08-10T13:46:36.900Z</time>
      </trkpt>
      <trkpt lat="40.081525" lon="-0.571496">
        <ele>768.0</ele>
        <time>2021-08-10T13:46:59.374Z</time>
      </trkpt>
      <trkpt lat="40.081550" lon="-0.571946">
        <ele>772.2</ele>
        <time>2021-08-10T13:47:30.114Z</time>
      </trkpt>
      <trkpt lat="40.081781" lon="-0.572806">
        <ele>780.6</ele>
        <time>2021-08-10T13:48:34.043Z</time>
      </trkpt>
      <trkpt lat="40.081796" lon="-0.573249">
        <ele>784.7</ele>
        <time>2021-08-10T13:49:06.522Z</time>
      </trkpt>
      <trkpt lat="40.081667" lon="-0.573838">
        <ele>790.7</ele>
        <time>2021-08-10T13:49:52.432Z</time>
      </trkpt>
      <trkpt lat="40.081608" lon="-0.574408">
        <ele>796.4</ele>
        <time>2021-08-10T13:50:36.030Z</time>
      </trkpt>
      <trkpt lat="40.081471" lon="-0.574877">
        <ele>801.3</ele>
        <time>2021-08-10T13:51:13.913Z</time>
      </trkpt>
      <trkpt lat="40.081380" lon="-0.575019">
        <ele>803.2</ele>
        <time>2021-08-10T13:51:27.797Z</time>
      </trkpt>
      <trkpt lat="40.081239" lon="-0.575091">
        <ele>805.1</ele>
        <time>2021-08-10T13:51:42.513Z</time>
      </trkpt>
      <trkpt lat="40.080998" lon="-0.575023">
        <ele>808.3</ele>
        <time>2021-08-10T13:52:06.432Z</time>
      </trkpt>
      <trkpt lat="40.080558" lon="-0.574742">
        <ele>813.3</ele>
        <time>2021-08-10T13:52:52.270Z</time>
      </trkpt>
      <trkpt lat="40.080476" lon="-0.574638">
        <ele>814.4</ele>
        <time>2021-08-10T13:53:02.440Z</time>
      </trkpt>
      <trkpt lat="40.080135" lon="-0.573093">
        <ele>826.3</ele>
        <time>2021-08-10T13:54:35.813Z</time>
      </trkpt>
      <trkpt lat="40.079922" lon="-0.572677">
        <ele>828.8</ele>
        <time>2021-08-10T13:55:01.024Z</time>
      </trkpt>
      <trkpt lat="40.079685" lon="-0.572681">
        <ele>830.3</ele>
        <time>2021-08-10T13:55:16.308Z</time>
      </trkpt>
      <trkpt lat="40.079631" lon="-0.572818">
        <ele>831.0</ele>
        <time>2021-08-10T13:55:23.903Z</time>
      </trkpt>
      <trkpt lat="40.079774" lon="-0.573349">
        <ele>833.8</ele>
        <time>2021-08-10T13:55:50.338Z</time>
      </trkpt>
      <trkpt lat="40.079844" lon="-0.573907">
        <ele>836.5</ele>
        <time>2021-08-10T13:56:15.878Z</time>
      </trkpt>
      <trkpt lat="40.079750" lon="-0.574081">
        <ele>837.5</ele>
        <time>2021-08-10T13:56:25.612Z</time>
      </trkpt>
      <trkpt lat="40.079693" lon="-0.573795">
        <ele>838.9</ele>
        <time>2021-08-10T13:56:36.064Z</time>
      </trkpt>
      <trkpt lat="40.079422" lon="-0.573126">
        <ele>842.3</ele>
        <time>2021-08-10T13:57:03.787Z</time>
      </trkpt>
      <trkpt lat="40.079000" lon="-0.572737">
        <ele>845.4</ele>
        <time>2021-08-10T13:57:29.903Z</time>
      </trkpt>
      <trkpt lat="40.078773" lon="-0.572365">
        <ele>847.5</ele>
        <time>2021-08-10T13:57:48.779Z</time>
      </trkpt>
      <trkpt lat="40.078298" lon="-0.570411">
        <ele>856.0</ele>
        <time>2021-08-10T13:59:03.083Z</time>
      </trkpt>
      <trkpt lat="40.078155" lon="-0.570205">
        <ele>857.2</ele>
        <time>2021-08-10T13:59:12.528Z</time>
      </trkpt>
      <trkpt lat="40.078011" lon="-0.570143">
        <ele>858.0</ele>
        <time>2021-08-10T13:59:18.477Z</time>
      </trkpt>
      <trkpt lat="40.077848" lon="-0.570125">
        <ele>858.6</ele>
        <time>2021-08-10T13:59:25.580Z</time>
      </trkpt>
      <trkpt lat="40.077293" lon="-0.570146">
        <ele>860.4</ele>
        <time>2021-08-10T13:59:46.790Z</time>
      </trkpt>
      <trkpt lat="40.076893" lon="-0.570237">
        <ele>861.6</ele>
        <time>2021-08-10T14:00:02.013Z</time>
      </trkpt>
      <trkpt lat="40.076192" lon="-0.570605">
        <ele>863.9</ele>
        <time>2021-08-10T14:00:24.902Z</time>
      </trkpt>
      <trkpt lat="40.075669" lon="-0.571099">
        <ele>864.4</ele>
        <time>2021-08-10T14:00:40.233Z</time>
      </trkpt>
      <trkpt lat="40.075673" lon="-0.571242">
        <ele>864.5</ele>
        <time>2021-08-10T14:00:43.643Z</time>
      </trkpt>
      <trkpt lat="40.075491" lon="-0.571835">
        <ele>864.8</ele>
        <time>2021-08-10T14:00:59.001Z</time>
      </trkpt>
      <trkpt lat="40.075470" lon="-0.572093">
        <ele>864.9</ele>
        <time>2021-08-10T14:01:06.832Z</time>
      </trkpt>
      <trkpt lat="40.075471" lon="-0.573169">
        <ele>865.6</ele>
        <time>2021-08-10T14:01:34.018Z</time>
      </trkpt>
      <trkpt lat="40.075552" lon="-0.573432">
        <ele>865.7</ele>
        <time>2021-08-10T14:01:42.937Z</time>
      </trkpt>
      <trkpt lat="40.075642" lon="-0.573599">
        <ele>865.9</ele>
        <time>2021-08-10T14:01:47.337Z</time>
      </trkpt>
      <trkpt lat="40.075807" lon="-0.573699">
        <ele>866.0</ele>
        <time>2021-08-10T14:01:55.548Z</time>
      </trkpt>
      <trkpt lat="40.076830" lon="-0.573759">
        <ele>866.8</ele>
        <time>2021-08-10T14:02:32.665Z</time>
      </trkpt>
      <trkpt lat="40.077230" lon="-0.573704">
        <ele>867.1</ele>
        <time>2021-08-10T14:02:48.119Z</time>
      </trkpt>
      <trkpt lat="40.077554" lon="-0.573759">
        <ele>867.4</ele>
        <time>2021-08-10T14:02:59.363Z</time>
      </trkpt>
      <trkpt lat="40.077671" lon="-0.574082">
        <ele>867.6</ele>
        <time>2021-08-10T14:03:08.501Z</time>
      </trkpt>
      <trkpt lat="40.077734" lon="-0.574066">
        <ele>867.7</ele>
        <time>2021-08-10T14:03:10.702Z</time>
      </trkpt>
      <trkpt lat="40.077809" lon="-0.574380">
        <ele>867.9</ele>
        <time>2021-08-10T14:03:19.376Z</time>
      </trkpt>
      <trkpt lat="40.077895" lon="-0.574519">
        <ele>868.0</ele>
        <time>2021-08-10T14:03:24.038Z</time>
      </trkpt>
      <trkpt lat="40.077999" lon="-0.575085">
        <ele>869.0</ele>
        <time>2021-08-10T14:03:39.985Z</time>
      </trkpt>
      <trkpt lat="40.078126" lon="-0.575494">
        <ele>869.8</ele>
        <time>2021-08-10T14:03:53.070Z</time>
      </trkpt>
      <trkpt lat="40.078307" lon="-0.575855">
        <ele>870.6</ele>
        <time>2021-08-10T14:04:06.777Z</time>
      </trkpt>
      <trkpt lat="40.078369" lon="-0.575875">
        <ele>870.8</ele>
        <time>2021-08-10T14:04:09.744Z</time>
      </trkpt>
      <trkpt lat="40.078384" lon="-0.575795">
        <ele>870.9</ele>
        <time>2021-08-10T14:04:12.760Z</time>
      </trkpt>
      <trkpt lat="40.078328" lon="-0.575601">
        <ele>871.3</ele>
        <time>2021-08-10T14:04:19.678Z</time>
      </trkpt>
      <trkpt lat="40.078316" lon="-0.575180">
        <ele>872.1</ele>
        <time>2021-08-10T14:04:35.841Z</time>
      </trkpt>
      <trkpt lat="40.078341" lon="-0.575137">
        <ele>872.2</ele>
        <time>2021-08-10T14:04:37.959Z</time>
      </trkpt>
      <trkpt lat="40.078433" lon="-0.575162">
        <ele>872.4</ele>
        <time>2021-08-10T14:04:43.070Z</time>
      </trkpt>
      <trkpt lat="40.078501" lon="-0.575246">
        <ele>873.1</ele>
        <time>2021-08-10T14:04:48.841Z</time>
      </trkpt>
      <trkpt lat="40.078487" lon="-0.575639">
        <ele>875.1</ele>
        <time>2021-08-10T14:05:06.851Z</time>
      </trkpt>
      <trkpt lat="40.078541" lon="-0.575853">
        <ele>876.3</ele>
        <time>2021-08-10T14:05:17.985Z</time>
      </trkpt>
      <trkpt lat="40.078806" lon="-0.576073">
        <ele>878.5</ele>
        <time>2021-08-10T14:05:39.487Z</time>
      </trkpt>
      <trkpt lat="40.078795" lon="-0.576175">
        <ele>879.0</ele>
        <time>2021-08-10T14:05:44.634Z</time>
      </trkpt>
      <trkpt lat="40.078659" lon="-0.576362">
        <ele>880.4</ele>
        <time>2021-08-10T14:05:58.770Z</time>
      </trkpt>
      <trkpt lat="40.078463" lon="-0.576544">
        <ele>882.0</ele>
        <time>2021-08-10T14:06:15.583Z</time>
      </trkpt>
      <trkpt lat="40.078423" lon="-0.576781">
        <ele>883.3</ele>
        <time>2021-08-10T14:06:29.308Z</time>
      </trkpt>
      <trkpt lat="40.078343" lon="-0.576926">
        <ele>884.3</ele>
        <time>2021-08-10T14:06:39.058Z</time>
      </trkpt>
      <trkpt lat="40.078153" lon="-0.577095">
        <ele>886.0</ele>
        <time>2021-08-10T14:06:55.862Z</time>
      </trkpt>
      <trkpt lat="40.078151" lon="-0.577395">
        <ele>887.7</ele>
        <time>2021-08-10T14:07:12.658Z</time>
      </trkpt>
      <trkpt lat="40.078232" lon="-0.577531">
        <ele>888.7</ele>
        <time>2021-08-10T14:07:22.522Z</time>
      </trkpt>
      <trkpt lat="40.078674" lon="-0.577625">
        <ele>892.1</ele>
        <time>2021-08-10T14:07:55.518Z</time>
      </trkpt>
      <trkpt lat="40.079243" lon="-0.577897">
        <ele>896.8</ele>
        <time>2021-08-10T14:08:37.750Z</time>
      </trkpt>
      <trkpt lat="40.079405" lon="-0.578139">
        <ele>898.6</ele>
        <time>2021-08-10T14:08:53.452Z</time>
      </trkpt>
      <trkpt lat="40.079833" lon="-0.578371">
        <ele>900.9</ele>
        <time>2021-08-10T14:09:21.633Z</time>
      </trkpt>
      <trkpt lat="40.080160" lon="-0.578973">
        <ele>903.8</ele>
        <time>2021-08-10T14:09:54.140Z</time>
      </trkpt>
      <trkpt lat="40.080144" lon="-0.579577">
        <ele>906.1</ele>
        <time>2021-08-10T14:10:19.288Z</time>
      </trkpt>
      <trkpt lat="40.080264" lon="-0.579794">
        <ele>907.2</ele>
        <time>2021-08-10T14:10:30.066Z</time>
      </trkpt>
      <trkpt lat="40.080323" lon="-0.579802">
        <ele>907.5</ele>
        <time>2021-08-10T14:10:33.151Z</time>
      </trkpt>
      <trkpt lat="40.080502" lon="-0.579589">
        <ele>908.3</ele>
        <time>2021-08-10T14:10:45.307Z</time>
      </trkpt>
      <trkpt lat="40.080581" lon="-0.579560">
        <ele>908.5</ele>
        <time>2021-08-10T14:10:49.444Z</time>
      </trkpt>
      <trkpt lat="40.080766" lon="-0.579622">
        <ele>909.1</ele>
        <time>2021-08-10T14:10:58.631Z</time>
      </trkpt>
      <trkpt lat="40.080839" lon="-0.579745">
        <ele>909.5</ele>
        <time>2021-08-10T14:11:04.388Z</time>
      </trkpt>
      <trkpt lat="40.080840" lon="-0.579887">
        <ele>909.8</ele>
        <time>2021-08-10T14:11:09.719Z</time>
      </trkpt>
      <trkpt lat="40.080715" lon="-0.580271">
        <ele>910.8</ele>
        <time>2021-08-10T14:11:24.714Z</time>
      </trkpt>
      <trkpt lat="40.080844" lon="-0.580724">
        <ele>912.0</ele>
        <time>2021-08-10T14:11:41.692Z</time>
      </trkpt>
      <trkpt lat="40.080871" lon="-0.581094">
        <ele>912.8</ele>
        <time>2021-08-10T14:11:54.191Z</time>
      </trkpt>
      <trkpt lat="40.080820" lon="-0.581194">
        <ele>913.1</ele>
        <time>2021-08-10T14:11:58.293Z</time>
      </trkpt>
      <trkpt lat="40.080294" lon="-0.581161">
        <ele>914.6</ele>
        <time>2021-08-10T14:12:20.869Z</time>
      </trkpt>
      <trkpt lat="40.080191" lon="-0.581191">
        <ele>914.9</ele>
        <time>2021-08-10T14:12:25.357Z</time>
      </trkpt>
      <trkpt lat="40.080089" lon="-0.581318">
        <ele>915.3</ele>
        <time>2021-08-10T14:12:31.622Z</time>
      </trkpt>
      <trkpt lat="40.079923" lon="-0.581724">
        <ele>916.3</ele>
        <time>2021-08-10T14:12:47.842Z</time>
      </trkpt>
      <trkpt lat="40.079709" lon="-0.582066">
        <ele>917.2</ele>
        <time>2021-08-10T14:13:03.592Z</time>
      </trkpt>
      <trkpt lat="40.079620" lon="-0.582488">
        <ele>918.1</ele>
        <time>2021-08-10T14:13:19.591Z</time>
      </trkpt>
      <trkpt lat="40.079393" lon="-0.583062">
        <ele>919.9</ele>
        <time>2021-08-10T14:13:43.749Z</time>
      </trkpt>
      <trkpt lat="40.079393" lon="-0.583353">
        <ele>920.7</ele>
        <time>2021-08-10T14:13:54.953Z</time>
      </trkpt>
      <trkpt lat="40.079891" lon="-0.584352">
        <ele>924.0</ele>
        <time>2021-08-10T14:14:42.438Z</time>
      </trkpt>
      <trkpt lat="40.080321" lon="-0.584452">
        <ele>925.0</ele>
        <time>2021-08-10T14:15:04.046Z</time>
      </trkpt>
      <trkpt lat="40.080674" lon="-0.584858">
        <ele>925.5</ele>
        <time>2021-08-10T14:15:24.784Z</time>
      </trkpt>
      <trkpt lat="40.081108" lon="-0.585644">
        <ele>926.4</ele>
        <time>2021-08-10T14:15:50.965Z</time>
      </trkpt>
      <trkpt lat="40.081609" lon="-0.586342">
        <ele>925.8</ele>
        <time>2021-08-10T14:16:12.194Z</time>
      </trkpt>
      <trkpt lat="40.081869" lon="-0.586794">
        <ele>924.7</ele>
        <time>2021-08-10T14:16:23.592Z</time>
      </trkpt>
      <trkpt lat="40.082075" lon="-0.587030">
        <ele>924.0</ele>
        <time>2021-08-10T14:16:30.681Z</time>
      </trkpt>
      <trkpt lat="40.082160" lon="-0.587283">
        <ele>923.5</ele>
        <time>2021-08-10T14:16:35.999Z</time>
      </trkpt>
      <trkpt lat="40.082312" lon="-0.587408">
        <ele>923.0</ele>
        <time>2021-08-10T14:16:40.529Z</time>
      </trkpt>
      <trkpt lat="40.082663" lon="-0.587464">
        <ele>922.2</ele>
        <time>2021-08-10T14:16:49.668Z</time>
      </trkpt>
      <trkpt lat="40.082844" lon="-0.587998">
        <ele>921.4</ele>
        <time>2021-08-10T14:17:01.270Z</time>
      </trkpt>
      <trkpt lat="40.083138" lon="-0.588330">
        <ele>920.8</ele>
        <time>2021-08-10T14:17:11.886Z</time>
      </trkpt>
      <trkpt lat="40.083164" lon="-0.588629">
        <ele>920.4</ele>
        <time>2021-08-10T14:17:19.176Z</time>
      </trkpt>
      <trkpt lat="40.083097" lon="-0.588855">
        <ele>920.1</ele>
        <time>2021-08-10T14:17:23.919Z</time>
      </trkpt>
      <trkpt lat="40.083111" lon="-0.588986">
        <ele>919.9</ele>
        <time>2021-08-10T14:17:28.879Z</time>
      </trkpt>
      <trkpt lat="40.083512" lon="-0.589467">
        <ele>919.3</ele>
        <time>2021-08-10T14:17:44.779Z</time>
      </trkpt>
      <trkpt lat="40.083533" lon="-0.589703">
        <ele>919.3</ele>
        <time>2021-08-10T14:17:51.994Z</time>
      </trkpt>
      <trkpt lat="40.083503" lon="-0.590329">
        <ele>919.3</ele>
        <time>2021-08-10T14:18:06.750Z</time>
      </trkpt>
      <trkpt lat="40.083228" lon="-0.591552">
        <ele>919.3</ele>
        <time>2021-08-10T14:18:39.738Z</time>
      </trkpt>
      <trkpt lat="40.083107" lon="-0.591909">
        <ele>919.4</ele>
        <time>2021-08-10T14:18:49.272Z</time>
      </trkpt>
      <trkpt lat="40.083384" lon="-0.591929">
        <ele>919.5</ele>
        <time>2021-08-10T14:18:58.340Z</time>
      </trkpt>
      <trkpt lat="40.083647" lon="-0.591895">
        <ele>919.6</ele>
        <time>2021-08-10T14:19:06.897Z</time>
      </trkpt>
      <trkpt lat="40.083988" lon="-0.592016">
        <ele>919.7</ele>
        <time>2021-08-10T14:19:18.345Z</time>
      </trkpt>
      <trkpt lat="40.084640" lon="-0.591956">
        <ele>919.9</ele>
        <time>2021-08-10T14:19:40.064Z</time>
      </trkpt>
      <trkpt lat="40.084741" lon="-0.592004">
        <ele>920.0</ele>
        <time>2021-08-10T14:19:43.966Z</time>
      </trkpt>
      <trkpt lat="40.084916" lon="-0.592330">
        <ele>920.3</ele>
        <time>2021-08-10T14:19:55.217Z</time>
      </trkpt>
      <trkpt lat="40.085484" lon="-0.592887">
        <ele>921.0</ele>
        <time>2021-08-10T14:20:20.909Z</time>
      </trkpt>
      <trkpt lat="40.085648" lon="-0.592946">
        <ele>921.1</ele>
        <time>2021-08-10T14:20:26.677Z</time>
      </trkpt>
      <trkpt lat="40.085771" lon="-0.593136">
        <ele>921.3</ele>
        <time>2021-08-10T14:20:33.347Z</time>
      </trkpt>
      <trkpt lat="40.086325" lon="-0.593654">
        <ele>922.6</ele>
        <time>2021-08-10T14:21:00.135Z</time>
      </trkpt>
      <trkpt lat="40.086591" lon="-0.594278">
        <ele>924.1</ele>
        <time>2021-08-10T14:21:24.967Z</time>
      </trkpt>
      <trkpt lat="40.086841" lon="-0.594340">
        <ele>924.7</ele>
        <time>2021-08-10T14:21:36.168Z</time>
      </trkpt>
      <trkpt lat="40.086832" lon="-0.594416">
        <ele>924.9</ele>
        <time>2021-08-10T14:21:38.505Z</time>
      </trkpt>
      <trkpt lat="40.086867" lon="-0.594549">
        <ele>925.2</ele>
        <time>2021-08-10T14:21:42.179Z</time>
      </trkpt>
      <trkpt lat="40.086950" lon="-0.594584">
        <ele>925.4</ele>
        <time>2021-08-10T14:21:45.423Z</time>
      </trkpt>
      <trkpt lat="40.086970" lon="-0.594620">
        <ele>925.5</ele>
        <time>2021-08-10T14:21:46.548Z</time>
      </trkpt>
      <trkpt lat="40.086998" lon="-0.594673">
        <ele>925.6</ele>
        <time>2021-08-10T14:21:49.881Z</time>
      </trkpt>
      <trkpt lat="40.087448" lon="-0.595005">
        <ele>927.5</ele>
        <time>2021-08-10T14:22:16.441Z</time>
      </trkpt>
      <trkpt lat="40.087567" lon="-0.595246">
        <ele>928.5</ele>
        <time>2021-08-10T14:22:27.926Z</time>
      </trkpt>
      <trkpt lat="40.087872" lon="-0.595387">
        <ele>930.0</ele>
        <time>2021-08-10T14:22:45.549Z</time>
      </trkpt>
      <trkpt lat="40.088007" lon="-0.595346">
        <ele>930.6</ele>
        <time>2021-08-10T14:22:54.226Z</time>
      </trkpt>
      <trkpt lat="40.088400" lon="-0.595694">
        <ele>932.8</ele>
        <time>2021-08-10T14:23:22.156Z</time>
      </trkpt>
      <trkpt lat="40.088544" lon="-0.595897">
        <ele>933.8</ele>
        <time>2021-08-10T14:23:33.549Z</time>
      </trkpt>
      <trkpt lat="40.088632" lon="-0.596022">
        <ele>934.4</ele>
        <time>2021-08-10T14:23:40.971Z</time>
      </trkpt>
      <trkpt lat="40.088996" lon="-0.596135">
        <ele>935.9</ele>
        <time>2021-08-10T14:24:00.959Z</time>
      </trkpt>
      <trkpt lat="40.089189" lon="-0.596269">
        <ele>936.8</ele>
        <time>2021-08-10T14:24:12.244Z</time>
      </trkpt>
      <trkpt lat="40.089495" lon="-0.596219">
        <ele>938.1</ele>
        <time>2021-08-10T14:24:28.649Z</time>
      </trkpt>
      <trkpt lat="40.089864" lon="-0.596515">
        <ele>939.8</ele>
        <time>2021-08-10T14:24:51.089Z</time>
      </trkpt>
      <trkpt lat="40.090138" lon="-0.596927">
        <ele>941.5</ele>
        <time>2021-08-10T14:25:12.056Z</time>
      </trkpt>
      <trkpt lat="40.090229" lon="-0.597449">
        <ele>942.9</ele>
        <time>2021-08-10T14:25:32.529Z</time>
      </trkpt>
      <trkpt lat="40.090176" lon="-0.597746">
        <ele>943.7</ele>
        <time>2021-08-10T14:25:44.194Z</time>
      </trkpt>
      <trkpt lat="40.090023" lon="-0.598093">
        <ele>944.7</ele>
        <time>2021-08-10T14:25:58.410Z</time>
      </trkpt>
      <trkpt lat="40.089767" lon="-0.599152">
        <ele>947.5</ele>
        <time>2021-08-10T14:26:39.143Z</time>
      </trkpt>
      <trkpt lat="40.089820" lon="-0.599703">
        <ele>948.4</ele>
        <time>2021-08-10T14:26:59.736Z</time>
      </trkpt>
      <trkpt lat="40.089945" lon="-0.600314">
        <ele>949.1</ele>
        <time>2021-08-10T14:27:21.771Z</time>
      </trkpt>
      <trkpt lat="40.090494" lon="-0.601211">
        <ele>950.5</ele>
        <time>2021-08-10T14:27:53.994Z</time>
      </trkpt>
      <trkpt lat="40.090805" lon="-0.601606">
        <ele>949.9</ele>
        <time>2021-08-10T14:28:06.933Z</time>
      </trkpt>
      <trkpt lat="40.091192" lon="-0.602270">
        <ele>948.5</ele>
        <time>2021-08-10T14:28:24.441Z</time>
      </trkpt>
      <trkpt lat="40.091304" lon="-0.602633">
        <ele>947.9</ele>
        <time>2021-08-10T14:28:32.205Z</time>
      </trkpt>
      <trkpt lat="40.091339" lon="-0.602975">
        <ele>947.3</ele>
        <time>2021-08-10T14:28:38.911Z</time>
      </trkpt>
      <trkpt lat="40.091554" lon="-0.603359">
        <ele>946.4</ele>
        <time>2021-08-10T14:28:48.088Z</time>
      </trkpt>
      <trkpt lat="40.091678" lon="-0.604316">
        <ele>944.4</ele>
        <time>2021-08-10T14:29:07.216Z</time>
      </trkpt>
      <trkpt lat="40.091697" lon="-0.604944">
        <ele>943.1</ele>
        <time>2021-08-10T14:29:20.017Z</time>
      </trkpt>
      <trkpt lat="40.091314" lon="-0.605706">
        <ele>941.6</ele>
        <time>2021-08-10T14:29:39.355Z</time>
      </trkpt>
      <trkpt lat="40.091289" lon="-0.605983">
        <ele>941.5</ele>
        <time>2021-08-10T14:29:45.527Z</time>
      </trkpt>
      <trkpt lat="40.091251" lon="-0.607328">
        <ele>940.7</ele>
        <time>2021-08-10T14:30:15.580Z</time>
      </trkpt>
      <trkpt lat="40.091373" lon="-0.608245">
        <ele>942.3</ele>
        <time>2021-08-10T14:30:38.081Z</time>
      </trkpt>
      <trkpt lat="40.091329" lon="-0.608543">
        <ele>943.4</ele>
        <time>2021-08-10T14:30:52.398Z</time>
      </trkpt>
      <trkpt lat="40.091345" lon="-0.608877">
        <ele>944.6</ele>
        <time>2021-08-10T14:31:05.744Z</time>
      </trkpt>
      <trkpt lat="40.091279" lon="-0.609285">
        <ele>946.2</ele>
        <time>2021-08-10T14:31:24.118Z</time>
      </trkpt>
      <trkpt lat="40.091220" lon="-0.609676">
        <ele>947.7</ele>
        <time>2021-08-10T14:31:42.576Z</time>
      </trkpt>
      <trkpt lat="40.091304" lon="-0.609851">
        <ele>948.5</ele>
        <time>2021-08-10T14:31:58.220Z</time>
      </trkpt>
      <trkpt lat="40.091370" lon="-0.610096">
        <ele>949.8</ele>
        <time>2021-08-10T14:32:08.682Z</time>
      </trkpt>
      <trkpt lat="40.091523" lon="-0.610353">
        <ele>952.5</ele>
        <time>2021-08-10T14:32:30.977Z</time>
      </trkpt>
      <trkpt lat="40.091747" lon="-0.610605">
        <ele>955.8</ele>
        <time>2021-08-10T14:32:57.488Z</time>
      </trkpt>
      <trkpt lat="40.092018" lon="-0.610756">
        <ele>959.1</ele>
        <time>2021-08-10T14:33:23.809Z</time>
      </trkpt>
      <trkpt lat="40.092280" lon="-0.610866">
        <ele>962.1</ele>
        <time>2021-08-10T14:33:48.085Z</time>
      </trkpt>
      <trkpt lat="40.093125" lon="-0.610936">
        <ele>971.5</ele>
        <time>2021-08-10T14:35:07.987Z</time>
      </trkpt>
      <trkpt lat="40.093319" lon="-0.611078">
        <ele>974.0</ele>
        <time>2021-08-10T14:35:26.992Z</time>
      </trkpt>
      <trkpt lat="40.093437" lon="-0.611074">
        <ele>975.3</ele>
        <time>2021-08-10T14:35:37.161Z</time>
      </trkpt>
      <trkpt lat="40.093496" lon="-0.611017">
        <ele>976.1</ele>
        <time>2021-08-10T14:35:43.599Z</time>
      </trkpt>
      <trkpt lat="40.093789" lon="-0.611103">
        <ele>979.5</ele>
        <time>2021-08-10T14:36:09.566Z</time>
      </trkpt>
      <trkpt lat="40.093827" lon="-0.611310">
        <ele>981.3</ele>
        <time>2021-08-10T14:36:24.124Z</time>
      </trkpt>
      <trkpt lat="40.093786" lon="-0.611693">
        <ele>984.6</ele>
        <time>2021-08-10T14:36:50.340Z</time>
      </trkpt>
      <trkpt lat="40.093911" lon="-0.611877">
        <ele>986.7</ele>
        <time>2021-08-10T14:37:06.395Z</time>
      </trkpt>
      <trkpt lat="40.094235" lon="-0.611971">
        <ele>990.2</ele>
        <time>2021-08-10T14:37:34.717Z</time>
      </trkpt>
      <trkpt lat="40.094410" lon="-0.612142">
        <ele>992.2</ele>
        <time>2021-08-10T14:37:53.265Z</time>
      </trkpt>
      <trkpt lat="40.094700" lon="-0.612264">
        <ele>994.9</ele>
        <time>2021-08-10T14:38:18.590Z</time>
      </trkpt>
      <trkpt lat="40.094996" lon="-0.612554">
        <ele>998.2</ele>
        <time>2021-08-10T14:38:49.022Z</time>
      </trkpt>
      <trkpt lat="40.095934" lon="-0.613948">
        <ele>1006.5</ele>
        <time>2021-08-10T14:40:24.980Z</time>
      </trkpt>
      <trkpt lat="40.096440" lon="-0.614200">
        <ele>1007.5</ele>
        <time>2021-08-10T14:40:48.234Z</time>
      </trkpt>
      <trkpt lat="40.096892" lon="-0.614269">
        <ele>1008.3</ele>
        <time>2021-08-10T14:41:03.570Z</time>
      </trkpt>
      <trkpt lat="40.097859" lon="-0.614289">
        <ele>998.4</ele>
        <time>2021-08-10T14:41:25.414Z</time>
      </trkpt>
      <trkpt lat="40.098000" lon="-0.614211">
        <ele>996.4</ele>
        <time>2021-08-10T14:41:28.571Z</time>
      </trkpt>
      <trkpt lat="40.098106" lon="-0.614074">
        <ele>994.5</ele>
        <time>2021-08-10T14:41:31.658Z</time>
      </trkpt>
      <trkpt lat="40.098192" lon="-0.614056">
        <ele>993.3</ele>
        <time>2021-08-10T14:41:33.394Z</time>
      </trkpt>
      <trkpt lat="40.098339" lon="-0.614129">
        <ele>991.2</ele>
        <time>2021-08-10T14:41:36.432Z</time>
      </trkpt>
      <trkpt lat="40.098461" lon="-0.614077">
        <ele>989.6</ele>
        <time>2021-08-10T14:41:39.056Z</time>
      </trkpt>
      <trkpt lat="40.098531" lon="-0.614132">
        <ele>988.5</ele>
        <time>2021-08-10T14:41:40.661Z</time>
      </trkpt>
      <trkpt lat="40.098558" lon="-0.613716">
        <ele>983.5</ele>
        <time>2021-08-10T14:41:46.884Z</time>
      </trkpt>
      <trkpt lat="40.098115" lon="-0.612875">
        <ele>962.8</ele>
        <time>2021-08-10T14:42:02.030Z</time>
      </trkpt>
      <trkpt lat="40.098115" lon="-0.612875">
        <ele>962.8</ele>
        <time>2021-08-10T14:42:02.308Z</time>
      </trkpt>
      <trkpt lat="40.097922" lon="-0.611633">
        <ele>937.2</ele>
        <time>2021-08-10T14:42:21.286Z</time>
      </trkpt>
      <trkpt lat="40.097973" lon="-0.611409">
        <ele>932.9</ele>
        <time>2021-08-10T14:42:24.828Z</time>
      </trkpt>
      <trkpt lat="40.098151" lon="-0.611157">
        <ele>926.5</ele>
        <time>2021-08-10T14:42:29.922Z</time>
      </trkpt>
      <trkpt lat="40.098251" lon="-0.610699">
        <ele>917.7</ele>
        <time>2021-08-10T14:42:37.040Z</time>
      </trkpt>
      <trkpt lat="40.098437" lon="-0.610316">
        <ele>909.3</ele>
        <time>2021-08-10T14:42:43.756Z</time>
      </trkpt>
      <trkpt lat="40.098294" lon="-0.609718">
        <ele>897.7</ele>
        <time>2021-08-10T14:42:53.047Z</time>
      </trkpt>
      <trkpt lat="40.098315" lon="-0.609298">
        <ele>891.7</ele>
        <time>2021-08-10T14:42:59.347Z</time>
      </trkpt>
      <trkpt lat="40.098073" lon="-0.609289">
        <ele>888.4</ele>
        <time>2021-08-10T14:43:04.147Z</time>
      </trkpt>
      <trkpt lat="40.098044" lon="-0.609083">
        <ele>886.3</ele>
        <time>2021-08-10T14:43:07.342Z</time>
      </trkpt>
      <trkpt lat="40.098337" lon="-0.608663">
        <ele>880.4</ele>
        <time>2021-08-10T14:43:16.254Z</time>
      </trkpt>
      <trkpt lat="40.098844" lon="-0.608364">
        <ele>872.9</ele>
        <time>2021-08-10T14:43:28.127Z</time>
      </trkpt>
      <trkpt lat="40.099337" lon="-0.608325">
        <ele>868.6</ele>
        <time>2021-08-10T14:43:39.347Z</time>
      </trkpt>
      <trkpt lat="40.099695" lon="-0.608394">
        <ele>866.9</ele>
        <time>2021-08-10T14:43:47.941Z</time>
      </trkpt>
      <trkpt lat="40.099910" lon="-0.608352">
        <ele>865.8</ele>
        <time>2021-08-10T14:43:53.220Z</time>
      </trkpt>
      <trkpt lat="40.100518" lon="-0.608757">
        <ele>862.6</ele>
        <time>2021-08-10T14:44:10.685Z</time>
      </trkpt>
      <trkpt lat="40.100696" lon="-0.609208">
        <ele>861.1</ele>
        <time>2021-08-10T14:44:20.788Z</time>
      </trkpt>
      <trkpt lat="40.101319" lon="-0.609587">
        <ele>859.9</ele>
        <time>2021-08-10T14:44:39.110Z</time>
      </trkpt>
      <trkpt lat="40.101698" lon="-0.609499">
        <ele>859.2</ele>
        <time>2021-08-10T14:44:49.997Z</time>
      </trkpt>
      <trkpt lat="40.102260" lon="-0.609193">
        <ele>858.1</ele>
        <time>2021-08-10T14:45:07.671Z</time>
      </trkpt>
      <trkpt lat="40.102843" lon="-0.609346">
        <ele>858.4</ele>
        <time>2021-08-10T14:45:26.277Z</time>
      </trkpt>
      <trkpt lat="40.103229" lon="-0.609549">
        <ele>858.6</ele>
        <time>2021-08-10T14:45:39.869Z</time>
      </trkpt>
      <trkpt lat="40.104114" lon="-0.609647">
        <ele>859.1</ele>
        <time>2021-08-10T14:46:13.563Z</time>
      </trkpt>
      <trkpt lat="40.104776" lon="-0.609576">
        <ele>860.3</ele>
        <time>2021-08-10T14:46:38.873Z</time>
      </trkpt>
      <trkpt lat="40.105148" lon="-0.609390">
        <ele>861.0</ele>
        <time>2021-08-10T14:46:55.418Z</time>
      </trkpt>
      <trkpt lat="40.105364" lon="-0.608657">
        <ele>862.1</ele>
        <time>2021-08-10T14:47:21.172Z</time>
      </trkpt>
      <trkpt lat="40.105559" lon="-0.608488">
        <ele>863.1</ele>
        <time>2021-08-10T14:47:31.392Z</time>
      </trkpt>
      <trkpt lat="40.105702" lon="-0.608365">
        <ele>863.9</ele>
        <time>2021-08-10T14:47:39.263Z</time>
      </trkpt>
      <trkpt lat="40.105959" lon="-0.608392">
        <ele>865.1</ele>
        <time>2021-08-10T14:47:51.605Z</time>
      </trkpt>
      <trkpt lat="40.106513" lon="-0.609470">
        <ele>869.6</ele>
        <time>2021-08-10T14:48:47.062Z</time>
      </trkpt>
      <trkpt lat="40.106533" lon="-0.610663">
        <ele>875.4</ele>
        <time>2021-08-10T14:49:51.980Z</time>
      </trkpt>
      <trkpt lat="40.106319" lon="-0.611242">
        <ele>878.7</ele>
        <time>2021-08-10T14:50:24.460Z</time>
      </trkpt>
      <trkpt lat="40.106229" lon="-0.611484">
        <ele>880.1</ele>
        <time>2021-08-10T14:50:40.050Z</time>
      </trkpt>
      <trkpt lat="40.105432" lon="-0.613006">
        <ele>884.8</ele>
        <time>2021-08-10T14:52:02.053Z</time>
      </trkpt>
      <trkpt lat="40.105391" lon="-0.613084">
        <ele>885.0</ele>
        <time>2021-08-10T14:52:04.747Z</time>
      </trkpt>
      <trkpt lat="40.105391" lon="-0.613897">
        <ele>886.3</ele>
        <time>2021-08-10T14:52:21.526Z</time>
      </trkpt>
      <trkpt lat="40.105421" lon="-0.614011">
        <ele>886.3</ele>
        <time>2021-08-10T14:52:23.883Z</time>
      </trkpt>
      <trkpt lat="40.105488" lon="-0.614070">
        <ele>886.0</ele>
        <time>2021-08-10T14:52:26.092Z</time>
      </trkpt>
      <trkpt lat="40.105548" lon="-0.614310">
        <ele>885.2</ele>
        <time>2021-08-10T14:52:30.953Z</time>
      </trkpt>
      <trkpt lat="40.105717" lon="-0.614508">
        <ele>884.2</ele>
        <time>2021-08-10T14:52:36.696Z</time>
      </trkpt>
      <trkpt lat="40.105813" lon="-0.614878">
        <ele>882.9</ele>
        <time>2021-08-10T14:52:44.217Z</time>
      </trkpt>
      <trkpt lat="40.105808" lon="-0.615083">
        <ele>882.3</ele>
        <time>2021-08-10T14:52:47.943Z</time>
      </trkpt>
      <trkpt lat="40.105794" lon="-0.615411">
        <ele>881.2</ele>
        <time>2021-08-10T14:52:53.873Z</time>
      </trkpt>
      <trkpt lat="40.105744" lon="-0.615602">
        <ele>880.6</ele>
        <time>2021-08-10T14:52:57.528Z</time>
      </trkpt>
      <trkpt lat="40.105749" lon="-0.615904">
        <ele>879.6</ele>
        <time>2021-08-10T14:53:03.016Z</time>
      </trkpt>
      <trkpt lat="40.105647" lon="-0.616359">
        <ele>878.3</ele>
        <time>2021-08-10T14:53:12.042Z</time>
      </trkpt>
      <trkpt lat="40.105404" lon="-0.616755">
        <ele>877.2</ele>
        <time>2021-08-10T14:53:21.810Z</time>
      </trkpt>
      <trkpt lat="40.105333" lon="-0.616947">
        <ele>876.7</ele>
        <time>2021-08-10T14:53:25.816Z</time>
      </trkpt>
      <trkpt lat="40.105252" lon="-0.616898">
        <ele>876.5</ele>
        <time>2021-08-10T14:53:28.452Z</time>
      </trkpt>
      <trkpt lat="40.105138" lon="-0.616957">
        <ele>876.1</ele>
        <time>2021-08-10T14:53:31.816Z</time>
      </trkpt>
      <trkpt lat="40.105019" lon="-0.617486">
        <ele>874.9</ele>
        <time>2021-08-10T14:53:43.456Z</time>
      </trkpt>
      <trkpt lat="40.104671" lon="-0.618259">
        <ele>873.0</ele>
        <time>2021-08-10T14:54:02.730Z</time>
      </trkpt>
      <trkpt lat="40.104632" lon="-0.618513">
        <ele>872.5</ele>
        <time>2021-08-10T14:54:08.279Z</time>
      </trkpt>
      <trkpt lat="40.104842" lon="-0.618899">
        <ele>871.6</ele>
        <time>2021-08-10T14:54:18.045Z</time>
      </trkpt>
      <trkpt lat="40.105001" lon="-0.618929">
        <ele>871.2</ele>
        <time>2021-08-10T14:54:22.364Z</time>
      </trkpt>
      <trkpt lat="40.105303" lon="-0.618550">
        <ele>870.1</ele>
        <time>2021-08-10T14:54:33.347Z</time>
      </trkpt>
      <trkpt lat="40.105565" lon="-0.618416">
        <ele>869.4</ele>
        <time>2021-08-10T14:54:40.546Z</time>
      </trkpt>
      <trkpt lat="40.105770" lon="-0.618483">
        <ele>868.6</ele>
        <time>2021-08-10T14:54:45.904Z</time>
      </trkpt>
      <trkpt lat="40.105922" lon="-0.618777">
        <ele>867.3</ele>
        <time>2021-08-10T14:54:52.918Z</time>
      </trkpt>
      <trkpt lat="40.106036" lon="-0.618748">
        <ele>866.7</ele>
        <time>2021-08-10T14:54:55.657Z</time>
      </trkpt>
      <trkpt lat="40.106311" lon="-0.618340">
        <ele>864.7</ele>
        <time>2021-08-10T14:55:05.969Z</time>
      </trkpt>
      <trkpt lat="40.106446" lon="-0.618396">
        <ele>864.0</ele>
        <time>2021-08-10T14:55:09.474Z</time>
      </trkpt>
      <trkpt lat="40.106580" lon="-0.618596">
        <ele>863.0</ele>
        <time>2021-08-10T14:55:14.269Z</time>
      </trkpt>
      <trkpt lat="40.106681" lon="-0.618628">
        <ele>862.5</ele>
        <time>2021-08-10T14:55:16.771Z</time>
      </trkpt>
      <trkpt lat="40.106804" lon="-0.618508">
        <ele>861.7</ele>
        <time>2021-08-10T14:55:20.359Z</time>
      </trkpt>
      <trkpt lat="40.106953" lon="-0.617444">
        <ele>856.1</ele>
        <time>2021-08-10T14:55:39.394Z</time>
      </trkpt>
      <trkpt lat="40.107002" lon="-0.617304">
        <ele>855.1</ele>
        <time>2021-08-10T14:55:42.078Z</time>
      </trkpt>
      <trkpt lat="40.107379" lon="-0.616825">
        <ele>851.0</ele>
        <time>2021-08-10T14:55:53.793Z</time>
      </trkpt>
      <trkpt lat="40.107498" lon="-0.616327">
        <ele>847.8</ele>
        <time>2021-08-10T14:56:02.557Z</time>
      </trkpt>
      <trkpt lat="40.107477" lon="-0.616123">
        <ele>846.5</ele>
        <time>2021-08-10T14:56:05.987Z</time>
      </trkpt>
      <trkpt lat="40.107576" lon="-0.615903">
        <ele>844.6</ele>
        <time>2021-08-10T14:56:10.211Z</time>
      </trkpt>
      <trkpt lat="40.107715" lon="-0.615742">
        <ele>842.6</ele>
        <time>2021-08-10T14:56:14.224Z</time>
      </trkpt>
      <trkpt lat="40.107723" lon="-0.615479">
        <ele>840.4</ele>
        <time>2021-08-10T14:56:18.546Z</time>
      </trkpt>
      <trkpt lat="40.107994" lon="-0.614551">
        <ele>832.2</ele>
        <time>2021-08-10T14:56:34.751Z</time>
      </trkpt>
      <trkpt lat="40.108039" lon="-0.614277">
        <ele>829.9</ele>
        <time>2021-08-10T14:56:39.279Z</time>
      </trkpt>
      <trkpt lat="40.108002" lon="-0.613934">
        <ele>827.0</ele>
        <time>2021-08-10T14:56:44.855Z</time>
      </trkpt>
      <trkpt lat="40.108142" lon="-0.613462">
        <ele>820.8</ele>
        <time>2021-08-10T14:56:52.882Z</time>
      </trkpt>
      <trkpt lat="40.108211" lon="-0.613027">
        <ele>815.1</ele>
        <time>2021-08-10T14:56:59.821Z</time>
      </trkpt>
      <trkpt lat="40.108535" lon="-0.612292">
        <ele>804.3</ele>
        <time>2021-08-10T14:57:12.668Z</time>
      </trkpt>
      <trkpt lat="40.108909" lon="-0.611949">
        <ele>796.7</ele>
        <time>2021-08-10T14:57:21.631Z</time>
      </trkpt>
      <trkpt lat="40.109364" lon="-0.611686">
        <ele>785.8</ele>
        <time>2021-08-10T14:57:31.348Z</time>
      </trkpt>
      <trkpt lat="40.109488" lon="-0.611529">
        <ele>781.9</ele>
        <time>2021-08-10T14:57:34.693Z</time>
      </trkpt>
      <trkpt lat="40.110000" lon="-0.610876">
        <ele>766.1</ele>
        <time>2021-08-10T14:57:48.548Z</time>
      </trkpt>
      <trkpt lat="40.110989" lon="-0.610345">
        <ele>742.5</ele>
        <time>2021-08-10T14:58:09.230Z</time>
      </trkpt>
      <trkpt lat="40.111465" lon="-0.610243">
        <ele>731.8</ele>
        <time>2021-08-10T14:58:18.621Z</time>
      </trkpt>
      <trkpt lat="40.111534" lon="-0.610212">
        <ele>730.2</ele>
        <time>2021-08-10T14:58:20.072Z</time>
      </trkpt>
      <trkpt lat="40.112242" lon="-0.610443">
        <ele>714.5</ele>
        <time>2021-08-10T14:58:34.263Z</time>
      </trkpt>
      <trkpt lat="40.112755" lon="-0.610542">
        <ele>704.5</ele>
        <time>2021-08-10T14:58:44.429Z</time>
      </trkpt>
      <trkpt lat="40.113083" lon="-0.610277">
        <ele>697.1</ele>
        <time>2021-08-10T14:58:51.960Z</time>
      </trkpt>
      <trkpt lat="40.113336" lon="-0.610161">
        <ele>692.0</ele>
        <time>2021-08-10T14:58:57.258Z</time>
      </trkpt>
      <trkpt lat="40.113629" lon="-0.610424">
        <ele>685.1</ele>
        <time>2021-08-10T14:59:04.293Z</time>
      </trkpt>
      <trkpt lat="40.113953" lon="-0.610407">
        <ele>679.1</ele>
        <time>2021-08-10T14:59:10.722Z</time>
      </trkpt>
      <trkpt lat="40.115018" lon="-0.610614">
        <ele>659.6</ele>
        <time>2021-08-10T14:59:31.962Z</time>
      </trkpt>
      <trkpt lat="40.115601" lon="-0.610643">
        <ele>649.2</ele>
        <time>2021-08-10T14:59:43.445Z</time>
      </trkpt>
      <trkpt lat="40.115923" lon="-0.610795">
        <ele>644.1</ele>
        <time>2021-08-10T14:59:50.222Z</time>
      </trkpt>
      <trkpt lat="40.116176" lon="-0.611089">
        <ele>639.0</ele>
        <time>2021-08-10T14:59:56.988Z</time>
      </trkpt>
      <trkpt lat="40.116537" lon="-0.611127">
        <ele>633.7</ele>
        <time>2021-08-10T15:00:04.253Z</time>
      </trkpt>
      <trkpt lat="40.116583" lon="-0.611065">
        <ele>632.7</ele>
        <time>2021-08-10T15:00:05.574Z</time>
      </trkpt>
      <trkpt lat="40.116627" lon="-0.610794">
        <ele>629.5</ele>
        <time>2021-08-10T15:00:10.081Z</time>
      </trkpt>
      <trkpt lat="40.116727" lon="-0.610781">
        <ele>628.0</ele>
        <time>2021-08-10T15:00:12.062Z</time>
      </trkpt>
      <trkpt lat="40.116728" lon="-0.610529">
        <ele>625.2</ele>
        <time>2021-08-10T15:00:14.528Z</time>
      </trkpt>
      <trkpt lat="40.116726" lon="-0.610334">
        <ele>622.9</ele>
        <time>2021-08-10T15:00:16.354Z</time>
      </trkpt>
      <trkpt lat="40.116743" lon="-0.610263">
        <ele>622.5</ele>
        <time>2021-08-10T15:00:17.067Z</time>
      </trkpt>
      <trkpt lat="40.116778" lon="-0.610193">
        <ele>622.1</ele>
        <time>2021-08-10T15:00:17.873Z</time>
      </trkpt>
      <trkpt lat="40.117015" lon="-0.609946">
        <ele>620.0</ele>
        <time>2021-08-10T15:00:21.749Z</time>
      </trkpt>
      <trkpt lat="40.117112" lon="-0.609702">
        <ele>618.5</ele>
        <time>2021-08-10T15:00:24.680Z</time>
      </trkpt>
      <trkpt lat="40.117107" lon="-0.609666">
        <ele>618.3</ele>
        <time>2021-08-10T15:00:25.007Z</time>
      </trkpt>
      <trkpt lat="40.117150" lon="-0.609734">
        <ele>617.8</ele>
        <time>2021-08-10T15:00:26.417Z</time>
      </trkpt>
      <trkpt lat="40.117190" lon="-0.609936">
        <ele>616.7</ele>
        <time>2021-08-10T15:00:30.196Z</time>
      </trkpt>
      <trkpt lat="40.117098" lon="-0.610179">
        <ele>615.2</ele>
        <time>2021-08-10T15:00:34.758Z</time>
      </trkpt>
      <trkpt lat="40.117110" lon="-0.610280">
        <ele>614.7</ele>
        <time>2021-08-10T15:00:36.673Z</time>
      </trkpt>
      <trkpt lat="40.117139" lon="-0.610393">
        <ele>614.0</ele>
        <time>2021-08-10T15:00:39.084Z</time>
      </trkpt>
      <trkpt lat="40.117344" lon="-0.610448">
        <ele>612.6</ele>
        <time>2021-08-10T15:00:44.171Z</time>
      </trkpt>
      <trkpt lat="40.117662" lon="-0.610471">
        <ele>610.3</ele>
        <time>2021-08-10T15:00:52.335Z</time>
      </trkpt>
      <trkpt lat="40.118017" lon="-0.610608">
        <ele>609.5</ele>
        <time>2021-08-10T15:01:02.257Z</time>
      </trkpt>
      <trkpt lat="40.118017" lon="-0.610608">
        <ele>609.5</ele>
        <time>2021-08-10T15:01:02.288Z</time>
      </trkpt>
      <trkpt lat="40.118017" lon="-0.610607">
        <ele>609.5</ele>
        <time>2021-08-10T15:01:02.321Z</time>
      </trkpt>
      <trkpt lat="40.118020" lon="-0.610593">
        <ele>609.5</ele>
        <time>2021-08-10T15:01:02.798Z</time>
      </trkpt>
      <trkpt lat="40.118121" lon="-0.610635">
        <ele>609.2</ele>
        <time>2021-08-10T15:01:07.326Z</time>
      </trkpt>
      <trkpt lat="40.118181" lon="-0.610662">
        <ele>609.1</ele>
        <time>2021-08-10T15:01:10.036Z</time>
      </trkpt>
      <trkpt lat="40.118255" lon="-0.610710">
        <ele>608.9</ele>
        <time>2021-08-10T15:01:13.568Z</time>
      </trkpt>
      <trkpt lat="40.118312" lon="-0.610744">
        <ele>608.8</ele>
        <time>2021-08-10T15:01:16.247Z</time>
      </trkpt>
      <trkpt lat="40.118362" lon="-0.610777">
        <ele>608.7</ele>
        <time>2021-08-10T15:01:18.647Z</time>
      </trkpt>
      <trkpt lat="40.118480" lon="-0.610859">
        <ele>608.4</ele>
        <time>2021-08-10T15:01:24.358Z</time>
      </trkpt>
      <trkpt lat="40.118512" lon="-0.610899">
        <ele>608.3</ele>
        <time>2021-08-10T15:01:26.252Z</time>
      </trkpt>
      <trkpt lat="40.118529" lon="-0.610777">
        <ele>608.1</ele>
        <time>2021-08-10T15:01:30.318Z</time>
      </trkpt>
      <trkpt lat="40.118519" lon="-0.610697">
        <ele>608.0</ele>
        <time>2021-08-10T15:01:32.980Z</time>
      </trkpt>
      <trkpt lat="40.118512" lon="-0.610608">
        <ele>607.8</ele>
        <time>2021-08-10T15:01:35.915Z</time>
      </trkpt>
      <trkpt lat="40.118500" lon="-0.610527">
        <ele>607.7</ele>
        <time>2021-08-10T15:01:38.619Z</time>
      </trkpt>
      <trkpt lat="40.118497" lon="-0.610437">
        <ele>607.5</ele>
        <time>2021-08-10T15:01:41.574Z</time>
      </trkpt>
      <trkpt lat="40.118496" lon="-0.610395">
        <ele>607.5</ele>
        <time>2021-08-10T15:01:42.951Z</time>
      </trkpt>
      <trkpt lat="40.118489" lon="-0.610335">
        <ele>607.4</ele>
        <time>2021-08-10T15:01:44.941Z</time>
      </trkpt>
      <trkpt lat="40.118486" lon="-0.610311">
        <ele>607.3</ele>
        <time>2021-08-10T15:01:45.737Z</time>
      </trkpt>
      <trkpt lat="40.118488" lon="-0.610284">
        <ele>607.3</ele>
        <time>2021-08-10T15:01:46.627Z</time>
      </trkpt>
      <trkpt lat="40.118628" lon="-0.610268">
        <ele>607.0</ele>
        <time>2021-08-10T15:01:52.632Z</time>
      </trkpt>
      <trkpt lat="40.119192" lon="-0.610436">
        <ele>606.2</ele>
        <time>2021-08-10T15:02:17.342Z</time>
      </trkpt>
      <trkpt lat="40.119183" lon="-0.610484">
        <ele>606.2</ele>
        <time>2021-08-10T15:02:18.970Z</time>
      </trkpt>
      <trkpt lat="40.119632" lon="-0.610634">
        <ele>606.0</ele>
        <time>2021-08-10T15:02:26.618Z</time>
      </trkpt>
      <trkpt lat="40.121046" lon="-0.611097">
        <ele>607.5</ele>
        <time>2021-08-10T15:02:55.049Z</time>
      </trkpt>
      <trkpt lat="40.121096" lon="-0.611113">
        <ele>607.7</ele>
        <time>2021-08-10T15:02:56.242Z</time>
      </trkpt>
      <trkpt lat="40.121115" lon="-0.610855">
        <ele>608.6</ele>
        <time>2021-08-10T15:03:08.344Z</time>
      </trkpt>
      <trkpt lat="40.121196" lon="-0.610078">
        <ele>611.2</ele>
        <time>2021-08-10T15:03:36.153Z</time>
      </trkpt>
      <trkpt lat="40.121215" lon="-0.609177">
        <ele>614.6</ele>
        <time>2021-08-10T15:04:21.889Z</time>
      </trkpt>
      <trkpt lat="40.121230" lon="-0.609105">
        <ele>615.0</ele>
        <time>2021-08-10T15:04:25.812Z</time>
      </trkpt>
      <trkpt lat="40.121241" lon="-0.609049">
        <ele>615.3</ele>
        <time>2021-08-10T15:04:32.047Z</time>
      </trkpt>
      <trkpt lat="40.121315" lon="-0.608864">
        <ele>616.3</ele>
        <time>2021-08-10T15:04:39.451Z</time>
      </trkpt>
      <trkpt lat="40.121381" lon="-0.608818">
        <ele>616.7</ele>
        <time>2021-08-10T15:04:42.326Z</time>
      </trkpt>
      <trkpt lat="40.121650" lon="-0.608985">
        <ele>618.6</ele>
        <time>2021-08-10T15:05:01.284Z</time>
      </trkpt>
      <trkpt lat="40.121679" lon="-0.609003">
        <ele>618.8</ele>
        <time>2021-08-10T15:05:02.641Z</time>
      </trkpt>
      <trkpt lat="40.121722" lon="-0.609007">
        <ele>619.1</ele>
        <time>2021-08-10T15:05:03.959Z</time>
      </trkpt>
      <trkpt lat="40.121819" lon="-0.609015">
        <ele>619.7</ele>
        <time>2021-08-10T15:05:11.050Z</time>
      </trkpt>
      <trkpt lat="40.121845" lon="-0.609029">
        <ele>619.8</ele>
        <time>2021-08-10T15:05:15.068Z</time>
      </trkpt>
      <trkpt lat="40.121841" lon="-0.608903">
        <ele>620.4</ele>
        <time>2021-08-10T15:05:18.441Z</time>
      </trkpt>
      <trkpt lat="40.121764" lon="-0.608687">
        <ele>621.6</ele>
        <time>2021-08-10T15:05:25.679Z</time>
      </trkpt>
      <trkpt lat="40.121736" lon="-0.608606">
        <ele>622.0</ele>
        <time>2021-08-10T15:05:34.660Z</time>
      </trkpt>
      <trkpt lat="40.121710" lon="-0.608551">
        <ele>622.3</ele>
        <time>2021-08-10T15:05:39.085Z</time>
      </trkpt>
      <trkpt lat="40.121692" lon="-0.608521">
        <ele>622.5</ele>
        <time>2021-08-10T15:05:39.737Z</time>
      </trkpt>
      <trkpt lat="40.121398" lon="-0.608327">
        <ele>624.4</ele>
        <time>2021-08-10T15:06:00.330Z</time>
      </trkpt>
      <trkpt lat="40.121259" lon="-0.607911">
        <ele>624.0</ele>
        <time>2021-08-10T15:06:12.646Z</time>
      </trkpt>
      <trkpt lat="40.121195" lon="-0.607850">
        <ele>623.9</ele>
        <time>2021-08-10T15:06:14.638Z</time>
      </trkpt>
      <trkpt lat="40.120636" lon="-0.608099">
        <ele>623.2</ele>
        <time>2021-08-10T15:06:31.112Z</time>
      </trkpt>
      <trkpt lat="40.120372" lon="-0.607760">
        <ele>622.7</ele>
        <time>2021-08-10T15:06:40.275Z</time>
      </trkpt>
      <trkpt lat="40.119906" lon="-0.607485">
        <ele>622.0</ele>
        <time>2021-08-10T15:06:53.266Z</time>
      </trkpt>
      <trkpt lat="40.119272" lon="-0.606980">
        <ele>620.7</ele>
        <time>2021-08-10T15:07:12.917Z</time>
      </trkpt>
      <trkpt lat="40.119122" lon="-0.606951">
        <ele>620.5</ele>
        <time>2021-08-10T15:07:17.171Z</time>
      </trkpt>
      <trkpt lat="40.118681" lon="-0.607098">
        <ele>619.7</ele>
        <time>2021-08-10T15:07:30.233Z</time>
      </trkpt>
      <trkpt lat="40.118551" lon="-0.607039">
        <ele>619.4</ele>
        <time>2021-08-10T15:07:34.366Z</time>
      </trkpt>
      <trkpt lat="40.118450" lon="-0.606550">
        <ele>619.5</ele>
        <time>2021-08-10T15:07:47.224Z</time>
      </trkpt>
      <trkpt lat="40.118210" lon="-0.606195">
        <ele>620.2</ele>
        <time>2021-08-10T15:08:00.500Z</time>
      </trkpt>
      <trkpt lat="40.117774" lon="-0.604942">
        <ele>622.4</ele>
        <time>2021-08-10T15:08:46.234Z</time>
      </trkpt>
      <trkpt lat="40.117368" lon="-0.604446">
        <ele>624.9</ele>
        <time>2021-08-10T15:09:15.661Z</time>
      </trkpt>
      <trkpt lat="40.117189" lon="-0.604018">
        <ele>627.1</ele>
        <time>2021-08-10T15:09:37.477Z</time>
      </trkpt>
      <trkpt lat="40.116913" lon="-0.603659">
        <ele>629.3</ele>
        <time>2021-08-10T15:10:01.253Z</time>
      </trkpt>
      <trkpt lat="40.116692" lon="-0.603219">
        <ele>631.7</ele>
        <time>2021-08-10T15:10:27.290Z</time>
      </trkpt>
      <trkpt lat="40.116627" lon="-0.602669">
        <ele>634.6</ele>
        <time>2021-08-10T15:10:57.157Z</time>
      </trkpt>
      <trkpt lat="40.116700" lon="-0.602062">
        <ele>638.9</ele>
        <time>2021-08-10T15:11:31.955Z</time>
      </trkpt>
      <trkpt lat="40.116618" lon="-0.601243">
        <ele>644.7</ele>
        <time>2021-08-10T15:12:23.462Z</time>
      </trkpt>
      <trkpt lat="40.116496" lon="-0.601103">
        <ele>646.2</ele>
        <time>2021-08-10T15:12:35.960Z</time>
      </trkpt>
      <trkpt lat="40.116222" lon="-0.601074">
        <ele>648.7</ele>
        <time>2021-08-10T15:12:59.292Z</time>
      </trkpt>
      <trkpt lat="40.116044" lon="-0.600984">
        <ele>650.3</ele>
        <time>2021-08-10T15:13:16.423Z</time>
      </trkpt>
      <trkpt lat="40.115754" lon="-0.600470">
        <ele>653.9</ele>
        <time>2021-08-10T15:13:53.119Z</time>
      </trkpt>
      <trkpt lat="40.115695" lon="-0.600323">
        <ele>654.8</ele>
        <time>2021-08-10T15:14:01.865Z</time>
      </trkpt>
      <trkpt lat="40.115656" lon="-0.600222">
        <ele>655.4</ele>
        <time>2021-08-10T15:14:10.818Z</time>
      </trkpt>
      <trkpt lat="40.115490" lon="-0.599837">
        <ele>657.8</ele>
        <time>2021-08-10T15:14:34.248Z</time>
      </trkpt>
      <trkpt lat="40.115456" lon="-0.599596">
        <ele>659.2</ele>
        <time>2021-08-10T15:14:45.495Z</time>
      </trkpt>
      <trkpt lat="40.115304" lon="-0.599136">
        <ele>662.0</ele>
        <time>2021-08-10T15:15:08.078Z</time>
      </trkpt>
      <trkpt lat="40.114924" lon="-0.598492">
        <ele>661.9</ele>
        <time>2021-08-10T15:15:38.068Z</time>
      </trkpt>
      <trkpt lat="40.114649" lon="-0.598329">
        <ele>661.4</ele>
        <time>2021-08-10T15:15:46.464Z</time>
      </trkpt>
      <trkpt lat="40.114382" lon="-0.598313">
        <ele>661.0</ele>
        <time>2021-08-10T15:15:53.383Z</time>
      </trkpt>
      <trkpt lat="40.114063" lon="-0.598359">
        <ele>660.5</ele>
        <time>2021-08-10T15:16:01.305Z</time>
      </trkpt>
      <trkpt lat="40.113475" lon="-0.598590">
        <ele>658.3</ele>
        <time>2021-08-10T15:16:15.796Z</time>
      </trkpt>
      <trkpt lat="40.113146" lon="-0.598518">
        <ele>656.0</ele>
        <time>2021-08-10T15:16:23.407Z</time>
      </trkpt>
      <trkpt lat="40.113013" lon="-0.598397">
        <ele>654.8</ele>
        <time>2021-08-10T15:16:27.070Z</time>
      </trkpt>
      <trkpt lat="40.112975" lon="-0.598220">
        <ele>653.9</ele>
        <time>2021-08-10T15:16:30.226Z</time>
      </trkpt>
      <trkpt lat="40.112987" lon="-0.597841">
        <ele>651.8</ele>
        <time>2021-08-10T15:16:36.729Z</time>
      </trkpt>
      <trkpt lat="40.112783" lon="-0.597325">
        <ele>648.8</ele>
        <time>2021-08-10T15:16:46.699Z</time>
      </trkpt>
      <trkpt lat="40.112759" lon="-0.596990">
        <ele>647.0</ele>
        <time>2021-08-10T15:16:52.546Z</time>
      </trkpt>
      <trkpt lat="40.112874" lon="-0.596393">
        <ele>644.0</ele>
        <time>2021-08-10T15:17:03.418Z</time>
      </trkpt>
      <trkpt lat="40.113171" lon="-0.595837">
        <ele>640.6</ele>
        <time>2021-08-10T15:17:15.473Z</time>
      </trkpt>
      <trkpt lat="40.113218" lon="-0.595618">
        <ele>639.5</ele>
        <time>2021-08-10T15:17:19.489Z</time>
      </trkpt>
      <trkpt lat="40.113014" lon="-0.595332">
        <ele>637.6</ele>
        <time>2021-08-10T15:17:26.349Z</time>
      </trkpt>
      <trkpt lat="40.113047" lon="-0.594968">
        <ele>635.8</ele>
        <time>2021-08-10T15:17:32.848Z</time>
      </trkpt>
      <trkpt lat="40.113025" lon="-0.594642">
        <ele>635.0</ele>
        <time>2021-08-10T15:17:38.747Z</time>
      </trkpt>
      <trkpt lat="40.112878" lon="-0.594136">
        <ele>633.6</ele>
        <time>2021-08-10T15:17:48.787Z</time>
      </trkpt>
      <trkpt lat="40.113019" lon="-0.593688">
        <ele>632.4</ele>
        <time>2021-08-10T15:17:58.263Z</time>
      </trkpt>
      <trkpt lat="40.112952" lon="-0.593479">
        <ele>631.9</ele>
        <time>2021-08-10T15:18:02.823Z</time>
      </trkpt>
      <trkpt lat="40.112711" lon="-0.593323">
        <ele>631.0</ele>
        <time>2021-08-10T15:18:10.170Z</time>
      </trkpt>
      <trkpt lat="40.112497" lon="-0.592988">
        <ele>630.0</ele>
        <time>2021-08-10T15:18:19.906Z</time>
      </trkpt>
      <trkpt lat="40.111963" lon="-0.592863">
        <ele>631.5</ele>
        <time>2021-08-10T15:18:39.411Z</time>
      </trkpt>
      <trkpt lat="40.112110" lon="-0.592473">
        <ele>632.4</ele>
        <time>2021-08-10T15:18:55.099Z</time>
      </trkpt>
      <trkpt lat="40.112121" lon="-0.592311">
        <ele>632.8</ele>
        <time>2021-08-10T15:19:01.647Z</time>
      </trkpt>
      <trkpt lat="40.112104" lon="-0.591960">
        <ele>633.5</ele>
        <time>2021-08-10T15:19:16.392Z</time>
      </trkpt>
      <trkpt lat="40.111975" lon="-0.591288">
        <ele>635.0</ele>
        <time>2021-08-10T15:19:46.597Z</time>
      </trkpt>
      <trkpt lat="40.111934" lon="-0.591240">
        <ele>635.1</ele>
        <time>2021-08-10T15:19:49.818Z</time>
      </trkpt>
      <trkpt lat="40.111874" lon="-0.591266">
        <ele>635.2</ele>
        <time>2021-08-10T15:19:53.172Z</time>
      </trkpt>
      <trkpt lat="40.111738" lon="-0.591509">
        <ele>635.6</ele>
        <time>2021-08-10T15:20:05.383Z</time>
      </trkpt>
      <trkpt lat="40.111593" lon="-0.591569">
        <ele>635.8</ele>
        <time>2021-08-10T15:20:13.142Z</time>
      </trkpt>
      <trkpt lat="40.111333" lon="-0.591406">
        <ele>636.3</ele>
        <time>2021-08-10T15:20:27.364Z</time>
      </trkpt>
      <trkpt lat="40.110608" lon="-0.591479">
        <ele>637.5</ele>
        <time>2021-08-10T15:20:54.539Z</time>
      </trkpt>
      <trkpt lat="40.110298" lon="-0.591372">
        <ele>637.7</ele>
        <time>2021-08-10T15:21:03.582Z</time>
      </trkpt>
      <trkpt lat="40.109912" lon="-0.591353">
        <ele>635.3</ele>
        <time>2021-08-10T15:21:13.486Z</time>
      </trkpt>
      <trkpt lat="40.109437" lon="-0.590631">
        <ele>630.7</ele>
        <time>2021-08-10T15:21:30.579Z</time>
      </trkpt>
      <trkpt lat="40.108417" lon="-0.589893">
        <ele>619.8</ele>
        <time>2021-08-10T15:21:55.826Z</time>
      </trkpt>
      <trkpt lat="40.108095" lon="-0.589546">
        <ele>614.3</ele>
        <time>2021-08-10T15:22:04.265Z</time>
      </trkpt>
      <trkpt lat="40.107208" lon="-0.588818">
        <ele>601.5</ele>
        <time>2021-08-10T15:22:25.293Z</time>
      </trkpt>
      <trkpt lat="40.107145" lon="-0.588828">
        <ele>601.0</ele>
        <time>2021-08-10T15:22:26.518Z</time>
      </trkpt>
      <trkpt lat="40.107104" lon="-0.588899">
        <ele>600.5</ele>
        <time>2021-08-10T15:22:27.894Z</time>
      </trkpt>
      <trkpt lat="40.107073" lon="-0.589141">
        <ele>599.1</ele>
        <time>2021-08-10T15:22:32.457Z</time>
      </trkpt>
      <trkpt lat="40.106892" lon="-0.589450">
        <ele>596.8</ele>
        <time>2021-08-10T15:22:39.277Z</time>
      </trkpt>
      <trkpt lat="40.106779" lon="-0.589523">
        <ele>595.9</ele>
        <time>2021-08-10T15:22:42.262Z</time>
      </trkpt>
      <trkpt lat="40.106413" lon="-0.589774">
        <ele>592.8</ele>
        <time>2021-08-10T15:22:49.539Z</time>
      </trkpt>
      <trkpt lat="40.105552" lon="-0.590318">
        <ele>589.4</ele>
        <time>2021-08-10T15:23:08.724Z</time>
      </trkpt>
      <trkpt lat="40.105469" lon="-0.590360">
        <ele>589.4</ele>
        <time>2021-08-10T15:23:10.820Z</time>
      </trkpt>
      <trkpt lat="40.105071" lon="-0.589648">
        <ele>589.4</ele>
        <time>2021-08-10T15:23:41.562Z</time>
      </trkpt>
      <trkpt lat="40.104907" lon="-0.589496">
        <ele>589.4</ele>
        <time>2021-08-10T15:23:50.377Z</time>
      </trkpt>
      <trkpt lat="40.104677" lon="-0.589466">
        <ele>589.4</ele>
        <time>2021-08-10T15:23:59.806Z</time>
      </trkpt>
      <trkpt lat="40.104295" lon="-0.589695">
        <ele>590.4</ele>
        <time>2021-08-10T15:24:11.532Z</time>
      </trkpt>
      <trkpt lat="40.104019" lon="-0.589753">
        <ele>591.4</ele>
        <time>2021-08-10T15:24:19.134Z</time>
      </trkpt>
      <trkpt lat="40.103658" lon="-0.590068">
        <ele>592.8</ele>
        <time>2021-08-10T15:24:33.911Z</time>
      </trkpt>
      <trkpt lat="40.103497" lon="-0.590057">
        <ele>593.3</ele>
        <time>2021-08-10T15:24:44.429Z</time>
      </trkpt>
      <trkpt lat="40.103352" lon="-0.589937">
        <ele>593.9</ele>
        <time>2021-08-10T15:24:53.217Z</time>
      </trkpt>
      <trkpt lat="40.103048" lon="-0.589824">
        <ele>594.9</ele>
        <time>2021-08-10T15:25:15.934Z</time>
      </trkpt>
      <trkpt lat="40.102771" lon="-0.589877">
        <ele>597.2</ele>
        <time>2021-08-10T15:25:37.268Z</time>
      </trkpt>
      <trkpt lat="40.102776" lon="-0.589914">
        <ele>597.5</ele>
        <time>2021-08-10T15:25:41.252Z</time>
      </trkpt>
      <trkpt lat="40.102836" lon="-0.589943">
        <ele>598.2</ele>
        <time>2021-08-10T15:25:45.944Z</time>
      </trkpt>
      <trkpt lat="40.102839" lon="-0.590092">
        <ele>599.5</ele>
        <time>2021-08-10T15:25:56.931Z</time>
      </trkpt>
      <trkpt lat="40.103006" lon="-0.590104">
        <ele>601.5</ele>
        <time>2021-08-10T15:26:13.196Z</time>
      </trkpt>
      <trkpt lat="40.103060" lon="-0.590197">
        <ele>602.5</ele>
        <time>2021-08-10T15:26:20.562Z</time>
      </trkpt>
      <trkpt lat="40.103079" lon="-0.590337">
        <ele>603.7</ele>
        <time>2021-08-10T15:26:30.964Z</time>
      </trkpt>
      <trkpt lat="40.103119" lon="-0.590410">
        <ele>604.5</ele>
        <time>2021-08-10T15:26:38.993Z</time>
      </trkpt>
      <trkpt lat="40.103216" lon="-0.590481">
        <ele>605.8</ele>
        <time>2021-08-10T15:26:48.783Z</time>
      </trkpt>
      <trkpt lat="40.103216" lon="-0.590481">
        <ele>605.8</ele>
        <time>2021-08-10T15:26:48.846Z</time>
      </trkpt>
      <trkpt lat="40.103358" lon="-0.590712">
        <ele>608.3</ele>
        <time>2021-08-10T15:27:09.226Z</time>
      </trkpt>
      <trkpt lat="40.103545" lon="-0.590926">
        <ele>611.2</ele>
        <time>2021-08-10T15:27:31.990Z</time>
      </trkpt>
      <trkpt lat="40.103764" lon="-0.591031">
        <ele>613.8</ele>
        <time>2021-08-10T15:27:52.577Z</time>
      </trkpt>
      <trkpt lat="40.103621" lon="-0.591109">
        <ele>615.6</ele>
        <time>2021-08-10T15:28:04.555Z</time>
      </trkpt>
      <trkpt lat="40.103500" lon="-0.591271">
        <ele>617.3</ele>
        <time>2021-08-10T15:28:19.310Z</time>
      </trkpt>
      <trkpt lat="40.103384" lon="-0.591216">
        <ele>618.4</ele>
        <time>2021-08-10T15:28:26.840Z</time>
      </trkpt>
      <trkpt lat="40.102930" lon="-0.591041">
        <ele>622.9</ele>
        <time>2021-08-10T15:29:01.292Z</time>
      </trkpt>
      <trkpt lat="40.102522" lon="-0.590828">
        <ele>627.1</ele>
        <time>2021-08-10T15:29:29.106Z</time>
      </trkpt>
      <trkpt lat="40.101648" lon="-0.590508">
        <ele>636.5</ele>
        <time>2021-08-10T15:30:16.892Z</time>
      </trkpt>
      <trkpt lat="40.101067" lon="-0.590406">
        <ele>643.8</ele>
        <time>2021-08-10T15:31:08.215Z</time>
      </trkpt>
      <trkpt lat="40.100912" lon="-0.590315">
        <ele>645.9</ele>
        <time>2021-08-10T15:31:19.842Z</time>
      </trkpt>
      <trkpt lat="40.100912" lon="-0.590315">
        <ele>645.9</ele>
        <time>2021-08-10T15:31:19.933Z</time>
      </trkpt>
      <trkpt lat="40.100299" lon="-0.589848">
        <ele>654.7</ele>
        <time>2021-08-10T15:32:24.742Z</time>
      </trkpt>
      <trkpt lat="40.100154" lon="-0.589737">
        <ele>656.7</ele>
        <time>2021-08-10T15:32:44.699Z</time>
      </trkpt>
      <trkpt lat="40.099845" lon="-0.589583">
        <ele>660.7</ele>
        <time>2021-08-10T15:33:15.671Z</time>
      </trkpt>
      <trkpt lat="40.099327" lon="-0.589441">
        <ele>667.1</ele>
        <time>2021-08-10T15:34:01.180Z</time>
      </trkpt>
      <trkpt lat="40.099196" lon="-0.589256">
        <ele>669.4</ele>
        <time>2021-08-10T15:34:19.639Z</time>
      </trkpt>
      <trkpt lat="40.099200" lon="-0.589161">
        <ele>670.3</ele>
        <time>2021-08-10T15:34:25.322Z</time>
      </trkpt>
      <trkpt lat="40.099641" lon="-0.588505">
        <ele>677.1</ele>
        <time>2021-08-10T15:35:07.713Z</time>
      </trkpt>
      <trkpt lat="40.100396" lon="-0.587825">
        <ele>679.1</ele>
        <time>2021-08-10T15:35:35.404Z</time>
      </trkpt>
      <trkpt lat="40.101044" lon="-0.586623">
        <ele>681.0</ele>
        <time>2021-08-10T15:35:55.449Z</time>
      </trkpt>
      <trkpt lat="40.101125" lon="-0.586426">
        <ele>681.1</ele>
        <time>2021-08-10T15:35:58.672Z</time>
      </trkpt>
      <trkpt lat="40.101136" lon="-0.586196">
        <ele>681.1</ele>
        <time>2021-08-10T15:36:02.115Z</time>
      </trkpt>
      <trkpt lat="40.100712" lon="-0.585398">
        <ele>681.4</ele>
        <time>2021-08-10T15:36:20.052Z</time>
      </trkpt>
      <trkpt lat="40.100710" lon="-0.584969">
        <ele>681.6</ele>
        <time>2021-08-10T15:36:28.560Z</time>
      </trkpt>
      <trkpt lat="40.101339" lon="-0.583829">
        <ele>680.6</ele>
        <time>2021-08-10T15:36:50.856Z</time>
      </trkpt>
      <trkpt lat="40.102051" lon="-0.582702">
        <ele>679.0</ele>
        <time>2021-08-10T15:37:07.367Z</time>
      </trkpt>
      <trkpt lat="40.102220" lon="-0.582076">
        <ele>677.7</ele>
        <time>2021-08-10T15:37:14.357Z</time>
      </trkpt>
      <trkpt lat="40.102144" lon="-0.581786">
        <ele>677.1</ele>
        <time>2021-08-10T15:37:17.622Z</time>
      </trkpt>
      <trkpt lat="40.101772" lon="-0.581402">
        <ele>675.9</ele>
        <time>2021-08-10T15:37:24.803Z</time>
      </trkpt>
      <trkpt lat="40.101684" lon="-0.581246">
        <ele>675.5</ele>
        <time>2021-08-10T15:37:27.239Z</time>
      </trkpt>
      <trkpt lat="40.101410" lon="-0.580702">
        <ele>677.0</ele>
        <time>2021-08-10T15:37:37.712Z</time>
      </trkpt>
      <trkpt lat="40.101191" lon="-0.580081">
        <ele>679.0</ele>
        <time>2021-08-10T15:37:55.432Z</time>
      </trkpt>
      <trkpt lat="40.100722" lon="-0.579673">
        <ele>681.0</ele>
        <time>2021-08-10T15:38:22.826Z</time>
      </trkpt>
      <trkpt lat="40.100628" lon="-0.579539">
        <ele>681.6</ele>
        <time>2021-08-10T15:38:30.653Z</time>
      </trkpt>
      <trkpt lat="40.099874" lon="-0.578297">
        <ele>688.9</ele>
        <time>2021-08-10T15:39:43.213Z</time>
      </trkpt>
      <trkpt lat="40.099659" lon="-0.577845">
        <ele>691.4</ele>
        <time>2021-08-10T15:40:04.272Z</time>
      </trkpt>
      <trkpt lat="40.099542" lon="-0.577335">
        <ele>693.0</ele>
        <time>2021-08-10T15:40:20.474Z</time>
      </trkpt>
      <trkpt lat="40.099471" lon="-0.576085">
        <ele>690.0</ele>
        <time>2021-08-10T15:40:36.581Z</time>
      </trkpt>
      <trkpt lat="40.099560" lon="-0.575776">
        <ele>689.3</ele>
        <time>2021-08-10T15:40:39.884Z</time>
      </trkpt>
      <trkpt lat="40.100192" lon="-0.574635">
        <ele>682.6</ele>
        <time>2021-08-10T15:40:52.953Z</time>
      </trkpt>
      <trkpt lat="40.100263" lon="-0.574422">
        <ele>681.1</ele>
        <time>2021-08-10T15:40:55.064Z</time>
      </trkpt>
      <trkpt lat="40.100270" lon="-0.574246">
        <ele>679.9</ele>
        <time>2021-08-10T15:40:56.687Z</time>
      </trkpt>
      <trkpt lat="40.100179" lon="-0.573923">
        <ele>677.6</ele>
        <time>2021-08-10T15:40:59.837Z</time>
      </trkpt>
      <trkpt lat="40.100078" lon="-0.573801">
        <ele>676.4</ele>
        <time>2021-08-10T15:41:01.503Z</time>
      </trkpt>
      <trkpt lat="40.099964" lon="-0.573708">
        <ele>675.3</ele>
        <time>2021-08-10T15:41:03.136Z</time>
      </trkpt>
      <trkpt lat="40.099657" lon="-0.573697">
        <ele>672.6</ele>
        <time>2021-08-10T15:41:06.964Z</time>
      </trkpt>
      <trkpt lat="40.099368" lon="-0.573817">
        <ele>671.5</ele>
        <time>2021-08-10T15:41:10.857Z</time>
      </trkpt>
      <trkpt lat="40.099083" lon="-0.574003">
        <ele>670.5</ele>
        <time>2021-08-10T15:41:15.101Z</time>
      </trkpt>
      <trkpt lat="40.098959" lon="-0.573901">
        <ele>670.1</ele>
        <time>2021-08-10T15:41:17.112Z</time>
      </trkpt>
      <trkpt lat="40.098731" lon="-0.573204">
        <ele>668.4</ele>
        <time>2021-08-10T15:41:25.858Z</time>
      </trkpt>
      <trkpt lat="40.098656" lon="-0.573106">
        <ele>668.0</ele>
        <time>2021-08-10T15:41:27.618Z</time>
      </trkpt>
      <trkpt lat="40.098408" lon="-0.573090">
        <ele>667.3</ele>
        <time>2021-08-10T15:41:32.265Z</time>
      </trkpt>
      <trkpt lat="40.098265" lon="-0.573186">
        <ele>666.9</ele>
        <time>2021-08-10T15:41:35.717Z</time>
      </trkpt>
      <trkpt lat="40.098180" lon="-0.573302">
        <ele>667.3</ele>
        <time>2021-08-10T15:41:39.095Z</time>
      </trkpt>
      <trkpt lat="40.098140" lon="-0.573484">
        <ele>667.7</ele>
        <time>2021-08-10T15:41:42.998Z</time>
      </trkpt>
      <trkpt lat="40.098287" lon="-0.573979">
        <ele>668.8</ele>
        <time>2021-08-10T15:41:55.238Z</time>
      </trkpt>
      <trkpt lat="40.098287" lon="-0.574097">
        <ele>669.1</ele>
        <time>2021-08-10T15:41:58.165Z</time>
      </trkpt>
      <trkpt lat="40.098184" lon="-0.574285">
        <ele>669.6</ele>
        <time>2021-08-10T15:42:04.167Z</time>
      </trkpt>
      <trkpt lat="40.097661" lon="-0.574563">
        <ele>671.1</ele>
        <time>2021-08-10T15:42:24.007Z</time>
      </trkpt>
      <trkpt lat="40.097561" lon="-0.574703">
        <ele>671.5</ele>
        <time>2021-08-10T15:42:29.904Z</time>
      </trkpt>
      <trkpt lat="40.097508" lon="-0.574865">
        <ele>671.9</ele>
        <time>2021-08-10T15:42:35.509Z</time>
      </trkpt>
      <trkpt lat="40.097556" lon="-0.575625">
        <ele>675.8</ele>
        <time>2021-08-10T15:43:03.412Z</time>
      </trkpt>
      <trkpt lat="40.097530" lon="-0.575778">
        <ele>676.6</ele>
        <time>2021-08-10T15:43:09.675Z</time>
      </trkpt>
      <trkpt lat="40.097441" lon="-0.575914">
        <ele>677.5</ele>
        <time>2021-08-10T15:43:16.920Z</time>
      </trkpt>
      <trkpt lat="40.097019" lon="-0.576237">
        <ele>680.8</ele>
        <time>2021-08-10T15:43:43.853Z</time>
      </trkpt>
      <trkpt lat="40.096731" lon="-0.576545">
        <ele>683.2</ele>
        <time>2021-08-10T15:44:05.075Z</time>
      </trkpt>
      <trkpt lat="40.096224" lon="-0.576785">
        <ele>687.8</ele>
        <time>2021-08-10T15:44:38.380Z</time>
      </trkpt>
      <trkpt lat="40.095879" lon="-0.577360">
        <ele>692.7</ele>
        <time>2021-08-10T15:45:15.443Z</time>
      </trkpt>
      <trkpt lat="40.095399" lon="-0.577606">
        <ele>697.3</ele>
        <time>2021-08-10T15:45:49.230Z</time>
      </trkpt>
      <trkpt lat="40.095268" lon="-0.577734">
        <ele>698.7</ele>
        <time>2021-08-10T15:45:57.792Z</time>
      </trkpt>
      <trkpt lat="40.095168" lon="-0.577952">
        <ele>700.4</ele>
        <time>2021-08-10T15:46:10.717Z</time>
      </trkpt>
      <trkpt lat="40.095064" lon="-0.578164">
        <ele>701.9</ele>
        <time>2021-08-10T15:46:23.276Z</time>
      </trkpt>
      <trkpt lat="40.094955" lon="-0.578333">
        <ele>703.3</ele>
        <time>2021-08-10T15:46:34.141Z</time>
      </trkpt>
      <trkpt lat="40.094739" lon="-0.578491">
        <ele>705.3</ele>
        <time>2021-08-10T15:46:49.792Z</time>
      </trkpt>
      <trkpt lat="40.094037" lon="-0.578780">
        <ele>711.2</ele>
        <time>2021-08-10T15:47:34.735Z</time>
      </trkpt>
      <trkpt lat="40.093887" lon="-0.578900">
        <ele>712.6</ele>
        <time>2021-08-10T15:47:44.235Z</time>
      </trkpt>
      <trkpt lat="40.093877" lon="-0.579003">
        <ele>713.2</ele>
        <time>2021-08-10T15:47:49.933Z</time>
      </trkpt>
      <trkpt lat="40.093927" lon="-0.579154">
        <ele>714.2</ele>
        <time>2021-08-10T15:47:55.652Z</time>
      </trkpt>
      <trkpt lat="40.094007" lon="-0.579210">
        <ele>714.7</ele>
        <time>2021-08-10T15:47:59.735Z</time>
      </trkpt>
      <trkpt lat="40.094751" lon="-0.579109">
        <ele>718.5</ele>
        <time>2021-08-10T15:48:34.088Z</time>
      </trkpt>
      <trkpt lat="40.094839" lon="-0.579148">
        <ele>719.0</ele>
        <time>2021-08-10T15:48:39.291Z</time>
      </trkpt>
      <trkpt lat="40.094891" lon="-0.579243">
        <ele>719.5</ele>
        <time>2021-08-10T15:48:43.460Z</time>
      </trkpt>
      <trkpt lat="40.094938" lon="-0.579591">
        <ele>720.9</ele>
        <time>2021-08-10T15:48:55.963Z</time>
      </trkpt>
      <trkpt lat="40.095013" lon="-0.579670">
        <ele>721.4</ele>
        <time>2021-08-10T15:49:00.384Z</time>
      </trkpt>
      <trkpt lat="40.095101" lon="-0.579661">
        <ele>721.8</ele>
        <time>2021-08-10T15:49:03.555Z</time>
      </trkpt>
      <trkpt lat="40.095839" lon="-0.579062">
        <ele>725.2</ele>
        <time>2021-08-10T15:49:33.330Z</time>
      </trkpt>
      <trkpt lat="40.095946" lon="-0.578796">
        <ele>726.0</ele>
        <time>2021-08-10T15:49:41.300Z</time>
      </trkpt>
      <trkpt lat="40.096126" lon="-0.578536">
        <ele>726.8</ele>
        <time>2021-08-10T15:49:50.414Z</time>
      </trkpt>
      <trkpt lat="40.096325" lon="-0.578360">
        <ele>727.6</ele>
        <time>2021-08-10T15:49:58.497Z</time>
      </trkpt>
      <trkpt lat="40.096934" lon="-0.578028">
        <ele>729.9</ele>
        <time>2021-08-10T15:50:22.190Z</time>
      </trkpt>
      <trkpt lat="40.097503" lon="-0.577542">
        <ele>732.8</ele>
        <time>2021-08-10T15:50:47.721Z</time>
      </trkpt>
      <trkpt lat="40.097811" lon="-0.577403">
        <ele>734.1</ele>
        <time>2021-08-10T15:51:01.133Z</time>
      </trkpt>
      <trkpt lat="40.097949" lon="-0.577614">
        <ele>735.0</ele>
        <time>2021-08-10T15:51:10.374Z</time>
      </trkpt>
      <trkpt lat="40.097942" lon="-0.577755">
        <ele>735.5</ele>
        <time>2021-08-10T15:51:15.036Z</time>
      </trkpt>
      <trkpt lat="40.097783" lon="-0.577969">
        <ele>736.4</ele>
        <time>2021-08-10T15:51:25.082Z</time>
      </trkpt>
      <trkpt lat="40.097497" lon="-0.578076">
        <ele>738.0</ele>
        <time>2021-08-10T15:51:38.210Z</time>
      </trkpt>
      <trkpt lat="40.096791" lon="-0.578668">
        <ele>742.9</ele>
        <time>2021-08-10T15:52:17.028Z</time>
      </trkpt>
      <trkpt lat="40.096375" lon="-0.579263">
        <ele>746.5</ele>
        <time>2021-08-10T15:52:47.873Z</time>
      </trkpt>
      <trkpt lat="40.096244" lon="-0.579671">
        <ele>748.9</ele>
        <time>2021-08-10T15:53:06.393Z</time>
      </trkpt>
      <trkpt lat="40.095933" lon="-0.580080">
        <ele>752.4</ele>
        <time>2021-08-10T15:53:31.466Z</time>
      </trkpt>
      <trkpt lat="40.095768" lon="-0.580435">
        <ele>754.9</ele>
        <time>2021-08-10T15:53:50.202Z</time>
      </trkpt>
      <trkpt lat="40.094560" lon="-0.581944">
        <ele>768.4</ele>
        <time>2021-08-10T15:55:34.714Z</time>
      </trkpt>
      <trkpt lat="40.094464" lon="-0.581959">
        <ele>769.2</ele>
        <time>2021-08-10T15:55:40.728Z</time>
      </trkpt>
      <trkpt lat="40.094253" lon="-0.581851">
        <ele>771.0</ele>
        <time>2021-08-10T15:55:54.307Z</time>
      </trkpt>
      <trkpt lat="40.093885" lon="-0.582022">
        <ele>774.2</ele>
        <time>2021-08-10T15:56:17.198Z</time>
      </trkpt>
      <trkpt lat="40.093768" lon="-0.582002">
        <ele>775.2</ele>
        <time>2021-08-10T15:56:23.981Z</time>
      </trkpt>
      <trkpt lat="40.093438" lon="-0.581752">
        <ele>777.7</ele>
        <time>2021-08-10T15:56:45.002Z</time>
      </trkpt>
      <trkpt lat="40.093259" lon="-0.581721">
        <ele>778.7</ele>
        <time>2021-08-10T15:56:54.494Z</time>
      </trkpt>
      <trkpt lat="40.093031" lon="-0.581792">
        <ele>780.1</ele>
        <time>2021-08-10T15:57:06.709Z</time>
      </trkpt>
      <trkpt lat="40.092487" lon="-0.582373">
        <ele>784.2</ele>
        <time>2021-08-10T15:57:40.592Z</time>
      </trkpt>
      <trkpt lat="40.092111" lon="-0.583410">
        <ele>788.0</ele>
        <time>2021-08-10T15:58:15.359Z</time>
      </trkpt>
      <trkpt lat="40.092018" lon="-0.583534">
        <ele>788.4</ele>
        <time>2021-08-10T15:58:20.028Z</time>
      </trkpt>
      <trkpt lat="40.091873" lon="-0.583567">
        <ele>788.8</ele>
        <time>2021-08-10T15:58:24.988Z</time>
      </trkpt>
      <trkpt lat="40.091667" lon="-0.583442">
        <ele>789.5</ele>
        <time>2021-08-10T15:58:32.550Z</time>
      </trkpt>
      <trkpt lat="40.091545" lon="-0.583439">
        <ele>789.8</ele>
        <time>2021-08-10T15:58:36.452Z</time>
      </trkpt>
      <trkpt lat="40.091096" lon="-0.583879">
        <ele>791.5</ele>
        <time>2021-08-10T15:58:53.821Z</time>
      </trkpt>
      <trkpt lat="40.090957" lon="-0.583855">
        <ele>791.9</ele>
        <time>2021-08-10T15:58:57.851Z</time>
      </trkpt>
      <trkpt lat="40.090890" lon="-0.583786">
        <ele>792.2</ele>
        <time>2021-08-10T15:59:00.301Z</time>
      </trkpt>
      <trkpt lat="40.090762" lon="-0.583432">
        <ele>793.0</ele>
        <time>2021-08-10T15:59:08.760Z</time>
      </trkpt>
      <trkpt lat="40.090619" lon="-0.583280">
        <ele>793.6</ele>
        <time>2021-08-10T15:59:13.969Z</time>
      </trkpt>
      <trkpt lat="40.090436" lon="-0.583293">
        <ele>794.1</ele>
        <time>2021-08-10T15:59:19.237Z</time>
      </trkpt>
      <trkpt lat="40.090296" lon="-0.583387">
        <ele>794.5</ele>
        <time>2021-08-10T15:59:23.967Z</time>
      </trkpt>
      <trkpt lat="40.089863" lon="-0.584226">
        <ele>796.8</ele>
        <time>2021-08-10T15:59:51.234Z</time>
      </trkpt>
      <trkpt lat="40.089283" lon="-0.584868">
        <ele>800.6</ele>
        <time>2021-08-10T16:00:24.262Z</time>
      </trkpt>
      <trkpt lat="40.089324" lon="-0.584966">
        <ele>801.1</ele>
        <time>2021-08-10T16:00:28.212Z</time>
      </trkpt>
      <trkpt lat="40.089467" lon="-0.584993">
        <ele>801.9</ele>
        <time>2021-08-10T16:00:34.846Z</time>
      </trkpt>
      <trkpt lat="40.090224" lon="-0.584246">
        <ele>807.2</ele>
        <time>2021-08-10T16:01:22.450Z</time>
      </trkpt>
      <trkpt lat="40.090444" lon="-0.584220">
        <ele>808.6</ele>
        <time>2021-08-10T16:01:34.192Z</time>
      </trkpt>
      <trkpt lat="40.090585" lon="-0.584297">
        <ele>809.5</ele>
        <time>2021-08-10T16:01:42.338Z</time>
      </trkpt>
      <trkpt lat="40.090670" lon="-0.584463">
        <ele>810.5</ele>
        <time>2021-08-10T16:01:50.585Z</time>
      </trkpt>
      <trkpt lat="40.090909" lon="-0.585157">
        <ele>814.1</ele>
        <time>2021-08-10T16:02:21.256Z</time>
      </trkpt>
      <trkpt lat="40.091072" lon="-0.585263">
        <ele>815.2</ele>
        <time>2021-08-10T16:02:30.469Z</time>
      </trkpt>
      <trkpt lat="40.091282" lon="-0.585284">
        <ele>816.5</ele>
        <time>2021-08-10T16:02:40.563Z</time>
      </trkpt>
      <trkpt lat="40.091494" lon="-0.585026">
        <ele>818.3</ele>
        <time>2021-08-10T16:02:53.883Z</time>
      </trkpt>
      <trkpt lat="40.091624" lon="-0.585051">
        <ele>818.8</ele>
        <time>2021-08-10T16:02:59.811Z</time>
      </trkpt>
      <trkpt lat="40.091865" lon="-0.585495">
        <ele>820.5</ele>
        <time>2021-08-10T16:03:18.177Z</time>
      </trkpt>
      <trkpt lat="40.092015" lon="-0.585591">
        <ele>821.2</ele>
        <time>2021-08-10T16:03:25.191Z</time>
      </trkpt>
      <trkpt lat="40.092288" lon="-0.585603">
        <ele>822.4</ele>
        <time>2021-08-10T16:03:36.042Z</time>
      </trkpt>
      <trkpt lat="40.092373" lon="-0.585508">
        <ele>822.8</ele>
        <time>2021-08-10T16:03:40.282Z</time>
      </trkpt>
      <trkpt lat="40.092386" lon="-0.585233">
        <ele>823.7</ele>
        <time>2021-08-10T16:03:47.819Z</time>
      </trkpt>
      <trkpt lat="40.092473" lon="-0.585121">
        <ele>824.2</ele>
        <time>2021-08-10T16:03:52.200Z</time>
      </trkpt>
      <trkpt lat="40.092732" lon="-0.585089">
        <ele>825.3</ele>
        <time>2021-08-10T16:04:01.251Z</time>
      </trkpt>
      <trkpt lat="40.093180" lon="-0.585357">
        <ele>827.0</ele>
        <time>2021-08-10T16:04:18.223Z</time>
      </trkpt>
      <trkpt lat="40.093328" lon="-0.585374">
        <ele>827.5</ele>
        <time>2021-08-10T16:04:23.194Z</time>
      </trkpt>
      <trkpt lat="40.093502" lon="-0.585268">
        <ele>828.1</ele>
        <time>2021-08-10T16:04:29.641Z</time>
      </trkpt>
      <trkpt lat="40.093710" lon="-0.585005">
        <ele>829.0</ele>
        <time>2021-08-10T16:04:39.259Z</time>
      </trkpt>
      <trkpt lat="40.094105" lon="-0.584878">
        <ele>830.4</ele>
        <time>2021-08-10T16:04:53.564Z</time>
      </trkpt>
      <trkpt lat="40.094485" lon="-0.584420">
        <ele>832.3</ele>
        <time>2021-08-10T16:05:13.103Z</time>
      </trkpt>
      <trkpt lat="40.095085" lon="-0.584110">
        <ele>835.7</ele>
        <time>2021-08-10T16:05:40.372Z</time>
      </trkpt>
      <trkpt lat="40.095288" lon="-0.583901">
        <ele>837.0</ele>
        <time>2021-08-10T16:05:52.325Z</time>
      </trkpt>
      <trkpt lat="40.095367" lon="-0.583889">
        <ele>837.4</ele>
        <time>2021-08-10T16:05:56.051Z</time>
      </trkpt>
      <trkpt lat="40.095415" lon="-0.583957">
        <ele>837.8</ele>
        <time>2021-08-10T16:05:59.426Z</time>
      </trkpt>
      <trkpt lat="40.095362" lon="-0.584110">
        <ele>838.4</ele>
        <time>2021-08-10T16:06:05.520Z</time>
      </trkpt>
      <trkpt lat="40.094808" lon="-0.584908">
        <ele>843.3</ele>
        <time>2021-08-10T16:06:46.073Z</time>
      </trkpt>
      <trkpt lat="40.094328" lon="-0.585703">
        <ele>848.6</ele>
        <time>2021-08-10T16:07:27.687Z</time>
      </trkpt>
      <trkpt lat="40.094328" lon="-0.585703">
        <ele>848.6</ele>
        <time>2021-08-10T16:07:27.873Z</time>
      </trkpt>
      <trkpt lat="40.094089" lon="-0.586210">
        <ele>851.7</ele>
        <time>2021-08-10T16:07:53.553Z</time>
      </trkpt>
      <trkpt lat="40.093707" lon="-0.586468">
        <ele>854.5</ele>
        <time>2021-08-10T16:08:17.229Z</time>
      </trkpt>
      <trkpt lat="40.093290" lon="-0.586951">
        <ele>857.9</ele>
        <time>2021-08-10T16:08:47.535Z</time>
      </trkpt>
      <trkpt lat="40.093113" lon="-0.587030">
        <ele>859.0</ele>
        <time>2021-08-10T16:08:56.756Z</time>
      </trkpt>
      <trkpt lat="40.092919" lon="-0.587294">
        <ele>860.7</ele>
        <time>2021-08-10T16:09:10.667Z</time>
      </trkpt>
      <trkpt lat="40.091742" lon="-0.587717">
        <ele>866.2</ele>
        <time>2021-08-10T16:10:02.608Z</time>
      </trkpt>
      <trkpt lat="40.091613" lon="-0.587680">
        <ele>866.6</ele>
        <time>2021-08-10T16:10:06.844Z</time>
      </trkpt>
      <trkpt lat="40.091276" lon="-0.587099">
        <ele>868.3</ele>
        <time>2021-08-10T16:10:22.774Z</time>
      </trkpt>
      <trkpt lat="40.091022" lon="-0.586802">
        <ele>869.4</ele>
        <time>2021-08-10T16:10:32.272Z</time>
      </trkpt>
      <trkpt lat="40.090903" lon="-0.586789">
        <ele>869.7</ele>
        <time>2021-08-10T16:10:35.636Z</time>
      </trkpt>
      <trkpt lat="40.090320" lon="-0.587444">
        <ele>872.8</ele>
        <time>2021-08-10T16:11:01.055Z</time>
      </trkpt>
      <trkpt lat="40.089873" lon="-0.587632">
        <ele>874.7</ele>
        <time>2021-08-10T16:11:19.510Z</time>
      </trkpt>
      <trkpt lat="40.089809" lon="-0.587749">
        <ele>875.1</ele>
        <time>2021-08-10T16:11:24.147Z</time>
      </trkpt>
      <trkpt lat="40.089802" lon="-0.587877">
        <ele>875.5</ele>
        <time>2021-08-10T16:11:28.428Z</time>
      </trkpt>
      <trkpt lat="40.089890" lon="-0.588057">
        <ele>876.2</ele>
        <time>2021-08-10T16:11:36.278Z</time>
      </trkpt>
      <trkpt lat="40.090631" lon="-0.589009">
        <ele>882.5</ele>
        <time>2021-08-10T16:12:31.666Z</time>
      </trkpt>
      <trkpt lat="40.090818" lon="-0.590113">
        <ele>888.2</ele>
        <time>2021-08-10T16:13:18.902Z</time>
      </trkpt>
      <trkpt lat="40.090782" lon="-0.590255">
        <ele>888.9</ele>
        <time>2021-08-10T16:13:24.531Z</time>
      </trkpt>
      <trkpt lat="40.090357" lon="-0.590792">
        <ele>891.6</ele>
        <time>2021-08-10T16:13:51.950Z</time>
      </trkpt>
      <trkpt lat="40.090144" lon="-0.591145">
        <ele>893.2</ele>
        <time>2021-08-10T16:14:06.250Z</time>
      </trkpt>
      <trkpt lat="40.090004" lon="-0.591481">
        <ele>894.6</ele>
        <time>2021-08-10T16:14:17.530Z</time>
      </trkpt>
      <trkpt lat="40.089860" lon="-0.591664">
        <ele>895.5</ele>
        <time>2021-08-10T16:14:24.858Z</time>
      </trkpt>
      <trkpt lat="40.088924" lon="-0.592427">
        <ele>900.5</ele>
        <time>2021-08-10T16:15:05.579Z</time>
      </trkpt>
      <trkpt lat="40.088363" lon="-0.592706">
        <ele>903.2</ele>
        <time>2021-08-10T16:15:29.672Z</time>
      </trkpt>
      <trkpt lat="40.087947" lon="-0.593190">
        <ele>905.8</ele>
        <time>2021-08-10T16:15:55.992Z</time>
      </trkpt>
      <trkpt lat="40.087457" lon="-0.593381">
        <ele>908.9</ele>
        <time>2021-08-10T16:16:24.684Z</time>
      </trkpt>
      <trkpt lat="40.086997" lon="-0.593950">
        <ele>912.8</ele>
        <time>2021-08-10T16:16:58.847Z</time>
      </trkpt>
      <trkpt lat="40.086852" lon="-0.594241">
        <ele>914.4</ele>
        <time>2021-08-10T16:17:08.959Z</time>
      </trkpt>
      <trkpt lat="40.086841" lon="-0.594340">
        <ele>914.9</ele>
        <time>2021-08-10T16:17:15.480Z</time>
      </trkpt>
      <trkpt lat="40.086591" lon="-0.594278">
        <ele>916.1</ele>
        <time>2021-08-10T16:17:27.224Z</time>
      </trkpt>
      <trkpt lat="40.086325" lon="-0.593654">
        <ele>917.5</ele>
        <time>2021-08-10T16:17:57.919Z</time>
      </trkpt>
      <trkpt lat="40.085771" lon="-0.593136">
        <ele>919.2</ele>
        <time>2021-08-10T16:18:29.257Z</time>
      </trkpt>
      <trkpt lat="40.085648" lon="-0.592946">
        <ele>919.7</ele>
        <time>2021-08-10T16:18:34.999Z</time>
      </trkpt>
      <trkpt lat="40.085484" lon="-0.592887">
        <ele>920.1</ele>
        <time>2021-08-10T16:18:40.185Z</time>
      </trkpt>
      <trkpt lat="40.084916" lon="-0.592330">
        <ele>920.1</ele>
        <time>2021-08-10T16:19:01.112Z</time>
      </trkpt>
      <trkpt lat="40.084741" lon="-0.592004">
        <ele>920.0</ele>
        <time>2021-08-10T16:19:10.043Z</time>
      </trkpt>
      <trkpt lat="40.084640" lon="-0.591956">
        <ele>919.9</ele>
        <time>2021-08-10T16:19:13.199Z</time>
      </trkpt>
      <trkpt lat="40.083988" lon="-0.592016">
        <ele>919.6</ele>
        <time>2021-08-10T16:19:33.390Z</time>
      </trkpt>
      <trkpt lat="40.083647" lon="-0.591895">
        <ele>919.4</ele>
        <time>2021-08-10T16:19:44.431Z</time>
      </trkpt>
      <trkpt lat="40.083384" lon="-0.591929">
        <ele>919.2</ele>
        <time>2021-08-10T16:19:52.713Z</time>
      </trkpt>
      <trkpt lat="40.083107" lon="-0.591909">
        <ele>919.0</ele>
        <time>2021-08-10T16:20:01.376Z</time>
      </trkpt>
      <trkpt lat="40.083228" lon="-0.591552">
        <ele>918.8</ele>
        <time>2021-08-10T16:20:10.887Z</time>
      </trkpt>
      <trkpt lat="40.083503" lon="-0.590329">
        <ele>917.3</ele>
        <time>2021-08-10T16:20:39.526Z</time>
      </trkpt>
      <trkpt lat="40.083533" lon="-0.589703">
        <ele>915.0</ele>
        <time>2021-08-10T16:20:52.006Z</time>
      </trkpt>
      <trkpt lat="40.083512" lon="-0.589467">
        <ele>914.2</ele>
        <time>2021-08-10T16:20:56.303Z</time>
      </trkpt>
      <trkpt lat="40.083111" lon="-0.588986">
        <ele>911.6</ele>
        <time>2021-08-10T16:21:09.189Z</time>
      </trkpt>
      <trkpt lat="40.083097" lon="-0.588855">
        <ele>911.1</ele>
        <time>2021-08-10T16:21:11.418Z</time>
      </trkpt>
      <trkpt lat="40.083009" lon="-0.588597">
        <ele>910.1</ele>
        <time>2021-08-10T16:21:16.435Z</time>
      </trkpt>
      <trkpt lat="40.082861" lon="-0.588393">
        <ele>908.5</ele>
        <time>2021-08-10T16:21:21.220Z</time>
      </trkpt>
      <trkpt lat="40.082629" lon="-0.588324">
        <ele>906.6</ele>
        <time>2021-08-10T16:21:26.533Z</time>
      </trkpt>
      <trkpt lat="40.082455" lon="-0.588401">
        <ele>905.0</ele>
        <time>2021-08-10T16:21:30.564Z</time>
      </trkpt>
      <trkpt lat="40.082359" lon="-0.588517">
        <ele>904.0</ele>
        <time>2021-08-10T16:21:33.474Z</time>
      </trkpt>
      <trkpt lat="40.082309" lon="-0.588506">
        <ele>903.5</ele>
        <time>2021-08-10T16:21:34.522Z</time>
      </trkpt>
      <trkpt lat="40.082329" lon="-0.588370">
        <ele>902.7</ele>
        <time>2021-08-10T16:21:36.814Z</time>
      </trkpt>
      <trkpt lat="40.082272" lon="-0.588243">
        <ele>901.7</ele>
        <time>2021-08-10T16:21:39.291Z</time>
      </trkpt>
      <trkpt lat="40.082112" lon="-0.588123">
        <ele>900.2</ele>
        <time>2021-08-10T16:21:43.250Z</time>
      </trkpt>
      <trkpt lat="40.082073" lon="-0.587975">
        <ele>899.2</ele>
        <time>2021-08-10T16:21:45.860Z</time>
      </trkpt>
      <trkpt lat="40.081987" lon="-0.587862">
        <ele>898.2</ele>
        <time>2021-08-10T16:21:48.541Z</time>
      </trkpt>
      <trkpt lat="40.081702" lon="-0.587817">
        <ele>895.8</ele>
        <time>2021-08-10T16:21:54.970Z</time>
      </trkpt>
      <trkpt lat="40.081486" lon="-0.587685">
        <ele>894.1</ele>
        <time>2021-08-10T16:22:00.297Z</time>
      </trkpt>
      <trkpt lat="40.081162" lon="-0.587653">
        <ele>891.9</ele>
        <time>2021-08-10T16:22:07.659Z</time>
      </trkpt>
      <trkpt lat="40.081094" lon="-0.587600">
        <ele>891.4</ele>
        <time>2021-08-10T16:22:09.457Z</time>
      </trkpt>
      <trkpt lat="40.081082" lon="-0.587447">
        <ele>890.6</ele>
        <time>2021-08-10T16:22:12.184Z</time>
      </trkpt>
      <trkpt lat="40.080901" lon="-0.587066">
        <ele>888.3</ele>
        <time>2021-08-10T16:22:20.137Z</time>
      </trkpt>
      <trkpt lat="40.080811" lon="-0.586983">
        <ele>887.6</ele>
        <time>2021-08-10T16:22:22.694Z</time>
      </trkpt>
      <trkpt lat="40.080548" lon="-0.586977">
        <ele>885.8</ele>
        <time>2021-08-10T16:22:28.811Z</time>
      </trkpt>
      <trkpt lat="40.080281" lon="-0.586779">
        <ele>883.8</ele>
        <time>2021-08-10T16:22:36.015Z</time>
      </trkpt>
      <trkpt lat="40.080035" lon="-0.586457">
        <ele>881.0</ele>
        <time>2021-08-10T16:22:44.175Z</time>
      </trkpt>
      <trkpt lat="40.079826" lon="-0.586395">
        <ele>879.1</ele>
        <time>2021-08-10T16:22:49.083Z</time>
      </trkpt>
      <trkpt lat="40.079713" lon="-0.586226">
        <ele>877.6</ele>
        <time>2021-08-10T16:22:53.041Z</time>
      </trkpt>
      <trkpt lat="40.079035" lon="-0.586111">
        <ele>871.5</ele>
        <time>2021-08-10T16:23:08.078Z</time>
      </trkpt>
      <trkpt lat="40.078715" lon="-0.585967">
        <ele>868.6</ele>
        <time>2021-08-10T16:23:15.286Z</time>
      </trkpt>
      <trkpt lat="40.078502" lon="-0.585995">
        <ele>866.4</ele>
        <time>2021-08-10T16:23:19.739Z</time>
      </trkpt>
      <trkpt lat="40.078288" lon="-0.585806">
        <ele>862.6</ele>
        <time>2021-08-10T16:23:25.108Z</time>
      </trkpt>
      <trkpt lat="40.078225" lon="-0.585843">
        <ele>861.5</ele>
        <time>2021-08-10T16:23:26.509Z</time>
      </trkpt>
      <trkpt lat="40.077808" lon="-0.585723">
        <ele>855.2</ele>
        <time>2021-08-10T16:23:35.168Z</time>
      </trkpt>
      <trkpt lat="40.077514" lon="-0.585870">
        <ele>850.5</ele>
        <time>2021-08-10T16:23:41.484Z</time>
      </trkpt>
      <trkpt lat="40.077243" lon="-0.585913">
        <ele>846.4</ele>
        <time>2021-08-10T16:23:46.946Z</time>
      </trkpt>
      <trkpt lat="40.077063" lon="-0.586010">
        <ele>843.5</ele>
        <time>2021-08-10T16:23:50.827Z</time>
      </trkpt>
      <trkpt lat="40.076913" lon="-0.586173">
        <ele>840.6</ele>
        <time>2021-08-10T16:23:54.735Z</time>
      </trkpt>
      <trkpt lat="40.076718" lon="-0.586157">
        <ele>837.4</ele>
        <time>2021-08-10T16:23:58.631Z</time>
      </trkpt>
      <trkpt lat="40.076622" lon="-0.586250">
        <ele>835.5</ele>
        <time>2021-08-10T16:24:00.993Z</time>
      </trkpt>
      <trkpt lat="40.076441" lon="-0.586313">
        <ele>832.4</ele>
        <time>2021-08-10T16:24:04.720Z</time>
      </trkpt>
      <trkpt lat="40.075874" lon="-0.586873">
        <ele>820.8</ele>
        <time>2021-08-10T16:24:18.860Z</time>
      </trkpt>
      <trkpt lat="40.075517" lon="-0.587066">
        <ele>814.5</ele>
        <time>2021-08-10T16:24:26.628Z</time>
      </trkpt>
      <trkpt lat="40.075367" lon="-0.587128">
        <ele>811.9</ele>
        <time>2021-08-10T16:24:29.754Z</time>
      </trkpt>
      <trkpt lat="40.075225" lon="-0.587141">
        <ele>809.9</ele>
        <time>2021-08-10T16:24:32.734Z</time>
      </trkpt>
      <trkpt lat="40.075188" lon="-0.586889">
        <ele>807.4</ele>
        <time>2021-08-10T16:24:36.687Z</time>
      </trkpt>
      <trkpt lat="40.075205" lon="-0.586766">
        <ele>806.2</ele>
        <time>2021-08-10T16:24:38.701Z</time>
      </trkpt>
      <trkpt lat="40.075157" lon="-0.586591">
        <ele>804.3</ele>
        <time>2021-08-10T16:24:41.647Z</time>
      </trkpt>
      <trkpt lat="40.075036" lon="-0.586433">
        <ele>802.2</ele>
        <time>2021-08-10T16:24:45.120Z</time>
      </trkpt>
      <trkpt lat="40.074954" lon="-0.586500">
        <ele>800.9</ele>
        <time>2021-08-10T16:24:47.175Z</time>
      </trkpt>
      <trkpt lat="40.074659" lon="-0.586350">
        <ele>796.9</ele>
        <time>2021-08-10T16:24:53.687Z</time>
      </trkpt>
      <trkpt lat="40.074438" lon="-0.586307">
        <ele>794.1</ele>
        <time>2021-08-10T16:24:58.293Z</time>
      </trkpt>
      <trkpt lat="40.074040" lon="-0.586038">
        <ele>788.4</ele>
        <time>2021-08-10T16:25:07.768Z</time>
      </trkpt>
      <trkpt lat="40.073707" lon="-0.585905">
        <ele>785.2</ele>
        <time>2021-08-10T16:25:15.290Z</time>
      </trkpt>
      <trkpt lat="40.073628" lon="-0.585990">
        <ele>784.3</ele>
        <time>2021-08-10T16:25:17.480Z</time>
      </trkpt>
      <trkpt lat="40.073595" lon="-0.585912">
        <ele>783.8</ele>
        <time>2021-08-10T16:25:19.009Z</time>
      </trkpt>
      <trkpt lat="40.073561" lon="-0.585942">
        <ele>783.4</ele>
        <time>2021-08-10T16:25:19.918Z</time>
      </trkpt>
      <trkpt lat="40.073506" lon="-0.586093">
        <ele>782.3</ele>
        <time>2021-08-10T16:25:22.623Z</time>
      </trkpt>
      <trkpt lat="40.073121" lon="-0.585615">
        <ele>777.7</ele>
        <time>2021-08-10T16:25:34.161Z</time>
      </trkpt>
      <trkpt lat="40.072663" lon="-0.585494">
        <ele>773.7</ele>
        <time>2021-08-10T16:25:44.916Z</time>
      </trkpt>
      <trkpt lat="40.072610" lon="-0.585448">
        <ele>773.2</ele>
        <time>2021-08-10T16:25:46.251Z</time>
      </trkpt>
      <trkpt lat="40.072471" lon="-0.585419">
        <ele>772.3</ele>
        <time>2021-08-10T16:25:49.404Z</time>
      </trkpt>
      <trkpt lat="40.072318" lon="-0.585403">
        <ele>771.7</ele>
        <time>2021-08-10T16:25:53.639Z</time>
      </trkpt>
      <trkpt lat="40.072072" lon="-0.585510">
        <ele>770.6</ele>
        <time>2021-08-10T16:25:59.662Z</time>
      </trkpt>
      <trkpt lat="40.071979" lon="-0.585446">
        <ele>770.2</ele>
        <time>2021-08-10T16:26:02.754Z</time>
      </trkpt>
      <trkpt lat="40.071853" lon="-0.585309">
        <ele>769.6</ele>
        <time>2021-08-10T16:26:06.428Z</time>
      </trkpt>
      <trkpt lat="40.071920" lon="-0.585016">
        <ele>768.7</ele>
        <time>2021-08-10T16:26:09.795Z</time>
      </trkpt>
      <trkpt lat="40.071792" lon="-0.584744">
        <ele>767.7</ele>
        <time>2021-08-10T16:26:13.342Z</time>
      </trkpt>
      <trkpt lat="40.071602" lon="-0.584075">
        <ele>765.5</ele>
        <time>2021-08-10T16:26:21.713Z</time>
      </trkpt>
      <trkpt lat="40.071566" lon="-0.584017">
        <ele>765.4</ele>
        <time>2021-08-10T16:26:22.728Z</time>
      </trkpt>
      <trkpt lat="40.071501" lon="-0.584024">
        <ele>765.5</ele>
        <time>2021-08-10T16:26:24.117Z</time>
      </trkpt>
      <trkpt lat="40.071356" lon="-0.584370">
        <ele>765.9</ele>
        <time>2021-08-10T16:26:30.734Z</time>
      </trkpt>
      <trkpt lat="40.071315" lon="-0.584400">
        <ele>766.0</ele>
        <time>2021-08-10T16:26:31.973Z</time>
      </trkpt>
      <trkpt lat="40.071210" lon="-0.584478">
        <ele>766.1</ele>
        <time>2021-08-10T16:26:35.981Z</time>
      </trkpt>
      <trkpt lat="40.071067" lon="-0.584544">
        <ele>766.3</ele>
        <time>2021-08-10T16:26:41.437Z</time>
      </trkpt>
      <trkpt lat="40.070961" lon="-0.584442">
        <ele>766.5</ele>
        <time>2021-08-10T16:26:44.891Z</time>
      </trkpt>
      <trkpt lat="40.070961" lon="-0.584442">
        <ele>766.5</ele>
        <time>2021-08-10T16:26:44.897Z</time>
      </trkpt>
      <trkpt lat="40.070852" lon="-0.584026">
        <ele>766.9</ele>
        <time>2021-08-10T16:26:54.201Z</time>
      </trkpt>
      <trkpt lat="40.070937" lon="-0.583732">
        <ele>767.3</ele>
        <time>2021-08-10T16:27:01.230Z</time>
      </trkpt>
      <trkpt lat="40.070906" lon="-0.583198">
        <ele>767.9</ele>
        <time>2021-08-10T16:27:14.970Z</time>
      </trkpt>
      <trkpt lat="40.070920" lon="-0.582708">
        <ele>769.5</ele>
        <time>2021-08-10T16:27:28.268Z</time>
      </trkpt>
      <trkpt lat="40.070877" lon="-0.582675">
        <ele>769.7</ele>
        <time>2021-08-10T16:27:30.546Z</time>
      </trkpt>
      <trkpt lat="40.070805" lon="-0.582692">
        <ele>770.1</ele>
        <time>2021-08-10T16:27:34.604Z</time>
      </trkpt>
      <trkpt lat="40.070768" lon="-0.582823">
        <ele>770.5</ele>
        <time>2021-08-10T16:27:40.384Z</time>
      </trkpt>
      <trkpt lat="40.070705" lon="-0.582881">
        <ele>770.9</ele>
        <time>2021-08-10T16:27:43.969Z</time>
      </trkpt>
      <trkpt lat="40.070553" lon="-0.582798">
        <ele>771.6</ele>
        <time>2021-08-10T16:27:53.980Z</time>
      </trkpt>
      <trkpt lat="40.070405" lon="-0.582342">
        <ele>773.2</ele>
        <time>2021-08-10T16:28:16.671Z</time>
      </trkpt>
      <trkpt lat="40.069826" lon="-0.581900">
        <ele>776.3</ele>
        <time>2021-08-10T16:28:55.068Z</time>
      </trkpt>
      <trkpt lat="40.069714" lon="-0.581892">
        <ele>776.8</ele>
        <time>2021-08-10T16:29:01.154Z</time>
      </trkpt>
      <trkpt lat="40.069521" lon="-0.582031">
        <ele>777.9</ele>
        <time>2021-08-10T16:29:12.826Z</time>
      </trkpt>
      <trkpt lat="40.069219" lon="-0.582007">
        <ele>779.5</ele>
        <time>2021-08-10T16:29:29.282Z</time>
      </trkpt>
      <trkpt lat="40.068843" lon="-0.582104">
        <ele>781.4</ele>
        <time>2021-08-10T16:29:50.626Z</time>
      </trkpt>
      <trkpt lat="40.068128" lon="-0.582107">
        <ele>785.2</ele>
        <time>2021-08-10T16:30:33.083Z</time>
      </trkpt>
      <trkpt lat="40.067981" lon="-0.582059">
        <ele>786.4</ele>
        <time>2021-08-10T16:30:40.994Z</time>
      </trkpt>
      <trkpt lat="40.067600" lon="-0.582061">
        <ele>789.3</ele>
        <time>2021-08-10T16:31:05.254Z</time>
      </trkpt>
      <trkpt lat="40.067654" lon="-0.581935">
        <ele>790.2</ele>
        <time>2021-08-10T16:31:14.422Z</time>
      </trkpt>
      <trkpt lat="40.067638" lon="-0.581801">
        <ele>791.0</ele>
        <time>2021-08-10T16:31:20.985Z</time>
      </trkpt>
      <trkpt lat="40.067480" lon="-0.581476">
        <ele>793.3</ele>
        <time>2021-08-10T16:31:44.695Z</time>
      </trkpt>
      <trkpt lat="40.067299" lon="-0.581281">
        <ele>795.1</ele>
        <time>2021-08-10T16:32:01.717Z</time>
      </trkpt>
      <trkpt lat="40.067187" lon="-0.581190">
        <ele>796.2</ele>
        <time>2021-08-10T16:32:12.380Z</time>
      </trkpt>
      <trkpt lat="40.067143" lon="-0.581124">
        <ele>796.7</ele>
        <time>2021-08-10T16:32:15.850Z</time>
      </trkpt>
      <trkpt lat="40.067158" lon="-0.581031">
        <ele>797.2</ele>
        <time>2021-08-10T16:32:23.841Z</time>
      </trkpt>
      <trkpt lat="40.067479" lon="-0.581010">
        <ele>799.7</ele>
        <time>2021-08-10T16:32:45.912Z</time>
      </trkpt>
      <trkpt lat="40.067717" lon="-0.580678">
        <ele>802.1</ele>
        <time>2021-08-10T16:33:12.443Z</time>
      </trkpt>
      <trkpt lat="40.067693" lon="-0.580625">
        <ele>802.5</ele>
        <time>2021-08-10T16:33:19.250Z</time>
      </trkpt>
      <trkpt lat="40.067647" lon="-0.580627">
        <ele>802.8</ele>
        <time>2021-08-10T16:33:22.143Z</time>
      </trkpt>
      <trkpt lat="40.067456" lon="-0.580586">
        <ele>804.2</ele>
        <time>2021-08-10T16:33:35.308Z</time>
      </trkpt>
      <trkpt lat="40.067073" lon="-0.579864">
        <ele>809.0</ele>
        <time>2021-08-10T16:34:21.749Z</time>
      </trkpt>
      <trkpt lat="40.066653" lon="-0.579385">
        <ele>811.4</ele>
        <time>2021-08-10T16:34:54.105Z</time>
      </trkpt>
      <trkpt lat="40.066530" lon="-0.579152">
        <ele>811.3</ele>
        <time>2021-08-10T16:35:01.644Z</time>
      </trkpt>
      <trkpt lat="40.066517" lon="-0.578881">
        <ele>811.2</ele>
        <time>2021-08-10T16:35:09.066Z</time>
      </trkpt>
      <trkpt lat="40.066419" lon="-0.578504">
        <ele>811.0</ele>
        <time>2021-08-10T16:35:18.657Z</time>
      </trkpt>
      <trkpt lat="40.066415" lon="-0.578075">
        <ele>810.8</ele>
        <time>2021-08-10T16:35:28.032Z</time>
      </trkpt>
      <trkpt lat="40.066090" lon="-0.577565">
        <ele>810.5</ele>
        <time>2021-08-10T16:35:40.963Z</time>
      </trkpt>
      <trkpt lat="40.065840" lon="-0.577391">
        <ele>808.6</ele>
        <time>2021-08-10T16:35:47.648Z</time>
      </trkpt>
      <trkpt lat="40.065757" lon="-0.577270">
        <ele>807.6</ele>
        <time>2021-08-10T16:35:50.519Z</time>
      </trkpt>
      <trkpt lat="40.065715" lon="-0.576779">
        <ele>804.7</ele>
        <time>2021-08-10T16:35:59.071Z</time>
      </trkpt>
      <trkpt lat="40.065805" lon="-0.576373">
        <ele>802.2</ele>
        <time>2021-08-10T16:36:06.253Z</time>
      </trkpt>
      <trkpt lat="40.065879" lon="-0.576235">
        <ele>801.3</ele>
        <time>2021-08-10T16:36:09.071Z</time>
      </trkpt>
      <trkpt lat="40.066257" lon="-0.575950">
        <ele>797.9</ele>
        <time>2021-08-10T16:36:18.585Z</time>
      </trkpt>
      <trkpt lat="40.066427" lon="-0.575461">
        <ele>794.5</ele>
        <time>2021-08-10T16:36:27.445Z</time>
      </trkpt>
      <trkpt lat="40.066485" lon="-0.575014">
        <ele>791.4</ele>
        <time>2021-08-10T16:36:34.909Z</time>
      </trkpt>
      <trkpt lat="40.066670" lon="-0.574631">
        <ele>788.4</ele>
        <time>2021-08-10T16:36:42.395Z</time>
      </trkpt>
      <trkpt lat="40.067097" lon="-0.573966">
        <ele>782.6</ele>
        <time>2021-08-10T16:36:57.092Z</time>
      </trkpt>
      <trkpt lat="40.067182" lon="-0.573694">
        <ele>780.8</ele>
        <time>2021-08-10T16:37:02.215Z</time>
      </trkpt>
      <trkpt lat="40.067385" lon="-0.573414">
        <ele>779.6</ele>
        <time>2021-08-10T16:37:09.038Z</time>
      </trkpt>
      <trkpt lat="40.068048" lon="-0.572880">
        <ele>776.6</ele>
        <time>2021-08-10T16:37:28.045Z</time>
      </trkpt>
      <trkpt lat="40.068453" lon="-0.572297">
        <ele>774.2</ele>
        <time>2021-08-10T16:37:44.645Z</time>
      </trkpt>
      <trkpt lat="40.068507" lon="-0.572138">
        <ele>773.9</ele>
        <time>2021-08-10T16:37:48.418Z</time>
      </trkpt>
      <trkpt lat="40.068583" lon="-0.572042">
        <ele>774.0</ele>
        <time>2021-08-10T16:37:51.969Z</time>
      </trkpt>
      <trkpt lat="40.068943" lon="-0.571768">
        <ele>774.4</ele>
        <time>2021-08-10T16:38:05.316Z</time>
      </trkpt>
      <trkpt lat="40.069214" lon="-0.571655">
        <ele>774.6</ele>
        <time>2021-08-10T16:38:15.343Z</time>
      </trkpt>
      <trkpt lat="40.069552" lon="-0.571423">
        <ele>775.0</ele>
        <time>2021-08-10T16:38:30.120Z</time>
      </trkpt>
      <trkpt lat="40.069816" lon="-0.571344">
        <ele>775.2</ele>
        <time>2021-08-10T16:38:40.958Z</time>
      </trkpt>
      <trkpt lat="40.070764" lon="-0.570602">
        <ele>777.9</ele>
        <time>2021-08-10T16:39:30.120Z</time>
      </trkpt>
      <trkpt lat="40.070889" lon="-0.570426">
        <ele>778.4</ele>
        <time>2021-08-10T16:39:38.639Z</time>
      </trkpt>
      <trkpt lat="40.070928" lon="-0.570293">
        <ele>778.7</ele>
        <time>2021-08-10T16:39:43.773Z</time>
      </trkpt>
      <trkpt lat="40.070917" lon="-0.569944">
        <ele>779.5</ele>
        <time>2021-08-10T16:39:56.460Z</time>
      </trkpt>
      <trkpt lat="40.071116" lon="-0.569496">
        <ele>780.7</ele>
        <time>2021-08-10T16:40:15.899Z</time>
      </trkpt>
      <trkpt lat="40.071240" lon="-0.569423">
        <ele>781.4</ele>
        <time>2021-08-10T16:40:22.751Z</time>
      </trkpt>
      <trkpt lat="40.071661" lon="-0.569366">
        <ele>783.7</ele>
        <time>2021-08-10T16:40:45.327Z</time>
      </trkpt>
      <trkpt lat="40.071972" lon="-0.569134">
        <ele>785.6</ele>
        <time>2021-08-10T16:41:05.564Z</time>
      </trkpt>
      <trkpt lat="40.072457" lon="-0.568595">
        <ele>789.1</ele>
        <time>2021-08-10T16:41:44.314Z</time>
      </trkpt>
      <trkpt lat="40.072856" lon="-0.568513">
        <ele>791.7</ele>
        <time>2021-08-10T16:42:11.128Z</time>
      </trkpt>
      <trkpt lat="40.073329" lon="-0.568265">
        <ele>796.2</ele>
        <time>2021-08-10T16:42:49.070Z</time>
      </trkpt>
      <trkpt lat="40.073462" lon="-0.567982">
        <ele>798.5</ele>
        <time>2021-08-10T16:43:07.548Z</time>
      </trkpt>
      <trkpt lat="40.073505" lon="-0.567656">
        <ele>800.7</ele>
        <time>2021-08-10T16:43:27.605Z</time>
      </trkpt>
      <trkpt lat="40.073614" lon="-0.567409">
        <ele>802.7</ele>
        <time>2021-08-10T16:43:45.724Z</time>
      </trkpt>
      <trkpt lat="40.073598" lon="-0.567066">
        <ele>805.0</ele>
        <time>2021-08-10T16:44:06.533Z</time>
      </trkpt>
      <trkpt lat="40.073598" lon="-0.567066">
        <ele>805.0</ele>
        <time>2021-08-10T16:44:06.758Z</time>
      </trkpt>
      <trkpt lat="40.073729" lon="-0.566808">
        <ele>807.2</ele>
        <time>2021-08-10T16:44:26.132Z</time>
      </trkpt>
      <trkpt lat="40.073851" lon="-0.566141">
        <ele>812.3</ele>
        <time>2021-08-10T16:45:10.756Z</time>
      </trkpt>
      <trkpt lat="40.073845" lon="-0.565850">
        <ele>814.5</ele>
        <time>2021-08-10T16:45:28.433Z</time>
      </trkpt>
      <trkpt lat="40.073955" lon="-0.565441">
        <ele>817.7</ele>
        <time>2021-08-10T16:45:55.696Z</time>
      </trkpt>
      <trkpt lat="40.073913" lon="-0.565000">
        <ele>821.0</ele>
        <time>2021-08-10T16:46:22.981Z</time>
      </trkpt>
      <trkpt lat="40.073737" lon="-0.564742">
        <ele>823.6</ele>
        <time>2021-08-10T16:46:43.287Z</time>
      </trkpt>
      <trkpt lat="40.073584" lon="-0.564660">
        <ele>825.1</ele>
        <time>2021-08-10T16:46:55.460Z</time>
      </trkpt>
      <trkpt lat="40.073590" lon="-0.564520">
        <ele>826.0</ele>
        <time>2021-08-10T16:47:03.765Z</time>
      </trkpt>
      <trkpt lat="40.073684" lon="-0.564519">
        <ele>826.8</ele>
        <time>2021-08-10T16:47:10.739Z</time>
      </trkpt>
      <trkpt lat="40.073952" lon="-0.564710">
        <ele>829.5</ele>
        <time>2021-08-10T16:47:33.530Z</time>
      </trkpt>
      <trkpt lat="40.074203" lon="-0.564949">
        <ele>832.2</ele>
        <time>2021-08-10T16:47:56.702Z</time>
      </trkpt>
      <trkpt lat="40.074288" lon="-0.565099">
        <ele>833.4</ele>
        <time>2021-08-10T16:48:07.164Z</time>
      </trkpt>
      <trkpt lat="40.074374" lon="-0.565370">
        <ele>835.3</ele>
        <time>2021-08-10T16:48:23.940Z</time>
      </trkpt>
      <trkpt lat="40.074368" lon="-0.565537">
        <ele>836.4</ele>
        <time>2021-08-10T16:48:33.199Z</time>
      </trkpt>
      <trkpt lat="40.074259" lon="-0.565940">
        <ele>839.3</ele>
        <time>2021-08-10T16:48:57.516Z</time>
      </trkpt>
      <trkpt lat="40.074284" lon="-0.566019">
        <ele>839.8</ele>
        <time>2021-08-10T16:49:02.424Z</time>
      </trkpt>
      <trkpt lat="40.074611" lon="-0.566066">
        <ele>842.1</ele>
        <time>2021-08-10T16:49:27.652Z</time>
      </trkpt>
      <trkpt lat="40.074688" lon="-0.565967">
        <ele>842.9</ele>
        <time>2021-08-10T16:49:36.099Z</time>
      </trkpt>
      <trkpt lat="40.074716" lon="-0.565791">
        <ele>843.9</ele>
        <time>2021-08-10T16:49:47.004Z</time>
      </trkpt>
      <trkpt lat="40.074637" lon="-0.564594">
        <ele>850.4</ele>
        <time>2021-08-10T16:50:51.104Z</time>
      </trkpt>
      <trkpt lat="40.074586" lon="-0.564372">
        <ele>851.6</ele>
        <time>2021-08-10T16:51:01.775Z</time>
      </trkpt>
      <trkpt lat="40.074375" lon="-0.563990">
        <ele>852.1</ele>
        <time>2021-08-10T16:51:19.661Z</time>
      </trkpt>
      <trkpt lat="40.074059" lon="-0.563609">
        <ele>851.6</ele>
        <time>2021-08-10T16:51:34.939Z</time>
      </trkpt>
      <trkpt lat="40.073475" lon="-0.563420">
        <ele>851.0</ele>
        <time>2021-08-10T16:51:51.221Z</time>
      </trkpt>
      <trkpt lat="40.073150" lon="-0.563040">
        <ele>850.6</ele>
        <time>2021-08-10T16:52:01.936Z</time>
      </trkpt>
      <trkpt lat="40.072621" lon="-0.562662">
        <ele>849.3</ele>
        <time>2021-08-10T16:52:16.060Z</time>
      </trkpt>
      <trkpt lat="40.072522" lon="-0.562374">
        <ele>848.8</ele>
        <time>2021-08-10T16:52:21.858Z</time>
      </trkpt>
      <trkpt lat="40.072522" lon="-0.562042">
        <ele>848.2</ele>
        <time>2021-08-10T16:52:28.207Z</time>
      </trkpt>
      <trkpt lat="40.072765" lon="-0.561276">
        <ele>846.8</ele>
        <time>2021-08-10T16:52:45.897Z</time>
      </trkpt>
      <trkpt lat="40.072915" lon="-0.561148">
        <ele>846.9</ele>
        <time>2021-08-10T16:52:58.480Z</time>
      </trkpt>
      <trkpt lat="40.073176" lon="-0.561113">
        <ele>849.3</ele>
        <time>2021-08-10T16:53:10.439Z</time>
      </trkpt>
      <trkpt lat="40.073776" lon="-0.559972">
        <ele>858.9</ele>
        <time>2021-08-10T16:54:33.191Z</time>
      </trkpt>
      <trkpt lat="40.073809" lon="-0.559956">
        <ele>859.2</ele>
        <time>2021-08-10T16:54:38.028Z</time>
      </trkpt>
      <trkpt lat="40.073866" lon="-0.559930">
        <ele>859.8</ele>
        <time>2021-08-10T16:54:46.824Z</time>
      </trkpt>
      <trkpt lat="40.073999" lon="-0.559953">
        <ele>861.0</ele>
        <time>2021-08-10T16:54:57.495Z</time>
      </trkpt>
      <trkpt lat="40.074334" lon="-0.560207">
        <ele>865.3</ele>
        <time>2021-08-10T16:55:36.814Z</time>
      </trkpt>
      <trkpt lat="40.074981" lon="-0.560580">
        <ele>874.5</ele>
        <time>2021-08-10T16:56:52.308Z</time>
      </trkpt>
      <trkpt lat="40.075119" lon="-0.560625">
        <ele>876.4</ele>
        <time>2021-08-10T16:57:06.503Z</time>
      </trkpt>
      <trkpt lat="40.075407" lon="-0.560595">
        <ele>880.1</ele>
        <time>2021-08-10T16:57:36.785Z</time>
      </trkpt>
      <trkpt lat="40.075540" lon="-0.560652">
        <ele>882.0</ele>
        <time>2021-08-10T16:57:49.139Z</time>
      </trkpt>
      <trkpt lat="40.075641" lon="-0.560787">
        <ele>883.9</ele>
        <time>2021-08-10T16:58:01.644Z</time>
      </trkpt>
      <trkpt lat="40.075765" lon="-0.561086">
        <ele>886.9</ele>
        <time>2021-08-10T16:58:23.929Z</time>
      </trkpt>
      <trkpt lat="40.075790" lon="-0.561407">
        <ele>888.5</ele>
        <time>2021-08-10T16:58:44.175Z</time>
      </trkpt>
      <trkpt lat="40.075710" lon="-0.561671">
        <ele>890.0</ele>
        <time>2021-08-10T16:59:00.420Z</time>
      </trkpt>
      <trkpt lat="40.075397" lon="-0.562291">
        <ele>893.9</ele>
        <time>2021-08-10T16:59:38.764Z</time>
      </trkpt>
      <trkpt lat="40.075379" lon="-0.562503">
        <ele>895.0</ele>
        <time>2021-08-10T16:59:48.106Z</time>
      </trkpt>
      <trkpt lat="40.075407" lon="-0.562721">
        <ele>896.1</ele>
        <time>2021-08-10T16:59:57.699Z</time>
      </trkpt>
      <trkpt lat="40.075599" lon="-0.563123">
        <ele>898.6</ele>
        <time>2021-08-10T17:00:15.869Z</time>
      </trkpt>
      <trkpt lat="40.075671" lon="-0.563238">
        <ele>898.8</ele>
        <time>2021-08-10T17:00:20.869Z</time>
      </trkpt>
      <trkpt lat="40.075758" lon="-0.563226">
        <ele>899.0</ele>
        <time>2021-08-10T17:00:24.793Z</time>
      </trkpt>
      <trkpt lat="40.075919" lon="-0.563056">
        <ele>899.4</ele>
        <time>2021-08-10T17:00:34.009Z</time>
      </trkpt>
      <trkpt lat="40.076021" lon="-0.563021">
        <ele>899.6</ele>
        <time>2021-08-10T17:00:38.280Z</time>
      </trkpt>
      <trkpt lat="40.076330" lon="-0.563066">
        <ele>900.2</ele>
        <time>2021-08-10T17:00:50.939Z</time>
      </trkpt>
      <trkpt lat="40.076455" lon="-0.563184">
        <ele>900.5</ele>
        <time>2021-08-10T17:00:56.938Z</time>
      </trkpt>
      <trkpt lat="40.076531" lon="-0.563192">
        <ele>900.7</ele>
        <time>2021-08-10T17:01:00.012Z</time>
      </trkpt>
      <trkpt lat="40.076580" lon="-0.563133">
        <ele>900.8</ele>
        <time>2021-08-10T17:01:02.442Z</time>
      </trkpt>
      <trkpt lat="40.076645" lon="-0.562602">
        <ele>901.6</ele>
        <time>2021-08-10T17:01:17.268Z</time>
      </trkpt>
      <trkpt lat="40.076729" lon="-0.562466">
        <ele>901.9</ele>
        <time>2021-08-10T17:01:21.980Z</time>
      </trkpt>
      <trkpt lat="40.076921" lon="-0.562390">
        <ele>902.3</ele>
        <time>2021-08-10T17:01:30.316Z</time>
      </trkpt>
      <trkpt lat="40.077387" lon="-0.562423">
        <ele>903.6</ele>
        <time>2021-08-10T17:01:49.987Z</time>
      </trkpt>
      <trkpt lat="40.077493" lon="-0.562480">
        <ele>903.9</ele>
        <time>2021-08-10T17:01:54.486Z</time>
      </trkpt>
      <trkpt lat="40.077758" lon="-0.562878">
        <ele>904.9</ele>
        <time>2021-08-10T17:02:12.811Z</time>
      </trkpt>
      <trkpt lat="40.078138" lon="-0.562964">
        <ele>906.0</ele>
        <time>2021-08-10T17:02:30.852Z</time>
      </trkpt>
      <trkpt lat="40.078183" lon="-0.562980">
        <ele>906.1</ele>
        <time>2021-08-10T17:02:34.063Z</time>
      </trkpt>
      <trkpt lat="40.078302" lon="-0.563021">
        <ele>906.4</ele>
        <time>2021-08-10T17:02:40.030Z</time>
      </trkpt>
      <trkpt lat="40.078499" lon="-0.563074">
        <ele>907.0</ele>
        <time>2021-08-10T17:02:48.907Z</time>
      </trkpt>
      <trkpt lat="40.078556" lon="-0.562971">
        <ele>907.3</ele>
        <time>2021-08-10T17:02:54.901Z</time>
      </trkpt>
      <trkpt lat="40.078980" lon="-0.561134">
        <ele>912.8</ele>
        <time>2021-08-10T17:04:10.192Z</time>
      </trkpt>
      <trkpt lat="40.078987" lon="-0.560861">
        <ele>913.6</ele>
        <time>2021-08-10T17:04:20.480Z</time>
      </trkpt>
      <trkpt lat="40.078917" lon="-0.560359">
        <ele>914.7</ele>
        <time>2021-08-10T17:04:39.497Z</time>
      </trkpt>
      <trkpt lat="40.079039" lon="-0.559810">
        <ele>915.9</ele>
        <time>2021-08-10T17:05:00.320Z</time>
      </trkpt>
      <trkpt lat="40.079020" lon="-0.559639">
        <ele>916.2</ele>
        <time>2021-08-10T17:05:06.528Z</time>
      </trkpt>
      <trkpt lat="40.078875" lon="-0.559224">
        <ele>917.2</ele>
        <time>2021-08-10T17:05:22.297Z</time>
      </trkpt>
      <trkpt lat="40.078865" lon="-0.559054">
        <ele>917.5</ele>
        <time>2021-08-10T17:05:27.984Z</time>
      </trkpt>
      <trkpt lat="40.078970" lon="-0.558430">
        <ele>918.6</ele>
        <time>2021-08-10T17:05:48.341Z</time>
      </trkpt>
      <trkpt lat="40.078964" lon="-0.557797">
        <ele>918.6</ele>
        <time>2021-08-10T17:06:06.518Z</time>
      </trkpt>
      <trkpt lat="40.078598" lon="-0.556515">
        <ele>918.6</ele>
        <time>2021-08-10T17:06:38.566Z</time>
      </trkpt>
      <trkpt lat="40.078601" lon="-0.556138">
        <ele>918.4</ele>
        <time>2021-08-10T17:06:46.657Z</time>
      </trkpt>
      <trkpt lat="40.078727" lon="-0.555989">
        <ele>918.1</ele>
        <time>2021-08-10T17:06:51.334Z</time>
      </trkpt>
      <trkpt lat="40.079090" lon="-0.555799">
        <ele>917.4</ele>
        <time>2021-08-10T17:07:01.973Z</time>
      </trkpt>
      <trkpt lat="40.079357" lon="-0.555502">
        <ele>916.9</ele>
        <time>2021-08-10T17:07:11.493Z</time>
      </trkpt>
      <trkpt lat="40.079356" lon="-0.555367">
        <ele>916.7</ele>
        <time>2021-08-10T17:07:14.321Z</time>
      </trkpt>
      <trkpt lat="40.079296" lon="-0.555267">
        <ele>916.5</ele>
        <time>2021-08-10T17:07:16.959Z</time>
      </trkpt>
      <trkpt lat="40.078992" lon="-0.554967">
        <ele>915.9</ele>
        <time>2021-08-10T17:07:27.427Z</time>
      </trkpt>
      <trkpt lat="40.078965" lon="-0.554722">
        <ele>915.6</ele>
        <time>2021-08-10T17:07:32.891Z</time>
      </trkpt>
      <trkpt lat="40.079030" lon="-0.554561">
        <ele>915.9</ele>
        <time>2021-08-10T17:07:36.930Z</time>
      </trkpt>
      <trkpt lat="40.079209" lon="-0.554474">
        <ele>916.3</ele>
        <time>2021-08-10T17:07:42.780Z</time>
      </trkpt>
      <trkpt lat="40.079257" lon="-0.554246">
        <ele>916.6</ele>
        <time>2021-08-10T17:07:48.494Z</time>
      </trkpt>
      <trkpt lat="40.079618" lon="-0.553864">
        <ele>917.5</ele>
        <time>2021-08-10T17:08:06.034Z</time>
      </trkpt>
      <trkpt lat="40.079658" lon="-0.553528">
        <ele>918.0</ele>
        <time>2021-08-10T17:08:17.507Z</time>
      </trkpt>
      <trkpt lat="40.079600" lon="-0.553391">
        <ele>918.2</ele>
        <time>2021-08-10T17:08:23.289Z</time>
      </trkpt>
      <trkpt lat="40.079289" lon="-0.553092">
        <ele>918.9</ele>
        <time>2021-08-10T17:08:43.762Z</time>
      </trkpt>
      <trkpt lat="40.079125" lon="-0.552791">
        <ele>920.5</ele>
        <time>2021-08-10T17:09:00.480Z</time>
      </trkpt>
      <trkpt lat="40.078631" lon="-0.552155">
        <ele>925.0</ele>
        <time>2021-08-10T17:09:46.791Z</time>
      </trkpt>
      <trkpt lat="40.078527" lon="-0.551915">
        <ele>926.4</ele>
        <time>2021-08-10T17:10:01.438Z</time>
      </trkpt>
      <trkpt lat="40.078440" lon="-0.551469">
        <ele>928.7</ele>
        <time>2021-08-10T17:10:25.278Z</time>
      </trkpt>
      <trkpt lat="40.078253" lon="-0.551154">
        <ele>930.6</ele>
        <time>2021-08-10T17:10:45.467Z</time>
      </trkpt>
      <trkpt lat="40.078207" lon="-0.550685">
        <ele>932.3</ele>
        <time>2021-08-10T17:11:08.696Z</time>
      </trkpt>
      <trkpt lat="40.078088" lon="-0.550532">
        <ele>933.0</ele>
        <time>2021-08-10T17:11:18.969Z</time>
      </trkpt>
      <trkpt lat="40.078041" lon="-0.550367">
        <ele>933.6</ele>
        <time>2021-08-10T17:11:27.191Z</time>
      </trkpt>
      <trkpt lat="40.078007" lon="-0.549976">
        <ele>935.0</ele>
        <time>2021-08-10T17:11:44.613Z</time>
      </trkpt>
      <trkpt lat="40.077645" lon="-0.549791">
        <ele>936.8</ele>
        <time>2021-08-10T17:12:04.885Z</time>
      </trkpt>
      <trkpt lat="40.076999" lon="-0.549570">
        <ele>939.2</ele>
        <time>2021-08-10T17:12:33.154Z</time>
      </trkpt>
      <trkpt lat="40.076601" lon="-0.549278">
        <ele>939.9</ele>
        <time>2021-08-10T17:12:49.858Z</time>
      </trkpt>
      <trkpt lat="40.076568" lon="-0.549189">
        <ele>940.0</ele>
        <time>2021-08-10T17:12:52.773Z</time>
      </trkpt>
      <trkpt lat="40.076673" lon="-0.548994">
        <ele>940.3</ele>
        <time>2021-08-10T17:13:01.946Z</time>
      </trkpt>
      <trkpt lat="40.077306" lon="-0.548616">
        <ele>941.5</ele>
        <time>2021-08-10T17:13:30.403Z</time>
      </trkpt>
      <trkpt lat="40.077422" lon="-0.548497">
        <ele>941.8</ele>
        <time>2021-08-10T17:13:34.991Z</time>
      </trkpt>
      <trkpt lat="40.077481" lon="-0.548319">
        <ele>941.6</ele>
        <time>2021-08-10T17:13:40.450Z</time>
      </trkpt>
      <trkpt lat="40.077543" lon="-0.547966">
        <ele>941.2</ele>
        <time>2021-08-10T17:13:49.263Z</time>
      </trkpt>
      <trkpt lat="40.077652" lon="-0.548079">
        <ele>941.0</ele>
        <time>2021-08-10T17:13:54.874Z</time>
      </trkpt>
      <trkpt lat="40.077701" lon="-0.548172">
        <ele>940.9</ele>
        <time>2021-08-10T17:13:57.332Z</time>
      </trkpt>
      <trkpt lat="40.077657" lon="-0.548690">
        <ele>940.3</ele>
        <time>2021-08-10T17:14:09.086Z</time>
      </trkpt>
      <trkpt lat="40.077841" lon="-0.549156">
        <ele>939.8</ele>
        <time>2021-08-10T17:14:20.120Z</time>
      </trkpt>
      <trkpt lat="40.077805" lon="-0.549469">
        <ele>939.4</ele>
        <time>2021-08-10T17:14:26.690Z</time>
      </trkpt>
      <trkpt lat="40.077923" lon="-0.549696">
        <ele>938.6</ele>
        <time>2021-08-10T17:14:32.026Z</time>
      </trkpt>
      <trkpt lat="40.078505" lon="-0.550073">
        <ele>933.7</ele>
        <time>2021-08-10T17:14:46.845Z</time>
      </trkpt>
      <trkpt lat="40.078554" lon="-0.550170">
        <ele>933.1</ele>
        <time>2021-08-10T17:14:48.831Z</time>
      </trkpt>
      <trkpt lat="40.078606" lon="-0.550289">
        <ele>932.3</ele>
        <time>2021-08-10T17:14:51.058Z</time>
      </trkpt>
      <trkpt lat="40.078565" lon="-0.550508">
        <ele>931.0</ele>
        <time>2021-08-10T17:14:54.959Z</time>
      </trkpt>
      <trkpt lat="40.078631" lon="-0.550648">
        <ele>930.1</ele>
        <time>2021-08-10T17:14:57.749Z</time>
      </trkpt>
      <trkpt lat="40.078655" lon="-0.551141">
        <ele>927.3</ele>
        <time>2021-08-10T17:15:06.034Z</time>
      </trkpt>
      <trkpt lat="40.078655" lon="-0.551141">
        <ele>927.3</ele>
        <time>2021-08-10T17:15:06.081Z</time>
      </trkpt>
      <trkpt lat="40.078924" lon="-0.551955">
        <ele>922.3</ele>
        <time>2021-08-10T17:15:20.960Z</time>
      </trkpt>
      <trkpt lat="40.078986" lon="-0.552027">
        <ele>921.7</ele>
        <time>2021-08-10T17:15:22.708Z</time>
      </trkpt>
      <trkpt lat="40.079511" lon="-0.552269">
        <ele>917.7</ele>
        <time>2021-08-10T17:15:35.161Z</time>
      </trkpt>
      <trkpt lat="40.079768" lon="-0.552301">
        <ele>915.8</ele>
        <time>2021-08-10T17:15:40.988Z</time>
      </trkpt>
      <trkpt lat="40.080023" lon="-0.552237">
        <ele>913.9</ele>
        <time>2021-08-10T17:15:47.130Z</time>
      </trkpt>
      <trkpt lat="40.080193" lon="-0.552589">
        <ele>912.6</ele>
        <time>2021-08-10T17:15:55.067Z</time>
      </trkpt>
      <trkpt lat="40.080168" lon="-0.552701">
        <ele>912.5</ele>
        <time>2021-08-10T17:15:57.549Z</time>
      </trkpt>
      <trkpt lat="40.080197" lon="-0.552773">
        <ele>912.4</ele>
        <time>2021-08-10T17:15:59.144Z</time>
      </trkpt>
      <trkpt lat="40.080601" lon="-0.553221">
        <ele>911.7</ele>
        <time>2021-08-10T17:16:13.553Z</time>
      </trkpt>
      <trkpt lat="40.080745" lon="-0.553637">
        <ele>911.2</ele>
        <time>2021-08-10T17:16:23.940Z</time>
      </trkpt>
      <trkpt lat="40.080735" lon="-0.553803">
        <ele>911.1</ele>
        <time>2021-08-10T17:16:28.568Z</time>
      </trkpt>
      <trkpt lat="40.080859" lon="-0.553944">
        <ele>910.9</ele>
        <time>2021-08-10T17:16:33.686Z</time>
      </trkpt>
      <trkpt lat="40.080870" lon="-0.554196">
        <ele>910.6</ele>
        <time>2021-08-10T17:16:41.205Z</time>
      </trkpt>
      <trkpt lat="40.080988" lon="-0.554376">
        <ele>910.5</ele>
        <time>2021-08-10T17:16:47.695Z</time>
      </trkpt>
      <trkpt lat="40.080968" lon="-0.554678">
        <ele>910.8</ele>
        <time>2021-08-10T17:16:57.367Z</time>
      </trkpt>
      <trkpt lat="40.080776" lon="-0.555072">
        <ele>911.3</ele>
        <time>2021-08-10T17:17:12.467Z</time>
      </trkpt>
      <trkpt lat="40.080604" lon="-0.555223">
        <ele>911.6</ele>
        <time>2021-08-10T17:17:21.268Z</time>
      </trkpt>
      <trkpt lat="40.080589" lon="-0.555368">
        <ele>911.7</ele>
        <time>2021-08-10T17:17:26.424Z</time>
      </trkpt>
      <trkpt lat="40.080435" lon="-0.555620">
        <ele>912.1</ele>
        <time>2021-08-10T17:17:36.747Z</time>
      </trkpt>
      <trkpt lat="40.080395" lon="-0.556048">
        <ele>912.5</ele>
        <time>2021-08-10T17:17:49.376Z</time>
      </trkpt>
      <trkpt lat="40.080458" lon="-0.556398">
        <ele>912.8</ele>
        <time>2021-08-10T17:17:58.932Z</time>
      </trkpt>
      <trkpt lat="40.080237" lon="-0.557428">
        <ele>910.5</ele>
        <time>2021-08-10T17:18:23.115Z</time>
      </trkpt>
      <trkpt lat="40.080246" lon="-0.558279">
        <ele>908.7</ele>
        <time>2021-08-10T17:18:39.841Z</time>
      </trkpt>
      <trkpt lat="40.080283" lon="-0.558482">
        <ele>908.2</ele>
        <time>2021-08-10T17:18:43.728Z</time>
      </trkpt>
      <trkpt lat="40.080422" lon="-0.558723">
        <ele>907.2</ele>
        <time>2021-08-10T17:18:48.853Z</time>
      </trkpt>
      <trkpt lat="40.080597" lon="-0.559265">
        <ele>903.9</ele>
        <time>2021-08-10T17:18:59.029Z</time>
      </trkpt>
      <trkpt lat="40.080789" lon="-0.559467">
        <ele>902.0</ele>
        <time>2021-08-10T17:19:04.496Z</time>
      </trkpt>
      <trkpt lat="40.081178" lon="-0.559619">
        <ele>899.0</ele>
        <time>2021-08-10T17:19:13.504Z</time>
      </trkpt>
      <trkpt lat="40.081349" lon="-0.559820">
        <ele>897.3</ele>
        <time>2021-08-10T17:19:18.907Z</time>
      </trkpt>
      <trkpt lat="40.081383" lon="-0.559948">
        <ele>896.6</ele>
        <time>2021-08-10T17:19:21.058Z</time>
      </trkpt>
      <trkpt lat="40.081385" lon="-0.560017">
        <ele>896.2</ele>
        <time>2021-08-10T17:19:22.265Z</time>
      </trkpt>
      <trkpt lat="40.081180" lon="-0.560527">
        <ele>893.1</ele>
        <time>2021-08-10T17:19:32.286Z</time>
      </trkpt>
      <trkpt lat="40.080884" lon="-0.560911">
        <ele>890.4</ele>
        <time>2021-08-10T17:19:41.791Z</time>
      </trkpt>
      <trkpt lat="40.080591" lon="-0.561059">
        <ele>888.4</ele>
        <time>2021-08-10T17:19:48.876Z</time>
      </trkpt>
      <trkpt lat="40.080519" lon="-0.561205">
        <ele>887.5</ele>
        <time>2021-08-10T17:19:51.995Z</time>
      </trkpt>
      <trkpt lat="40.080783" lon="-0.561968">
        <ele>883.4</ele>
        <time>2021-08-10T17:20:07.177Z</time>
      </trkpt>
      <trkpt lat="40.080728" lon="-0.562519">
        <ele>881.1</ele>
        <time>2021-08-10T17:20:17.505Z</time>
      </trkpt>
      <trkpt lat="40.080811" lon="-0.563087">
        <ele>878.7</ele>
        <time>2021-08-10T17:20:27.891Z</time>
      </trkpt>
      <trkpt lat="40.080591" lon="-0.563604">
        <ele>876.4</ele>
        <time>2021-08-10T17:20:38.638Z</time>
      </trkpt>
      <trkpt lat="40.080545" lon="-0.563825">
        <ele>875.4</ele>
        <time>2021-08-10T17:20:43.001Z</time>
      </trkpt>
      <trkpt lat="40.080651" lon="-0.564274">
        <ele>873.5</ele>
        <time>2021-08-10T17:20:51.751Z</time>
      </trkpt>
      <trkpt lat="40.080668" lon="-0.564469">
        <ele>872.8</ele>
        <time>2021-08-10T17:20:55.273Z</time>
      </trkpt>
      <trkpt lat="40.080611" lon="-0.564947">
        <ele>870.9</ele>
        <time>2021-08-10T17:21:04.294Z</time>
      </trkpt>
      <trkpt lat="40.080377" lon="-0.565245">
        <ele>869.2</ele>
        <time>2021-08-10T17:21:12.385Z</time>
      </trkpt>
      <trkpt lat="40.080275" lon="-0.565737">
        <ele>867.3</ele>
        <time>2021-08-10T17:21:22.322Z</time>
      </trkpt>
      <trkpt lat="40.080135" lon="-0.565937">
        <ele>866.2</ele>
        <time>2021-08-10T17:21:27.321Z</time>
      </trkpt>
      <trkpt lat="40.080100" lon="-0.566157">
        <ele>865.4</ele>
        <time>2021-08-10T17:21:31.362Z</time>
      </trkpt>
      <trkpt lat="40.080069" lon="-0.566247">
        <ele>865.0</ele>
        <time>2021-08-10T17:21:32.994Z</time>
      </trkpt>
      <trkpt lat="40.080069" lon="-0.566247">
        <ele>865.0</ele>
        <time>2021-08-10T17:21:33.012Z</time>
      </trkpt>
      <trkpt lat="40.080021" lon="-0.566313">
        <ele>864.6</ele>
        <time>2021-08-10T17:21:34.666Z</time>
      </trkpt>
      <trkpt lat="40.079899" lon="-0.566431">
        <ele>863.4</ele>
        <time>2021-08-10T17:21:38.279Z</time>
      </trkpt>
      <trkpt lat="40.080021" lon="-0.566313">
        <ele>862.0</ele>
        <time>2021-08-10T17:21:41.634Z</time>
      </trkpt>
      <trkpt lat="40.080069" lon="-0.566247">
        <ele>861.4</ele>
        <time>2021-08-10T17:21:43.233Z</time>
      </trkpt>
      <trkpt lat="40.080069" lon="-0.566247">
        <ele>861.4</ele>
        <time>2021-08-10T17:21:43.235Z</time>
      </trkpt>
      <trkpt lat="40.080355" lon="-0.565888">
        <ele>857.7</ele>
        <time>2021-08-10T17:21:52.039Z</time>
      </trkpt>
      <trkpt lat="40.080470" lon="-0.565705">
        <ele>856.0</ele>
        <time>2021-08-10T17:21:56.047Z</time>
      </trkpt>
      <trkpt lat="40.080901" lon="-0.565545">
        <ele>851.8</ele>
        <time>2021-08-10T17:22:05.520Z</time>
      </trkpt>
      <trkpt lat="40.080996" lon="-0.565435">
        <ele>850.6</ele>
        <time>2021-08-10T17:22:08.248Z</time>
      </trkpt>
      <trkpt lat="40.081122" lon="-0.564987">
        <ele>847.1</ele>
        <time>2021-08-10T17:22:16.013Z</time>
      </trkpt>
      <trkpt lat="40.081554" lon="-0.564087">
        <ele>837.5</ele>
        <time>2021-08-10T17:22:32.872Z</time>
      </trkpt>
      <trkpt lat="40.081976" lon="-0.563831">
        <ele>832.0</ele>
        <time>2021-08-10T17:22:42.561Z</time>
      </trkpt>
      <trkpt lat="40.082026" lon="-0.563742">
        <ele>831.0</ele>
        <time>2021-08-10T17:22:44.342Z</time>
      </trkpt>
      <trkpt lat="40.082021" lon="-0.563611">
        <ele>829.9</ele>
        <time>2021-08-10T17:22:46.462Z</time>
      </trkpt>
      <trkpt lat="40.081909" lon="-0.563296">
        <ele>826.7</ele>
        <time>2021-08-10T17:22:52.111Z</time>
      </trkpt>
      <trkpt lat="40.081795" lon="-0.562363">
        <ele>817.4</ele>
        <time>2021-08-10T17:23:07.548Z</time>
      </trkpt>
      <trkpt lat="40.081868" lon="-0.561994">
        <ele>813.6</ele>
        <time>2021-08-10T17:23:13.671Z</time>
      </trkpt>
      <trkpt lat="40.082477" lon="-0.561431">
        <ele>803.9</ele>
        <time>2021-08-10T17:23:28.860Z</time>
      </trkpt>
      <trkpt lat="40.082677" lon="-0.561112">
        <ele>797.6</ele>
        <time>2021-08-10T17:23:35.161Z</time>
      </trkpt>
      <trkpt lat="40.083224" lon="-0.560716">
        <ele>783.9</ele>
        <time>2021-08-10T17:23:47.492Z</time>
      </trkpt>
      <trkpt lat="40.083479" lon="-0.560372">
        <ele>775.8</ele>
        <time>2021-08-10T17:23:54.664Z</time>
      </trkpt>
      <trkpt lat="40.083577" lon="-0.560321">
        <ele>773.5</ele>
        <time>2021-08-10T17:23:56.742Z</time>
      </trkpt>
      <trkpt lat="40.084147" lon="-0.560310">
        <ele>760.3</ele>
        <time>2021-08-10T17:24:07.895Z</time>
      </trkpt>
      <trkpt lat="40.084610" lon="-0.560676">
        <ele>744.7</ele>
        <time>2021-08-10T17:24:18.502Z</time>
      </trkpt>
      <trkpt lat="40.084840" lon="-0.560681">
        <ele>738.2</ele>
        <time>2021-08-10T17:24:22.978Z</time>
      </trkpt>
      <trkpt lat="40.084947" lon="-0.560586">
        <ele>734.5</ele>
        <time>2021-08-10T17:24:25.538Z</time>
      </trkpt>
      <trkpt lat="40.085062" lon="-0.560435">
        <ele>729.8</ele>
        <time>2021-08-10T17:24:28.729Z</time>
      </trkpt>
      <trkpt lat="40.085314" lon="-0.560316">
        <ele>722.1</ele>
        <time>2021-08-10T17:24:33.966Z</time>
      </trkpt>
      <trkpt lat="40.085539" lon="-0.560335">
        <ele>715.6</ele>
        <time>2021-08-10T17:24:38.353Z</time>
      </trkpt>
      <trkpt lat="40.085627" lon="-0.560155">
        <ele>711.2</ele>
        <time>2021-08-10T17:24:41.557Z</time>
      </trkpt>
      <trkpt lat="40.085827" lon="-0.560324">
        <ele>705.9</ele>
        <time>2021-08-10T17:24:46.196Z</time>
      </trkpt>
      <trkpt lat="40.086228" lon="-0.560837">
        <ele>693.4</ele>
        <time>2021-08-10T17:24:57.112Z</time>
      </trkpt>
      <trkpt lat="40.086369" lon="-0.560924">
        <ele>689.9</ele>
        <time>2021-08-10T17:25:00.198Z</time>
      </trkpt>
      <trkpt lat="40.086872" lon="-0.561015">
        <ele>678.6</ele>
        <time>2021-08-10T17:25:10.147Z</time>
      </trkpt>
      <trkpt lat="40.086961" lon="-0.560929">
        <ele>676.1</ele>
        <time>2021-08-10T17:25:12.343Z</time>
      </trkpt>
      <trkpt lat="40.086980" lon="-0.560752">
        <ele>673.1</ele>
        <time>2021-08-10T17:25:15.003Z</time>
      </trkpt>
      <trkpt lat="40.086611" lon="-0.560172">
        <ele>662.6</ele>
        <time>2021-08-10T17:25:26.561Z</time>
      </trkpt>
      <trkpt lat="40.086508" lon="-0.559737">
        <ele>656.4</ele>
        <time>2021-08-10T17:25:33.499Z</time>
      </trkpt>
      <trkpt lat="40.086497" lon="-0.559612">
        <ele>654.7</ele>
        <time>2021-08-10T17:25:35.362Z</time>
      </trkpt>
      <trkpt lat="40.086563" lon="-0.559439">
        <ele>652.1</ele>
        <time>2021-08-10T17:25:38.285Z</time>
      </trkpt>
      <trkpt lat="40.086699" lon="-0.559272">
        <ele>648.8</ele>
        <time>2021-08-10T17:25:41.963Z</time>
      </trkpt>
      <trkpt lat="40.086832" lon="-0.559201">
        <ele>646.3</ele>
        <time>2021-08-10T17:25:44.811Z</time>
      </trkpt>
      <trkpt lat="40.086925" lon="-0.559196">
        <ele>644.6</ele>
        <time>2021-08-10T17:25:46.654Z</time>
      </trkpt>
      <trkpt lat="40.087415" lon="-0.559052">
        <ele>639.8</ele>
        <time>2021-08-10T17:25:52.195Z</time>
      </trkpt>
      <trkpt lat="40.087499" lon="-0.558912">
        <ele>597.4</ele>
        <time>2021-08-10T17:25:52.691Z</time>
      </trkpt>
      <trkpt lat="40.087649" lon="-0.558928">
        <ele>592.9</ele>
        <time>2021-08-10T17:25:52.882Z</time>
      </trkpt>
      <trkpt lat="40.087670" lon="-0.559023">
        <ele>594.7</ele>
        <time>2021-08-10T17:25:52.976Z</time>
      </trkpt>
      <trkpt lat="40.087595" lon="-0.559162">
        <ele>601.1</ele>
        <time>2021-08-10T17:25:53.151Z</time>
      </trkpt>
      <trkpt lat="40.087232" lon="-0.559373">
        <ele>614.3</ele>
        <time>2021-08-10T17:25:53.659Z</time>
      </trkpt>
      <trkpt lat="40.087088" lon="-0.559526">
        <ele>638.7</ele>
        <time>2021-08-10T17:25:54.012Z</time>
      </trkpt>
      <trkpt lat="40.087215" lon="-0.559738">
        <ele>636.3</ele>
        <time>2021-08-10T17:25:58.165Z</time>
      </trkpt>
      <trkpt lat="40.087247" lon="-0.559639">
        <ele>635.3</ele>
        <time>2021-08-10T17:25:59.777Z</time>
      </trkpt>
      <trkpt lat="40.087511" lon="-0.559566">
        <ele>632.2</ele>
        <time>2021-08-10T17:26:05.299Z</time>
      </trkpt>
      <trkpt lat="40.087557" lon="-0.559623">
        <ele>631.4</ele>
        <time>2021-08-10T17:26:06.577Z</time>
      </trkpt>
      <trkpt lat="40.087638" lon="-0.559508">
        <ele>630.0</ele>
        <time>2021-08-10T17:26:07.963Z</time>
      </trkpt>
      <trkpt lat="40.088063" lon="-0.558977">
        <ele>623.1</ele>
        <time>2021-08-10T17:26:15.049Z</time>
      </trkpt>
      <trkpt lat="40.088281" lon="-0.558465">
        <ele>618.6</ele>
        <time>2021-08-10T17:26:20.447Z</time>
      </trkpt>
      <trkpt lat="40.088273" lon="-0.558211">
        <ele>618.2</ele>
        <time>2021-08-10T17:26:23.261Z</time>
      </trkpt>
      <trkpt lat="40.088205" lon="-0.558079">
        <ele>617.9</ele>
        <time>2021-08-10T17:26:24.827Z</time>
      </trkpt>
      <trkpt lat="40.088014" lon="-0.557983">
        <ele>617.4</ele>
        <time>2021-08-10T17:26:27.675Z</time>
      </trkpt>
      <trkpt lat="40.087441" lon="-0.558115">
        <ele>616.1</ele>
        <time>2021-08-10T17:26:39.140Z</time>
      </trkpt>
      <trkpt lat="40.087293" lon="-0.558109">
        <ele>615.8</ele>
        <time>2021-08-10T17:26:42.023Z</time>
      </trkpt>
      <trkpt lat="40.087191" lon="-0.558030">
        <ele>615.5</ele>
        <time>2021-08-10T17:26:44.448Z</time>
      </trkpt>
      <trkpt lat="40.087089" lon="-0.557780">
        <ele>615.1</ele>
        <time>2021-08-10T17:26:48.571Z</time>
      </trkpt>
      <trkpt lat="40.087116" lon="-0.557492">
        <ele>614.9</ele>
        <time>2021-08-10T17:26:52.893Z</time>
      </trkpt>
      <trkpt lat="40.087185" lon="-0.556755">
        <ele>615.3</ele>
        <time>2021-08-10T17:27:03.900Z</time>
      </trkpt>
      <trkpt lat="40.087157" lon="-0.556445">
        <ele>615.5</ele>
        <time>2021-08-10T17:27:09.344Z</time>
      </trkpt>
      <trkpt lat="40.086992" lon="-0.556262">
        <ele>615.6</ele>
        <time>2021-08-10T17:27:14.869Z</time>
      </trkpt>
      <trkpt lat="40.086475" lon="-0.556081">
        <ele>616.0</ele>
        <time>2021-08-10T17:27:29.562Z</time>
      </trkpt>
      <trkpt lat="40.086367" lon="-0.555931">
        <ele>616.1</ele>
        <time>2021-08-10T17:27:33.126Z</time>
      </trkpt>
      <trkpt lat="40.086249" lon="-0.555362">
        <ele>616.6</ele>
        <time>2021-08-10T17:27:43.476Z</time>
      </trkpt>
      <trkpt lat="40.086123" lon="-0.555074">
        <ele>616.8</ele>
        <time>2021-08-10T17:27:50.855Z</time>
      </trkpt>
      <trkpt lat="40.085945" lon="-0.554982">
        <ele>617.0</ele>
        <time>2021-08-10T17:27:54.631Z</time>
      </trkpt>
      <trkpt lat="40.085536" lon="-0.555030">
        <ele>617.4</ele>
        <time>2021-08-10T17:28:03.203Z</time>
      </trkpt>
      <trkpt lat="40.085319" lon="-0.554970">
        <ele>617.6</ele>
        <time>2021-08-10T17:28:08.066Z</time>
      </trkpt>
      <trkpt lat="40.085096" lon="-0.554711">
        <ele>617.8</ele>
        <time>2021-08-10T17:28:17.101Z</time>
      </trkpt>
      <trkpt lat="40.085033" lon="-0.554425">
        <ele>617.7</ele>
        <time>2021-08-10T17:28:21.644Z</time>
      </trkpt>
      <trkpt lat="40.085042" lon="-0.554256">
        <ele>617.7</ele>
        <time>2021-08-10T17:28:25.874Z</time>
      </trkpt>
      <trkpt lat="40.085061" lon="-0.553818">
        <ele>617.6</ele>
        <time>2021-08-10T17:28:32.849Z</time>
      </trkpt>
      <trkpt lat="40.085052" lon="-0.553677">
        <ele>617.6</ele>
        <time>2021-08-10T17:28:34.692Z</time>
      </trkpt>
      <trkpt lat="40.085005" lon="-0.553546">
        <ele>617.6</ele>
        <time>2021-08-10T17:28:36.827Z</time>
      </trkpt>
      <trkpt lat="40.084687" lon="-0.553074">
        <ele>617.4</ele>
        <time>2021-08-10T17:28:45.930Z</time>
      </trkpt>
      <trkpt lat="40.084664" lon="-0.552912">
        <ele>617.4</ele>
        <time>2021-08-10T17:28:48.145Z</time>
      </trkpt>
      <trkpt lat="40.084664" lon="-0.552768">
        <ele>617.4</ele>
        <time>2021-08-10T17:28:50.110Z</time>
      </trkpt>
      <trkpt lat="40.084670" lon="-0.552305">
        <ele>615.8</ele>
        <time>2021-08-10T17:28:56.155Z</time>
      </trkpt>
      <trkpt lat="40.084603" lon="-0.551883">
        <ele>613.7</ele>
        <time>2021-08-10T17:29:00.373Z</time>
      </trkpt>
      <trkpt lat="40.084583" lon="-0.551298">
        <ele>610.8</ele>
        <time>2021-08-10T17:29:06.230Z</time>
      </trkpt>
      <trkpt lat="40.084385" lon="-0.550712">
        <ele>607.6</ele>
        <time>2021-08-10T17:29:12.360Z</time>
      </trkpt>
      <trkpt lat="40.084355" lon="-0.550600">
        <ele>607.0</ele>
        <time>2021-08-10T17:29:13.396Z</time>
      </trkpt>
      <trkpt lat="40.084303" lon="-0.550258">
        <ele>605.0</ele>
        <time>2021-08-10T17:29:16.669Z</time>
      </trkpt>
      <trkpt lat="40.084376" lon="-0.550120">
        <ele>603.5</ele>
        <time>2021-08-10T17:29:18.204Z</time>
      </trkpt>
      <trkpt lat="40.084458" lon="-0.549874">
        <ele>601.1</ele>
        <time>2021-08-10T17:29:20.897Z</time>
      </trkpt>
      <trkpt lat="40.084408" lon="-0.549600">
        <ele>598.6</ele>
        <time>2021-08-10T17:29:23.516Z</time>
      </trkpt>
      <trkpt lat="40.083457" lon="-0.547769">
        <ele>582.1</ele>
        <time>2021-08-10T17:29:44.542Z</time>
      </trkpt>
      <trkpt lat="40.083456" lon="-0.547463">
        <ele>580.8</ele>
        <time>2021-08-10T17:29:47.923Z</time>
      </trkpt>
      <trkpt lat="40.083549" lon="-0.547183">
        <ele>579.5</ele>
        <time>2021-08-10T17:29:51.155Z</time>
      </trkpt>
      <trkpt lat="40.083571" lon="-0.546942">
        <ele>578.5</ele>
        <time>2021-08-10T17:29:54.394Z</time>
      </trkpt>
      <trkpt lat="40.083563" lon="-0.546822">
        <ele>578.0</ele>
        <time>2021-08-10T17:29:55.577Z</time>
      </trkpt>
      <trkpt lat="40.083449" lon="-0.546392">
        <ele>576.1</ele>
        <time>2021-08-10T17:30:01.785Z</time>
      </trkpt>
      <trkpt lat="40.083335" lon="-0.546015">
        <ele>574.7</ele>
        <time>2021-08-10T17:30:10.925Z</time>
      </trkpt>
      <trkpt lat="40.083145" lon="-0.545756">
        <ele>574.2</ele>
        <time>2021-08-10T17:30:16.202Z</time>
      </trkpt>
      <trkpt lat="40.083103" lon="-0.545626">
        <ele>573.9</ele>
        <time>2021-08-10T17:30:18.129Z</time>
      </trkpt>
      <trkpt lat="40.083160" lon="-0.544973">
        <ele>572.9</ele>
        <time>2021-08-10T17:30:26.737Z</time>
      </trkpt>
      <trkpt lat="40.083084" lon="-0.544347">
        <ele>571.8</ele>
        <time>2021-08-10T17:30:35.984Z</time>
      </trkpt>
      <trkpt lat="40.083099" lon="-0.544135">
        <ele>571.5</ele>
        <time>2021-08-10T17:30:38.903Z</time>
      </trkpt>
      <trkpt lat="40.083125" lon="-0.544068">
        <ele>571.4</ele>
        <time>2021-08-10T17:30:41.960Z</time>
      </trkpt>
      <trkpt lat="40.083135" lon="-0.544073">
        <ele>571.3</ele>
        <time>2021-08-10T17:30:42.173Z</time>
      </trkpt>
      <trkpt lat="40.083186" lon="-0.544063">
        <ele>571.2</ele>
        <time>2021-08-10T17:30:43.179Z</time>
      </trkpt>
      <trkpt lat="40.083437" lon="-0.543595">
        <ele>567.2</ele>
        <time>2021-08-10T17:30:50.640Z</time>
      </trkpt>
      <trkpt lat="40.083609" lon="-0.543391">
        <ele>564.8</ele>
        <time>2021-08-10T17:30:54.404Z</time>
      </trkpt>
      <trkpt lat="40.084429" lon="-0.542725">
        <ele>555.1</ele>
        <time>2021-08-10T17:31:09.983Z</time>
      </trkpt>
      <trkpt lat="40.084519" lon="-0.542672">
        <ele>554.1</ele>
        <time>2021-08-10T17:31:11.491Z</time>
      </trkpt>
      <trkpt lat="40.084622" lon="-0.542613">
        <ele>553.0</ele>
        <time>2021-08-10T17:31:13.282Z</time>
      </trkpt>
      <trkpt lat="40.085191" lon="-0.542513">
        <ele>548.3</ele>
        <time>2021-08-10T17:31:22.551Z</time>
      </trkpt>
      <trkpt lat="40.085762" lon="-0.542601">
        <ele>543.5</ele>
        <time>2021-08-10T17:31:32.254Z</time>
      </trkpt>
      <trkpt lat="40.085886" lon="-0.542599">
        <ele>542.5</ele>
        <time>2021-08-10T17:31:34.425Z</time>
      </trkpt>
      <trkpt lat="40.086072" lon="-0.542646">
        <ele>540.9</ele>
        <time>2021-08-10T17:31:38.819Z</time>
      </trkpt>
      <trkpt lat="40.086376" lon="-0.542689">
        <ele>538.4</ele>
        <time>2021-08-10T17:31:46.417Z</time>
      </trkpt>
      <trkpt lat="40.086571" lon="-0.542661">
        <ele>537.6</ele>
        <time>2021-08-10T17:31:51.290Z</time>
      </trkpt>
      <trkpt lat="40.087238" lon="-0.542418">
        <ele>535.3</ele>
        <time>2021-08-10T17:32:08.748Z</time>
      </trkpt>
      <trkpt lat="40.087480" lon="-0.542336">
        <ele>534.5</ele>
        <time>2021-08-10T17:32:15.374Z</time>
      </trkpt>
      <trkpt lat="40.087650" lon="-0.542278">
        <ele>533.9</ele>
        <time>2021-08-10T17:32:19.682Z</time>
      </trkpt>
      <trkpt lat="40.088230" lon="-0.541643">
        <ele>531.8</ele>
        <time>2021-08-10T17:32:40.090Z</time>
      </trkpt>
      <trkpt lat="40.088317" lon="-0.541270">
        <ele>531.4</ele>
        <time>2021-08-10T17:32:48.330Z</time>
      </trkpt>
      <trkpt lat="40.088280" lon="-0.541041">
        <ele>531.2</ele>
        <time>2021-08-10T17:32:54.990Z</time>
      </trkpt>
      <trkpt lat="40.088239" lon="-0.540785">
        <ele>530.9</ele>
        <time>2021-08-10T17:32:59.699Z</time>
      </trkpt>
      <trkpt lat="40.087849" lon="-0.540272">
        <ele>530.1</ele>
        <time>2021-08-10T17:33:15.835Z</time>
      </trkpt>
      <trkpt lat="40.087696" lon="-0.540185">
        <ele>529.9</ele>
        <time>2021-08-10T17:33:20.270Z</time>
      </trkpt>
      <trkpt lat="40.087593" lon="-0.540057">
        <ele>529.7</ele>
        <time>2021-08-10T17:33:25.425Z</time>
      </trkpt>
      <trkpt lat="40.087435" lon="-0.539959">
        <ele>530.3</ele>
        <time>2021-08-10T17:33:29.927Z</time>
      </trkpt>
      <trkpt lat="40.087183" lon="-0.539954">
        <ele>531.3</ele>
        <time>2021-08-10T17:33:45.217Z</time>
      </trkpt>
      <trkpt lat="40.087153" lon="-0.539932">
        <ele>531.4</ele>
        <time>2021-08-10T17:33:47.303Z</time>
      </trkpt>
      <trkpt lat="40.087116" lon="-0.539945">
        <ele>531.6</ele>
        <time>2021-08-10T17:33:48.217Z</time>
      </trkpt>
      <trkpt lat="40.086528" lon="-0.540083">
        <ele>533.9</ele>
        <time>2021-08-10T17:34:22.468Z</time>
      </trkpt>
      <trkpt lat="40.086378" lon="-0.540038">
        <ele>534.5</ele>
        <time>2021-08-10T17:34:29.009Z</time>
      </trkpt>
      <trkpt lat="40.086221" lon="-0.540091">
        <ele>535.2</ele>
        <time>2021-08-10T17:34:40.786Z</time>
      </trkpt>
      <trkpt lat="40.086110" lon="-0.540077">
        <ele>535.6</ele>
        <time>2021-08-10T17:34:48.504Z</time>
      </trkpt>
      <trkpt lat="40.086125" lon="-0.540137">
        <ele>535.8</ele>
        <time>2021-08-10T17:34:50.105Z</time>
      </trkpt>
      <trkpt lat="40.086095" lon="-0.540151">
        <ele>535.9</ele>
        <time>2021-08-10T17:34:50.932Z</time>
      </trkpt>
      <trkpt lat="40.086040" lon="-0.539756">
        <ele>537.6</ele>
        <time>2021-08-10T17:35:10.277Z</time>
      </trkpt>
      <trkpt lat="40.086035" lon="-0.539722">
        <ele>537.8</ele>
        <time>2021-08-10T17:35:10.934Z</time>
      </trkpt>
      <trkpt lat="40.085510" lon="-0.539656">
        <ele>542.0</ele>
        <time>2021-08-10T17:35:44.638Z</time>
      </trkpt>
      <trkpt lat="40.084888" lon="-0.539912">
        <ele>547.2</ele>
        <time>2021-08-10T17:36:33.097Z</time>
      </trkpt>
      <trkpt lat="40.084713" lon="-0.539931">
        <ele>548.6</ele>
        <time>2021-08-10T17:36:49.279Z</time>
      </trkpt>
      <trkpt lat="40.084500" lon="-0.539799">
        <ele>550.5</ele>
        <time>2021-08-10T17:37:07.579Z</time>
      </trkpt>
      <trkpt lat="40.084376" lon="-0.539587">
        <ele>552.7</ele>
        <time>2021-08-10T17:37:23.836Z</time>
      </trkpt>
      <trkpt lat="40.084094" lon="-0.539677">
        <ele>556.6</ele>
        <time>2021-08-10T17:37:46.087Z</time>
      </trkpt>
      <trkpt lat="40.083767" lon="-0.539536">
        <ele>561.1</ele>
        <time>2021-08-10T17:38:16.399Z</time>
      </trkpt>
      <trkpt lat="40.083480" lon="-0.539491">
        <ele>564.9</ele>
        <time>2021-08-10T17:38:44.919Z</time>
      </trkpt>
      <trkpt lat="40.083321" lon="-0.539293">
        <ele>567.8</ele>
        <time>2021-08-10T17:39:09.904Z</time>
      </trkpt>
      <trkpt lat="40.083233" lon="-0.539017">
        <ele>570.8</ele>
        <time>2021-08-10T17:39:34.751Z</time>
      </trkpt>
      <trkpt lat="40.083233" lon="-0.539017">
        <ele>570.8</ele>
        <time>2021-08-10T17:39:35.084Z</time>
      </trkpt>
      <trkpt lat="40.082989" lon="-0.538803">
        <ele>574.7</ele>
        <time>2021-08-10T17:40:08.402Z</time>
      </trkpt>
      <trkpt lat="40.083067" lon="-0.538735">
        <ele>576.0</ele>
        <time>2021-08-10T17:40:20.251Z</time>
      </trkpt>
      <trkpt lat="40.083270" lon="-0.538771">
        <ele>578.9</ele>
        <time>2021-08-10T17:40:41.242Z</time>
      </trkpt>
      <trkpt lat="40.083599" lon="-0.538985">
        <ele>584.1</ele>
        <time>2021-08-10T17:41:22.133Z</time>
      </trkpt>
      <trkpt lat="40.083772" lon="-0.538970">
        <ele>586.5</ele>
        <time>2021-08-10T17:41:43.776Z</time>
      </trkpt>
      <trkpt lat="40.083614" lon="-0.538879">
        <ele>588.9</ele>
        <time>2021-08-10T17:42:00.144Z</time>
      </trkpt>
      <trkpt lat="40.083315" lon="-0.538496">
        <ele>594.8</ele>
        <time>2021-08-10T17:42:42.574Z</time>
      </trkpt>
      <trkpt lat="40.083315" lon="-0.538496">
        <ele>594.8</ele>
        <time>2021-08-10T17:42:43.166Z</time>
      </trkpt>
      <trkpt lat="40.082992" lon="-0.538218">
        <ele>600.2</ele>
        <time>2021-08-10T17:43:19.174Z</time>
      </trkpt>
      <trkpt lat="40.082840" lon="-0.538018">
        <ele>600.9</ele>
        <time>2021-08-10T17:43:35.756Z</time>
      </trkpt>
      <trkpt lat="40.082615" lon="-0.537939">
        <ele>601.7</ele>
        <time>2021-08-10T17:43:53.555Z</time>
      </trkpt>
      <trkpt lat="40.081928" lon="-0.538439">
        <ele>604.5</ele>
        <time>2021-08-10T17:44:29.863Z</time>
      </trkpt>
      <trkpt lat="40.081772" lon="-0.538622">
        <ele>605.2</ele>
        <time>2021-08-10T17:44:35.821Z</time>
      </trkpt>
      <trkpt lat="40.081646" lon="-0.538682">
        <ele>605.7</ele>
        <time>2021-08-10T17:44:39.583Z</time>
      </trkpt>
      <trkpt lat="40.081474" lon="-0.538651">
        <ele>606.3</ele>
        <time>2021-08-10T17:44:44.154Z</time>
      </trkpt>
      <trkpt lat="40.081131" lon="-0.538380">
        <ele>604.9</ele>
        <time>2021-08-10T17:44:54.771Z</time>
      </trkpt>
      <trkpt lat="40.081018" lon="-0.538019">
        <ele>603.7</ele>
        <time>2021-08-10T17:45:02.482Z</time>
      </trkpt>
      <trkpt lat="40.080898" lon="-0.537804">
        <ele>602.9</ele>
        <time>2021-08-10T17:45:07.647Z</time>
      </trkpt>
      <trkpt lat="40.080801" lon="-0.537632">
        <ele>602.2</ele>
        <time>2021-08-10T17:45:11.612Z</time>
      </trkpt>
      <trkpt lat="40.080517" lon="-0.537488">
        <ele>601.0</ele>
        <time>2021-08-10T17:45:18.991Z</time>
      </trkpt>
      <trkpt lat="40.080383" lon="-0.537362">
        <ele>600.4</ele>
        <time>2021-08-10T17:45:22.665Z</time>
      </trkpt>
      <trkpt lat="40.080298" lon="-0.537075">
        <ele>599.4</ele>
        <time>2021-08-10T17:45:28.184Z</time>
      </trkpt>
      <trkpt lat="40.080353" lon="-0.536886">
        <ele>599.0</ele>
        <time>2021-08-10T17:45:31.616Z</time>
      </trkpt>
      <trkpt lat="40.080232" lon="-0.536551">
        <ele>598.6</ele>
        <time>2021-08-10T17:45:38.724Z</time>
      </trkpt>
      <trkpt lat="40.080402" lon="-0.536087">
        <ele>598.0</ele>
        <time>2021-08-10T17:45:50.032Z</time>
      </trkpt>
      <trkpt lat="40.080343" lon="-0.536063">
        <ele>597.9</ele>
        <time>2021-08-10T17:45:51.804Z</time>
      </trkpt>
      <trkpt lat="40.080160" lon="-0.536218">
        <ele>597.6</ele>
        <time>2021-08-10T17:45:59.300Z</time>
      </trkpt>
      <trkpt lat="40.080137" lon="-0.536230">
        <ele>597.5</ele>
        <time>2021-08-10T17:45:59.869Z</time>
      </trkpt>
      <trkpt lat="40.080136" lon="-0.536217">
        <ele>597.5</ele>
        <time>2021-08-10T17:46:00.079Z</time>
      </trkpt>
      <trkpt lat="40.080117" lon="-0.535979">
        <ele>597.2</ele>
        <time>2021-08-10T17:46:06.729Z</time>
      </trkpt>
      <trkpt lat="40.080117" lon="-0.535912">
        <ele>597.1</ele>
        <time>2021-08-10T17:46:08.186Z</time>
      </trkpt>
      <trkpt lat="40.080141" lon="-0.535806">
        <ele>597.0</ele>
        <time>2021-08-10T17:46:12.469Z</time>
      </trkpt>
      <trkpt lat="40.080145" lon="-0.535697">
        <ele>596.9</ele>
        <time>2021-08-10T17:46:15.022Z</time>
      </trkpt>
      <trkpt lat="40.080117" lon="-0.535552">
        <ele>596.7</ele>
        <time>2021-08-10T17:46:18.421Z</time>
      </trkpt>
      <trkpt lat="40.080155" lon="-0.535483">
        <ele>596.6</ele>
        <time>2021-08-10T17:46:20.291Z</time>
      </trkpt>
      <trkpt lat="40.080270" lon="-0.535275">
        <ele>596.5</ele>
        <time>2021-08-10T17:46:28.594Z</time>
      </trkpt>
      <trkpt lat="40.080621" lon="-0.534750">
        <ele>597.0</ele>
        <time>2021-08-10T17:46:45.980Z</time>
      </trkpt>
      <trkpt lat="40.080641" lon="-0.534642">
        <ele>597.1</ele>
        <time>2021-08-10T17:46:50.355Z</time>
      </trkpt>
      <trkpt lat="40.080638" lon="-0.534529">
        <ele>597.2</ele>
        <time>2021-08-10T17:46:53.335Z</time>
      </trkpt>
      <trkpt lat="40.080570" lon="-0.534392">
        <ele>597.3</ele>
        <time>2021-08-10T17:46:57.369Z</time>
      </trkpt>
      <trkpt lat="40.080442" lon="-0.534132">
        <ele>597.5</ele>
        <time>2021-08-10T17:47:08.980Z</time>
      </trkpt>
      <trkpt lat="40.080557" lon="-0.533816">
        <ele>597.8</ele>
        <time>2021-08-10T17:47:17.012Z</time>
      </trkpt>
      <trkpt lat="40.080547" lon="-0.533737">
        <ele>597.9</ele>
        <time>2021-08-10T17:47:21.687Z</time>
      </trkpt>
      <trkpt lat="40.080070" lon="-0.533564">
        <ele>598.5</ele>
        <time>2021-08-10T17:47:40.422Z</time>
      </trkpt>
      <trkpt lat="40.079941" lon="-0.533628">
        <ele>598.7</ele>
        <time>2021-08-10T17:47:43.706Z</time>
      </trkpt>
      <trkpt lat="40.079716" lon="-0.533906">
        <ele>599.2</ele>
        <time>2021-08-10T17:47:57.320Z</time>
      </trkpt>
      <trkpt lat="40.079653" lon="-0.533908">
        <ele>599.4</ele>
        <time>2021-08-10T17:47:58.661Z</time>
      </trkpt>
      <trkpt lat="40.079579" lon="-0.533796">
        <ele>599.6</ele>
        <time>2021-08-10T17:48:04.678Z</time>
      </trkpt>
      <trkpt lat="40.079550" lon="-0.533553">
        <ele>599.9</ele>
        <time>2021-08-10T17:48:13.015Z</time>
      </trkpt>
      <trkpt lat="40.079558" lon="-0.533518">
        <ele>599.9</ele>
        <time>2021-08-10T17:48:13.566Z</time>
      </trkpt>
      <trkpt lat="40.079706" lon="-0.533283">
        <ele>600.3</ele>
        <time>2021-08-10T17:48:26.861Z</time>
      </trkpt>
      <trkpt lat="40.079771" lon="-0.533089">
        <ele>600.6</ele>
        <time>2021-08-10T17:48:31.428Z</time>
      </trkpt>
      <trkpt lat="40.079826" lon="-0.532586">
        <ele>601.3</ele>
        <time>2021-08-10T17:48:50.491Z</time>
      </trkpt>
      <trkpt lat="40.079853" lon="-0.532330">
        <ele>602.5</ele>
        <time>2021-08-10T17:49:03.665Z</time>
      </trkpt>
      <trkpt lat="40.080020" lon="-0.531681">
        <ele>605.9</ele>
        <time>2021-08-10T17:49:32.022Z</time>
      </trkpt>
      <trkpt lat="40.079961" lon="-0.531300">
        <ele>607.8</ele>
        <time>2021-08-10T17:49:54.688Z</time>
      </trkpt>
      <trkpt lat="40.080006" lon="-0.531112">
        <ele>608.8</ele>
        <time>2021-08-10T17:50:05.684Z</time>
      </trkpt>
      <trkpt lat="40.080069" lon="-0.530850">
        <ele>610.2</ele>
        <time>2021-08-10T17:50:20.701Z</time>
      </trkpt>
      <trkpt lat="40.080206" lon="-0.530542">
        <ele>611.9</ele>
        <time>2021-08-10T17:50:40.659Z</time>
      </trkpt>
      <trkpt lat="40.080678" lon="-0.530116">
        <ele>614.6</ele>
        <time>2021-08-10T17:51:20.083Z</time>
      </trkpt>
      <trkpt lat="40.080719" lon="-0.529868">
        <ele>615.3</ele>
        <time>2021-08-10T17:51:32.042Z</time>
      </trkpt>
      <trkpt lat="40.080526" lon="-0.528900">
        <ele>618.3</ele>
        <time>2021-08-10T17:52:11.248Z</time>
      </trkpt>
      <trkpt lat="40.080180" lon="-0.528247">
        <ele>619.3</ele>
        <time>2021-08-10T17:52:32.583Z</time>
      </trkpt>
      <trkpt lat="40.079376" lon="-0.526998">
        <ele>615.0</ele>
        <time>2021-08-10T17:53:05.116Z</time>
      </trkpt>
      <trkpt lat="40.079285" lon="-0.526854">
        <ele>614.5</ele>
        <time>2021-08-10T17:53:08.311Z</time>
      </trkpt>
      <trkpt lat="40.079227" lon="-0.526752">
        <ele>614.2</ele>
        <time>2021-08-10T17:53:10.652Z</time>
      </trkpt>
      <trkpt lat="40.079198" lon="-0.526528">
        <ele>613.2</ele>
        <time>2021-08-10T17:53:14.584Z</time>
      </trkpt>
      <trkpt lat="40.079437" lon="-0.525994">
        <ele>607.7</ele>
        <time>2021-08-10T17:53:25.005Z</time>
      </trkpt>
      <trkpt lat="40.079447" lon="-0.525828">
        <ele>606.2</ele>
        <time>2021-08-10T17:53:27.851Z</time>
      </trkpt>
      <trkpt lat="40.079397" lon="-0.525710">
        <ele>604.9</ele>
        <time>2021-08-10T17:53:30.067Z</time>
      </trkpt>
      <trkpt lat="40.078396" lon="-0.525192">
        <ele>592.2</ele>
        <time>2021-08-10T17:53:51.974Z</time>
      </trkpt>
      <trkpt lat="40.077843" lon="-0.525084">
        <ele>584.4</ele>
        <time>2021-08-10T17:54:03.170Z</time>
      </trkpt>
      <trkpt lat="40.077417" lon="-0.525065">
        <ele>578.5</ele>
        <time>2021-08-10T17:54:11.774Z</time>
      </trkpt>
      <trkpt lat="40.077368" lon="-0.525068">
        <ele>577.8</ele>
        <time>2021-08-10T17:54:12.740Z</time>
      </trkpt>
      <trkpt lat="40.077346" lon="-0.525068">
        <ele>577.5</ele>
        <time>2021-08-10T17:54:13.001Z</time>
      </trkpt>
      <trkpt lat="40.077272" lon="-0.525092">
        <ele>576.4</ele>
        <time>2021-08-10T17:54:13.992Z</time>
      </trkpt>
      <trkpt lat="40.077223" lon="-0.525129">
        <ele>575.7</ele>
        <time>2021-08-10T17:54:14.694Z</time>
      </trkpt>
      <trkpt lat="40.077139" lon="-0.525179">
        <ele>574.4</ele>
        <time>2021-08-10T17:54:15.819Z</time>
      </trkpt>
      <trkpt lat="40.076819" lon="-0.525345">
        <ele>569.6</ele>
        <time>2021-08-10T17:54:20.083Z</time>
      </trkpt>
      <trkpt lat="40.076385" lon="-0.525372">
        <ele>565.9</ele>
        <time>2021-08-10T17:54:25.712Z</time>
      </trkpt>
      <trkpt lat="40.076350" lon="-0.525293">
        <ele>565.5</ele>
        <time>2021-08-10T17:54:26.524Z</time>
      </trkpt>
      <trkpt lat="40.076376" lon="-0.525206">
        <ele>565.1</ele>
        <time>2021-08-10T17:54:27.563Z</time>
      </trkpt>
      <trkpt lat="40.076724" lon="-0.525025">
        <ele>563.0</ele>
        <time>2021-08-10T17:54:32.515Z</time>
      </trkpt>
      <trkpt lat="40.076817" lon="-0.524977">
        <ele>562.4</ele>
        <time>2021-08-10T17:54:33.819Z</time>
      </trkpt>
      <trkpt lat="40.076903" lon="-0.524960">
        <ele>561.9</ele>
        <time>2021-08-10T17:54:36.205Z</time>
      </trkpt>
      <trkpt lat="40.077206" lon="-0.524838">
        <ele>560.1</ele>
        <time>2021-08-10T17:54:41.363Z</time>
      </trkpt>
      <trkpt lat="40.077340" lon="-0.524708">
        <ele>559.2</ele>
        <time>2021-08-10T17:54:44.325Z</time>
      </trkpt>
      <trkpt lat="40.077464" lon="-0.524460">
        <ele>557.9</ele>
        <time>2021-08-10T17:54:48.383Z</time>
      </trkpt>
      <trkpt lat="40.077461" lon="-0.524074">
        <ele>556.0</ele>
        <time>2021-08-10T17:54:52.853Z</time>
      </trkpt>
      <trkpt lat="40.077375" lon="-0.524030">
        <ele>555.4</ele>
        <time>2021-08-10T17:54:55.772Z</time>
      </trkpt>
      <trkpt lat="40.077232" lon="-0.524235">
        <ele>553.9</ele>
        <time>2021-08-10T17:54:58.820Z</time>
      </trkpt>
      <trkpt lat="40.077118" lon="-0.524283">
        <ele>553.1</ele>
        <time>2021-08-10T17:55:01.388Z</time>
      </trkpt>
      <trkpt lat="40.076878" lon="-0.523926">
        <ele>550.5</ele>
        <time>2021-08-10T17:55:06.299Z</time>
      </trkpt>
      <trkpt lat="40.076332" lon="-0.523712">
        <ele>546.6</ele>
        <time>2021-08-10T17:55:13.604Z</time>
      </trkpt>
      <trkpt lat="40.075947" lon="-0.523344">
        <ele>541.6</ele>
        <time>2021-08-10T17:55:19.515Z</time>
      </trkpt>
      <trkpt lat="40.075678" lon="-0.523267">
        <ele>537.6</ele>
        <time>2021-08-10T17:55:22.937Z</time>
      </trkpt>
      <trkpt lat="40.075572" lon="-0.523271">
        <ele>536.1</ele>
        <time>2021-08-10T17:55:24.194Z</time>
      </trkpt>
      <trkpt lat="40.075483" lon="-0.523369">
        <ele>534.5</ele>
        <time>2021-08-10T17:55:32.346Z</time>
      </trkpt>
      <trkpt lat="40.075163" lon="-0.523476">
        <ele>529.8</ele>
        <time>2021-08-10T17:55:55.488Z</time>
      </trkpt>
      <trkpt lat="40.075054" lon="-0.523653">
        <ele>527.3</ele>
        <time>2021-08-10T17:56:07.647Z</time>
      </trkpt>
      <trkpt lat="40.074795" lon="-0.523732">
        <ele>523.5</ele>
        <time>2021-08-10T17:56:26.351Z</time>
      </trkpt>
      <trkpt lat="40.074470" lon="-0.523830">
        <ele>518.6</ele>
        <time>2021-08-10T17:56:49.723Z</time>
      </trkpt>
      <trkpt lat="40.074389" lon="-0.524071">
        <ele>515.5</ele>
        <time>2021-08-10T17:57:03.900Z</time>
      </trkpt>
      <trkpt lat="40.074257" lon="-0.524135">
        <ele>513.3</ele>
        <time>2021-08-10T17:57:13.452Z</time>
      </trkpt>
      <trkpt lat="40.074249" lon="-0.524264">
        <ele>552.6</ele>
        <time>2021-08-10T17:57:24.728Z</time>
      </trkpt>
      <trkpt lat="40.074171" lon="-0.524373">
        <ele>548.7</ele>
        <time>2021-08-10T17:57:28.401Z</time>
      </trkpt>
      <trkpt lat="40.073880" lon="-0.524350">
        <ele>506.6</ele>
        <time>2021-08-10T17:57:43.083Z</time>
      </trkpt>
      <trkpt lat="40.073896" lon="-0.524597">
        <ele>503.7</ele>
        <time>2021-08-10T17:57:55.812Z</time>
      </trkpt>
      <trkpt lat="40.073893" lon="-0.524788">
        <ele>499.0</ele>
        <time>2021-08-10T17:58:16.748Z</time>
      </trkpt>
      <trkpt lat="40.073658" lon="-0.524844">
        <ele>501.6</ele>
        <time>2021-08-10T17:58:29.435Z</time>
      </trkpt>
      <trkpt lat="40.073478" lon="-0.524991">
        <ele>493.3</ele>
        <time>2021-08-10T17:58:42.347Z</time>
      </trkpt>
      <trkpt lat="40.073439" lon="-0.525513">
        <ele>490.0</ele>
        <time>2021-08-10T17:58:58.334Z</time>
      </trkpt>
      <trkpt lat="40.073441" lon="-0.525595">
        <ele>489.3</ele>
        <time>2021-08-10T17:59:02.900Z</time>
      </trkpt>
      <trkpt lat="40.073479" lon="-0.525665">
        <ele>488.6</ele>
        <time>2021-08-10T17:59:07.520Z</time>
      </trkpt>
      <trkpt lat="40.073602" lon="-0.525662">
        <ele>487.2</ele>
        <time>2021-08-10T17:59:16.108Z</time>
      </trkpt>
      <trkpt lat="40.073554" lon="-0.525734">
        <ele>486.4</ele>
        <time>2021-08-10T17:59:17.568Z</time>
      </trkpt>
      <trkpt lat="40.073160" lon="-0.525974">
        <ele>481.6</ele>
        <time>2021-08-10T17:59:26.495Z</time>
      </trkpt>
      <trkpt lat="40.073031" lon="-0.525960">
        <ele>480.2</ele>
        <time>2021-08-10T17:59:29.275Z</time>
      </trkpt>
      <trkpt lat="40.072843" lon="-0.525826">
        <ele>477.9</ele>
        <time>2021-08-10T17:59:33.936Z</time>
      </trkpt>
      <trkpt lat="40.072820" lon="-0.525838">
        <ele>477.6</ele>
        <time>2021-08-10T17:59:34.458Z</time>
      </trkpt>
      <trkpt lat="40.072890" lon="-0.525919">
        <ele>476.6</ele>
        <time>2021-08-10T17:59:36.108Z</time>
      </trkpt>
      <trkpt lat="40.073060" lon="-0.526113">
        <ele>474.1</ele>
        <time>2021-08-10T17:59:40.098Z</time>
      </trkpt>
      <trkpt lat="40.073751" lon="-0.526461">
        <ele>469.1</ele>
        <time>2021-08-10T17:59:52.994Z</time>
      </trkpt>
      <trkpt lat="40.073758" lon="-0.526484">
        <ele>469.0</ele>
        <time>2021-08-10T17:59:53.280Z</time>
      </trkpt>
      <trkpt lat="40.073745" lon="-0.526504">
        <ele>468.9</ele>
        <time>2021-08-10T17:59:53.599Z</time>
      </trkpt>
      <trkpt lat="40.073816" lon="-0.526608">
        <ele>454.0</ele>
        <time>2021-08-10T17:59:56.157Z</time>
      </trkpt>
      <trkpt lat="40.073593" lon="-0.526699">
        <ele>453.0</ele>
        <time>2021-08-10T17:59:59.644Z</time>
      </trkpt>
      <trkpt lat="40.073054" lon="-0.526583">
        <ele>465.9</ele>
        <time>2021-08-10T18:00:07.979Z</time>
      </trkpt>
      <trkpt lat="40.072805" lon="-0.526438">
        <ele>464.9</ele>
        <time>2021-08-10T18:00:13.668Z</time>
      </trkpt>
      <trkpt lat="40.072643" lon="-0.526335">
        <ele>464.3</ele>
        <time>2021-08-10T18:00:17.256Z</time>
      </trkpt>
      <trkpt lat="40.072587" lon="-0.526305">
        <ele>461.4</ele>
        <time>2021-08-10T18:00:17.673Z</time>
      </trkpt>
      <trkpt lat="40.072528" lon="-0.526287">
        <ele>463.6</ele>
        <time>2021-08-10T18:00:22.804Z</time>
      </trkpt>
      <trkpt lat="40.072268" lon="-0.526286">
        <ele>463.1</ele>
        <time>2021-08-10T18:00:26.837Z</time>
      </trkpt>
      <trkpt lat="40.072190" lon="-0.526280">
        <ele>462.9</ele>
        <time>2021-08-10T18:00:32.237Z</time>
      </trkpt>
      <trkpt lat="40.071882" lon="-0.526186">
        <ele>462.3</ele>
        <time>2021-08-10T18:00:54.229Z</time>
      </trkpt>
      <trkpt lat="40.071746" lon="-0.526154">
        <ele>462.1</ele>
        <time>2021-08-10T18:01:03.828Z</time>
      </trkpt>
      <trkpt lat="40.071539" lon="-0.526143">
        <ele>461.7</ele>
        <time>2021-08-10T18:01:07.346Z</time>
      </trkpt>
      <trkpt lat="40.071481" lon="-0.526132">
        <ele>461.6</ele>
        <time>2021-08-10T18:01:09.616Z</time>
      </trkpt>
      <trkpt lat="40.071444" lon="-0.526116">
        <ele>461.5</ele>
        <time>2021-08-10T18:01:10.088Z</time>
      </trkpt>
      <trkpt lat="40.071380" lon="-0.526023">
        <ele>461.3</ele>
        <time>2021-08-10T18:01:11.609Z</time>
      </trkpt>
      <trkpt lat="40.071335" lon="-0.525440">
        <ele>460.5</ele>
        <time>2021-08-10T18:01:18.836Z</time>
      </trkpt>
      <trkpt lat="40.071227" lon="-0.525173">
        <ele>460.3</ele>
        <time>2021-08-10T18:01:22.946Z</time>
      </trkpt>
      <trkpt lat="40.070930" lon="-0.524440">
        <ele>460.3</ele>
        <time>2021-08-10T18:01:33.970Z</time>
      </trkpt>
      <trkpt lat="40.070830" lon="-0.524286">
        <ele>460.3</ele>
        <time>2021-08-10T18:01:36.098Z</time>
      </trkpt>
      <trkpt lat="40.070328" lon="-0.523516">
        <ele>460.3</ele>
        <time>2021-08-10T18:01:48.111Z</time>
      </trkpt>
      <trkpt lat="40.070284" lon="-0.523449">
        <ele>460.3</ele>
        <time>2021-08-10T18:01:49.203Z</time>
      </trkpt>
      <trkpt lat="40.069062" lon="-0.523219">
        <ele>464.0</ele>
        <time>2021-08-24T10:43:50.689Z</time>
      </trkpt>
      <trkpt lat="40.069062" lon="-0.523219">
        <ele>464.0</ele>
        <time>2021-08-24T10:43:50.703Z</time>
      </trkpt>
      <trkpt lat="40.069074" lon="-0.523201">
        <ele>464.0</ele>
        <time>2021-08-24T10:43:50.914Z</time>
      </trkpt>
      <trkpt lat="40.069292" lon="-0.523051">
        <ele>464.0</ele>
        <time>2021-08-24T10:43:56.993Z</time>
      </trkpt>
      <trkpt lat="40.069314" lon="-0.523008">
        <ele>464.0</ele>
        <time>2021-08-24T10:43:57.998Z</time>
      </trkpt>
      <trkpt lat="40.069365" lon="-0.522904">
        <ele>464.0</ele>
        <time>2021-08-24T10:43:59.341Z</time>
      </trkpt>
      <trkpt lat="40.069451" lon="-0.522722">
        <ele>464.0</ele>
        <time>2021-08-24T10:44:02.677Z</time>
      </trkpt>
      <trkpt lat="40.069503" lon="-0.522643">
        <ele>464.0</ele>
        <time>2021-08-24T10:44:05.110Z</time>
      </trkpt>
      <trkpt lat="40.069451" lon="-0.522722">
        <ele>464.0</ele>
        <time>2021-08-24T10:44:06.551Z</time>
      </trkpt>
      <trkpt lat="40.069365" lon="-0.522904">
        <ele>464.0</ele>
        <time>2021-08-24T10:44:08.910Z</time>
      </trkpt>
      <trkpt lat="40.069314" lon="-0.523008">
        <ele>463.8</ele>
        <time>2021-08-24T10:44:13.015Z</time>
      </trkpt>
      <trkpt lat="40.069292" lon="-0.523051">
        <ele>463.7</ele>
        <time>2021-08-24T10:44:14.061Z</time>
      </trkpt>
      <trkpt lat="40.069074" lon="-0.523201">
        <ele>463.2</ele>
        <time>2021-08-24T10:44:17.515Z</time>
      </trkpt>
      <trkpt lat="40.069062" lon="-0.523219">
        <ele>463.2</ele>
        <time>2021-08-24T10:44:19.156Z</time>
      </trkpt>
      <trkpt lat="40.068977" lon="-0.523373">
        <ele>462.9</ele>
        <time>2021-08-24T10:44:21.670Z</time>
      </trkpt>
      <trkpt lat="40.068969" lon="-0.523380">
        <ele>462.9</ele>
        <time>2021-08-24T10:44:21.799Z</time>
      </trkpt>
      <trkpt lat="40.068899" lon="-0.523360">
        <ele>462.7</ele>
        <time>2021-08-24T10:44:22.759Z</time>
      </trkpt>
      <trkpt lat="40.068876" lon="-0.523381">
        <ele>462.7</ele>
        <time>2021-08-24T10:44:23.256Z</time>
      </trkpt>
      <trkpt lat="40.068852" lon="-0.523332">
        <ele>462.6</ele>
        <time>2021-08-24T10:44:23.779Z</time>
      </trkpt>
      <trkpt lat="40.068416" lon="-0.522153">
        <ele>460.5</ele>
        <time>2021-08-24T10:44:39.751Z</time>
      </trkpt>
      <trkpt lat="40.068383" lon="-0.521933">
        <ele>460.2</ele>
        <time>2021-08-24T10:44:42.119Z</time>
      </trkpt>
      <trkpt lat="40.068367" lon="-0.521876">
        <ele>460.2</ele>
        <time>2021-08-24T10:44:42.852Z</time>
      </trkpt>
      <trkpt lat="40.068270" lon="-0.521738">
        <ele>460.0</ele>
        <time>2021-08-24T10:44:47.332Z</time>
      </trkpt>
      <trkpt lat="40.068110" lon="-0.521700">
        <ele>459.9</ele>
        <time>2021-08-24T10:44:49.550Z</time>
      </trkpt>
      <trkpt lat="40.068033" lon="-0.521699">
        <ele>459.8</ele>
        <time>2021-08-24T10:44:50.909Z</time>
      </trkpt>
      <trkpt lat="40.067949" lon="-0.521698">
        <ele>459.7</ele>
        <time>2021-08-24T10:44:54.026Z</time>
      </trkpt>
      <trkpt lat="40.067755" lon="-0.521696">
        <ele>459.6</ele>
        <time>2021-08-24T10:44:56.730Z</time>
      </trkpt>
      <trkpt lat="40.067759" lon="-0.521422">
        <ele>459.4</ele>
        <time>2021-08-24T10:45:01.998Z</time>
      </trkpt>
      <trkpt lat="40.067762" lon="-0.521282">
        <ele>459.3</ele>
        <time>2021-08-24T10:45:03.450Z</time>
      </trkpt>
      <trkpt lat="40.067766" lon="-0.520972">
        <ele>459.0</ele>
        <time>2021-08-24T10:45:10.297Z</time>
      </trkpt>
      <trkpt lat="40.067772" lon="-0.520858">
        <ele>459.0</ele>
        <time>2021-08-24T10:45:11.436Z</time>
      </trkpt>
      <trkpt lat="40.067797" lon="-0.520631">
        <ele>458.8</ele>
        <time>2021-08-24T10:45:15.154Z</time>
      </trkpt>
      <trkpt lat="40.067843" lon="-0.520168">
        <ele>458.8</ele>
        <time>2021-08-24T10:45:24.181Z</time>
      </trkpt>
      <trkpt lat="40.067859" lon="-0.520045">
        <ele>458.9</ele>
        <time>2021-08-24T10:45:28.427Z</time>
      </trkpt>
      <trkpt lat="40.067793" lon="-0.520032">
        <ele>459.0</ele>
        <time>2021-08-24T10:45:29.593Z</time>
      </trkpt>
      <trkpt lat="40.067095" lon="-0.520011">
        <ele>459.9</ele>
        <time>2021-08-24T10:45:55.480Z</time>
      </trkpt>
      <trkpt lat="40.066681" lon="-0.519443">
        <ele>460.7</ele>
        <time>2021-08-24T10:46:15.878Z</time>
      </trkpt>
      <trkpt lat="40.066627" lon="-0.518912">
        <ele>461.6</ele>
        <time>2021-08-24T10:46:25.537Z</time>
      </trkpt>
      <trkpt lat="40.066708" lon="-0.518777">
        <ele>462.1</ele>
        <time>2021-08-24T10:46:30.401Z</time>
      </trkpt>
      <trkpt lat="40.066953" lon="-0.518042">
        <ele>464.1</ele>
        <time>2021-08-24T10:46:52.918Z</time>
      </trkpt>
      <trkpt lat="40.066976" lon="-0.517986">
        <ele>464.3</ele>
        <time>2021-08-24T10:46:56.175Z</time>
      </trkpt>
      <trkpt lat="40.067034" lon="-0.517846">
        <ele>464.7</ele>
        <time>2021-08-24T10:47:01.574Z</time>
      </trkpt>
      <trkpt lat="40.067118" lon="-0.517633">
        <ele>465.3</ele>
        <time>2021-08-24T10:47:09.798Z</time>
      </trkpt>
      <trkpt lat="40.067137" lon="-0.517320">
        <ele>466.1</ele>
        <time>2021-08-24T10:47:21.846Z</time>
      </trkpt>
      <trkpt lat="40.067139" lon="-0.517288">
        <ele>466.2</ele>
        <time>2021-08-24T10:47:23.033Z</time>
      </trkpt>
      <trkpt lat="40.068144" lon="-0.518006">
        <ele>473.2</ele>
        <time>2021-08-24T10:48:27.812Z</time>
      </trkpt>
      <trkpt lat="40.068020" lon="-0.518127">
        <ele>474.2</ele>
        <time>2021-08-24T10:48:36.738Z</time>
      </trkpt>
      <trkpt lat="40.067867" lon="-0.518464">
        <ele>476.2</ele>
        <time>2021-08-24T10:48:55.764Z</time>
      </trkpt>
      <trkpt lat="40.067819" lon="-0.519028">
        <ele>479.2</ele>
        <time>2021-08-24T10:49:23.724Z</time>
      </trkpt>
      <trkpt lat="40.067888" lon="-0.519416">
        <ele>481.6</ele>
        <time>2021-08-24T10:49:43.220Z</time>
      </trkpt>
      <trkpt lat="40.067968" lon="-0.519544">
        <ele>482.6</ele>
        <time>2021-08-24T10:49:51.294Z</time>
      </trkpt>
      <trkpt lat="40.068081" lon="-0.519599">
        <ele>483.6</ele>
        <time>2021-08-24T10:49:59.265Z</time>
      </trkpt>
      <trkpt lat="40.068590" lon="-0.519492">
        <ele>487.7</ele>
        <time>2021-08-24T10:50:32.122Z</time>
      </trkpt>
      <trkpt lat="40.069270" lon="-0.519690">
        <ele>493.3</ele>
        <time>2021-08-24T10:51:19.140Z</time>
      </trkpt>
      <trkpt lat="40.069992" lon="-0.519543">
        <ele>498.6</ele>
        <time>2021-08-24T10:52:08.041Z</time>
      </trkpt>
      <trkpt lat="40.070751" lon="-0.519208">
        <ele>504.4</ele>
        <time>2021-08-24T10:52:58.984Z</time>
      </trkpt>
      <trkpt lat="40.071508" lon="-0.518475">
        <ele>507.7</ele>
        <time>2021-08-24T10:53:44.251Z</time>
      </trkpt>
      <trkpt lat="40.072082" lon="-0.517792">
        <ele>509.2</ele>
        <time>2021-08-24T10:54:07.565Z</time>
      </trkpt>
      <trkpt lat="40.072119" lon="-0.517781">
        <ele>509.3</ele>
        <time>2021-08-24T10:54:08.355Z</time>
      </trkpt>
      <trkpt lat="40.072177" lon="-0.517792">
        <ele>509.4</ele>
        <time>2021-08-24T10:54:10.164Z</time>
      </trkpt>
      <trkpt lat="40.072286" lon="-0.517840">
        <ele>509.6</ele>
        <time>2021-08-24T10:54:13.035Z</time>
      </trkpt>
      <trkpt lat="40.072392" lon="-0.517721">
        <ele>509.9</ele>
        <time>2021-08-24T10:54:15.286Z</time>
      </trkpt>
      <trkpt lat="40.073120" lon="-0.517079">
        <ele>508.8</ele>
        <time>2021-08-24T10:54:29.140Z</time>
      </trkpt>
      <trkpt lat="40.073676" lon="-0.517203">
        <ele>508.1</ele>
        <time>2021-08-24T10:54:37.730Z</time>
      </trkpt>
      <trkpt lat="40.074103" lon="-0.517166">
        <ele>507.7</ele>
        <time>2021-08-24T10:54:45.459Z</time>
      </trkpt>
      <trkpt lat="40.074211" lon="-0.517116">
        <ele>507.9</ele>
        <time>2021-08-24T10:54:47.286Z</time>
      </trkpt>
      <trkpt lat="40.074375" lon="-0.517263">
        <ele>508.3</ele>
        <time>2021-08-24T10:54:52.967Z</time>
      </trkpt>
      <trkpt lat="40.074498" lon="-0.517204">
        <ele>508.5</ele>
        <time>2021-08-24T10:54:55.342Z</time>
      </trkpt>
      <trkpt lat="40.074514" lon="-0.516995">
        <ele>508.8</ele>
        <time>2021-08-24T10:55:00.009Z</time>
      </trkpt>
      <trkpt lat="40.074609" lon="-0.516732">
        <ele>509.2</ele>
        <time>2021-08-24T10:55:05.205Z</time>
      </trkpt>
      <trkpt lat="40.074621" lon="-0.516491">
        <ele>509.5</ele>
        <time>2021-08-24T10:55:11.913Z</time>
      </trkpt>
      <trkpt lat="40.074226" lon="-0.515775">
        <ele>510.7</ele>
        <time>2021-08-24T10:55:35.890Z</time>
      </trkpt>
      <trkpt lat="40.074123" lon="-0.515392">
        <ele>512.0</ele>
        <time>2021-08-24T10:55:47.888Z</time>
      </trkpt>
      <trkpt lat="40.074127" lon="-0.515209">
        <ele>512.7</ele>
        <time>2021-08-24T10:55:53.312Z</time>
      </trkpt>
      <trkpt lat="40.074206" lon="-0.515045">
        <ele>513.4</ele>
        <time>2021-08-24T10:55:59.099Z</time>
      </trkpt>
      <trkpt lat="40.075483" lon="-0.513319">
        <ele>523.6</ele>
        <time>2021-08-24T10:57:26.162Z</time>
      </trkpt>
      <trkpt lat="40.075573" lon="-0.513245">
        <ele>524.4</ele>
        <time>2021-08-24T10:57:32.030Z</time>
      </trkpt>
      <trkpt lat="40.075885" lon="-0.513167">
        <ele>526.6</ele>
        <time>2021-08-24T10:57:49.724Z</time>
      </trkpt>
      <trkpt lat="40.076274" lon="-0.513340">
        <ele>529.5</ele>
        <time>2021-08-24T10:58:13.816Z</time>
      </trkpt>
      <trkpt lat="40.076736" lon="-0.513025">
        <ele>533.6</ele>
        <time>2021-08-24T10:58:46.460Z</time>
      </trkpt>
      <trkpt lat="40.077282" lon="-0.512825">
        <ele>539.1</ele>
        <time>2021-08-24T10:59:25.208Z</time>
      </trkpt>
      <trkpt lat="40.077685" lon="-0.512604">
        <ele>543.4</ele>
        <time>2021-08-24T10:59:56.632Z</time>
      </trkpt>
      <trkpt lat="40.077815" lon="-0.512611">
        <ele>544.7</ele>
        <time>2021-08-24T11:00:06.158Z</time>
      </trkpt>
      <trkpt lat="40.078449" lon="-0.512941">
        <ele>551.0</ele>
        <time>2021-08-24T11:00:56.110Z</time>
      </trkpt>
      <trkpt lat="40.079047" lon="-0.513488">
        <ele>556.4</ele>
        <time>2021-08-24T11:01:43.500Z</time>
      </trkpt>
      <trkpt lat="40.079500" lon="-0.514041">
        <ele>561.1</ele>
        <time>2021-08-24T11:02:16.677Z</time>
      </trkpt>
      <trkpt lat="40.079594" lon="-0.514067">
        <ele>561.8</ele>
        <time>2021-08-24T11:02:21.228Z</time>
      </trkpt>
      <trkpt lat="40.079903" lon="-0.513961">
        <ele>563.6</ele>
        <time>2021-08-24T11:02:34.807Z</time>
      </trkpt>
      <trkpt lat="40.080077" lon="-0.513803">
        <ele>564.2</ele>
        <time>2021-08-24T11:02:42.568Z</time>
      </trkpt>
      <trkpt lat="40.080255" lon="-0.513429">
        <ele>565.2</ele>
        <time>2021-08-24T11:02:53.782Z</time>
      </trkpt>
      <trkpt lat="40.080230" lon="-0.512929">
        <ele>566.3</ele>
        <time>2021-08-24T11:03:04.241Z</time>
      </trkpt>
      <trkpt lat="40.080288" lon="-0.512577">
        <ele>567.1</ele>
        <time>2021-08-24T11:03:11.868Z</time>
      </trkpt>
      <trkpt lat="40.080508" lon="-0.512086">
        <ele>568.3</ele>
        <time>2021-08-24T11:03:24.919Z</time>
      </trkpt>
      <trkpt lat="40.080653" lon="-0.512086">
        <ele>569.2</ele>
        <time>2021-08-24T11:03:30.967Z</time>
      </trkpt>
      <trkpt lat="40.080488" lon="-0.512591">
        <ele>572.0</ele>
        <time>2021-08-24T11:03:49.131Z</time>
      </trkpt>
      <trkpt lat="40.080534" lon="-0.512812">
        <ele>573.1</ele>
        <time>2021-08-24T11:03:57.299Z</time>
      </trkpt>
      <trkpt lat="40.080629" lon="-0.512907">
        <ele>573.9</ele>
        <time>2021-08-24T11:04:04.256Z</time>
      </trkpt>
      <trkpt lat="40.080667" lon="-0.512863">
        <ele>574.3</ele>
        <time>2021-08-24T11:04:06.872Z</time>
      </trkpt>
      <trkpt lat="40.080694" lon="-0.512598">
        <ele>575.6</ele>
        <time>2021-08-24T11:04:17.706Z</time>
      </trkpt>
      <trkpt lat="40.080900" lon="-0.512283">
        <ele>577.7</ele>
        <time>2021-08-24T11:04:36.667Z</time>
      </trkpt>
      <trkpt lat="40.081138" lon="-0.511482">
        <ele>583.3</ele>
        <time>2021-08-24T11:05:21.200Z</time>
      </trkpt>
      <trkpt lat="40.081275" lon="-0.511411">
        <ele>585.0</ele>
        <time>2021-08-24T11:05:32.303Z</time>
      </trkpt>
      <trkpt lat="40.081870" lon="-0.511655">
        <ele>592.1</ele>
        <time>2021-08-24T11:06:22.863Z</time>
      </trkpt>
      <trkpt lat="40.082099" lon="-0.511642">
        <ele>594.7</ele>
        <time>2021-08-24T11:06:41.672Z</time>
      </trkpt>
      <trkpt lat="40.082174" lon="-0.511585">
        <ele>595.7</ele>
        <time>2021-08-24T11:06:48.763Z</time>
      </trkpt>
      <trkpt lat="40.082292" lon="-0.511266">
        <ele>598.8</ele>
        <time>2021-08-24T11:07:10.364Z</time>
      </trkpt>
      <trkpt lat="40.082532" lon="-0.511027">
        <ele>602.3</ele>
        <time>2021-08-24T11:07:34.012Z</time>
      </trkpt>
      <trkpt lat="40.082635" lon="-0.510853">
        <ele>604.3</ele>
        <time>2021-08-24T11:07:46.974Z</time>
      </trkpt>
      <trkpt lat="40.082765" lon="-0.510111">
        <ele>611.4</ele>
        <time>2021-08-24T11:08:32.293Z</time>
      </trkpt>
      <trkpt lat="40.083118" lon="-0.509763">
        <ele>616.8</ele>
        <time>2021-08-24T11:09:08.466Z</time>
      </trkpt>
      <trkpt lat="40.083336" lon="-0.509697">
        <ele>619.5</ele>
        <time>2021-08-24T11:09:27.360Z</time>
      </trkpt>
      <trkpt lat="40.083529" lon="-0.509787">
        <ele>622.0</ele>
        <time>2021-08-24T11:09:45.040Z</time>
      </trkpt>
      <trkpt lat="40.083659" lon="-0.509974">
        <ele>624.5</ele>
        <time>2021-08-24T11:10:01.569Z</time>
      </trkpt>
      <trkpt lat="40.083581" lon="-0.510365">
        <ele>628.6</ele>
        <time>2021-08-24T11:10:28.019Z</time>
      </trkpt>
      <trkpt lat="40.083562" lon="-0.510773">
        <ele>632.8</ele>
        <time>2021-08-24T11:10:54.948Z</time>
      </trkpt>
      <trkpt lat="40.083676" lon="-0.511607">
        <ele>641.4</ele>
        <time>2021-08-24T11:11:52.701Z</time>
      </trkpt>
      <trkpt lat="40.083789" lon="-0.511924">
        <ele>645.0</ele>
        <time>2021-08-24T11:12:16.913Z</time>
      </trkpt>
      <trkpt lat="40.084054" lon="-0.512393">
        <ele>649.9</ele>
        <time>2021-08-24T11:12:56.265Z</time>
      </trkpt>
      <trkpt lat="40.084514" lon="-0.513412">
        <ele>659.2</ele>
        <time>2021-08-24T11:14:05.405Z</time>
      </trkpt>
      <trkpt lat="40.084455" lon="-0.514360">
        <ele>665.4</ele>
        <time>2021-08-24T11:14:46.970Z</time>
      </trkpt>
      <trkpt lat="40.084483" lon="-0.515059">
        <ele>667.0</ele>
        <time>2021-08-24T11:15:08.605Z</time>
      </trkpt>
      <trkpt lat="40.084562" lon="-0.515339">
        <ele>667.6</ele>
        <time>2021-08-24T11:15:15.792Z</time>
      </trkpt>
      <trkpt lat="40.084749" lon="-0.515526">
        <ele>668.3</ele>
        <time>2021-08-24T11:15:21.570Z</time>
      </trkpt>
      <trkpt lat="40.085178" lon="-0.515673">
        <ele>669.6</ele>
        <time>2021-08-24T11:15:30.869Z</time>
      </trkpt>
      <trkpt lat="40.085986" lon="-0.515704">
        <ele>673.0</ele>
        <time>2021-08-24T11:15:51.629Z</time>
      </trkpt>
      <trkpt lat="40.086502" lon="-0.515960">
        <ele>675.5</ele>
        <time>2021-08-24T11:16:14.862Z</time>
      </trkpt>
      <trkpt lat="40.086796" lon="-0.515887">
        <ele>676.9</ele>
        <time>2021-08-24T11:16:30.359Z</time>
      </trkpt>
      <trkpt lat="40.087321" lon="-0.515549">
        <ele>681.7</ele>
        <time>2021-08-24T11:17:07.781Z</time>
      </trkpt>
      <trkpt lat="40.087473" lon="-0.515576">
        <ele>683.6</ele>
        <time>2021-08-24T11:17:19.290Z</time>
      </trkpt>
      <trkpt lat="40.087534" lon="-0.515655">
        <ele>684.7</ele>
        <time>2021-08-24T11:17:26.220Z</time>
      </trkpt>
      <trkpt lat="40.087573" lon="-0.515844">
        <ele>686.6</ele>
        <time>2021-08-24T11:17:38.842Z</time>
      </trkpt>
      <trkpt lat="40.087581" lon="-0.516506">
        <ele>693.1</ele>
        <time>2021-08-24T11:18:25.117Z</time>
      </trkpt>
      <trkpt lat="40.087723" lon="-0.516749">
        <ele>696.1</ele>
        <time>2021-08-24T11:18:48.120Z</time>
      </trkpt>
      <trkpt lat="40.087893" lon="-0.516889">
        <ele>698.7</ele>
        <time>2021-08-24T11:19:07.713Z</time>
      </trkpt>
      <trkpt lat="40.087952" lon="-0.517041">
        <ele>700.3</ele>
        <time>2021-08-24T11:19:20.345Z</time>
      </trkpt>
      <trkpt lat="40.088016" lon="-0.517523">
        <ele>704.7</ele>
        <time>2021-08-24T11:19:54.853Z</time>
      </trkpt>
      <trkpt lat="40.088376" lon="-0.518539">
        <ele>714.3</ele>
        <time>2021-08-24T11:21:03.680Z</time>
      </trkpt>
      <trkpt lat="40.088333" lon="-0.518773">
        <ele>716.4</ele>
        <time>2021-08-24T11:21:16.873Z</time>
      </trkpt>
      <trkpt lat="40.088228" lon="-0.518929">
        <ele>718.2</ele>
        <time>2021-08-24T11:21:27.813Z</time>
      </trkpt>
      <trkpt lat="40.087551" lon="-0.519360">
        <ele>723.9</ele>
        <time>2021-08-24T11:22:12.038Z</time>
      </trkpt>
      <trkpt lat="40.087375" lon="-0.519625">
        <ele>725.2</ele>
        <time>2021-08-24T11:22:24.896Z</time>
      </trkpt>
      <trkpt lat="40.087272" lon="-0.519881">
        <ele>726.2</ele>
        <time>2021-08-24T11:22:34.280Z</time>
      </trkpt>
      <trkpt lat="40.087281" lon="-0.520022">
        <ele>726.8</ele>
        <time>2021-08-24T11:22:38.516Z</time>
      </trkpt>
      <trkpt lat="40.087387" lon="-0.520137">
        <ele>727.4</ele>
        <time>2021-08-24T11:22:43.536Z</time>
      </trkpt>
      <trkpt lat="40.087802" lon="-0.520221">
        <ele>729.5</ele>
        <time>2021-08-24T11:22:58.202Z</time>
      </trkpt>
      <trkpt lat="40.087854" lon="-0.520324">
        <ele>729.9</ele>
        <time>2021-08-24T11:23:01.440Z</time>
      </trkpt>
      <trkpt lat="40.087914" lon="-0.520748">
        <ele>730.8</ele>
        <time>2021-08-24T11:23:12.334Z</time>
      </trkpt>
      <trkpt lat="40.088116" lon="-0.521129">
        <ele>731.3</ele>
        <time>2021-08-24T11:23:23.585Z</time>
      </trkpt>
      <trkpt lat="40.088202" lon="-0.521393">
        <ele>731.6</ele>
        <time>2021-08-24T11:23:30.254Z</time>
      </trkpt>
      <trkpt lat="40.088195" lon="-0.521552">
        <ele>731.8</ele>
        <time>2021-08-24T11:23:33.787Z</time>
      </trkpt>
      <trkpt lat="40.088102" lon="-0.521778">
        <ele>732.1</ele>
        <time>2021-08-24T11:23:39.444Z</time>
      </trkpt>
      <trkpt lat="40.087369" lon="-0.522797">
        <ele>733.4</ele>
        <time>2021-08-24T11:24:02.915Z</time>
      </trkpt>
      <trkpt lat="40.087276" lon="-0.523035">
        <ele>733.6</ele>
        <time>2021-08-24T11:24:06.508Z</time>
      </trkpt>
      <trkpt lat="40.087280" lon="-0.523237">
        <ele>733.8</ele>
        <time>2021-08-24T11:24:08.896Z</time>
      </trkpt>
      <trkpt lat="40.087461" lon="-0.523554">
        <ele>734.1</ele>
        <time>2021-08-24T11:24:16.486Z</time>
      </trkpt>
      <trkpt lat="40.087652" lon="-0.523665">
        <ele>734.3</ele>
        <time>2021-08-24T11:24:21.754Z</time>
      </trkpt>
      <trkpt lat="40.088095" lon="-0.523342">
        <ele>734.8</ele>
        <time>2021-08-24T11:24:37.418Z</time>
      </trkpt>
      <trkpt lat="40.088419" lon="-0.523226">
        <ele>736.7</ele>
        <time>2021-08-24T11:24:50.740Z</time>
      </trkpt>
      <trkpt lat="40.088526" lon="-0.523215">
        <ele>737.4</ele>
        <time>2021-08-24T11:24:52.914Z</time>
      </trkpt>
      <trkpt lat="40.088701" lon="-0.523246">
        <ele>738.6</ele>
        <time>2021-08-24T11:25:03.539Z</time>
      </trkpt>
      <trkpt lat="40.088987" lon="-0.523475">
        <ele>740.7</ele>
        <time>2021-08-24T11:25:19.749Z</time>
      </trkpt>
      <trkpt lat="40.089336" lon="-0.524313">
        <ele>745.4</ele>
        <time>2021-08-24T11:26:03.506Z</time>
      </trkpt>
      <trkpt lat="40.089587" lon="-0.524789">
        <ele>748.9</ele>
        <time>2021-08-24T11:26:35.685Z</time>
      </trkpt>
      <trkpt lat="40.089821" lon="-0.526638">
        <ele>761.2</ele>
        <time>2021-08-24T11:28:06.423Z</time>
      </trkpt>
      <trkpt lat="40.089854" lon="-0.526776">
        <ele>762.1</ele>
        <time>2021-08-24T11:28:13.862Z</time>
      </trkpt>
      <trkpt lat="40.089904" lon="-0.526849">
        <ele>762.7</ele>
        <time>2021-08-24T11:28:17.371Z</time>
      </trkpt>
      <trkpt lat="40.089965" lon="-0.526929">
        <ele>763.3</ele>
        <time>2021-08-24T11:28:22.004Z</time>
      </trkpt>
      <trkpt lat="40.090032" lon="-0.526991">
        <ele>764.0</ele>
        <time>2021-08-24T11:28:26.018Z</time>
      </trkpt>
      <trkpt lat="40.090109" lon="-0.526941">
        <ele>764.6</ele>
        <time>2021-08-24T11:28:32.994Z</time>
      </trkpt>
      <trkpt lat="40.090255" lon="-0.526950">
        <ele>765.7</ele>
        <time>2021-08-24T11:28:42.083Z</time>
      </trkpt>
      <trkpt lat="40.090540" lon="-0.527113">
        <ele>768.0</ele>
        <time>2021-08-24T11:29:03.011Z</time>
      </trkpt>
      <trkpt lat="40.090969" lon="-0.527084">
        <ele>771.2</ele>
        <time>2021-08-24T11:29:31.054Z</time>
      </trkpt>
      <trkpt lat="40.091328" lon="-0.527389">
        <ele>774.4</ele>
        <time>2021-08-24T11:29:58.191Z</time>
      </trkpt>
      <trkpt lat="40.091461" lon="-0.527373">
        <ele>775.5</ele>
        <time>2021-08-24T11:30:07.972Z</time>
      </trkpt>
      <trkpt lat="40.091747" lon="-0.527159">
        <ele>778.9</ele>
        <time>2021-08-24T11:30:34.488Z</time>
      </trkpt>
      <trkpt lat="40.091847" lon="-0.527255">
        <ele>780.2</ele>
        <time>2021-08-24T11:30:46.166Z</time>
      </trkpt>
      <trkpt lat="40.091968" lon="-0.527502">
        <ele>782.6</ele>
        <time>2021-08-24T11:31:03.662Z</time>
      </trkpt>
      <trkpt lat="40.092662" lon="-0.527851">
        <ele>790.4</ele>
        <time>2021-08-24T11:32:07.926Z</time>
      </trkpt>
      <trkpt lat="40.092734" lon="-0.527912">
        <ele>791.3</ele>
        <time>2021-08-24T11:32:16.679Z</time>
      </trkpt>
      <trkpt lat="40.092801" lon="-0.527961">
        <ele>792.1</ele>
        <time>2021-08-24T11:32:25.409Z</time>
      </trkpt>
      <trkpt lat="40.092990" lon="-0.528049">
        <ele>794.2</ele>
        <time>2021-08-24T11:32:40.898Z</time>
      </trkpt>
      <trkpt lat="40.093193" lon="-0.528001">
        <ele>796.5</ele>
        <time>2021-08-24T11:33:02.015Z</time>
      </trkpt>
      <trkpt lat="40.093885" lon="-0.527454">
        <ele>805.4</ele>
        <time>2021-08-24T11:34:16.099Z</time>
      </trkpt>
      <trkpt lat="40.094597" lon="-0.527016">
        <ele>814.1</ele>
        <time>2021-08-24T11:35:22.680Z</time>
      </trkpt>
      <trkpt lat="40.094890" lon="-0.526740">
        <ele>816.8</ele>
        <time>2021-08-24T11:35:49.293Z</time>
      </trkpt>
      <trkpt lat="40.095151" lon="-0.526754">
        <ele>818.7</ele>
        <time>2021-08-24T11:36:07.474Z</time>
      </trkpt>
      <trkpt lat="40.095239" lon="-0.526654">
        <ele>819.5</ele>
        <time>2021-08-24T11:36:15.566Z</time>
      </trkpt>
      <trkpt lat="40.095131" lon="-0.525969">
        <ele>823.4</ele>
        <time>2021-08-24T11:36:50.657Z</time>
      </trkpt>
      <trkpt lat="40.095046" lon="-0.525686">
        <ele>825.1</ele>
        <time>2021-08-24T11:37:05.336Z</time>
      </trkpt>
      <trkpt lat="40.094619" lon="-0.525144">
        <ele>829.1</ele>
        <time>2021-08-24T11:37:41.124Z</time>
      </trkpt>
      <trkpt lat="40.094621" lon="-0.524750">
        <ele>831.0</ele>
        <time>2021-08-24T11:37:59.205Z</time>
      </trkpt>
      <trkpt lat="40.094709" lon="-0.524423">
        <ele>832.6</ele>
        <time>2021-08-24T11:38:15.521Z</time>
      </trkpt>
      <trkpt lat="40.094788" lon="-0.523728">
        <ele>836.0</ele>
        <time>2021-08-24T11:38:49.421Z</time>
      </trkpt>
      <trkpt lat="40.094884" lon="-0.523465">
        <ele>837.3</ele>
        <time>2021-08-24T11:39:03.775Z</time>
      </trkpt>
      <trkpt lat="40.094943" lon="-0.523414">
        <ele>837.8</ele>
        <time>2021-08-24T11:39:08.443Z</time>
      </trkpt>
      <trkpt lat="40.095056" lon="-0.523412">
        <ele>838.5</ele>
        <time>2021-08-24T11:39:16.070Z</time>
      </trkpt>
      <trkpt lat="40.095227" lon="-0.523726">
        <ele>840.6</ele>
        <time>2021-08-24T11:39:35.796Z</time>
      </trkpt>
      <trkpt lat="40.095588" lon="-0.523825">
        <ele>843.1</ele>
        <time>2021-08-24T11:40:00.850Z</time>
      </trkpt>
      <trkpt lat="40.095814" lon="-0.523988">
        <ele>844.9</ele>
        <time>2021-08-24T11:40:18.199Z</time>
      </trkpt>
      <trkpt lat="40.095906" lon="-0.523937">
        <ele>845.6</ele>
        <time>2021-08-24T11:40:25.074Z</time>
      </trkpt>
      <trkpt lat="40.095978" lon="-0.522221">
        <ele>855.1</ele>
        <time>2021-08-24T11:41:52.476Z</time>
      </trkpt>
      <trkpt lat="40.095920" lon="-0.521631">
        <ele>858.4</ele>
        <time>2021-08-24T11:42:23.144Z</time>
      </trkpt>
      <trkpt lat="40.096010" lon="-0.521488">
        <ele>859.5</ele>
        <time>2021-08-24T11:42:32.807Z</time>
      </trkpt>
      <trkpt lat="40.096269" lon="-0.521303">
        <ele>861.7</ele>
        <time>2021-08-24T11:42:53.335Z</time>
      </trkpt>
      <trkpt lat="40.096653" lon="-0.521255">
        <ele>864.6</ele>
        <time>2021-08-24T11:43:20.880Z</time>
      </trkpt>
      <trkpt lat="40.098313" lon="-0.521556">
        <ele>879.6</ele>
        <time>2021-08-24T11:45:28.130Z</time>
      </trkpt>
      <trkpt lat="40.098567" lon="-0.521357">
        <ele>882.4</ele>
        <time>2021-08-24T11:45:54.089Z</time>
      </trkpt>
      <trkpt lat="40.098780" lon="-0.521073">
        <ele>885.3</ele>
        <time>2021-08-24T11:46:20.231Z</time>
      </trkpt>
      <trkpt lat="40.098848" lon="-0.520413">
        <ele>890.1</ele>
        <time>2021-08-24T11:46:59.726Z</time>
      </trkpt>
      <trkpt lat="40.098908" lon="-0.520335">
        <ele>890.9</ele>
        <time>2021-08-24T11:47:07.017Z</time>
      </trkpt>
      <trkpt lat="40.098949" lon="-0.520290">
        <ele>891.4</ele>
        <time>2021-08-24T11:47:13.786Z</time>
      </trkpt>
      <trkpt lat="40.099139" lon="-0.520330">
        <ele>893.3</ele>
        <time>2021-08-24T11:47:26.555Z</time>
      </trkpt>
      <trkpt lat="40.099221" lon="-0.520295">
        <ele>894.1</ele>
        <time>2021-08-24T11:47:33.284Z</time>
      </trkpt>
      <trkpt lat="40.099755" lon="-0.519699">
        <ele>899.3</ele>
        <time>2021-08-24T11:48:27.985Z</time>
      </trkpt>
      <trkpt lat="40.100633" lon="-0.519032">
        <ele>904.6</ele>
        <time>2021-08-24T11:49:34.375Z</time>
      </trkpt>
      <trkpt lat="40.100902" lon="-0.518797">
        <ele>906.3</ele>
        <time>2021-08-24T11:49:47.567Z</time>
      </trkpt>
      <trkpt lat="40.101040" lon="-0.518607">
        <ele>906.2</ele>
        <time>2021-08-24T11:49:53.551Z</time>
      </trkpt>
      <trkpt lat="40.101315" lon="-0.518346">
        <ele>903.5</ele>
        <time>2021-08-24T11:50:02.633Z</time>
      </trkpt>
      <trkpt lat="40.101783" lon="-0.517685">
        <ele>897.9</ele>
        <time>2021-08-24T11:50:18.529Z</time>
      </trkpt>
      <trkpt lat="40.101877" lon="-0.517648">
        <ele>897.1</ele>
        <time>2021-08-24T11:50:20.593Z</time>
      </trkpt>
      <trkpt lat="40.101791" lon="-0.517138">
        <ele>893.9</ele>
        <time>2021-08-24T11:50:28.840Z</time>
      </trkpt>
      <trkpt lat="40.101888" lon="-0.516816">
        <ele>890.8</ele>
        <time>2021-08-24T11:50:34.179Z</time>
      </trkpt>
      <trkpt lat="40.102355" lon="-0.517104">
        <ele>880.0</ele>
        <time>2021-08-24T11:50:44.337Z</time>
      </trkpt>
      <trkpt lat="40.102699" lon="-0.516839">
        <ele>871.6</ele>
        <time>2021-08-24T11:50:52.070Z</time>
      </trkpt>
      <trkpt lat="40.102946" lon="-0.516574">
        <ele>864.9</ele>
        <time>2021-08-24T11:50:58.252Z</time>
      </trkpt>
      <trkpt lat="40.103131" lon="-0.516631">
        <ele>861.0</ele>
        <time>2021-08-24T11:51:01.940Z</time>
      </trkpt>
      <trkpt lat="40.103414" lon="-0.516827">
        <ele>854.2</ele>
        <time>2021-08-24T11:51:08.121Z</time>
      </trkpt>
      <trkpt lat="40.104175" lon="-0.516784">
        <ele>804.1</ele>
        <time>2021-08-24T11:51:27.925Z</time>
      </trkpt>
      <trkpt lat="40.104048" lon="-0.516435">
        <ele>820.1</ele>
        <time>2021-08-24T11:51:37.113Z</time>
      </trkpt>
      <trkpt lat="40.103793" lon="-0.515870">
        <ele>808.9</ele>
        <time>2021-08-24T11:51:46.865Z</time>
      </trkpt>
      <trkpt lat="40.103724" lon="-0.515464">
        <ele>802.6</ele>
        <time>2021-08-24T11:51:52.391Z</time>
      </trkpt>
      <trkpt lat="40.103508" lon="-0.515128">
        <ele>792.6</ele>
        <time>2021-08-24T11:52:01.251Z</time>
      </trkpt>
      <trkpt lat="40.104004" lon="-0.514337">
        <ele>779.8</ele>
        <time>2021-08-24T11:52:12.498Z</time>
      </trkpt>
      <trkpt lat="40.104154" lon="-0.514199">
        <ele>775.8</ele>
        <time>2021-08-24T11:52:16.047Z</time>
      </trkpt>
      <trkpt lat="40.104560" lon="-0.514049">
        <ele>765.5</ele>
        <time>2021-08-24T11:52:24.209Z</time>
      </trkpt>
      <trkpt lat="40.104798" lon="-0.513599">
        <ele>755.1</ele>
        <time>2021-08-24T11:52:32.319Z</time>
      </trkpt>
      <trkpt lat="40.105036" lon="-0.512620">
        <ele>735.5</ele>
        <time>2021-08-24T11:52:47.597Z</time>
      </trkpt>
      <trkpt lat="40.104860" lon="-0.511994">
        <ele>720.4</ele>
        <time>2021-08-24T11:52:59.171Z</time>
      </trkpt>
      <trkpt lat="40.105009" lon="-0.511570">
        <ele>714.8</ele>
        <time>2021-08-24T11:53:03.382Z</time>
      </trkpt>
      <trkpt lat="40.105424" lon="-0.511025">
        <ele>699.6</ele>
        <time>2021-08-24T11:53:14.850Z</time>
      </trkpt>
      <trkpt lat="40.105503" lon="-0.510806">
        <ele>694.9</ele>
        <time>2021-08-24T11:53:18.436Z</time>
      </trkpt>
      <trkpt lat="40.105565" lon="-0.510437">
        <ele>687.4</ele>
        <time>2021-08-24T11:53:24.060Z</time>
      </trkpt>
      <trkpt lat="40.105689" lon="-0.510203">
        <ele>682.2</ele>
        <time>2021-08-24T11:53:28.287Z</time>
      </trkpt>
      <trkpt lat="40.105578" lon="-0.509891">
        <ele>678.1</ele>
        <time>2021-08-24T11:53:32.445Z</time>
      </trkpt>
      <trkpt lat="40.105613" lon="-0.509435">
        <ele>678.1</ele>
        <time>2021-08-24T11:53:32.570Z</time>
      </trkpt>
      <trkpt lat="40.105751" lon="-0.509160">
        <ele>666.9</ele>
        <time>2021-08-24T11:53:44.140Z</time>
      </trkpt>
      <trkpt lat="40.105888" lon="-0.508909">
        <ele>662.5</ele>
        <time>2021-08-24T11:53:48.796Z</time>
      </trkpt>
      <trkpt lat="40.105998" lon="-0.508627">
        <ele>657.9</ele>
        <time>2021-08-24T11:53:53.605Z</time>
      </trkpt>
      <trkpt lat="40.106037" lon="-0.508694">
        <ele>656.7</ele>
        <time>2021-08-24T11:53:54.853Z</time>
      </trkpt>
      <trkpt lat="40.106082" lon="-0.509105">
        <ele>650.7</ele>
        <time>2021-08-24T11:54:01.232Z</time>
      </trkpt>
      <trkpt lat="40.106045" lon="-0.509437">
        <ele>647.8</ele>
        <time>2021-08-24T11:54:06.721Z</time>
      </trkpt>
      <trkpt lat="40.106111" lon="-0.509982">
        <ele>644.4</ele>
        <time>2021-08-24T11:54:15.714Z</time>
      </trkpt>
      <trkpt lat="40.106400" lon="-0.510057">
        <ele>642.1</ele>
        <time>2021-08-24T11:54:22.166Z</time>
      </trkpt>
      <trkpt lat="40.106541" lon="-0.510314">
        <ele>640.2</ele>
        <time>2021-08-24T11:54:27.683Z</time>
      </trkpt>
      <trkpt lat="40.106720" lon="-0.510328">
        <ele>638.8</ele>
        <time>2021-08-24T11:54:32.001Z</time>
      </trkpt>
      <trkpt lat="40.106874" lon="-0.510255">
        <ele>637.5</ele>
        <time>2021-08-24T11:54:35.939Z</time>
      </trkpt>
      <trkpt lat="40.107030" lon="-0.510006">
        <ele>635.6</ele>
        <time>2021-08-24T11:54:42.436Z</time>
      </trkpt>
      <trkpt lat="40.107173" lon="-0.509542">
        <ele>634.5</ele>
        <time>2021-08-24T11:54:52.453Z</time>
      </trkpt>
      <trkpt lat="40.107487" lon="-0.509276">
        <ele>633.9</ele>
        <time>2021-08-24T11:55:02.433Z</time>
      </trkpt>
      <trkpt lat="40.107645" lon="-0.509185">
        <ele>633.7</ele>
        <time>2021-08-24T11:55:07.343Z</time>
      </trkpt>
      <trkpt lat="40.107736" lon="-0.509199">
        <ele>633.5</ele>
        <time>2021-08-24T11:55:09.991Z</time>
      </trkpt>
      <trkpt lat="40.107783" lon="-0.509252">
        <ele>633.4</ele>
        <time>2021-08-24T11:55:11.670Z</time>
      </trkpt>
      <trkpt lat="40.107801" lon="-0.509429">
        <ele>633.2</ele>
        <time>2021-08-24T11:55:15.435Z</time>
      </trkpt>
      <trkpt lat="40.107809" lon="-0.509483">
        <ele>633.1</ele>
        <time>2021-08-24T11:55:17.498Z</time>
      </trkpt>
      <trkpt lat="40.107852" lon="-0.509451">
        <ele>633.1</ele>
        <time>2021-08-24T11:55:19.202Z</time>
      </trkpt>
      <trkpt lat="40.108027" lon="-0.509411">
        <ele>632.8</ele>
        <time>2021-08-24T11:55:24.138Z</time>
      </trkpt>
      <trkpt lat="40.108113" lon="-0.509486">
        <ele>632.6</ele>
        <time>2021-08-24T11:55:27.233Z</time>
      </trkpt>
      <trkpt lat="40.108187" lon="-0.509655">
        <ele>632.4</ele>
        <time>2021-08-24T11:55:32.269Z</time>
      </trkpt>
      <trkpt lat="40.108211" lon="-0.509998">
        <ele>632.1</ele>
        <time>2021-08-24T11:55:40.831Z</time>
      </trkpt>
      <trkpt lat="40.108211" lon="-0.509998">
        <ele>632.1</ele>
        <time>2021-08-24T11:55:40.872Z</time>
      </trkpt>
      <trkpt lat="40.108211" lon="-0.509998">
        <ele>632.1</ele>
        <time>2021-08-24T11:55:40.939Z</time>
      </trkpt>
      <trkpt lat="40.108211" lon="-0.509998">
        <ele>632.1</ele>
        <time>2021-08-24T11:55:40.939Z</time>
      </trkpt>
      <trkpt lat="40.108259" lon="-0.510596">
        <ele>631.7</ele>
        <time>2021-08-24T11:56:00.607Z</time>
      </trkpt>
      <trkpt lat="40.108455" lon="-0.510173">
        <ele>631.4</ele>
        <time>2021-08-24T11:56:16.785Z</time>
      </trkpt>
      <trkpt lat="40.108521" lon="-0.509872">
        <ele>631.3</ele>
        <time>2021-08-24T11:56:27.027Z</time>
      </trkpt>
      <trkpt lat="40.108712" lon="-0.509869">
        <ele>631.1</ele>
        <time>2021-08-24T11:56:35.199Z</time>
      </trkpt>
      <trkpt lat="40.108636" lon="-0.510510">
        <ele>630.2</ele>
        <time>2021-08-24T11:56:56.422Z</time>
      </trkpt>
      <trkpt lat="40.108636" lon="-0.510510">
        <ele>630.2</ele>
        <time>2021-08-24T11:56:56.599Z</time>
      </trkpt>
      <trkpt lat="40.108636" lon="-0.510510">
        <ele>630.2</ele>
        <time>2021-08-24T11:56:56.605Z</time>
      </trkpt>
      <trkpt lat="40.108648" lon="-0.510821">
        <ele>628.9</ele>
        <time>2021-08-24T11:57:02.462Z</time>
      </trkpt>
      <trkpt lat="40.108720" lon="-0.511141">
        <ele>627.4</ele>
        <time>2021-08-24T11:57:08.894Z</time>
      </trkpt>
      <trkpt lat="40.108654" lon="-0.511704">
        <ele>624.9</ele>
        <time>2021-08-24T11:57:19.104Z</time>
      </trkpt>
      <trkpt lat="40.108700" lon="-0.512055">
        <ele>623.4</ele>
        <time>2021-08-24T11:57:25.370Z</time>
      </trkpt>
      <trkpt lat="40.108850" lon="-0.512572">
        <ele>621.0</ele>
        <time>2021-08-24T11:57:34.733Z</time>
      </trkpt>
      <trkpt lat="40.109225" lon="-0.512985">
        <ele>617.5</ele>
        <time>2021-08-24T11:57:45.515Z</time>
      </trkpt>
      <trkpt lat="40.109423" lon="-0.513441">
        <ele>614.6</ele>
        <time>2021-08-24T11:57:54.415Z</time>
      </trkpt>
      <trkpt lat="40.109746" lon="-0.513501">
        <ele>612.2</ele>
        <time>2021-08-24T11:58:01.748Z</time>
      </trkpt>
      <trkpt lat="40.110122" lon="-0.513698">
        <ele>609.3</ele>
        <time>2021-08-24T11:58:10.871Z</time>
      </trkpt>
      <trkpt lat="40.110122" lon="-0.513698">
        <ele>609.3</ele>
        <time>2021-08-24T11:58:10.970Z</time>
      </trkpt>
      <trkpt lat="40.110122" lon="-0.513698">
        <ele>609.3</ele>
        <time>2021-08-24T11:58:11.413Z</time>
      </trkpt>
      <trkpt lat="40.110122" lon="-0.513698">
        <ele>609.3</ele>
        <time>2021-08-24T11:58:11.413Z</time>
      </trkpt>
      <trkpt lat="40.110405" lon="-0.513810">
        <ele>606.7</ele>
        <time>2021-08-24T11:58:31.116Z</time>
      </trkpt>
      <trkpt lat="40.110543" lon="-0.513468">
        <ele>589.0</ele>
        <time>2021-08-24T11:58:41.022Z</time>
      </trkpt>
      <trkpt lat="40.110862" lon="-0.513429">
        <ele>598.6</ele>
        <time>2021-08-24T11:58:50.808Z</time>
      </trkpt>
      <trkpt lat="40.111048" lon="-0.513180">
        <ele>603.4</ele>
        <time>2021-08-24T11:59:08.153Z</time>
      </trkpt>
      <trkpt lat="40.110519" lon="-0.512592">
        <ele>602.5</ele>
        <time>2021-08-24T11:59:38.856Z</time>
      </trkpt>
      <trkpt lat="40.109958" lon="-0.512298">
        <ele>600.0</ele>
        <time>2021-08-24T12:00:02.110Z</time>
      </trkpt>
      <trkpt lat="40.109812" lon="-0.511851">
        <ele>611.2</ele>
        <time>2021-08-24T12:00:16.684Z</time>
      </trkpt>
      <trkpt lat="40.109895" lon="-0.511342">
        <ele>599.0</ele>
        <time>2021-08-24T12:00:32.310Z</time>
      </trkpt>
      <trkpt lat="40.110161" lon="-0.510818">
        <ele>598.5</ele>
        <time>2021-08-24T12:00:54.449Z</time>
      </trkpt>
      <trkpt lat="40.109994" lon="-0.510075">
        <ele>599.9</ele>
        <time>2021-08-24T12:01:15.200Z</time>
      </trkpt>
      <trkpt lat="40.110085" lon="-0.509688">
        <ele>600.7</ele>
        <time>2021-08-24T12:01:27.875Z</time>
      </trkpt>
      <trkpt lat="40.110016" lon="-0.509417">
        <ele>601.2</ele>
        <time>2021-08-24T12:01:38.453Z</time>
      </trkpt>
      <trkpt lat="40.109754" lon="-0.509070">
        <ele>602.1</ele>
        <time>2021-08-24T12:01:57.747Z</time>
      </trkpt>
      <trkpt lat="40.109695" lon="-0.508834">
        <ele>602.6</ele>
        <time>2021-08-24T12:02:08.372Z</time>
      </trkpt>
      <trkpt lat="40.109831" lon="-0.508345">
        <ele>605.2</ele>
        <time>2021-08-24T12:02:32.853Z</time>
      </trkpt>
      <trkpt lat="40.109905" lon="-0.507737">
        <ele>608.4</ele>
        <time>2021-08-24T12:03:03.800Z</time>
      </trkpt>
      <trkpt lat="40.109827" lon="-0.507563">
        <ele>609.4</ele>
        <time>2021-08-24T12:03:14.152Z</time>
      </trkpt>
      <trkpt lat="40.109608" lon="-0.507363">
        <ele>611.2</ele>
        <time>2021-08-24T12:03:32.263Z</time>
      </trkpt>
      <trkpt lat="40.109579" lon="-0.506715">
        <ele>614.6</ele>
        <time>2021-08-24T12:04:07.490Z</time>
      </trkpt>
      <trkpt lat="40.109321" lon="-0.505983">
        <ele>618.9</ele>
        <time>2021-08-24T12:04:51.592Z</time>
      </trkpt>
      <trkpt lat="40.109366" lon="-0.505623">
        <ele>620.9</ele>
        <time>2021-08-24T12:05:10.677Z</time>
      </trkpt>
      <trkpt lat="40.109346" lon="-0.505414">
        <ele>622.0</ele>
        <time>2021-08-24T12:05:21.539Z</time>
      </trkpt>
      <trkpt lat="40.109264" lon="-0.505318">
        <ele>622.8</ele>
        <time>2021-08-24T12:05:28.578Z</time>
      </trkpt>
      <trkpt lat="40.109079" lon="-0.505377">
        <ele>624.1</ele>
        <time>2021-08-24T12:05:40.556Z</time>
      </trkpt>
      <trkpt lat="40.108554" lon="-0.505875">
        <ele>628.6</ele>
        <time>2021-08-24T12:06:21.687Z</time>
      </trkpt>
      <trkpt lat="40.108427" lon="-0.505886">
        <ele>629.5</ele>
        <time>2021-08-24T12:06:28.589Z</time>
      </trkpt>
      <trkpt lat="40.107836" lon="-0.505302">
        <ele>634.4</ele>
        <time>2021-08-24T12:07:17.846Z</time>
      </trkpt>
      <trkpt lat="40.107463" lon="-0.505194">
        <ele>636.9</ele>
        <time>2021-08-24T12:07:41.709Z</time>
      </trkpt>
      <trkpt lat="40.107419" lon="-0.505183">
        <ele>637.2</ele>
        <time>2021-08-24T12:07:44.337Z</time>
      </trkpt>
      <trkpt lat="40.107454" lon="-0.505076">
        <ele>637.8</ele>
        <time>2021-08-24T12:07:53.403Z</time>
      </trkpt>
      <trkpt lat="40.107737" lon="-0.504904">
        <ele>639.9</ele>
        <time>2021-08-24T12:08:11.536Z</time>
      </trkpt>
      <trkpt lat="40.108078" lon="-0.504470">
        <ele>643.8</ele>
        <time>2021-08-24T12:08:42.821Z</time>
      </trkpt>
      <trkpt lat="40.108415" lon="-0.504180">
        <ele>647.1</ele>
        <time>2021-08-24T12:09:07.917Z</time>
      </trkpt>
      <trkpt lat="40.108361" lon="-0.503987">
        <ele>648.4</ele>
        <time>2021-08-24T12:09:16.214Z</time>
      </trkpt>
      <trkpt lat="40.107984" lon="-0.503853">
        <ele>651.6</ele>
        <time>2021-08-24T12:09:51.307Z</time>
      </trkpt>
      <trkpt lat="40.107701" lon="-0.503848">
        <ele>653.9</ele>
        <time>2021-08-24T12:10:15.257Z</time>
      </trkpt>
      <trkpt lat="40.107372" lon="-0.503971">
        <ele>659.0</ele>
        <time>2021-08-24T12:10:44.876Z</time>
      </trkpt>
      <trkpt lat="40.107278" lon="-0.503955">
        <ele>660.5</ele>
        <time>2021-08-24T12:10:55.477Z</time>
      </trkpt>
      <trkpt lat="40.107225" lon="-0.503880">
        <ele>661.7</ele>
        <time>2021-08-24T12:11:00.862Z</time>
      </trkpt>
      <trkpt lat="40.107229" lon="-0.503778">
        <ele>662.9</ele>
        <time>2021-08-24T12:11:06.452Z</time>
      </trkpt>
      <trkpt lat="40.107434" lon="-0.503392">
        <ele>668.4</ele>
        <time>2021-08-24T12:11:44.653Z</time>
      </trkpt>
      <trkpt lat="40.107437" lon="-0.503304">
        <ele>669.4</ele>
        <time>2021-08-24T12:11:51.785Z</time>
      </trkpt>
      <trkpt lat="40.107508" lon="-0.503258">
        <ele>670.6</ele>
        <time>2021-08-24T12:12:03.570Z</time>
      </trkpt>
      <trkpt lat="40.108263" lon="-0.502724">
        <ele>683.9</ele>
        <time>2021-08-24T12:13:43.374Z</time>
      </trkpt>
      <trkpt lat="40.108845" lon="-0.502466">
        <ele>693.8</ele>
        <time>2021-08-24T12:15:09.300Z</time>
      </trkpt>
      <trkpt lat="40.108958" lon="-0.502466">
        <ele>695.6</ele>
        <time>2021-08-24T12:15:22.109Z</time>
      </trkpt>
      <trkpt lat="40.109301" lon="-0.502694">
        <ele>701.8</ele>
        <time>2021-08-24T12:16:03.538Z</time>
      </trkpt>
      <trkpt lat="40.109481" lon="-0.502662">
        <ele>704.7</ele>
        <time>2021-08-24T12:16:22.098Z</time>
      </trkpt>
      <trkpt lat="40.109649" lon="-0.502759">
        <ele>707.7</ele>
        <time>2021-08-24T12:16:40.064Z</time>
      </trkpt>
      <trkpt lat="40.110019" lon="-0.502845">
        <ele>711.7</ele>
        <time>2021-08-24T12:17:13.744Z</time>
      </trkpt>
      <trkpt lat="40.110294" lon="-0.502850">
        <ele>713.4</ele>
        <time>2021-08-24T12:17:35.918Z</time>
      </trkpt>
      <trkpt lat="40.110384" lon="-0.502909">
        <ele>714.1</ele>
        <time>2021-08-24T12:17:43.307Z</time>
      </trkpt>
      <trkpt lat="40.110540" lon="-0.503145">
        <ele>715.5</ele>
        <time>2021-08-24T12:17:59.462Z</time>
      </trkpt>
      <trkpt lat="40.110700" lon="-0.503140">
        <ele>716.5</ele>
        <time>2021-08-24T12:18:09.310Z</time>
      </trkpt>
      <trkpt lat="40.110925" lon="-0.503038">
        <ele>718.0</ele>
        <time>2021-08-24T12:18:22.941Z</time>
      </trkpt>
      <trkpt lat="40.111098" lon="-0.503043">
        <ele>719.1</ele>
        <time>2021-08-24T12:18:31.147Z</time>
      </trkpt>
      <trkpt lat="40.111377" lon="-0.503177">
        <ele>720.9</ele>
        <time>2021-08-24T12:18:44.130Z</time>
      </trkpt>
      <trkpt lat="40.111569" lon="-0.503193">
        <ele>721.6</ele>
        <time>2021-08-24T12:18:51.137Z</time>
      </trkpt>
      <trkpt lat="40.111652" lon="-0.503231">
        <ele>721.5</ele>
        <time>2021-08-24T12:18:54.187Z</time>
      </trkpt>
      <trkpt lat="40.112168" lon="-0.504171">
        <ele>745.7</ele>
        <time>2021-08-24T12:19:30.565Z</time>
      </trkpt>
      <trkpt lat="40.112611" lon="-0.504544">
        <ele>752.4</ele>
        <time>2021-08-24T12:19:36.880Z</time>
      </trkpt>
      <trkpt lat="40.112863" lon="-0.505393">
        <ele>753.3</ele>
        <time>2021-08-24T12:19:39.787Z</time>
      </trkpt>
      <trkpt lat="40.112958" lon="-0.505928">
        <ele>757.5</ele>
        <time>2021-08-24T12:20:07.445Z</time>
      </trkpt>
      <trkpt lat="40.112743" lon="-0.506541">
        <ele>725.8</ele>
        <time>2021-08-24T12:20:38.869Z</time>
      </trkpt>
      <trkpt lat="40.112804" lon="-0.506696">
        <ele>726.3</ele>
        <time>2021-08-24T12:20:47.028Z</time>
      </trkpt>
      <trkpt lat="40.112918" lon="-0.506522">
        <ele>727.1</ele>
        <time>2021-08-24T12:21:01.712Z</time>
      </trkpt>
      <trkpt lat="40.112962" lon="-0.506322">
        <ele>727.4</ele>
        <time>2021-08-24T12:21:07.234Z</time>
      </trkpt>
      <trkpt lat="40.113094" lon="-0.506149">
        <ele>761.7</ele>
        <time>2021-08-24T12:21:19.572Z</time>
      </trkpt>
      <trkpt lat="40.113260" lon="-0.505841">
        <ele>763.5</ele>
        <time>2021-08-24T12:22:03.102Z</time>
      </trkpt>
      <trkpt lat="40.113475" lon="-0.505474">
        <ele>766.7</ele>
        <time>2021-08-24T12:22:42.863Z</time>
      </trkpt>
      <trkpt lat="40.113582" lon="-0.505317">
        <ele>768.7</ele>
        <time>2021-08-24T12:22:52.328Z</time>
      </trkpt>
      <trkpt lat="40.113703" lon="-0.504931">
        <ele>743.0</ele>
        <time>2021-08-24T12:23:22.535Z</time>
      </trkpt>
      <trkpt lat="40.113740" lon="-0.504556">
        <ele>745.7</ele>
        <time>2021-08-24T12:23:47.103Z</time>
      </trkpt>
      <trkpt lat="40.113789" lon="-0.504513">
        <ele>746.3</ele>
        <time>2021-08-24T12:23:52.306Z</time>
      </trkpt>
      <trkpt lat="40.113855" lon="-0.504508">
        <ele>746.9</ele>
        <time>2021-08-24T12:23:57.766Z</time>
      </trkpt>
      <trkpt lat="40.114064" lon="-0.504706">
        <ele>749.3</ele>
        <time>2021-08-24T12:24:18.878Z</time>
      </trkpt>
      <trkpt lat="40.114359" lon="-0.505097">
        <ele>751.7</ele>
        <time>2021-08-24T12:24:38.747Z</time>
      </trkpt>
      <trkpt lat="40.114285" lon="-0.505458">
        <ele>787.8</ele>
        <time>2021-08-24T12:25:04.719Z</time>
      </trkpt>
      <trkpt lat="40.113994" lon="-0.505843">
        <ele>758.5</ele>
        <time>2021-08-24T12:25:35.638Z</time>
      </trkpt>
      <trkpt lat="40.113900" lon="-0.506241">
        <ele>780.4</ele>
        <time>2021-08-24T12:25:42.485Z</time>
      </trkpt>
      <trkpt lat="40.114037" lon="-0.506485">
        <ele>785.4</ele>
        <time>2021-08-24T12:25:57.724Z</time>
      </trkpt>
      <trkpt lat="40.114219" lon="-0.506658">
        <ele>791.6</ele>
        <time>2021-08-24T12:26:17.522Z</time>
      </trkpt>
      <trkpt lat="40.114343" lon="-0.506830">
        <ele>794.0</ele>
        <time>2021-08-24T12:26:27.863Z</time>
      </trkpt>
      <trkpt lat="40.114591" lon="-0.506976">
        <ele>800.5</ele>
        <time>2021-08-24T12:26:55.008Z</time>
      </trkpt>
      <trkpt lat="40.114731" lon="-0.506992">
        <ele>804.7</ele>
        <time>2021-08-24T12:27:03.800Z</time>
      </trkpt>
      <trkpt lat="40.115069" lon="-0.507335">
        <ele>772.2</ele>
        <time>2021-08-24T12:27:43.839Z</time>
      </trkpt>
      <trkpt lat="40.114917" lon="-0.507978">
        <ele>774.7</ele>
        <time>2021-08-24T12:28:14.984Z</time>
      </trkpt>
      <trkpt lat="40.115061" lon="-0.508268">
        <ele>775.6</ele>
        <time>2021-08-24T12:28:27.706Z</time>
      </trkpt>
      <trkpt lat="40.115180" lon="-0.508359">
        <ele>776.1</ele>
        <time>2021-08-24T12:28:38.157Z</time>
      </trkpt>
      <trkpt lat="40.115574" lon="-0.508467">
        <ele>777.6</ele>
        <time>2021-08-24T12:28:55.112Z</time>
      </trkpt>
      <trkpt lat="40.116501" lon="-0.508547">
        <ele>780.7</ele>
        <time>2021-08-24T12:29:36.824Z</time>
      </trkpt>
      <trkpt lat="40.117670" lon="-0.508863">
        <ele>783.8</ele>
        <time>2021-08-24T12:30:27.951Z</time>
      </trkpt>
      <trkpt lat="40.118339" lon="-0.509196">
        <ele>786.6</ele>
        <time>2021-08-24T12:31:02.101Z</time>
      </trkpt>
      <trkpt lat="40.118741" lon="-0.509555">
        <ele>789.2</ele>
        <time>2021-08-24T12:31:28.634Z</time>
      </trkpt>
      <trkpt lat="40.119016" lon="-0.509496">
        <ele>790.6</ele>
        <time>2021-08-24T12:31:45.014Z</time>
      </trkpt>
      <trkpt lat="40.118884" lon="-0.509352">
        <ele>791.5</ele>
        <time>2021-08-24T12:31:55.650Z</time>
      </trkpt>
      <trkpt lat="40.118712" lon="-0.509276">
        <ele>792.4</ele>
        <time>2021-08-24T12:32:07.117Z</time>
      </trkpt>
      <trkpt lat="40.118663" lon="-0.509196">
        <ele>792.9</ele>
        <time>2021-08-24T12:32:12.406Z</time>
      </trkpt>
      <trkpt lat="40.118679" lon="-0.509105">
        <ele>793.2</ele>
        <time>2021-08-24T12:32:17.224Z</time>
      </trkpt>
      <trkpt lat="40.119163" lon="-0.509014">
        <ele>796.6</ele>
        <time>2021-08-24T12:32:51.377Z</time>
      </trkpt>
      <trkpt lat="40.119221" lon="-0.508896">
        <ele>797.5</ele>
        <time>2021-08-24T12:32:59.167Z</time>
      </trkpt>
      <trkpt lat="40.118823" lon="-0.508681">
        <ele>800.8</ele>
        <time>2021-08-24T12:33:30.662Z</time>
      </trkpt>
      <trkpt lat="40.118745" lon="-0.508547">
        <ele>801.8</ele>
        <time>2021-08-24T12:33:40.015Z</time>
      </trkpt>
      <trkpt lat="40.118757" lon="-0.508236">
        <ele>803.6</ele>
        <time>2021-08-24T12:33:57.650Z</time>
      </trkpt>
      <trkpt lat="40.118974" lon="-0.507909">
        <ele>806.2</ele>
        <time>2021-08-24T12:34:21.559Z</time>
      </trkpt>
      <trkpt lat="40.119175" lon="-0.507887">
        <ele>807.8</ele>
        <time>2021-08-24T12:34:35.499Z</time>
      </trkpt>
      <trkpt lat="40.119426" lon="-0.507994">
        <ele>809.5</ele>
        <time>2021-08-24T12:34:53.464Z</time>
      </trkpt>
      <trkpt lat="40.119479" lon="-0.507984">
        <ele>809.8</ele>
        <time>2021-08-24T12:34:57.008Z</time>
      </trkpt>
      <trkpt lat="40.119545" lon="-0.507844">
        <ele>810.6</ele>
        <time>2021-08-24T12:35:05.326Z</time>
      </trkpt>
      <trkpt lat="40.119532" lon="-0.507753">
        <ele>811.1</ele>
        <time>2021-08-24T12:35:09.972Z</time>
      </trkpt>
      <trkpt lat="40.119147" lon="-0.507281">
        <ele>814.5</ele>
        <time>2021-08-24T12:35:43.409Z</time>
      </trkpt>
      <trkpt lat="40.119196" lon="-0.506557">
        <ele>818.0</ele>
        <time>2021-08-24T12:36:17.244Z</time>
      </trkpt>
      <trkpt lat="40.119069" lon="-0.506417">
        <ele>819.1</ele>
        <time>2021-08-24T12:36:27.197Z</time>
      </trkpt>
      <trkpt lat="40.118687" lon="-0.506240">
        <ele>821.5</ele>
        <time>2021-08-24T12:36:51.443Z</time>
      </trkpt>
      <trkpt lat="40.118351" lon="-0.505961">
        <ele>824.0</ele>
        <time>2021-08-24T12:37:15.295Z</time>
      </trkpt>
      <trkpt lat="40.117235" lon="-0.505226">
        <ele>831.4</ele>
        <time>2021-08-24T12:38:35.747Z</time>
      </trkpt>
      <trkpt lat="40.116944" lon="-0.504963">
        <ele>833.1</ele>
        <time>2021-08-24T12:38:57.147Z</time>
      </trkpt>
      <trkpt lat="40.116882" lon="-0.504851">
        <ele>833.7</ele>
        <time>2021-08-24T12:39:02.455Z</time>
      </trkpt>
      <trkpt lat="40.116882" lon="-0.504797">
        <ele>833.9</ele>
        <time>2021-08-24T12:39:06.697Z</time>
      </trkpt>
      <trkpt lat="40.116923" lon="-0.504695">
        <ele>834.3</ele>
        <time>2021-08-24T12:39:11.924Z</time>
      </trkpt>
      <trkpt lat="40.117063" lon="-0.504100">
        <ele>836.7</ele>
        <time>2021-08-24T12:39:37.501Z</time>
      </trkpt>
      <trkpt lat="40.117206" lon="-0.503896">
        <ele>837.7</ele>
        <time>2021-08-24T12:39:49.786Z</time>
      </trkpt>
      <trkpt lat="40.117440" lon="-0.503703">
        <ele>839.1</ele>
        <time>2021-08-24T12:40:02.862Z</time>
      </trkpt>
      <trkpt lat="40.117764" lon="-0.502871">
        <ele>841.2</ele>
        <time>2021-08-24T12:40:37.563Z</time>
      </trkpt>
      <trkpt lat="40.117937" lon="-0.502694">
        <ele>841.8</ele>
        <time>2021-08-24T12:40:46.587Z</time>
      </trkpt>
      <trkpt lat="40.118495" lon="-0.502587">
        <ele>843.4</ele>
        <time>2021-08-24T12:41:10.507Z</time>
      </trkpt>
      <trkpt lat="40.119294" lon="-0.502625">
        <ele>845.4</ele>
        <time>2021-08-24T12:41:47.111Z</time>
      </trkpt>
      <trkpt lat="40.120144" lon="-0.502480">
        <ele>847.4</ele>
        <time>2021-08-24T12:42:24.159Z</time>
      </trkpt>
      <trkpt lat="40.120221" lon="-0.502410">
        <ele>847.6</ele>
        <time>2021-08-24T12:42:28.696Z</time>
      </trkpt>
      <trkpt lat="40.120295" lon="-0.502292">
        <ele>847.9</ele>
        <time>2021-08-24T12:42:33.445Z</time>
      </trkpt>
      <trkpt lat="40.120636" lon="-0.501359">
        <ele>849.2</ele>
        <time>2021-08-24T12:43:06.339Z</time>
      </trkpt>
      <trkpt lat="40.120923" lon="-0.501284">
        <ele>849.6</ele>
        <time>2021-08-24T12:43:18.393Z</time>
      </trkpt>
      <trkpt lat="40.121087" lon="-0.500999">
        <ele>850.0</ele>
        <time>2021-08-24T12:43:28.320Z</time>
      </trkpt>
      <trkpt lat="40.121149" lon="-0.500736">
        <ele>850.3</ele>
        <time>2021-08-24T12:43:36.450Z</time>
      </trkpt>
      <trkpt lat="40.121211" lon="-0.500560">
        <ele>850.5</ele>
        <time>2021-08-24T12:43:41.122Z</time>
      </trkpt>
      <trkpt lat="40.121170" lon="-0.500533">
        <ele>850.6</ele>
        <time>2021-08-24T12:43:43.080Z</time>
      </trkpt>
      <trkpt lat="40.120890" lon="-0.500152">
        <ele>851.1</ele>
        <time>2021-08-24T12:43:52.563Z</time>
      </trkpt>
      <trkpt lat="40.120103" lon="-0.499367">
        <ele>851.8</ele>
        <time>2021-08-24T12:44:15.272Z</time>
      </trkpt>
      <trkpt lat="40.120037" lon="-0.499186">
        <ele>851.9</ele>
        <time>2021-08-24T12:44:19.456Z</time>
      </trkpt>
      <trkpt lat="40.120037" lon="-0.498974">
        <ele>852.1</ele>
        <time>2021-08-24T12:44:23.570Z</time>
      </trkpt>
      <trkpt lat="40.119938" lon="-0.498469">
        <ele>852.4</ele>
        <time>2021-08-24T12:44:33.071Z</time>
      </trkpt>
      <trkpt lat="40.119895" lon="-0.498371">
        <ele>852.4</ele>
        <time>2021-08-24T12:44:34.724Z</time>
      </trkpt>
      <trkpt lat="40.119951" lon="-0.498110">
        <ele>852.6</ele>
        <time>2021-08-24T12:44:42.742Z</time>
      </trkpt>
      <trkpt lat="40.120348" lon="-0.497202">
        <ele>853.2</ele>
        <time>2021-08-24T12:45:11.983Z</time>
      </trkpt>
      <trkpt lat="40.120227" lon="-0.496674">
        <ele>853.5</ele>
        <time>2021-08-24T12:45:26.612Z</time>
      </trkpt>
      <trkpt lat="40.120442" lon="-0.496312">
        <ele>853.7</ele>
        <time>2021-08-24T12:45:39.173Z</time>
      </trkpt>
      <trkpt lat="40.120654" lon="-0.495671">
        <ele>853.1</ele>
        <time>2021-08-24T12:45:56.257Z</time>
      </trkpt>
      <trkpt lat="40.120841" lon="-0.495420">
        <ele>852.9</ele>
        <time>2021-08-24T12:46:04.323Z</time>
      </trkpt>
      <trkpt lat="40.121157" lon="-0.495129">
        <ele>852.5</ele>
        <time>2021-08-24T12:46:15.515Z</time>
      </trkpt>
      <trkpt lat="40.121257" lon="-0.494902">
        <ele>852.3</ele>
        <time>2021-08-24T12:46:21.118Z</time>
      </trkpt>
      <trkpt lat="40.121118" lon="-0.494336">
        <ele>851.7</ele>
        <time>2021-08-24T12:46:33.382Z</time>
      </trkpt>
      <trkpt lat="40.120256" lon="-0.493350">
        <ele>848.8</ele>
        <time>2021-08-24T12:47:03.164Z</time>
      </trkpt>
      <trkpt lat="40.120161" lon="-0.492840">
        <ele>847.7</ele>
        <time>2021-08-24T12:47:13.679Z</time>
      </trkpt>
      <trkpt lat="40.120183" lon="-0.492653">
        <ele>847.4</ele>
        <time>2021-08-24T12:47:17.520Z</time>
      </trkpt>
      <trkpt lat="40.119947" lon="-0.491540">
        <ele>847.7</ele>
        <time>2021-08-24T12:47:43.099Z</time>
      </trkpt>
      <trkpt lat="40.120139" lon="-0.491273">
        <ele>847.8</ele>
        <time>2021-08-24T12:47:52.783Z</time>
      </trkpt>
      <trkpt lat="40.120490" lon="-0.490949">
        <ele>848.0</ele>
        <time>2021-08-24T12:48:10.178Z</time>
      </trkpt>
      <trkpt lat="40.120815" lon="-0.490653">
        <ele>849.3</ele>
        <time>2021-08-24T12:48:29.459Z</time>
      </trkpt>
      <trkpt lat="40.121442" lon="-0.491207">
        <ele>854.2</ele>
        <time>2021-08-24T12:49:13.376Z</time>
      </trkpt>
      <trkpt lat="40.123198" lon="-0.491293">
        <ele>869.3</ele>
        <time>2021-08-24T12:51:27.699Z</time>
      </trkpt>
      <trkpt lat="40.123444" lon="-0.491571">
        <ele>872.7</ele>
        <time>2021-08-24T12:51:56.641Z</time>
      </trkpt>
      <trkpt lat="40.124297" lon="-0.491936">
        <ele>883.0</ele>
        <time>2021-08-24T12:53:20.962Z</time>
      </trkpt>
      <trkpt lat="40.124412" lon="-0.492344">
        <ele>887.4</ele>
        <time>2021-08-24T12:53:53.797Z</time>
      </trkpt>
      <trkpt lat="40.125396" lon="-0.493610">
        <ele>905.0</ele>
        <time>2021-08-24T12:56:10.929Z</time>
      </trkpt>
      <trkpt lat="40.125741" lon="-0.494447">
        <ele>913.1</ele>
        <time>2021-08-24T12:57:18.378Z</time>
      </trkpt>
      <trkpt lat="40.126561" lon="-0.494897">
        <ele>922.7</ele>
        <time>2021-08-24T12:58:31.121Z</time>
      </trkpt>
      <trkpt lat="40.127053" lon="-0.494790">
        <ele>925.4</ele>
        <time>2021-08-24T12:59:06.467Z</time>
      </trkpt>
      <trkpt lat="40.127463" lon="-0.494897">
        <ele>927.7</ele>
        <time>2021-08-24T12:59:32.411Z</time>
      </trkpt>
      <trkpt lat="40.127693" lon="-0.494704">
        <ele>929.3</ele>
        <time>2021-08-24T12:59:47.619Z</time>
      </trkpt>
      <trkpt lat="40.128464" lon="-0.494361">
        <ele>932.3</ele>
        <time>2021-08-24T13:00:25.207Z</time>
      </trkpt>
      <trkpt lat="40.129399" lon="-0.493674">
        <ele>932.0</ele>
        <time>2021-08-24T13:00:59.290Z</time>
      </trkpt>
      <trkpt lat="40.129925" lon="-0.493159">
        <ele>931.0</ele>
        <time>2021-08-24T13:01:16.729Z</time>
      </trkpt>
      <trkpt lat="40.130269" lon="-0.493224">
        <ele>929.4</ele>
        <time>2021-08-24T13:01:25.470Z</time>
      </trkpt>
      <trkpt lat="40.130614" lon="-0.493009">
        <ele>927.6</ele>
        <time>2021-08-24T13:01:34.819Z</time>
      </trkpt>
      <trkpt lat="40.131729" lon="-0.491743">
        <ele>919.7</ele>
        <time>2021-08-24T13:02:09.390Z</time>
      </trkpt>
      <trkpt lat="40.132435" lon="-0.491670">
        <ele>881.4</ele>
        <time>2021-08-24T13:02:22.567Z</time>
      </trkpt>
      <trkpt lat="40.132517" lon="-0.491357">
        <ele>914.2</ele>
        <time>2021-08-24T13:02:29.062Z</time>
      </trkpt>
      <trkpt lat="40.132697" lon="-0.490799">
        <ele>911.2</ele>
        <time>2021-08-24T13:02:39.733Z</time>
      </trkpt>
      <trkpt lat="40.133370" lon="-0.489984">
        <ele>905.8</ele>
        <time>2021-08-24T13:03:01.048Z</time>
      </trkpt>
      <trkpt lat="40.133944" lon="-0.488932">
        <ele>900.3</ele>
        <time>2021-08-24T13:03:24.467Z</time>
      </trkpt>
      <trkpt lat="40.134617" lon="-0.488031">
        <ele>895.9</ele>
        <time>2021-08-24T13:03:47.877Z</time>
      </trkpt>
      <trkpt lat="40.135666" lon="-0.487280">
        <ele>891.1</ele>
        <time>2021-08-24T13:04:17.898Z</time>
      </trkpt>
      <trkpt lat="40.136995" lon="-0.485735">
        <ele>886.1</ele>
        <time>2021-08-24T13:05:03.640Z</time>
      </trkpt>
      <trkpt lat="40.137897" lon="-0.485306">
        <ele>884.8</ele>
        <time>2021-08-24T13:05:31.016Z</time>
      </trkpt>
      <trkpt lat="40.138072" lon="-0.485300">
        <ele>884.5</ele>
        <time>2021-08-24T13:05:36.323Z</time>
      </trkpt>
      <trkpt lat="40.138027" lon="-0.485194">
        <ele>884.4</ele>
        <time>2021-08-24T13:05:39.549Z</time>
      </trkpt>
      <trkpt lat="40.137908" lon="-0.485169">
        <ele>885.1</ele>
        <time>2021-08-24T13:05:44.925Z</time>
      </trkpt>
      <trkpt lat="40.137703" lon="-0.485029">
        <ele>886.3</ele>
        <time>2021-08-24T13:05:53.785Z</time>
      </trkpt>
      <trkpt lat="40.137496" lon="-0.485079">
        <ele>887.5</ele>
        <time>2021-08-24T13:06:04.014Z</time>
      </trkpt>
      <trkpt lat="40.137233" lon="-0.484868">
        <ele>889.2</ele>
        <time>2021-08-24T13:06:20.707Z</time>
      </trkpt>
      <trkpt lat="40.136820" lon="-0.484743">
        <ele>891.6</ele>
        <time>2021-08-24T13:06:47.103Z</time>
      </trkpt>
      <trkpt lat="40.136648" lon="-0.484657">
        <ele>892.6</ele>
        <time>2021-08-24T13:07:00.369Z</time>
      </trkpt>
      <trkpt lat="40.136547" lon="-0.484540">
        <ele>893.4</ele>
        <time>2021-08-24T13:07:11.494Z</time>
      </trkpt>
      <trkpt lat="40.136077" lon="-0.484297">
        <ele>898.5</ele>
        <time>2021-08-24T13:07:55.217Z</time>
      </trkpt>
      <trkpt lat="40.135531" lon="-0.484082">
        <ele>906.0</ele>
        <time>2021-08-24T13:08:50.657Z</time>
      </trkpt>
      <trkpt lat="40.135449" lon="-0.483714">
        <ele>909.8</ele>
        <time>2021-08-24T13:09:20.807Z</time>
      </trkpt>
      <trkpt lat="40.135129" lon="-0.483478">
        <ele>914.6</ele>
        <time>2021-08-24T13:09:59.520Z</time>
      </trkpt>
      <trkpt lat="40.134795" lon="-0.483546">
        <ele>918.8</ele>
        <time>2021-08-24T13:10:35.026Z</time>
      </trkpt>
      <trkpt lat="40.134637" lon="-0.483521">
        <ele>920.7</ele>
        <time>2021-08-24T13:10:51.717Z</time>
      </trkpt>
      <trkpt lat="40.134396" lon="-0.483306">
        <ele>924.2</ele>
        <time>2021-08-24T13:11:21.213Z</time>
      </trkpt>
      <trkpt lat="40.133951" lon="-0.483331">
        <ele>929.4</ele>
        <time>2021-08-24T13:12:04.166Z</time>
      </trkpt>
      <trkpt lat="40.133907" lon="-0.482999">
        <ele>932.5</ele>
        <time>2021-08-24T13:12:27.248Z</time>
      </trkpt>
      <trkpt lat="40.133869" lon="-0.482974">
        <ele>933.0</ele>
        <time>2021-08-24T13:12:30.946Z</time>
      </trkpt>
      <trkpt lat="40.133817" lon="-0.483049">
        <ele>933.9</ele>
        <time>2021-08-24T13:12:37.449Z</time>
      </trkpt>
      <trkpt lat="40.133721" lon="-0.483070">
        <ele>935.0</ele>
        <time>2021-08-24T13:12:45.513Z</time>
      </trkpt>
      <trkpt lat="40.133612" lon="-0.483031">
        <ele>936.4</ele>
        <time>2021-08-24T13:12:54.554Z</time>
      </trkpt>
      <trkpt lat="40.133372" lon="-0.483067">
        <ele>939.1</ele>
        <time>2021-08-24T13:13:13.289Z</time>
      </trkpt>
      <trkpt lat="40.132770" lon="-0.483381">
        <ele>942.5</ele>
        <time>2021-08-24T13:13:56.507Z</time>
      </trkpt>
      <trkpt lat="40.132669" lon="-0.483371">
        <ele>943.0</ele>
        <time>2021-08-24T13:14:02.726Z</time>
      </trkpt>
      <trkpt lat="40.132345" lon="-0.482972">
        <ele>945.3</ele>
        <time>2021-08-24T13:14:26.703Z</time>
      </trkpt>
      <trkpt lat="40.132259" lon="-0.482949">
        <ele>945.8</ele>
        <time>2021-08-24T13:14:30.839Z</time>
      </trkpt>
      <trkpt lat="40.132136" lon="-0.483152">
        <ele>946.8</ele>
        <time>2021-08-24T13:14:40.806Z</time>
      </trkpt>
      <trkpt lat="40.132032" lon="-0.483324">
        <ele>947.7</ele>
        <time>2021-08-24T13:14:48.078Z</time>
      </trkpt>
      <trkpt lat="40.131920" lon="-0.483721">
        <ele>948.5</ele>
        <time>2021-08-24T13:15:02.188Z</time>
      </trkpt>
      <trkpt lat="40.131731" lon="-0.484157">
        <ele>948.8</ele>
        <time>2021-08-24T13:15:17.430Z</time>
      </trkpt>
      <trkpt lat="40.131485" lon="-0.484961">
        <ele>949.4</ele>
        <time>2021-08-24T13:15:41.356Z</time>
      </trkpt>
      <trkpt lat="40.131182" lon="-0.485612">
        <ele>949.8</ele>
        <time>2021-08-24T13:15:59.261Z</time>
      </trkpt>
      <trkpt lat="40.130996" lon="-0.485758">
        <ele>949.2</ele>
        <time>2021-08-24T13:16:05.586Z</time>
      </trkpt>
      <trkpt lat="40.130868" lon="-0.485680">
        <ele>948.8</ele>
        <time>2021-08-24T13:16:09.633Z</time>
      </trkpt>
      <trkpt lat="40.130797" lon="-0.485108">
        <ele>947.6</ele>
        <time>2021-08-24T13:16:21.786Z</time>
      </trkpt>
      <trkpt lat="40.130723" lon="-0.484979">
        <ele>947.2</ele>
        <time>2021-08-24T13:16:25.052Z</time>
      </trkpt>
      <trkpt lat="40.130665" lon="-0.484907">
        <ele>947.0</ele>
        <time>2021-08-24T13:16:27.135Z</time>
      </trkpt>
      <trkpt lat="40.130376" lon="-0.484911">
        <ele>946.2</ele>
        <time>2021-08-24T13:16:34.597Z</time>
      </trkpt>
      <trkpt lat="40.129982" lon="-0.484561">
        <ele>944.9</ele>
        <time>2021-08-24T13:16:46.374Z</time>
      </trkpt>
      <trkpt lat="40.129854" lon="-0.484171">
        <ele>942.6</ele>
        <time>2021-08-24T13:16:54.124Z</time>
      </trkpt>
      <trkpt lat="40.129498" lon="-0.483485">
        <ele>938.1</ele>
        <time>2021-08-24T13:17:08.848Z</time>
      </trkpt>
      <trkpt lat="40.129345" lon="-0.483195">
        <ele>936.2</ele>
        <time>2021-08-24T13:17:14.840Z</time>
      </trkpt>
      <trkpt lat="40.129231" lon="-0.483109">
        <ele>935.3</ele>
        <time>2021-08-24T13:17:17.720Z</time>
      </trkpt>
      <trkpt lat="40.129058" lon="-0.482809">
        <ele>933.3</ele>
        <time>2021-08-24T13:17:24.093Z</time>
      </trkpt>
      <trkpt lat="40.128968" lon="-0.482309">
        <ele>929.5</ele>
        <time>2021-08-24T13:17:32.639Z</time>
      </trkpt>
      <trkpt lat="40.128735" lon="-0.481954">
        <ele>925.3</ele>
        <time>2021-08-24T13:17:40.372Z</time>
      </trkpt>
      <trkpt lat="40.128717" lon="-0.481926">
        <ele>925.0</ele>
        <time>2021-08-24T13:17:40.932Z</time>
      </trkpt>
      <trkpt lat="40.128351" lon="-0.481651">
        <ele>920.2</ele>
        <time>2021-08-24T13:17:49.707Z</time>
      </trkpt>
      <trkpt lat="40.128132" lon="-0.481401">
        <ele>916.8</ele>
        <time>2021-08-24T13:17:55.723Z</time>
      </trkpt>
      <trkpt lat="40.128170" lon="-0.480896">
        <ele>912.3</ele>
        <time>2021-08-24T13:18:03.729Z</time>
      </trkpt>
      <trkpt lat="40.128320" lon="-0.480378">
        <ele>907.3</ele>
        <time>2021-08-24T13:18:12.511Z</time>
      </trkpt>
      <trkpt lat="40.128247" lon="-0.480146">
        <ele>905.0</ele>
        <time>2021-08-24T13:18:16.518Z</time>
      </trkpt>
      <trkpt lat="40.128135" lon="-0.480006">
        <ele>903.2</ele>
        <time>2021-08-24T13:18:19.713Z</time>
      </trkpt>
      <trkpt lat="40.127905" lon="-0.479799">
        <ele>899.9</ele>
        <time>2021-08-24T13:18:25.535Z</time>
      </trkpt>
      <trkpt lat="40.127684" lon="-0.479427">
        <ele>895.6</ele>
        <time>2021-08-24T13:18:33.064Z</time>
      </trkpt>
      <trkpt lat="40.127413" lon="-0.479173">
        <ele>891.6</ele>
        <time>2021-08-24T13:18:40.060Z</time>
      </trkpt>
      <trkpt lat="40.127074" lon="-0.479188">
        <ele>888.5</ele>
        <time>2021-08-24T13:18:47.210Z</time>
      </trkpt>
      <trkpt lat="40.126648" lon="-0.479449">
        <ele>885.0</ele>
        <time>2021-08-24T13:18:57.487Z</time>
      </trkpt>
      <trkpt lat="40.126112" lon="-0.479560">
        <ele>880.9</ele>
        <time>2021-08-24T13:19:09.751Z</time>
      </trkpt>
      <trkpt lat="40.125571" lon="-0.479299">
        <ele>876.6</ele>
        <time>2021-08-24T13:19:23.694Z</time>
      </trkpt>
      <trkpt lat="40.125502" lon="-0.479288">
        <ele>876.4</ele>
        <time>2021-08-24T13:19:25.199Z</time>
      </trkpt>
      <trkpt lat="40.125214" lon="-0.479195">
        <ele>875.7</ele>
        <time>2021-08-24T13:19:33.028Z</time>
      </trkpt>
      <trkpt lat="40.124588" lon="-0.478949">
        <ele>874.2</ele>
        <time>2021-08-24T13:19:50.515Z</time>
      </trkpt>
      <trkpt lat="40.124415" lon="-0.478696">
        <ele>873.6</ele>
        <time>2021-08-24T13:19:57.653Z</time>
      </trkpt>
      <trkpt lat="40.123464" lon="-0.478603">
        <ele>871.6</ele>
        <time>2021-08-24T13:20:26.023Z</time>
      </trkpt>
      <trkpt lat="40.123270" lon="-0.478656">
        <ele>871.3</ele>
        <time>2021-08-24T13:20:31.783Z</time>
      </trkpt>
      <trkpt lat="40.122965" lon="-0.478889">
        <ele>870.7</ele>
        <time>2021-08-24T13:20:41.794Z</time>
      </trkpt>
      <trkpt lat="40.122828" lon="-0.478862">
        <ele>870.4</ele>
        <time>2021-08-24T13:20:45.633Z</time>
      </trkpt>
      <trkpt lat="40.122644" lon="-0.478703">
        <ele>870.1</ele>
        <time>2021-08-24T13:20:51.675Z</time>
      </trkpt>
      <trkpt lat="40.122314" lon="-0.477958">
        <ele>868.7</ele>
        <time>2021-08-24T13:21:09.263Z</time>
      </trkpt>
      <trkpt lat="40.122029" lon="-0.477512">
        <ele>867.6</ele>
        <time>2021-08-24T13:21:20.808Z</time>
      </trkpt>
      <trkpt lat="40.121368" lon="-0.475682">
        <ele>863.6</ele>
        <time>2021-08-24T13:22:01.730Z</time>
      </trkpt>
      <trkpt lat="40.121245" lon="-0.475036">
        <ele>862.5</ele>
        <time>2021-08-24T13:22:15.588Z</time>
      </trkpt>
      <trkpt lat="40.121151" lon="-0.474582">
        <ele>861.7</ele>
        <time>2021-08-24T13:22:25.431Z</time>
      </trkpt>
      <trkpt lat="40.121230" lon="-0.474700">
        <ele>861.4</ele>
        <time>2021-08-24T13:22:28.716Z</time>
      </trkpt>
      <trkpt lat="40.121385" lon="-0.474700">
        <ele>861.0</ele>
        <time>2021-08-24T13:22:32.960Z</time>
      </trkpt>
      <trkpt lat="40.121780" lon="-0.474480">
        <ele>859.9</ele>
        <time>2021-08-24T13:22:44.729Z</time>
      </trkpt>
      <trkpt lat="40.122113" lon="-0.474550">
        <ele>858.8</ele>
        <time>2021-08-24T13:22:53.847Z</time>
      </trkpt>
      <trkpt lat="40.122318" lon="-0.474476">
        <ele>858.1</ele>
        <time>2021-08-24T13:22:59.502Z</time>
      </trkpt>
      <trkpt lat="40.123016" lon="-0.474036">
        <ele>855.6</ele>
        <time>2021-08-24T13:23:19.169Z</time>
      </trkpt>
      <trkpt lat="40.123171" lon="-0.473883">
        <ele>855.0</ele>
        <time>2021-08-24T13:23:23.922Z</time>
      </trkpt>
      <trkpt lat="40.123366" lon="-0.473476">
        <ele>853.2</ele>
        <time>2021-08-24T13:23:32.960Z</time>
      </trkpt>
      <trkpt lat="40.123603" lon="-0.472795">
        <ele>850.2</ele>
        <time>2021-08-24T13:23:46.830Z</time>
      </trkpt>
      <trkpt lat="40.123603" lon="-0.472795">
        <ele>850.2</ele>
        <time>2021-08-24T13:23:46.866Z</time>
      </trkpt>
      <trkpt lat="40.124014" lon="-0.472110">
        <ele>846.6</ele>
        <time>2021-08-24T13:24:02.648Z</time>
      </trkpt>
      <trkpt lat="40.124198" lon="-0.471532">
        <ele>843.9</ele>
        <time>2021-08-24T13:24:13.659Z</time>
      </trkpt>
      <trkpt lat="40.124315" lon="-0.471439">
        <ele>843.1</ele>
        <time>2021-08-24T13:24:16.862Z</time>
      </trkpt>
      <trkpt lat="40.124552" lon="-0.471467">
        <ele>841.6</ele>
        <time>2021-08-24T13:24:22.325Z</time>
      </trkpt>
      <trkpt lat="40.124690" lon="-0.471407">
        <ele>840.8</ele>
        <time>2021-08-24T13:24:25.745Z</time>
      </trkpt>
      <trkpt lat="40.124785" lon="-0.471282">
        <ele>840.0</ele>
        <time>2021-08-24T13:24:28.929Z</time>
      </trkpt>
      <trkpt lat="40.125238" lon="-0.470272">
        <ele>834.6</ele>
        <time>2021-08-24T13:24:49.619Z</time>
      </trkpt>
      <trkpt lat="40.125415" lon="-0.470023">
        <ele>833.7</ele>
        <time>2021-08-24T13:24:55.926Z</time>
      </trkpt>
      <trkpt lat="40.125617" lon="-0.469916">
        <ele>833.3</ele>
        <time>2021-08-24T13:25:01.240Z</time>
      </trkpt>
      <trkpt lat="40.125876" lon="-0.469592">
        <ele>832.5</ele>
        <time>2021-08-24T13:25:10.449Z</time>
      </trkpt>
      <trkpt lat="40.126007" lon="-0.469499">
        <ele>832.1</ele>
        <time>2021-08-24T13:25:14.525Z</time>
      </trkpt>
      <trkpt lat="40.126093" lon="-0.469541">
        <ele>831.9</ele>
        <time>2021-08-24T13:25:16.732Z</time>
      </trkpt>
      <trkpt lat="40.126180" lon="-0.469583">
        <ele>831.7</ele>
        <time>2021-08-24T13:25:20.126Z</time>
      </trkpt>
      <trkpt lat="40.126491" lon="-0.469791">
        <ele>831.0</ele>
        <time>2021-08-24T13:25:30.500Z</time>
      </trkpt>
      <trkpt lat="40.126721" lon="-0.469814">
        <ele>830.5</ele>
        <time>2021-08-24T13:25:37.744Z</time>
      </trkpt>
      <trkpt lat="40.126782" lon="-0.469879">
        <ele>830.3</ele>
        <time>2021-08-24T13:25:39.926Z</time>
      </trkpt>
      <trkpt lat="40.126803" lon="-0.469902">
        <ele>830.2</ele>
        <time>2021-08-24T13:25:42.099Z</time>
      </trkpt>
      <trkpt lat="40.127267" lon="-0.470634">
        <ele>831.2</ele>
        <time>2021-08-24T13:26:10.744Z</time>
      </trkpt>
      <trkpt lat="40.127865" lon="-0.470550">
        <ele>832.1</ele>
        <time>2021-08-24T13:26:37.757Z</time>
      </trkpt>
      <trkpt lat="40.128431" lon="-0.470606">
        <ele>832.7</ele>
        <time>2021-08-24T13:27:00.610Z</time>
      </trkpt>
      <trkpt lat="40.128594" lon="-0.470569">
        <ele>832.3</ele>
        <time>2021-08-24T13:27:05.976Z</time>
      </trkpt>
      <trkpt lat="40.128753" lon="-0.470444">
        <ele>831.8</ele>
        <time>2021-08-24T13:27:11.601Z</time>
      </trkpt>
      <trkpt lat="40.128919" lon="-0.470226">
        <ele>831.2</ele>
        <time>2021-08-24T13:27:18.314Z</time>
      </trkpt>
      <trkpt lat="40.129075" lon="-0.469814">
        <ele>830.4</ele>
        <time>2021-08-24T13:27:27.681Z</time>
      </trkpt>
      <trkpt lat="40.129132" lon="-0.468958">
        <ele>828.8</ele>
        <time>2021-08-24T13:27:43.931Z</time>
      </trkpt>
      <trkpt lat="40.128941" lon="-0.468365">
        <ele>826.8</ele>
        <time>2021-08-24T13:27:55.589Z</time>
      </trkpt>
      <trkpt lat="40.128859" lon="-0.467727">
        <ele>824.5</ele>
        <time>2021-08-24T13:28:07.264Z</time>
      </trkpt>
      <trkpt lat="40.128756" lon="-0.467615">
        <ele>823.9</ele>
        <time>2021-08-24T13:28:10.446Z</time>
      </trkpt>
      <trkpt lat="40.128527" lon="-0.467606">
        <ele>822.8</ele>
        <time>2021-08-24T13:28:16.012Z</time>
      </trkpt>
      <trkpt lat="40.128286" lon="-0.467509">
        <ele>821.7</ele>
        <time>2021-08-24T13:28:22.188Z</time>
      </trkpt>
      <trkpt lat="40.128240" lon="-0.467416">
        <ele>821.3</ele>
        <time>2021-08-24T13:28:24.316Z</time>
      </trkpt>
      <trkpt lat="40.128264" lon="-0.467335">
        <ele>821.0</ele>
        <time>2021-08-24T13:28:25.994Z</time>
      </trkpt>
      <trkpt lat="40.128417" lon="-0.467291">
        <ele>820.2</ele>
        <time>2021-08-24T13:28:29.968Z</time>
      </trkpt>
      <trkpt lat="40.128774" lon="-0.467041">
        <ele>819.7</ele>
        <time>2021-08-24T13:28:40.724Z</time>
      </trkpt>
      <trkpt lat="40.129146" lon="-0.466995">
        <ele>819.2</ele>
        <time>2021-08-24T13:28:51.771Z</time>
      </trkpt>
      <trkpt lat="40.129259" lon="-0.466805">
        <ele>818.9</ele>
        <time>2021-08-24T13:28:57.046Z</time>
      </trkpt>
      <trkpt lat="40.129309" lon="-0.466588">
        <ele>818.7</ele>
        <time>2021-08-24T13:29:02.633Z</time>
      </trkpt>
      <trkpt lat="40.129637" lon="-0.466270">
        <ele>818.2</ele>
        <time>2021-08-24T13:29:15.087Z</time>
      </trkpt>
      <trkpt lat="40.129947" lon="-0.466283">
        <ele>817.8</ele>
        <time>2021-08-24T13:29:24.821Z</time>
      </trkpt>
      <trkpt lat="40.130133" lon="-0.466214">
        <ele>817.5</ele>
        <time>2021-08-24T13:29:30.495Z</time>
      </trkpt>
      <trkpt lat="40.130207" lon="-0.466124">
        <ele>817.3</ele>
        <time>2021-08-24T13:29:34.500Z</time>
      </trkpt>
      <trkpt lat="40.130271" lon="-0.465897">
        <ele>817.0</ele>
        <time>2021-08-24T13:29:39.585Z</time>
      </trkpt>
      <trkpt lat="40.130204" lon="-0.465536">
        <ele>816.5</ele>
        <time>2021-08-24T13:29:47.869Z</time>
      </trkpt>
      <trkpt lat="40.130255" lon="-0.465374">
        <ele>816.3</ele>
        <time>2021-08-24T13:29:51.536Z</time>
      </trkpt>
      <trkpt lat="40.130209" lon="-0.465156">
        <ele>816.0</ele>
        <time>2021-08-24T13:29:56.537Z</time>
      </trkpt>
      <trkpt lat="40.130281" lon="-0.464923">
        <ele>815.7</ele>
        <time>2021-08-24T13:30:01.643Z</time>
      </trkpt>
      <trkpt lat="40.130292" lon="-0.464622">
        <ele>815.3</ele>
        <time>2021-08-24T13:30:07.920Z</time>
      </trkpt>
      <trkpt lat="40.130246" lon="-0.464557">
        <ele>815.2</ele>
        <time>2021-08-24T13:30:09.654Z</time>
      </trkpt>
      <trkpt lat="40.130182" lon="-0.464564">
        <ele>815.1</ele>
        <time>2021-08-24T13:30:11.338Z</time>
      </trkpt>
      <trkpt lat="40.129979" lon="-0.464883">
        <ele>814.3</ele>
        <time>2021-08-24T13:30:19.619Z</time>
      </trkpt>
      <trkpt lat="40.129846" lon="-0.464823">
        <ele>813.9</ele>
        <time>2021-08-24T13:30:23.192Z</time>
      </trkpt>
      <trkpt lat="40.129820" lon="-0.464747">
        <ele>813.7</ele>
        <time>2021-08-24T13:30:24.819Z</time>
      </trkpt>
      <trkpt lat="40.129898" lon="-0.464270">
        <ele>812.7</ele>
        <time>2021-08-24T13:30:34.404Z</time>
      </trkpt>
      <trkpt lat="40.130069" lon="-0.463663">
        <ele>811.2</ele>
        <time>2021-08-24T13:30:47.296Z</time>
      </trkpt>
      <trkpt lat="40.130101" lon="-0.463279">
        <ele>810.4</ele>
        <time>2021-08-24T13:30:55.063Z</time>
      </trkpt>
      <trkpt lat="40.130343" lon="-0.462654">
        <ele>809.1</ele>
        <time>2021-08-24T13:31:09.423Z</time>
      </trkpt>
      <trkpt lat="40.130756" lon="-0.462126">
        <ele>807.8</ele>
        <time>2021-08-24T13:31:25.227Z</time>
      </trkpt>
      <trkpt lat="40.131142" lon="-0.461779">
        <ele>806.8</ele>
        <time>2021-08-24T13:31:38.141Z</time>
      </trkpt>
      <trkpt lat="40.131443" lon="-0.461196">
        <ele>805.7</ele>
        <time>2021-08-24T13:31:52.919Z</time>
      </trkpt>
      <trkpt lat="40.131524" lon="-0.460418">
        <ele>804.5</ele>
        <time>2021-08-24T13:32:09.151Z</time>
      </trkpt>
      <trkpt lat="40.131698" lon="-0.459539">
        <ele>803.1</ele>
        <time>2021-08-24T13:32:27.924Z</time>
      </trkpt>
      <trkpt lat="40.131712" lon="-0.459261">
        <ele>802.7</ele>
        <time>2021-08-24T13:32:33.804Z</time>
      </trkpt>
      <trkpt lat="40.131595" lon="-0.458529">
        <ele>802.1</ele>
        <time>2021-08-24T13:32:49.960Z</time>
      </trkpt>
      <trkpt lat="40.131372" lon="-0.457775">
        <ele>801.7</ele>
        <time>2021-08-24T13:33:08.408Z</time>
      </trkpt>
      <trkpt lat="40.131068" lon="-0.457307">
        <ele>801.5</ele>
        <time>2021-08-24T13:33:24.316Z</time>
      </trkpt>
      <trkpt lat="40.130410" lon="-0.456564">
        <ele>801.1</ele>
        <time>2021-08-24T13:33:51.486Z</time>
      </trkpt>
      <trkpt lat="40.130477" lon="-0.456467">
        <ele>801.1</ele>
        <time>2021-08-24T13:33:54.622Z</time>
      </trkpt>
      <trkpt lat="40.130691" lon="-0.456391">
        <ele>801.0</ele>
        <time>2021-08-24T13:34:01.470Z</time>
      </trkpt>
      <trkpt lat="40.130796" lon="-0.456277">
        <ele>801.0</ele>
        <time>2021-08-24T13:34:05.603Z</time>
      </trkpt>
      <trkpt lat="40.130729" lon="-0.456111">
        <ele>800.9</ele>
        <time>2021-08-24T13:34:09.644Z</time>
      </trkpt>
      <trkpt lat="40.130698" lon="-0.456034">
        <ele>800.9</ele>
        <time>2021-08-24T13:34:11.459Z</time>
      </trkpt>
      <trkpt lat="40.130567" lon="-0.455632">
        <ele>800.8</ele>
        <time>2021-08-24T13:34:21.570Z</time>
      </trkpt>
      <trkpt lat="40.131034" lon="-0.455011">
        <ele>801.6</ele>
        <time>2021-08-24T13:34:43.119Z</time>
      </trkpt>
      <trkpt lat="40.131134" lon="-0.454726">
        <ele>802.2</ele>
        <time>2021-08-24T13:34:52.164Z</time>
      </trkpt>
      <trkpt lat="40.131118" lon="-0.454606">
        <ele>802.4</ele>
        <time>2021-08-24T13:34:54.875Z</time>
      </trkpt>
      <trkpt lat="40.131084" lon="-0.454555">
        <ele>802.5</ele>
        <time>2021-08-24T13:34:57.005Z</time>
      </trkpt>
      <trkpt lat="40.130796" lon="-0.454357">
        <ele>798.8</ele>
        <time>2021-08-24T13:34:59.671Z</time>
      </trkpt>
      <trkpt lat="40.131243" lon="-0.453876">
        <ele>800.0</ele>
        <time>2021-08-24T13:35:27.979Z</time>
      </trkpt>
      <trkpt lat="40.131438" lon="-0.452779">
        <ele>808.4</ele>
        <time>2021-08-24T13:36:10.222Z</time>
      </trkpt>
      <trkpt lat="40.131324" lon="-0.451986">
        <ele>813.3</ele>
        <time>2021-08-24T13:36:56.733Z</time>
      </trkpt>
      <trkpt lat="40.131683" lon="-0.450340">
        <ele>825.1</ele>
        <time>2021-08-24T13:38:44.145Z</time>
      </trkpt>
      <trkpt lat="40.131788" lon="-0.449572">
        <ele>831.3</ele>
        <time>2021-08-24T13:39:36.119Z</time>
      </trkpt>
      <trkpt lat="40.131971" lon="-0.449464">
        <ele>833.1</ele>
        <time>2021-08-24T13:39:51.657Z</time>
      </trkpt>
      <trkpt lat="40.132697" lon="-0.449118">
        <ele>835.8</ele>
        <time>2021-08-24T13:40:13.545Z</time>
      </trkpt>
      <trkpt lat="40.132504" lon="-0.448724">
        <ele>837.9</ele>
        <time>2021-08-24T13:40:31.117Z</time>
      </trkpt>
      <trkpt lat="40.132275" lon="-0.448455">
        <ele>841.5</ele>
        <time>2021-08-24T13:41:11.574Z</time>
      </trkpt>
      <trkpt lat="40.132166" lon="-0.448254">
        <ele>848.1</ele>
        <time>2021-08-24T13:41:23.839Z</time>
      </trkpt>
      <trkpt lat="40.132098" lon="-0.447988">
        <ele>844.1</ele>
        <time>2021-08-24T13:41:38.165Z</time>
      </trkpt>
      <trkpt lat="40.132109" lon="-0.447859">
        <ele>844.8</ele>
        <time>2021-08-24T13:41:45.181Z</time>
      </trkpt>
      <trkpt lat="40.131996" lon="-0.447762">
        <ele>845.7</ele>
        <time>2021-08-24T13:41:54.033Z</time>
      </trkpt>
      <trkpt lat="40.131745" lon="-0.447799">
        <ele>847.4</ele>
        <time>2021-08-24T13:42:09.716Z</time>
      </trkpt>
      <trkpt lat="40.130604" lon="-0.448400">
        <ele>852.6</ele>
        <time>2021-08-24T13:43:07.785Z</time>
      </trkpt>
      <trkpt lat="40.130434" lon="-0.448537">
        <ele>853.2</ele>
        <time>2021-08-24T13:43:15.775Z</time>
      </trkpt>
      <trkpt lat="40.130288" lon="-0.448797">
        <ele>853.9</ele>
        <time>2021-08-24T13:43:24.882Z</time>
      </trkpt>
      <trkpt lat="40.130160" lon="-0.449231">
        <ele>854.8</ele>
        <time>2021-08-24T13:43:39.570Z</time>
      </trkpt>
      <trkpt lat="40.130001" lon="-0.449491">
        <ele>855.7</ele>
        <time>2021-08-24T13:43:51.497Z</time>
      </trkpt>
      <trkpt lat="40.129927" lon="-0.449504">
        <ele>856.3</ele>
        <time>2021-08-24T13:43:55.171Z</time>
      </trkpt>
      <trkpt lat="40.129879" lon="-0.449406">
        <ele>856.9</ele>
        <time>2021-08-24T13:43:59.786Z</time>
      </trkpt>
      <trkpt lat="40.129911" lon="-0.449065">
        <ele>858.7</ele>
        <time>2021-08-24T13:44:13.918Z</time>
      </trkpt>
      <trkpt lat="40.130067" lon="-0.448306">
        <ele>862.9</ele>
        <time>2021-08-24T13:44:51.706Z</time>
      </trkpt>
      <trkpt lat="40.130427" lon="-0.446963">
        <ele>872.0</ele>
        <time>2021-08-24T13:46:19.736Z</time>
      </trkpt>
      <trkpt lat="40.130518" lon="-0.446689">
        <ele>874.6</ele>
        <time>2021-08-24T13:46:40.598Z</time>
      </trkpt>
      <trkpt lat="40.130709" lon="-0.446336">
        <ele>878.4</ele>
        <time>2021-08-24T13:47:11.195Z</time>
      </trkpt>
      <trkpt lat="40.131508" lon="-0.445274">
        <ele>891.0</ele>
        <time>2021-08-24T13:48:55.532Z</time>
      </trkpt>
      <trkpt lat="40.132392" lon="-0.445187">
        <ele>899.9</ele>
        <time>2021-08-24T13:50:10.989Z</time>
      </trkpt>
      <trkpt lat="40.133053" lon="-0.445208">
        <ele>906.6</ele>
        <time>2021-08-24T13:51:02.030Z</time>
      </trkpt>
      <trkpt lat="40.133183" lon="-0.445150">
        <ele>907.4</ele>
        <time>2021-08-24T13:51:12.001Z</time>
      </trkpt>
      <trkpt lat="40.133495" lon="-0.444256">
        <ele>911.9</ele>
        <time>2021-08-24T13:52:02.667Z</time>
      </trkpt>
      <trkpt lat="40.133673" lon="-0.444060">
        <ele>913.3</ele>
        <time>2021-08-24T13:52:16.708Z</time>
      </trkpt>
      <trkpt lat="40.133667" lon="-0.443902">
        <ele>914.1</ele>
        <time>2021-08-24T13:52:23.874Z</time>
      </trkpt>
      <trkpt lat="40.133438" lon="-0.443740">
        <ele>915.7</ele>
        <time>2021-08-24T13:52:38.219Z</time>
      </trkpt>
      <trkpt lat="40.132929" lon="-0.442884">
        <ele>918.3</ele>
        <time>2021-08-24T13:53:18.532Z</time>
      </trkpt>
      <trkpt lat="40.132615" lon="-0.441940">
        <ele>919.6</ele>
        <time>2021-08-24T13:53:49.894Z</time>
      </trkpt>
      <trkpt lat="40.132802" lon="-0.441283">
        <ele>920.2</ele>
        <time>2021-08-24T13:54:07.237Z</time>
      </trkpt>
      <trkpt lat="40.132869" lon="-0.440876">
        <ele>919.4</ele>
        <time>2021-08-24T13:54:16.417Z</time>
      </trkpt>
      <trkpt lat="40.132901" lon="-0.440094">
        <ele>917.9</ele>
        <time>2021-08-24T13:54:32.474Z</time>
      </trkpt>
      <trkpt lat="40.132886" lon="-0.439464">
        <ele>916.8</ele>
        <time>2021-08-24T13:54:44.911Z</time>
      </trkpt>
      <trkpt lat="40.133683" lon="-0.439862">
        <ele>914.1</ele>
        <time>2021-08-24T13:54:56.662Z</time>
      </trkpt>
      <trkpt lat="40.134159" lon="-0.440074">
        <ele>912.4</ele>
        <time>2021-08-24T13:55:03.490Z</time>
      </trkpt>
      <trkpt lat="40.134478" lon="-0.440434">
        <ele>897.8</ele>
        <time>2021-08-24T13:55:13.540Z</time>
      </trkpt>
      <trkpt lat="40.134489" lon="-0.440343">
        <ele>909.9</ele>
        <time>2021-08-24T13:55:13.771Z</time>
      </trkpt>
      <trkpt lat="40.134547" lon="-0.440255">
        <ele>896.9</ele>
        <time>2021-08-24T13:55:19.574Z</time>
      </trkpt>
      <trkpt lat="40.134344" lon="-0.439791">
        <ele>909.4</ele>
        <time>2021-08-24T13:55:36.514Z</time>
      </trkpt>
      <trkpt lat="40.134031" lon="-0.439289">
        <ele>909.3</ele>
        <time>2021-08-24T13:55:52.457Z</time>
      </trkpt>
      <trkpt lat="40.133719" lon="-0.439018">
        <ele>909.1</ele>
        <time>2021-08-24T13:56:05.555Z</time>
      </trkpt>
      <trkpt lat="40.133703" lon="-0.438516">
        <ele>909.3</ele>
        <time>2021-08-24T13:56:20.663Z</time>
      </trkpt>
      <trkpt lat="40.133654" lon="-0.438362">
        <ele>909.4</ele>
        <time>2021-08-24T13:56:25.688Z</time>
      </trkpt>
      <trkpt lat="40.132985" lon="-0.436796">
        <ele>910.8</ele>
        <time>2021-08-24T13:57:17.089Z</time>
      </trkpt>
      <trkpt lat="40.132945" lon="-0.436585">
        <ele>910.8</ele>
        <time>2021-08-24T13:57:22.788Z</time>
      </trkpt>
      <trkpt lat="40.132954" lon="-0.436221">
        <ele>910.5</ele>
        <time>2021-08-24T13:57:32.112Z</time>
      </trkpt>
      <trkpt lat="40.133078" lon="-0.435804">
        <ele>910.2</ele>
        <time>2021-08-24T13:57:43.112Z</time>
      </trkpt>
      <trkpt lat="40.133078" lon="-0.435804">
        <ele>910.2</ele>
        <time>2021-08-24T13:57:43.126Z</time>
      </trkpt>
      <trkpt lat="40.133031" lon="-0.435480">
        <ele>909.9</ele>
        <time>2021-08-24T13:57:51.084Z</time>
      </trkpt>
      <trkpt lat="40.133128" lon="-0.434678">
        <ele>909.2</ele>
        <time>2021-08-24T13:58:08.118Z</time>
      </trkpt>
      <trkpt lat="40.133109" lon="-0.434545">
        <ele>909.1</ele>
        <time>2021-08-24T13:58:10.859Z</time>
      </trkpt>
      <trkpt lat="40.132806" lon="-0.434116">
        <ele>907.4</ele>
        <time>2021-08-24T13:58:22.412Z</time>
      </trkpt>
      <trkpt lat="40.132654" lon="-0.433788">
        <ele>905.8</ele>
        <time>2021-08-24T13:58:29.620Z</time>
      </trkpt>
      <trkpt lat="40.132589" lon="-0.433731">
        <ele>905.4</ele>
        <time>2021-08-24T13:58:31.576Z</time>
      </trkpt>
      <trkpt lat="40.132527" lon="-0.433444">
        <ele>904.2</ele>
        <time>2021-08-24T13:58:36.959Z</time>
      </trkpt>
      <trkpt lat="40.132406" lon="-0.432388">
        <ele>899.9</ele>
        <time>2021-08-24T13:58:55.923Z</time>
      </trkpt>
      <trkpt lat="40.132478" lon="-0.432011">
        <ele>897.9</ele>
        <time>2021-08-24T13:59:02.595Z</time>
      </trkpt>
      <trkpt lat="40.132561" lon="-0.431894">
        <ele>897.0</ele>
        <time>2021-08-24T13:59:05.381Z</time>
      </trkpt>
      <trkpt lat="40.132567" lon="-0.431388">
        <ele>894.2</ele>
        <time>2021-08-24T13:59:14.029Z</time>
      </trkpt>
      <trkpt lat="40.132725" lon="-0.431250">
        <ele>892.8</ele>
        <time>2021-08-24T13:59:18.333Z</time>
      </trkpt>
      <trkpt lat="40.132765" lon="-0.431116">
        <ele>892.0</ele>
        <time>2021-08-24T13:59:20.835Z</time>
      </trkpt>
      <trkpt lat="40.132607" lon="-0.430355">
        <ele>887.7</ele>
        <time>2021-08-24T13:59:34.462Z</time>
      </trkpt>
      <trkpt lat="40.132468" lon="-0.429914">
        <ele>884.9</ele>
        <time>2021-08-24T13:59:42.707Z</time>
      </trkpt>
      <trkpt lat="40.132474" lon="-0.429222">
        <ele>880.9</ele>
        <time>2021-08-24T13:59:54.724Z</time>
      </trkpt>
      <trkpt lat="40.132546" lon="-0.429149">
        <ele>880.2</ele>
        <time>2021-08-24T13:59:56.769Z</time>
      </trkpt>
      <trkpt lat="40.132663" lon="-0.428789">
        <ele>878.0</ele>
        <time>2021-08-24T14:00:03.535Z</time>
      </trkpt>
      <trkpt lat="40.132654" lon="-0.428643">
        <ele>877.1</ele>
        <time>2021-08-24T14:00:06.036Z</time>
      </trkpt>
      <trkpt lat="40.132778" lon="-0.428251">
        <ele>874.7</ele>
        <time>2021-08-24T14:00:13.296Z</time>
      </trkpt>
      <trkpt lat="40.132830" lon="-0.427724">
        <ele>871.5</ele>
        <time>2021-08-24T14:00:22.293Z</time>
      </trkpt>
      <trkpt lat="40.132905" lon="-0.427457">
        <ele>869.6</ele>
        <time>2021-08-24T14:00:27.102Z</time>
      </trkpt>
      <trkpt lat="40.132871" lon="-0.427291">
        <ele>868.5</ele>
        <time>2021-08-24T14:00:29.988Z</time>
      </trkpt>
      <trkpt lat="40.132985" lon="-0.426749">
        <ele>864.8</ele>
        <time>2021-08-24T14:00:39.481Z</time>
      </trkpt>
      <trkpt lat="40.132929" lon="-0.426364">
        <ele>862.3</ele>
        <time>2021-08-24T14:00:46.124Z</time>
      </trkpt>
      <trkpt lat="40.132462" lon="-0.426231">
        <ele>858.2</ele>
        <time>2021-08-24T14:00:56.539Z</time>
      </trkpt>
      <trkpt lat="40.132326" lon="-0.425814">
        <ele>855.4</ele>
        <time>2021-08-24T14:01:04.133Z</time>
      </trkpt>
      <trkpt lat="40.132256" lon="-0.425628">
        <ele>853.2</ele>
        <time>2021-08-24T14:01:10.371Z</time>
      </trkpt>
      <trkpt lat="40.132360" lon="-0.425113">
        <ele>850.2</ele>
        <time>2021-08-24T14:01:18.971Z</time>
      </trkpt>
      <trkpt lat="40.132512" lon="-0.424968">
        <ele>833.6</ele>
        <time>2021-08-24T14:01:19.960Z</time>
      </trkpt>
      <trkpt lat="40.132680" lon="-0.424589">
        <ele>828.2</ele>
        <time>2021-08-24T14:01:21.353Z</time>
      </trkpt>
      <trkpt lat="40.132925" lon="-0.425041">
        <ele>848.8</ele>
        <time>2021-08-24T14:01:23.254Z</time>
      </trkpt>
      <trkpt lat="40.133025" lon="-0.425066">
        <ele>848.0</ele>
        <time>2021-08-24T14:01:24.510Z</time>
      </trkpt>
      <trkpt lat="40.133154" lon="-0.424988">
        <ele>846.9</ele>
        <time>2021-08-24T14:01:26.456Z</time>
      </trkpt>
      <trkpt lat="40.133208" lon="-0.424864">
        <ele>846.0</ele>
        <time>2021-08-24T14:01:27.957Z</time>
      </trkpt>
      <trkpt lat="40.133312" lon="-0.424314">
        <ele>842.9</ele>
        <time>2021-08-24T14:01:33.658Z</time>
      </trkpt>
      <trkpt lat="40.133330" lon="-0.423964">
        <ele>841.8</ele>
        <time>2021-08-24T14:01:37.471Z</time>
      </trkpt>
      <trkpt lat="40.133246" lon="-0.423454">
        <ele>840.0</ele>
        <time>2021-08-24T14:01:43.008Z</time>
      </trkpt>
      <trkpt lat="40.133236" lon="-0.423400">
        <ele>839.8</ele>
        <time>2021-08-24T14:01:43.519Z</time>
      </trkpt>
      <trkpt lat="40.133201" lon="-0.423279">
        <ele>839.4</ele>
        <time>2021-08-24T14:01:44.901Z</time>
      </trkpt>
      <trkpt lat="40.133126" lon="-0.422813">
        <ele>837.7</ele>
        <time>2021-08-24T14:01:50.577Z</time>
      </trkpt>
      <trkpt lat="40.133152" lon="-0.421351">
        <ele>834.2</ele>
        <time>2021-08-24T14:02:08.810Z</time>
      </trkpt>
      <trkpt lat="40.133169" lon="-0.421273">
        <ele>834.0</ele>
        <time>2021-08-24T14:02:10.086Z</time>
      </trkpt>
      <trkpt lat="40.133217" lon="-0.421227">
        <ele>833.9</ele>
        <time>2021-08-24T14:02:11.708Z</time>
      </trkpt>
      <trkpt lat="40.133328" lon="-0.421182">
        <ele>833.7</ele>
        <time>2021-08-24T14:02:13.986Z</time>
      </trkpt>
      <trkpt lat="40.133395" lon="-0.421163">
        <ele>833.5</ele>
        <time>2021-08-24T14:02:15.182Z</time>
      </trkpt>
      <trkpt lat="40.133460" lon="-0.421147">
        <ele>833.4</ele>
        <time>2021-08-24T14:02:16.489Z</time>
      </trkpt>
      <trkpt lat="40.133556" lon="-0.421040">
        <ele>833.1</ele>
        <time>2021-08-24T14:02:18.816Z</time>
      </trkpt>
      <trkpt lat="40.133599" lon="-0.420937">
        <ele>832.9</ele>
        <time>2021-08-24T14:02:20.299Z</time>
      </trkpt>
      <trkpt lat="40.133588" lon="-0.420858">
        <ele>832.8</ele>
        <time>2021-08-24T14:02:21.161Z</time>
      </trkpt>
      <trkpt lat="40.133643" lon="-0.420656">
        <ele>832.5</ele>
        <time>2021-08-24T14:02:23.996Z</time>
      </trkpt>
      <trkpt lat="40.134204" lon="-0.419865">
        <ele>829.7</ele>
        <time>2021-08-24T14:02:36.606Z</time>
      </trkpt>
      <trkpt lat="40.134213" lon="-0.419789">
        <ele>829.4</ele>
        <time>2021-08-24T14:02:37.456Z</time>
      </trkpt>
      <trkpt lat="40.134213" lon="-0.419789">
        <ele>829.4</ele>
        <time>2021-08-24T14:02:37.463Z</time>
      </trkpt>
      <trkpt lat="40.134217" lon="-0.419760">
        <ele>829.3</ele>
        <time>2021-08-24T14:02:37.734Z</time>
      </trkpt>
      <trkpt lat="40.134118" lon="-0.419564">
        <ele>828.5</ele>
        <time>2021-08-24T14:02:40.332Z</time>
      </trkpt>
      <trkpt lat="40.134113" lon="-0.419557">
        <ele>828.4</ele>
        <time>2021-08-24T14:02:40.424Z</time>
      </trkpt>
      <trkpt lat="40.134059" lon="-0.419476">
        <ele>828.1</ele>
        <time>2021-08-24T14:02:41.797Z</time>
      </trkpt>
      <trkpt lat="40.134001" lon="-0.419420">
        <ele>827.7</ele>
        <time>2021-08-24T14:02:42.786Z</time>
      </trkpt>
      <trkpt lat="40.133936" lon="-0.419358">
        <ele>827.4</ele>
        <time>2021-08-24T14:02:43.791Z</time>
      </trkpt>
      <trkpt lat="40.133848" lon="-0.419152">
        <ele>826.5</ele>
        <time>2021-08-24T14:02:46.717Z</time>
      </trkpt>
      <trkpt lat="40.133864" lon="-0.418569">
        <ele>824.4</ele>
        <time>2021-08-24T14:02:53.126Z</time>
      </trkpt>
      <trkpt lat="40.133860" lon="-0.418489">
        <ele>824.2</ele>
        <time>2021-08-24T14:02:53.869Z</time>
      </trkpt>
      <trkpt lat="40.133869" lon="-0.418422">
        <ele>823.9</ele>
        <time>2021-08-24T14:02:54.584Z</time>
      </trkpt>
      <trkpt lat="40.133978" lon="-0.418183">
        <ele>823.0</ele>
        <time>2021-08-24T14:02:57.971Z</time>
      </trkpt>
      <trkpt lat="40.134012" lon="-0.418111">
        <ele>822.7</ele>
        <time>2021-08-24T14:02:58.797Z</time>
      </trkpt>
      <trkpt lat="40.134036" lon="-0.418052">
        <ele>822.5</ele>
        <time>2021-08-24T14:02:59.437Z</time>
      </trkpt>
      <trkpt lat="40.134065" lon="-0.417966">
        <ele>822.2</ele>
        <time>2021-08-24T14:03:00.541Z</time>
      </trkpt>
      <trkpt lat="40.134080" lon="-0.417922">
        <ele>822.0</ele>
        <time>2021-08-24T14:03:01.097Z</time>
      </trkpt>
      <trkpt lat="40.134144" lon="-0.417915">
        <ele>821.8</ele>
        <time>2021-08-24T14:03:02.094Z</time>
      </trkpt>
      <trkpt lat="40.134331" lon="-0.417888">
        <ele>821.0</ele>
        <time>2021-08-24T14:03:04.600Z</time>
      </trkpt>
      <trkpt lat="40.134702" lon="-0.417687">
        <ele>819.3</ele>
        <time>2021-08-24T14:03:10.644Z</time>
      </trkpt>
      <trkpt lat="40.135319" lon="-0.417458">
        <ele>816.7</ele>
        <time>2021-08-24T14:03:20.506Z</time>
      </trkpt>
      <trkpt lat="40.135464" lon="-0.417435">
        <ele>816.1</ele>
        <time>2021-08-24T14:03:22.734Z</time>
      </trkpt>
      <trkpt lat="40.136048" lon="-0.417694">
        <ele>813.8</ele>
        <time>2021-08-24T14:03:32.014Z</time>
      </trkpt>
      <trkpt lat="40.136248" lon="-0.417697">
        <ele>813.1</ele>
        <time>2021-08-24T14:03:34.943Z</time>
      </trkpt>
      <trkpt lat="40.136535" lon="-0.417503">
        <ele>812.0</ele>
        <time>2021-08-24T14:03:39.696Z</time>
      </trkpt>
      <trkpt lat="40.136833" lon="-0.417490">
        <ele>810.9</ele>
        <time>2021-08-24T14:03:44.129Z</time>
      </trkpt>
      <trkpt lat="40.137219" lon="-0.417574">
        <ele>809.5</ele>
        <time>2021-08-24T14:03:50.064Z</time>
      </trkpt>
      <trkpt lat="40.137539" lon="-0.417569">
        <ele>808.7</ele>
        <time>2021-08-24T14:03:58.349Z</time>
      </trkpt>
      <trkpt lat="40.138047" lon="-0.417383">
        <ele>807.4</ele>
        <time>2021-08-24T14:04:12.054Z</time>
      </trkpt>
      <trkpt lat="40.138311" lon="-0.417556">
        <ele>806.7</ele>
        <time>2021-08-24T14:04:19.829Z</time>
      </trkpt>
      <trkpt lat="40.138468" lon="-0.417624">
        <ele>806.4</ele>
        <time>2021-08-24T14:04:24.130Z</time>
      </trkpt>
      <trkpt lat="40.138647" lon="-0.417702">
        <ele>805.9</ele>
        <time>2021-08-24T14:04:29.404Z</time>
      </trkpt>
      <trkpt lat="40.138972" lon="-0.418208">
        <ele>805.1</ele>
        <time>2021-08-24T14:04:44.330Z</time>
      </trkpt>
      <trkpt lat="40.139404" lon="-0.418328">
        <ele>805.1</ele>
        <time>2021-08-24T14:04:58.294Z</time>
      </trkpt>
      <trkpt lat="40.139852" lon="-0.418248">
        <ele>805.0</ele>
        <time>2021-08-24T14:05:13.209Z</time>
      </trkpt>
      <trkpt lat="40.140248" lon="-0.418048">
        <ele>805.0</ele>
        <time>2021-08-24T14:05:26.616Z</time>
      </trkpt>
      <trkpt lat="40.140462" lon="-0.418195">
        <ele>805.0</ele>
        <time>2021-08-24T14:05:34.529Z</time>
      </trkpt>
      <trkpt lat="40.140736" lon="-0.418660">
        <ele>804.6</ele>
        <time>2021-08-24T14:05:50.210Z</time>
      </trkpt>
      <trkpt lat="40.140807" lon="-0.419059">
        <ele>804.3</ele>
        <time>2021-08-24T14:06:01.253Z</time>
      </trkpt>
      <trkpt lat="40.140807" lon="-0.420442">
        <ele>803.4</ele>
        <time>2021-08-24T14:06:31.952Z</time>
      </trkpt>
      <trkpt lat="40.141031" lon="-0.420549">
        <ele>802.3</ele>
        <time>2021-08-24T14:06:38.044Z</time>
      </trkpt>
      <trkpt lat="40.141123" lon="-0.420469">
        <ele>801.7</ele>
        <time>2021-08-24T14:06:40.837Z</time>
      </trkpt>
      <trkpt lat="40.141529" lon="-0.418753">
        <ele>794.5</ele>
        <time>2021-08-24T14:07:13.097Z</time>
      </trkpt>
      <trkpt lat="40.141682" lon="-0.417317">
        <ele>787.2</ele>
        <time>2021-08-24T14:07:38.155Z</time>
      </trkpt>
      <trkpt lat="40.141631" lon="-0.416851">
        <ele>784.7</ele>
        <time>2021-08-24T14:07:46.358Z</time>
      </trkpt>
      <trkpt lat="40.141448" lon="-0.416306">
        <ele>781.7</ele>
        <time>2021-08-24T14:07:56.873Z</time>
      </trkpt>
      <trkpt lat="40.141448" lon="-0.416306">
        <ele>781.7</ele>
        <time>2021-08-24T14:07:56.898Z</time>
      </trkpt>
      <trkpt lat="40.141418" lon="-0.415335">
        <ele>779.7</ele>
        <time>2021-08-24T14:08:14.670Z</time>
      </trkpt>
      <trkpt lat="40.141540" lon="-0.414949">
        <ele>778.8</ele>
        <time>2021-08-24T14:08:23.385Z</time>
      </trkpt>
      <trkpt lat="40.141504" lon="-0.414431">
        <ele>777.7</ele>
        <time>2021-08-24T14:08:34.814Z</time>
      </trkpt>
      <trkpt lat="40.141555" lon="-0.414008">
        <ele>776.8</ele>
        <time>2021-08-24T14:08:45.909Z</time>
      </trkpt>
      <trkpt lat="40.141457" lon="-0.413782">
        <ele>777.6</ele>
        <time>2021-08-24T14:08:52.034Z</time>
      </trkpt>
      <trkpt lat="40.141525" lon="-0.413532">
        <ele>778.5</ele>
        <time>2021-08-24T14:09:02.174Z</time>
      </trkpt>
      <trkpt lat="40.141814" lon="-0.412913">
        <ele>780.7</ele>
        <time>2021-08-24T14:09:27.842Z</time>
      </trkpt>
      <trkpt lat="40.142088" lon="-0.412496">
        <ele>782.4</ele>
        <time>2021-08-24T14:09:53.314Z</time>
      </trkpt>
      <trkpt lat="40.142357" lon="-0.412431">
        <ele>783.6</ele>
        <time>2021-08-24T14:10:10.503Z</time>
      </trkpt>
      <trkpt lat="40.142711" lon="-0.412555">
        <ele>785.4</ele>
        <time>2021-08-24T14:10:37.817Z</time>
      </trkpt>
      <trkpt lat="40.142990" lon="-0.412418">
        <ele>787.1</ele>
        <time>2021-08-24T14:10:56.980Z</time>
      </trkpt>
      <trkpt lat="40.142955" lon="-0.412294">
        <ele>787.7</ele>
        <time>2021-08-24T14:11:03.294Z</time>
      </trkpt>
      <trkpt lat="40.142552" lon="-0.411994">
        <ele>790.4</ele>
        <time>2021-08-24T14:11:30.055Z</time>
      </trkpt>
      <trkpt lat="40.142477" lon="-0.411766">
        <ele>791.5</ele>
        <time>2021-08-24T14:11:41.046Z</time>
      </trkpt>
      <trkpt lat="40.142457" lon="-0.411199">
        <ele>794.0</ele>
        <time>2021-08-24T14:12:05.966Z</time>
      </trkpt>
      <trkpt lat="40.142263" lon="-0.410945">
        <ele>795.2</ele>
        <time>2021-08-24T14:12:21.726Z</time>
      </trkpt>
      <trkpt lat="40.142442" lon="-0.410404">
        <ele>796.9</ele>
        <time>2021-08-24T14:12:47.133Z</time>
      </trkpt>
      <trkpt lat="40.142422" lon="-0.410192">
        <ele>797.6</ele>
        <time>2021-08-24T14:12:55.463Z</time>
      </trkpt>
      <trkpt lat="40.142467" lon="-0.409993">
        <ele>798.2</ele>
        <time>2021-08-24T14:13:04.012Z</time>
      </trkpt>
      <trkpt lat="40.142334" lon="-0.410111">
        <ele>798.8</ele>
        <time>2021-08-24T14:13:11.814Z</time>
      </trkpt>
      <trkpt lat="40.142174" lon="-0.410159">
        <ele>799.4</ele>
        <time>2021-08-24T14:13:20.109Z</time>
      </trkpt>
      <trkpt lat="40.141844" lon="-0.410110">
        <ele>800.7</ele>
        <time>2021-08-24T14:13:35.355Z</time>
      </trkpt>
      <trkpt lat="40.141605" lon="-0.409804">
        <ele>801.5</ele>
        <time>2021-08-24T14:13:50.199Z</time>
      </trkpt>
      <trkpt lat="40.141695" lon="-0.409387">
        <ele>801.6</ele>
        <time>2021-08-24T14:14:04.333Z</time>
      </trkpt>
      <trkpt lat="40.141845" lon="-0.408704">
        <ele>801.8</ele>
        <time>2021-08-24T14:14:25.429Z</time>
      </trkpt>
      <trkpt lat="40.142104" lon="-0.408046">
        <ele>802.0</ele>
        <time>2021-08-24T14:14:42.355Z</time>
      </trkpt>
      <trkpt lat="40.142165" lon="-0.407368">
        <ele>800.8</ele>
        <time>2021-08-24T14:14:56.224Z</time>
      </trkpt>
      <trkpt lat="40.142022" lon="-0.406610">
        <ele>798.4</ele>
        <time>2021-08-24T14:15:10.894Z</time>
      </trkpt>
      <trkpt lat="40.141850" lon="-0.406264">
        <ele>797.1</ele>
        <time>2021-08-24T14:15:18.486Z</time>
      </trkpt>
      <trkpt lat="40.142165" lon="-0.405958">
        <ele>795.5</ele>
        <time>2021-08-24T14:15:27.892Z</time>
      </trkpt>
      <trkpt lat="40.142277" lon="-0.405280">
        <ele>793.9</ele>
        <time>2021-08-24T14:15:40.646Z</time>
      </trkpt>
      <trkpt lat="40.142874" lon="-0.403834">
        <ele>790.7</ele>
        <time>2021-08-24T14:16:13.830Z</time>
      </trkpt>
      <trkpt lat="40.143253" lon="-0.403467">
        <ele>790.8</ele>
        <time>2021-08-24T14:16:30.515Z</time>
      </trkpt>
      <trkpt lat="40.143359" lon="-0.402971">
        <ele>791.7</ele>
        <time>2021-08-24T14:16:47.005Z</time>
      </trkpt>
      <trkpt lat="40.143533" lon="-0.402446">
        <ele>792.8</ele>
        <time>2021-08-24T14:17:07.390Z</time>
      </trkpt>
      <trkpt lat="40.143866" lon="-0.402109">
        <ele>793.8</ele>
        <time>2021-08-24T14:17:28.844Z</time>
      </trkpt>
      <trkpt lat="40.144064" lon="-0.401772">
        <ele>794.5</ele>
        <time>2021-08-24T14:17:45.840Z</time>
      </trkpt>
      <trkpt lat="40.143973" lon="-0.401355">
        <ele>795.1</ele>
        <time>2021-08-24T14:18:02.675Z</time>
      </trkpt>
      <trkpt lat="40.143776" lon="-0.401068">
        <ele>795.6</ele>
        <time>2021-08-24T14:18:16.835Z</time>
      </trkpt>
      <trkpt lat="40.143798" lon="-0.400136">
        <ele>796.8</ele>
        <time>2021-08-24T14:18:45.592Z</time>
      </trkpt>
      <trkpt lat="40.144071" lon="-0.399948">
        <ele>797.3</ele>
        <time>2021-08-24T14:18:55.363Z</time>
      </trkpt>
      <trkpt lat="40.144253" lon="-0.399620">
        <ele>797.1</ele>
        <time>2021-08-24T14:19:03.961Z</time>
      </trkpt>
      <trkpt lat="40.144526" lon="-0.399333">
        <ele>796.7</ele>
        <time>2021-08-24T14:19:13.087Z</time>
      </trkpt>
      <trkpt lat="40.144859" lon="-0.399234">
        <ele>796.2</ele>
        <time>2021-08-24T14:19:21.856Z</time>
      </trkpt>
      <trkpt lat="40.144208" lon="-0.399006">
        <ele>795.3</ele>
        <time>2021-08-24T14:19:40.890Z</time>
      </trkpt>
      <trkpt lat="40.144141" lon="-0.398821">
        <ele>795.1</ele>
        <time>2021-08-24T14:19:44.645Z</time>
      </trkpt>
      <trkpt lat="40.144094" lon="-0.398689">
        <ele>795.2</ele>
        <time>2021-08-24T14:19:50.169Z</time>
      </trkpt>
      <trkpt lat="40.143904" lon="-0.398312">
        <ele>796.9</ele>
        <time>2021-08-24T14:20:05.336Z</time>
      </trkpt>
      <trkpt lat="40.143833" lon="-0.398037">
        <ele>798.0</ele>
        <time>2021-08-24T14:20:14.154Z</time>
      </trkpt>
      <trkpt lat="40.143882" lon="-0.397993">
        <ele>798.3</ele>
        <time>2021-08-24T14:20:17.279Z</time>
      </trkpt>
      <trkpt lat="40.143929" lon="-0.397963">
        <ele>798.6</ele>
        <time>2021-08-24T14:20:21.684Z</time>
      </trkpt>
      <trkpt lat="40.143940" lon="-0.397949">
        <ele>798.7</ele>
        <time>2021-08-24T14:20:23.351Z</time>
      </trkpt>
      <trkpt lat="40.143978" lon="-0.397901">
        <ele>798.9</ele>
        <time>2021-08-24T14:20:29.519Z</time>
      </trkpt>
      <trkpt lat="40.144101" lon="-0.397566">
        <ele>800.3</ele>
        <time>2021-08-24T14:20:41.758Z</time>
      </trkpt>
      <trkpt lat="40.144105" lon="-0.397515">
        <ele>800.5</ele>
        <time>2021-08-24T14:20:46.186Z</time>
      </trkpt>
      <trkpt lat="40.144107" lon="-0.397485">
        <ele>800.7</ele>
        <time>2021-08-24T14:20:49.529Z</time>
      </trkpt>
      <trkpt lat="40.144107" lon="-0.397174">
        <ele>801.8</ele>
        <time>2021-08-24T14:20:58.967Z</time>
      </trkpt>
      <trkpt lat="40.144199" lon="-0.397006">
        <ele>802.6</ele>
        <time>2021-08-24T14:21:15.036Z</time>
      </trkpt>
      <trkpt lat="40.144242" lon="-0.396783">
        <ele>803.5</ele>
        <time>2021-08-24T14:21:23.731Z</time>
      </trkpt>
      <trkpt lat="40.144240" lon="-0.396728">
        <ele>803.7</ele>
        <time>2021-08-24T14:21:27.722Z</time>
      </trkpt>
      <trkpt lat="40.144220" lon="-0.396653">
        <ele>804.0</ele>
        <time>2021-08-24T14:21:34.337Z</time>
      </trkpt>
      <trkpt lat="40.144114" lon="-0.396162">
        <ele>806.7</ele>
        <time>2021-08-24T14:22:06.917Z</time>
      </trkpt>
      <trkpt lat="40.144104" lon="-0.395725">
        <ele>808.9</ele>
        <time>2021-08-24T14:22:32.560Z</time>
      </trkpt>
      <trkpt lat="40.143981" lon="-0.395435">
        <ele>810.6</ele>
        <time>2021-08-24T14:22:48.890Z</time>
      </trkpt>
      <trkpt lat="40.143988" lon="-0.395169">
        <ele>811.9</ele>
        <time>2021-08-24T14:23:04.362Z</time>
      </trkpt>
      <trkpt lat="40.144128" lon="-0.394783">
        <ele>814.1</ele>
        <time>2021-08-24T14:23:24.714Z</time>
      </trkpt>
      <trkpt lat="40.143930" lon="-0.394664">
        <ele>815.6</ele>
        <time>2021-08-24T14:23:33.293Z</time>
      </trkpt>
      <trkpt lat="40.143825" lon="-0.394515">
        <ele>816.0</ele>
        <time>2021-08-24T14:23:39.983Z</time>
      </trkpt>
      <trkpt lat="40.143860" lon="-0.394258">
        <ele>815.9</ele>
        <time>2021-08-24T14:23:47.057Z</time>
      </trkpt>
      <trkpt lat="40.143838" lon="-0.393993">
        <ele>815.9</ele>
        <time>2021-08-24T14:23:55.050Z</time>
      </trkpt>
      <trkpt lat="40.143927" lon="-0.393788">
        <ele>815.8</ele>
        <time>2021-08-24T14:24:00.723Z</time>
      </trkpt>
      <trkpt lat="40.143959" lon="-0.393564">
        <ele>815.8</ele>
        <time>2021-08-24T14:24:06.960Z</time>
      </trkpt>
      <trkpt lat="40.143969" lon="-0.393450">
        <ele>815.8</ele>
        <time>2021-08-24T14:24:09.684Z</time>
      </trkpt>
      <trkpt lat="40.144158" lon="-0.393074">
        <ele>815.7</ele>
        <time>2021-08-24T14:24:19.969Z</time>
      </trkpt>
      <trkpt lat="40.144101" lon="-0.393029">
        <ele>815.7</ele>
        <time>2021-08-24T14:24:21.674Z</time>
      </trkpt>
      <trkpt lat="40.143738" lon="-0.392730">
        <ele>815.6</ele>
        <time>2021-08-24T14:24:33.448Z</time>
      </trkpt>
      <trkpt lat="40.143707" lon="-0.392610">
        <ele>815.1</ele>
        <time>2021-08-24T14:24:36.014Z</time>
      </trkpt>
      <trkpt lat="40.143726" lon="-0.392077">
        <ele>812.7</ele>
        <time>2021-08-24T14:24:46.258Z</time>
      </trkpt>
      <trkpt lat="40.143865" lon="-0.391850">
        <ele>811.5</ele>
        <time>2021-08-24T14:24:51.562Z</time>
      </trkpt>
      <trkpt lat="40.144464" lon="-0.391592">
        <ele>807.8</ele>
        <time>2021-08-24T14:25:06.399Z</time>
      </trkpt>
      <trkpt lat="40.144520" lon="-0.391664">
        <ele>807.3</ele>
        <time>2021-08-24T14:25:08.203Z</time>
      </trkpt>
      <trkpt lat="40.144513" lon="-0.391772">
        <ele>806.9</ele>
        <time>2021-08-24T14:25:10.074Z</time>
      </trkpt>
      <trkpt lat="40.144430" lon="-0.391882">
        <ele>806.2</ele>
        <time>2021-08-24T14:25:12.700Z</time>
      </trkpt>
      <trkpt lat="40.144300" lon="-0.392299">
        <ele>803.1</ele>
        <time>2021-08-24T14:25:20.213Z</time>
      </trkpt>
      <trkpt lat="40.144330" lon="-0.392426">
        <ele>801.8</ele>
        <time>2021-08-24T14:25:22.393Z</time>
      </trkpt>
      <trkpt lat="40.144405" lon="-0.392477">
        <ele>800.7</ele>
        <time>2021-08-24T14:25:24.197Z</time>
      </trkpt>
      <trkpt lat="40.144833" lon="-0.392491">
        <ele>795.3</ele>
        <time>2021-08-24T14:25:33.148Z</time>
      </trkpt>
      <trkpt lat="40.145919" lon="-0.392299">
        <ele>781.6</ele>
        <time>2021-08-24T14:25:55.439Z</time>
      </trkpt>
      <trkpt lat="40.146165" lon="-0.391989">
        <ele>777.4</ele>
        <time>2021-08-24T14:26:02.366Z</time>
      </trkpt>
      <trkpt lat="40.146263" lon="-0.391635">
        <ele>773.8</ele>
        <time>2021-08-24T14:26:08.206Z</time>
      </trkpt>
      <trkpt lat="40.146474" lon="-0.391351">
        <ele>770.1</ele>
        <time>2021-08-24T14:26:14.411Z</time>
      </trkpt>
      <trkpt lat="40.146605" lon="-0.391272">
        <ele>768.3</ele>
        <time>2021-08-24T14:26:17.348Z</time>
      </trkpt>
      <trkpt lat="40.146820" lon="-0.391282">
        <ele>765.7</ele>
        <time>2021-08-24T14:26:21.982Z</time>
      </trkpt>
      <trkpt lat="40.147467" lon="-0.390865">
        <ele>758.4</ele>
        <time>2021-08-24T14:26:37.748Z</time>
      </trkpt>
      <trkpt lat="40.147496" lon="-0.390758">
        <ele>757.8</ele>
        <time>2021-08-24T14:26:39.717Z</time>
      </trkpt>
      <trkpt lat="40.147447" lon="-0.390703">
        <ele>757.3</ele>
        <time>2021-08-24T14:26:41.056Z</time>
      </trkpt>
      <trkpt lat="40.147283" lon="-0.390747">
        <ele>756.2</ele>
        <time>2021-08-24T14:26:45.123Z</time>
      </trkpt>
      <trkpt lat="40.146387" lon="-0.390607">
        <ele>750.0</ele>
        <time>2021-08-24T14:27:06.166Z</time>
      </trkpt>
      <trkpt lat="40.146119" lon="-0.390804">
        <ele>747.8</ele>
        <time>2021-08-24T14:27:13.542Z</time>
      </trkpt>
      <trkpt lat="40.146103" lon="-0.390618">
        <ele>746.2</ele>
        <time>2021-08-24T14:27:16.753Z</time>
      </trkpt>
      <trkpt lat="40.146296" lon="-0.390363">
        <ele>743.3</ele>
        <time>2021-08-24T14:27:23.153Z</time>
      </trkpt>
      <trkpt lat="40.146431" lon="-0.390290">
        <ele>741.8</ele>
        <time>2021-08-24T14:27:26.449Z</time>
      </trkpt>
      <trkpt lat="40.146447" lon="-0.390176">
        <ele>740.8</ele>
        <time>2021-08-24T14:27:28.446Z</time>
      </trkpt>
      <trkpt lat="40.146350" lon="-0.389560">
        <ele>735.7</ele>
        <time>2021-08-24T14:27:38.507Z</time>
      </trkpt>
      <trkpt lat="40.146372" lon="-0.389298">
        <ele>733.6</ele>
        <time>2021-08-24T14:27:42.710Z</time>
      </trkpt>
      <trkpt lat="40.146484" lon="-0.388892">
        <ele>730.1</ele>
        <time>2021-08-24T14:27:49.430Z</time>
      </trkpt>
      <trkpt lat="40.146628" lon="-0.388905">
        <ele>728.4</ele>
        <time>2021-08-24T14:27:52.266Z</time>
      </trkpt>
      <trkpt lat="40.146934" lon="-0.389211">
        <ele>723.1</ele>
        <time>2021-08-24T14:28:00.122Z</time>
      </trkpt>
      <trkpt lat="40.147042" lon="-0.389230">
        <ele>721.6</ele>
        <time>2021-08-24T14:28:02.472Z</time>
      </trkpt>
      <trkpt lat="40.147203" lon="-0.389110">
        <ele>719.1</ele>
        <time>2021-08-24T14:28:06.222Z</time>
      </trkpt>
      <trkpt lat="40.147241" lon="-0.389098">
        <ele>718.5</ele>
        <time>2021-08-24T14:28:06.997Z</time>
      </trkpt>
      <trkpt lat="40.147360" lon="-0.389172">
        <ele>716.7</ele>
        <time>2021-08-24T14:28:09.833Z</time>
      </trkpt>
      <trkpt lat="40.148208" lon="-0.389192">
        <ele>705.0</ele>
        <time>2021-08-24T14:28:27.162Z</time>
      </trkpt>
      <trkpt lat="40.148756" lon="-0.389049">
        <ele>699.2</ele>
        <time>2021-08-24T14:28:38.701Z</time>
      </trkpt>
      <trkpt lat="40.149052" lon="-0.389107">
        <ele>696.3</ele>
        <time>2021-08-24T14:28:45.396Z</time>
      </trkpt>
      <trkpt lat="40.149201" lon="-0.389190">
        <ele>694.7</ele>
        <time>2021-08-24T14:28:49.001Z</time>
      </trkpt>
      <trkpt lat="40.149322" lon="-0.389416">
        <ele>692.6</ele>
        <time>2021-08-24T14:28:53.692Z</time>
      </trkpt>
      <trkpt lat="40.149752" lon="-0.389623">
        <ele>688.0</ele>
        <time>2021-08-24T14:29:03.777Z</time>
      </trkpt>
      <trkpt lat="40.149984" lon="-0.389659">
        <ele>685.7</ele>
        <time>2021-08-24T14:29:08.878Z</time>
      </trkpt>
      <trkpt lat="40.150190" lon="-0.389838">
        <ele>683.4</ele>
        <time>2021-08-24T14:29:14.258Z</time>
      </trkpt>
      <trkpt lat="40.150367" lon="-0.389779">
        <ele>681.7</ele>
        <time>2021-08-24T14:29:18.209Z</time>
      </trkpt>
      <trkpt lat="40.150584" lon="-0.389804">
        <ele>679.7</ele>
        <time>2021-08-24T14:29:22.953Z</time>
      </trkpt>
      <trkpt lat="40.150843" lon="-0.390277">
        <ele>675.5</ele>
        <time>2021-08-24T14:29:32.612Z</time>
      </trkpt>
      <trkpt lat="40.151223" lon="-0.389943">
        <ele>671.2</ele>
        <time>2021-08-24T14:29:42.459Z</time>
      </trkpt>
      <trkpt lat="40.151465" lon="-0.389836">
        <ele>668.7</ele>
        <time>2021-08-24T14:29:47.984Z</time>
      </trkpt>
      <trkpt lat="40.151913" lon="-0.389752">
        <ele>664.3</ele>
        <time>2021-08-24T14:29:57.787Z</time>
      </trkpt>
      <trkpt lat="40.152584" lon="-0.390077">
        <ele>657.4</ele>
        <time>2021-08-24T14:30:13.257Z</time>
      </trkpt>
      <trkpt lat="40.153065" lon="-0.390507">
        <ele>651.7</ele>
        <time>2021-08-24T14:30:25.838Z</time>
      </trkpt>
      <trkpt lat="40.153282" lon="-0.390591">
        <ele>649.1</ele>
        <time>2021-08-24T14:30:30.652Z</time>
      </trkpt>
      <trkpt lat="40.153317" lon="-0.390628">
        <ele>648.5</ele>
        <time>2021-08-24T14:30:31.693Z</time>
      </trkpt>
      <trkpt lat="40.153548" lon="-0.390877">
        <ele>645.0</ele>
        <time>2021-08-24T14:30:38.064Z</time>
      </trkpt>
      <trkpt lat="40.153692" lon="-0.390949">
        <ele>643.2</ele>
        <time>2021-08-24T14:30:41.448Z</time>
      </trkpt>
      <trkpt lat="40.154109" lon="-0.390910">
        <ele>638.3</ele>
        <time>2021-08-24T14:30:50.451Z</time>
      </trkpt>
      <trkpt lat="40.154268" lon="-0.390788">
        <ele>636.1</ele>
        <time>2021-08-24T14:30:54.001Z</time>
      </trkpt>
      <trkpt lat="40.154393" lon="-0.390799">
        <ele>634.7</ele>
        <time>2021-08-24T14:30:55.550Z</time>
      </trkpt>
      <trkpt lat="40.154529" lon="-0.390883">
        <ele>632.9</ele>
        <time>2021-08-24T14:30:57.207Z</time>
      </trkpt>
      <trkpt lat="40.154754" lon="-0.391045">
        <ele>630.1</ele>
        <time>2021-08-24T14:31:00.276Z</time>
      </trkpt>
      <trkpt lat="40.155131" lon="-0.391418">
        <ele>652.8</ele>
        <time>2021-08-24T14:31:07.010Z</time>
      </trkpt>
      <trkpt lat="40.155439" lon="-0.391433">
        <ele>660.5</ele>
        <time>2021-08-24T14:31:12.833Z</time>
      </trkpt>
      <trkpt lat="40.155666" lon="-0.391354">
        <ele>662.8</ele>
        <time>2021-08-24T14:31:16.927Z</time>
      </trkpt>
      <trkpt lat="40.155904" lon="-0.391102">
        <ele>663.8</ele>
        <time>2021-08-24T14:32:29.908Z</time>
      </trkpt>
      <trkpt lat="40.155942" lon="-0.390336">
        <ele>595.5</ele>
        <time>2021-08-24T14:32:32.999Z</time>
      </trkpt>
      <trkpt lat="40.156224" lon="-0.389942">
        <ele>623.4</ele>
        <time>2021-08-24T14:32:34.756Z</time>
      </trkpt>
      <trkpt lat="40.156527" lon="-0.390063">
        <ele>606.8</ele>
        <time>2021-08-24T14:32:36.033Z</time>
      </trkpt>
      <trkpt lat="40.156634" lon="-0.390286">
        <ele>672.3</ele>
        <time>2021-08-24T14:32:38.300Z</time>
      </trkpt>
      <trkpt lat="40.156775" lon="-0.390101">
        <ele>674.7</ele>
        <time>2021-08-24T14:32:39.032Z</time>
      </trkpt>
      <trkpt lat="40.157410" lon="-0.387683">
        <ele>662.9</ele>
        <time>2021-08-24T14:32:46.158Z</time>
      </trkpt>
      <trkpt lat="40.157032" lon="-0.386978">
        <ele>620.9</ele>
        <time>2021-08-24T14:32:48.921Z</time>
      </trkpt>
      <trkpt lat="40.156987" lon="-0.386597">
        <ele>645.3</ele>
        <time>2021-08-24T14:32:50.259Z</time>
      </trkpt>
      <trkpt lat="40.156784" lon="-0.386868">
        <ele>613.5</ele>
        <time>2021-08-24T14:32:51.742Z</time>
      </trkpt>
      <trkpt lat="40.156907" lon="-0.387160">
        <ele>615.9</ele>
        <time>2021-08-24T14:32:52.672Z</time>
      </trkpt>
      <trkpt lat="40.156787" lon="-0.387256">
        <ele>611.3</ele>
        <time>2021-08-24T14:32:53.207Z</time>
      </trkpt>
      <trkpt lat="40.156679" lon="-0.387326">
        <ele>606.8</ele>
        <time>2021-08-24T14:32:53.670Z</time>
      </trkpt>
      <trkpt lat="40.156485" lon="-0.387232">
        <ele>601.8</ele>
        <time>2021-08-24T14:32:54.441Z</time>
      </trkpt>
      <trkpt lat="40.156392" lon="-0.387041">
        <ele>599.1</ele>
        <time>2021-08-24T14:32:55.077Z</time>
      </trkpt>
      <trkpt lat="40.156180" lon="-0.386538">
        <ele>591.1</ele>
        <time>2021-08-24T14:32:56.697Z</time>
      </trkpt>
      <trkpt lat="40.156286" lon="-0.386366">
        <ele>618.9</ele>
        <time>2021-08-24T14:32:57.797Z</time>
      </trkpt>
      <trkpt lat="40.156363" lon="-0.386035">
        <ele>615.8</ele>
        <time>2021-08-24T14:32:58.765Z</time>
      </trkpt>
      <trkpt lat="40.156522" lon="-0.385557">
        <ele>610.2</ele>
        <time>2021-08-24T14:33:00.226Z</time>
      </trkpt>
      <trkpt lat="40.156610" lon="-0.385118">
        <ele>601.8</ele>
        <time>2021-08-24T14:33:01.518Z</time>
      </trkpt>
      <trkpt lat="40.156775" lon="-0.384756">
        <ele>599.2</ele>
        <time>2021-08-24T14:33:02.693Z</time>
      </trkpt>
      <trkpt lat="40.156917" lon="-0.384677">
        <ele>583.0</ele>
        <time>2021-08-24T14:33:03.468Z</time>
      </trkpt>
      <trkpt lat="40.157069" lon="-0.384695">
        <ele>600.4</ele>
        <time>2021-08-24T14:33:04.265Z</time>
      </trkpt>
      <trkpt lat="40.157132" lon="-0.384556">
        <ele>617.1</ele>
        <time>2021-08-24T14:33:04.971Z</time>
      </trkpt>
      <trkpt lat="40.156864" lon="-0.384341">
        <ele>621.2</ele>
        <time>2021-08-24T14:33:40.037Z</time>
      </trkpt>
      <trkpt lat="40.156535" lon="-0.384601">
        <ele>625.1</ele>
        <time>2021-08-24T14:34:13.652Z</time>
      </trkpt>
      <trkpt lat="40.156088" lon="-0.384632">
        <ele>630.3</ele>
        <time>2021-08-24T14:34:47.306Z</time>
      </trkpt>
      <trkpt lat="40.156088" lon="-0.384632">
        <ele>630.3</ele>
        <time>2021-08-24T14:34:47.331Z</time>
      </trkpt>
      <trkpt lat="40.155342" lon="-0.384785">
        <ele>635.5</ele>
        <time>2021-08-24T14:35:38.853Z</time>
      </trkpt>
      <trkpt lat="40.154556" lon="-0.385085">
        <ele>605.7</ele>
        <time>2021-08-24T14:36:35.983Z</time>
      </trkpt>
      <trkpt lat="40.154411" lon="-0.385098">
        <ele>643.0</ele>
        <time>2021-08-24T14:36:48.060Z</time>
      </trkpt>
      <trkpt lat="40.154283" lon="-0.385238">
        <ele>644.0</ele>
        <time>2021-08-24T14:36:57.666Z</time>
      </trkpt>
      <trkpt lat="40.154143" lon="-0.385440">
        <ele>605.7</ele>
        <time>2021-08-24T14:37:09.602Z</time>
      </trkpt>
      <trkpt lat="40.154115" lon="-0.385580">
        <ele>646.6</ele>
        <time>2021-08-24T14:37:20.539Z</time>
      </trkpt>
      <trkpt lat="40.154086" lon="-0.385920">
        <ele>648.7</ele>
        <time>2021-08-24T14:37:38.839Z</time>
      </trkpt>
      <trkpt lat="40.154062" lon="-0.385941">
        <ele>639.9</ele>
        <time>2021-08-24T14:37:41.361Z</time>
      </trkpt>
      <trkpt lat="40.153993" lon="-0.385759">
        <ele>604.3</ele>
        <time>2021-08-24T14:37:52.034Z</time>
      </trkpt>
      <trkpt lat="40.153928" lon="-0.385324">
        <ele>643.8</ele>
        <time>2021-08-24T14:38:14.057Z</time>
      </trkpt>
      <trkpt lat="40.153957" lon="-0.385212">
        <ele>643.6</ele>
        <time>2021-08-24T14:38:18.107Z</time>
      </trkpt>
      <trkpt lat="40.153922" lon="-0.385102">
        <ele>647.0</ele>
        <time>2021-08-24T14:38:22.409Z</time>
      </trkpt>
      <trkpt lat="40.153820" lon="-0.385201">
        <ele>646.9</ele>
        <time>2021-08-24T14:38:28.103Z</time>
      </trkpt>
      <trkpt lat="40.153759" lon="-0.385081">
        <ele>654.9</ele>
        <time>2021-08-24T14:38:34.004Z</time>
      </trkpt>
      <trkpt lat="40.153514" lon="-0.384805">
        <ele>654.7</ele>
        <time>2021-08-24T14:38:54.065Z</time>
      </trkpt>
      <trkpt lat="40.153357" lon="-0.384711">
        <ele>645.3</ele>
        <time>2021-08-24T14:39:06.008Z</time>
      </trkpt>
      <trkpt lat="40.153229" lon="-0.384442">
        <ele>664.4</ele>
        <time>2021-08-24T14:39:24.448Z</time>
      </trkpt>
      <trkpt lat="40.153031" lon="-0.384370">
        <ele>658.0</ele>
        <time>2021-08-24T14:39:37.682Z</time>
      </trkpt>
      <trkpt lat="40.152871" lon="-0.384318">
        <ele>661.5</ele>
        <time>2021-08-24T14:39:50.842Z</time>
      </trkpt>
      <trkpt lat="40.152806" lon="-0.384216">
        <ele>667.3</ele>
        <time>2021-08-24T14:39:59.758Z</time>
      </trkpt>
      <trkpt lat="40.152666" lon="-0.384190">
        <ele>667.9</ele>
        <time>2021-08-24T14:40:10.791Z</time>
      </trkpt>
      <trkpt lat="40.152390" lon="-0.383837">
        <ele>670.7</ele>
        <time>2021-08-24T14:40:46.794Z</time>
      </trkpt>
      <trkpt lat="40.152370" lon="-0.383440">
        <ele>686.0</ele>
        <time>2021-08-24T14:41:33.832Z</time>
      </trkpt>
      <trkpt lat="40.152363" lon="-0.382963">
        <ele>678.9</ele>
        <time>2021-08-24T14:41:48.786Z</time>
      </trkpt>
      <trkpt lat="40.152470" lon="-0.382935">
        <ele>680.9</ele>
        <time>2021-08-24T14:42:08.074Z</time>
      </trkpt>
      <trkpt lat="40.152429" lon="-0.382703">
        <ele>707.0</ele>
        <time>2021-08-24T14:42:22.524Z</time>
      </trkpt>
      <trkpt lat="40.152197" lon="-0.382533">
        <ele>684.6</ele>
        <time>2021-08-24T14:42:38.740Z</time>
      </trkpt>
      <trkpt lat="40.152164" lon="-0.382160">
        <ele>687.7</ele>
        <time>2021-08-24T14:43:04.522Z</time>
      </trkpt>
      <trkpt lat="40.152019" lon="-0.381933">
        <ele>690.5</ele>
        <time>2021-08-24T14:43:22.965Z</time>
      </trkpt>
      <trkpt lat="40.152071" lon="-0.381642">
        <ele>693.3</ele>
        <time>2021-08-24T14:43:44.976Z</time>
      </trkpt>
      <trkpt lat="40.152174" lon="-0.381338">
        <ele>730.7</ele>
        <time>2021-08-24T14:44:01.149Z</time>
      </trkpt>
      <trkpt lat="40.152269" lon="-0.381257">
        <ele>696.6</ele>
        <time>2021-08-24T14:44:08.360Z</time>
      </trkpt>
      <trkpt lat="40.152310" lon="-0.381142">
        <ele>734.9</ele>
        <time>2021-08-24T14:44:09.807Z</time>
      </trkpt>
      <trkpt lat="40.152326" lon="-0.380847">
        <ele>736.8</ele>
        <time>2021-08-24T14:44:14.978Z</time>
      </trkpt>
      <trkpt lat="40.152511" lon="-0.380111">
        <ele>710.7</ele>
        <time>2021-08-24T14:45:42.126Z</time>
      </trkpt>
      <trkpt lat="40.152579" lon="-0.379750">
        <ele>732.2</ele>
        <time>2021-08-24T14:45:56.432Z</time>
      </trkpt>
      <trkpt lat="40.152673" lon="-0.379599">
        <ele>714.3</ele>
        <time>2021-08-24T14:46:05.569Z</time>
      </trkpt>
      <trkpt lat="40.152727" lon="-0.379474">
        <ele>730.0</ele>
        <time>2021-08-24T14:46:18.900Z</time>
      </trkpt>
      <trkpt lat="40.152985" lon="-0.379256">
        <ele>732.2</ele>
        <time>2021-08-24T14:46:41.876Z</time>
      </trkpt>
      <trkpt lat="40.153204" lon="-0.379130">
        <ele>736.5</ele>
        <time>2021-08-24T14:47:00.493Z</time>
      </trkpt>
      <trkpt lat="40.153291" lon="-0.379068">
        <ele>723.9</ele>
        <time>2021-08-24T14:47:10.015Z</time>
      </trkpt>
      <trkpt lat="40.153244" lon="-0.378684">
        <ele>726.2</ele>
        <time>2021-08-24T14:47:21.806Z</time>
      </trkpt>
      <trkpt lat="40.152917" lon="-0.378352">
        <ele>727.4</ele>
        <time>2021-08-24T14:47:29.293Z</time>
      </trkpt>
      <trkpt lat="40.152762" lon="-0.378363">
        <ele>731.4</ele>
        <time>2021-08-24T14:47:41.337Z</time>
      </trkpt>
      <trkpt lat="40.152522" lon="-0.378385">
        <ele>725.3</ele>
        <time>2021-08-24T14:48:05.306Z</time>
      </trkpt>
      <trkpt lat="40.152359" lon="-0.378421">
        <ele>724.8</ele>
        <time>2021-08-24T14:48:33.321Z</time>
      </trkpt>
      <trkpt lat="40.152072" lon="-0.378574">
        <ele>723.5</ele>
        <time>2021-08-24T14:49:08.129Z</time>
      </trkpt>
      <trkpt lat="40.151804" lon="-0.378770">
        <ele>744.2</ele>
        <time>2021-08-24T14:49:36.314Z</time>
      </trkpt>
      <trkpt lat="40.151329" lon="-0.379209">
        <ele>747.3</ele>
        <time>2021-08-24T14:50:01.317Z</time>
      </trkpt>
      <trkpt lat="40.151047" lon="-0.379280">
        <ele>723.0</ele>
        <time>2021-08-24T14:51:01.196Z</time>
      </trkpt>
      <trkpt lat="40.150673" lon="-0.379242">
        <ele>730.2</ele>
        <time>2021-08-24T14:51:04.257Z</time>
      </trkpt>
      <trkpt lat="40.150299" lon="-0.379109">
        <ele>752.3</ele>
        <time>2021-08-24T14:51:09.163Z</time>
      </trkpt>
      <trkpt lat="40.149974" lon="-0.379140">
        <ele>741.9</ele>
        <time>2021-08-24T14:51:19.728Z</time>
      </trkpt>
      <trkpt lat="40.149909" lon="-0.379115">
        <ele>749.1</ele>
        <time>2021-08-24T14:51:21.588Z</time>
      </trkpt>
      <trkpt lat="40.149756" lon="-0.379026">
        <ele>744.3</ele>
        <time>2021-08-24T14:51:24.080Z</time>
      </trkpt>
      <trkpt lat="40.149489" lon="-0.378839">
        <ele>746.5</ele>
        <time>2021-08-24T14:51:30.551Z</time>
      </trkpt>
      <trkpt lat="40.149317" lon="-0.378611">
        <ele>744.3</ele>
        <time>2021-08-24T14:51:38.349Z</time>
      </trkpt>
      <trkpt lat="40.149241" lon="-0.378307">
        <ele>742.8</ele>
        <time>2021-08-24T14:51:44.083Z</time>
      </trkpt>
      <trkpt lat="40.149151" lon="-0.378005">
        <ele>741.2</ele>
        <time>2021-08-24T14:51:49.702Z</time>
      </trkpt>
      <trkpt lat="40.148842" lon="-0.377571">
        <ele>740.1</ele>
        <time>2021-08-24T14:52:00.782Z</time>
      </trkpt>
      <trkpt lat="40.148529" lon="-0.377320">
        <ele>740.7</ele>
        <time>2021-08-24T14:52:12.184Z</time>
      </trkpt>
      <trkpt lat="40.147995" lon="-0.376772">
        <ele>741.8</ele>
        <time>2021-08-24T14:52:44.000Z</time>
      </trkpt>
      <trkpt lat="40.147640" lon="-0.376533">
        <ele>742.5</ele>
        <time>2021-08-24T14:53:05.399Z</time>
      </trkpt>
      <trkpt lat="40.147424" lon="-0.376261">
        <ele>743.9</ele>
        <time>2021-08-24T14:53:23.091Z</time>
      </trkpt>
      <trkpt lat="40.147242" lon="-0.375775">
        <ele>746.9</ele>
        <time>2021-08-24T14:53:49.705Z</time>
      </trkpt>
      <trkpt lat="40.146613" lon="-0.375215">
        <ele>752.4</ele>
        <time>2021-08-24T14:54:42.640Z</time>
      </trkpt>
      <trkpt lat="40.146425" lon="-0.375222">
        <ele>753.8</ele>
        <time>2021-08-24T14:54:56.442Z</time>
      </trkpt>
      <trkpt lat="40.146326" lon="-0.375077">
        <ele>754.9</ele>
        <time>2021-08-24T14:55:07.959Z</time>
      </trkpt>
      <trkpt lat="40.146229" lon="-0.374560">
        <ele>758.2</ele>
        <time>2021-08-24T14:55:39.805Z</time>
      </trkpt>
      <trkpt lat="40.146165" lon="-0.374534">
        <ele>758.7</ele>
        <time>2021-08-24T14:55:44.858Z</time>
      </trkpt>
      <trkpt lat="40.145945" lon="-0.374844">
        <ele>761.4</ele>
        <time>2021-08-24T14:56:10.029Z</time>
      </trkpt>
      <trkpt lat="40.145569" lon="-0.375089">
        <ele>764.9</ele>
        <time>2021-08-24T14:56:41.719Z</time>
      </trkpt>
      <trkpt lat="40.145045" lon="-0.375272">
        <ele>769.4</ele>
        <time>2021-08-24T14:57:21.128Z</time>
      </trkpt>
      <trkpt lat="40.144875" lon="-0.375230">
        <ele>770.9</ele>
        <time>2021-08-24T14:57:32.866Z</time>
      </trkpt>
      <trkpt lat="40.144423" lon="-0.374955">
        <ele>772.5</ele>
        <time>2021-08-24T14:58:05.755Z</time>
      </trkpt>
      <trkpt lat="40.143883" lon="-0.374935">
        <ele>774.2</ele>
        <time>2021-08-24T14:58:37.401Z</time>
      </trkpt>
      <trkpt lat="40.143263" lon="-0.374659">
        <ele>776.3</ele>
        <time>2021-08-24T14:58:58.619Z</time>
      </trkpt>
      <trkpt lat="40.142458" lon="-0.374802">
        <ele>776.0</ele>
        <time>2021-08-24T14:59:19.692Z</time>
      </trkpt>
      <trkpt lat="40.142287" lon="-0.374922">
        <ele>775.8</ele>
        <time>2021-08-24T14:59:25.106Z</time>
      </trkpt>
      <trkpt lat="40.142238" lon="-0.375000">
        <ele>775.7</ele>
        <time>2021-08-24T14:59:26.868Z</time>
      </trkpt>
      <trkpt lat="40.142136" lon="-0.375227">
        <ele>775.5</ele>
        <time>2021-08-24T14:59:34.386Z</time>
      </trkpt>
      <trkpt lat="40.142100" lon="-0.375270">
        <ele>775.5</ele>
        <time>2021-08-24T14:59:35.550Z</time>
      </trkpt>
      <trkpt lat="40.141552" lon="-0.375014">
        <ele>775.1</ele>
        <time>2021-08-24T14:59:54.724Z</time>
      </trkpt>
      <trkpt lat="40.141243" lon="-0.374917">
        <ele>777.8</ele>
        <time>2021-08-24T15:00:04.241Z</time>
      </trkpt>
      <trkpt lat="40.141214" lon="-0.374908">
        <ele>778.0</ele>
        <time>2021-08-24T15:00:08.737Z</time>
      </trkpt>
      <trkpt lat="40.141058" lon="-0.374670">
        <ele>780.1</ele>
        <time>2021-08-24T15:00:19.595Z</time>
      </trkpt>
      <trkpt lat="40.142132" lon="-0.374670">
        <ele>789.3</ele>
        <time>2021-08-24T15:01:55.401Z</time>
      </trkpt>
      <trkpt lat="40.142460" lon="-0.374464">
        <ele>793.7</ele>
        <time>2021-08-24T15:02:34.240Z</time>
      </trkpt>
      <trkpt lat="40.142666" lon="-0.374334">
        <ele>796.9</ele>
        <time>2021-08-24T15:02:58.194Z</time>
      </trkpt>
      <trkpt lat="40.142696" lon="-0.374269">
        <ele>797.7</ele>
        <time>2021-08-24T15:03:03.833Z</time>
      </trkpt>
      <trkpt lat="40.142662" lon="-0.374222">
        <ele>798.4</ele>
        <time>2021-08-24T15:03:08.643Z</time>
      </trkpt>
      <trkpt lat="40.142322" lon="-0.374166">
        <ele>803.1</ele>
        <time>2021-08-24T15:03:44.855Z</time>
      </trkpt>
      <trkpt lat="40.141707" lon="-0.373909">
        <ele>812.1</ele>
        <time>2021-08-24T15:04:54.251Z</time>
      </trkpt>
      <trkpt lat="40.141511" lon="-0.373719">
        <ele>815.5</ele>
        <time>2021-08-24T15:05:17.789Z</time>
      </trkpt>
      <trkpt lat="40.141126" lon="-0.373479">
        <ele>820.4</ele>
        <time>2021-08-24T15:05:50.084Z</time>
      </trkpt>
      <trkpt lat="40.141034" lon="-0.373355">
        <ele>821.9</ele>
        <time>2021-08-24T15:05:59.668Z</time>
      </trkpt>
      <trkpt lat="40.140929" lon="-0.373022">
        <ele>825.1</ele>
        <time>2021-08-24T15:06:20.625Z</time>
      </trkpt>
      <trkpt lat="40.140666" lon="-0.372738">
        <ele>829.1</ele>
        <time>2021-08-24T15:06:46.712Z</time>
      </trkpt>
      <trkpt lat="40.140180" lon="-0.372601">
        <ele>834.8</ele>
        <time>2021-08-24T15:07:25.298Z</time>
      </trkpt>
      <trkpt lat="40.140049" lon="-0.372508">
        <ele>836.4</ele>
        <time>2021-08-24T15:07:37.099Z</time>
      </trkpt>
      <trkpt lat="40.139905" lon="-0.372212">
        <ele>838.7</ele>
        <time>2021-08-24T15:07:55.771Z</time>
      </trkpt>
      <trkpt lat="40.139802" lon="-0.372126">
        <ele>839.7</ele>
        <time>2021-08-24T15:08:04.390Z</time>
      </trkpt>
      <trkpt lat="40.139121" lon="-0.372078">
        <ele>845.5</ele>
        <time>2021-08-24T15:08:47.046Z</time>
      </trkpt>
      <trkpt lat="40.138976" lon="-0.372075">
        <ele>846.7</ele>
        <time>2021-08-24T15:08:55.483Z</time>
      </trkpt>
      <trkpt lat="40.138752" lon="-0.372173">
        <ele>848.7</ele>
        <time>2021-08-24T15:09:08.839Z</time>
      </trkpt>
      <trkpt lat="40.138612" lon="-0.372169">
        <ele>849.8</ele>
        <time>2021-08-24T15:09:16.133Z</time>
      </trkpt>
      <trkpt lat="40.138009" lon="-0.371856">
        <ele>853.2</ele>
        <time>2021-08-24T15:09:46.745Z</time>
      </trkpt>
      <trkpt lat="40.137798" lon="-0.372024">
        <ele>854.1</ele>
        <time>2021-08-24T15:09:56.627Z</time>
      </trkpt>
      <trkpt lat="40.137776" lon="-0.372191">
        <ele>854.7</ele>
        <time>2021-08-24T15:10:01.878Z</time>
      </trkpt>
      <trkpt lat="40.137857" lon="-0.372639">
        <ele>856.1</ele>
        <time>2021-08-24T15:10:14.800Z</time>
      </trkpt>
      <trkpt lat="40.137799" lon="-0.372811">
        <ele>856.6</ele>
        <time>2021-08-24T15:10:19.243Z</time>
      </trkpt>
      <trkpt lat="40.137613" lon="-0.373005">
        <ele>857.6</ele>
        <time>2021-08-24T15:10:26.730Z</time>
      </trkpt>
      <trkpt lat="40.137567" lon="-0.373190">
        <ele>858.2</ele>
        <time>2021-08-24T15:10:31.156Z</time>
      </trkpt>
      <trkpt lat="40.137584" lon="-0.373778">
        <ele>859.5</ele>
        <time>2021-08-24T15:10:44.735Z</time>
      </trkpt>
      <trkpt lat="40.137687" lon="-0.373909">
        <ele>859.9</ele>
        <time>2021-08-24T15:10:49.095Z</time>
      </trkpt>
      <trkpt lat="40.138497" lon="-0.374552">
        <ele>862.6</ele>
        <time>2021-08-24T15:11:19.112Z</time>
      </trkpt>
      <trkpt lat="40.138557" lon="-0.374658">
        <ele>862.9</ele>
        <time>2021-08-24T15:11:22.596Z</time>
      </trkpt>
      <trkpt lat="40.138538" lon="-0.374815">
        <ele>863.2</ele>
        <time>2021-08-24T15:11:27.806Z</time>
      </trkpt>
      <trkpt lat="40.138427" lon="-0.374951">
        <ele>863.7</ele>
        <time>2021-08-24T15:11:33.574Z</time>
      </trkpt>
      <trkpt lat="40.138261" lon="-0.375002">
        <ele>864.4</ele>
        <time>2021-08-24T15:11:40.015Z</time>
      </trkpt>
      <trkpt lat="40.138141" lon="-0.374943">
        <ele>864.9</ele>
        <time>2021-08-24T15:11:46.015Z</time>
      </trkpt>
      <trkpt lat="40.137992" lon="-0.374608">
        <ele>866.2</ele>
        <time>2021-08-24T15:11:58.855Z</time>
      </trkpt>
      <trkpt lat="40.137804" lon="-0.374395">
        <ele>867.2</ele>
        <time>2021-08-24T15:12:09.118Z</time>
      </trkpt>
      <trkpt lat="40.137383" lon="-0.374247">
        <ele>869.0</ele>
        <time>2021-08-24T15:12:27.502Z</time>
      </trkpt>
      <trkpt lat="40.137383" lon="-0.374247">
        <ele>869.0</ele>
        <time>2021-08-24T15:12:27.713Z</time>
      </trkpt>
      <trkpt lat="40.137294" lon="-0.374084">
        <ele>869.6</ele>
        <time>2021-08-24T15:12:33.738Z</time>
      </trkpt>
      <trkpt lat="40.137042" lon="-0.373019">
        <ele>872.4</ele>
        <time>2021-08-24T15:13:03.065Z</time>
      </trkpt>
      <trkpt lat="40.137120" lon="-0.372392">
        <ele>873.8</ele>
        <time>2021-08-24T15:13:19.055Z</time>
      </trkpt>
      <trkpt lat="40.136975" lon="-0.371800">
        <ele>875.1</ele>
        <time>2021-08-24T15:13:34.256Z</time>
      </trkpt>
      <trkpt lat="40.137120" lon="-0.371341">
        <ele>876.3</ele>
        <time>2021-08-24T15:13:46.058Z</time>
      </trkpt>
      <trkpt lat="40.136895" lon="-0.371029">
        <ele>877.6</ele>
        <time>2021-08-24T15:13:55.939Z</time>
      </trkpt>
      <trkpt lat="40.136764" lon="-0.370849">
        <ele>878.3</ele>
        <time>2021-08-24T15:14:01.831Z</time>
      </trkpt>
      <trkpt lat="40.136676" lon="-0.370706">
        <ele>878.9</ele>
        <time>2021-08-24T15:14:06.341Z</time>
      </trkpt>
      <trkpt lat="40.136451" lon="-0.370833">
        <ele>879.8</ele>
        <time>2021-08-24T15:14:16.765Z</time>
      </trkpt>
      <trkpt lat="40.136200" lon="-0.370887">
        <ele>880.8</ele>
        <time>2021-08-24T15:14:28.197Z</time>
      </trkpt>
      <trkpt lat="40.135869" lon="-0.371260">
        <ele>882.5</ele>
        <time>2021-08-24T15:14:55.311Z</time>
      </trkpt>
      <trkpt lat="40.135325" lon="-0.371367">
        <ele>884.6</ele>
        <time>2021-08-24T15:15:39.217Z</time>
      </trkpt>
      <trkpt lat="40.135205" lon="-0.371519">
        <ele>885.2</ele>
        <time>2021-08-24T15:15:44.217Z</time>
      </trkpt>
      <trkpt lat="40.135052" lon="-0.371547">
        <ele>885.8</ele>
        <time>2021-08-24T15:15:56.516Z</time>
      </trkpt>
      <trkpt lat="40.134876" lon="-0.371499">
        <ele>886.5</ele>
        <time>2021-08-24T15:16:02.178Z</time>
      </trkpt>
      <trkpt lat="40.134791" lon="-0.371434">
        <ele>886.8</ele>
        <time>2021-08-24T15:16:07.037Z</time>
      </trkpt>
      <trkpt lat="40.134584" lon="-0.371429">
        <ele>887.6</ele>
        <time>2021-08-24T15:16:16.090Z</time>
      </trkpt>
      <trkpt lat="40.134145" lon="-0.371576">
        <ele>889.3</ele>
        <time>2021-08-24T15:16:25.986Z</time>
      </trkpt>
      <trkpt lat="40.134003" lon="-0.371684">
        <ele>889.5</ele>
        <time>2021-08-24T15:16:35.191Z</time>
      </trkpt>
      <trkpt lat="40.133908" lon="-0.371945">
        <ele>888.7</ele>
        <time>2021-08-24T15:16:40.570Z</time>
      </trkpt>
      <trkpt lat="40.133791" lon="-0.372452">
        <ele>887.2</ele>
        <time>2021-08-24T15:16:53.129Z</time>
      </trkpt>
      <trkpt lat="40.133566" lon="-0.373077">
        <ele>885.2</ele>
        <time>2021-08-24T15:17:06.572Z</time>
      </trkpt>
      <trkpt lat="40.133439" lon="-0.373241">
        <ele>884.5</ele>
        <time>2021-08-24T15:17:10.480Z</time>
      </trkpt>
      <trkpt lat="40.133123" lon="-0.373464">
        <ele>883.2</ele>
        <time>2021-08-24T15:17:18.394Z</time>
      </trkpt>
      <trkpt lat="40.132612" lon="-0.373672">
        <ele>878.6</ele>
        <time>2021-08-24T15:17:30.429Z</time>
      </trkpt>
      <trkpt lat="40.132340" lon="-0.374038">
        <ele>875.0</ele>
        <time>2021-08-24T15:17:39.039Z</time>
      </trkpt>
      <trkpt lat="40.131927" lon="-0.374748">
        <ele>868.8</ele>
        <time>2021-08-24T15:17:53.800Z</time>
      </trkpt>
      <trkpt lat="40.131712" lon="-0.375392">
        <ele>862.8</ele>
        <time>2021-08-24T15:18:05.186Z</time>
      </trkpt>
      <trkpt lat="40.131341" lon="-0.376054">
        <ele>854.8</ele>
        <time>2021-08-24T15:18:18.312Z</time>
      </trkpt>
      <trkpt lat="40.131088" lon="-0.376883">
        <ele>846.1</ele>
        <time>2021-08-24T15:18:32.244Z</time>
      </trkpt>
      <trkpt lat="40.130908" lon="-0.377265">
        <ele>841.9</ele>
        <time>2021-08-24T15:18:39.198Z</time>
      </trkpt>
      <trkpt lat="40.130824" lon="-0.377802">
        <ele>837.0</ele>
        <time>2021-08-24T15:18:47.678Z</time>
      </trkpt>
      <trkpt lat="40.130844" lon="-0.378186">
        <ele>833.6</ele>
        <time>2021-08-24T15:18:53.828Z</time>
      </trkpt>
      <trkpt lat="40.130792" lon="-0.378493">
        <ele>830.8</ele>
        <time>2021-08-24T15:18:58.950Z</time>
      </trkpt>
      <trkpt lat="40.130743" lon="-0.378700">
        <ele>828.8</ele>
        <time>2021-08-24T15:19:02.365Z</time>
      </trkpt>
      <trkpt lat="40.130743" lon="-0.378700">
        <ele>828.8</ele>
        <time>2021-08-24T15:19:02.436Z</time>
      </trkpt>
      <trkpt lat="40.130676" lon="-0.378708">
        <ele>828.1</ele>
        <time>2021-08-24T15:19:03.303Z</time>
      </trkpt>
      <trkpt lat="40.130572" lon="-0.378804">
        <ele>826.6</ele>
        <time>2021-08-24T15:19:05.015Z</time>
      </trkpt>
      <trkpt lat="40.130579" lon="-0.378832">
        <ele>826.3</ele>
        <time>2021-08-24T15:19:05.292Z</time>
      </trkpt>
      <trkpt lat="40.130562" lon="-0.378860">
        <ele>826.0</ele>
        <time>2021-08-24T15:19:05.640Z</time>
      </trkpt>
      <trkpt lat="40.130504" lon="-0.378998">
        <ele>824.6</ele>
        <time>2021-08-24T15:19:07.140Z</time>
      </trkpt>
      <trkpt lat="40.130531" lon="-0.379098">
        <ele>823.6</ele>
        <time>2021-08-24T15:19:08.203Z</time>
      </trkpt>
      <trkpt lat="40.130455" lon="-0.379123">
        <ele>822.7</ele>
        <time>2021-08-24T15:19:09.258Z</time>
      </trkpt>
      <trkpt lat="40.130318" lon="-0.379036">
        <ele>822.1</ele>
        <time>2021-08-24T15:19:11.241Z</time>
      </trkpt>
      <trkpt lat="40.130318" lon="-0.379036">
        <ele>822.1</ele>
        <time>2021-08-24T15:19:11.265Z</time>
      </trkpt>
      <trkpt lat="40.130102" lon="-0.379043">
        <ele>821.4</ele>
        <time>2021-08-24T15:19:14.173Z</time>
      </trkpt>
      <trkpt lat="40.130105" lon="-0.378976">
        <ele>821.2</ele>
        <time>2021-08-24T15:19:14.881Z</time>
      </trkpt>
      <trkpt lat="40.130057" lon="-0.378970">
        <ele>821.1</ele>
        <time>2021-08-24T15:19:15.494Z</time>
      </trkpt>
      <trkpt lat="40.130070" lon="-0.378858">
        <ele>820.8</ele>
        <time>2021-08-24T15:19:16.583Z</time>
      </trkpt>
      <trkpt lat="40.129877" lon="-0.378810">
        <ele>820.1</ele>
        <time>2021-08-24T15:19:19.483Z</time>
      </trkpt>
      <trkpt lat="40.129672" lon="-0.378607">
        <ele>819.2</ele>
        <time>2021-08-24T15:19:23.060Z</time>
      </trkpt>
      <trkpt lat="40.128948" lon="-0.377785">
        <ele>817.7</ele>
        <time>2021-08-24T15:19:45.553Z</time>
      </trkpt>
      <trkpt lat="40.128894" lon="-0.377688">
        <ele>832.8</ele>
        <time>2021-08-24T15:19:47.061Z</time>
      </trkpt>
      <trkpt lat="40.129130" lon="-0.377816">
        <ele>833.6</ele>
        <time>2021-08-24T15:19:57.481Z</time>
      </trkpt>
      <trkpt lat="40.129381" lon="-0.378043">
        <ele>820.7</ele>
        <time>2021-08-24T15:19:59.991Z</time>
      </trkpt>
      <trkpt lat="40.129403" lon="-0.377972">
        <ele>826.5</ele>
        <time>2021-08-24T15:20:05.034Z</time>
      </trkpt>
      <trkpt lat="40.129340" lon="-0.377873">
        <ele>821.9</ele>
        <time>2021-08-24T15:20:11.853Z</time>
      </trkpt>
      <trkpt lat="40.129310" lon="-0.377745">
        <ele>832.0</ele>
        <time>2021-08-24T15:20:16.874Z</time>
      </trkpt>
      <trkpt lat="40.129245" lon="-0.377658">
        <ele>835.1</ele>
        <time>2021-08-24T15:20:22.708Z</time>
      </trkpt>
      <trkpt lat="40.129153" lon="-0.377554">
        <ele>824.7</ele>
        <time>2021-08-24T15:20:31.956Z</time>
      </trkpt>
      <trkpt lat="40.129063" lon="-0.377436">
        <ele>825.6</ele>
        <time>2021-08-24T15:20:36.911Z</time>
      </trkpt>
      <trkpt lat="40.129018" lon="-0.377377">
        <ele>826.1</ele>
        <time>2021-08-24T15:20:40.001Z</time>
      </trkpt>
      <trkpt lat="40.128991" lon="-0.377308">
        <ele>826.5</ele>
        <time>2021-08-24T15:20:45.473Z</time>
      </trkpt>
      <trkpt lat="40.128975" lon="-0.377097">
        <ele>827.7</ele>
        <time>2021-08-24T15:21:02.294Z</time>
      </trkpt>
      <trkpt lat="40.128930" lon="-0.376891">
        <ele>828.9</ele>
        <time>2021-08-24T15:21:11.133Z</time>
      </trkpt>
      <trkpt lat="40.128951" lon="-0.376826">
        <ele>829.3</ele>
        <time>2021-08-24T15:21:18.460Z</time>
      </trkpt>
      <trkpt lat="40.129026" lon="-0.376837">
        <ele>830.0</ele>
        <time>2021-08-24T15:21:27.985Z</time>
      </trkpt>
      <trkpt lat="40.129090" lon="-0.376937">
        <ele>831.3</ele>
        <time>2021-08-24T15:21:34.120Z</time>
      </trkpt>
      <trkpt lat="40.129225" lon="-0.376979">
        <ele>833.2</ele>
        <time>2021-08-24T15:21:44.133Z</time>
      </trkpt>
      <trkpt lat="40.129271" lon="-0.376966">
        <ele>833.9</ele>
        <time>2021-08-24T15:21:50.673Z</time>
      </trkpt>
      <trkpt lat="40.129559" lon="-0.376920">
        <ele>837.8</ele>
        <time>2021-08-24T15:22:12.500Z</time>
      </trkpt>
      <trkpt lat="40.129721" lon="-0.377060">
        <ele>840.4</ele>
        <time>2021-08-24T15:22:32.876Z</time>
      </trkpt>
      <trkpt lat="40.129836" lon="-0.377306">
        <ele>843.4</ele>
        <time>2021-08-24T15:22:50.450Z</time>
      </trkpt>
      <trkpt lat="40.129966" lon="-0.377250">
        <ele>845.3</ele>
        <time>2021-08-24T15:23:05.217Z</time>
      </trkpt>
      <trkpt lat="40.130079" lon="-0.377224">
        <ele>846.8</ele>
        <time>2021-08-24T15:23:13.207Z</time>
      </trkpt>
      <trkpt lat="40.130131" lon="-0.377118">
        <ele>848.1</ele>
        <time>2021-08-24T15:23:23.322Z</time>
      </trkpt>
      <trkpt lat="40.130096" lon="-0.377056">
        <ele>848.9</ele>
        <time>2021-08-24T15:23:31.211Z</time>
      </trkpt>
      <trkpt lat="40.129949" lon="-0.377015">
        <ele>851.0</ele>
        <time>2021-08-24T15:23:43.061Z</time>
      </trkpt>
      <trkpt lat="40.129922" lon="-0.376888">
        <ele>852.3</ele>
        <time>2021-08-24T15:23:51.528Z</time>
      </trkpt>
      <trkpt lat="40.129950" lon="-0.376832">
        <ele>853.0</ele>
        <time>2021-08-24T15:23:57.432Z</time>
      </trkpt>
      <trkpt lat="40.130218" lon="-0.376737">
        <ele>856.5</ele>
        <time>2021-08-24T15:24:19.994Z</time>
      </trkpt>
      <trkpt lat="40.130209" lon="-0.376675">
        <ele>857.1</ele>
        <time>2021-08-24T15:24:23.917Z</time>
      </trkpt>
      <trkpt lat="40.129919" lon="-0.376469">
        <ele>861.2</ele>
        <time>2021-08-24T15:24:51.278Z</time>
      </trkpt>
      <trkpt lat="40.129934" lon="-0.376403">
        <ele>861.8</ele>
        <time>2021-08-24T15:24:56.119Z</time>
      </trkpt>
      <trkpt lat="40.130209" lon="-0.376280">
        <ele>865.4</ele>
        <time>2021-08-24T15:25:21.363Z</time>
      </trkpt>
      <trkpt lat="40.130201" lon="-0.376169">
        <ele>866.4</ele>
        <time>2021-08-24T15:25:28.246Z</time>
      </trkpt>
      <trkpt lat="40.130118" lon="-0.376064">
        <ele>867.9</ele>
        <time>2021-08-24T15:25:38.068Z</time>
      </trkpt>
      <trkpt lat="40.130120" lon="-0.375868">
        <ele>869.7</ele>
        <time>2021-08-24T15:25:47.641Z</time>
      </trkpt>
      <trkpt lat="40.130295" lon="-0.375383">
        <ele>874.7</ele>
        <time>2021-08-24T15:26:18.060Z</time>
      </trkpt>
      <trkpt lat="40.130336" lon="-0.375256">
        <ele>876.0</ele>
        <time>2021-08-24T15:26:28.000Z</time>
      </trkpt>
      <trkpt lat="40.130453" lon="-0.374893">
        <ele>879.7</ele>
        <time>2021-08-24T15:26:49.493Z</time>
      </trkpt>
      <trkpt lat="40.130490" lon="-0.374805">
        <ele>880.6</ele>
        <time>2021-08-24T15:26:57.387Z</time>
      </trkpt>
      <trkpt lat="40.130490" lon="-0.373701">
        <ele>890.7</ele>
        <time>2021-08-24T15:28:04.633Z</time>
      </trkpt>
      <trkpt lat="40.130573" lon="-0.373506">
        <ele>892.8</ele>
        <time>2021-08-24T15:28:18.862Z</time>
      </trkpt>
      <trkpt lat="40.131189" lon="-0.372716">
        <ele>902.8</ele>
        <time>2021-08-24T15:29:31.036Z</time>
      </trkpt>
      <trkpt lat="40.131540" lon="-0.372776">
        <ele>906.8</ele>
        <time>2021-08-24T15:29:58.856Z</time>
      </trkpt>
      <trkpt lat="40.131730" lon="-0.372701">
        <ele>909.1</ele>
        <time>2021-08-24T15:30:14.458Z</time>
      </trkpt>
      <trkpt lat="40.132247" lon="-0.372156">
        <ele>916.5</ele>
        <time>2021-08-24T15:31:05.719Z</time>
      </trkpt>
      <trkpt lat="40.132760" lon="-0.371705">
        <ele>920.6</ele>
        <time>2021-08-24T15:31:44.851Z</time>
      </trkpt>
      <trkpt lat="40.132863" lon="-0.371539">
        <ele>921.5</ele>
        <time>2021-08-24T15:31:52.199Z</time>
      </trkpt>
      <trkpt lat="40.132924" lon="-0.371343">
        <ele>922.4</ele>
        <time>2021-08-24T15:32:01.782Z</time>
      </trkpt>
      <trkpt lat="40.132923" lon="-0.371032">
        <ele>923.6</ele>
        <time>2021-08-24T15:32:13.885Z</time>
      </trkpt>
      <trkpt lat="40.132876" lon="-0.370770">
        <ele>924.7</ele>
        <time>2021-08-24T15:32:25.238Z</time>
      </trkpt>
      <trkpt lat="40.132593" lon="-0.370117">
        <ele>927.6</ele>
        <time>2021-08-24T15:32:50.838Z</time>
      </trkpt>
      <trkpt lat="40.132555" lon="-0.369813">
        <ele>927.5</ele>
        <time>2021-08-24T15:32:59.058Z</time>
      </trkpt>
      <trkpt lat="40.132456" lon="-0.369547">
        <ele>927.4</ele>
        <time>2021-08-24T15:33:07.946Z</time>
      </trkpt>
      <trkpt lat="40.131484" lon="-0.368458">
        <ele>926.9</ele>
        <time>2021-08-24T15:33:44.456Z</time>
      </trkpt>
      <trkpt lat="40.130689" lon="-0.367826">
        <ele>925.4</ele>
        <time>2021-08-24T15:34:10.680Z</time>
      </trkpt>
      <trkpt lat="40.129506" lon="-0.367257">
        <ele>923.9</ele>
        <time>2021-08-24T15:34:45.757Z</time>
      </trkpt>
      <trkpt lat="40.129322" lon="-0.366874">
        <ele>923.9</ele>
        <time>2021-08-24T15:34:55.863Z</time>
      </trkpt>
      <trkpt lat="40.129595" lon="-0.366063">
        <ele>923.7</ele>
        <time>2021-08-24T15:35:17.235Z</time>
      </trkpt>
      <trkpt lat="40.129529" lon="-0.365964">
        <ele>923.7</ele>
        <time>2021-08-24T15:35:20.816Z</time>
      </trkpt>
      <trkpt lat="40.129402" lon="-0.365901">
        <ele>923.7</ele>
        <time>2021-08-24T15:35:25.689Z</time>
      </trkpt>
      <trkpt lat="40.129093" lon="-0.365984">
        <ele>924.1</ele>
        <time>2021-08-24T15:35:37.770Z</time>
      </trkpt>
      <trkpt lat="40.128979" lon="-0.365922">
        <ele>924.4</ele>
        <time>2021-08-24T15:35:42.818Z</time>
      </trkpt>
      <trkpt lat="40.128556" lon="-0.365203">
        <ele>926.5</ele>
        <time>2021-08-24T15:36:14.039Z</time>
      </trkpt>
      <trkpt lat="40.128105" lon="-0.364671">
        <ele>928.3</ele>
        <time>2021-08-24T15:36:44.703Z</time>
      </trkpt>
      <trkpt lat="40.128095" lon="-0.364097">
        <ele>929.9</ele>
        <time>2021-08-24T15:37:08.185Z</time>
      </trkpt>
      <trkpt lat="40.127866" lon="-0.363174">
        <ele>932.9</ele>
        <time>2021-08-24T15:37:49.021Z</time>
      </trkpt>
      <trkpt lat="40.127774" lon="-0.363116">
        <ele>933.4</ele>
        <time>2021-08-24T15:37:54.769Z</time>
      </trkpt>
      <trkpt lat="40.127192" lon="-0.363116">
        <ele>935.8</ele>
        <time>2021-08-24T15:38:24.134Z</time>
      </trkpt>
      <trkpt lat="40.127180" lon="-0.363106">
        <ele>935.8</ele>
        <time>2021-08-24T15:38:25.313Z</time>
      </trkpt>
      <trkpt lat="40.127107" lon="-0.363045">
        <ele>936.2</ele>
        <time>2021-08-24T15:38:30.263Z</time>
      </trkpt>
      <trkpt lat="40.127094" lon="-0.362950">
        <ele>936.5</ele>
        <time>2021-08-24T15:38:33.688Z</time>
      </trkpt>
      <trkpt lat="40.127367" lon="-0.362779">
        <ele>937.3</ele>
        <time>2021-08-24T15:38:48.756Z</time>
      </trkpt>
      <trkpt lat="40.127443" lon="-0.362634">
        <ele>937.6</ele>
        <time>2021-08-24T15:38:54.710Z</time>
      </trkpt>
      <trkpt lat="40.127399" lon="-0.362521">
        <ele>937.9</ele>
        <time>2021-08-24T15:38:58.901Z</time>
      </trkpt>
      <trkpt lat="40.127145" lon="-0.362330">
        <ele>938.7</ele>
        <time>2021-08-24T15:39:13.175Z</time>
      </trkpt>
      <trkpt lat="40.126830" lon="-0.361465">
        <ele>940.6</ele>
        <time>2021-08-24T15:39:45.904Z</time>
      </trkpt>
      <trkpt lat="40.126493" lon="-0.360908">
        <ele>941.1</ele>
        <time>2021-08-24T15:40:05.948Z</time>
      </trkpt>
      <trkpt lat="40.126394" lon="-0.360775">
        <ele>941.1</ele>
        <time>2021-08-24T15:40:11.054Z</time>
      </trkpt>
      <trkpt lat="40.126299" lon="-0.360663">
        <ele>941.0</ele>
        <time>2021-08-24T15:40:15.170Z</time>
      </trkpt>
      <trkpt lat="40.126216" lon="-0.360584">
        <ele>941.0</ele>
        <time>2021-08-24T15:40:18.431Z</time>
      </trkpt>
      <trkpt lat="40.125848" lon="-0.359715">
        <ele>940.8</ele>
        <time>2021-08-24T15:40:41.319Z</time>
      </trkpt>
      <trkpt lat="40.125819" lon="-0.357964">
        <ele>939.8</ele>
        <time>2021-08-24T15:41:18.660Z</time>
      </trkpt>
      <trkpt lat="40.125775" lon="-0.357632">
        <ele>939.6</ele>
        <time>2021-08-24T15:41:26.223Z</time>
      </trkpt>
      <trkpt lat="40.125702" lon="-0.357482">
        <ele>939.5</ele>
        <time>2021-08-24T15:41:30.654Z</time>
      </trkpt>
      <trkpt lat="40.125238" lon="-0.357020">
        <ele>939.2</ele>
        <time>2021-08-24T15:41:49.146Z</time>
      </trkpt>
      <trkpt lat="40.125252" lon="-0.356973">
        <ele>939.2</ele>
        <time>2021-08-24T15:41:50.043Z</time>
      </trkpt>
      <trkpt lat="40.125285" lon="-0.356867">
        <ele>939.2</ele>
        <time>2021-08-24T15:41:55.168Z</time>
      </trkpt>
      <trkpt lat="40.125479" lon="-0.356555">
        <ele>939.4</ele>
        <time>2021-08-24T15:42:05.529Z</time>
      </trkpt>
      <trkpt lat="40.125645" lon="-0.356089">
        <ele>939.7</ele>
        <time>2021-08-24T15:42:21.648Z</time>
      </trkpt>
      <trkpt lat="40.125727" lon="-0.356035">
        <ele>939.7</ele>
        <time>2021-08-24T15:42:25.787Z</time>
      </trkpt>
      <trkpt lat="40.126087" lon="-0.356085">
        <ele>940.0</ele>
        <time>2021-08-24T15:42:39.522Z</time>
      </trkpt>
      <trkpt lat="40.126856" lon="-0.355906">
        <ele>938.1</ele>
        <time>2021-08-24T15:43:03.480Z</time>
      </trkpt>
      <trkpt lat="40.126929" lon="-0.355948">
        <ele>937.7</ele>
        <time>2021-08-24T15:43:05.526Z</time>
      </trkpt>
      <trkpt lat="40.127078" lon="-0.356197">
        <ele>936.5</ele>
        <time>2021-08-24T15:43:11.793Z</time>
      </trkpt>
      <trkpt lat="40.127298" lon="-0.356343">
        <ele>935.3</ele>
        <time>2021-08-24T15:43:17.684Z</time>
      </trkpt>
      <trkpt lat="40.127403" lon="-0.356301">
        <ele>934.8</ele>
        <time>2021-08-24T15:43:20.328Z</time>
      </trkpt>
      <trkpt lat="40.127431" lon="-0.356172">
        <ele>934.3</ele>
        <time>2021-08-24T15:43:22.670Z</time>
      </trkpt>
      <trkpt lat="40.127409" lon="-0.356014">
        <ele>933.7</ele>
        <time>2021-08-24T15:43:25.451Z</time>
      </trkpt>
      <trkpt lat="40.127310" lon="-0.355906">
        <ele>933.1</ele>
        <time>2021-08-24T15:43:28.388Z</time>
      </trkpt>
      <trkpt lat="40.127199" lon="-0.355603">
        <ele>931.8</ele>
        <time>2021-08-24T15:43:34.040Z</time>
      </trkpt>
      <trkpt lat="40.127180" lon="-0.355212">
        <ele>928.9</ele>
        <time>2021-08-24T15:43:40.500Z</time>
      </trkpt>
      <trkpt lat="40.126989" lon="-0.354796">
        <ele>924.6</ele>
        <time>2021-08-24T15:43:48.337Z</time>
      </trkpt>
      <trkpt lat="40.126369" lon="-0.353915">
        <ele>914.1</ele>
        <time>2021-08-24T15:44:07.376Z</time>
      </trkpt>
      <trkpt lat="40.125870" lon="-0.353000">
        <ele>903.7</ele>
        <time>2021-08-24T15:44:25.180Z</time>
      </trkpt>
      <trkpt lat="40.125362" lon="-0.351753">
        <ele>890.3</ele>
        <time>2021-08-24T15:44:47.692Z</time>
      </trkpt>
      <trkpt lat="40.125285" lon="-0.351474">
        <ele>887.6</ele>
        <time>2021-08-24T15:44:52.403Z</time>
      </trkpt>
      <trkpt lat="40.125355" lon="-0.351383">
        <ele>886.4</ele>
        <time>2021-08-24T15:44:54.460Z</time>
      </trkpt>
      <trkpt lat="40.125530" lon="-0.351429">
        <ele>884.3</ele>
        <time>2021-08-24T15:44:58.161Z</time>
      </trkpt>
      <trkpt lat="40.125600" lon="-0.351616">
        <ele>882.5</ele>
        <time>2021-08-24T15:45:01.493Z</time>
      </trkpt>
      <trkpt lat="40.125836" lon="-0.351796">
        <ele>879.3</ele>
        <time>2021-08-24T15:45:07.184Z</time>
      </trkpt>
      <trkpt lat="40.125957" lon="-0.351737">
        <ele>877.8</ele>
        <time>2021-08-24T15:45:09.890Z</time>
      </trkpt>
      <trkpt lat="40.126047" lon="-0.351608">
        <ele>876.2</ele>
        <time>2021-08-24T15:45:12.670Z</time>
      </trkpt>
      <trkpt lat="40.126074" lon="-0.351390">
        <ele>874.2</ele>
        <time>2021-08-24T15:45:16.219Z</time>
      </trkpt>
      <trkpt lat="40.125993" lon="-0.351173">
        <ele>872.1</ele>
        <time>2021-08-24T15:45:20.063Z</time>
      </trkpt>
      <trkpt lat="40.125701" lon="-0.350867">
        <ele>867.7</ele>
        <time>2021-08-24T15:45:27.924Z</time>
      </trkpt>
      <trkpt lat="40.125445" lon="-0.350497">
        <ele>864.2</ele>
        <time>2021-08-24T15:45:36.124Z</time>
      </trkpt>
      <trkpt lat="40.125355" lon="-0.350062">
        <ele>861.2</ele>
        <time>2021-08-24T15:45:43.712Z</time>
      </trkpt>
      <trkpt lat="40.125139" lon="-0.349738">
        <ele>858.2</ele>
        <time>2021-08-24T15:45:51.080Z</time>
      </trkpt>
      <trkpt lat="40.125140" lon="-0.349643">
        <ele>857.6</ele>
        <time>2021-08-24T15:45:52.522Z</time>
      </trkpt>
      <trkpt lat="40.125204" lon="-0.349629">
        <ele>857.0</ele>
        <time>2021-08-24T15:45:55.417Z</time>
      </trkpt>
      <trkpt lat="40.125364" lon="-0.349779">
        <ele>855.3</ele>
        <time>2021-08-24T15:45:59.819Z</time>
      </trkpt>
      <trkpt lat="40.125633" lon="-0.350303">
        <ele>850.9</ele>
        <time>2021-08-24T15:46:10.272Z</time>
      </trkpt>
      <trkpt lat="40.125726" lon="-0.350400">
        <ele>849.7</ele>
        <time>2021-08-24T15:46:13.768Z</time>
      </trkpt>
      <trkpt lat="40.125834" lon="-0.350529">
        <ele>848.2</ele>
        <time>2021-08-24T15:46:16.850Z</time>
      </trkpt>
      <trkpt lat="40.126005" lon="-0.350647">
        <ele>846.2</ele>
        <time>2021-08-24T15:46:21.231Z</time>
      </trkpt>
      <trkpt lat="40.126479" lon="-0.350597">
        <ele>841.3</ele>
        <time>2021-08-24T15:46:31.498Z</time>
      </trkpt>
      <trkpt lat="40.126971" lon="-0.350917">
        <ele>835.7</ele>
        <time>2021-08-24T15:46:43.298Z</time>
      </trkpt>
      <trkpt lat="40.127283" lon="-0.350844">
        <ele>832.4</ele>
        <time>2021-08-24T15:46:49.710Z</time>
      </trkpt>
      <trkpt lat="40.127328" lon="-0.350752">
        <ele>831.5</ele>
        <time>2021-08-24T15:46:51.432Z</time>
      </trkpt>
      <trkpt lat="40.127335" lon="-0.350318">
        <ele>827.9</ele>
        <time>2021-08-24T15:46:58.234Z</time>
      </trkpt>
      <trkpt lat="40.127535" lon="-0.349989">
        <ele>824.3</ele>
        <time>2021-08-24T15:47:04.883Z</time>
      </trkpt>
      <trkpt lat="40.127571" lon="-0.349595">
        <ele>821.0</ele>
        <time>2021-08-24T15:47:11.246Z</time>
      </trkpt>
      <trkpt lat="40.127710" lon="-0.349277">
        <ele>817.9</ele>
        <time>2021-08-24T15:47:17.421Z</time>
      </trkpt>
      <trkpt lat="40.127730" lon="-0.349180">
        <ele>817.1</ele>
        <time>2021-08-24T15:47:18.951Z</time>
      </trkpt>
      <trkpt lat="40.127747" lon="-0.349071">
        <ele>816.2</ele>
        <time>2021-08-24T15:47:20.790Z</time>
      </trkpt>
      <trkpt lat="40.127770" lon="-0.348922">
        <ele>814.9</ele>
        <time>2021-08-24T15:47:23.552Z</time>
      </trkpt>
      <trkpt lat="40.127652" lon="-0.348480">
        <ele>812.2</ele>
        <time>2021-08-24T15:47:31.474Z</time>
      </trkpt>
      <trkpt lat="40.127719" lon="-0.348480">
        <ele>811.9</ele>
        <time>2021-08-24T15:47:33.189Z</time>
      </trkpt>
      <trkpt lat="40.128006" lon="-0.348660">
        <ele>782.8</ele>
        <time>2021-08-24T15:47:41.190Z</time>
      </trkpt>
      <trkpt lat="40.128358" lon="-0.349174">
        <ele>807.9</ele>
        <time>2021-08-24T15:47:52.352Z</time>
      </trkpt>
      <trkpt lat="40.128461" lon="-0.349209">
        <ele>807.4</ele>
        <time>2021-08-24T15:47:55.106Z</time>
      </trkpt>
      <trkpt lat="40.128502" lon="-0.349021">
        <ele>806.7</ele>
        <time>2021-08-24T15:47:59.963Z</time>
      </trkpt>
      <trkpt lat="40.128443" lon="-0.348850">
        <ele>806.0</ele>
        <time>2021-08-24T15:48:03.889Z</time>
      </trkpt>
      <trkpt lat="40.128136" lon="-0.348214">
        <ele>772.6</ele>
        <time>2021-08-24T15:48:19.794Z</time>
      </trkpt>
      <trkpt lat="40.128075" lon="-0.347680">
        <ele>802.9</ele>
        <time>2021-08-24T15:48:31.928Z</time>
      </trkpt>
      <trkpt lat="40.127526" lon="-0.346945">
        <ele>801.0</ele>
        <time>2021-08-24T15:48:52.460Z</time>
      </trkpt>
      <trkpt lat="40.127538" lon="-0.346840">
        <ele>800.8</ele>
        <time>2021-08-24T15:48:55.196Z</time>
      </trkpt>
      <trkpt lat="40.127417" lon="-0.346722">
        <ele>800.5</ele>
        <time>2021-08-24T15:48:58.754Z</time>
      </trkpt>
      <trkpt lat="40.127192" lon="-0.346551">
        <ele>799.7</ele>
        <time>2021-08-24T15:49:05.625Z</time>
      </trkpt>
      <trkpt lat="40.126675" lon="-0.346340">
        <ele>797.8</ele>
        <time>2021-08-24T15:49:19.105Z</time>
      </trkpt>
      <trkpt lat="40.126284" lon="-0.346087">
        <ele>796.3</ele>
        <time>2021-08-24T15:49:30.296Z</time>
      </trkpt>
      <trkpt lat="40.126235" lon="-0.345770">
        <ele>795.4</ele>
        <time>2021-08-24T15:49:36.382Z</time>
      </trkpt>
      <trkpt lat="40.125587" lon="-0.345340">
        <ele>793.4</ele>
        <time>2021-08-24T15:49:55.124Z</time>
      </trkpt>
      <trkpt lat="40.125255" lon="-0.344864">
        <ele>792.6</ele>
        <time>2021-08-24T15:50:08.536Z</time>
      </trkpt>
      <trkpt lat="40.124971" lon="-0.344582">
        <ele>792.0</ele>
        <time>2021-08-24T15:50:18.683Z</time>
      </trkpt>
      <trkpt lat="40.124926" lon="-0.344117">
        <ele>791.4</ele>
        <time>2021-08-24T15:50:29.309Z</time>
      </trkpt>
      <trkpt lat="40.124801" lon="-0.343959">
        <ele>791.2</ele>
        <time>2021-08-24T15:50:34.599Z</time>
      </trkpt>
      <trkpt lat="40.124666" lon="-0.343988">
        <ele>791.0</ele>
        <time>2021-08-24T15:50:38.797Z</time>
      </trkpt>
      <trkpt lat="40.124535" lon="-0.344235">
        <ele>791.2</ele>
        <time>2021-08-24T15:50:45.921Z</time>
      </trkpt>
      <trkpt lat="40.124450" lon="-0.344735">
        <ele>791.7</ele>
        <time>2021-08-24T15:50:58.203Z</time>
      </trkpt>
      <trkpt lat="40.124315" lon="-0.344870">
        <ele>791.9</ele>
        <time>2021-08-24T15:51:03.830Z</time>
      </trkpt>
      <trkpt lat="40.123400" lon="-0.344782">
        <ele>792.8</ele>
        <time>2021-08-24T15:51:40.490Z</time>
      </trkpt>
      <trkpt lat="40.123133" lon="-0.344566">
        <ele>793.8</ele>
        <time>2021-08-24T15:51:55.575Z</time>
      </trkpt>
      <trkpt lat="40.123028" lon="-0.344417">
        <ele>794.3</ele>
        <time>2021-08-24T15:52:03.696Z</time>
      </trkpt>
      <trkpt lat="40.122990" lon="-0.344283">
        <ele>794.7</ele>
        <time>2021-08-24T15:52:09.528Z</time>
      </trkpt>
      <trkpt lat="40.122968" lon="-0.343539">
        <ele>796.7</ele>
        <time>2021-08-24T15:52:39.271Z</time>
      </trkpt>
      <trkpt lat="40.122692" lon="-0.343485">
        <ele>797.6</ele>
        <time>2021-08-24T15:52:53.216Z</time>
      </trkpt>
      <trkpt lat="40.122364" lon="-0.343573">
        <ele>798.8</ele>
        <time>2021-08-24T15:53:09.460Z</time>
      </trkpt>
      <trkpt lat="40.121995" lon="-0.343585">
        <ele>799.9</ele>
        <time>2021-08-24T15:53:27.351Z</time>
      </trkpt>
      <trkpt lat="40.121799" lon="-0.343562">
        <ele>800.5</ele>
        <time>2021-08-24T15:53:36.582Z</time>
      </trkpt>
      <trkpt lat="40.121503" lon="-0.343527">
        <ele>801.3</ele>
        <time>2021-08-24T15:53:49.845Z</time>
      </trkpt>
      <trkpt lat="40.121178" lon="-0.343198">
        <ele>802.5</ele>
        <time>2021-08-24T15:54:07.636Z</time>
      </trkpt>
      <trkpt lat="40.121096" lon="-0.342949">
        <ele>803.1</ele>
        <time>2021-08-24T15:54:16.206Z</time>
      </trkpt>
      <trkpt lat="40.121112" lon="-0.342741">
        <ele>803.6</ele>
        <time>2021-08-24T15:54:23.385Z</time>
      </trkpt>
      <trkpt lat="40.121051" lon="-0.342267">
        <ele>804.8</ele>
        <time>2021-08-24T15:54:41.115Z</time>
      </trkpt>
      <trkpt lat="40.120797" lon="-0.341498">
        <ele>807.8</ele>
        <time>2021-08-24T15:55:14.093Z</time>
      </trkpt>
      <trkpt lat="40.120752" lon="-0.341091">
        <ele>809.3</ele>
        <time>2021-08-24T15:55:31.896Z</time>
      </trkpt>
      <trkpt lat="40.120765" lon="-0.340874">
        <ele>810.1</ele>
        <time>2021-08-24T15:55:41.006Z</time>
      </trkpt>
      <trkpt lat="40.120797" lon="-0.340683">
        <ele>810.8</ele>
        <time>2021-08-24T15:55:50.853Z</time>
      </trkpt>
      <trkpt lat="40.120784" lon="-0.340492">
        <ele>811.5</ele>
        <time>2021-08-24T15:55:58.816Z</time>
      </trkpt>
      <trkpt lat="40.120714" lon="-0.340342">
        <ele>812.1</ele>
        <time>2021-08-24T15:56:07.280Z</time>
      </trkpt>
      <trkpt lat="40.120536" lon="-0.340151">
        <ele>813.3</ele>
        <time>2021-08-24T15:56:21.188Z</time>
      </trkpt>
      <trkpt lat="40.120161" lon="-0.339544">
        <ele>816.7</ele>
        <time>2021-08-24T15:57:00.169Z</time>
      </trkpt>
      <trkpt lat="40.119996" lon="-0.338746">
        <ele>820.3</ele>
        <time>2021-08-24T15:57:39.140Z</time>
      </trkpt>
      <trkpt lat="40.119888" lon="-0.338455">
        <ele>821.7</ele>
        <time>2021-08-24T15:57:52.855Z</time>
      </trkpt>
      <trkpt lat="40.119481" lon="-0.337781">
        <ele>824.7</ele>
        <time>2021-08-24T15:58:28.629Z</time>
      </trkpt>
      <trkpt lat="40.119296" lon="-0.336650">
        <ele>828.3</ele>
        <time>2021-08-24T15:59:13.193Z</time>
      </trkpt>
      <trkpt lat="40.119385" lon="-0.336393">
        <ele>829.1</ele>
        <time>2021-08-24T15:59:24.251Z</time>
      </trkpt>
      <trkpt lat="40.119398" lon="-0.336118">
        <ele>830.0</ele>
        <time>2021-08-24T15:59:34.573Z</time>
      </trkpt>
      <trkpt lat="40.119213" lon="-0.335719">
        <ele>832.0</ele>
        <time>2021-08-24T15:59:52.606Z</time>
      </trkpt>
      <trkpt lat="40.119174" lon="-0.335637">
        <ele>832.4</ele>
        <time>2021-08-24T15:59:57.342Z</time>
      </trkpt>
      <trkpt lat="40.119106" lon="-0.335495">
        <ele>833.2</ele>
        <time>2021-08-24T16:00:02.815Z</time>
      </trkpt>
      <trkpt lat="40.119156" lon="-0.335212">
        <ele>834.6</ele>
        <time>2021-08-24T16:00:16.184Z</time>
      </trkpt>
      <trkpt lat="40.119290" lon="-0.334979">
        <ele>835.9</ele>
        <time>2021-08-24T16:00:28.308Z</time>
      </trkpt>
      <trkpt lat="40.119792" lon="-0.334879">
        <ele>839.0</ele>
        <time>2021-08-24T16:01:02.286Z</time>
      </trkpt>
      <trkpt lat="40.120212" lon="-0.335021">
        <ele>842.0</ele>
        <time>2021-08-24T16:01:33.076Z</time>
      </trkpt>
      <trkpt lat="40.120466" lon="-0.335254">
        <ele>845.3</ele>
        <time>2021-08-24T16:01:57.507Z</time>
      </trkpt>
      <trkpt lat="40.121108" lon="-0.336176">
        <ele>855.4</ele>
        <time>2021-08-24T16:03:23.912Z</time>
      </trkpt>
      <trkpt lat="40.122304" lon="-0.336958">
        <ele>866.0</ele>
        <time>2021-08-24T16:05:19.594Z</time>
      </trkpt>
      <trkpt lat="40.122399" lon="-0.337116">
        <ele>867.0</ele>
        <time>2021-08-24T16:05:27.934Z</time>
      </trkpt>
      <trkpt lat="40.122650" lon="-0.337707">
        <ele>870.3</ele>
        <time>2021-08-24T16:05:55.539Z</time>
      </trkpt>
      <trkpt lat="40.122882" lon="-0.338292">
        <ele>897.5</ele>
        <time>2021-08-24T16:05:57.151Z</time>
      </trkpt>
      <trkpt lat="40.123166" lon="-0.338749">
        <ele>903.3</ele>
        <time>2021-08-24T16:05:58.457Z</time>
      </trkpt>
      <trkpt lat="40.123405" lon="-0.339134">
        <ele>900.1</ele>
        <time>2021-08-24T16:05:59.551Z</time>
      </trkpt>
      <trkpt lat="40.123665" lon="-0.339530">
        <ele>891.2</ele>
        <time>2021-08-24T16:06:09.432Z</time>
      </trkpt>
      <trkpt lat="40.124106" lon="-0.339549">
        <ele>870.6</ele>
        <time>2021-08-24T16:06:21.054Z</time>
      </trkpt>
      <trkpt lat="40.124585" lon="-0.338925">
        <ele>904.7</ele>
        <time>2021-08-24T16:06:39.095Z</time>
      </trkpt>
      <trkpt lat="40.125098" lon="-0.338669">
        <ele>873.8</ele>
        <time>2021-08-24T16:06:54.046Z</time>
      </trkpt>
      <trkpt lat="40.125973" lon="-0.338580">
        <ele>881.8</ele>
        <time>2021-08-24T16:07:15.432Z</time>
      </trkpt>
      <trkpt lat="40.126629" lon="-0.338161">
        <ele>884.4</ele>
        <time>2021-08-24T16:07:33.175Z</time>
      </trkpt>
      <trkpt lat="40.126756" lon="-0.337952">
        <ele>886.4</ele>
        <time>2021-08-24T16:07:38.155Z</time>
      </trkpt>
      <trkpt lat="40.126266" lon="-0.337151">
        <ele>885.2</ele>
        <time>2021-08-24T16:07:57.212Z</time>
      </trkpt>
      <trkpt lat="40.126319" lon="-0.336647">
        <ele>881.6</ele>
        <time>2021-08-24T16:08:06.697Z</time>
      </trkpt>
      <trkpt lat="40.125939" lon="-0.335334">
        <ele>867.4</ele>
        <time>2021-08-24T16:08:32.962Z</time>
      </trkpt>
      <trkpt lat="40.125877" lon="-0.334535">
        <ele>866.5</ele>
        <time>2021-08-24T16:08:47.890Z</time>
      </trkpt>
      <trkpt lat="40.125974" lon="-0.334477">
        <ele>867.0</ele>
        <time>2021-08-24T16:08:55.862Z</time>
      </trkpt>
      <trkpt lat="40.126023" lon="-0.334390">
        <ele>867.4</ele>
        <time>2021-08-24T16:09:02.167Z</time>
      </trkpt>
      <trkpt lat="40.126176" lon="-0.334238">
        <ele>868.3</ele>
        <time>2021-08-24T16:09:13.246Z</time>
      </trkpt>
      <trkpt lat="40.126392" lon="-0.334161">
        <ele>869.4</ele>
        <time>2021-08-24T16:09:30.304Z</time>
      </trkpt>
      <trkpt lat="40.126657" lon="-0.333702">
        <ele>871.9</ele>
        <time>2021-08-24T16:09:58.181Z</time>
      </trkpt>
      <trkpt lat="40.127066" lon="-0.333291">
        <ele>874.8</ele>
        <time>2021-08-24T16:10:32.633Z</time>
      </trkpt>
      <trkpt lat="40.127129" lon="-0.332950">
        <ele>876.4</ele>
        <time>2021-08-24T16:10:48.527Z</time>
      </trkpt>
      <trkpt lat="40.127048" lon="-0.332750">
        <ele>877.4</ele>
        <time>2021-08-24T16:10:58.347Z</time>
      </trkpt>
      <trkpt lat="40.126855" lon="-0.332568">
        <ele>878.7</ele>
        <time>2021-08-24T16:11:10.407Z</time>
      </trkpt>
      <trkpt lat="40.126347" lon="-0.332562">
        <ele>879.2</ele>
        <time>2021-08-24T16:11:33.755Z</time>
      </trkpt>
      <trkpt lat="40.126248" lon="-0.332515">
        <ele>879.2</ele>
        <time>2021-08-24T16:11:37.830Z</time>
      </trkpt>
      <trkpt lat="40.126109" lon="-0.332321">
        <ele>879.2</ele>
        <time>2021-08-24T16:11:45.981Z</time>
      </trkpt>
      <trkpt lat="40.125551" lon="-0.332244">
        <ele>879.3</ele>
        <time>2021-08-24T16:12:03.505Z</time>
      </trkpt>
      <trkpt lat="40.125376" lon="-0.332315">
        <ele>879.3</ele>
        <time>2021-08-24T16:12:08.587Z</time>
      </trkpt>
      <trkpt lat="40.124823" lon="-0.332791">
        <ele>877.4</ele>
        <time>2021-08-24T16:12:25.400Z</time>
      </trkpt>
      <trkpt lat="40.124616" lon="-0.332797">
        <ele>876.2</ele>
        <time>2021-08-24T16:12:30.401Z</time>
      </trkpt>
      <trkpt lat="40.123857" lon="-0.332532">
        <ele>871.8</ele>
        <time>2021-08-24T16:12:48.612Z</time>
      </trkpt>
      <trkpt lat="40.123344" lon="-0.332168">
        <ele>868.5</ele>
        <time>2021-08-24T16:13:01.791Z</time>
      </trkpt>
      <trkpt lat="40.122894" lon="-0.332103">
        <ele>866.0</ele>
        <time>2021-08-24T16:13:12.175Z</time>
      </trkpt>
      <trkpt lat="40.122773" lon="-0.331986">
        <ele>865.1</ele>
        <time>2021-08-24T16:13:15.800Z</time>
      </trkpt>
      <trkpt lat="40.122671" lon="-0.331880">
        <ele>864.4</ele>
        <time>2021-08-24T16:13:18.673Z</time>
      </trkpt>
      <trkpt lat="40.122472" lon="-0.331674">
        <ele>863.0</ele>
        <time>2021-08-24T16:13:24.819Z</time>
      </trkpt>
      <trkpt lat="40.121208" lon="-0.330528">
        <ele>856.8</ele>
        <time>2021-08-24T16:14:02.696Z</time>
      </trkpt>
      <trkpt lat="40.121033" lon="-0.330433">
        <ele>856.3</ele>
        <time>2021-08-24T16:14:08.000Z</time>
      </trkpt>
      <trkpt lat="40.120471" lon="-0.329928">
        <ele>854.4</ele>
        <time>2021-08-24T16:14:27.309Z</time>
      </trkpt>
      <trkpt lat="40.120085" lon="-0.329704">
        <ele>854.7</ele>
        <time>2021-08-24T16:14:39.710Z</time>
      </trkpt>
      <trkpt lat="40.119968" lon="-0.329569">
        <ele>855.0</ele>
        <time>2021-08-24T16:14:44.275Z</time>
      </trkpt>
      <trkpt lat="40.119950" lon="-0.329434">
        <ele>855.1</ele>
        <time>2021-08-24T16:14:47.728Z</time>
      </trkpt>
      <trkpt lat="40.120143" lon="-0.328106">
        <ele>856.7</ele>
        <time>2021-08-24T16:15:31.597Z</time>
      </trkpt>
      <trkpt lat="40.120224" lon="-0.327838">
        <ele>857.3</ele>
        <time>2021-08-24T16:15:44.797Z</time>
      </trkpt>
      <trkpt lat="40.120310" lon="-0.327707">
        <ele>858.0</ele>
        <time>2021-08-24T16:15:50.509Z</time>
      </trkpt>
      <trkpt lat="40.120369" lon="-0.327542">
        <ele>858.7</ele>
        <time>2021-08-24T16:15:59.084Z</time>
      </trkpt>
      <trkpt lat="40.120240" lon="-0.327543">
        <ele>859.4</ele>
        <time>2021-08-24T16:16:07.053Z</time>
      </trkpt>
      <trkpt lat="40.119720" lon="-0.327412">
        <ele>862.3</ele>
        <time>2021-08-24T16:16:35.707Z</time>
      </trkpt>
      <trkpt lat="40.119711" lon="-0.327398">
        <ele>862.4</ele>
        <time>2021-08-24T16:16:37.747Z</time>
      </trkpt>
      <trkpt lat="40.119648" lon="-0.327293">
        <ele>863.0</ele>
        <time>2021-08-24T16:16:44.807Z</time>
      </trkpt>
      <trkpt lat="40.119636" lon="-0.326943">
        <ele>864.4</ele>
        <time>2021-08-24T16:17:00.702Z</time>
      </trkpt>
      <trkpt lat="40.119737" lon="-0.326376">
        <ele>866.8</ele>
        <time>2021-08-24T16:17:30.371Z</time>
      </trkpt>
      <trkpt lat="40.119765" lon="-0.325416">
        <ele>870.6</ele>
        <time>2021-08-24T16:18:16.690Z</time>
      </trkpt>
      <trkpt lat="40.119712" lon="-0.325113">
        <ele>871.8</ele>
        <time>2021-08-24T16:18:29.278Z</time>
      </trkpt>
      <trkpt lat="40.119459" lon="-0.324678">
        <ele>874.0</ele>
        <time>2021-08-24T16:18:51.608Z</time>
      </trkpt>
      <trkpt lat="40.119439" lon="-0.324294">
        <ele>875.5</ele>
        <time>2021-08-24T16:19:07.331Z</time>
      </trkpt>
      <trkpt lat="40.119365" lon="-0.324093">
        <ele>876.2</ele>
        <time>2021-08-24T16:19:16.301Z</time>
      </trkpt>
      <trkpt lat="40.119351" lon="-0.323822">
        <ele>876.8</ele>
        <time>2021-08-24T16:19:27.067Z</time>
      </trkpt>
      <trkpt lat="40.119446" lon="-0.322924">
        <ele>879.1</ele>
        <time>2021-08-24T16:20:01.122Z</time>
      </trkpt>
      <trkpt lat="40.119581" lon="-0.322568">
        <ele>880.1</ele>
        <time>2021-08-24T16:20:15.362Z</time>
      </trkpt>
      <trkpt lat="40.119701" lon="-0.322512">
        <ele>880.5</ele>
        <time>2021-08-24T16:20:21.174Z</time>
      </trkpt>
      <trkpt lat="40.120055" lon="-0.322526">
        <ele>881.6</ele>
        <time>2021-08-24T16:20:36.909Z</time>
      </trkpt>
      <trkpt lat="40.120352" lon="-0.322392">
        <ele>882.1</ele>
        <time>2021-08-24T16:20:50.416Z</time>
      </trkpt>
      <trkpt lat="40.120433" lon="-0.322295">
        <ele>882.3</ele>
        <time>2021-08-24T16:20:55.018Z</time>
      </trkpt>
      <trkpt lat="40.120416" lon="-0.322234">
        <ele>882.4</ele>
        <time>2021-08-24T16:20:57.051Z</time>
      </trkpt>
      <trkpt lat="40.120316" lon="-0.322165">
        <ele>882.5</ele>
        <time>2021-08-24T16:21:01.697Z</time>
      </trkpt>
      <trkpt lat="40.120168" lon="-0.322174">
        <ele>882.7</ele>
        <time>2021-08-24T16:21:07.657Z</time>
      </trkpt>
      <trkpt lat="40.119862" lon="-0.322141">
        <ele>883.2</ele>
        <time>2021-08-24T16:21:19.646Z</time>
      </trkpt>
      <trkpt lat="40.119808" lon="-0.322082">
        <ele>883.3</ele>
        <time>2021-08-24T16:21:22.348Z</time>
      </trkpt>
      <trkpt lat="40.119309" lon="-0.321697">
        <ele>884.1</ele>
        <time>2021-08-24T16:21:43.516Z</time>
      </trkpt>
      <trkpt lat="40.119218" lon="-0.321659">
        <ele>884.3</ele>
        <time>2021-08-24T16:21:46.930Z</time>
      </trkpt>
      <trkpt lat="40.119908" lon="-0.320597">
        <ele>884.3</ele>
        <time>2021-08-24T16:22:23.239Z</time>
      </trkpt>
      <trkpt lat="40.120585" lon="-0.319558">
        <ele>883.6</ele>
        <time>2021-08-24T16:22:54.557Z</time>
      </trkpt>
      <trkpt lat="40.120750" lon="-0.319432">
        <ele>883.1</ele>
        <time>2021-08-24T16:22:59.988Z</time>
      </trkpt>
      <trkpt lat="40.121019" lon="-0.319373">
        <ele>882.5</ele>
        <time>2021-08-24T16:23:07.557Z</time>
      </trkpt>
      <trkpt lat="40.121119" lon="-0.319275">
        <ele>882.1</ele>
        <time>2021-08-24T16:23:11.020Z</time>
      </trkpt>
      <trkpt lat="40.122207" lon="-0.317878">
        <ele>877.4</ele>
        <time>2021-08-24T16:23:49.776Z</time>
      </trkpt>
      <trkpt lat="40.122593" lon="-0.317053">
        <ele>874.2</ele>
        <time>2021-08-24T16:24:07.683Z</time>
      </trkpt>
      <trkpt lat="40.122769" lon="-0.316378">
        <ele>872.0</ele>
        <time>2021-08-24T16:24:21.012Z</time>
      </trkpt>
      <trkpt lat="40.123181" lon="-0.315664">
        <ele>869.7</ele>
        <time>2021-08-24T16:24:38.125Z</time>
      </trkpt>
      <trkpt lat="40.123419" lon="-0.314950">
        <ele>867.8</ele>
        <time>2021-08-24T16:24:53.627Z</time>
      </trkpt>
      <trkpt lat="40.123660" lon="-0.314561">
        <ele>866.5</ele>
        <time>2021-08-24T16:25:03.873Z</time>
      </trkpt>
      <trkpt lat="40.123815" lon="-0.314101">
        <ele>865.7</ele>
        <time>2021-08-24T16:25:14.312Z</time>
      </trkpt>
      <trkpt lat="40.123957" lon="-0.313384">
        <ele>864.5</ele>
        <time>2021-08-24T16:25:29.904Z</time>
      </trkpt>
      <trkpt lat="40.124194" lon="-0.312850">
        <ele>863.6</ele>
        <time>2021-08-24T16:25:42.990Z</time>
      </trkpt>
      <trkpt lat="40.124503" lon="-0.311898">
        <ele>861.7</ele>
        <time>2021-08-24T16:26:04.890Z</time>
      </trkpt>
      <trkpt lat="40.124870" lon="-0.310980">
        <ele>859.5</ele>
        <time>2021-08-24T16:26:26.232Z</time>
      </trkpt>
      <trkpt lat="40.125292" lon="-0.310213">
        <ele>857.3</ele>
        <time>2021-08-24T16:26:44.542Z</time>
      </trkpt>
      <trkpt lat="40.125440" lon="-0.309803">
        <ele>855.3</ele>
        <time>2021-08-24T16:26:53.071Z</time>
      </trkpt>
      <trkpt lat="40.125517" lon="-0.309708">
        <ele>854.7</ele>
        <time>2021-08-24T16:26:55.695Z</time>
      </trkpt>
      <trkpt lat="40.125730" lon="-0.309534">
        <ele>853.2</ele>
        <time>2021-08-24T16:27:01.649Z</time>
      </trkpt>
      <trkpt lat="40.125935" lon="-0.309292">
        <ele>851.6</ele>
        <time>2021-08-24T16:27:08.160Z</time>
      </trkpt>
      <trkpt lat="40.126313" lon="-0.308414">
        <ele>847.1</ele>
        <time>2021-08-24T16:27:25.746Z</time>
      </trkpt>
      <trkpt lat="40.126760" lon="-0.307902">
        <ele>841.2</ele>
        <time>2021-08-24T16:27:38.991Z</time>
      </trkpt>
      <trkpt lat="40.127343" lon="-0.306477">
        <ele>828.9</ele>
        <time>2021-08-24T16:28:05.256Z</time>
      </trkpt>
      <trkpt lat="40.127529" lon="-0.305694">
        <ele>786.9</ele>
        <time>2021-08-24T16:28:10.784Z</time>
      </trkpt>
      <trkpt lat="40.127302" lon="-0.304919">
        <ele>810.4</ele>
        <time>2021-08-24T16:28:15.833Z</time>
      </trkpt>
      <trkpt lat="40.127212" lon="-0.304597">
        <ele>807.8</ele>
        <time>2021-08-24T16:28:17.823Z</time>
      </trkpt>
      <trkpt lat="40.127364" lon="-0.304122">
        <ele>802.2</ele>
        <time>2021-08-24T16:28:20.818Z</time>
      </trkpt>
      <trkpt lat="40.127113" lon="-0.303891">
        <ele>782.5</ele>
        <time>2021-08-24T16:28:23.494Z</time>
      </trkpt>
      <trkpt lat="40.126910" lon="-0.303958">
        <ele>801.8</ele>
        <time>2021-08-24T16:28:25.550Z</time>
      </trkpt>
      <trkpt lat="40.126724" lon="-0.303995">
        <ele>810.3</ele>
        <time>2021-08-24T16:28:27.079Z</time>
      </trkpt>
      <trkpt lat="40.126745" lon="-0.303743">
        <ele>804.9</ele>
        <time>2021-08-24T16:28:28.587Z</time>
      </trkpt>
      <trkpt lat="40.126931" lon="-0.303662">
        <ele>796.0</ele>
        <time>2021-08-24T16:28:30.180Z</time>
      </trkpt>
      <trkpt lat="40.126999" lon="-0.303464">
        <ele>789.7</ele>
        <time>2021-08-24T16:28:31.507Z</time>
      </trkpt>
      <trkpt lat="40.126779" lon="-0.303446">
        <ele>797.9</ele>
        <time>2021-08-24T16:28:33.262Z</time>
      </trkpt>
      <trkpt lat="40.126580" lon="-0.303257">
        <ele>799.7</ele>
        <time>2021-08-24T16:28:35.124Z</time>
      </trkpt>
      <trkpt lat="40.126573" lon="-0.302952">
        <ele>795.9</ele>
        <time>2021-08-24T16:28:36.908Z</time>
      </trkpt>
      <trkpt lat="40.126601" lon="-0.302700">
        <ele>792.8</ele>
        <time>2021-08-24T16:28:38.392Z</time>
      </trkpt>
      <trkpt lat="40.126738" lon="-0.302556">
        <ele>788.5</ele>
        <time>2021-08-24T16:28:39.753Z</time>
      </trkpt>
      <trkpt lat="40.126924" lon="-0.302592">
        <ele>782.9</ele>
        <time>2021-08-24T16:28:41.220Z</time>
      </trkpt>
      <trkpt lat="40.127041" lon="-0.302718">
        <ele>780.4</ele>
        <time>2021-08-24T16:28:42.375Z</time>
      </trkpt>
      <trkpt lat="40.127144" lon="-0.302862">
        <ele>778.2</ele>
        <time>2021-08-24T16:28:43.523Z</time>
      </trkpt>
      <trkpt lat="40.127322" lon="-0.302817">
        <ele>771.8</ele>
        <time>2021-08-24T16:28:44.963Z</time>
      </trkpt>
      <trkpt lat="40.127412" lon="-0.302646">
        <ele>767.8</ele>
        <time>2021-08-24T16:28:46.190Z</time>
      </trkpt>
      <trkpt lat="40.127467" lon="-0.302430">
        <ele>764.3</ele>
        <time>2021-08-24T16:28:47.525Z</time>
      </trkpt>
      <trkpt lat="40.127467" lon="-0.302017">
        <ele>759.7</ele>
        <time>2021-08-24T16:28:49.932Z</time>
      </trkpt>
      <trkpt lat="40.127329" lon="-0.301882">
        <ele>761.8</ele>
        <time>2021-08-24T16:28:51.238Z</time>
      </trkpt>
      <trkpt lat="40.127178" lon="-0.301801">
        <ele>764.7</ele>
        <time>2021-08-24T16:28:52.487Z</time>
      </trkpt>
      <trkpt lat="40.127041" lon="-0.301702">
        <ele>766.6</ele>
        <time>2021-08-24T16:28:53.679Z</time>
      </trkpt>
      <trkpt lat="40.126869" lon="-0.301630">
        <ele>769.4</ele>
        <time>2021-08-24T16:28:55.055Z</time>
      </trkpt>
      <trkpt lat="40.126903" lon="-0.301397">
        <ele>761.8</ele>
        <time>2021-08-24T16:28:56.521Z</time>
      </trkpt>
      <trkpt lat="40.127054" lon="-0.301477">
        <ele>761.2</ele>
        <time>2021-08-24T16:28:57.756Z</time>
      </trkpt>
      <trkpt lat="40.127185" lon="-0.301585">
        <ele>760.8</ele>
        <time>2021-08-24T16:28:58.923Z</time>
      </trkpt>
      <trkpt lat="40.127384" lon="-0.301522">
        <ele>755.4</ele>
        <time>2021-08-24T16:29:00.514Z</time>
      </trkpt>
      <trkpt lat="40.127501" lon="-0.301397">
        <ele>751.6</ele>
        <time>2021-08-24T16:29:01.686Z</time>
      </trkpt>
      <trkpt lat="40.127618" lon="-0.301262">
        <ele>751.6</ele>
        <time>2021-08-24T16:29:02.863Z</time>
      </trkpt>
      <trkpt lat="40.127783" lon="-0.301379">
        <ele>755.6</ele>
        <time>2021-08-24T16:29:04.306Z</time>
      </trkpt>
      <trkpt lat="40.127872" lon="-0.301585">
        <ele>759.5</ele>
        <time>2021-08-24T16:29:05.702Z</time>
      </trkpt>
      <trkpt lat="40.127955" lon="-0.301756">
        <ele>761.9</ele>
        <time>2021-08-24T16:29:06.881Z</time>
      </trkpt>
      <trkpt lat="40.128078" lon="-0.301873">
        <ele>763.9</ele>
        <time>2021-08-24T16:29:08.041Z</time>
      </trkpt>
      <trkpt lat="40.128175" lon="-0.302026">
        <ele>765.1</ele>
        <time>2021-08-24T16:29:09.187Z</time>
      </trkpt>
      <trkpt lat="40.128292" lon="-0.302152">
        <ele>766.1</ele>
        <time>2021-08-24T16:29:10.332Z</time>
      </trkpt>
      <trkpt lat="40.128415" lon="-0.302340">
        <ele>770.0</ele>
        <time>2021-08-24T16:29:11.791Z</time>
      </trkpt>
      <trkpt lat="40.128498" lon="-0.302592">
        <ele>774.3</ele>
        <time>2021-08-24T16:29:13.400Z</time>
      </trkpt>
      <trkpt lat="40.128498" lon="-0.302871">
        <ele>774.9</ele>
        <time>2021-08-24T16:29:15.009Z</time>
      </trkpt>
      <trkpt lat="40.128525" lon="-0.303194">
        <ele>776.7</ele>
        <time>2021-08-24T16:29:16.893Z</time>
      </trkpt>
      <trkpt lat="40.128573" lon="-0.303419">
        <ele>779.1</ele>
        <time>2021-08-24T16:29:18.251Z</time>
      </trkpt>
      <trkpt lat="40.128601" lon="-0.303662">
        <ele>779.8</ele>
        <time>2021-08-24T16:29:19.668Z</time>
      </trkpt>
      <trkpt lat="40.128766" lon="-0.303725">
        <ele>787.3</ele>
        <time>2021-08-24T16:29:21.063Z</time>
      </trkpt>
      <trkpt lat="40.128952" lon="-0.303761">
        <ele>795.7</ele>
        <time>2021-08-24T16:29:22.589Z</time>
      </trkpt>
      <trkpt lat="40.129055" lon="-0.303599">
        <ele>800.9</ele>
        <time>2021-08-24T16:29:23.857Z</time>
      </trkpt>
      <trkpt lat="40.129117" lon="-0.303309">
        <ele>777.1</ele>
        <time>2021-08-24T16:29:26.234Z</time>
      </trkpt>
      <trkpt lat="40.129395" lon="-0.302792">
        <ele>776.0</ele>
        <time>2021-08-24T16:29:34.134Z</time>
      </trkpt>
      <trkpt lat="40.129512" lon="-0.301804">
        <ele>775.9</ele>
        <time>2021-08-24T16:30:03.737Z</time>
      </trkpt>
      <trkpt lat="40.129701" lon="-0.301604">
        <ele>778.2</ele>
        <time>2021-08-24T16:30:16.800Z</time>
      </trkpt>
      <trkpt lat="40.129944" lon="-0.301192">
        <ele>781.9</ele>
        <time>2021-08-24T16:30:41.744Z</time>
      </trkpt>
      <trkpt lat="40.130429" lon="-0.300816">
        <ele>787.3</ele>
        <time>2021-08-24T16:31:24.056Z</time>
      </trkpt>
      <trkpt lat="40.130699" lon="-0.300699">
        <ele>790.0</ele>
        <time>2021-08-24T16:31:48.643Z</time>
      </trkpt>
      <trkpt lat="40.130798" lon="-0.300569">
        <ele>791.3</ele>
        <time>2021-08-24T16:32:02.098Z</time>
      </trkpt>
      <trkpt lat="40.131104" lon="-0.299440">
        <ele>799.7</ele>
        <time>2021-08-24T16:33:16.727Z</time>
      </trkpt>
      <trkpt lat="40.131324" lon="-0.299230">
        <ele>802.2</ele>
        <time>2021-08-24T16:33:35.575Z</time>
      </trkpt>
      <trkpt lat="40.131398" lon="-0.299159">
        <ele>803.1</ele>
        <time>2021-08-24T16:33:40.297Z</time>
      </trkpt>
      <trkpt lat="40.131447" lon="-0.298995">
        <ele>804.3</ele>
        <time>2021-08-24T16:33:50.601Z</time>
      </trkpt>
      <trkpt lat="40.131632" lon="-0.298598">
        <ele>807.6</ele>
        <time>2021-08-24T16:34:11.569Z</time>
      </trkpt>
      <trkpt lat="40.131947" lon="-0.298174">
        <ele>806.9</ele>
        <time>2021-08-24T16:34:31.449Z</time>
      </trkpt>
      <trkpt lat="40.132230" lon="-0.298021">
        <ele>806.0</ele>
        <time>2021-08-24T16:34:41.095Z</time>
      </trkpt>
      <trkpt lat="40.132355" lon="-0.297888">
        <ele>805.5</ele>
        <time>2021-08-24T16:34:45.356Z</time>
      </trkpt>
      <trkpt lat="40.132509" lon="-0.297537">
        <ele>804.5</ele>
        <time>2021-08-24T16:34:52.823Z</time>
      </trkpt>
      <trkpt lat="40.132517" lon="-0.297286">
        <ele>803.9</ele>
        <time>2021-08-24T16:34:57.243Z</time>
      </trkpt>
      <trkpt lat="40.132445" lon="-0.297103">
        <ele>803.4</ele>
        <time>2021-08-24T16:35:00.751Z</time>
      </trkpt>
      <trkpt lat="40.132234" lon="-0.296891">
        <ele>802.6</ele>
        <time>2021-08-24T16:35:06.579Z</time>
      </trkpt>
      <trkpt lat="40.132109" lon="-0.296461">
        <ele>798.9</ele>
        <time>2021-08-24T16:35:14.083Z</time>
      </trkpt>
      <trkpt lat="40.131781" lon="-0.295721">
        <ele>791.9</ele>
        <time>2021-08-24T16:35:28.180Z</time>
      </trkpt>
      <trkpt lat="40.131505" lon="-0.295361">
        <ele>787.7</ele>
        <time>2021-08-24T16:35:36.344Z</time>
      </trkpt>
      <trkpt lat="40.131373" lon="-0.295247">
        <ele>786.0</ele>
        <time>2021-08-24T16:35:39.707Z</time>
      </trkpt>
      <trkpt lat="40.131279" lon="-0.295089">
        <ele>784.4</ele>
        <time>2021-08-24T16:35:42.779Z</time>
      </trkpt>
      <trkpt lat="40.131064" lon="-0.294615">
        <ele>779.3</ele>
        <time>2021-08-24T16:35:51.612Z</time>
      </trkpt>
      <trkpt lat="40.130668" lon="-0.294502">
        <ele>774.1</ele>
        <time>2021-08-24T16:36:00.023Z</time>
      </trkpt>
      <trkpt lat="40.130559" lon="-0.294550">
        <ele>772.7</ele>
        <time>2021-08-24T16:36:02.467Z</time>
      </trkpt>
      <trkpt lat="40.130507" lon="-0.294443">
        <ele>771.5</ele>
        <time>2021-08-24T16:36:04.360Z</time>
      </trkpt>
      <trkpt lat="40.130388" lon="-0.293940">
        <ele>766.4</ele>
        <time>2021-08-24T16:36:12.632Z</time>
      </trkpt>
      <trkpt lat="40.130309" lon="-0.293795">
        <ele>764.6</ele>
        <time>2021-08-24T16:36:15.647Z</time>
      </trkpt>
      <trkpt lat="40.129987" lon="-0.293512">
        <ele>759.9</ele>
        <time>2021-08-24T16:36:23.798Z</time>
      </trkpt>
      <trkpt lat="40.129922" lon="-0.293292">
        <ele>758.2</ele>
        <time>2021-08-24T16:36:27.426Z</time>
      </trkpt>
      <trkpt lat="40.129281" lon="-0.292645">
        <ele>750.3</ele>
        <time>2021-08-24T16:36:44.686Z</time>
      </trkpt>
      <trkpt lat="40.128891" lon="-0.292475">
        <ele>746.3</ele>
        <time>2021-08-24T16:36:53.818Z</time>
      </trkpt>
      <trkpt lat="40.128780" lon="-0.292372">
        <ele>745.0</ele>
        <time>2021-08-24T16:36:56.860Z</time>
      </trkpt>
      <trkpt lat="40.128496" lon="-0.291347">
        <ele>738.7</ele>
        <time>2021-08-24T16:37:15.852Z</time>
      </trkpt>
      <trkpt lat="40.128190" lon="-0.290786">
        <ele>735.1</ele>
        <time>2021-08-24T16:37:28.240Z</time>
      </trkpt>
      <trkpt lat="40.127967" lon="-0.290162">
        <ele>731.5</ele>
        <time>2021-08-24T16:37:40.463Z</time>
      </trkpt>
      <trkpt lat="40.127972" lon="-0.289846">
        <ele>729.3</ele>
        <time>2021-08-24T16:37:45.905Z</time>
      </trkpt>
      <trkpt lat="40.128024" lon="-0.289753">
        <ele>728.3</ele>
        <time>2021-08-24T16:37:47.861Z</time>
      </trkpt>
      <trkpt lat="40.128150" lon="-0.289691">
        <ele>726.8</ele>
        <time>2021-08-24T16:37:50.793Z</time>
      </trkpt>
      <trkpt lat="40.128520" lon="-0.289083">
        <ele>720.2</ele>
        <time>2021-08-24T16:38:03.496Z</time>
      </trkpt>
      <trkpt lat="40.128790" lon="-0.288801">
        <ele>716.4</ele>
        <time>2021-08-24T16:38:10.695Z</time>
      </trkpt>
      <trkpt lat="40.128758" lon="-0.288329">
        <ele>712.4</ele>
        <time>2021-08-24T16:38:18.184Z</time>
      </trkpt>
      <trkpt lat="40.128929" lon="-0.287515">
        <ele>702.1</ele>
        <time>2021-08-24T16:38:31.350Z</time>
      </trkpt>
      <trkpt lat="40.128830" lon="-0.286816">
        <ele>692.5</ele>
        <time>2021-08-24T16:38:42.043Z</time>
      </trkpt>
      <trkpt lat="40.128440" lon="-0.285759">
        <ele>677.0</ele>
        <time>2021-08-24T16:38:59.627Z</time>
      </trkpt>
      <trkpt lat="40.128261" lon="-0.285603">
        <ele>673.5</ele>
        <time>2021-08-24T16:39:03.876Z</time>
      </trkpt>
      <trkpt lat="40.128219" lon="-0.285565">
        <ele>672.7</ele>
        <time>2021-08-24T16:39:04.883Z</time>
      </trkpt>
      <trkpt lat="40.128103" lon="-0.285411">
        <ele>670.0</ele>
        <time>2021-08-24T16:39:08.258Z</time>
      </trkpt>
      <trkpt lat="40.127578" lon="-0.285006">
        <ele>660.1</ele>
        <time>2021-08-24T16:39:20.381Z</time>
      </trkpt>
      <trkpt lat="40.127514" lon="-0.284720">
        <ele>656.4</ele>
        <time>2021-08-24T16:39:24.984Z</time>
      </trkpt>
      <trkpt lat="40.127575" lon="-0.284626">
        <ele>654.9</ele>
        <time>2021-08-24T16:39:26.034Z</time>
      </trkpt>
      <trkpt lat="40.127681" lon="-0.284123">
        <ele>649.5</ele>
        <time>2021-08-24T16:39:30.635Z</time>
      </trkpt>
      <trkpt lat="40.127797" lon="-0.283910">
        <ele>648.3</ele>
        <time>2021-08-24T16:39:33.034Z</time>
      </trkpt>
      <trkpt lat="40.127878" lon="-0.283842">
        <ele>647.8</ele>
        <time>2021-08-24T16:39:34.307Z</time>
      </trkpt>
      <trkpt lat="40.127739" lon="-0.283846">
        <ele>647.0</ele>
        <time>2021-08-24T16:39:37.349Z</time>
      </trkpt>
      <trkpt lat="40.127662" lon="-0.283846">
        <ele>646.5</ele>
        <time>2021-08-24T16:39:39.094Z</time>
      </trkpt>
      <trkpt lat="40.127569" lon="-0.283939">
        <ele>645.9</ele>
        <time>2021-08-24T16:39:41.856Z</time>
      </trkpt>
      <trkpt lat="40.127460" lon="-0.284278">
        <ele>644.2</ele>
        <time>2021-08-24T16:39:48.347Z</time>
      </trkpt>
      <trkpt lat="40.127359" lon="-0.284386">
        <ele>643.5</ele>
        <time>2021-08-24T16:39:51.632Z</time>
      </trkpt>
      <trkpt lat="40.127238" lon="-0.284410">
        <ele>642.8</ele>
        <time>2021-08-24T16:39:54.709Z</time>
      </trkpt>
      <trkpt lat="40.126804" lon="-0.285129">
        <ele>640.0</ele>
        <time>2021-08-24T16:40:15.255Z</time>
      </trkpt>
      <trkpt lat="40.126618" lon="-0.285340">
        <ele>640.3</ele>
        <time>2021-08-24T16:40:24.518Z</time>
      </trkpt>
      <trkpt lat="40.126492" lon="-0.285647">
        <ele>640.7</ele>
        <time>2021-08-24T16:40:34.985Z</time>
      </trkpt>
      <trkpt lat="40.126274" lon="-0.286001">
        <ele>641.2</ele>
        <time>2021-08-24T16:40:48.877Z</time>
      </trkpt>
      <trkpt lat="40.126145" lon="-0.286098">
        <ele>641.4</ele>
        <time>2021-08-24T16:40:54.909Z</time>
      </trkpt>
      <trkpt lat="40.125749" lon="-0.286237">
        <ele>642.0</ele>
        <time>2021-08-24T16:41:13.074Z</time>
      </trkpt>
      <trkpt lat="40.125607" lon="-0.286395">
        <ele>642.2</ele>
        <time>2021-08-24T16:41:21.927Z</time>
      </trkpt>
      <trkpt lat="40.125320" lon="-0.286344">
        <ele>642.9</ele>
        <time>2021-08-24T16:41:35.101Z</time>
      </trkpt>
      <trkpt lat="40.125071" lon="-0.286380">
        <ele>643.6</ele>
        <time>2021-08-24T16:41:46.159Z</time>
      </trkpt>
      <trkpt lat="40.124871" lon="-0.286631">
        <ele>644.3</ele>
        <time>2021-08-24T16:41:58.504Z</time>
      </trkpt>
      <trkpt lat="40.124754" lon="-0.286984">
        <ele>645.1</ele>
        <time>2021-08-24T16:42:11.557Z</time>
      </trkpt>
      <trkpt lat="40.124349" lon="-0.287095">
        <ele>646.2</ele>
        <time>2021-08-24T16:42:28.911Z</time>
      </trkpt>
      <trkpt lat="40.123906" lon="-0.286999">
        <ele>647.7</ele>
        <time>2021-08-24T16:42:48.491Z</time>
      </trkpt>
      <trkpt lat="40.123803" lon="-0.287088">
        <ele>648.3</ele>
        <time>2021-08-24T16:42:54.388Z</time>
      </trkpt>
      <trkpt lat="40.123587" lon="-0.287546">
        <ele>650.4</ele>
        <time>2021-08-24T16:43:16.730Z</time>
      </trkpt>
      <trkpt lat="40.123474" lon="-0.287571">
        <ele>650.9</ele>
        <time>2021-08-24T16:43:23.449Z</time>
      </trkpt>
      <trkpt lat="40.123223" lon="-0.287453">
        <ele>652.3</ele>
        <time>2021-08-24T16:43:38.453Z</time>
      </trkpt>
      <trkpt lat="40.122669" lon="-0.287042">
        <ele>655.4</ele>
        <time>2021-08-24T16:44:16.867Z</time>
      </trkpt>
      <trkpt lat="40.122480" lon="-0.286902">
        <ele>656.9</ele>
        <time>2021-08-24T16:44:31.468Z</time>
      </trkpt>
      <trkpt lat="40.122190" lon="-0.286831">
        <ele>659.4</ele>
        <time>2021-08-24T16:44:52.137Z</time>
      </trkpt>
      <trkpt lat="40.121304" lon="-0.286784">
        <ele>666.7</ele>
        <time>2021-08-24T16:46:01.520Z</time>
      </trkpt>
      <trkpt lat="40.121137" lon="-0.286512">
        <ele>669.0</ele>
        <time>2021-08-24T16:46:22.977Z</time>
      </trkpt>
      <trkpt lat="40.120714" lon="-0.286062">
        <ele>672.6</ele>
        <time>2021-08-24T16:47:02.418Z</time>
      </trkpt>
      <trkpt lat="40.120645" lon="-0.285973">
        <ele>673.1</ele>
        <time>2021-08-24T16:47:08.633Z</time>
      </trkpt>
      <trkpt lat="40.120552" lon="-0.285211">
        <ele>676.4</ele>
        <time>2021-08-24T16:47:44.143Z</time>
      </trkpt>
      <trkpt lat="40.120476" lon="-0.285047">
        <ele>677.2</ele>
        <time>2021-08-24T16:47:52.374Z</time>
      </trkpt>
      <trkpt lat="40.119965" lon="-0.284593">
        <ele>680.7</ele>
        <time>2021-08-24T16:48:25.725Z</time>
      </trkpt>
      <trkpt lat="40.119894" lon="-0.284150">
        <ele>681.3</ele>
        <time>2021-08-24T16:48:41.596Z</time>
      </trkpt>
      <trkpt lat="40.119730" lon="-0.283971">
        <ele>681.6</ele>
        <time>2021-08-24T16:48:50.033Z</time>
      </trkpt>
      <trkpt lat="40.119894" lon="-0.283081">
        <ele>682.5</ele>
        <time>2021-08-24T16:49:16.484Z</time>
      </trkpt>
      <trkpt lat="40.119869" lon="-0.282888">
        <ele>682.7</ele>
        <time>2021-08-24T16:49:21.512Z</time>
      </trkpt>
      <trkpt lat="40.119691" lon="-0.282505">
        <ele>683.2</ele>
        <time>2021-08-24T16:49:32.792Z</time>
      </trkpt>
      <trkpt lat="40.119664" lon="-0.282276">
        <ele>683.1</ele>
        <time>2021-08-24T16:49:38.019Z</time>
      </trkpt>
      <trkpt lat="40.119508" lon="-0.282255">
        <ele>682.8</ele>
        <time>2021-08-24T16:49:44.048Z</time>
      </trkpt>
      <trkpt lat="40.119331" lon="-0.282038">
        <ele>682.4</ele>
        <time>2021-08-24T16:49:49.360Z</time>
      </trkpt>
      <trkpt lat="40.119109" lon="-0.281774">
        <ele>682.1</ele>
        <time>2021-08-24T16:49:55.613Z</time>
      </trkpt>
      <trkpt lat="40.119034" lon="-0.281710">
        <ele>644.9</ele>
        <time>2021-08-24T16:49:56.464Z</time>
      </trkpt>
      <trkpt lat="40.118968" lon="-0.281625">
        <ele>643.5</ele>
        <time>2021-08-24T16:50:00.125Z</time>
      </trkpt>
      <trkpt lat="40.118898" lon="-0.281461">
        <ele>681.4</ele>
        <time>2021-08-24T16:50:04.193Z</time>
      </trkpt>
      <trkpt lat="40.118854" lon="-0.281391">
        <ele>637.6</ele>
        <time>2021-08-24T16:50:13.849Z</time>
      </trkpt>
      <trkpt lat="40.118548" lon="-0.281038">
        <ele>632.0</ele>
        <time>2021-08-24T16:50:27.336Z</time>
      </trkpt>
      <trkpt lat="40.118102" lon="-0.280537">
        <ele>635.3</ele>
        <time>2021-08-24T16:50:45.944Z</time>
      </trkpt>
      <trkpt lat="40.117890" lon="-0.280085">
        <ele>634.3</ele>
        <time>2021-08-24T16:50:55.384Z</time>
      </trkpt>
      <trkpt lat="40.117742" lon="-0.279618">
        <ele>674.5</ele>
        <time>2021-08-24T16:51:04.381Z</time>
      </trkpt>
      <trkpt lat="40.117615" lon="-0.279243">
        <ele>673.4</ele>
        <time>2021-08-24T16:51:12.392Z</time>
      </trkpt>
      <trkpt lat="40.117490" lon="-0.279133">
        <ele>673.3</ele>
        <time>2021-08-24T16:51:16.503Z</time>
      </trkpt>
      <trkpt lat="40.117354" lon="-0.279096">
        <ele>673.1</ele>
        <time>2021-08-24T16:51:20.341Z</time>
      </trkpt>
      <trkpt lat="40.116947" lon="-0.279139">
        <ele>672.8</ele>
        <time>2021-08-24T16:51:32.221Z</time>
      </trkpt>
      <trkpt lat="40.116787" lon="-0.279086">
        <ele>672.6</ele>
        <time>2021-08-24T16:51:37.411Z</time>
      </trkpt>
      <trkpt lat="40.116726" lon="-0.279011">
        <ele>672.6</ele>
        <time>2021-08-24T16:51:40.040Z</time>
      </trkpt>
      <trkpt lat="40.116697" lon="-0.278367">
        <ele>672.1</ele>
        <time>2021-08-24T16:51:55.667Z</time>
      </trkpt>
      <trkpt lat="40.116402" lon="-0.277919">
        <ele>671.7</ele>
        <time>2021-08-24T16:52:10.165Z</time>
      </trkpt>
      <trkpt lat="40.116411" lon="-0.277754">
        <ele>671.6</ele>
        <time>2021-08-24T16:52:14.126Z</time>
      </trkpt>
      <trkpt lat="40.116783" lon="-0.276973">
        <ele>671.1</ele>
        <time>2021-08-24T16:52:35.237Z</time>
      </trkpt>
      <trkpt lat="40.116762" lon="-0.276816">
        <ele>671.0</ele>
        <time>2021-08-24T16:52:38.826Z</time>
      </trkpt>
      <trkpt lat="40.116153" lon="-0.276398">
        <ele>670.4</ele>
        <time>2021-08-24T16:52:59.455Z</time>
      </trkpt>
      <trkpt lat="40.115881" lon="-0.276110">
        <ele>669.3</ele>
        <time>2021-08-24T16:53:09.063Z</time>
      </trkpt>
      <trkpt lat="40.115671" lon="-0.275667">
        <ele>667.9</ele>
        <time>2021-08-24T16:53:19.439Z</time>
      </trkpt>
      <trkpt lat="40.115613" lon="-0.275415">
        <ele>667.2</ele>
        <time>2021-08-24T16:53:24.350Z</time>
      </trkpt>
      <trkpt lat="40.115637" lon="-0.274777">
        <ele>665.4</ele>
        <time>2021-08-24T16:53:35.845Z</time>
      </trkpt>
      <trkpt lat="40.115521" lon="-0.273788">
        <ele>663.0</ele>
        <time>2021-08-24T16:53:54.901Z</time>
      </trkpt>
      <trkpt lat="40.115428" lon="-0.273630">
        <ele>662.6</ele>
        <time>2021-08-24T16:54:00.336Z</time>
      </trkpt>
      <trkpt lat="40.115264" lon="-0.273448">
        <ele>662.1</ele>
        <time>2021-08-24T16:54:05.429Z</time>
      </trkpt>
      <trkpt lat="40.115202" lon="-0.273340">
        <ele>661.9</ele>
        <time>2021-08-24T16:54:09.928Z</time>
      </trkpt>
      <trkpt lat="40.114554" lon="-0.272997">
        <ele>660.2</ele>
        <time>2021-08-24T16:54:28.674Z</time>
      </trkpt>
      <trkpt lat="40.114220" lon="-0.272661">
        <ele>659.5</ele>
        <time>2021-08-24T16:54:40.840Z</time>
      </trkpt>
      <trkpt lat="40.113976" lon="-0.271855">
        <ele>659.1</ele>
        <time>2021-08-24T16:55:01.524Z</time>
      </trkpt>
      <trkpt lat="40.113979" lon="-0.271754">
        <ele>659.1</ele>
        <time>2021-08-24T16:55:03.950Z</time>
      </trkpt>
      <trkpt lat="40.114046" lon="-0.271690">
        <ele>659.0</ele>
        <time>2021-08-24T16:55:06.515Z</time>
      </trkpt>
      <trkpt lat="40.114717" lon="-0.271663">
        <ele>658.7</ele>
        <time>2021-08-24T16:55:26.660Z</time>
      </trkpt>
      <trkpt lat="40.114918" lon="-0.271559">
        <ele>658.7</ele>
        <time>2021-08-24T16:55:33.226Z</time>
      </trkpt>
      <trkpt lat="40.115106" lon="-0.271320">
        <ele>659.1</ele>
        <time>2021-08-24T16:55:41.390Z</time>
      </trkpt>
      <trkpt lat="40.115183" lon="-0.271286">
        <ele>659.3</ele>
        <time>2021-08-24T16:55:44.030Z</time>
      </trkpt>
      <trkpt lat="40.115261" lon="-0.271355">
        <ele>659.4</ele>
        <time>2021-08-24T16:55:46.986Z</time>
      </trkpt>
      <trkpt lat="40.115358" lon="-0.271681">
        <ele>659.9</ele>
        <time>2021-08-24T16:55:56.467Z</time>
      </trkpt>
      <trkpt lat="40.115444" lon="-0.271738">
        <ele>660.1</ele>
        <time>2021-08-24T16:55:59.889Z</time>
      </trkpt>
      <trkpt lat="40.115821" lon="-0.271662">
        <ele>660.7</ele>
        <time>2021-08-24T16:56:15.647Z</time>
      </trkpt>
      <trkpt lat="40.115939" lon="-0.271582">
        <ele>661.0</ele>
        <time>2021-08-24T16:56:21.799Z</time>
      </trkpt>
      <trkpt lat="40.116069" lon="-0.271590">
        <ele>661.2</ele>
        <time>2021-08-24T16:56:27.865Z</time>
      </trkpt>
      <trkpt lat="40.116608" lon="-0.271861">
        <ele>663.3</ele>
        <time>2021-08-24T16:56:58.146Z</time>
      </trkpt>
      <trkpt lat="40.117277" lon="-0.272097">
        <ele>667.3</ele>
        <time>2021-08-24T16:57:40.636Z</time>
      </trkpt>
      <trkpt lat="40.117468" lon="-0.272131">
        <ele>668.4</ele>
        <time>2021-08-24T16:57:53.316Z</time>
      </trkpt>
      <trkpt lat="40.117672" lon="-0.272056">
        <ele>669.7</ele>
        <time>2021-08-24T16:58:07.541Z</time>
      </trkpt>
      <trkpt lat="40.117909" lon="-0.271834">
        <ele>671.3</ele>
        <time>2021-08-24T16:58:27.000Z</time>
      </trkpt>
      <trkpt lat="40.118459" lon="-0.271921">
        <ele>674.3</ele>
        <time>2021-08-24T16:59:01.757Z</time>
      </trkpt>
      <trkpt lat="40.118693" lon="-0.271736">
        <ele>675.7</ele>
        <time>2021-08-24T16:59:18.052Z</time>
      </trkpt>
      <trkpt lat="40.118841" lon="-0.271447">
        <ele>677.1</ele>
        <time>2021-08-24T16:59:33.558Z</time>
      </trkpt>
      <trkpt lat="40.118876" lon="-0.271072">
        <ele>678.6</ele>
        <time>2021-08-24T16:59:49.876Z</time>
      </trkpt>
      <trkpt lat="40.119099" lon="-0.270515">
        <ele>681.0</ele>
        <time>2021-08-24T17:00:16.430Z</time>
      </trkpt>
      <trkpt lat="40.119209" lon="-0.269930">
        <ele>682.3</ele>
        <time>2021-08-24T17:00:39.202Z</time>
      </trkpt>
      <trkpt lat="40.119182" lon="-0.269280">
        <ele>683.5</ele>
        <time>2021-08-24T17:01:01.434Z</time>
      </trkpt>
      <trkpt lat="40.119208" lon="-0.269217">
        <ele>683.6</ele>
        <time>2021-08-24T17:01:04.243Z</time>
      </trkpt>
      <trkpt lat="40.119221" lon="-0.268704">
        <ele>684.5</ele>
        <time>2021-08-24T17:01:19.378Z</time>
      </trkpt>
      <trkpt lat="40.119125" lon="-0.268235">
        <ele>685.4</ele>
        <time>2021-08-24T17:01:33.806Z</time>
      </trkpt>
      <trkpt lat="40.119028" lon="-0.268058">
        <ele>685.5</ele>
        <time>2021-08-24T17:01:40.126Z</time>
      </trkpt>
      <trkpt lat="40.119066" lon="-0.267716">
        <ele>685.3</ele>
        <time>2021-08-24T17:01:49.314Z</time>
      </trkpt>
      <trkpt lat="40.118966" lon="-0.267435">
        <ele>685.1</ele>
        <time>2021-08-24T17:01:57.028Z</time>
      </trkpt>
      <trkpt lat="40.118742" lon="-0.267246">
        <ele>684.8</ele>
        <time>2021-08-24T17:02:05.605Z</time>
      </trkpt>
      <trkpt lat="40.118695" lon="-0.267190">
        <ele>684.8</ele>
        <time>2021-08-24T17:02:07.214Z</time>
      </trkpt>
      <trkpt lat="40.118376" lon="-0.267130">
        <ele>684.5</ele>
        <time>2021-08-24T17:02:16.705Z</time>
      </trkpt>
      <trkpt lat="40.118005" lon="-0.266900">
        <ele>684.1</ele>
        <time>2021-08-24T17:02:27.814Z</time>
      </trkpt>
      <trkpt lat="40.117445" lon="-0.266281">
        <ele>681.3</ele>
        <time>2021-08-24T17:02:46.797Z</time>
      </trkpt>
      <trkpt lat="40.117050" lon="-0.266130">
        <ele>679.3</ele>
        <time>2021-08-24T17:02:57.055Z</time>
      </trkpt>
      <trkpt lat="40.116670" lon="-0.265908">
        <ele>677.3</ele>
        <time>2021-08-24T17:03:06.835Z</time>
      </trkpt>
      <trkpt lat="40.116081" lon="-0.265726">
        <ele>674.3</ele>
        <time>2021-08-24T17:03:20.607Z</time>
      </trkpt>
      <trkpt lat="40.115921" lon="-0.265603">
        <ele>673.3</ele>
        <time>2021-08-24T17:03:24.800Z</time>
      </trkpt>
      <trkpt lat="40.115600" lon="-0.265193">
        <ele>670.9</ele>
        <time>2021-08-24T17:03:35.159Z</time>
      </trkpt>
      <trkpt lat="40.115292" lon="-0.264800">
        <ele>668.5</ele>
        <time>2021-08-24T17:03:45.366Z</time>
      </trkpt>
      <trkpt lat="40.115196" lon="-0.264741">
        <ele>667.9</ele>
        <time>2021-08-24T17:03:47.768Z</time>
      </trkpt>
      <trkpt lat="40.115131" lon="-0.264855">
        <ele>667.3</ele>
        <time>2021-08-24T17:03:50.501Z</time>
      </trkpt>
      <trkpt lat="40.115049" lon="-0.265053">
        <ele>666.4</ele>
        <time>2021-08-24T17:03:54.761Z</time>
      </trkpt>
      <trkpt lat="40.114967" lon="-0.265121">
        <ele>665.9</ele>
        <time>2021-08-24T17:03:57.073Z</time>
      </trkpt>
      <trkpt lat="40.114484" lon="-0.265385">
        <ele>665.5</ele>
        <time>2021-08-24T17:04:11.285Z</time>
      </trkpt>
      <trkpt lat="40.113800" lon="-0.265628">
        <ele>665.3</ele>
        <time>2021-08-24T17:04:34.071Z</time>
      </trkpt>
      <trkpt lat="40.113664" lon="-0.265831">
        <ele>665.3</ele>
        <time>2021-08-24T17:04:43.071Z</time>
      </trkpt>
      <trkpt lat="40.113512" lon="-0.265931">
        <ele>665.3</ele>
        <time>2021-08-24T17:04:50.205Z</time>
      </trkpt>
      <trkpt lat="40.113428" lon="-0.265951">
        <ele>665.2</ele>
        <time>2021-08-24T17:04:54.436Z</time>
      </trkpt>
      <trkpt lat="40.113096" lon="-0.266249">
        <ele>665.0</ele>
        <time>2021-08-24T17:05:11.093Z</time>
      </trkpt>
      <trkpt lat="40.113070" lon="-0.266464">
        <ele>664.8</ele>
        <time>2021-08-24T17:05:17.277Z</time>
      </trkpt>
      <trkpt lat="40.112925" lon="-0.266507">
        <ele>664.6</ele>
        <time>2021-08-24T17:05:23.309Z</time>
      </trkpt>
      <trkpt lat="40.112795" lon="-0.266514">
        <ele>664.5</ele>
        <time>2021-08-24T17:05:27.640Z</time>
      </trkpt>
      <trkpt lat="40.112513" lon="-0.266416">
        <ele>664.2</ele>
        <time>2021-08-24T17:05:36.841Z</time>
      </trkpt>
      <trkpt lat="40.112150" lon="-0.266420">
        <ele>663.8</ele>
        <time>2021-08-24T17:05:47.178Z</time>
      </trkpt>
      <trkpt lat="40.112001" lon="-0.266257">
        <ele>663.6</ele>
        <time>2021-08-24T17:05:52.084Z</time>
      </trkpt>
      <trkpt lat="40.111830" lon="-0.266159">
        <ele>663.4</ele>
        <time>2021-08-24T17:05:56.762Z</time>
      </trkpt>
      <trkpt lat="40.111450" lon="-0.266117">
        <ele>660.9</ele>
        <time>2021-08-24T17:06:05.914Z</time>
      </trkpt>
      <trkpt lat="40.111374" lon="-0.265793">
        <ele>658.8</ele>
        <time>2021-08-24T17:06:11.820Z</time>
      </trkpt>
      <trkpt lat="40.111322" lon="-0.264855">
        <ele>653.0</ele>
        <time>2021-08-24T17:06:27.610Z</time>
      </trkpt>
      <trkpt lat="40.111236" lon="-0.264656">
        <ele>651.6</ele>
        <time>2021-08-24T17:06:31.374Z</time>
      </trkpt>
      <trkpt lat="40.111221" lon="-0.264492">
        <ele>650.5</ele>
        <time>2021-08-24T17:06:34.047Z</time>
      </trkpt>
      <trkpt lat="40.111243" lon="-0.264066">
        <ele>647.7</ele>
        <time>2021-08-24T17:06:41.001Z</time>
      </trkpt>
      <trkpt lat="40.111287" lon="-0.263955">
        <ele>646.7</ele>
        <time>2021-08-24T17:06:43.006Z</time>
      </trkpt>
      <trkpt lat="40.111406" lon="-0.263857">
        <ele>645.4</ele>
        <time>2021-08-24T17:06:46.014Z</time>
      </trkpt>
      <trkpt lat="40.111404" lon="-0.263643">
        <ele>643.7</ele>
        <time>2021-08-24T17:06:49.500Z</time>
      </trkpt>
      <trkpt lat="40.111270" lon="-0.263530">
        <ele>642.2</ele>
        <time>2021-08-24T17:06:52.898Z</time>
      </trkpt>
      <trkpt lat="40.111151" lon="-0.263555">
        <ele>641.0</ele>
        <time>2021-08-24T17:06:55.476Z</time>
      </trkpt>
      <trkpt lat="40.110943" lon="-0.263492">
        <ele>638.9</ele>
        <time>2021-08-24T17:07:00.045Z</time>
      </trkpt>
      <trkpt lat="40.109961" lon="-0.262471">
        <ele>627.4</ele>
        <time>2021-08-24T17:07:27.309Z</time>
      </trkpt>
      <trkpt lat="40.109725" lon="-0.261900">
        <ele>623.4</ele>
        <time>2021-08-24T17:07:38.331Z</time>
      </trkpt>
      <trkpt lat="40.109557" lon="-0.261822">
        <ele>622.0</ele>
        <time>2021-08-24T17:07:42.331Z</time>
      </trkpt>
      <trkpt lat="40.109479" lon="-0.261645">
        <ele>620.8</ele>
        <time>2021-08-24T17:07:45.858Z</time>
      </trkpt>
      <trkpt lat="40.109339" lon="-0.261535">
        <ele>619.5</ele>
        <time>2021-08-24T17:07:49.562Z</time>
      </trkpt>
      <trkpt lat="40.109194" lon="-0.261513">
        <ele>618.4</ele>
        <time>2021-08-24T17:07:52.889Z</time>
      </trkpt>
      <trkpt lat="40.109197" lon="-0.261271">
        <ele>616.9</ele>
        <time>2021-08-24T17:07:57.145Z</time>
      </trkpt>
      <trkpt lat="40.109362" lon="-0.260739">
        <ele>614.3</ele>
        <time>2021-08-24T17:08:07.387Z</time>
      </trkpt>
      <trkpt lat="40.109293" lon="-0.259917">
        <ele>610.5</ele>
        <time>2021-08-24T17:08:22.263Z</time>
      </trkpt>
      <trkpt lat="40.109164" lon="-0.259583">
        <ele>608.9</ele>
        <time>2021-08-24T17:08:28.999Z</time>
      </trkpt>
      <trkpt lat="40.109065" lon="-0.259051">
        <ele>606.4</ele>
        <time>2021-08-24T17:08:38.932Z</time>
      </trkpt>
      <trkpt lat="40.109095" lon="-0.258535">
        <ele>604.2</ele>
        <time>2021-08-24T17:08:48.276Z</time>
      </trkpt>
      <trkpt lat="40.108995" lon="-0.257185">
        <ele>598.3</ele>
        <time>2021-08-24T17:09:12.770Z</time>
      </trkpt>
      <trkpt lat="40.109100" lon="-0.256701">
        <ele>596.2</ele>
        <time>2021-08-24T17:09:21.816Z</time>
      </trkpt>
      <trkpt lat="40.109181" lon="-0.256543">
        <ele>595.6</ele>
        <time>2021-08-24T17:09:25.231Z</time>
      </trkpt>
      <trkpt lat="40.109591" lon="-0.256162">
        <ele>593.7</ele>
        <time>2021-08-24T17:09:37.268Z</time>
      </trkpt>
      <trkpt lat="40.109847" lon="-0.255698">
        <ele>592.1</ele>
        <time>2021-08-24T17:09:48.203Z</time>
      </trkpt>
      <trkpt lat="40.109905" lon="-0.255683">
        <ele>591.9</ele>
        <time>2021-08-24T17:09:49.709Z</time>
      </trkpt>
      <trkpt lat="40.109939" lon="-0.255761">
        <ele>591.6</ele>
        <time>2021-08-24T17:09:51.508Z</time>
      </trkpt>
      <trkpt lat="40.109884" lon="-0.256524">
        <ele>589.4</ele>
        <time>2021-08-24T17:10:07.474Z</time>
      </trkpt>
      <trkpt lat="40.109636" lon="-0.256815">
        <ele>588.8</ele>
        <time>2021-08-24T17:10:16.830Z</time>
      </trkpt>
      <trkpt lat="40.109624" lon="-0.257183">
        <ele>588.3</ele>
        <time>2021-08-24T17:10:24.815Z</time>
      </trkpt>
      <trkpt lat="40.109792" lon="-0.257515">
        <ele>587.7</ele>
        <time>2021-08-24T17:10:33.445Z</time>
      </trkpt>
      <trkpt lat="40.110006" lon="-0.258122">
        <ele>586.8</ele>
        <time>2021-08-24T17:10:47.946Z</time>
      </trkpt>
      <trkpt lat="40.110215" lon="-0.259254">
        <ele>583.7</ele>
        <time>2021-08-24T17:11:12.228Z</time>
      </trkpt>
      <trkpt lat="40.110281" lon="-0.259315">
        <ele>583.3</ele>
        <time>2021-08-24T17:11:14.297Z</time>
      </trkpt>
      <trkpt lat="40.110339" lon="-0.259286">
        <ele>583.0</ele>
        <time>2021-08-24T17:11:15.840Z</time>
      </trkpt>
      <trkpt lat="40.110358" lon="-0.259171">
        <ele>582.6</ele>
        <time>2021-08-24T17:11:18.073Z</time>
      </trkpt>
      <trkpt lat="40.110281" lon="-0.258419">
        <ele>579.8</ele>
        <time>2021-08-24T17:11:31.849Z</time>
      </trkpt>
      <trkpt lat="40.110333" lon="-0.258007">
        <ele>578.2</ele>
        <time>2021-08-24T17:11:39.152Z</time>
      </trkpt>
      <trkpt lat="40.110113" lon="-0.257237">
        <ele>573.3</ele>
        <time>2021-08-24T17:11:53.189Z</time>
      </trkpt>
      <trkpt lat="40.110116" lon="-0.257133">
        <ele>572.6</ele>
        <time>2021-08-24T17:11:54.958Z</time>
      </trkpt>
      <trkpt lat="40.110496" lon="-0.256761">
        <ele>568.4</ele>
        <time>2021-08-24T17:12:05.248Z</time>
      </trkpt>
      <trkpt lat="40.111051" lon="-0.255531">
        <ele>559.1</ele>
        <time>2021-08-24T17:12:28.833Z</time>
      </trkpt>
      <trkpt lat="40.111249" lon="-0.255306">
        <ele>557.2</ele>
        <time>2021-08-24T17:12:34.640Z</time>
      </trkpt>
      <trkpt lat="40.111587" lon="-0.255094">
        <ele>554.3</ele>
        <time>2021-08-24T17:12:43.054Z</time>
      </trkpt>
      <trkpt lat="40.111754" lon="-0.255111">
        <ele>553.1</ele>
        <time>2021-08-24T17:12:46.869Z</time>
      </trkpt>
      <trkpt lat="40.112960" lon="-0.255738">
        <ele>543.4</ele>
        <time>2021-08-24T17:13:17.085Z</time>
      </trkpt>
      <trkpt lat="40.113407" lon="-0.255679">
        <ele>540.1</ele>
        <time>2021-08-24T17:13:27.494Z</time>
      </trkpt>
      <trkpt lat="40.113597" lon="-0.255600">
        <ele>538.7</ele>
        <time>2021-08-24T17:13:32.015Z</time>
      </trkpt>
      <trkpt lat="40.114060" lon="-0.255220">
        <ele>534.6</ele>
        <time>2021-08-24T17:13:44.060Z</time>
      </trkpt>
      <trkpt lat="40.114337" lon="-0.254450">
        <ele>527.5</ele>
        <time>2021-08-24T17:13:57.879Z</time>
      </trkpt>
      <trkpt lat="40.114381" lon="-0.253760">
        <ele>521.7</ele>
        <time>2021-08-24T17:14:08.980Z</time>
      </trkpt>
      <trkpt lat="40.114364" lon="-0.253561">
        <ele>520.0</ele>
        <time>2021-08-24T17:14:12.160Z</time>
      </trkpt>
      <trkpt lat="40.114228" lon="-0.253167">
        <ele>516.4</ele>
        <time>2021-08-24T17:14:19.089Z</time>
      </trkpt>
      <trkpt lat="40.114160" lon="-0.252694">
        <ele>512.8</ele>
        <time>2021-08-24T17:14:26.858Z</time>
      </trkpt>
      <trkpt lat="40.113651" lon="-0.251774">
        <ele>504.8</ele>
        <time>2021-08-24T17:14:45.599Z</time>
      </trkpt>
      <trkpt lat="40.113461" lon="-0.251292">
        <ele>501.0</ele>
        <time>2021-08-24T17:14:54.830Z</time>
      </trkpt>
      <trkpt lat="40.113329" lon="-0.251174">
        <ele>499.5</ele>
        <time>2021-08-24T17:14:58.449Z</time>
      </trkpt>
      <trkpt lat="40.113064" lon="-0.251135">
        <ele>497.2</ele>
        <time>2021-08-24T17:15:04.571Z</time>
      </trkpt>
      <trkpt lat="40.112687" lon="-0.250698">
        <ele>493.0</ele>
        <time>2021-08-24T17:15:16.051Z</time>
      </trkpt>
      <trkpt lat="40.112454" lon="-0.250298">
        <ele>489.8</ele>
        <time>2021-08-24T17:15:24.660Z</time>
      </trkpt>
      <trkpt lat="40.112314" lon="-0.249599">
        <ele>485.1</ele>
        <time>2021-08-24T17:15:36.713Z</time>
      </trkpt>
      <trkpt lat="40.112344" lon="-0.249453">
        <ele>484.2</ele>
        <time>2021-08-24T17:15:39.210Z</time>
      </trkpt>
      <trkpt lat="40.112414" lon="-0.249426">
        <ele>483.5</ele>
        <time>2021-08-24T17:15:40.755Z</time>
      </trkpt>
      <trkpt lat="40.112505" lon="-0.249503">
        <ele>482.3</ele>
        <time>2021-08-24T17:15:43.063Z</time>
      </trkpt>
      <trkpt lat="40.112567" lon="-0.249692">
        <ele>480.4</ele>
        <time>2021-08-24T17:15:46.425Z</time>
      </trkpt>
      <trkpt lat="40.112789" lon="-0.249890">
        <ele>477.2</ele>
        <time>2021-08-24T17:15:52.104Z</time>
      </trkpt>
      <trkpt lat="40.113322" lon="-0.250121">
        <ele>470.4</ele>
        <time>2021-08-24T17:16:03.819Z</time>
      </trkpt>
      <trkpt lat="40.113727" lon="-0.250011">
        <ele>465.5</ele>
        <time>2021-08-24T17:16:12.334Z</time>
      </trkpt>
      <trkpt lat="40.114014" lon="-0.249604">
        <ele>460.4</ele>
        <time>2021-08-24T17:16:21.047Z</time>
      </trkpt>
      <trkpt lat="40.114003" lon="-0.249376">
        <ele>458.3</ele>
        <time>2021-08-24T17:16:24.648Z</time>
      </trkpt>
      <trkpt lat="40.113932" lon="-0.249138">
        <ele>455.9</ele>
        <time>2021-08-24T17:16:28.682Z</time>
      </trkpt>
      <trkpt lat="40.113651" lon="-0.248655">
        <ele>450.2</ele>
        <time>2021-08-24T17:16:38.321Z</time>
      </trkpt>
      <trkpt lat="40.113517" lon="-0.248229">
        <ele>445.9</ele>
        <time>2021-08-24T17:16:45.688Z</time>
      </trkpt>
      <trkpt lat="40.113507" lon="-0.247969">
        <ele>443.5</ele>
        <time>2021-08-24T17:16:49.867Z</time>
      </trkpt>
      <trkpt lat="40.113618" lon="-0.247412">
        <ele>438.5</ele>
        <time>2021-08-24T17:16:59.106Z</time>
      </trkpt>
      <trkpt lat="40.113575" lon="-0.246913">
        <ele>434.9</ele>
        <time>2021-08-24T17:17:07.257Z</time>
      </trkpt>
      <trkpt lat="40.112808" lon="-0.246022">
        <ele>425.1</ele>
        <time>2021-08-24T17:17:29.620Z</time>
      </trkpt>
      <trkpt lat="40.112751" lon="-0.245856">
        <ele>423.7</ele>
        <time>2021-08-24T17:17:32.696Z</time>
      </trkpt>
      <trkpt lat="40.112754" lon="-0.245714">
        <ele>422.7</ele>
        <time>2021-08-24T17:17:35.111Z</time>
      </trkpt>
      <trkpt lat="40.112865" lon="-0.245591">
        <ele>421.6</ele>
        <time>2021-08-24T17:17:38.342Z</time>
      </trkpt>
      <trkpt lat="40.112941" lon="-0.245615">
        <ele>421.0</ele>
        <time>2021-08-24T17:17:40.104Z</time>
      </trkpt>
      <trkpt lat="40.113231" lon="-0.245989">
        <ele>417.9</ele>
        <time>2021-08-24T17:17:49.306Z</time>
      </trkpt>
      <trkpt lat="40.113718" lon="-0.246294">
        <ele>413.8</ele>
        <time>2021-08-24T17:18:01.566Z</time>
      </trkpt>
      <trkpt lat="40.114159" lon="-0.246832">
        <ele>409.2</ele>
        <time>2021-08-24T17:18:15.223Z</time>
      </trkpt>
      <trkpt lat="40.114263" lon="-0.247058">
        <ele>407.3</ele>
        <time>2021-08-24T17:18:19.728Z</time>
      </trkpt>
      <trkpt lat="40.114386" lon="-0.247118">
        <ele>406.1</ele>
        <time>2021-08-24T17:18:22.623Z</time>
      </trkpt>
      <trkpt lat="40.114435" lon="-0.247025">
        <ele>405.3</ele>
        <time>2021-08-24T17:18:24.518Z</time>
      </trkpt>
      <trkpt lat="40.114504" lon="-0.246395">
        <ele>400.7</ele>
        <time>2021-08-24T17:18:35.130Z</time>
      </trkpt>
      <trkpt lat="40.114510" lon="-0.245974">
        <ele>397.7</ele>
        <time>2021-08-24T17:18:42.080Z</time>
      </trkpt>
      <trkpt lat="40.114466" lon="-0.245707">
        <ele>395.8</ele>
        <time>2021-08-24T17:18:46.557Z</time>
      </trkpt>
      <trkpt lat="40.114151" lon="-0.244805">
        <ele>388.5</ele>
        <time>2021-08-24T17:19:02.725Z</time>
      </trkpt>
      <trkpt lat="40.114163" lon="-0.244725">
        <ele>387.8</ele>
        <time>2021-08-24T17:19:04.045Z</time>
      </trkpt>
      <trkpt lat="40.114273" lon="-0.244619">
        <ele>386.5</ele>
        <time>2021-08-24T17:19:06.933Z</time>
      </trkpt>
      <trkpt lat="40.114504" lon="-0.244618">
        <ele>384.2</ele>
        <time>2021-08-24T17:19:11.859Z</time>
      </trkpt>
      <trkpt lat="40.114618" lon="-0.244551">
        <ele>382.9</ele>
        <time>2021-08-24T17:19:14.494Z</time>
      </trkpt>
      <trkpt lat="40.114698" lon="-0.244443">
        <ele>381.8</ele>
        <time>2021-08-24T17:19:16.953Z</time>
      </trkpt>
      <trkpt lat="40.115202" lon="-0.243253">
        <ele>372.3</ele>
        <time>2021-08-24T17:19:39.555Z</time>
      </trkpt>
      <trkpt lat="40.115369" lon="-0.242989">
        <ele>370.4</ele>
        <time>2021-08-24T17:19:45.403Z</time>
      </trkpt>
      <trkpt lat="40.115665" lon="-0.242723">
        <ele>367.9</ele>
        <time>2021-08-24T17:19:53.473Z</time>
      </trkpt>
      <trkpt lat="40.115716" lon="-0.242366">
        <ele>365.9</ele>
        <time>2021-08-24T17:19:59.812Z</time>
      </trkpt>
      <trkpt lat="40.115534" lon="-0.241236">
        <ele>361.1</ele>
        <time>2021-08-24T17:20:20.850Z</time>
      </trkpt>
      <trkpt lat="40.115569" lon="-0.241116">
        <ele>360.8</ele>
        <time>2021-08-24T17:20:23.119Z</time>
      </trkpt>
      <trkpt lat="40.115480" lon="-0.240999">
        <ele>360.6</ele>
        <time>2021-08-24T17:20:26.558Z</time>
      </trkpt>
      <trkpt lat="40.115239" lon="-0.240754">
        <ele>359.9</ele>
        <time>2021-08-24T17:20:34.476Z</time>
      </trkpt>
      <trkpt lat="40.115020" lon="-0.240533">
        <ele>359.3</ele>
        <time>2021-08-24T17:20:41.848Z</time>
      </trkpt>
      <trkpt lat="40.114556" lon="-0.240148">
        <ele>358.0</ele>
        <time>2021-08-24T17:20:58.619Z</time>
      </trkpt>
      <trkpt lat="40.114450" lon="-0.240029">
        <ele>357.9</ele>
        <time>2021-08-24T17:21:05.537Z</time>
      </trkpt>
      <trkpt lat="40.114414" lon="-0.240012">
        <ele>350.6</ele>
        <time>2021-08-24T17:21:23.782Z</time>
      </trkpt>
      <trkpt lat="40.114420" lon="-0.239785">
        <ele>347.7</ele>
        <time>2021-08-24T17:22:05.602Z</time>
      </trkpt>
      <trkpt lat="40.114420" lon="-0.239536">
        <ele>344.7</ele>
        <time>2021-08-24T17:22:51.527Z</time>
      </trkpt>
      <trkpt lat="40.114443" lon="-0.239332">
        <ele>341.7</ele>
        <time>2021-08-24T17:23:29.677Z</time>
      </trkpt>
      <trkpt lat="40.114443" lon="-0.239075">
        <ele>339.1</ele>
        <time>2021-08-24T17:24:16.892Z</time>
      </trkpt>
      <trkpt lat="40.114437" lon="-0.238833">
        <ele>337.5</ele>
        <time>2021-08-24T17:25:01.157Z</time>
      </trkpt>
      <trkpt lat="40.114443" lon="-0.238606">
        <ele>335.9</ele>
        <time>2021-08-24T17:25:42.659Z</time>
      </trkpt>
      <trkpt lat="40.114511" lon="-0.238553">
        <ele>334.9</ele>
        <time>2021-08-24T17:26:01.642Z</time>
      </trkpt>
      <trkpt lat="40.114516" lon="-0.238330">
        <ele>333.9</ele>
        <time>2021-08-24T17:26:42.372Z</time>
      </trkpt>
      <trkpt lat="40.114350" lon="-0.238289">
        <ele>334.5</ele>
        <time>2021-08-24T17:27:22.667Z</time>
      </trkpt>
      <trkpt lat="40.114357" lon="-0.238214">
        <ele>336.4</ele>
        <time>2021-08-24T17:27:37.009Z</time>
      </trkpt>
      <trkpt lat="40.114411" lon="-0.238075">
        <ele>331.8</ele>
        <time>2021-08-24T17:28:07.084Z</time>
      </trkpt>
      <trkpt lat="40.114291" lon="-0.238056">
        <ele>334.5</ele>
        <time>2021-08-24T17:28:36.455Z</time>
      </trkpt>
      <trkpt lat="40.114334" lon="-0.237986">
        <ele>334.1</ele>
        <time>2021-08-24T17:28:52.841Z</time>
      </trkpt>
      <trkpt lat="40.114511" lon="-0.238023">
        <ele>336.2</ele>
        <time>2021-08-24T17:29:35.783Z</time>
      </trkpt>
      <trkpt lat="40.114532" lon="-0.237950">
        <ele>336.8</ele>
        <time>2021-08-24T17:29:50.092Z</time>
      </trkpt>
      <trkpt lat="40.114423" lon="-0.237862">
        <ele>336.4</ele>
        <time>2021-08-24T17:30:20.736Z</time>
      </trkpt>
      <trkpt lat="40.114438" lon="-0.237804">
        <ele>326.5</ele>
        <time>2021-08-24T17:30:44.762Z</time>
      </trkpt>
      <trkpt lat="40.114541" lon="-0.237805">
        <ele>337.8</ele>
        <time>2021-08-24T17:31:19.294Z</time>
      </trkpt>
      <trkpt lat="40.114717" lon="-0.237906">
        <ele>339.7</ele>
        <time>2021-08-24T17:32:05.252Z</time>
      </trkpt>
      <trkpt lat="40.114806" lon="-0.237832">
        <ele>341.6</ele>
        <time>2021-08-24T17:32:30.669Z</time>
      </trkpt>
      <trkpt lat="40.114829" lon="-0.237753">
        <ele>326.4</ele>
        <time>2021-08-24T17:33:06.876Z</time>
      </trkpt>
      <trkpt lat="40.114784" lon="-0.237624">
        <ele>343.3</ele>
        <time>2021-08-24T17:33:51.543Z</time>
      </trkpt>
      <trkpt lat="40.114775" lon="-0.237581">
        <ele>328.4</ele>
        <time>2021-08-24T17:34:24.567Z</time>
      </trkpt>
      <trkpt lat="40.114802" lon="-0.237494">
        <ele>329.7</ele>
        <time>2021-08-24T17:34:41.908Z</time>
      </trkpt>
      <trkpt lat="40.114782" lon="-0.237353">
        <ele>347.1</ele>
        <time>2021-08-24T17:35:27.498Z</time>
      </trkpt>
      <trkpt lat="40.114807" lon="-0.237231">
        <ele>333.6</ele>
        <time>2021-08-24T17:36:04.492Z</time>
      </trkpt>
      <trkpt lat="40.114767" lon="-0.237170">
        <ele>350.1</ele>
        <time>2021-08-24T17:36:42.810Z</time>
      </trkpt>
      <trkpt lat="40.114699" lon="-0.237103">
        <ele>350.0</ele>
        <time>2021-08-24T17:37:03.200Z</time>
      </trkpt>
      <trkpt lat="40.114640" lon="-0.237095">
        <ele>349.1</ele>
        <time>2021-08-24T17:37:17.509Z</time>
      </trkpt>
      <trkpt lat="40.114530" lon="-0.237004">
        <ele>348.8</ele>
        <time>2021-08-24T17:37:48.488Z</time>
      </trkpt>
      <trkpt lat="40.114443" lon="-0.236883">
        <ele>349.4</ele>
        <time>2021-08-24T17:38:18.764Z</time>
      </trkpt>
      <trkpt lat="40.114356" lon="-0.236762">
        <ele>350.2</ele>
        <time>2021-08-24T17:38:49.023Z</time>
      </trkpt>
      <trkpt lat="40.114247" lon="-0.236672">
        <ele>350.1</ele>
        <time>2021-08-24T17:39:20.002Z</time>
      </trkpt>
      <trkpt lat="40.114212" lon="-0.236483">
        <ele>352.1</ele>
        <time>2021-08-24T17:39:55.690Z</time>
      </trkpt>
      <trkpt lat="40.114160" lon="-0.236301">
        <ele>353.7</ele>
        <time>2021-08-24T17:40:31.193Z</time>
      </trkpt>
      <trkpt lat="40.114102" lon="-0.236143">
        <ele>355.1</ele>
        <time>2021-08-24T17:41:03.378Z</time>
      </trkpt>
      <trkpt lat="40.113987" lon="-0.236052">
        <ele>355.1</ele>
        <time>2021-08-24T17:41:35.514Z</time>
      </trkpt>
      <trkpt lat="40.113804" lon="-0.235783">
        <ele>345.6</ele>
        <time>2021-08-24T17:42:44.191Z</time>
      </trkpt>
      <trkpt lat="40.113784" lon="-0.235172">
        <ele>347.6</ele>
        <time>2021-08-24T17:44:35.778Z</time>
      </trkpt>
      <trkpt lat="40.113829" lon="-0.234959">
        <ele>347.8</ele>
        <time>2021-08-24T17:44:42.082Z</time>
      </trkpt>
      <trkpt lat="40.114584" lon="-0.232387">
        <ele>350.2</ele>
        <time>2021-08-24T17:45:58.459Z</time>
      </trkpt>
      <trkpt lat="40.114636" lon="-0.232279">
        <ele>350.3</ele>
        <time>2021-08-24T17:46:01.619Z</time>
      </trkpt>
      <trkpt lat="40.115126" lon="-0.232502">
        <ele>350.8</ele>
        <time>2021-08-24T17:46:18.351Z</time>
      </trkpt>
      <trkpt lat="40.115886" lon="-0.232483">
        <ele>352.9</ele>
        <time>2021-08-24T17:46:45.425Z</time>
      </trkpt>
      <trkpt lat="40.115900" lon="-0.233579">
        <ele>355.3</ele>
        <time>2021-08-24T17:47:20.269Z</time>
      </trkpt>
      <trkpt lat="40.115928" lon="-0.233749">
        <ele>355.7</ele>
        <time>2021-08-24T17:47:26.892Z</time>
      </trkpt>
      <trkpt lat="40.116048" lon="-0.233833">
        <ele>356.1</ele>
        <time>2021-08-24T17:47:32.895Z</time>
      </trkpt>
      <trkpt lat="40.116067" lon="-0.233825">
        <ele>356.2</ele>
        <time>2021-08-24T17:47:33.495Z</time>
      </trkpt>
      <trkpt lat="40.116127" lon="-0.233821">
        <ele>356.4</ele>
        <time>2021-08-24T17:47:35.518Z</time>
      </trkpt>
      <trkpt lat="40.116183" lon="-0.233849">
        <ele>356.7</ele>
        <time>2021-08-24T17:47:38.316Z</time>
      </trkpt>
      <trkpt lat="40.116221" lon="-0.233896">
        <ele>356.9</ele>
        <time>2021-08-24T17:47:40.452Z</time>
      </trkpt>
      <trkpt lat="40.116397" lon="-0.233922">
        <ele>357.6</ele>
        <time>2021-08-24T17:47:47.419Z</time>
      </trkpt>
      <trkpt lat="40.116490" lon="-0.233913">
        <ele>358.0</ele>
        <time>2021-08-24T17:47:50.744Z</time>
      </trkpt>
      <trkpt lat="40.116490" lon="-0.233913">
        <ele>358.0</ele>
        <time>2021-08-24T17:47:50.890Z</time>
      </trkpt>
      <trkpt lat="40.117200" lon="-0.234012">
        <ele>360.8</ele>
        <time>2021-08-24T17:48:19.636Z</time>
      </trkpt>
      <trkpt lat="40.117313" lon="-0.234080">
        <ele>361.3</ele>
        <time>2021-08-24T17:48:25.465Z</time>
      </trkpt>
      <trkpt lat="40.117412" lon="-0.234185">
        <ele>361.8</ele>
        <time>2021-08-24T17:48:30.847Z</time>
      </trkpt>
      <trkpt lat="40.117589" lon="-0.234275">
        <ele>362.6</ele>
        <time>2021-08-24T17:48:38.784Z</time>
      </trkpt>
      <trkpt lat="40.118154" lon="-0.234508">
        <ele>364.2</ele>
        <time>2021-08-24T17:49:01.284Z</time>
      </trkpt>
      <trkpt lat="40.118495" lon="-0.234612">
        <ele>365.1</ele>
        <time>2021-08-24T17:49:12.980Z</time>
      </trkpt>
      <trkpt lat="40.118619" lon="-0.234649">
        <ele>365.4</ele>
        <time>2021-08-24T17:49:16.976Z</time>
      </trkpt>
      <trkpt lat="40.118907" lon="-0.234737">
        <ele>366.1</ele>
        <time>2021-08-24T17:49:26.289Z</time>
      </trkpt>
      <trkpt lat="40.119232" lon="-0.234836">
        <ele>366.9</ele>
        <time>2021-08-24T17:49:35.140Z</time>
      </trkpt>
      <trkpt lat="40.119409" lon="-0.234647">
        <ele>367.4</ele>
        <time>2021-08-24T17:49:40.873Z</time>
      </trkpt>
      <trkpt lat="40.119966" lon="-0.233755">
        <ele>368.3</ele>
        <time>2021-08-24T17:50:04.062Z</time>
      </trkpt>
      <trkpt lat="40.120119" lon="-0.233576">
        <ele>368.5</ele>
        <time>2021-08-24T17:50:08.922Z</time>
      </trkpt>
      <trkpt lat="40.120572" lon="-0.233296">
        <ele>368.9</ele>
        <time>2021-08-24T17:50:20.530Z</time>
      </trkpt>
      <trkpt lat="40.120762" lon="-0.233133">
        <ele>369.1</ele>
        <time>2021-08-24T17:50:25.650Z</time>
      </trkpt>
      <trkpt lat="40.120901" lon="-0.232888">
        <ele>369.4</ele>
        <time>2021-08-24T17:50:30.720Z</time>
      </trkpt>
      <trkpt lat="40.121074" lon="-0.232655">
        <ele>369.8</ele>
        <time>2021-08-24T17:50:37.474Z</time>
      </trkpt>
      <trkpt lat="40.121079" lon="-0.232562">
        <ele>369.9</ele>
        <time>2021-08-24T17:50:39.071Z</time>
      </trkpt>
      <trkpt lat="40.121205" lon="-0.232406">
        <ele>370.1</ele>
        <time>2021-08-24T17:50:43.842Z</time>
      </trkpt>
      <trkpt lat="40.121276" lon="-0.232285">
        <ele>370.3</ele>
        <time>2021-08-24T17:50:46.744Z</time>
      </trkpt>
      <trkpt lat="40.121308" lon="-0.232046">
        <ele>370.5</ele>
        <time>2021-08-24T17:50:52.698Z</time>
      </trkpt>
      <trkpt lat="40.121637" lon="-0.231365">
        <ele>371.3</ele>
        <time>2021-08-24T17:51:09.777Z</time>
      </trkpt>
      <trkpt lat="40.121634" lon="-0.231325">
        <ele>371.4</ele>
        <time>2021-08-24T17:51:10.423Z</time>
      </trkpt>
      <trkpt lat="40.121627" lon="-0.231217">
        <ele>371.5</ele>
        <time>2021-08-24T17:51:13.612Z</time>
      </trkpt>
      <trkpt lat="40.121494" lon="-0.230962">
        <ele>371.8</ele>
        <time>2021-08-24T17:51:19.703Z</time>
      </trkpt>
      <trkpt lat="40.121530" lon="-0.230586">
        <ele>372.3</ele>
        <time>2021-08-24T17:51:27.402Z</time>
      </trkpt>
      <trkpt lat="40.121627" lon="-0.230386">
        <ele>372.6</ele>
        <time>2021-08-24T17:51:32.825Z</time>
      </trkpt>
      <trkpt lat="40.121663" lon="-0.230254">
        <ele>372.8</ele>
        <time>2021-08-24T17:51:35.646Z</time>
      </trkpt>
      <trkpt lat="40.121778" lon="-0.229357">
        <ele>373.9</ele>
        <time>2021-08-24T17:51:55.785Z</time>
      </trkpt>
      <trkpt lat="40.122304" lon="-0.228094">
        <ele>375.9</ele>
        <time>2021-08-24T17:52:26.680Z</time>
      </trkpt>
      <trkpt lat="40.122534" lon="-0.226946">
        <ele>377.7</ele>
        <time>2021-08-24T17:52:53.724Z</time>
      </trkpt>
      <trkpt lat="40.122620" lon="-0.226219">
        <ele>379.4</ele>
        <time>2021-08-24T17:53:12.354Z</time>
      </trkpt>
      <trkpt lat="40.122962" lon="-0.224566">
        <ele>384.0</ele>
        <time>2021-08-24T17:54:04.622Z</time>
      </trkpt>
      <trkpt lat="40.123108" lon="-0.224080">
        <ele>385.0</ele>
        <time>2021-08-24T17:54:20.743Z</time>
      </trkpt>
      <trkpt lat="40.123096" lon="-0.223701">
        <ele>385.7</ele>
        <time>2021-08-24T17:54:32.008Z</time>
      </trkpt>
      <trkpt lat="40.123068" lon="-0.223168">
        <ele>383.4</ele>
        <time>2021-08-24T17:54:43.616Z</time>
      </trkpt>
      <trkpt lat="40.123347" lon="-0.222581">
        <ele>400.6</ele>
        <time>2021-08-24T17:54:59.219Z</time>
      </trkpt>
      <trkpt lat="40.123311" lon="-0.221611">
        <ele>391.6</ele>
        <time>2021-08-24T17:55:20.390Z</time>
      </trkpt>
      <trkpt lat="40.123189" lon="-0.220787">
        <ele>388.6</ele>
        <time>2021-08-24T17:55:38.619Z</time>
      </trkpt>
      <trkpt lat="40.123751" lon="-0.220051">
        <ele>381.4</ele>
        <time>2021-08-24T17:56:01.242Z</time>
      </trkpt>
      <trkpt lat="40.124286" lon="-0.219717">
        <ele>384.7</ele>
        <time>2021-08-24T17:56:18.091Z</time>
      </trkpt>
      <trkpt lat="40.124291" lon="-0.219443">
        <ele>384.4</ele>
        <time>2021-08-24T17:56:21.660Z</time>
      </trkpt>
      <trkpt lat="40.124706" lon="-0.217282">
        <ele>381.9</ele>
        <time>2021-08-24T17:56:51.196Z</time>
      </trkpt>
      <trkpt lat="40.124712" lon="-0.217117">
        <ele>381.8</ele>
        <time>2021-08-24T17:56:53.453Z</time>
      </trkpt>
      <trkpt lat="40.124764" lon="-0.217155">
        <ele>381.7</ele>
        <time>2021-08-24T17:56:54.463Z</time>
      </trkpt>
      <trkpt lat="40.123805" lon="-0.216294">
        <ele>381.5</ele>
        <time>2021-08-24T17:57:00.029Z</time>
      </trkpt>
      <trkpt lat="40.124219" lon="-0.215464">
        <ele>380.8</ele>
        <time>2021-08-24T17:57:20.589Z</time>
      </trkpt>
      <trkpt lat="40.124518" lon="-0.215466">
        <ele>382.8</ele>
        <time>2021-08-24T17:57:27.691Z</time>
      </trkpt>
      <trkpt lat="40.124764" lon="-0.215433">
        <ele>381.2</ele>
        <time>2021-08-24T17:57:39.744Z</time>
      </trkpt>
      <trkpt lat="40.124738" lon="-0.215334">
        <ele>381.3</ele>
        <time>2021-08-24T17:57:42.245Z</time>
      </trkpt>
      <trkpt lat="40.124672" lon="-0.215265">
        <ele>381.4</ele>
        <time>2021-08-24T17:57:46.272Z</time>
      </trkpt>
      <trkpt lat="40.124608" lon="-0.215041">
        <ele>381.6</ele>
        <time>2021-08-24T17:57:52.425Z</time>
      </trkpt>
      <trkpt lat="40.124629" lon="-0.214929">
        <ele>381.7</ele>
        <time>2021-08-24T17:57:55.678Z</time>
      </trkpt>
      <trkpt lat="40.124944" lon="-0.214834">
        <ele>382.1</ele>
        <time>2021-08-24T17:58:08.848Z</time>
      </trkpt>
      <trkpt lat="40.125144" lon="-0.214602">
        <ele>382.5</ele>
        <time>2021-08-24T17:58:20.315Z</time>
      </trkpt>
      <trkpt lat="40.125490" lon="-0.214293">
        <ele>383.1</ele>
        <time>2021-08-24T17:58:38.359Z</time>
      </trkpt>
      <trkpt lat="40.125512" lon="-0.214189">
        <ele>383.2</ele>
        <time>2021-08-24T17:58:41.963Z</time>
      </trkpt>
      <trkpt lat="40.125511" lon="-0.214057">
        <ele>383.4</ele>
        <time>2021-08-24T17:58:47.702Z</time>
      </trkpt>
      <trkpt lat="40.125438" lon="-0.213814">
        <ele>383.8</ele>
        <time>2021-08-24T17:58:56.751Z</time>
      </trkpt>
      <trkpt lat="40.125431" lon="-0.212937">
        <ele>385.0</ele>
        <time>2021-08-24T17:59:26.220Z</time>
      </trkpt>
      <trkpt lat="40.125300" lon="-0.211967">
        <ele>386.3</ele>
        <time>2021-08-24T17:59:53.287Z</time>
      </trkpt>
      <trkpt lat="40.125323" lon="-0.211424">
        <ele>386.5</ele>
        <time>2021-08-24T18:00:06.845Z</time>
      </trkpt>
      <trkpt lat="40.125303" lon="-0.211257">
        <ele>386.6</ele>
        <time>2021-08-24T18:00:11.515Z</time>
      </trkpt>
      <trkpt lat="40.125248" lon="-0.211221">
        <ele>386.6</ele>
        <time>2021-08-24T18:00:13.179Z</time>
      </trkpt>
      <trkpt lat="40.124878" lon="-0.211220">
        <ele>386.9</ele>
        <time>2021-08-24T18:00:25.402Z</time>
      </trkpt>
      <trkpt lat="40.124832" lon="-0.211200">
        <ele>386.9</ele>
        <time>2021-08-24T18:00:26.690Z</time>
      </trkpt>
      <trkpt lat="40.124817" lon="-0.211084">
        <ele>387.0</ele>
        <time>2021-08-24T18:00:30.544Z</time>
      </trkpt>
      <trkpt lat="40.124935" lon="-0.209917">
        <ele>387.9</ele>
        <time>2021-08-24T18:01:03.478Z</time>
      </trkpt>
      <trkpt lat="40.125075" lon="-0.209189">
        <ele>388.9</ele>
        <time>2021-08-24T18:01:27.243Z</time>
      </trkpt>
      <trkpt lat="40.125098" lon="-0.208309">
        <ele>390.1</ele>
        <time>2021-08-24T18:01:58.623Z</time>
      </trkpt>
      <trkpt lat="40.125162" lon="-0.207672">
        <ele>390.1</ele>
        <time>2021-08-24T18:02:17.552Z</time>
      </trkpt>
      <trkpt lat="40.125311" lon="-0.207448">
        <ele>389.7</ele>
        <time>2021-08-24T18:02:24.093Z</time>
      </trkpt>
      <trkpt lat="40.125366" lon="-0.207258">
        <ele>389.4</ele>
        <time>2021-08-24T18:02:29.887Z</time>
      </trkpt>
      <trkpt lat="40.125344" lon="-0.207004">
        <ele>389.0</ele>
        <time>2021-08-24T18:02:35.035Z</time>
      </trkpt>
      <trkpt lat="40.125357" lon="-0.206791">
        <ele>388.8</ele>
        <time>2021-08-24T18:02:40.200Z</time>
      </trkpt>
      <trkpt lat="40.124809" lon="-0.206654">
        <ele>387.8</ele>
        <time>2021-08-24T18:02:54.136Z</time>
      </trkpt>
      <trkpt lat="40.123976" lon="-0.206773">
        <ele>385.6</ele>
        <time>2021-08-24T18:03:15.007Z</time>
      </trkpt>
      <trkpt lat="40.123563" lon="-0.206771">
        <ele>384.3</ele>
        <time>2021-08-24T18:03:25.044Z</time>
      </trkpt>
      <trkpt lat="40.123308" lon="-0.206823">
        <ele>383.6</ele>
        <time>2021-08-24T18:03:31.503Z</time>
      </trkpt>
      <trkpt lat="40.123405" lon="-0.206487">
        <ele>382.7</ele>
        <time>2021-08-24T18:03:39.244Z</time>
      </trkpt>
      <trkpt lat="40.123506" lon="-0.206032">
        <ele>382.1</ele>
        <time>2021-08-24T18:03:49.901Z</time>
      </trkpt>
      <trkpt lat="40.123732" lon="-0.205749">
        <ele>382.8</ele>
        <time>2021-08-24T18:04:00.287Z</time>
      </trkpt>
      <trkpt lat="40.124069" lon="-0.204503">
        <ele>384.9</ele>
        <time>2021-08-24T18:04:45.611Z</time>
      </trkpt>
      <trkpt lat="40.124640" lon="-0.202925">
        <ele>389.4</ele>
        <time>2021-08-24T18:05:54.941Z</time>
      </trkpt>
      <trkpt lat="40.124700" lon="-0.202787">
        <ele>389.9</ele>
        <time>2021-08-24T18:06:01.359Z</time>
      </trkpt>
      <trkpt lat="40.125062" lon="-0.202485">
        <ele>391.6</ele>
        <time>2021-08-24T18:06:24.047Z</time>
      </trkpt>
      <trkpt lat="40.125010" lon="-0.201961">
        <ele>393.2</ele>
        <time>2021-08-24T18:06:44.852Z</time>
      </trkpt>
      <trkpt lat="40.125176" lon="-0.201675">
        <ele>394.1</ele>
        <time>2021-08-24T18:06:58.793Z</time>
      </trkpt>
      <trkpt lat="40.125108" lon="-0.201336">
        <ele>395.0</ele>
        <time>2021-08-24T18:07:12.096Z</time>
      </trkpt>
      <trkpt lat="40.125230" lon="-0.201119">
        <ele>395.7</ele>
        <time>2021-08-24T18:07:22.197Z</time>
      </trkpt>
      <trkpt lat="40.125298" lon="-0.200818">
        <ele>396.5</ele>
        <time>2021-08-24T18:07:33.806Z</time>
      </trkpt>
      <trkpt lat="40.125370" lon="-0.200645">
        <ele>397.0</ele>
        <time>2021-08-24T18:07:40.901Z</time>
      </trkpt>
      <trkpt lat="40.125559" lon="-0.200476">
        <ele>397.7</ele>
        <time>2021-08-24T18:07:51.748Z</time>
      </trkpt>
      <trkpt lat="40.125824" lon="-0.200127">
        <ele>398.9</ele>
        <time>2021-08-24T18:08:09.125Z</time>
      </trkpt>
      <trkpt lat="40.126215" lon="-0.199296">
        <ele>400.5</ele>
        <time>2021-08-24T18:08:41.745Z</time>
      </trkpt>
      <trkpt lat="40.126268" lon="-0.198990">
        <ele>401.0</ele>
        <time>2021-08-24T18:08:51.762Z</time>
      </trkpt>
      <trkpt lat="40.126342" lon="-0.198861">
        <ele>401.2</ele>
        <time>2021-08-24T18:08:56.869Z</time>
      </trkpt>
      <trkpt lat="40.126514" lon="-0.198779">
        <ele>401.6</ele>
        <time>2021-08-24T18:09:04.421Z</time>
      </trkpt>
      <trkpt lat="40.126678" lon="-0.198594">
        <ele>402.1</ele>
        <time>2021-08-24T18:09:13.189Z</time>
      </trkpt>
      <trkpt lat="40.126832" lon="-0.198294">
        <ele>402.6</ele>
        <time>2021-08-24T18:09:24.061Z</time>
      </trkpt>
      <trkpt lat="40.126995" lon="-0.198144">
        <ele>402.8</ele>
        <time>2021-08-24T18:09:31.868Z</time>
      </trkpt>
      <trkpt lat="40.127153" lon="-0.197799">
        <ele>403.2</ele>
        <time>2021-08-24T18:09:43.490Z</time>
      </trkpt>
      <trkpt lat="40.127262" lon="-0.197262">
        <ele>403.6</ele>
        <time>2021-08-24T18:09:59.034Z</time>
      </trkpt>
      <trkpt lat="40.127416" lon="-0.196906">
        <ele>404.0</ele>
        <time>2021-08-24T18:10:09.980Z</time>
      </trkpt>
      <trkpt lat="40.127903" lon="-0.195348">
        <ele>406.6</ele>
        <time>2021-08-24T18:10:57.126Z</time>
      </trkpt>
      <trkpt lat="40.127938" lon="-0.195063">
        <ele>407.2</ele>
        <time>2021-08-24T18:11:07.831Z</time>
      </trkpt>
      <trkpt lat="40.128073" lon="-0.194475">
        <ele>408.4</ele>
        <time>2021-08-24T18:11:29.013Z</time>
      </trkpt>
      <trkpt lat="40.128086" lon="-0.194093">
        <ele>409.2</ele>
        <time>2021-08-24T18:11:44.820Z</time>
      </trkpt>
      <trkpt lat="40.128064" lon="-0.193961">
        <ele>409.7</ele>
        <time>2021-08-24T18:11:50.258Z</time>
      </trkpt>
      <trkpt lat="40.128000" lon="-0.193920">
        <ele>410.2</ele>
        <time>2021-08-24T18:11:54.169Z</time>
      </trkpt>
      <trkpt lat="40.127947" lon="-0.193953">
        <ele>410.6</ele>
        <time>2021-08-24T18:11:58.905Z</time>
      </trkpt>
      <trkpt lat="40.127877" lon="-0.193938">
        <ele>411.1</ele>
        <time>2021-08-24T18:12:02.136Z</time>
      </trkpt>
      <trkpt lat="40.127874" lon="-0.193853">
        <ele>411.6</ele>
        <time>2021-08-24T18:12:05.376Z</time>
      </trkpt>
      <trkpt lat="40.127999" lon="-0.193476">
        <ele>413.8</ele>
        <time>2021-08-24T18:12:22.273Z</time>
      </trkpt>
      <trkpt lat="40.128136" lon="-0.193296">
        <ele>415.1</ele>
        <time>2021-08-24T18:12:31.873Z</time>
      </trkpt>
      <trkpt lat="40.128138" lon="-0.193209">
        <ele>415.6</ele>
        <time>2021-08-24T18:12:36.992Z</time>
      </trkpt>
      <trkpt lat="40.127904" lon="-0.192958">
        <ele>417.7</ele>
        <time>2021-08-24T18:12:53.051Z</time>
      </trkpt>
      <trkpt lat="40.127893" lon="-0.192829">
        <ele>418.4</ele>
        <time>2021-08-24T18:13:00.344Z</time>
      </trkpt>
      <trkpt lat="40.127994" lon="-0.192462">
        <ele>420.5</ele>
        <time>2021-08-24T18:13:18.285Z</time>
      </trkpt>
      <trkpt lat="40.128165" lon="-0.192342">
        <ele>421.8</ele>
        <time>2021-08-24T18:13:30.998Z</time>
      </trkpt>
      <trkpt lat="40.128498" lon="-0.191511">
        <ele>428.0</ele>
        <time>2021-08-24T18:14:14.557Z</time>
      </trkpt>
      <trkpt lat="40.128519" lon="-0.191369">
        <ele>429.0</ele>
        <time>2021-08-24T18:14:21.518Z</time>
      </trkpt>
      <trkpt lat="40.128496" lon="-0.191272">
        <ele>429.7</ele>
        <time>2021-08-24T18:14:26.428Z</time>
      </trkpt>
      <trkpt lat="40.127799" lon="-0.190459">
        <ele>437.8</ele>
        <time>2021-08-24T18:15:27.109Z</time>
      </trkpt>
      <trkpt lat="40.127845" lon="-0.190436">
        <ele>438.3</ele>
        <time>2021-08-24T18:15:30.346Z</time>
      </trkpt>
      <trkpt lat="40.128090" lon="-0.190583">
        <ele>441.2</ele>
        <time>2021-08-24T18:15:47.751Z</time>
      </trkpt>
      <trkpt lat="40.128451" lon="-0.190476">
        <ele>445.1</ele>
        <time>2021-08-24T18:16:12.580Z</time>
      </trkpt>
      <trkpt lat="40.128471" lon="-0.190324">
        <ele>446.3</ele>
        <time>2021-08-24T18:16:24.369Z</time>
      </trkpt>
      <trkpt lat="40.128335" lon="-0.189438">
        <ele>453.6</ele>
        <time>2021-08-24T18:17:17.009Z</time>
      </trkpt>
      <trkpt lat="40.128350" lon="-0.188577">
        <ele>459.9</ele>
        <time>2021-08-24T18:18:04.899Z</time>
      </trkpt>
      <trkpt lat="40.128308" lon="-0.188442">
        <ele>460.9</ele>
        <time>2021-08-24T18:18:16.121Z</time>
      </trkpt>
      <trkpt lat="40.128208" lon="-0.188451">
        <ele>461.7</ele>
        <time>2021-08-24T18:18:21.672Z</time>
      </trkpt>
      <trkpt lat="40.127998" lon="-0.188624">
        <ele>463.9</ele>
        <time>2021-08-24T18:18:39.445Z</time>
      </trkpt>
      <trkpt lat="40.127677" lon="-0.188732">
        <ele>466.9</ele>
        <time>2021-08-24T18:18:59.603Z</time>
      </trkpt>
      <trkpt lat="40.127490" lon="-0.188936">
        <ele>469.0</ele>
        <time>2021-08-24T18:19:12.819Z</time>
      </trkpt>
      <trkpt lat="40.127201" lon="-0.189025">
        <ele>471.6</ele>
        <time>2021-08-24T18:19:30.482Z</time>
      </trkpt>
      <trkpt lat="40.126977" lon="-0.188955">
        <ele>472.9</ele>
        <time>2021-08-24T18:19:44.849Z</time>
      </trkpt>
      <trkpt lat="40.126593" lon="-0.188474">
        <ele>474.9</ele>
        <time>2021-08-24T18:20:06.316Z</time>
      </trkpt>
      <trkpt lat="40.126397" lon="-0.188396">
        <ele>475.7</ele>
        <time>2021-08-24T18:20:13.903Z</time>
      </trkpt>
      <trkpt lat="40.126251" lon="-0.188430">
        <ele>476.2</ele>
        <time>2021-08-24T18:20:19.639Z</time>
      </trkpt>
      <trkpt lat="40.126146" lon="-0.188763">
        <ele>477.3</ele>
        <time>2021-08-24T18:20:28.579Z</time>
      </trkpt>
      <trkpt lat="40.125892" lon="-0.189245">
        <ele>478.9</ele>
        <time>2021-08-24T18:20:42.411Z</time>
      </trkpt>
      <trkpt lat="40.126152" lon="-0.190084">
        <ele>480.5</ele>
        <time>2021-08-24T18:21:02.422Z</time>
      </trkpt>
      <trkpt lat="40.126152" lon="-0.190368">
        <ele>481.0</ele>
        <time>2021-08-24T18:21:08.741Z</time>
      </trkpt>
      <trkpt lat="40.125998" lon="-0.190615">
        <ele>481.5</ele>
        <time>2021-08-24T18:21:17.394Z</time>
      </trkpt>
      <trkpt lat="40.125775" lon="-0.190605">
        <ele>482.0</ele>
        <time>2021-08-24T18:21:24.944Z</time>
      </trkpt>
      <trkpt lat="40.125623" lon="-0.190442">
        <ele>482.4</ele>
        <time>2021-08-24T18:21:31.165Z</time>
      </trkpt>
      <trkpt lat="40.125135" lon="-0.189688">
        <ele>483.8</ele>
        <time>2021-08-24T18:21:53.842Z</time>
      </trkpt>
      <trkpt lat="40.124962" lon="-0.189469">
        <ele>484.2</ele>
        <time>2021-08-24T18:22:01.474Z</time>
      </trkpt>
      <trkpt lat="40.125021" lon="-0.188945">
        <ele>484.8</ele>
        <time>2021-08-24T18:22:13.140Z</time>
      </trkpt>
      <trkpt lat="40.125054" lon="-0.188655">
        <ele>485.2</ele>
        <time>2021-08-24T18:22:19.410Z</time>
      </trkpt>
      <trkpt lat="40.124795" lon="-0.188456">
        <ele>485.7</ele>
        <time>2021-08-24T18:22:27.289Z</time>
      </trkpt>
      <trkpt lat="40.124593" lon="-0.187902">
        <ele>485.7</ele>
        <time>2021-08-24T18:22:38.840Z</time>
      </trkpt>
      <trkpt lat="40.124610" lon="-0.186866">
        <ele>485.4</ele>
        <time>2021-08-24T18:22:53.347Z</time>
      </trkpt>
      <trkpt lat="40.124931" lon="-0.186395">
        <ele>485.2</ele>
        <time>2021-08-24T18:23:01.958Z</time>
      </trkpt>
      <trkpt lat="40.124837" lon="-0.186005">
        <ele>485.1</ele>
        <time>2021-08-24T18:23:07.526Z</time>
      </trkpt>
      <trkpt lat="40.124673" lon="-0.185618">
        <ele>485.0</ele>
        <time>2021-08-24T18:23:13.661Z</time>
      </trkpt>
      <trkpt lat="40.124639" lon="-0.185126">
        <ele>484.9</ele>
        <time>2021-08-24T18:23:20.717Z</time>
      </trkpt>
      <trkpt lat="40.124517" lon="-0.184539">
        <ele>484.8</ele>
        <time>2021-08-24T18:23:29.900Z</time>
      </trkpt>
      <trkpt lat="40.124386" lon="-0.184279">
        <ele>484.8</ele>
        <time>2021-08-24T18:23:34.911Z</time>
      </trkpt>
      <trkpt lat="40.124159" lon="-0.183536">
        <ele>485.3</ele>
        <time>2021-08-24T18:23:49.719Z</time>
      </trkpt>
      <trkpt lat="40.123994" lon="-0.183225">
        <ele>485.9</ele>
        <time>2021-08-24T18:23:57.463Z</time>
      </trkpt>
      <trkpt lat="40.123854" lon="-0.182449">
        <ele>486.9</ele>
        <time>2021-08-24T18:24:14.957Z</time>
      </trkpt>
      <trkpt lat="40.123824" lon="-0.182049">
        <ele>487.5</ele>
        <time>2021-08-24T18:24:24.891Z</time>
      </trkpt>
      <trkpt lat="40.123375" lon="-0.181217">
        <ele>489.7</ele>
        <time>2021-08-24T18:24:52.945Z</time>
      </trkpt>
      <trkpt lat="40.123020" lon="-0.180914">
        <ele>491.1</ele>
        <time>2021-08-24T18:25:08.585Z</time>
      </trkpt>
      <trkpt lat="40.122773" lon="-0.180538">
        <ele>492.3</ele>
        <time>2021-08-24T18:25:22.521Z</time>
      </trkpt>
      <trkpt lat="40.122533" lon="-0.180204">
        <ele>493.5</ele>
        <time>2021-08-24T18:25:35.263Z</time>
      </trkpt>
      <trkpt lat="40.122260" lon="-0.179649">
        <ele>494.7</ele>
        <time>2021-08-24T18:25:56.026Z</time>
      </trkpt>
      <trkpt lat="40.122141" lon="-0.179303">
        <ele>495.3</ele>
        <time>2021-08-24T18:26:07.505Z</time>
      </trkpt>
      <trkpt lat="40.122131" lon="-0.178980">
        <ele>495.8</ele>
        <time>2021-08-24T18:26:17.196Z</time>
      </trkpt>
      <trkpt lat="40.121988" lon="-0.178405">
        <ele>496.7</ele>
        <time>2021-08-24T18:26:30.879Z</time>
      </trkpt>
      <trkpt lat="40.121900" lon="-0.178305">
        <ele>497.0</ele>
        <time>2021-08-24T18:26:33.055Z</time>
      </trkpt>
      <trkpt lat="40.121588" lon="-0.178171">
        <ele>497.3</ele>
        <time>2021-08-24T18:26:39.023Z</time>
      </trkpt>
      <trkpt lat="40.121537" lon="-0.178089">
        <ele>496.9</ele>
        <time>2021-08-24T18:26:40.431Z</time>
      </trkpt>
      <trkpt lat="40.121088" lon="-0.177759">
        <ele>494.5</ele>
        <time>2021-08-24T18:26:48.819Z</time>
      </trkpt>
      <trkpt lat="40.120998" lon="-0.177614">
        <ele>493.9</ele>
        <time>2021-08-24T18:26:50.960Z</time>
      </trkpt>
      <trkpt lat="40.120907" lon="-0.177432">
        <ele>493.1</ele>
        <time>2021-08-24T18:26:53.587Z</time>
      </trkpt>
      <trkpt lat="40.120830" lon="-0.177203">
        <ele>492.2</ele>
        <time>2021-08-24T18:26:56.262Z</time>
      </trkpt>
      <trkpt lat="40.120511" lon="-0.176924">
        <ele>490.4</ele>
        <time>2021-08-24T18:27:01.462Z</time>
      </trkpt>
      <trkpt lat="40.120332" lon="-0.176464">
        <ele>487.9</ele>
        <time>2021-08-24T18:27:06.545Z</time>
      </trkpt>
      <trkpt lat="40.120287" lon="-0.176272">
        <ele>486.3</ele>
        <time>2021-08-24T18:27:08.519Z</time>
      </trkpt>
      <trkpt lat="40.120321" lon="-0.175668">
        <ele>481.4</ele>
        <time>2021-08-24T18:27:14.307Z</time>
      </trkpt>
      <trkpt lat="40.120245" lon="-0.175493">
        <ele>479.7</ele>
        <time>2021-08-24T18:27:16.186Z</time>
      </trkpt>
      <trkpt lat="40.120086" lon="-0.175308">
        <ele>477.5</ele>
        <time>2021-08-24T18:27:18.912Z</time>
      </trkpt>
      <trkpt lat="40.119971" lon="-0.175137">
        <ele>475.7</ele>
        <time>2021-08-24T18:27:21.075Z</time>
      </trkpt>
      <trkpt lat="40.119926" lon="-0.175064">
        <ele>474.9</ele>
        <time>2021-08-24T18:27:22.022Z</time>
      </trkpt>
      <trkpt lat="40.119817" lon="-0.174762">
        <ele>472.2</ele>
        <time>2021-08-24T18:27:25.239Z</time>
      </trkpt>
      <trkpt lat="40.119817" lon="-0.174762">
        <ele>472.2</ele>
        <time>2021-08-24T18:27:25.258Z</time>
      </trkpt>
      <trkpt lat="40.119798" lon="-0.174774">
        <ele>472.0</ele>
        <time>2021-08-24T18:27:25.529Z</time>
      </trkpt>
      <trkpt lat="40.119711" lon="-0.174832">
        <ele>471.0</ele>
        <time>2021-08-24T18:27:26.810Z</time>
      </trkpt>
      <trkpt lat="40.119670" lon="-0.174754">
        <ele>470.2</ele>
        <time>2021-08-24T18:27:27.721Z</time>
      </trkpt>
      <trkpt lat="40.119606" lon="-0.174633">
        <ele>468.9</ele>
        <time>2021-08-24T18:27:29.154Z</time>
      </trkpt>
      <trkpt lat="40.119493" lon="-0.174487">
        <ele>467.1</ele>
        <time>2021-08-24T18:27:31.145Z</time>
      </trkpt>
      <trkpt lat="40.119404" lon="-0.174374">
        <ele>465.6</ele>
        <time>2021-08-24T18:27:32.698Z</time>
      </trkpt>
      <trkpt lat="40.119429" lon="-0.174319">
        <ele>465.1</ele>
        <time>2021-08-24T18:27:33.312Z</time>
      </trkpt>
      <trkpt lat="40.119525" lon="-0.174106">
        <ele>462.9</ele>
        <time>2021-08-24T18:27:35.599Z</time>
      </trkpt>
      <trkpt lat="40.119525" lon="-0.174106">
        <ele>462.9</ele>
        <time>2021-08-24T18:27:35.619Z</time>
      </trkpt>
      <trkpt lat="40.119525" lon="-0.174106">
        <ele>462.9</ele>
        <time>2021-08-24T18:27:35.862Z</time>
      </trkpt>
      <trkpt lat="40.119557" lon="-0.174035">
        <ele>462.2</ele>
        <time>2021-08-24T18:27:36.639Z</time>
      </trkpt>
      <trkpt lat="40.119732" lon="-0.173794">
        <ele>459.2</ele>
        <time>2021-08-24T18:27:39.779Z</time>
      </trkpt>
      <trkpt lat="40.119826" lon="-0.173519">
        <ele>456.6</ele>
        <time>2021-08-24T18:27:42.730Z</time>
      </trkpt>
      <trkpt lat="40.120061" lon="-0.173336">
        <ele>453.4</ele>
        <time>2021-08-24T18:27:46.090Z</time>
      </trkpt>
      <trkpt lat="40.120169" lon="-0.173190">
        <ele>451.6</ele>
        <time>2021-08-24T18:27:51.756Z</time>
      </trkpt>
      <trkpt lat="40.120153" lon="-0.173110">
        <ele>454.5</ele>
        <time>2021-08-24T18:27:54.244Z</time>
      </trkpt>
      <trkpt lat="40.119930" lon="-0.172780">
        <ele>456.5</ele>
        <time>2021-08-24T18:28:06.473Z</time>
      </trkpt>
      <trkpt lat="40.119930" lon="-0.172647">
        <ele>446.6</ele>
        <time>2021-08-24T18:28:11.385Z</time>
      </trkpt>
      <trkpt lat="40.119713" lon="-0.172386">
        <ele>443.9</ele>
        <time>2021-08-24T18:28:22.117Z</time>
      </trkpt>
      <trkpt lat="40.119245" lon="-0.172148">
        <ele>455.1</ele>
        <time>2021-08-24T18:28:40.695Z</time>
      </trkpt>
      <trkpt lat="40.119150" lon="-0.172076">
        <ele>454.3</ele>
        <time>2021-08-24T18:28:44.682Z</time>
      </trkpt>
      <trkpt lat="40.119119" lon="-0.172071">
        <ele>453.7</ele>
        <time>2021-08-24T18:28:45.857Z</time>
      </trkpt>
      <trkpt lat="40.119052" lon="-0.172032">
        <ele>437.2</ele>
        <time>2021-08-24T18:28:51.865Z</time>
      </trkpt>
      <trkpt lat="40.118657" lon="-0.171663">
        <ele>443.5</ele>
        <time>2021-08-24T18:29:09.582Z</time>
      </trkpt>
      <trkpt lat="40.118243" lon="-0.171424">
        <ele>430.3</ele>
        <time>2021-08-24T18:29:26.570Z</time>
      </trkpt>
      <trkpt lat="40.117766" lon="-0.170830">
        <ele>426.9</ele>
        <time>2021-08-24T18:29:50.491Z</time>
      </trkpt>
      <trkpt lat="40.117381" lon="-0.170514">
        <ele>424.5</ele>
        <time>2021-08-24T18:30:07.004Z</time>
      </trkpt>
      <trkpt lat="40.117240" lon="-0.170088">
        <ele>422.6</ele>
        <time>2021-08-24T18:30:19.900Z</time>
      </trkpt>
      <trkpt lat="40.117251" lon="-0.169816">
        <ele>421.6</ele>
        <time>2021-08-24T18:30:27.464Z</time>
      </trkpt>
      <trkpt lat="40.117227" lon="-0.169724">
        <ele>424.3</ele>
        <time>2021-08-24T18:30:30.309Z</time>
      </trkpt>
      <trkpt lat="40.117139" lon="-0.169338">
        <ele>421.9</ele>
        <time>2021-08-24T18:30:41.507Z</time>
      </trkpt>
      <trkpt lat="40.117083" lon="-0.169075">
        <ele>418.7</ele>
        <time>2021-08-24T18:30:49.147Z</time>
      </trkpt>
      <trkpt lat="40.116969" lon="-0.168834">
        <ele>417.6</ele>
        <time>2021-08-24T18:30:57.021Z</time>
      </trkpt>
      <trkpt lat="40.116941" lon="-0.168657">
        <ele>416.9</ele>
        <time>2021-08-24T18:31:02.043Z</time>
      </trkpt>
      <trkpt lat="40.116863" lon="-0.168491">
        <ele>416.2</ele>
        <time>2021-08-24T18:31:07.452Z</time>
      </trkpt>
      <trkpt lat="40.116813" lon="-0.168288">
        <ele>415.4</ele>
        <time>2021-08-24T18:31:13.374Z</time>
      </trkpt>
      <trkpt lat="40.116801" lon="-0.168239">
        <ele>415.2</ele>
        <time>2021-08-24T18:31:14.802Z</time>
      </trkpt>
      <trkpt lat="40.116958" lon="-0.167702">
        <ele>408.6</ele>
        <time>2021-08-24T18:31:30.887Z</time>
      </trkpt>
      <trkpt lat="40.117202" lon="-0.167135">
        <ele>402.3</ele>
        <time>2021-08-24T18:31:49.070Z</time>
      </trkpt>
      <trkpt lat="40.117239" lon="-0.167110">
        <ele>402.1</ele>
        <time>2021-08-24T18:31:50.610Z</time>
      </trkpt>
      <trkpt lat="40.117384" lon="-0.166902">
        <ele>408.1</ele>
        <time>2021-08-24T18:31:58.645Z</time>
      </trkpt>
      <trkpt lat="40.117398" lon="-0.166788">
        <ele>407.5</ele>
        <time>2021-08-24T18:32:01.854Z</time>
      </trkpt>
      <trkpt lat="40.117429" lon="-0.166575">
        <ele>395.3</ele>
        <time>2021-08-24T18:32:09.065Z</time>
      </trkpt>
      <trkpt lat="40.117552" lon="-0.166361">
        <ele>405.3</ele>
        <time>2021-08-24T18:32:17.182Z</time>
      </trkpt>
      <trkpt lat="40.117573" lon="-0.166221">
        <ele>404.6</ele>
        <time>2021-08-24T18:32:21.146Z</time>
      </trkpt>
      <trkpt lat="40.117419" lon="-0.165564">
        <ele>401.0</ele>
        <time>2021-08-24T18:32:40.247Z</time>
      </trkpt>
      <trkpt lat="40.117346" lon="-0.165136">
        <ele>369.6</ele>
        <time>2021-08-24T18:32:56.146Z</time>
      </trkpt>
      <trkpt lat="40.117401" lon="-0.164681">
        <ele>396.1</ele>
        <time>2021-08-24T18:33:11.589Z</time>
      </trkpt>
      <trkpt lat="40.117382" lon="-0.164439">
        <ele>352.5</ele>
        <time>2021-08-24T18:33:27.345Z</time>
      </trkpt>
      <trkpt lat="40.117450" lon="-0.163914">
        <ele>391.9</ele>
        <time>2021-08-24T18:33:46.933Z</time>
      </trkpt>
      <trkpt lat="40.117565" lon="-0.163313">
        <ele>388.1</ele>
        <time>2021-08-24T18:34:04.165Z</time>
      </trkpt>
      <trkpt lat="40.117777" lon="-0.162775">
        <ele>341.4</ele>
        <time>2021-08-24T18:34:26.842Z</time>
      </trkpt>
      <trkpt lat="40.117858" lon="-0.162678">
        <ele>383.3</ele>
        <time>2021-08-24T18:34:41.064Z</time>
      </trkpt>
      <trkpt lat="40.118018" lon="-0.162249">
        <ele>380.2</ele>
        <time>2021-08-24T18:34:54.345Z</time>
      </trkpt>
      <trkpt lat="40.118049" lon="-0.162020">
        <ele>333.8</ele>
        <time>2021-08-24T18:35:10.797Z</time>
      </trkpt>
      <trkpt lat="40.118100" lon="-0.161911">
        <ele>377.9</ele>
        <time>2021-08-24T18:35:25.605Z</time>
      </trkpt>
      <trkpt lat="40.118126" lon="-0.161658">
        <ele>376.2</ele>
        <time>2021-08-24T18:35:32.710Z</time>
      </trkpt>
      <trkpt lat="40.118151" lon="-0.161121">
        <ele>332.6</ele>
        <time>2021-08-24T18:35:53.340Z</time>
      </trkpt>
      <trkpt lat="40.118309" lon="-0.160972">
        <ele>370.4</ele>
        <time>2021-08-24T18:36:07.564Z</time>
      </trkpt>
      <trkpt lat="40.118419" lon="-0.160790">
        <ele>368.6</ele>
        <time>2021-08-24T18:36:14.024Z</time>
      </trkpt>
      <trkpt lat="40.118444" lon="-0.160746">
        <ele>368.2</ele>
        <time>2021-08-24T18:36:15.551Z</time>
      </trkpt>
      <trkpt lat="40.118431" lon="-0.160230">
        <ele>329.0</ele>
        <time>2021-08-24T18:36:34.754Z</time>
      </trkpt>
      <trkpt lat="40.118342" lon="-0.160092">
        <ele>362.8</ele>
        <time>2021-08-24T18:36:46.857Z</time>
      </trkpt>
      <trkpt lat="40.118076" lon="-0.159828">
        <ele>359.5</ele>
        <time>2021-08-24T18:36:59.022Z</time>
      </trkpt>
      <trkpt lat="40.118093" lon="-0.159651">
        <ele>358.1</ele>
        <time>2021-08-24T18:37:03.993Z</time>
      </trkpt>
      <trkpt lat="40.118043" lon="-0.159281">
        <ele>354.9</ele>
        <time>2021-08-24T18:37:14.470Z</time>
      </trkpt>
      <trkpt lat="40.118080" lon="-0.158744">
        <ele>350.3</ele>
        <time>2021-08-24T18:37:29.502Z</time>
      </trkpt>
      <trkpt lat="40.118101" lon="-0.158683">
        <ele>349.7</ele>
        <time>2021-08-24T18:37:31.368Z</time>
      </trkpt>
      <trkpt lat="40.118117" lon="-0.158632">
        <ele>349.2</ele>
        <time>2021-08-24T18:37:32.908Z</time>
      </trkpt>
      <trkpt lat="40.118273" lon="-0.158551">
        <ele>347.3</ele>
        <time>2021-08-24T18:37:39.026Z</time>
      </trkpt>
      <trkpt lat="40.118359" lon="-0.158428">
        <ele>345.9</ele>
        <time>2021-08-24T18:37:43.673Z</time>
      </trkpt>
      <trkpt lat="40.118712" lon="-0.157988">
        <ele>340.4</ele>
        <time>2021-08-24T18:38:01.458Z</time>
      </trkpt>
      <trkpt lat="40.118764" lon="-0.157855">
        <ele>339.1</ele>
        <time>2021-08-24T18:38:05.621Z</time>
      </trkpt>
      <trkpt lat="40.118748" lon="-0.157501">
        <ele>336.0</ele>
        <time>2021-08-24T18:38:15.514Z</time>
      </trkpt>
      <trkpt lat="40.118748" lon="-0.156980">
        <ele>331.3</ele>
        <time>2021-08-24T18:38:30.052Z</time>
      </trkpt>
      <trkpt lat="40.118838" lon="-0.156573">
        <ele>327.5</ele>
        <time>2021-08-24T18:38:41.872Z</time>
      </trkpt>
      <trkpt lat="40.118801" lon="-0.156376">
        <ele>318.4</ele>
        <time>2021-08-24T18:38:48.235Z</time>
      </trkpt>
      <trkpt lat="40.118821" lon="-0.156192">
        <ele>324.0</ele>
        <time>2021-08-24T18:38:53.703Z</time>
      </trkpt>
      <trkpt lat="40.118766" lon="-0.155949">
        <ele>293.3</ele>
        <time>2021-08-24T18:39:05.942Z</time>
      </trkpt>
      <trkpt lat="40.118760" lon="-0.155907">
        <ele>321.4</ele>
        <time>2021-08-24T18:39:15.192Z</time>
      </trkpt>
      <trkpt lat="40.118846" lon="-0.155907">
        <ele>320.4</ele>
        <time>2021-08-24T18:39:18.330Z</time>
      </trkpt>
      <trkpt lat="40.118916" lon="-0.156036">
        <ele>319.0</ele>
        <time>2021-08-24T18:39:22.746Z</time>
      </trkpt>
      <trkpt lat="40.118916" lon="-0.156022">
        <ele>292.1</ele>
        <time>2021-08-24T18:39:31.543Z</time>
      </trkpt>
      <trkpt lat="40.118945" lon="-0.155924">
        <ele>317.9</ele>
        <time>2021-08-24T18:39:40.457Z</time>
      </trkpt>
      <trkpt lat="40.118981" lon="-0.155869">
        <ele>317.3</ele>
        <time>2021-08-24T18:39:42.476Z</time>
      </trkpt>
      <trkpt lat="40.119010" lon="-0.155827">
        <ele>316.8</ele>
        <time>2021-08-24T18:39:44.057Z</time>
      </trkpt>
      <trkpt lat="40.118969" lon="-0.155714">
        <ele>315.7</ele>
        <time>2021-08-24T18:39:47.546Z</time>
      </trkpt>
      <trkpt lat="40.119022" lon="-0.155639">
        <ele>314.9</ele>
        <time>2021-08-24T18:39:50.389Z</time>
      </trkpt>
      <trkpt lat="40.118991" lon="-0.155595">
        <ele>314.4</ele>
        <time>2021-08-24T18:39:52.058Z</time>
      </trkpt>
      <trkpt lat="40.118961" lon="-0.155553">
        <ele>313.9</ele>
        <time>2021-08-24T18:39:53.659Z</time>
      </trkpt>
      <trkpt lat="40.118719" lon="-0.155537">
        <ele>311.3</ele>
        <time>2021-08-24T18:40:02.487Z</time>
      </trkpt>
      <trkpt lat="40.118628" lon="-0.155485">
        <ele>310.2</ele>
        <time>2021-08-24T18:40:06.109Z</time>
      </trkpt>
      <trkpt lat="40.118588" lon="-0.155462">
        <ele>309.8</ele>
        <time>2021-08-24T18:40:07.703Z</time>
      </trkpt>
      <trkpt lat="40.118522" lon="-0.155237">
        <ele>307.8</ele>
        <time>2021-08-24T18:40:14.420Z</time>
      </trkpt>
      <trkpt lat="40.118424" lon="-0.155119">
        <ele>306.4</ele>
        <time>2021-08-24T18:40:19.273Z</time>
      </trkpt>
      <trkpt lat="40.118278" lon="-0.154826">
        <ele>278.0</ele>
        <time>2021-08-24T18:40:32.697Z</time>
      </trkpt>
      <trkpt lat="40.117966" lon="-0.154510">
        <ele>299.3</ele>
        <time>2021-08-24T18:40:48.609Z</time>
      </trkpt>
      <trkpt lat="40.117845" lon="-0.154373">
        <ele>297.5</ele>
        <time>2021-08-24T18:40:54.446Z</time>
      </trkpt>
      <trkpt lat="40.117651" lon="-0.154328">
        <ele>295.3</ele>
        <time>2021-08-24T18:41:01.630Z</time>
      </trkpt>
      <trkpt lat="40.117780" lon="-0.154010">
        <ele>269.2</ele>
        <time>2021-08-24T18:41:14.745Z</time>
      </trkpt>
      <trkpt lat="40.117923" lon="-0.153662">
        <ele>289.5</ele>
        <time>2021-08-24T18:41:27.545Z</time>
      </trkpt>
      <trkpt lat="40.118381" lon="-0.153501">
        <ele>285.1</ele>
        <time>2021-08-24T18:41:44.813Z</time>
      </trkpt>
      <trkpt lat="40.118826" lon="-0.153031">
        <ele>279.8</ele>
        <time>2021-08-24T18:42:05.642Z</time>
      </trkpt>
      <trkpt lat="40.119347" lon="-0.152793">
        <ele>275.2</ele>
        <time>2021-08-24T18:42:25.721Z</time>
      </trkpt>
      <trkpt lat="40.119675" lon="-0.152537">
        <ele>272.1</ele>
        <time>2021-08-24T18:42:39.614Z</time>
      </trkpt>
      <trkpt lat="40.120069" lon="-0.152289">
        <ele>268.5</ele>
        <time>2021-08-24T18:42:55.529Z</time>
      </trkpt>
      <trkpt lat="40.120270" lon="-0.152106">
        <ele>266.5</ele>
        <time>2021-08-24T18:43:04.438Z</time>
      </trkpt>
      <trkpt lat="40.120368" lon="-0.151838">
        <ele>264.8</ele>
        <time>2021-08-24T18:43:12.697Z</time>
      </trkpt>
      <trkpt lat="40.120524" lon="-0.151591">
        <ele>262.9</ele>
        <time>2021-08-24T18:43:21.607Z</time>
      </trkpt>
      <trkpt lat="40.120538" lon="-0.151220">
        <ele>250.1</ele>
        <time>2021-08-24T18:43:32.731Z</time>
      </trkpt>
      <trkpt lat="40.120539" lon="-0.150864">
        <ele>246.2</ele>
        <time>2021-08-24T18:43:42.680Z</time>
      </trkpt>
      <trkpt lat="40.120518" lon="-0.150549">
        <ele>257.0</ele>
        <time>2021-08-24T18:43:52.138Z</time>
      </trkpt>
      <trkpt lat="40.120662" lon="-0.149958">
        <ele>253.4</ele>
        <time>2021-08-24T18:44:09.390Z</time>
      </trkpt>
      <trkpt lat="40.121142" lon="-0.149814">
        <ele>249.9</ele>
        <time>2021-08-24T18:44:27.293Z</time>
      </trkpt>
      <trkpt lat="40.121329" lon="-0.149458">
        <ele>255.8</ele>
        <time>2021-08-24T18:44:39.430Z</time>
      </trkpt>
      <trkpt lat="40.121440" lon="-0.149172">
        <ele>235.7</ele>
        <time>2021-08-24T18:44:50.503Z</time>
      </trkpt>
      <trkpt lat="40.121695" lon="-0.148774">
        <ele>243.1</ele>
        <time>2021-08-24T18:45:05.100Z</time>
      </trkpt>
      <trkpt lat="40.122097" lon="-0.148357">
        <ele>239.6</ele>
        <time>2021-08-24T18:45:23.749Z</time>
      </trkpt>
      <trkpt lat="40.122248" lon="-0.148087">
        <ele>237.9</ele>
        <time>2021-08-24T18:45:33.049Z</time>
      </trkpt>
      <trkpt lat="40.122220" lon="-0.147848">
        <ele>236.9</ele>
        <time>2021-08-24T18:45:39.753Z</time>
      </trkpt>
      <trkpt lat="40.122122" lon="-0.147561">
        <ele>235.1</ele>
        <time>2021-08-24T18:45:48.504Z</time>
      </trkpt>
      <trkpt lat="40.121803" lon="-0.147321">
        <ele>233.1</ele>
        <time>2021-08-24T18:46:01.869Z</time>
      </trkpt>
      <trkpt lat="40.121627" lon="-0.146995">
        <ele>230.8</ele>
        <time>2021-08-24T18:46:12.963Z</time>
      </trkpt>
      <trkpt lat="40.121558" lon="-0.146723">
        <ele>234.4</ele>
        <time>2021-08-24T18:46:21.006Z</time>
      </trkpt>
      <trkpt lat="40.121622" lon="-0.146046">
        <ele>235.3</ele>
        <time>2021-08-24T18:46:39.936Z</time>
      </trkpt>
      <trkpt lat="40.121611" lon="-0.145624">
        <ele>224.5</ele>
        <time>2021-08-24T18:46:52.167Z</time>
      </trkpt>
      <trkpt lat="40.121531" lon="-0.145224">
        <ele>233.9</ele>
        <time>2021-08-24T18:47:04.051Z</time>
      </trkpt>
      <trkpt lat="40.121437" lon="-0.144850">
        <ele>233.6</ele>
        <time>2021-08-24T18:47:14.966Z</time>
      </trkpt>
      <trkpt lat="40.121316" lon="-0.144562">
        <ele>219.6</ele>
        <time>2021-08-24T18:47:25.155Z</time>
      </trkpt>
      <trkpt lat="40.121311" lon="-0.144342">
        <ele>218.7</ele>
        <time>2021-08-24T18:47:31.268Z</time>
      </trkpt>
      <trkpt lat="40.120990" lon="-0.143920">
        <ele>216.4</ele>
        <time>2021-08-24T18:47:47.802Z</time>
      </trkpt>
      <trkpt lat="40.120574" lon="-0.143362">
        <ele>213.6</ele>
        <time>2021-08-24T18:48:09.442Z</time>
      </trkpt>
      <trkpt lat="40.120441" lon="-0.143099">
        <ele>239.1</ele>
        <time>2021-08-24T18:48:21.502Z</time>
      </trkpt>
      <trkpt lat="40.120287" lon="-0.142766">
        <ele>211.1</ele>
        <time>2021-08-24T18:48:35.642Z</time>
      </trkpt>
      <trkpt lat="40.120196" lon="-0.141796">
        <ele>208.0</ele>
        <time>2021-08-24T18:49:02.773Z</time>
      </trkpt>
      <trkpt lat="40.120400" lon="-0.141174">
        <ele>206.1</ele>
        <time>2021-08-24T18:49:21.560Z</time>
      </trkpt>
      <trkpt lat="40.120983" lon="-0.140530">
        <ele>203.2</ele>
        <time>2021-08-24T18:49:49.267Z</time>
      </trkpt>
      <trkpt lat="40.120888" lon="-0.140455">
        <ele>202.8</ele>
        <time>2021-08-24T18:49:53.294Z</time>
      </trkpt>
      <trkpt lat="40.120691" lon="-0.140562">
        <ele>204.9</ele>
        <time>2021-08-24T18:50:01.062Z</time>
      </trkpt>
      <trkpt lat="40.120564" lon="-0.140530">
        <ele>201.8</ele>
        <time>2021-08-24T18:50:05.864Z</time>
      </trkpt>
      <trkpt lat="40.120432" lon="-0.140662">
        <ele>201.3</ele>
        <time>2021-08-24T18:50:11.896Z</time>
      </trkpt>
      <trkpt lat="40.120261" lon="-0.140745">
        <ele>200.8</ele>
        <time>2021-08-24T18:50:18.516Z</time>
      </trkpt>
      <trkpt lat="40.120154" lon="-0.140691">
        <ele>200.4</ele>
        <time>2021-08-24T18:50:22.676Z</time>
      </trkpt>
      <trkpt lat="40.120034" lon="-0.140845">
        <ele>200.8</ele>
        <time>2021-08-24T18:50:28.776Z</time>
      </trkpt>
      <trkpt lat="40.119852" lon="-0.141115">
        <ele>207.2</ele>
        <time>2021-08-24T18:50:38.980Z</time>
      </trkpt>
      <trkpt lat="40.119670" lon="-0.141414">
        <ele>198.3</ele>
        <time>2021-08-24T18:50:49.970Z</time>
      </trkpt>
      <trkpt lat="40.119782" lon="-0.141754">
        <ele>197.5</ele>
        <time>2021-08-24T18:51:00.248Z</time>
      </trkpt>
      <trkpt lat="40.119564" lon="-0.142228">
        <ele>222.3</ele>
        <time>2021-08-24T18:51:17.592Z</time>
      </trkpt>
      <trkpt lat="40.119366" lon="-0.142298">
        <ele>216.8</ele>
        <time>2021-08-24T18:51:25.255Z</time>
      </trkpt>
      <trkpt lat="40.119172" lon="-0.142322">
        <ele>211.2</ele>
        <time>2021-08-24T18:51:32.538Z</time>
      </trkpt>
      <trkpt lat="40.119023" lon="-0.142272">
        <ele>195.5</ele>
        <time>2021-08-24T18:51:40.117Z</time>
      </trkpt>
      <trkpt lat="40.118799" lon="-0.142334">
        <ele>206.1</ele>
        <time>2021-08-24T18:51:49.133Z</time>
      </trkpt>
      <trkpt lat="40.118380" lon="-0.142304">
        <ele>200.6</ele>
        <time>2021-08-24T18:52:04.449Z</time>
      </trkpt>
      <trkpt lat="40.117957" lon="-0.142251">
        <ele>196.7</ele>
        <time>2021-08-24T18:52:19.924Z</time>
      </trkpt>
      <trkpt lat="40.117619" lon="-0.142234">
        <ele>193.2</ele>
        <time>2021-08-24T18:52:32.242Z</time>
      </trkpt>
      <trkpt lat="40.117421" lon="-0.142375">
        <ele>192.5</ele>
        <time>2021-08-24T18:52:40.417Z</time>
      </trkpt>
      <trkpt lat="40.117278" lon="-0.142433">
        <ele>192.8</ele>
        <time>2021-08-24T18:52:45.857Z</time>
      </trkpt>
      <trkpt lat="40.116980" lon="-0.142581">
        <ele>192.4</ele>
        <time>2021-08-24T18:52:57.425Z</time>
      </trkpt>
      <trkpt lat="40.116557" lon="-0.143022">
        <ele>191.9</ele>
        <time>2021-08-24T18:53:17.051Z</time>
      </trkpt>
      <trkpt lat="40.116381" lon="-0.143423">
        <ele>191.8</ele>
        <time>2021-08-24T18:53:29.884Z</time>
      </trkpt>
      <trkpt lat="40.116371" lon="-0.143355">
        <ele>195.4</ele>
        <time>2021-08-24T18:53:31.935Z</time>
      </trkpt>
      <trkpt lat="40.116316" lon="-0.143233">
        <ele>194.0</ele>
        <time>2021-08-24T18:53:31.977Z</time>
      </trkpt>
      <trkpt lat="40.116212" lon="-0.143179">
        <ele>192.9</ele>
        <time>2021-08-24T18:53:34.078Z</time>
      </trkpt>
      <trkpt lat="40.116123" lon="-0.142975">
        <ele>191.5</ele>
        <time>2021-08-24T18:53:34.132Z</time>
      </trkpt>
      <trkpt lat="40.116045" lon="-0.142746">
        <ele>191.4</ele>
        <time>2021-08-24T18:54:00.819Z</time>
      </trkpt>
      <trkpt lat="40.116042" lon="-0.142748">
        <ele>191.4</ele>
        <time>2021-08-24T18:54:00.976Z</time>
      </trkpt>
      <trkpt lat="40.115845" lon="-0.142209">
        <ele>191.2</ele>
        <time>2021-08-24T18:54:08.668Z</time>
      </trkpt>
      <trkpt lat="40.115818" lon="-0.141980">
        <ele>191.2</ele>
        <time>2021-08-24T18:54:14.313Z</time>
      </trkpt>
      <trkpt lat="40.116386" lon="-0.141383">
        <ele>188.2</ele>
        <time>2021-08-24T18:54:50.341Z</time>
      </trkpt>
      <trkpt lat="40.116829" lon="-0.140932">
        <ele>186.5</ele>
        <time>2021-08-24T18:55:18.088Z</time>
      </trkpt>
      <trkpt lat="40.117125" lon="-0.140320">
        <ele>189.8</ele>
        <time>2021-08-24T18:55:45.460Z</time>
      </trkpt>
      <trkpt lat="40.117519" lon="-0.139644">
        <ele>190.1</ele>
        <time>2021-08-24T18:56:17.573Z</time>
      </trkpt>
      <trkpt lat="40.117913" lon="-0.139161">
        <ele>189.5</ele>
        <time>2021-08-24T18:56:44.248Z</time>
      </trkpt>
      <trkpt lat="40.118258" lon="-0.138582">
        <ele>191.2</ele>
        <time>2021-08-24T18:57:11.992Z</time>
      </trkpt>
      <trkpt lat="40.118405" lon="-0.137777">
        <ele>200.8</ele>
        <time>2021-08-24T18:57:43.553Z</time>
      </trkpt>
      <trkpt lat="40.118602" lon="-0.137036">
        <ele>209.8</ele>
        <time>2021-08-24T18:58:13.439Z</time>
      </trkpt>
      <trkpt lat="40.118750" lon="-0.136231">
        <ele>222.5</ele>
        <time>2021-08-24T18:58:45.212Z</time>
      </trkpt>
      <trkpt lat="40.118799" lon="-0.135233">
        <ele>233.7</ele>
        <time>2021-08-24T18:59:23.322Z</time>
      </trkpt>
      <trkpt lat="40.118701" lon="-0.134364">
        <ele>237.8</ele>
        <time>2021-08-24T18:59:56.570Z</time>
      </trkpt>
      <trkpt lat="40.118307" lon="-0.133880">
        <ele>233.6</ele>
        <time>2021-08-24T19:00:23.318Z</time>
      </trkpt>
      <trkpt lat="40.118258" lon="-0.132947">
        <ele>241.8</ele>
        <time>2021-08-24T19:00:58.864Z</time>
      </trkpt>
      <trkpt lat="40.118405" lon="-0.132110">
        <ele>253.2</ele>
        <time>2021-08-24T19:01:31.709Z</time>
      </trkpt>
      <trkpt lat="40.118282" lon="-0.131272">
        <ele>260.2</ele>
        <time>2021-08-24T19:02:04.065Z</time>
      </trkpt>
      <trkpt lat="40.118085" lon="-0.130532">
        <ele>263.7</ele>
        <time>2021-08-24T19:02:33.725Z</time>
      </trkpt>
      <trkpt lat="40.117888" lon="-0.129791">
        <ele>268.0</ele>
        <time>2021-08-24T19:03:03.402Z</time>
      </trkpt>
      <trkpt lat="40.117938" lon="-0.128857">
        <ele>277.7</ele>
        <time>2021-08-24T19:03:39.027Z</time>
      </trkpt>
      <trkpt lat="40.118061" lon="-0.128020">
        <ele>282.1</ele>
        <time>2021-08-24T19:04:11.286Z</time>
      </trkpt>
      <trkpt lat="40.117814" lon="-0.127344">
        <ele>283.5</ele>
        <time>2021-08-24T19:04:39.582Z</time>
      </trkpt>
      <trkpt lat="40.117244" lon="-0.127831">
        <ele>271.2</ele>
        <time>2021-08-24T19:05:13.663Z</time>
      </trkpt>
      <trkpt lat="40.116859" lon="-0.127812">
        <ele>267.7</ele>
        <time>2021-08-24T19:05:32.775Z</time>
      </trkpt>
      <trkpt lat="40.116359" lon="-0.127756">
        <ele>272.3</ele>
        <time>2021-08-24T19:05:57.618Z</time>
      </trkpt>
      <trkpt lat="40.115974" lon="-0.127887">
        <ele>274.3</ele>
        <time>2021-08-24T19:06:17.306Z</time>
      </trkpt>
      <trkpt lat="40.115352" lon="-0.128053">
        <ele>277.1</ele>
        <time>2021-08-24T19:06:48.684Z</time>
      </trkpt>
      <trkpt lat="40.114638" lon="-0.128117">
        <ele>286.9</ele>
        <time>2021-08-24T19:07:24.309Z</time>
      </trkpt>
      <trkpt lat="40.114342" lon="-0.127505">
        <ele>312.1</ele>
        <time>2021-08-24T19:07:53.844Z</time>
      </trkpt>
      <trkpt lat="40.114219" lon="-0.126668">
        <ele>331.5</ele>
        <time>2021-08-24T19:08:27.186Z</time>
      </trkpt>
      <trkpt lat="40.114047" lon="-0.125895">
        <ele>344.0</ele>
        <time>2021-08-24T19:08:58.101Z</time>
      </trkpt>
      <trkpt lat="40.113776" lon="-0.125251">
        <ele>351.1</ele>
        <time>2021-08-24T19:09:26.040Z</time>
      </trkpt>
      <trkpt lat="40.113456" lon="-0.124671">
        <ele>353.6</ele>
        <time>2021-08-24T19:09:53.075Z</time>
      </trkpt>
      <trkpt lat="40.113305" lon="-0.124024">
        <ele>357.2</ele>
        <time>2021-08-24T19:10:18.688Z</time>
      </trkpt>
      <trkpt lat="40.113628" lon="-0.123899">
        <ele>364.9</ele>
        <time>2021-08-24T19:10:35.670Z</time>
      </trkpt>
      <trkpt lat="40.114022" lon="-0.124382">
        <ele>369.3</ele>
        <time>2021-08-24T19:11:02.421Z</time>
      </trkpt>
      <trkpt lat="40.114342" lon="-0.124961">
        <ele>369.1</ele>
        <time>2021-08-24T19:11:29.425Z</time>
      </trkpt>
      <trkpt lat="40.114860" lon="-0.125283">
        <ele>372.7</ele>
        <time>2021-08-24T19:11:57.766Z</time>
      </trkpt>
      <trkpt lat="40.115218" lon="-0.125256">
        <ele>374.7</ele>
        <time>2021-08-24T19:12:15.508Z</time>
      </trkpt>
      <trkpt lat="40.115403" lon="-0.125330">
        <ele>371.2</ele>
        <time>2021-08-24T19:12:25.222Z</time>
      </trkpt>
      <trkpt lat="40.115352" lon="-0.124897">
        <ele>384.0</ele>
        <time>2021-08-24T19:12:42.724Z</time>
      </trkpt>
      <trkpt lat="40.115204" lon="-0.124092">
        <ele>399.4</ele>
        <time>2021-08-24T19:13:14.744Z</time>
      </trkpt>
      <trkpt lat="40.115352" lon="-0.123287">
        <ele>411.5</ele>
        <time>2021-08-24T19:13:46.475Z</time>
      </trkpt>
      <trkpt lat="40.115155" lon="-0.122546">
        <ele>416.7</ele>
        <time>2021-08-24T19:14:16.187Z</time>
      </trkpt>
      <trkpt lat="40.115327" lon="-0.121774">
        <ele>423.5</ele>
        <time>2021-08-24T19:14:46.738Z</time>
      </trkpt>
      <trkpt lat="40.115721" lon="-0.121290">
        <ele>429.1</ele>
        <time>2021-08-24T19:15:13.531Z</time>
      </trkpt>
      <trkpt lat="40.114837" lon="-0.120377">
        <ele>408.2</ele>
        <time>2021-08-24T19:16:09.963Z</time>
      </trkpt>
      <trkpt lat="40.114180" lon="-0.120215">
        <ele>410.3</ele>
        <time>2021-08-24T19:16:33.354Z</time>
      </trkpt>
      <trkpt lat="40.113949" lon="-0.120196">
        <ele>411.0</ele>
        <time>2021-08-24T19:16:41.393Z</time>
      </trkpt>
      <trkpt lat="40.113129" lon="-0.119626">
        <ele>414.0</ele>
        <time>2021-08-24T19:17:11.428Z</time>
      </trkpt>
      <trkpt lat="40.112879" lon="-0.119331">
        <ele>415.1</ele>
        <time>2021-08-24T19:17:23.480Z</time>
      </trkpt>
      <trkpt lat="40.112763" lon="-0.119194">
        <ele>415.6</ele>
        <time>2021-08-24T19:17:29.632Z</time>
      </trkpt>
      <trkpt lat="40.112714" lon="-0.119139">
        <ele>415.8</ele>
        <time>2021-08-24T19:17:31.783Z</time>
      </trkpt>
      <trkpt lat="40.112230" lon="-0.118766">
        <ele>417.6</ele>
        <time>2021-08-24T19:17:52.408Z</time>
      </trkpt>
      <trkpt lat="40.112063" lon="-0.118605">
        <ele>418.3</ele>
        <time>2021-08-24T19:17:59.995Z</time>
      </trkpt>
      <trkpt lat="40.111491" lon="-0.118356">
        <ele>420.4</ele>
        <time>2021-08-24T19:18:30.180Z</time>
      </trkpt>
      <trkpt lat="40.110653" lon="-0.118093">
        <ele>423.4</ele>
        <time>2021-08-24T19:19:12.601Z</time>
      </trkpt>
      <trkpt lat="40.109936" lon="-0.117786">
        <ele>425.6</ele>
        <time>2021-08-24T19:19:48.953Z</time>
      </trkpt>
      <trkpt lat="40.109608" lon="-0.117587">
        <ele>426.5</ele>
        <time>2021-08-24T19:20:04.796Z</time>
      </trkpt>
      <trkpt lat="40.108911" lon="-0.116955">
        <ele>428.6</ele>
        <time>2021-08-24T19:20:40.974Z</time>
      </trkpt>
      <trkpt lat="40.108703" lon="-0.116822">
        <ele>429.1</ele>
        <time>2021-08-24T19:20:50.748Z</time>
      </trkpt>
      <trkpt lat="40.107843" lon="-0.116762">
        <ele>430.4</ele>
        <time>2021-08-24T19:21:27.136Z</time>
      </trkpt>
      <trkpt lat="40.106445" lon="-0.116371">
        <ele>430.5</ele>
        <time>2021-08-24T19:22:19.177Z</time>
      </trkpt>
      <trkpt lat="40.105868" lon="-0.116447">
        <ele>429.3</ele>
        <time>2021-08-24T19:22:35.265Z</time>
      </trkpt>
      <trkpt lat="40.105095" lon="-0.116829">
        <ele>426.7</ele>
        <time>2021-08-24T19:22:55.453Z</time>
      </trkpt>
      <trkpt lat="40.104817" lon="-0.116826">
        <ele>424.6</ele>
        <time>2021-08-24T19:23:01.943Z</time>
      </trkpt>
      <trkpt lat="40.104770" lon="-0.116779">
        <ele>424.2</ele>
        <time>2021-08-24T19:23:03.276Z</time>
      </trkpt>
      <trkpt lat="40.104619" lon="-0.116629">
        <ele>422.8</ele>
        <time>2021-08-24T19:23:07.526Z</time>
      </trkpt>
      <trkpt lat="40.104408" lon="-0.116299">
        <ele>420.4</ele>
        <time>2021-08-24T19:23:14.949Z</time>
      </trkpt>
      <trkpt lat="40.103959" lon="-0.115363">
        <ele>414.1</ele>
        <time>2021-08-24T19:23:33.633Z</time>
      </trkpt>
      <trkpt lat="40.103651" lon="-0.114929">
        <ele>410.0</ele>
        <time>2021-08-24T19:23:43.432Z</time>
      </trkpt>
      <trkpt lat="40.103496" lon="-0.114627">
        <ele>407.4</ele>
        <time>2021-08-24T19:23:49.567Z</time>
      </trkpt>
      <trkpt lat="40.103407" lon="-0.114274">
        <ele>404.8</ele>
        <time>2021-08-24T19:23:55.828Z</time>
      </trkpt>
      <trkpt lat="40.103084" lon="-0.113714">
        <ele>399.9</ele>
        <time>2021-08-24T19:24:07.671Z</time>
      </trkpt>
      <trkpt lat="40.102955" lon="-0.112819">
        <ele>392.9</ele>
        <time>2021-08-24T19:24:22.266Z</time>
      </trkpt>
      <trkpt lat="40.102735" lon="-0.112071">
        <ele>386.7</ele>
        <time>2021-08-24T19:24:35.294Z</time>
      </trkpt>
      <trkpt lat="40.102627" lon="-0.111848">
        <ele>384.6</ele>
        <time>2021-08-24T19:24:39.737Z</time>
      </trkpt>
      <trkpt lat="40.102510" lon="-0.111692">
        <ele>382.9</ele>
        <time>2021-08-24T19:24:43.217Z</time>
      </trkpt>
      <trkpt lat="40.102389" lon="-0.111645">
        <ele>381.6</ele>
        <time>2021-08-24T19:24:45.987Z</time>
      </trkpt>
      <trkpt lat="40.102316" lon="-0.111672">
        <ele>380.8</ele>
        <time>2021-08-24T19:24:47.778Z</time>
      </trkpt>
      <trkpt lat="40.102099" lon="-0.111981">
        <ele>378.1</ele>
        <time>2021-08-24T19:24:54.805Z</time>
      </trkpt>
      <trkpt lat="40.102044" lon="-0.111954">
        <ele>377.7</ele>
        <time>2021-08-24T19:24:56.155Z</time>
      </trkpt>
      <trkpt lat="40.102042" lon="-0.111536">
        <ele>375.2</ele>
        <time>2021-08-24T19:25:03.141Z</time>
      </trkpt>
      <trkpt lat="40.102104" lon="-0.111217">
        <ele>373.2</ele>
        <time>2021-08-24T19:25:08.536Z</time>
      </trkpt>
      <trkpt lat="40.102206" lon="-0.111021">
        <ele>371.7</ele>
        <time>2021-08-24T19:25:12.716Z</time>
      </trkpt>
      <trkpt lat="40.102288" lon="-0.110855">
        <ele>370.6</ele>
        <time>2021-08-24T19:25:15.900Z</time>
      </trkpt>
      <trkpt lat="40.102280" lon="-0.110762">
        <ele>370.0</ele>
        <time>2021-08-24T19:25:17.465Z</time>
      </trkpt>
      <trkpt lat="40.102133" lon="-0.110445">
        <ele>367.8</ele>
        <time>2021-08-24T19:25:24.300Z</time>
      </trkpt>
      <trkpt lat="40.102110" lon="-0.110339">
        <ele>367.1</ele>
        <time>2021-08-24T19:25:26.301Z</time>
      </trkpt>
      <trkpt lat="40.102122" lon="-0.110152">
        <ele>366.0</ele>
        <time>2021-08-24T19:25:29.876Z</time>
      </trkpt>
      <trkpt lat="40.102127" lon="-0.110069">
        <ele>365.6</ele>
        <time>2021-08-24T19:25:31.426Z</time>
      </trkpt>
      <trkpt lat="40.102255" lon="-0.110022">
        <ele>364.8</ele>
        <time>2021-08-24T19:25:34.400Z</time>
      </trkpt>
      <trkpt lat="40.102464" lon="-0.110006">
        <ele>363.5</ele>
        <time>2021-08-24T19:25:39.557Z</time>
      </trkpt>
      <trkpt lat="40.102787" lon="-0.110296">
        <ele>361.1</ele>
        <time>2021-08-24T19:25:48.717Z</time>
      </trkpt>
      <trkpt lat="40.102875" lon="-0.110342">
        <ele>360.5</ele>
        <time>2021-08-24T19:25:50.807Z</time>
      </trkpt>
      <trkpt lat="40.102978" lon="-0.110310">
        <ele>359.9</ele>
        <time>2021-08-24T19:25:53.307Z</time>
      </trkpt>
      <trkpt lat="40.103477" lon="-0.109689">
        <ele>355.7</ele>
        <time>2021-08-24T19:26:09.185Z</time>
      </trkpt>
      <trkpt lat="40.103482" lon="-0.109586">
        <ele>355.2</ele>
        <time>2021-08-24T19:26:10.989Z</time>
      </trkpt>
      <trkpt lat="40.103321" lon="-0.109491">
        <ele>354.2</ele>
        <time>2021-08-24T19:26:15.165Z</time>
      </trkpt>
      <trkpt lat="40.103347" lon="-0.109366">
        <ele>353.6</ele>
        <time>2021-08-24T19:26:17.476Z</time>
      </trkpt>
      <trkpt lat="40.103423" lon="-0.109227">
        <ele>352.9</ele>
        <time>2021-08-24T19:26:20.534Z</time>
      </trkpt>
      <trkpt lat="40.103593" lon="-0.109160">
        <ele>352.0</ele>
        <time>2021-08-24T19:26:24.759Z</time>
      </trkpt>
      <trkpt lat="40.103724" lon="-0.109175">
        <ele>351.3</ele>
        <time>2021-08-24T19:26:27.837Z</time>
      </trkpt>
      <trkpt lat="40.103798" lon="-0.109317">
        <ele>350.5</ele>
        <time>2021-08-24T19:26:31.004Z</time>
      </trkpt>
      <trkpt lat="40.103906" lon="-0.109769">
        <ele>348.6</ele>
        <time>2021-08-24T19:26:39.703Z</time>
      </trkpt>
      <trkpt lat="40.104110" lon="-0.110064">
        <ele>346.9</ele>
        <time>2021-08-24T19:26:47.022Z</time>
      </trkpt>
      <trkpt lat="40.104302" lon="-0.110251">
        <ele>345.6</ele>
        <time>2021-08-24T19:26:52.794Z</time>
      </trkpt>
      <trkpt lat="40.104455" lon="-0.110313">
        <ele>344.7</ele>
        <time>2021-08-24T19:26:56.616Z</time>
      </trkpt>
      <trkpt lat="40.104541" lon="-0.110283">
        <ele>344.2</ele>
        <time>2021-08-24T19:26:58.748Z</time>
      </trkpt>
      <trkpt lat="40.104572" lon="-0.110206">
        <ele>343.8</ele>
        <time>2021-08-24T19:27:00.337Z</time>
      </trkpt>
      <trkpt lat="40.104536" lon="-0.109709">
        <ele>341.7</ele>
        <time>2021-08-24T19:27:09.396Z</time>
      </trkpt>
      <trkpt lat="40.104628" lon="-0.109155">
        <ele>339.2</ele>
        <time>2021-08-24T19:27:19.634Z</time>
      </trkpt>
      <trkpt lat="40.104911" lon="-0.108347">
        <ele>335.3</ele>
        <time>2021-08-24T19:27:35.594Z</time>
      </trkpt>
      <trkpt lat="40.105131" lon="-0.108098">
        <ele>333.9</ele>
        <time>2021-08-24T19:27:42.362Z</time>
      </trkpt>
      <trkpt lat="40.105322" lon="-0.107768">
        <ele>332.3</ele>
        <time>2021-08-24T19:27:49.537Z</time>
      </trkpt>
      <trkpt lat="40.105432" lon="-0.107442">
        <ele>331.0</ele>
        <time>2021-08-24T19:27:55.786Z</time>
      </trkpt>
      <trkpt lat="40.105620" lon="-0.106569">
        <ele>327.7</ele>
        <time>2021-08-24T19:28:12.608Z</time>
      </trkpt>
      <trkpt lat="40.105645" lon="-0.106277">
        <ele>326.7</ele>
        <time>2021-08-24T19:28:18.977Z</time>
      </trkpt>
      <trkpt lat="40.105710" lon="-0.106139">
        <ele>326.4</ele>
        <time>2021-08-24T19:28:22.020Z</time>
      </trkpt>
      <trkpt lat="40.106185" lon="-0.105834">
        <ele>327.1</ele>
        <time>2021-08-24T19:28:39.210Z</time>
      </trkpt>
      <trkpt lat="40.106200" lon="-0.105594">
        <ele>327.3</ele>
        <time>2021-08-24T19:28:44.890Z</time>
      </trkpt>
      <trkpt lat="40.105875" lon="-0.105339">
        <ele>327.8</ele>
        <time>2021-08-24T19:29:00.248Z</time>
      </trkpt>
      <trkpt lat="40.105658" lon="-0.105082">
        <ele>328.2</ele>
        <time>2021-08-24T19:29:13.660Z</time>
      </trkpt>
      <trkpt lat="40.105528" lon="-0.104622">
        <ele>328.8</ele>
        <time>2021-08-24T19:29:33.029Z</time>
      </trkpt>
      <trkpt lat="40.105540" lon="-0.104332">
        <ele>329.9</ele>
        <time>2021-08-24T19:29:45.813Z</time>
      </trkpt>
      <trkpt lat="40.105683" lon="-0.103945">
        <ele>331.6</ele>
        <time>2021-08-24T19:30:04.819Z</time>
      </trkpt>
      <trkpt lat="40.105728" lon="-0.103634">
        <ele>332.8</ele>
        <time>2021-08-24T19:30:19.106Z</time>
      </trkpt>
      <trkpt lat="40.105875" lon="-0.103305">
        <ele>334.3</ele>
        <time>2021-08-24T19:30:36.615Z</time>
      </trkpt>
      <trkpt lat="40.105882" lon="-0.103184">
        <ele>334.8</ele>
        <time>2021-08-24T19:30:42.401Z</time>
      </trkpt>
      <trkpt lat="40.105804" lon="-0.103028">
        <ele>335.5</ele>
        <time>2021-08-24T19:30:50.967Z</time>
      </trkpt>
      <trkpt lat="40.105657" lon="-0.102903">
        <ele>336.4</ele>
        <time>2021-08-24T19:31:01.125Z</time>
      </trkpt>
      <trkpt lat="40.105511" lon="-0.102857">
        <ele>337.2</ele>
        <time>2021-08-24T19:31:10.013Z</time>
      </trkpt>
      <trkpt lat="40.105048" lon="-0.103093">
        <ele>340.0</ele>
        <time>2021-08-24T19:31:37.667Z</time>
      </trkpt>
      <trkpt lat="40.104903" lon="-0.103113">
        <ele>340.9</ele>
        <time>2021-08-24T19:31:46.046Z</time>
      </trkpt>
      <trkpt lat="40.104683" lon="-0.102996">
        <ele>342.3</ele>
        <time>2021-08-24T19:31:59.606Z</time>
      </trkpt>
      <trkpt lat="40.104674" lon="-0.102819">
        <ele>343.1</ele>
        <time>2021-08-24T19:32:08.166Z</time>
      </trkpt>
      <trkpt lat="40.104716" lon="-0.102684">
        <ele>343.8</ele>
        <time>2021-08-24T19:32:15.046Z</time>
      </trkpt>
      <trkpt lat="40.104812" lon="-0.102602">
        <ele>344.5</ele>
        <time>2021-08-24T19:32:22.468Z</time>
      </trkpt>
      <trkpt lat="40.105749" lon="-0.102183">
        <ele>350.3</ele>
        <time>2021-08-24T19:33:28.509Z</time>
      </trkpt>
      <trkpt lat="40.105893" lon="-0.102208">
        <ele>351.2</ele>
        <time>2021-08-24T19:33:37.647Z</time>
      </trkpt>
      <trkpt lat="40.106112" lon="-0.102342">
        <ele>352.6</ele>
        <time>2021-08-24T19:33:52.314Z</time>
      </trkpt>
      <trkpt lat="40.106338" lon="-0.102551">
        <ele>354.1</ele>
        <time>2021-08-24T19:34:08.678Z</time>
      </trkpt>
      <trkpt lat="40.106463" lon="-0.102790">
        <ele>355.4</ele>
        <time>2021-08-24T19:34:21.671Z</time>
      </trkpt>
      <trkpt lat="40.106523" lon="-0.103058">
        <ele>356.6</ele>
        <time>2021-08-24T19:34:34.005Z</time>
      </trkpt>
      <trkpt lat="40.106587" lon="-0.103163">
        <ele>357.2</ele>
        <time>2021-08-24T19:34:39.999Z</time>
      </trkpt>
      <trkpt lat="40.106645" lon="-0.103146">
        <ele>357.6</ele>
        <time>2021-08-24T19:34:43.557Z</time>
      </trkpt>
      <trkpt lat="40.106615" lon="-0.102766">
        <ele>359.2</ele>
        <time>2021-08-24T19:35:00.473Z</time>
      </trkpt>
      <trkpt lat="40.106370" lon="-0.102083">
        <ele>362.2</ele>
        <time>2021-08-24T19:35:32.484Z</time>
      </trkpt>
      <trkpt lat="40.105974" lon="-0.101534">
        <ele>365.1</ele>
        <time>2021-08-24T19:36:04.369Z</time>
      </trkpt>
      <trkpt lat="40.105785" lon="-0.101415">
        <ele>366.2</ele>
        <time>2021-08-24T19:36:16.817Z</time>
      </trkpt>
      <trkpt lat="40.105650" lon="-0.101234">
        <ele>367.2</ele>
        <time>2021-08-24T19:36:27.460Z</time>
      </trkpt>
      <trkpt lat="40.105638" lon="-0.101154">
        <ele>367.5</ele>
        <time>2021-08-24T19:36:31.367Z</time>
      </trkpt>
      <trkpt lat="40.105730" lon="-0.100841">
        <ele>368.9</ele>
        <time>2021-08-24T19:36:47.111Z</time>
      </trkpt>
      <trkpt lat="40.105807" lon="-0.100309">
        <ele>371.2</ele>
        <time>2021-08-24T19:37:12.876Z</time>
      </trkpt>
      <trkpt lat="40.105776" lon="-0.100021">
        <ele>372.5</ele>
        <time>2021-08-24T19:37:28.082Z</time>
      </trkpt>
      <trkpt lat="40.105549" lon="-0.098607">
        <ele>378.5</ele>
        <time>2021-08-24T19:38:35.403Z</time>
      </trkpt>
      <trkpt lat="40.105767" lon="-0.097367">
        <ele>380.5</ele>
        <time>2021-08-24T19:39:20.201Z</time>
      </trkpt>
      <trkpt lat="40.105777" lon="-0.096449">
        <ele>382.0</ele>
        <time>2021-08-24T19:39:43.335Z</time>
      </trkpt>
      <trkpt lat="40.105577" lon="-0.094658">
        <ele>383.1</ele>
        <time>2021-08-24T19:40:27.022Z</time>
      </trkpt>
      <trkpt lat="40.105582" lon="-0.093419">
        <ele>385.2</ele>
        <time>2021-08-24T19:41:08.857Z</time>
      </trkpt>
      <trkpt lat="40.105657" lon="-0.093113">
        <ele>386.1</ele>
        <time>2021-08-24T19:41:21.558Z</time>
      </trkpt>
      <trkpt lat="40.105370" lon="-0.092423">
        <ele>388.3</ele>
        <time>2021-08-24T19:41:46.375Z</time>
      </trkpt>
      <trkpt lat="40.104762" lon="-0.091293">
        <ele>390.9</ele>
        <time>2021-08-24T19:42:28.186Z</time>
      </trkpt>
      <trkpt lat="40.104625" lon="-0.091069">
        <ele>391.3</ele>
        <time>2021-08-24T19:42:35.409Z</time>
      </trkpt>
      <trkpt lat="40.104721" lon="-0.091030">
        <ele>391.4</ele>
        <time>2021-08-24T19:42:39.116Z</time>
      </trkpt>
      <trkpt lat="40.105832" lon="-0.091399">
        <ele>392.1</ele>
        <time>2021-08-24T19:43:16.503Z</time>
      </trkpt>
      <trkpt lat="40.106308" lon="-0.091669">
        <ele>390.5</ele>
        <time>2021-08-24T19:43:30.117Z</time>
      </trkpt>
      <trkpt lat="40.106867" lon="-0.092300">
        <ele>388.2</ele>
        <time>2021-08-24T19:43:48.390Z</time>
      </trkpt>
      <trkpt lat="40.107021" lon="-0.092340">
        <ele>387.7</ele>
        <time>2021-08-24T19:43:52.151Z</time>
      </trkpt>
      <trkpt lat="40.107508" lon="-0.092760">
        <ele>385.6</ele>
        <time>2021-08-24T19:44:06.362Z</time>
      </trkpt>
      <trkpt lat="40.108418" lon="-0.093197">
        <ele>382.1</ele>
        <time>2021-08-24T19:44:30.192Z</time>
      </trkpt>
      <trkpt lat="40.109062" lon="-0.093649">
        <ele>380.9</ele>
        <time>2021-08-24T19:44:50.886Z</time>
      </trkpt>
      <trkpt lat="40.109062" lon="-0.093649">
        <ele>380.9</ele>
        <time>2021-08-24T19:44:50.888Z</time>
      </trkpt>
      <trkpt lat="40.109148" lon="-0.093650">
        <ele>381.0</ele>
        <time>2021-08-24T19:44:54.571Z</time>
      </trkpt>
      <trkpt lat="40.109399" lon="-0.093527">
        <ele>381.2</ele>
        <time>2021-08-24T19:45:02.647Z</time>
      </trkpt>
      <trkpt lat="40.109356" lon="-0.093488">
        <ele>381.2</ele>
        <time>2021-08-24T19:45:05.626Z</time>
      </trkpt>
      <trkpt lat="40.109189" lon="-0.092468">
        <ele>381.7</ele>
        <time>2021-08-24T19:45:35.939Z</time>
      </trkpt>
      <trkpt lat="40.108813" lon="-0.091137">
        <ele>383.3</ele>
        <time>2021-08-24T19:46:23.197Z</time>
      </trkpt>
      <trkpt lat="40.108794" lon="-0.090455">
        <ele>384.2</ele>
        <time>2021-08-24T19:46:44.316Z</time>
      </trkpt>
      <trkpt lat="40.108796" lon="-0.090427">
        <ele>384.3</ele>
        <time>2021-08-24T19:46:45.452Z</time>
      </trkpt>
      <trkpt lat="40.108862" lon="-0.089644">
        <ele>384.9</ele>
        <time>2021-08-24T19:47:08.070Z</time>
      </trkpt>
      <trkpt lat="40.108913" lon="-0.089229">
        <ele>384.6</ele>
        <time>2021-08-24T19:47:19.110Z</time>
      </trkpt>
      <trkpt lat="40.108894" lon="-0.088983">
        <ele>384.5</ele>
        <time>2021-08-24T19:47:25.278Z</time>
      </trkpt>
      <trkpt lat="40.108748" lon="-0.088447">
        <ele>384.2</ele>
        <time>2021-08-24T19:47:38.619Z</time>
      </trkpt>
      <trkpt lat="40.108650" lon="-0.087764">
        <ele>383.8</ele>
        <time>2021-08-24T19:47:53.311Z</time>
      </trkpt>
      <trkpt lat="40.108825" lon="-0.086499">
        <ele>380.8</ele>
        <time>2021-08-24T19:48:18.580Z</time>
      </trkpt>
      <trkpt lat="40.108947" lon="-0.085650">
        <ele>378.6</ele>
        <time>2021-08-24T19:48:35.483Z</time>
      </trkpt>
      <trkpt lat="40.109361" lon="-0.085611">
        <ele>376.8</ele>
        <time>2021-08-24T19:48:41.724Z</time>
      </trkpt>
      <trkpt lat="40.109866" lon="-0.085499">
        <ele>373.8</ele>
        <time>2021-08-24T19:48:48.933Z</time>
      </trkpt>
      <trkpt lat="40.110123" lon="-0.085358">
        <ele>372.1</ele>
        <time>2021-08-24T19:48:52.680Z</time>
      </trkpt>
      <trkpt lat="40.110563" lon="-0.085358">
        <ele>369.5</ele>
        <time>2021-08-24T19:48:58.783Z</time>
      </trkpt>
      <trkpt lat="40.110629" lon="-0.085290">
        <ele>369.0</ele>
        <time>2021-08-24T19:49:00.683Z</time>
      </trkpt>
      <trkpt lat="40.110749" lon="-0.085207">
        <ele>368.1</ele>
        <time>2021-08-24T19:49:03.772Z</time>
      </trkpt>
      <trkpt lat="40.110910" lon="-0.084913">
        <ele>366.3</ele>
        <time>2021-08-24T19:49:10.249Z</time>
      </trkpt>
      <trkpt lat="40.110968" lon="-0.084791">
        <ele>365.4</ele>
        <time>2021-08-24T19:49:12.642Z</time>
      </trkpt>
      <trkpt lat="40.111988" lon="-0.083182">
        <ele>351.2</ele>
        <time>2021-08-24T19:49:47.393Z</time>
      </trkpt>
      <trkpt lat="40.112125" lon="-0.082861">
        <ele>348.2</ele>
        <time>2021-08-24T19:49:53.506Z</time>
      </trkpt>
      <trkpt lat="40.112449" lon="-0.082547">
        <ele>343.7</ele>
        <time>2021-08-24T19:50:02.362Z</time>
      </trkpt>
      <trkpt lat="40.112557" lon="-0.082523">
        <ele>342.5</ele>
        <time>2021-08-24T19:50:04.695Z</time>
      </trkpt>
      <trkpt lat="40.112675" lon="-0.082554">
        <ele>341.1</ele>
        <time>2021-08-24T19:50:07.089Z</time>
      </trkpt>
      <trkpt lat="40.112890" lon="-0.082523">
        <ele>338.7</ele>
        <time>2021-08-24T19:50:11.748Z</time>
      </trkpt>
      <trkpt lat="40.113603" lon="-0.082259">
        <ele>330.5</ele>
        <time>2021-08-24T19:50:27.132Z</time>
      </trkpt>
      <trkpt lat="40.113727" lon="-0.082186">
        <ele>329.2</ele>
        <time>2021-08-24T19:50:29.849Z</time>
      </trkpt>
      <trkpt lat="40.113877" lon="-0.081949">
        <ele>326.9</ele>
        <time>2021-08-24T19:50:34.914Z</time>
      </trkpt>
      <trkpt lat="40.113931" lon="-0.081910">
        <ele>326.3</ele>
        <time>2021-08-24T19:50:36.110Z</time>
      </trkpt>
      <trkpt lat="40.114152" lon="-0.081635">
        <ele>323.3</ele>
        <time>2021-08-24T19:50:42.778Z</time>
      </trkpt>
      <trkpt lat="40.114588" lon="-0.081137">
        <ele>317.6</ele>
        <time>2021-08-24T19:50:55.261Z</time>
      </trkpt>
      <trkpt lat="40.114538" lon="-0.080899">
        <ele>315.8</ele>
        <time>2021-08-24T19:50:59.320Z</time>
      </trkpt>
      <trkpt lat="40.114679" lon="-0.080662">
        <ele>313.5</ele>
        <time>2021-08-24T19:51:04.595Z</time>
      </trkpt>
      <trkpt lat="40.115195" lon="-0.080258">
        <ele>311.9</ele>
        <time>2021-08-24T19:51:18.782Z</time>
      </trkpt>
      <trkpt lat="40.115266" lon="-0.079834">
        <ele>311.1</ele>
        <time>2021-08-24T19:51:28.208Z</time>
      </trkpt>
      <trkpt lat="40.114891" lon="-0.079165">
        <ele>309.6</ele>
        <time>2021-08-24T19:51:49.157Z</time>
      </trkpt>
      <trkpt lat="40.115094" lon="-0.078914">
        <ele>309.0</ele>
        <time>2021-08-24T19:51:57.414Z</time>
      </trkpt>
      <trkpt lat="40.115114" lon="-0.078794">
        <ele>308.9</ele>
        <time>2021-08-24T19:52:01.212Z</time>
      </trkpt>
      <trkpt lat="40.115650" lon="-0.078570">
        <ele>308.5</ele>
        <time>2021-08-24T19:52:21.647Z</time>
      </trkpt>
      <trkpt lat="40.115454" lon="-0.077728">
        <ele>308.0</ele>
        <time>2021-08-24T19:52:42.105Z</time>
      </trkpt>
      <trkpt lat="40.115395" lon="-0.077693">
        <ele>308.0</ele>
        <time>2021-08-24T19:52:44.009Z</time>
      </trkpt>
      <trkpt lat="40.115395" lon="-0.077693">
        <ele>308.0</ele>
        <time>2021-08-24T19:52:44.222Z</time>
      </trkpt>
      <trkpt lat="40.115395" lon="-0.077693">
        <ele>308.0</ele>
        <time>2021-08-24T19:52:44.222Z</time>
      </trkpt>
      <trkpt lat="40.115400" lon="-0.077679">
        <ele>307.9</ele>
        <time>2021-08-24T19:52:44.734Z</time>
      </trkpt>
      <trkpt lat="40.115381" lon="-0.077654">
        <ele>307.9</ele>
        <time>2021-08-24T19:52:45.888Z</time>
      </trkpt>
      <trkpt lat="40.115331" lon="-0.077588">
        <ele>307.9</ele>
        <time>2021-08-24T19:52:48.925Z</time>
      </trkpt>
      <trkpt lat="40.115308" lon="-0.077568">
        <ele>307.9</ele>
        <time>2021-08-24T19:52:50.108Z</time>
      </trkpt>
      <trkpt lat="40.115294" lon="-0.077556">
        <ele>307.8</ele>
        <time>2021-08-24T19:52:50.824Z</time>
      </trkpt>
      <trkpt lat="40.115274" lon="-0.077530">
        <ele>307.8</ele>
        <time>2021-08-24T19:52:52.029Z</time>
      </trkpt>
      <trkpt lat="40.115273" lon="-0.077529">
        <ele>307.8</ele>
        <time>2021-08-24T19:52:52.085Z</time>
      </trkpt>
      <trkpt lat="40.115252" lon="-0.077506">
        <ele>307.8</ele>
        <time>2021-08-24T19:52:53.256Z</time>
      </trkpt>
      <trkpt lat="40.115220" lon="-0.077470">
        <ele>307.8</ele>
        <time>2021-08-24T19:52:55.062Z</time>
      </trkpt>
      <trkpt lat="40.115231" lon="-0.077437">
        <ele>307.7</ele>
        <time>2021-08-24T19:52:56.238Z</time>
      </trkpt>
      <trkpt lat="40.115245" lon="-0.077395">
        <ele>307.7</ele>
        <time>2021-08-24T19:52:57.737Z</time>
      </trkpt>
      <trkpt lat="40.115262" lon="-0.077367">
        <ele>307.7</ele>
        <time>2021-08-24T19:52:58.907Z</time>
      </trkpt>
      <trkpt lat="40.115298" lon="-0.077309">
        <ele>307.6</ele>
        <time>2021-08-24T19:53:01.386Z</time>
      </trkpt>
      <trkpt lat="40.115306" lon="-0.077275">
        <ele>307.5</ele>
        <time>2021-08-24T19:53:02.549Z</time>
      </trkpt>
      <trkpt lat="40.115327" lon="-0.077191">
        <ele>307.2</ele>
        <time>2021-08-24T19:53:05.439Z</time>
      </trkpt>
      <trkpt lat="40.115353" lon="-0.077199">
        <ele>307.1</ele>
        <time>2021-08-24T19:53:06.581Z</time>
      </trkpt>
      <trkpt lat="40.115532" lon="-0.077250">
        <ele>306.3</ele>
        <time>2021-08-24T19:53:14.417Z</time>
      </trkpt>
      <trkpt lat="40.115559" lon="-0.077248">
        <ele>306.2</ele>
        <time>2021-08-24T19:53:15.633Z</time>
      </trkpt>
      <trkpt lat="40.115737" lon="-0.077234">
        <ele>305.5</ele>
        <time>2021-08-24T19:53:23.261Z</time>
      </trkpt>
      <trkpt lat="40.115759" lon="-0.077214">
        <ele>305.4</ele>
        <time>2021-08-24T19:53:24.407Z</time>
      </trkpt>
      <trkpt lat="40.115868" lon="-0.077116">
        <ele>304.8</ele>
        <time>2021-08-24T19:53:30.064Z</time>
      </trkpt>
      <trkpt lat="40.115887" lon="-0.077091">
        <ele>304.7</ele>
        <time>2021-08-24T19:53:31.282Z</time>
      </trkpt>
      <trkpt lat="40.115934" lon="-0.077030">
        <ele>304.4</ele>
        <time>2021-08-24T19:53:34.117Z</time>
      </trkpt>
      <trkpt lat="40.115942" lon="-0.076996">
        <ele>304.3</ele>
        <time>2021-08-24T19:53:35.279Z</time>
      </trkpt>
      <trkpt lat="40.115971" lon="-0.076885">
        <ele>304.0</ele>
        <time>2021-08-24T19:53:39.117Z</time>
      </trkpt>
      <trkpt lat="40.115950" lon="-0.076862">
        <ele>303.9</ele>
        <time>2021-08-24T19:53:40.287Z</time>
      </trkpt>
      <trkpt lat="40.115917" lon="-0.076826">
        <ele>303.7</ele>
        <time>2021-08-24T19:53:42.126Z</time>
      </trkpt>
      <trkpt lat="40.115906" lon="-0.076794">
        <ele>303.6</ele>
        <time>2021-08-24T19:53:43.275Z</time>
      </trkpt>
      <trkpt lat="40.115897" lon="-0.076767">
        <ele>303.5</ele>
        <time>2021-08-24T19:53:44.238Z</time>
      </trkpt>
      <trkpt lat="40.115903" lon="-0.076732">
        <ele>303.4</ele>
        <time>2021-08-24T19:53:45.412Z</time>
      </trkpt>
      <trkpt lat="40.115913" lon="-0.076670">
        <ele>303.2</ele>
        <time>2021-08-24T19:53:47.539Z</time>
      </trkpt>
      <trkpt lat="40.115938" lon="-0.076657">
        <ele>303.1</ele>
        <time>2021-08-24T19:53:48.689Z</time>
      </trkpt>
      <trkpt lat="40.116073" lon="-0.076585">
        <ele>302.5</ele>
        <time>2021-08-24T19:53:54.925Z</time>
      </trkpt>
      <trkpt lat="40.116081" lon="-0.076551">
        <ele>302.3</ele>
        <time>2021-08-24T19:53:56.089Z</time>
      </trkpt>
      <trkpt lat="40.116098" lon="-0.076477">
        <ele>302.1</ele>
        <time>2021-08-24T19:53:58.617Z</time>
      </trkpt>
      <trkpt lat="40.116122" lon="-0.076461">
        <ele>302.0</ele>
        <time>2021-08-24T19:53:59.772Z</time>
      </trkpt>
      <trkpt lat="40.116250" lon="-0.076370">
        <ele>301.4</ele>
        <time>2021-08-24T19:54:06.013Z</time>
      </trkpt>
      <trkpt lat="40.116270" lon="-0.076346">
        <ele>301.3</ele>
        <time>2021-08-24T19:54:07.174Z</time>
      </trkpt>
      <trkpt lat="40.116361" lon="-0.076236">
        <ele>300.8</ele>
        <time>2021-08-24T19:54:12.475Z</time>
      </trkpt>
      <trkpt lat="40.116384" lon="-0.076218">
        <ele>300.7</ele>
        <time>2021-08-24T19:54:13.621Z</time>
      </trkpt>
      <trkpt lat="40.116504" lon="-0.076123">
        <ele>300.1</ele>
        <time>2021-08-24T19:54:19.649Z</time>
      </trkpt>
      <trkpt lat="40.116526" lon="-0.076103">
        <ele>300.0</ele>
        <time>2021-08-24T19:54:20.795Z</time>
      </trkpt>
      <trkpt lat="40.116644" lon="-0.076000">
        <ele>299.4</ele>
        <time>2021-08-24T19:54:26.863Z</time>
      </trkpt>
      <trkpt lat="40.116656" lon="-0.075969">
        <ele>299.3</ele>
        <time>2021-08-24T19:54:28.000Z</time>
      </trkpt>
      <trkpt lat="40.116693" lon="-0.075882">
        <ele>299.0</ele>
        <time>2021-08-24T19:54:31.277Z</time>
      </trkpt>
      <trkpt lat="40.116716" lon="-0.075864">
        <ele>298.9</ele>
        <time>2021-08-24T19:54:32.425Z</time>
      </trkpt>
      <trkpt lat="40.116850" lon="-0.075761">
        <ele>298.4</ele>
        <time>2021-08-24T19:54:39.075Z</time>
      </trkpt>
      <trkpt lat="40.116874" lon="-0.075746">
        <ele>298.3</ele>
        <time>2021-08-24T19:54:40.212Z</time>
      </trkpt>
      <trkpt lat="40.116993" lon="-0.075670">
        <ele>297.7</ele>
        <time>2021-08-24T19:54:45.886Z</time>
      </trkpt>
      <trkpt lat="40.117008" lon="-0.075641">
        <ele>297.6</ele>
        <time>2021-08-24T19:54:47.034Z</time>
      </trkpt>
      <trkpt lat="40.117067" lon="-0.075531">
        <ele>297.3</ele>
        <time>2021-08-24T19:54:51.431Z</time>
      </trkpt>
      <trkpt lat="40.117067" lon="-0.075496">
        <ele>297.1</ele>
        <time>2021-08-24T19:54:52.576Z</time>
      </trkpt>
      <trkpt lat="40.117067" lon="-0.075439">
        <ele>297.0</ele>
        <time>2021-08-24T19:54:54.439Z</time>
      </trkpt>
      <trkpt lat="40.117092" lon="-0.075428">
        <ele>296.9</ele>
        <time>2021-08-24T19:54:55.568Z</time>
      </trkpt>
      <trkpt lat="40.117239" lon="-0.075364">
        <ele>296.3</ele>
        <time>2021-08-24T19:55:02.206Z</time>
      </trkpt>
      <trkpt lat="40.117255" lon="-0.075336">
        <ele>296.2</ele>
        <time>2021-08-24T19:55:03.349Z</time>
      </trkpt>
      <trkpt lat="40.117284" lon="-0.075284">
        <ele>296.0</ele>
        <time>2021-08-24T19:55:05.455Z</time>
      </trkpt>
      <trkpt lat="40.117264" lon="-0.075261">
        <ele>295.9</ele>
        <time>2021-08-24T19:55:06.594Z</time>
      </trkpt>
      <trkpt lat="40.117096" lon="-0.075075">
        <ele>295.1</ele>
        <time>2021-08-24T19:55:16.009Z</time>
      </trkpt>
      <trkpt lat="40.117084" lon="-0.075096">
        <ele>295.0</ele>
        <time>2021-08-24T19:55:16.883Z</time>
      </trkpt>
      <trkpt lat="40.116725" lon="-0.074754">
        <ele>293.3</ele>
        <time>2021-08-24T19:55:28.767Z</time>
      </trkpt>
      <trkpt lat="40.116416" lon="-0.074556">
        <ele>292.8</ele>
        <time>2021-08-24T19:55:38.125Z</time>
      </trkpt>
      <trkpt lat="40.115864" lon="-0.074370">
        <ele>291.9</ele>
        <time>2021-08-24T19:55:54.650Z</time>
      </trkpt>
      <trkpt lat="40.115763" lon="-0.074092">
        <ele>291.5</ele>
        <time>2021-08-24T19:56:00.935Z</time>
      </trkpt>
      <trkpt lat="40.115783" lon="-0.073807">
        <ele>291.2</ele>
        <time>2021-08-24T19:56:07.683Z</time>
      </trkpt>
      <trkpt lat="40.115722" lon="-0.073748">
        <ele>291.0</ele>
        <time>2021-08-24T19:56:09.990Z</time>
      </trkpt>
      <trkpt lat="40.115444" lon="-0.073874">
        <ele>290.6</ele>
        <time>2021-08-24T19:56:18.698Z</time>
      </trkpt>
      <trkpt lat="40.115352" lon="-0.073582">
        <ele>290.1</ele>
        <time>2021-08-24T19:56:25.543Z</time>
      </trkpt>
      <trkpt lat="40.115464" lon="-0.073370">
        <ele>289.6</ele>
        <time>2021-08-24T19:56:31.070Z</time>
      </trkpt>
      <trkpt lat="40.115352" lon="-0.072662">
        <ele>288.4</ele>
        <time>2021-08-24T19:56:46.153Z</time>
      </trkpt>
      <trkpt lat="40.115489" lon="-0.072112">
        <ele>287.5</ele>
        <time>2021-08-24T19:56:57.971Z</time>
      </trkpt>
      <trkpt lat="40.115464" lon="-0.071807">
        <ele>286.9</ele>
        <time>2021-08-24T19:57:04.114Z</time>
      </trkpt>
      <trkpt lat="40.115509" lon="-0.071165">
        <ele>285.3</ele>
        <time>2021-08-24T19:57:16.937Z</time>
      </trkpt>
      <trkpt lat="40.115687" lon="-0.070695">
        <ele>283.8</ele>
        <time>2021-08-24T19:57:27.188Z</time>
      </trkpt>
      <trkpt lat="40.115484" lon="-0.069814">
        <ele>281.1</ele>
        <time>2021-08-24T19:57:44.755Z</time>
      </trkpt>
      <trkpt lat="40.115413" lon="-0.069284">
        <ele>279.5</ele>
        <time>2021-08-24T19:57:54.827Z</time>
      </trkpt>
      <trkpt lat="40.115494" lon="-0.068966">
        <ele>278.2</ele>
        <time>2021-08-24T19:58:01.042Z</time>
      </trkpt>
      <trkpt lat="40.115631" lon="-0.068694">
        <ele>277.0</ele>
        <time>2021-08-24T19:58:07.028Z</time>
      </trkpt>
      <trkpt lat="40.115960" lon="-0.068363">
        <ele>275.0</ele>
        <time>2021-08-24T19:58:16.977Z</time>
      </trkpt>
      <trkpt lat="40.116234" lon="-0.067986">
        <ele>273.0</ele>
        <time>2021-08-24T19:58:26.498Z</time>
      </trkpt>
      <trkpt lat="40.116198" lon="-0.067893">
        <ele>272.6</ele>
        <time>2021-08-24T19:58:28.405Z</time>
      </trkpt>
      <trkpt lat="40.115773" lon="-0.067973">
        <ele>270.6</ele>
        <time>2021-08-24T19:58:38.811Z</time>
      </trkpt>
      <trkpt lat="40.115261" lon="-0.067814">
        <ele>268.6</ele>
        <time>2021-08-24T19:58:51.633Z</time>
      </trkpt>
      <trkpt lat="40.114902" lon="-0.068079">
        <ele>267.0</ele>
        <time>2021-08-24T19:59:01.899Z</time>
      </trkpt>
      <trkpt lat="40.114368" lon="-0.068684">
        <ele>264.3</ele>
        <time>2021-08-24T19:59:20.097Z</time>
      </trkpt>
      <trkpt lat="40.114334" lon="-0.068474">
        <ele>263.9</ele>
        <time>2021-08-24T19:59:22.610Z</time>
      </trkpt>
      <trkpt lat="40.114004" lon="-0.068055">
        <ele>263.2</ele>
        <time>2021-08-24T19:59:30.064Z</time>
      </trkpt>
      <trkpt lat="40.113995" lon="-0.067965">
        <ele>263.1</ele>
        <time>2021-08-24T19:59:31.242Z</time>
      </trkpt>
      <trkpt lat="40.114039" lon="-0.067906">
        <ele>263.0</ele>
        <time>2021-08-24T19:59:32.282Z</time>
      </trkpt>
      <trkpt lat="40.114379" lon="-0.067756">
        <ele>262.4</ele>
        <time>2021-08-24T19:59:38.330Z</time>
      </trkpt>
      <trkpt lat="40.114416" lon="-0.067690">
        <ele>262.4</ele>
        <time>2021-08-24T19:59:39.360Z</time>
      </trkpt>
      <trkpt lat="40.114209" lon="-0.066978">
        <ele>261.5</ele>
        <time>2021-08-24T19:59:49.797Z</time>
      </trkpt>
      <trkpt lat="40.114142" lon="-0.066546">
        <ele>261.6</ele>
        <time>2021-08-24T19:59:56.796Z</time>
      </trkpt>
      <trkpt lat="40.113993" lon="-0.066266">
        <ele>262.0</ele>
        <time>2021-08-24T20:00:02.949Z</time>
      </trkpt>
      <trkpt lat="40.113900" lon="-0.065831">
        <ele>262.5</ele>
        <time>2021-08-24T20:00:11.881Z</time>
      </trkpt>
      <trkpt lat="40.113807" lon="-0.065630">
        <ele>262.7</ele>
        <time>2021-08-24T20:00:16.886Z</time>
      </trkpt>
      <trkpt lat="40.113774" lon="-0.064750">
        <ele>263.7</ele>
        <time>2021-08-24T20:00:38.071Z</time>
      </trkpt>
      <trkpt lat="40.113371" lon="-0.062985">
        <ele>267.4</ele>
        <time>2021-08-24T20:01:29.777Z</time>
      </trkpt>
      <trkpt lat="40.113337" lon="-0.062666">
        <ele>268.1</ele>
        <time>2021-08-24T20:01:36.571Z</time>
      </trkpt>
      <trkpt lat="40.113224" lon="-0.062614">
        <ele>268.5</ele>
        <time>2021-08-24T20:01:41.812Z</time>
      </trkpt>
      <trkpt lat="40.113423" lon="-0.062585">
        <ele>268.9</ele>
        <time>2021-08-24T20:01:46.682Z</time>
      </trkpt>
      <trkpt lat="40.113484" lon="-0.062599">
        <ele>268.9</ele>
        <time>2021-08-24T20:01:48.568Z</time>
      </trkpt>
      <trkpt lat="40.113484" lon="-0.062599">
        <ele>268.9</ele>
        <time>2021-08-24T20:01:48.573Z</time>
      </trkpt>
      <trkpt lat="40.113530" lon="-0.062566">
        <ele>268.9</ele>
        <time>2021-08-24T20:01:50.904Z</time>
      </trkpt>
      <trkpt lat="40.113758" lon="-0.061757">
        <ele>269.1</ele>
        <time>2021-08-24T20:02:07.937Z</time>
      </trkpt>
      <trkpt lat="40.114884" lon="-0.060394">
        <ele>268.6</ele>
        <time>2021-08-24T20:02:36.358Z</time>
      </trkpt>
      <trkpt lat="40.115194" lon="-0.060034">
        <ele>268.0</ele>
        <time>2021-08-24T20:02:43.365Z</time>
      </trkpt>
      <trkpt lat="40.115456" lon="-0.059735">
        <ele>267.5</ele>
        <time>2021-08-24T20:02:49.172Z</time>
      </trkpt>
      <trkpt lat="40.116892" lon="-0.057996">
        <ele>263.6</ele>
        <time>2021-08-24T20:03:20.910Z</time>
      </trkpt>
      <trkpt lat="40.117204" lon="-0.057572">
        <ele>262.8</ele>
        <time>2021-08-24T20:03:28.378Z</time>
      </trkpt>
      <trkpt lat="40.117630" lon="-0.056953">
        <ele>262.1</ele>
        <time>2021-08-24T20:03:39.112Z</time>
      </trkpt>
      <trkpt lat="40.117961" lon="-0.056395">
        <ele>261.5</ele>
        <time>2021-08-24T20:03:48.624Z</time>
      </trkpt>
      <trkpt lat="40.118362" lon="-0.055576">
        <ele>261.2</ele>
        <time>2021-08-24T20:04:03.296Z</time>
      </trkpt>
      <trkpt lat="40.118458" lon="-0.055357">
        <ele>261.4</ele>
        <time>2021-08-24T20:04:07.301Z</time>
      </trkpt>
      <trkpt lat="40.118735" lon="-0.054645">
        <ele>261.9</ele>
        <time>2021-08-24T20:04:22.802Z</time>
      </trkpt>
      <trkpt lat="40.118891" lon="-0.054155">
        <ele>262.2</ele>
        <time>2021-08-24T20:04:34.433Z</time>
      </trkpt>
      <trkpt lat="40.118952" lon="-0.054025">
        <ele>262.3</ele>
        <time>2021-08-24T20:04:37.884Z</time>
      </trkpt>
      <trkpt lat="40.118986" lon="-0.053953">
        <ele>262.4</ele>
        <time>2021-08-24T20:04:39.537Z</time>
      </trkpt>
      <trkpt lat="40.119079" lon="-0.053869">
        <ele>262.5</ele>
        <time>2021-08-24T20:04:42.971Z</time>
      </trkpt>
      <trkpt lat="40.119184" lon="-0.053769">
        <ele>262.5</ele>
        <time>2021-08-24T20:04:46.277Z</time>
      </trkpt>
      <trkpt lat="40.119143" lon="-0.053475">
        <ele>262.5</ele>
        <time>2021-08-24T20:04:52.307Z</time>
      </trkpt>
      <trkpt lat="40.119084" lon="-0.053489">
        <ele>262.5</ele>
        <time>2021-08-24T20:04:53.648Z</time>
      </trkpt>
      <trkpt lat="40.118993" lon="-0.053486">
        <ele>262.5</ele>
        <time>2021-08-24T20:04:55.712Z</time>
      </trkpt>
      <trkpt lat="40.118906" lon="-0.053454">
        <ele>262.5</ele>
        <time>2021-08-24T20:04:57.433Z</time>
      </trkpt>
      <trkpt lat="40.118827" lon="-0.053394">
        <ele>262.4</ele>
        <time>2021-08-24T20:04:59.174Z</time>
      </trkpt>
      <trkpt lat="40.118827" lon="-0.053394">
        <ele>262.4</ele>
        <time>2021-08-24T20:04:59.254Z</time>
      </trkpt>
      <trkpt lat="40.118756" lon="-0.053300">
        <ele>262.4</ele>
        <time>2021-08-24T20:05:01.126Z</time>
      </trkpt>
      <trkpt lat="40.118686" lon="-0.053054">
        <ele>262.4</ele>
        <time>2021-08-24T20:05:04.666Z</time>
      </trkpt>
      <trkpt lat="40.118693" lon="-0.052922">
        <ele>262.4</ele>
        <time>2021-08-24T20:05:06.763Z</time>
      </trkpt>
      <trkpt lat="40.118716" lon="-0.052828">
        <ele>262.4</ele>
        <time>2021-08-24T20:05:08.091Z</time>
      </trkpt>
      <trkpt lat="40.118753" lon="-0.052742">
        <ele>262.4</ele>
        <time>2021-08-24T20:05:09.455Z</time>
      </trkpt>
      <trkpt lat="40.118837" lon="-0.052633">
        <ele>262.4</ele>
        <time>2021-08-24T20:05:11.448Z</time>
      </trkpt>
      <trkpt lat="40.118944" lon="-0.052565">
        <ele>262.3</ele>
        <time>2021-08-24T20:05:13.691Z</time>
      </trkpt>
      <trkpt lat="40.119060" lon="-0.052545">
        <ele>262.3</ele>
        <time>2021-08-24T20:05:15.552Z</time>
      </trkpt>
      <trkpt lat="40.119167" lon="-0.052572">
        <ele>262.3</ele>
        <time>2021-08-24T20:05:17.252Z</time>
      </trkpt>
      <trkpt lat="40.119263" lon="-0.052639">
        <ele>262.3</ele>
        <time>2021-08-24T20:05:19.220Z</time>
      </trkpt>
      <trkpt lat="40.119313" lon="-0.052697">
        <ele>262.3</ele>
        <time>2021-08-24T20:05:20.332Z</time>
      </trkpt>
      <trkpt lat="40.119354" lon="-0.052767">
        <ele>262.2</ele>
        <time>2021-08-24T20:05:21.385Z</time>
      </trkpt>
      <trkpt lat="40.119477" lon="-0.052822">
        <ele>262.1</ele>
        <time>2021-08-24T20:05:23.408Z</time>
      </trkpt>
      <trkpt lat="40.119555" lon="-0.052845">
        <ele>262.1</ele>
        <time>2021-08-24T20:05:24.834Z</time>
      </trkpt>
      <trkpt lat="40.119766" lon="-0.052747">
        <ele>261.9</ele>
        <time>2021-08-24T20:05:28.305Z</time>
      </trkpt>
      <trkpt lat="40.120046" lon="-0.052554">
        <ele>261.7</ele>
        <time>2021-08-24T20:05:33.470Z</time>
      </trkpt>
      <trkpt lat="40.120216" lon="-0.052343">
        <ele>261.5</ele>
        <time>2021-08-24T20:05:37.444Z</time>
      </trkpt>
      <trkpt lat="40.120391" lon="-0.052031">
        <ele>261.3</ele>
        <time>2021-08-24T20:05:42.500Z</time>
      </trkpt>
      <trkpt lat="40.120607" lon="-0.051645">
        <ele>261.0</ele>
        <time>2021-08-24T20:05:49.474Z</time>
      </trkpt>
      <trkpt lat="40.120728" lon="-0.051471">
        <ele>261.2</ele>
        <time>2021-08-24T20:05:52.926Z</time>
      </trkpt>
      <trkpt lat="40.120614" lon="-0.051337">
        <ele>261.4</ele>
        <time>2021-08-24T20:05:58.453Z</time>
      </trkpt>
      <trkpt lat="40.119616" lon="-0.051633">
        <ele>263.0</ele>
        <time>2021-08-24T20:06:34.189Z</time>
      </trkpt>
      <trkpt lat="40.119505" lon="-0.051459">
        <ele>263.3</ele>
        <time>2021-08-24T20:06:40.422Z</time>
      </trkpt>
      <trkpt lat="40.119606" lon="-0.050321">
        <ele>264.2</ele>
        <time>2021-08-24T20:07:10.462Z</time>
      </trkpt>
      <trkpt lat="40.119932" lon="-0.046662">
        <ele>265.9</ele>
        <time>2021-08-24T20:08:25.664Z</time>
      </trkpt>
      <trkpt lat="40.120727" lon="-0.037747">
        <ele>270.7</ele>
        <time>2021-08-24T20:11:50.129Z</time>
      </trkpt>
      <trkpt lat="40.120758" lon="-0.037460">
        <ele>270.7</ele>
        <time>2021-08-24T20:11:55.571Z</time>
      </trkpt>
      <trkpt lat="40.120849" lon="-0.037302">
        <ele>270.7</ele>
        <time>2021-08-24T20:11:58.514Z</time>
      </trkpt>
      <trkpt lat="40.120953" lon="-0.037196">
        <ele>270.7</ele>
        <time>2021-08-24T20:12:01.576Z</time>
      </trkpt>
      <trkpt lat="40.121037" lon="-0.037024">
        <ele>270.2</ele>
        <time>2021-08-24T20:12:05.017Z</time>
      </trkpt>
      <trkpt lat="40.121037" lon="-0.037024">
        <ele>270.2</ele>
        <time>2021-08-24T20:12:05.143Z</time>
      </trkpt>
      <trkpt lat="40.121037" lon="-0.037024">
        <ele>270.2</ele>
        <time>2021-08-24T20:12:05.143Z</time>
      </trkpt>
      <trkpt lat="40.121080" lon="-0.037060">
        <ele>270.1</ele>
        <time>2021-08-24T20:12:07.328Z</time>
      </trkpt>
      <trkpt lat="40.121268" lon="-0.037062">
        <ele>269.4</ele>
        <time>2021-08-24T20:12:15.369Z</time>
      </trkpt>
      <trkpt lat="40.121460" lon="-0.037015">
        <ele>268.8</ele>
        <time>2021-08-24T20:12:23.729Z</time>
      </trkpt>
      <trkpt lat="40.122062" lon="-0.036839">
        <ele>266.7</ele>
        <time>2021-08-24T20:12:50.122Z</time>
      </trkpt>
      <trkpt lat="40.122353" lon="-0.036766">
        <ele>265.7</ele>
        <time>2021-08-24T20:13:02.804Z</time>
      </trkpt>
      <trkpt lat="40.122523" lon="-0.036758">
        <ele>265.1</ele>
        <time>2021-08-24T20:13:10.091Z</time>
      </trkpt>
      <trkpt lat="40.122523" lon="-0.036756">
        <ele>265.1</ele>
        <time>2021-08-24T20:13:10.156Z</time>
      </trkpt>
      <trkpt lat="40.122873" lon="-0.036559">
        <ele>263.8</ele>
        <time>2021-08-24T20:13:26.460Z</time>
      </trkpt>
      <trkpt lat="40.122876" lon="-0.036558">
        <ele>263.8</ele>
        <time>2021-08-24T20:13:26.593Z</time>
      </trkpt>
      <trkpt lat="40.123233" lon="-0.036425">
        <ele>262.7</ele>
        <time>2021-08-24T20:13:42.480Z</time>
      </trkpt>
      <trkpt lat="40.123237" lon="-0.036424">
        <ele>262.6</ele>
        <time>2021-08-24T20:13:42.654Z</time>
      </trkpt>
      <trkpt lat="40.123329" lon="-0.036281">
        <ele>262.2</ele>
        <time>2021-08-24T20:13:48.768Z</time>
      </trkpt>
      <trkpt lat="40.123331" lon="-0.036279">
        <ele>262.2</ele>
        <time>2021-08-24T20:13:48.876Z</time>
      </trkpt>
      <trkpt lat="40.123525" lon="-0.036310">
        <ele>261.6</ele>
        <time>2021-08-24T20:13:57.243Z</time>
      </trkpt>
      <trkpt lat="40.123528" lon="-0.036311">
        <ele>261.6</ele>
        <time>2021-08-24T20:13:57.375Z</time>
      </trkpt>
      <trkpt lat="40.123812" lon="-0.036226">
        <ele>260.6</ele>
        <time>2021-08-24T20:14:09.842Z</time>
      </trkpt>
      <trkpt lat="40.123815" lon="-0.036225">
        <ele>260.6</ele>
        <time>2021-08-24T20:14:09.974Z</time>
      </trkpt>
      <trkpt lat="40.123940" lon="-0.036088">
        <ele>260.1</ele>
        <time>2021-08-24T20:14:16.949Z</time>
      </trkpt>
      <trkpt lat="40.123942" lon="-0.036086">
        <ele>260.1</ele>
        <time>2021-08-24T20:14:17.057Z</time>
      </trkpt>
      <trkpt lat="40.123940" lon="-0.036090">
        <ele>260.1</ele>
        <time>2021-08-24T20:14:17.213Z</time>
      </trkpt>
      <trkpt lat="40.123920" lon="-0.036010">
        <ele>259.9</ele>
        <time>2021-08-24T20:14:19.966Z</time>
      </trkpt>
      <trkpt lat="40.123840" lon="-0.035480">
        <ele>258.9</ele>
        <time>2021-08-24T20:14:37.633Z</time>
      </trkpt>
      <trkpt lat="40.123821" lon="-0.035486">
        <ele>258.9</ele>
        <time>2021-08-24T20:14:38.494Z</time>
      </trkpt>
      <trkpt lat="40.123813" lon="-0.035446">
        <ele>258.9</ele>
        <time>2021-08-24T20:14:39.816Z</time>
      </trkpt>
      <trkpt lat="40.123500" lon="-0.034781">
        <ele>258.8</ele>
        <time>2021-08-24T20:14:58.546Z</time>
      </trkpt>
      <trkpt lat="40.123497" lon="-0.034024">
        <ele>258.7</ele>
        <time>2021-08-24T20:15:16.580Z</time>
      </trkpt>
      <trkpt lat="40.123444" lon="-0.033716">
        <ele>258.6</ele>
        <time>2021-08-24T20:15:23.961Z</time>
      </trkpt>
      <trkpt lat="40.123305" lon="-0.033474">
        <ele>258.6</ele>
        <time>2021-08-24T20:15:34.029Z</time>
      </trkpt>
      <trkpt lat="40.123245" lon="-0.032828">
        <ele>259.0</ele>
        <time>2021-08-24T20:15:54.355Z</time>
      </trkpt>
      <trkpt lat="40.123272" lon="-0.032099">
        <ele>259.5</ele>
        <time>2021-08-24T20:16:15.592Z</time>
      </trkpt>
      <trkpt lat="40.123194" lon="-0.031783">
        <ele>259.8</ele>
        <time>2021-08-24T20:16:24.675Z</time>
      </trkpt>
      <trkpt lat="40.123288" lon="-0.031457">
        <ele>260.0</ele>
        <time>2021-08-24T20:16:34.150Z</time>
      </trkpt>
      <trkpt lat="40.123243" lon="-0.031086">
        <ele>260.2</ele>
        <time>2021-08-24T20:16:43.071Z</time>
      </trkpt>
      <trkpt lat="40.123317" lon="-0.030949">
        <ele>260.0</ele>
        <time>2021-08-24T20:16:47.569Z</time>
      </trkpt>
      <trkpt lat="40.123245" lon="-0.030692">
        <ele>259.8</ele>
        <time>2021-08-24T20:16:53.639Z</time>
      </trkpt>
      <trkpt lat="40.123251" lon="-0.030456">
        <ele>259.7</ele>
        <time>2021-08-24T20:16:59.911Z</time>
      </trkpt>
      <trkpt lat="40.123174" lon="-0.030086">
        <ele>259.4</ele>
        <time>2021-08-24T20:17:08.300Z</time>
      </trkpt>
      <trkpt lat="40.123198" lon="-0.029820">
        <ele>259.2</ele>
        <time>2021-08-24T20:17:15.961Z</time>
      </trkpt>
      <trkpt lat="40.123153" lon="-0.029595">
        <ele>259.0</ele>
        <time>2021-08-24T20:17:20.393Z</time>
      </trkpt>
      <trkpt lat="40.123110" lon="-0.029384">
        <ele>258.9</ele>
        <time>2021-08-24T20:17:24.918Z</time>
      </trkpt>
      <trkpt lat="40.123090" lon="-0.029332">
        <ele>258.8</ele>
        <time>2021-08-24T20:17:25.684Z</time>
      </trkpt>
      <trkpt lat="40.123090" lon="-0.029332">
        <ele>258.8</ele>
        <time>2021-08-24T20:17:25.876Z</time>
      </trkpt>
      <trkpt lat="40.123090" lon="-0.029332">
        <ele>258.8</ele>
        <time>2021-08-24T20:17:25.876Z</time>
      </trkpt>
      <trkpt lat="40.123183" lon="-0.029273">
        <ele>258.7</ele>
        <time>2021-08-24T20:17:30.298Z</time>
      </trkpt>
      <trkpt lat="40.123171" lon="-0.029170">
        <ele>258.6</ele>
        <time>2021-08-24T20:17:33.705Z</time>
      </trkpt>
      <trkpt lat="40.123167" lon="-0.029139">
        <ele>258.6</ele>
        <time>2021-08-24T20:17:34.733Z</time>
      </trkpt>
      <trkpt lat="40.123334" lon="-0.028930">
        <ele>258.2</ele>
        <time>2021-08-24T20:17:44.623Z</time>
      </trkpt>
      <trkpt lat="40.123352" lon="-0.028908">
        <ele>258.2</ele>
        <time>2021-08-24T20:17:45.676Z</time>
      </trkpt>
      <trkpt lat="40.123533" lon="-0.028832">
        <ele>257.7</ele>
        <time>2021-08-24T20:17:53.807Z</time>
      </trkpt>
      <trkpt lat="40.123557" lon="-0.028822">
        <ele>257.6</ele>
        <time>2021-08-24T20:17:54.883Z</time>
      </trkpt>
      <trkpt lat="40.123855" lon="-0.028837">
        <ele>256.8</ele>
        <time>2021-08-24T20:18:07.643Z</time>
      </trkpt>
      <trkpt lat="40.123881" lon="-0.028838">
        <ele>256.8</ele>
        <time>2021-08-24T20:18:08.756Z</time>
      </trkpt>
      <trkpt lat="40.123988" lon="-0.029002">
        <ele>256.4</ele>
        <time>2021-08-24T20:18:15.814Z</time>
      </trkpt>
      <trkpt lat="40.124004" lon="-0.029026">
        <ele>256.3</ele>
        <time>2021-08-24T20:18:16.856Z</time>
      </trkpt>
      <trkpt lat="40.124201" lon="-0.028969">
        <ele>255.8</ele>
        <time>2021-08-24T20:18:25.485Z</time>
      </trkpt>
      <trkpt lat="40.124225" lon="-0.028962">
        <ele>255.7</ele>
        <time>2021-08-24T20:18:26.537Z</time>
      </trkpt>
      <trkpt lat="40.124295" lon="-0.028899">
        <ele>255.5</ele>
        <time>2021-08-24T20:18:30.187Z</time>
      </trkpt>
      <trkpt lat="40.124315" lon="-0.028881">
        <ele>255.4</ele>
        <time>2021-08-24T20:18:31.226Z</time>
      </trkpt>
      <trkpt lat="40.124495" lon="-0.028888">
        <ele>255.0</ele>
        <time>2021-08-24T20:18:38.928Z</time>
      </trkpt>
      <trkpt lat="40.124520" lon="-0.028889">
        <ele>254.9</ele>
        <time>2021-08-24T20:18:39.998Z</time>
      </trkpt>
      <trkpt lat="40.125201" lon="-0.028599">
        <ele>253.0</ele>
        <time>2021-08-24T20:19:10.637Z</time>
      </trkpt>
      <trkpt lat="40.125226" lon="-0.028588">
        <ele>252.9</ele>
        <time>2021-08-24T20:19:11.765Z</time>
      </trkpt>
      <trkpt lat="40.125390" lon="-0.028339">
        <ele>252.2</ele>
        <time>2021-08-24T20:19:22.516Z</time>
      </trkpt>
      <trkpt lat="40.125406" lon="-0.028315">
        <ele>252.2</ele>
        <time>2021-08-24T20:19:23.558Z</time>
      </trkpt>
      <trkpt lat="40.125665" lon="-0.028154">
        <ele>251.4</ele>
        <time>2021-08-24T20:19:35.826Z</time>
      </trkpt>
      <trkpt lat="40.125687" lon="-0.028140">
        <ele>251.3</ele>
        <time>2021-08-24T20:19:36.873Z</time>
      </trkpt>
      <trkpt lat="40.126117" lon="-0.028130">
        <ele>250.2</ele>
        <time>2021-08-24T20:19:55.271Z</time>
      </trkpt>
      <trkpt lat="40.126143" lon="-0.028129">
        <ele>250.1</ele>
        <time>2021-08-24T20:19:56.383Z</time>
      </trkpt>
      <trkpt lat="40.126601" lon="-0.028094">
        <ele>248.9</ele>
        <time>2021-08-24T20:20:16.010Z</time>
      </trkpt>
      <trkpt lat="40.126627" lon="-0.028092">
        <ele>248.8</ele>
        <time>2021-08-24T20:20:17.124Z</time>
      </trkpt>
      <trkpt lat="40.126995" lon="-0.028011">
        <ele>248.0</ele>
        <time>2021-08-24T20:20:33.087Z</time>
      </trkpt>
      <trkpt lat="40.127020" lon="-0.028006">
        <ele>248.0</ele>
        <time>2021-08-24T20:20:34.168Z</time>
      </trkpt>
      <trkpt lat="40.127674" lon="-0.027909">
        <ele>246.5</ele>
        <time>2021-08-24T20:21:02.325Z</time>
      </trkpt>
      <trkpt lat="40.128327" lon="-0.027811">
        <ele>245.1</ele>
        <time>2021-08-24T20:21:30.441Z</time>
      </trkpt>
      <trkpt lat="40.128981" lon="-0.027714">
        <ele>244.6</ele>
        <time>2021-08-24T20:21:58.590Z</time>
      </trkpt>
      <trkpt lat="40.128974" lon="-0.027714">
        <ele>244.6</ele>
        <time>2021-08-24T20:21:58.904Z</time>
      </trkpt>
      <trkpt lat="40.128971" lon="-0.026998">
        <ele>244.2</ele>
        <time>2021-08-24T20:22:09.326Z</time>
      </trkpt>
      <trkpt lat="40.128910" lon="-0.026852">
        <ele>244.1</ele>
        <time>2021-08-24T20:22:12.515Z</time>
      </trkpt>
      <trkpt lat="40.128806" lon="-0.026876">
        <ele>244.0</ele>
        <time>2021-08-24T20:22:14.164Z</time>
      </trkpt>
      <trkpt lat="40.128726" lon="-0.026806">
        <ele>244.0</ele>
        <time>2021-08-24T20:22:16.201Z</time>
      </trkpt>
      <trkpt lat="40.128656" lon="-0.026727">
        <ele>243.9</ele>
        <time>2021-08-24T20:22:18.641Z</time>
      </trkpt>
      <trkpt lat="40.128753" lon="-0.026610">
        <ele>243.8</ele>
        <time>2021-08-24T20:22:20.848Z</time>
      </trkpt>
      <trkpt lat="40.128795" lon="-0.026460">
        <ele>243.8</ele>
        <time>2021-08-24T20:22:23.522Z</time>
      </trkpt>
      <trkpt lat="40.128798" lon="-0.026343">
        <ele>243.8</ele>
        <time>2021-08-24T20:22:25.867Z</time>
      </trkpt>
      <trkpt lat="40.128747" lon="-0.025536">
        <ele>244.0</ele>
        <time>2021-08-24T20:22:39.025Z</time>
      </trkpt>
      <trkpt lat="40.128539" lon="-0.023988">
        <ele>244.5</ele>
        <time>2021-08-24T20:23:06.228Z</time>
      </trkpt>
      <trkpt lat="40.128291" lon="-0.022918">
        <ele>245.2</ele>
        <time>2021-08-24T20:23:26.459Z</time>
      </trkpt>
      <trkpt lat="40.127389" lon="-0.020625">
        <ele>247.2</ele>
        <time>2021-08-24T20:24:17.653Z</time>
      </trkpt>
      <trkpt lat="40.127279" lon="-0.020205">
        <ele>247.5</ele>
        <time>2021-08-24T20:24:26.490Z</time>
      </trkpt>
      <trkpt lat="40.127211" lon="-0.019628">
        <ele>247.9</ele>
        <time>2021-08-24T20:24:37.207Z</time>
      </trkpt>
      <trkpt lat="40.127199" lon="-0.019149">
        <ele>248.1</ele>
        <time>2021-08-24T20:24:45.513Z</time>
      </trkpt>
      <trkpt lat="40.127199" lon="-0.018962">
        <ele>248.1</ele>
        <time>2021-08-24T20:24:48.866Z</time>
      </trkpt>
      <trkpt lat="40.127126" lon="-0.018694">
        <ele>248.3</ele>
        <time>2021-08-24T20:24:53.574Z</time>
      </trkpt>
      <trkpt lat="40.127064" lon="-0.018635">
        <ele>248.3</ele>
        <time>2021-08-24T20:24:55.314Z</time>
      </trkpt>
      <trkpt lat="40.127026" lon="-0.018534">
        <ele>248.3</ele>
        <time>2021-08-24T20:24:57.361Z</time>
      </trkpt>
      <trkpt lat="40.127030" lon="-0.018420">
        <ele>248.4</ele>
        <time>2021-08-24T20:24:59.328Z</time>
      </trkpt>
      <trkpt lat="40.127098" lon="-0.018301">
        <ele>248.4</ele>
        <time>2021-08-24T20:25:01.651Z</time>
      </trkpt>
      <trkpt lat="40.127151" lon="-0.018136">
        <ele>248.5</ele>
        <time>2021-08-24T20:25:04.832Z</time>
      </trkpt>
      <trkpt lat="40.127183" lon="-0.017964">
        <ele>248.6</ele>
        <time>2021-08-24T20:25:07.842Z</time>
      </trkpt>
      <trkpt lat="40.127181" lon="-0.017834">
        <ele>248.6</ele>
        <time>2021-08-24T20:25:09.867Z</time>
      </trkpt>
      <trkpt lat="40.127171" lon="-0.017261">
        <ele>248.9</ele>
        <time>2021-08-24T20:25:19.640Z</time>
      </trkpt>
      <trkpt lat="40.127150" lon="-0.016014">
        <ele>249.6</ele>
        <time>2021-08-24T20:25:41.390Z</time>
      </trkpt>
      <trkpt lat="40.126996" lon="-0.014713">
        <ele>250.8</ele>
        <time>2021-08-24T20:26:07.784Z</time>
      </trkpt>
      <trkpt lat="40.125196" lon="-0.010130">
        <ele>258.5</ele>
        <time>2021-08-24T20:28:04.152Z</time>
      </trkpt>
      <trkpt lat="40.125051" lon="-0.009905">
        <ele>259.1</ele>
        <time>2021-08-24T20:28:12.314Z</time>
      </trkpt>
      <trkpt lat="40.124750" lon="-0.009714">
        <ele>260.1</ele>
        <time>2021-08-24T20:28:24.825Z</time>
      </trkpt>
      <trkpt lat="40.123308" lon="-0.009383">
        <ele>265.0</ele>
        <time>2021-08-24T20:29:20.150Z</time>
      </trkpt>
      <trkpt lat="40.123088" lon="-0.009337">
        <ele>265.8</ele>
        <time>2021-08-24T20:29:28.823Z</time>
      </trkpt>
      <trkpt lat="40.122872" lon="-0.009292">
        <ele>266.6</ele>
        <time>2021-08-24T20:29:37.269Z</time>
      </trkpt>
      <trkpt lat="40.122417" lon="-0.009182">
        <ele>268.4</ele>
        <time>2021-08-24T20:29:55.312Z</time>
      </trkpt>
      <trkpt lat="40.121323" lon="-0.008733">
        <ele>272.9</ele>
        <time>2021-08-24T20:30:44.179Z</time>
      </trkpt>
      <trkpt lat="40.121099" lon="-0.008593">
        <ele>273.8</ele>
        <time>2021-08-24T20:30:53.650Z</time>
      </trkpt>
      <trkpt lat="40.120914" lon="-0.008354">
        <ele>274.9</ele>
        <time>2021-08-24T20:31:02.706Z</time>
      </trkpt>
      <trkpt lat="40.120240" lon="-0.006683">
        <ele>273.1</ele>
        <time>2021-08-24T20:31:08.137Z</time>
      </trkpt>
      <trkpt lat="40.120116" lon="-0.006622">
        <ele>273.8</ele>
        <time>2021-08-24T20:31:14.659Z</time>
      </trkpt>
      <trkpt lat="40.119680" lon="-0.006561">
        <ele>278.8</ele>
        <time>2021-08-24T20:31:36.250Z</time>
      </trkpt>
      <trkpt lat="40.119290" lon="-0.006438">
        <ele>285.2</ele>
        <time>2021-08-24T20:31:56.055Z</time>
      </trkpt>
      <trkpt lat="40.118916" lon="-0.006296">
        <ele>289.6</ele>
        <time>2021-08-24T20:32:15.227Z</time>
      </trkpt>
      <trkpt lat="40.118543" lon="-0.006153">
        <ele>292.5</ele>
        <time>2021-08-24T20:32:34.337Z</time>
      </trkpt>
      <trkpt lat="40.118247" lon="-0.005909">
        <ele>295.5</ele>
        <time>2021-08-24T20:32:51.524Z</time>
      </trkpt>
      <trkpt lat="40.117920" lon="-0.005705">
        <ele>294.0</ele>
        <time>2021-08-24T20:33:09.272Z</time>
      </trkpt>
      <trkpt lat="40.117608" lon="-0.005379">
        <ele>291.3</ele>
        <time>2021-08-24T20:33:28.850Z</time>
      </trkpt>
      <trkpt lat="40.117328" lon="-0.005114">
        <ele>288.7</ele>
        <time>2021-08-24T20:33:45.817Z</time>
      </trkpt>
      <trkpt lat="40.117063" lon="-0.004829">
        <ele>286.0</ele>
        <time>2021-08-24T20:34:02.657Z</time>
      </trkpt>
      <trkpt lat="40.116891" lon="-0.004422">
        <ele>283.4</ele>
        <time>2021-08-24T20:34:20.102Z</time>
      </trkpt>
      <trkpt lat="40.116673" lon="-0.004076">
        <ele>280.1</ele>
        <time>2021-08-24T20:34:36.966Z</time>
      </trkpt>
      <trkpt lat="40.116518" lon="-0.003648">
        <ele>280.3</ele>
        <time>2021-08-24T20:34:54.707Z</time>
      </trkpt>
      <trkpt lat="40.116346" lon="-0.003240">
        <ele>280.2</ele>
        <time>2021-08-24T20:35:12.114Z</time>
      </trkpt>
      <trkpt lat="40.116268" lon="-0.002711">
        <ele>279.0</ele>
        <time>2021-08-24T20:35:32.315Z</time>
      </trkpt>
      <trkpt lat="40.116144" lon="-0.002242">
        <ele>277.6</ele>
        <time>2021-08-24T20:35:50.899Z</time>
      </trkpt>
      <trkpt lat="40.115972" lon="-0.001835">
        <ele>275.9</ele>
        <time>2021-08-24T20:36:08.323Z</time>
      </trkpt>
      <trkpt lat="40.115879" lon="-0.001326">
        <ele>274.3</ele>
        <time>2021-08-24T20:36:27.946Z</time>
      </trkpt>
      <trkpt lat="40.115708" lon="-0.000898">
        <ele>273.5</ele>
        <time>2021-08-24T20:36:46.028Z</time>
      </trkpt>
      <trkpt lat="40.115552" lon="-0.000450">
        <ele>272.8</ele>
        <time>2021-08-24T20:37:04.467Z</time>
      </trkpt>
      <trkpt lat="40.115271" lon="-0.000185">
        <ele>272.8</ele>
        <time>2021-08-24T20:37:21.403Z</time>
      </trkpt>
      <trkpt lat="40.115007" lon="0.000100">
        <ele>272.8</ele>
        <time>2021-08-24T20:37:38.201Z</time>
      </trkpt>
      <trkpt lat="40.114773" lon="0.000426">
        <ele>272.7</ele>
        <time>2021-08-24T20:37:54.931Z</time>
      </trkpt>
      <trkpt lat="40.114555" lon="0.000793">
        <ele>272.2</ele>
        <time>2021-08-24T20:38:12.325Z</time>
      </trkpt>
      <trkpt lat="40.114337" lon="0.001159">
        <ele>271.7</ele>
        <time>2021-08-24T20:38:29.718Z</time>
      </trkpt>
      <trkpt lat="40.114103" lon="0.001485">
        <ele>270.8</ele>
        <time>2021-08-24T20:38:46.451Z</time>
      </trkpt>
      <trkpt lat="40.113854" lon="0.001811">
        <ele>270.6</ele>
        <time>2021-08-24T20:39:03.711Z</time>
      </trkpt>
      <trkpt lat="40.113667" lon="0.002219">
        <ele>270.5</ele>
        <time>2021-08-24T20:39:21.500Z</time>
      </trkpt>
      <trkpt lat="40.113433" lon="0.002544">
        <ele>270.8</ele>
        <time>2021-08-24T20:39:38.229Z</time>
      </trkpt>
      <trkpt lat="40.113215" lon="0.002891">
        <ele>271.7</ele>
        <time>2021-08-24T20:39:55.035Z</time>
      </trkpt>
      <trkpt lat="40.113028" lon="0.003278">
        <ele>272.0</ele>
        <time>2021-08-24T20:40:12.174Z</time>
      </trkpt>
      <trkpt lat="40.112763" lon="0.003563">
        <ele>271.8</ele>
        <time>2021-08-24T20:40:28.975Z</time>
      </trkpt>
      <trkpt lat="40.112530" lon="0.003930">
        <ele>271.3</ele>
        <time>2021-08-24T20:40:46.847Z</time>
      </trkpt>
      <trkpt lat="40.112327" lon="0.004317">
        <ele>271.0</ele>
        <time>2021-08-24T20:41:04.402Z</time>
      </trkpt>
      <trkpt lat="40.112109" lon="0.004683">
        <ele>270.9</ele>
        <time>2021-08-24T20:41:21.799Z</time>
      </trkpt>
      <trkpt lat="40.111891" lon="0.005050">
        <ele>270.7</ele>
        <time>2021-08-24T20:41:39.193Z</time>
      </trkpt>
      <trkpt lat="40.111642" lon="0.005355">
        <ele>270.6</ele>
        <time>2021-08-24T20:41:55.919Z</time>
      </trkpt>
      <trkpt lat="40.111408" lon="0.005681">
        <ele>270.7</ele>
        <time>2021-08-24T20:42:12.649Z</time>
      </trkpt>
      <trkpt lat="40.111420" lon="0.006055">
        <ele>270.3</ele>
        <time>2021-08-24T20:42:26.667Z</time>
      </trkpt>
      <trkpt lat="40.111471" lon="0.006302">
        <ele>269.9</ele>
        <time>2021-08-24T20:42:36.228Z</time>
      </trkpt>
      <trkpt lat="40.111480" lon="0.006649">
        <ele>269.5</ele>
        <time>2021-08-24T20:42:49.232Z</time>
      </trkpt>
      <trkpt lat="40.112293" lon="0.006783">
        <ele>269.5</ele>
        <time>2021-08-24T20:43:29.358Z</time>
      </trkpt>
      <trkpt lat="40.112473" lon="0.007152">
        <ele>271.3</ele>
        <time>2021-08-24T20:43:45.771Z</time>
      </trkpt>
      <trkpt lat="40.113012" lon="0.008137">
        <ele>285.5</ele>
        <time>2021-08-24T20:44:31.556Z</time>
      </trkpt>
      <trkpt lat="40.112653" lon="0.010487">
        <ele>283.2</ele>
        <time>2021-08-24T20:46:01.314Z</time>
      </trkpt>
      <trkpt lat="40.113935" lon="0.010991">
        <ele>283.5</ele>
        <time>2021-08-24T20:47:06.877Z</time>
      </trkpt>
      <trkpt lat="40.113572" lon="0.012183">
        <ele>285.1</ele>
        <time>2021-08-24T20:47:54.923Z</time>
      </trkpt>
      <trkpt lat="40.117777" lon="0.019108">
        <ele>297.6</ele>
        <time>2021-08-24T20:53:26.075Z</time>
      </trkpt>
      <trkpt lat="40.118536" lon="0.019836">
        <ele>305.5</ele>
        <time>2021-08-24T20:54:12.293Z</time>
      </trkpt>
      <trkpt lat="40.118821" lon="0.020063">
        <ele>302.4</ele>
        <time>2021-08-24T20:54:28.672Z</time>
      </trkpt>
      <trkpt lat="40.119137" lon="0.020363">
        <ele>299.8</ele>
        <time>2021-08-24T20:54:47.827Z</time>
      </trkpt>
      <trkpt lat="40.119477" lon="0.020585">
        <ele>297.3</ele>
        <time>2021-08-24T20:55:06.462Z</time>
      </trkpt>
      <trkpt lat="40.119939" lon="0.021009">
        <ele>294.3</ele>
        <time>2021-08-24T20:55:34.135Z</time>
      </trkpt>
      <trkpt lat="40.120223" lon="0.021205">
        <ele>292.8</ele>
        <time>2021-08-24T20:55:49.902Z</time>
      </trkpt>
      <trkpt lat="40.120698" lon="0.021277">
        <ele>290.2</ele>
        <time>2021-08-24T20:56:13.329Z</time>
      </trkpt>
      <trkpt lat="40.121965" lon="0.021747">
        <ele>287.2</ele>
        <time>2021-08-24T20:57:17.812Z</time>
      </trkpt>
      <trkpt lat="40.122219" lon="0.021954">
        <ele>286.4</ele>
        <time>2021-08-24T20:57:32.460Z</time>
      </trkpt>
      <trkpt lat="40.122478" lon="0.021982">
        <ele>285.7</ele>
        <time>2021-08-24T20:57:45.230Z</time>
      </trkpt>
      <trkpt lat="40.122977" lon="0.022135">
        <ele>285.1</ele>
        <time>2021-08-24T20:58:10.309Z</time>
      </trkpt>
      <trkpt lat="40.123417" lon="0.022247">
        <ele>284.3</ele>
        <time>2021-08-24T20:58:32.244Z</time>
      </trkpt>
      <trkpt lat="40.125072" lon="0.022800">
        <ele>281.2</ele>
        <time>2021-08-24T20:59:55.892Z</time>
      </trkpt>
      <trkpt lat="40.124849" lon="0.023515">
        <ele>279.4</ele>
        <time>2021-08-24T21:00:24.827Z</time>
      </trkpt>
      <trkpt lat="40.124761" lon="0.023873">
        <ele>278.1</ele>
        <time>2021-08-24T21:00:38.915Z</time>
      </trkpt>
      <trkpt lat="40.124686" lon="0.024366">
        <ele>276.8</ele>
        <time>2021-08-24T21:00:57.733Z</time>
      </trkpt>
      <trkpt lat="40.124655" lon="0.024587">
        <ele>276.7</ele>
        <time>2021-08-24T21:00:59.040Z</time>
      </trkpt>
      <trkpt lat="40.124162" lon="0.024382">
        <ele>279.0</ele>
        <time>2021-08-24T21:01:02.978Z</time>
      </trkpt>
      <trkpt lat="40.122866" lon="0.024055">
        <ele>286.3</ele>
        <time>2021-08-24T21:01:13.022Z</time>
      </trkpt>
      <trkpt lat="40.122334" lon="0.023891">
        <ele>287.4</ele>
        <time>2021-08-24T21:01:54.808Z</time>
      </trkpt>
      <trkpt lat="40.121986" lon="0.023574">
        <ele>287.4</ele>
        <time>2021-08-24T21:02:06.056Z</time>
      </trkpt>
      <trkpt lat="40.121818" lon="0.023420">
        <ele>287.2</ele>
        <time>2021-08-24T21:02:39.835Z</time>
      </trkpt>
      <trkpt lat="40.121688" lon="0.023338">
        <ele>287.0</ele>
        <time>2021-08-24T21:02:42.025Z</time>
      </trkpt>
      <trkpt lat="40.121544" lon="0.023256">
        <ele>288.1</ele>
        <time>2021-08-24T21:02:44.431Z</time>
      </trkpt>
      <trkpt lat="40.121203" lon="0.023011">
        <ele>290.6</ele>
        <time>2021-08-24T21:02:50.372Z</time>
      </trkpt>
      <trkpt lat="40.121190" lon="0.023295">
        <ele>293.9</ele>
        <time>2021-08-24T21:03:00.306Z</time>
      </trkpt>
      <trkpt lat="40.121190" lon="0.024345">
        <ele>294.6</ele>
        <time>2021-08-24T21:03:26.387Z</time>
      </trkpt>
      <trkpt lat="40.121404" lon="0.024681">
        <ele>294.2</ele>
        <time>2021-08-24T21:03:36.174Z</time>
      </trkpt>
      <trkpt lat="40.121386" lon="0.025217">
        <ele>293.7</ele>
        <time>2021-08-24T21:03:47.050Z</time>
      </trkpt>
      <trkpt lat="40.121601" lon="0.025703">
        <ele>293.3</ele>
        <time>2021-08-24T21:03:58.910Z</time>
      </trkpt>
      <trkpt lat="40.121911" lon="0.026193">
        <ele>292.7</ele>
        <time>2021-08-24T21:04:13.479Z</time>
      </trkpt>
      <trkpt lat="40.122786" lon="0.029751">
        <ele>276.3</ele>
        <time>2021-08-24T21:04:19.787Z</time>
      </trkpt>
      <trkpt lat="40.122761" lon="0.030020">
        <ele>276.0</ele>
        <time>2021-08-24T21:04:39.396Z</time>
      </trkpt>
      <trkpt lat="40.122889" lon="0.030893">
        <ele>274.5</ele>
        <time>2021-08-24T21:05:43.814Z</time>
      </trkpt>
      <trkpt lat="40.123146" lon="0.031598">
        <ele>272.8</ele>
        <time>2021-08-24T21:06:40.412Z</time>
      </trkpt>
      <trkpt lat="40.123428" lon="0.032269">
        <ele>271.8</ele>
        <time>2021-08-24T21:07:35.924Z</time>
      </trkpt>
      <trkpt lat="40.123608" lon="0.033075">
        <ele>269.7</ele>
        <time>2021-08-24T21:08:36.755Z</time>
      </trkpt>
      <trkpt lat="40.123326" lon="0.033780">
        <ele>268.5</ele>
        <time>2021-08-24T21:09:34.418Z</time>
      </trkpt>
      <trkpt lat="40.123557" lon="0.034519">
        <ele>266.8</ele>
        <time>2021-08-24T21:10:32.260Z</time>
      </trkpt>
      <trkpt lat="40.123890" lon="0.035157">
        <ele>264.6</ele>
        <time>2021-08-24T21:11:28.279Z</time>
      </trkpt>
      <trkpt lat="40.124019" lon="0.036030">
        <ele>263.2</ele>
        <time>2021-08-24T21:12:32.684Z</time>
      </trkpt>
      <trkpt lat="40.123916" lon="0.036936">
        <ele>261.7</ele>
        <time>2021-08-24T21:13:39.086Z</time>
      </trkpt>
      <trkpt lat="40.123659" lon="0.037641">
        <ele>261.1</ele>
        <time>2021-08-24T21:14:35.657Z</time>
      </trkpt>
      <trkpt lat="40.123846" lon="0.038683">
        <ele>260.0</ele>
        <time>2021-08-24T21:15:53.142Z</time>
      </trkpt>
      <trkpt lat="40.123531" lon="0.039421">
        <ele>259.5</ele>
        <time>2021-08-24T21:16:54.412Z</time>
      </trkpt>
      <trkpt lat="40.123223" lon="0.040092">
        <ele>258.9</ele>
        <time>2021-08-24T21:17:51.149Z</time>
      </trkpt>
      <trkpt lat="40.123017" lon="0.040898">
        <ele>258.1</ele>
        <time>2021-08-24T21:18:52.686Z</time>
      </trkpt>
      <trkpt lat="40.122992" lon="0.041939">
        <ele>259.9</ele>
        <time>2021-08-24T21:20:08.140Z</time>
      </trkpt>
      <trkpt lat="40.123094" lon="0.042846">
        <ele>260.3</ele>
        <time>2021-08-24T21:21:14.522Z</time>
      </trkpt>
      <trkpt lat="40.123326" lon="0.043584">
        <ele>259.0</ele>
        <time>2021-08-24T21:22:12.358Z</time>
      </trkpt>
      <trkpt lat="40.123570" lon="0.043970">
        <ele>259.5</ele>
        <time>2021-08-24T21:22:48.641Z</time>
      </trkpt>
      <trkpt lat="40.123545" lon="0.044502">
        <ele>258.2</ele>
        <time>2021-08-24T21:23:27.293Z</time>
      </trkpt>
      <trkpt lat="40.122792" lon="0.044889">
        <ele>258.2</ele>
        <time>2021-08-24T21:24:43.919Z</time>
      </trkpt>
      <trkpt lat="40.122700" lon="0.045070">
        <ele>259.0</ele>
        <time>2021-08-24T21:24:59.708Z</time>
      </trkpt>
      <trkpt lat="40.122235" lon="0.045173">
        <ele>259.3</ele>
        <time>2021-08-24T21:25:44.411Z</time>
      </trkpt>
      <trkpt lat="40.121638" lon="0.045246">
        <ele>262.9</ele>
        <time>2021-08-24T21:26:41.261Z</time>
      </trkpt>
      <trkpt lat="40.121469" lon="0.045469">
        <ele>250.2</ele>
        <time>2021-08-24T21:27:06.428Z</time>
      </trkpt>
      <trkpt lat="40.121036" lon="0.045927">
        <ele>238.9</ele>
        <time>2021-08-24T21:28:00.057Z</time>
      </trkpt>
      <trkpt lat="40.120490" lon="0.046370">
        <ele>258.5</ele>
        <time>2021-08-24T21:29:03.158Z</time>
      </trkpt>
      <trkpt lat="40.119344" lon="0.047102">
        <ele>241.6</ele>
        <time>2021-08-24T21:31:04.833Z</time>
      </trkpt>
      <trkpt lat="40.117417" lon="0.047511">
        <ele>208.6</ele>
        <time>2021-08-24T21:34:11.892Z</time>
      </trkpt>
      <trkpt lat="40.115552" lon="0.048249">
        <ele>197.5</ele>
        <time>2021-08-24T21:37:16.768Z</time>
      </trkpt>
      <trkpt lat="40.114414" lon="0.049002">
        <ele>194.2</ele>
        <time>2021-08-24T21:37:34.472Z</time>
      </trkpt>
      <trkpt lat="40.114214" lon="0.049971">
        <ele>192.2</ele>
        <time>2021-08-24T21:37:46.874Z</time>
      </trkpt>
      <trkpt lat="40.113600" lon="0.050774">
        <ele>190.3</ele>
        <time>2021-08-24T21:38:01.468Z</time>
      </trkpt>
      <trkpt lat="40.113369" lon="0.051344">
        <ele>189.2</ele>
        <time>2021-08-24T21:38:09.313Z</time>
      </trkpt>
      <trkpt lat="40.113328" lon="0.051639">
        <ele>188.7</ele>
        <time>2021-08-24T21:38:12.725Z</time>
      </trkpt>
      <trkpt lat="40.113314" lon="0.052195">
        <ele>187.5</ele>
        <time>2021-08-24T21:38:18.750Z</time>
      </trkpt>
      <trkpt lat="40.113462" lon="0.053244">
        <ele>183.2</ele>
        <time>2021-08-24T21:38:29.564Z</time>
      </trkpt>
      <trkpt lat="40.113566" lon="0.053549">
        <ele>181.8</ele>
        <time>2021-08-24T21:38:32.848Z</time>
      </trkpt>
      <trkpt lat="40.114096" lon="0.054548">
        <ele>176.9</ele>
        <time>2021-08-24T21:38:44.811Z</time>
      </trkpt>
      <trkpt lat="40.114284" lon="0.055113">
        <ele>174.5</ele>
        <time>2021-08-24T21:38:50.923Z</time>
      </trkpt>
      <trkpt lat="40.114533" lon="0.056544">
        <ele>168.9</ele>
        <time>2021-08-24T21:39:06.116Z</time>
      </trkpt>
      <trkpt lat="40.114698" lon="0.057204">
        <ele>167.2</ele>
        <time>2021-08-24T21:39:13.696Z</time>
      </trkpt>
      <trkpt lat="40.114731" lon="0.057414">
        <ele>166.7</ele>
        <time>2021-08-24T21:39:16.075Z</time>
      </trkpt>
      <trkpt lat="40.114720" lon="0.057711">
        <ele>166.0</ele>
        <time>2021-08-24T21:39:19.398Z</time>
      </trkpt>
      <trkpt lat="40.114631" lon="0.058048">
        <ele>165.1</ele>
        <time>2021-08-24T21:39:23.393Z</time>
      </trkpt>
      <trkpt lat="40.114457" lon="0.058340">
        <ele>164.2</ele>
        <time>2021-08-24T21:39:27.562Z</time>
      </trkpt>
      <trkpt lat="40.114304" lon="0.058484">
        <ele>163.6</ele>
        <time>2021-08-24T21:39:30.365Z</time>
      </trkpt>
      <trkpt lat="40.113754" lon="0.058705">
        <ele>161.7</ele>
        <time>2021-08-24T21:39:38.990Z</time>
      </trkpt>
      <trkpt lat="40.112951" lon="0.058837">
        <ele>159.1</ele>
        <time>2021-08-24T21:39:50.291Z</time>
      </trkpt>
      <trkpt lat="40.112368" lon="0.059142">
        <ele>157.0</ele>
        <time>2021-08-24T21:39:59.367Z</time>
      </trkpt>
      <trkpt lat="40.112375" lon="0.059230">
        <ele>156.8</ele>
        <time>2021-08-24T21:40:00.881Z</time>
      </trkpt>
      <trkpt lat="40.112283" lon="0.059864">
        <ele>155.3</ele>
        <time>2021-08-24T21:40:13.524Z</time>
      </trkpt>
      <trkpt lat="40.112297" lon="0.060717">
        <ele>153.3</ele>
        <time>2021-08-24T21:40:30.266Z</time>
      </trkpt>
      <trkpt lat="40.112163" lon="0.061321">
        <ele>151.9</ele>
        <time>2021-08-24T21:40:43.069Z</time>
      </trkpt>
      <trkpt lat="40.112199" lon="0.061529">
        <ele>151.6</ele>
        <time>2021-08-24T21:40:47.724Z</time>
      </trkpt>
      <trkpt lat="40.112223" lon="0.061627">
        <ele>151.5</ele>
        <time>2021-08-24T21:40:49.909Z</time>
      </trkpt>
      <trkpt lat="40.112217" lon="0.061714">
        <ele>151.4</ele>
        <time>2021-08-24T21:40:51.754Z</time>
      </trkpt>
      <trkpt lat="40.112008" lon="0.062383">
        <ele>150.6</ele>
        <time>2021-08-24T21:41:07.246Z</time>
      </trkpt>
      <trkpt lat="40.112011" lon="0.062880">
        <ele>150.0</ele>
        <time>2021-08-24T21:41:18.142Z</time>
      </trkpt>
      <trkpt lat="40.112060" lon="0.063102">
        <ele>149.7</ele>
        <time>2021-08-24T21:41:23.265Z</time>
      </trkpt>
      <trkpt lat="40.112029" lon="0.063207">
        <ele>149.6</ele>
        <time>2021-08-24T21:41:25.693Z</time>
      </trkpt>
      <trkpt lat="40.111912" lon="0.063432">
        <ele>149.3</ele>
        <time>2021-08-24T21:41:31.939Z</time>
      </trkpt>
      <trkpt lat="40.111786" lon="0.063255">
        <ele>149.1</ele>
        <time>2021-08-24T21:41:37.262Z</time>
      </trkpt>
      <trkpt lat="40.111719" lon="0.063243">
        <ele>149.0</ele>
        <time>2021-08-24T21:41:39.355Z</time>
      </trkpt>
      <trkpt lat="40.111636" lon="0.063392">
        <ele>148.9</ele>
        <time>2021-08-24T21:41:43.671Z</time>
      </trkpt>
      <trkpt lat="40.111439" lon="0.063951">
        <ele>148.4</ele>
        <time>2021-08-24T21:41:57.485Z</time>
      </trkpt>
      <trkpt lat="40.111152" lon="0.064325">
        <ele>148.0</ele>
        <time>2021-08-24T21:42:09.362Z</time>
      </trkpt>
      <trkpt lat="40.110973" lon="0.064795">
        <ele>147.6</ele>
        <time>2021-08-24T21:42:21.022Z</time>
      </trkpt>
      <trkpt lat="40.110779" lon="0.064946">
        <ele>147.3</ele>
        <time>2021-08-24T21:42:27.692Z</time>
      </trkpt>
      <trkpt lat="40.110332" lon="0.065642">
        <ele>146.0</ele>
        <time>2021-08-24T21:42:47.444Z</time>
      </trkpt>
      <trkpt lat="40.109972" lon="0.066411">
        <ele>144.7</ele>
        <time>2021-08-24T21:43:05.997Z</time>
      </trkpt>
      <trkpt lat="40.109634" lon="0.066986">
        <ele>143.5</ele>
        <time>2021-08-24T21:43:21.025Z</time>
      </trkpt>
      <trkpt lat="40.109592" lon="0.066996">
        <ele>143.4</ele>
        <time>2021-08-24T21:43:22.057Z</time>
      </trkpt>
      <trkpt lat="40.109532" lon="0.066960">
        <ele>143.2</ele>
        <time>2021-08-24T21:43:23.848Z</time>
      </trkpt>
      <trkpt lat="40.109361" lon="0.067082">
        <ele>142.8</ele>
        <time>2021-08-24T21:43:29.082Z</time>
      </trkpt>
      <trkpt lat="40.109232" lon="0.067333">
        <ele>142.2</ele>
        <time>2021-08-24T21:43:35.209Z</time>
      </trkpt>
      <trkpt lat="40.108946" lon="0.068308">
        <ele>140.3</ele>
        <time>2021-08-24T21:43:56.504Z</time>
      </trkpt>
      <trkpt lat="40.108746" lon="0.068534">
        <ele>139.7</ele>
        <time>2021-08-24T21:44:03.460Z</time>
      </trkpt>
      <trkpt lat="40.108684" lon="0.068757">
        <ele>139.2</ele>
        <time>2021-08-24T21:44:08.432Z</time>
      </trkpt>
      <trkpt lat="40.108676" lon="0.069122">
        <ele>138.6</ele>
        <time>2021-08-24T21:44:16.357Z</time>
      </trkpt>
      <trkpt lat="40.108796" lon="0.069376">
        <ele>138.1</ele>
        <time>2021-08-24T21:44:22.802Z</time>
      </trkpt>
      <trkpt lat="40.108692" lon="0.070154">
        <ele>136.7</ele>
        <time>2021-08-24T21:44:39.529Z</time>
      </trkpt>
      <trkpt lat="40.108692" lon="0.070154">
        <ele>136.7</ele>
        <time>2021-08-24T21:44:39.542Z</time>
      </trkpt>
      <trkpt lat="40.108512" lon="0.070699">
        <ele>135.6</ele>
        <time>2021-08-24T21:44:51.348Z</time>
      </trkpt>
      <trkpt lat="40.108553" lon="0.071635">
        <ele>133.9</ele>
        <time>2021-08-24T21:45:09.599Z</time>
      </trkpt>
      <trkpt lat="40.108553" lon="0.071645">
        <ele>133.9</ele>
        <time>2021-08-24T21:45:09.747Z</time>
      </trkpt>
      <trkpt lat="40.108306" lon="0.072050">
        <ele>133.0</ele>
        <time>2021-08-24T21:45:19.937Z</time>
      </trkpt>
      <trkpt lat="40.108314" lon="0.072216">
        <ele>132.7</ele>
        <time>2021-08-24T21:45:23.112Z</time>
      </trkpt>
      <trkpt lat="40.108528" lon="0.072961">
        <ele>131.3</ele>
        <time>2021-08-24T21:46:05.400Z</time>
      </trkpt>
      <trkpt lat="40.108548" lon="0.073134">
        <ele>131.9</ele>
        <time>2021-08-24T21:46:10.762Z</time>
      </trkpt>
      <trkpt lat="40.108619" lon="0.073308">
        <ele>132.6</ele>
        <time>2021-08-24T21:46:15.953Z</time>
      </trkpt>
      <trkpt lat="40.108980" lon="0.074113">
        <ele>135.7</ele>
        <time>2021-08-24T21:46:50.689Z</time>
      </trkpt>
      <trkpt lat="40.109119" lon="0.074388">
        <ele>136.8</ele>
        <time>2021-08-24T21:47:07.576Z</time>
      </trkpt>
      <trkpt lat="40.109150" lon="0.074560">
        <ele>137.4</ele>
        <time>2021-08-24T21:47:14.909Z</time>
      </trkpt>
      <trkpt lat="40.109197" lon="0.074687">
        <ele>137.9</ele>
        <time>2021-08-24T21:47:25.289Z</time>
      </trkpt>
      <trkpt lat="40.109512" lon="0.075643">
        <ele>141.4</ele>
        <time>2021-08-24T21:48:22.199Z</time>
      </trkpt>
      <trkpt lat="40.109670" lon="0.075649">
        <ele>142.2</ele>
        <time>2021-08-24T21:48:32.293Z</time>
      </trkpt>
      <trkpt lat="40.109833" lon="0.075472">
        <ele>143.1</ele>
        <time>2021-08-24T21:48:48.304Z</time>
      </trkpt>
      <trkpt lat="40.110233" lon="0.075436">
        <ele>144.9</ele>
        <time>2021-08-24T21:49:13.212Z</time>
      </trkpt>
      <trkpt lat="40.110325" lon="0.075536">
        <ele>145.5</ele>
        <time>2021-08-24T21:49:18.765Z</time>
      </trkpt>
      <trkpt lat="40.110663" lon="0.076391">
        <ele>145.4</ele>
        <time>2021-08-24T21:49:38.974Z</time>
      </trkpt>
      <trkpt lat="40.110668" lon="0.076489">
        <ele>144.9</ele>
        <time>2021-08-24T21:49:40.686Z</time>
      </trkpt>
      <trkpt lat="40.110551" lon="0.076652">
        <ele>144.0</ele>
        <time>2021-08-24T21:49:45.002Z</time>
      </trkpt>
      <trkpt lat="40.110425" lon="0.077014">
        <ele>142.2</ele>
        <time>2021-08-24T21:49:51.932Z</time>
      </trkpt>
      <trkpt lat="40.110304" lon="0.077105">
        <ele>141.4</ele>
        <time>2021-08-24T21:49:55.812Z</time>
      </trkpt>
      <trkpt lat="40.110277" lon="0.077150">
        <ele>141.2</ele>
        <time>2021-08-24T21:49:56.741Z</time>
      </trkpt>
      <trkpt lat="40.110298" lon="0.077265">
        <ele>140.7</ele>
        <time>2021-08-24T21:49:58.561Z</time>
      </trkpt>
      <trkpt lat="40.110219" lon="0.077671">
        <ele>138.8</ele>
        <time>2021-08-24T21:50:05.994Z</time>
      </trkpt>
      <trkpt lat="40.109723" lon="0.078318">
        <ele>134.5</ele>
        <time>2021-08-24T21:50:21.439Z</time>
      </trkpt>
      <trkpt lat="40.109685" lon="0.078384">
        <ele>134.1</ele>
        <time>2021-08-24T21:50:22.671Z</time>
      </trkpt>
      <trkpt lat="40.109787" lon="0.078440">
        <ele>133.3</ele>
        <time>2021-08-24T21:50:25.560Z</time>
      </trkpt>
      <trkpt lat="40.109911" lon="0.078372">
        <ele>132.4</ele>
        <time>2021-08-24T21:50:28.783Z</time>
      </trkpt>
      <trkpt lat="40.109993" lon="0.078447">
        <ele>131.8</ele>
        <time>2021-08-24T21:50:30.779Z</time>
      </trkpt>
      <trkpt lat="40.110151" lon="0.079655">
        <ele>125.5</ele>
        <time>2021-08-24T21:50:53.344Z</time>
      </trkpt>
      <trkpt lat="40.110148" lon="0.080248">
        <ele>123.4</ele>
        <time>2021-08-24T21:51:04.332Z</time>
      </trkpt>
      <trkpt lat="40.110048" lon="0.080982">
        <ele>120.9</ele>
        <time>2021-08-24T21:51:18.508Z</time>
      </trkpt>
      <trkpt lat="40.109726" lon="0.081169">
        <ele>136.1</ele>
        <time>2021-08-24T21:51:28.535Z</time>
      </trkpt>
      <trkpt lat="40.109392" lon="0.081481">
        <ele>132.3</ele>
        <time>2021-08-24T21:51:45.726Z</time>
      </trkpt>
      <trkpt lat="40.109394" lon="0.082025">
        <ele>130.6</ele>
        <time>2021-08-24T21:53:03.836Z</time>
      </trkpt>
      <trkpt lat="40.109204" lon="0.082256">
        <ele>126.1</ele>
        <time>2021-08-24T21:53:11.513Z</time>
      </trkpt>
      <trkpt lat="40.109146" lon="0.082348">
        <ele>108.1</ele>
        <time>2021-08-24T21:53:14.087Z</time>
      </trkpt>
      <trkpt lat="40.109080" lon="0.082411">
        <ele>108.0</ele>
        <time>2021-08-24T21:53:16.434Z</time>
      </trkpt>
      <trkpt lat="40.109018" lon="0.082598">
        <ele>107.7</ele>
        <time>2021-08-24T21:53:20.867Z</time>
      </trkpt>
      <trkpt lat="40.109027" lon="0.082949">
        <ele>107.3</ele>
        <time>2021-08-24T21:53:28.399Z</time>
      </trkpt>
      <trkpt lat="40.108958" lon="0.083268">
        <ele>107.0</ele>
        <time>2021-08-24T21:53:35.442Z</time>
      </trkpt>
      <trkpt lat="40.109028" lon="0.083618">
        <ele>106.6</ele>
        <time>2021-08-24T21:53:43.071Z</time>
      </trkpt>
      <trkpt lat="40.109024" lon="0.084172">
        <ele>105.9</ele>
        <time>2021-08-24T21:53:54.845Z</time>
      </trkpt>
      <trkpt lat="40.108908" lon="0.084417">
        <ele>105.6</ele>
        <time>2021-08-24T21:54:01.035Z</time>
      </trkpt>
      <trkpt lat="40.108315" lon="0.085224">
        <ele>106.0</ele>
        <time>2021-08-24T21:54:26.917Z</time>
      </trkpt>
      <trkpt lat="40.108193" lon="0.085251">
        <ele>106.1</ele>
        <time>2021-08-24T21:54:30.601Z</time>
      </trkpt>
      <trkpt lat="40.108012" lon="0.085495">
        <ele>106.3</ele>
        <time>2021-08-24T21:54:38.993Z</time>
      </trkpt>
      <trkpt lat="40.107773" lon="0.085709">
        <ele>106.6</ele>
        <time>2021-08-24T21:54:47.435Z</time>
      </trkpt>
      <trkpt lat="40.107101" lon="0.085831">
        <ele>107.4</ele>
        <time>2021-08-24T21:55:07.716Z</time>
      </trkpt>
      <trkpt lat="40.106921" lon="0.086157">
        <ele>108.1</ele>
        <time>2021-08-24T21:55:16.770Z</time>
      </trkpt>
      <trkpt lat="40.106736" lon="0.086570">
        <ele>108.9</ele>
        <time>2021-08-24T21:55:33.964Z</time>
      </trkpt>
      <trkpt lat="40.106811" lon="0.087067">
        <ele>109.7</ele>
        <time>2021-08-24T21:55:50.673Z</time>
      </trkpt>
      <trkpt lat="40.107007" lon="0.087593">
        <ele>110.6</ele>
        <time>2021-08-24T21:56:08.818Z</time>
      </trkpt>
      <trkpt lat="40.107089" lon="0.087979">
        <ele>110.8</ele>
        <time>2021-08-24T21:56:20.205Z</time>
      </trkpt>
      <trkpt lat="40.106923" lon="0.089950">
        <ele>111.8</ele>
        <time>2021-08-24T21:57:10.772Z</time>
      </trkpt>
      <trkpt lat="40.106877" lon="0.090140">
        <ele>111.8</ele>
        <time>2021-08-24T21:57:16.591Z</time>
      </trkpt>
      <trkpt lat="40.106748" lon="0.090622">
        <ele>111.9</ele>
        <time>2021-08-24T21:57:30.559Z</time>
      </trkpt>
      <trkpt lat="40.106692" lon="0.090878">
        <ele>111.9</ele>
        <time>2021-08-24T21:57:37.354Z</time>
      </trkpt>
      <trkpt lat="40.106476" lon="0.091423">
        <ele>112.0</ele>
        <time>2021-08-24T21:57:53.244Z</time>
      </trkpt>
      <trkpt lat="40.106025" lon="0.092120">
        <ele>111.9</ele>
        <time>2021-08-24T21:58:14.982Z</time>
      </trkpt>
      <trkpt lat="40.105893" lon="0.092253">
        <ele>111.7</ele>
        <time>2021-08-24T21:58:19.890Z</time>
      </trkpt>
      <trkpt lat="40.105695" lon="0.092514">
        <ele>111.3</ele>
        <time>2021-08-24T21:58:27.869Z</time>
      </trkpt>
      <trkpt lat="40.105407" lon="0.092748">
        <ele>110.8</ele>
        <time>2021-08-24T21:58:37.369Z</time>
      </trkpt>
      <trkpt lat="40.105307" lon="0.092873">
        <ele>110.7</ele>
        <time>2021-08-24T21:58:41.229Z</time>
      </trkpt>
      <trkpt lat="40.104679" lon="0.093162">
        <ele>109.8</ele>
        <time>2021-08-24T21:58:59.576Z</time>
      </trkpt>
      <trkpt lat="40.104298" lon="0.093298">
        <ele>110.1</ele>
        <time>2021-08-24T21:59:10.343Z</time>
      </trkpt>
      <trkpt lat="40.103941" lon="0.093343">
        <ele>110.6</ele>
        <time>2021-08-24T21:59:21.733Z</time>
      </trkpt>
      <trkpt lat="40.103111" lon="0.093368">
        <ele>111.9</ele>
        <time>2021-08-24T21:59:55.675Z</time>
      </trkpt>
      <trkpt lat="40.103058" lon="0.093317">
        <ele>112.0</ele>
        <time>2021-08-24T22:00:00.166Z</time>
      </trkpt>
      <trkpt lat="40.102973" lon="0.093049">
        <ele>112.3</ele>
        <time>2021-08-24T22:00:10.862Z</time>
      </trkpt>
      <trkpt lat="40.102930" lon="0.092967">
        <ele>112.8</ele>
        <time>2021-08-24T22:00:13.991Z</time>
      </trkpt>
      <trkpt lat="40.102903" lon="0.093077">
        <ele>113.4</ele>
        <time>2021-08-24T22:00:20.633Z</time>
      </trkpt>
      <trkpt lat="40.102875" lon="0.093673">
        <ele>116.5</ele>
        <time>2021-08-24T22:00:50.219Z</time>
      </trkpt>
      <trkpt lat="40.103026" lon="0.093992">
        <ele>118.5</ele>
        <time>2021-08-24T22:01:11.539Z</time>
      </trkpt>
      <trkpt lat="40.103027" lon="0.094111">
        <ele>119.1</ele>
        <time>2021-08-24T22:01:16.769Z</time>
      </trkpt>
      <trkpt lat="40.102837" lon="0.094152">
        <ele>120.5</ele>
        <time>2021-08-24T22:01:31.763Z</time>
      </trkpt>
      <trkpt lat="40.102375" lon="0.094604">
        <ele>124.5</ele>
        <time>2021-08-24T22:02:12.321Z</time>
      </trkpt>
      <trkpt lat="40.102352" lon="0.094668">
        <ele>124.8</ele>
        <time>2021-08-24T22:02:19.106Z</time>
      </trkpt>
      <trkpt lat="40.102082" lon="0.094436">
        <ele>126.7</ele>
        <time>2021-08-24T22:02:38.669Z</time>
      </trkpt>
      <trkpt lat="40.101776" lon="0.094248">
        <ele>128.7</ele>
        <time>2021-08-24T22:02:59.394Z</time>
      </trkpt>
      <trkpt lat="40.101562" lon="0.094116">
        <ele>130.1</ele>
        <time>2021-08-24T22:03:15.265Z</time>
      </trkpt>
      <trkpt lat="40.101102" lon="0.093541">
        <ele>133.8</ele>
        <time>2021-08-24T22:03:53.933Z</time>
      </trkpt>
      <trkpt lat="40.100135" lon="0.092819">
        <ele>138.2</ele>
        <time>2021-08-24T22:04:46.341Z</time>
      </trkpt>
      <trkpt lat="40.099674" lon="0.092690">
        <ele>139.8</ele>
        <time>2021-08-24T22:05:09.413Z</time>
      </trkpt>
      <trkpt lat="40.099042" lon="0.092653">
        <ele>141.7</ele>
        <time>2021-08-24T22:05:40.528Z</time>
      </trkpt>
      <trkpt lat="40.098540" lon="0.092407">
        <ele>143.0</ele>
        <time>2021-08-24T22:06:05.780Z</time>
      </trkpt>
      <trkpt lat="40.098247" lon="0.092204">
        <ele>143.8</ele>
        <time>2021-08-24T22:06:20.136Z</time>
      </trkpt>
      <trkpt lat="40.097994" lon="0.091907">
        <ele>144.6</ele>
        <time>2021-08-24T22:06:34.071Z</time>
      </trkpt>
      <trkpt lat="40.097609" lon="0.091263">
        <ele>146.3</ele>
        <time>2021-08-24T22:06:57.988Z</time>
      </trkpt>
      <trkpt lat="40.097366" lon="0.091020">
        <ele>147.4</ele>
        <time>2021-08-24T22:07:09.050Z</time>
      </trkpt>
      <trkpt lat="40.096710" lon="0.090615">
        <ele>150.1</ele>
        <time>2021-08-24T22:07:42.924Z</time>
      </trkpt>
      <trkpt lat="40.096389" lon="0.090487">
        <ele>151.3</ele>
        <time>2021-08-24T22:08:03.803Z</time>
      </trkpt>
      <trkpt lat="40.096219" lon="0.090699">
        <ele>152.2</ele>
        <time>2021-08-24T22:08:18.475Z</time>
      </trkpt>
      <trkpt lat="40.096137" lon="0.090689">
        <ele>152.8</ele>
        <time>2021-08-24T22:08:24.394Z</time>
      </trkpt>
      <trkpt lat="40.096030" lon="0.090222">
        <ele>155.7</ele>
        <time>2021-08-24T22:08:50.444Z</time>
      </trkpt>
      <trkpt lat="40.095925" lon="0.090160">
        <ele>156.6</ele>
        <time>2021-08-24T22:08:56.709Z</time>
      </trkpt>
      <trkpt lat="40.095870" lon="0.090182">
        <ele>157.1</ele>
        <time>2021-08-24T22:09:01.678Z</time>
      </trkpt>
      <trkpt lat="40.095680" lon="0.090130">
        <ele>158.6</ele>
        <time>2021-08-24T22:09:17.563Z</time>
      </trkpt>
      <trkpt lat="40.095568" lon="0.090118">
        <ele>159.5</ele>
        <time>2021-08-24T22:09:23.889Z</time>
      </trkpt>
      <trkpt lat="40.095279" lon="0.090291">
        <ele>162.0</ele>
        <time>2021-08-24T22:09:49.023Z</time>
      </trkpt>
      <trkpt lat="40.095041" lon="0.090138">
        <ele>164.0</ele>
        <time>2021-08-24T22:10:10.520Z</time>
      </trkpt>
      <trkpt lat="40.094640" lon="0.089601">
        <ele>167.3</ele>
        <time>2021-08-24T22:10:51.977Z</time>
      </trkpt>
      <trkpt lat="40.094386" lon="0.088708">
        <ele>169.9</ele>
        <time>2021-08-24T22:11:31.403Z</time>
      </trkpt>
      <trkpt lat="40.093720" lon="0.087884">
        <ele>173.0</ele>
        <time>2021-08-24T22:12:03.792Z</time>
      </trkpt>
      <trkpt lat="40.093454" lon="0.087876">
        <ele>173.5</ele>
        <time>2021-08-24T22:12:11.712Z</time>
      </trkpt>
      <trkpt lat="40.093188" lon="0.087956">
        <ele>173.9</ele>
        <time>2021-08-24T22:12:21.634Z</time>
      </trkpt>
      <trkpt lat="40.092752" lon="0.087984">
        <ele>174.6</ele>
        <time>2021-08-24T22:12:36.556Z</time>
      </trkpt>
      <trkpt lat="40.092329" lon="0.087919">
        <ele>175.3</ele>
        <time>2021-08-24T22:12:53.842Z</time>
      </trkpt>
      <trkpt lat="40.092025" lon="0.087731">
        <ele>176.4</ele>
        <time>2021-08-24T22:13:10.746Z</time>
      </trkpt>
      <trkpt lat="40.091948" lon="0.087706">
        <ele>177.1</ele>
        <time>2021-08-24T22:13:14.446Z</time>
      </trkpt>
      <trkpt lat="40.091902" lon="0.087749">
        <ele>177.6</ele>
        <time>2021-08-24T22:13:19.712Z</time>
      </trkpt>
      <trkpt lat="40.091819" lon="0.087865">
        <ele>178.6</ele>
        <time>2021-08-24T22:13:26.404Z</time>
      </trkpt>
      <trkpt lat="40.091722" lon="0.088192">
        <ele>180.9</ele>
        <time>2021-08-24T22:13:44.296Z</time>
      </trkpt>
      <trkpt lat="40.091303" lon="0.088803">
        <ele>186.3</ele>
        <time>2021-08-24T22:14:29.730Z</time>
      </trkpt>
      <trkpt lat="40.091191" lon="0.089283">
        <ele>189.6</ele>
        <time>2021-08-24T22:15:04.609Z</time>
      </trkpt>
      <trkpt lat="40.091034" lon="0.089591">
        <ele>192.6</ele>
        <time>2021-08-24T22:15:32.661Z</time>
      </trkpt>
      <trkpt lat="40.090799" lon="0.089672">
        <ele>196.1</ele>
        <time>2021-08-24T22:15:56.987Z</time>
      </trkpt>
      <trkpt lat="40.090450" lon="0.089334">
        <ele>202.4</ele>
        <time>2021-08-24T22:16:42.286Z</time>
      </trkpt>
      <trkpt lat="40.090389" lon="0.089221">
        <ele>203.9</ele>
        <time>2021-08-24T22:16:53.786Z</time>
      </trkpt>
      <trkpt lat="40.090264" lon="0.089169">
        <ele>205.8</ele>
        <time>2021-08-24T22:17:08.439Z</time>
      </trkpt>
      <trkpt lat="40.090070" lon="0.089311">
        <ele>209.1</ele>
        <time>2021-08-24T22:17:33.244Z</time>
      </trkpt>
      <trkpt lat="40.089927" lon="0.089622">
        <ele>213.1</ele>
        <time>2021-08-24T22:18:03.866Z</time>
      </trkpt>
      <trkpt lat="40.089826" lon="0.089698">
        <ele>214.8</ele>
        <time>2021-08-24T22:18:16.635Z</time>
      </trkpt>
      <trkpt lat="40.089799" lon="0.089430">
        <ele>217.7</ele>
        <time>2021-08-24T22:18:38.515Z</time>
      </trkpt>
      <trkpt lat="40.089849" lon="0.089225">
        <ele>219.7</ele>
        <time>2021-08-24T22:18:55.682Z</time>
      </trkpt>
      <trkpt lat="40.089802" lon="0.089082">
        <ele>221.1</ele>
        <time>2021-08-24T22:19:07.812Z</time>
      </trkpt>
      <trkpt lat="40.089626" lon="0.088994">
        <ele>223.4</ele>
        <time>2021-08-24T22:19:26.914Z</time>
      </trkpt>
      <trkpt lat="40.089407" lon="0.089012">
        <ele>226.1</ele>
        <time>2021-08-24T22:19:48.838Z</time>
      </trkpt>
      <trkpt lat="40.089259" lon="0.089281">
        <ele>229.1</ele>
        <time>2021-08-24T22:20:13.207Z</time>
      </trkpt>
      <trkpt lat="40.089276" lon="0.089451">
        <ele>230.7</ele>
        <time>2021-08-24T22:20:25.218Z</time>
      </trkpt>
      <trkpt lat="40.089435" lon="0.089934">
        <ele>235.6</ele>
        <time>2021-08-24T22:20:59.993Z</time>
      </trkpt>
      <trkpt lat="40.089563" lon="0.090734">
        <ele>241.6</ele>
        <time>2021-08-24T22:21:47.682Z</time>
      </trkpt>
      <trkpt lat="40.089671" lon="0.090942">
        <ele>243.0</ele>
        <time>2021-08-24T22:22:00.659Z</time>
      </trkpt>
      <trkpt lat="40.090193" lon="0.091389">
        <ele>247.6</ele>
        <time>2021-08-24T22:22:40.876Z</time>
      </trkpt>
      <trkpt lat="40.090269" lon="0.092079">
        <ele>251.6</ele>
        <time>2021-08-24T22:23:16.152Z</time>
      </trkpt>
      <trkpt lat="40.090465" lon="0.092307">
        <ele>253.7</ele>
        <time>2021-08-24T22:23:33.430Z</time>
      </trkpt>
      <trkpt lat="40.090606" lon="0.092563">
        <ele>255.6</ele>
        <time>2021-08-24T22:23:49.832Z</time>
      </trkpt>
      <trkpt lat="40.090815" lon="0.092635">
        <ele>257.3</ele>
        <time>2021-08-24T22:24:05.385Z</time>
      </trkpt>
      <trkpt lat="40.090833" lon="0.092797">
        <ele>258.3</ele>
        <time>2021-08-24T22:24:14.160Z</time>
      </trkpt>
      <trkpt lat="40.090791" lon="0.092891">
        <ele>259.0</ele>
        <time>2021-08-24T22:24:20.186Z</time>
      </trkpt>
      <trkpt lat="40.090657" lon="0.093030">
        <ele>260.3</ele>
        <time>2021-08-24T22:24:33.191Z</time>
      </trkpt>
      <trkpt lat="40.090549" lon="0.093040">
        <ele>261.2</ele>
        <time>2021-08-24T22:24:40.901Z</time>
      </trkpt>
      <trkpt lat="40.089841" lon="0.092749">
        <ele>267.1</ele>
        <time>2021-08-24T22:25:36.476Z</time>
      </trkpt>
      <trkpt lat="40.089694" lon="0.092779">
        <ele>268.1</ele>
        <time>2021-08-24T22:25:47.824Z</time>
      </trkpt>
      <trkpt lat="40.089572" lon="0.092342">
        <ele>270.7</ele>
        <time>2021-08-24T22:26:13.883Z</time>
      </trkpt>
      <trkpt lat="40.089548" lon="0.091932">
        <ele>272.9</ele>
        <time>2021-08-24T22:26:35.867Z</time>
      </trkpt>
      <trkpt lat="40.089498" lon="0.091814">
        <ele>273.6</ele>
        <time>2021-08-24T22:26:42.859Z</time>
      </trkpt>
      <trkpt lat="40.089356" lon="0.091683">
        <ele>274.9</ele>
        <time>2021-08-24T22:26:54.610Z</time>
      </trkpt>
      <trkpt lat="40.088949" lon="0.090917">
        <ele>279.8</ele>
        <time>2021-08-24T22:27:39.168Z</time>
      </trkpt>
      <trkpt lat="40.088665" lon="0.090622">
        <ele>281.2</ele>
        <time>2021-08-24T22:27:59.361Z</time>
      </trkpt>
      <trkpt lat="40.088591" lon="0.090420">
        <ele>281.8</ele>
        <time>2021-08-24T22:28:08.261Z</time>
      </trkpt>
      <trkpt lat="40.088356" lon="0.090150">
        <ele>283.0</ele>
        <time>2021-08-24T22:28:24.080Z</time>
      </trkpt>
      <trkpt lat="40.087846" lon="0.089317">
        <ele>286.2</ele>
        <time>2021-08-24T22:29:02.582Z</time>
      </trkpt>
      <trkpt lat="40.087434" lon="0.089007">
        <ele>287.7</ele>
        <time>2021-08-24T22:29:24.457Z</time>
      </trkpt>
      <trkpt lat="40.087011" lon="0.088884">
        <ele>289.1</ele>
        <time>2021-08-24T22:29:44.611Z</time>
      </trkpt>
      <trkpt lat="40.086740" lon="0.088528">
        <ele>290.2</ele>
        <time>2021-08-24T22:30:02.153Z</time>
      </trkpt>
      <trkpt lat="40.086595" lon="0.088410">
        <ele>290.8</ele>
        <time>2021-08-24T22:30:10.012Z</time>
      </trkpt>
      <trkpt lat="40.086481" lon="0.088148">
        <ele>291.5</ele>
        <time>2021-08-24T22:30:20.268Z</time>
      </trkpt>
      <trkpt lat="40.086018" lon="0.087946">
        <ele>293.0</ele>
        <time>2021-08-24T22:30:45.394Z</time>
      </trkpt>
      <trkpt lat="40.085934" lon="0.087780">
        <ele>293.5</ele>
        <time>2021-08-24T22:30:53.908Z</time>
      </trkpt>
      <trkpt lat="40.085848" lon="0.087422">
        <ele>294.5</ele>
        <time>2021-08-24T22:31:09.036Z</time>
      </trkpt>
      <trkpt lat="40.085686" lon="0.087202">
        <ele>295.2</ele>
        <time>2021-08-24T22:31:19.225Z</time>
      </trkpt>
      <trkpt lat="40.085312" lon="0.087295">
        <ele>296.5</ele>
        <time>2021-08-24T22:31:38.257Z</time>
      </trkpt>
      <trkpt lat="40.085283" lon="0.087347">
        <ele>296.6</ele>
        <time>2021-08-24T22:31:41.721Z</time>
      </trkpt>
      <trkpt lat="40.085298" lon="0.087410">
        <ele>296.8</ele>
        <time>2021-08-24T22:31:45.074Z</time>
      </trkpt>
      <trkpt lat="40.085350" lon="0.087579">
        <ele>297.3</ele>
        <time>2021-08-24T22:31:50.853Z</time>
      </trkpt>
      <trkpt lat="40.085179" lon="0.087725">
        <ele>297.9</ele>
        <time>2021-08-24T22:32:00.538Z</time>
      </trkpt>
      <trkpt lat="40.084590" lon="0.087700">
        <ele>297.6</ele>
        <time>2021-08-24T22:32:21.898Z</time>
      </trkpt>
      <trkpt lat="40.084143" lon="0.087417">
        <ele>297.3</ele>
        <time>2021-08-24T22:32:37.387Z</time>
      </trkpt>
      <trkpt lat="40.084025" lon="0.087429">
        <ele>297.2</ele>
        <time>2021-08-24T22:32:40.751Z</time>
      </trkpt>
      <trkpt lat="40.083940" lon="0.087521">
        <ele>297.1</ele>
        <time>2021-08-24T22:32:43.751Z</time>
      </trkpt>
      <trkpt lat="40.083783" lon="0.087435">
        <ele>297.0</ele>
        <time>2021-08-24T22:32:48.081Z</time>
      </trkpt>
      <trkpt lat="40.083637" lon="0.087377">
        <ele>296.9</ele>
        <time>2021-08-24T22:32:52.216Z</time>
      </trkpt>
      <trkpt lat="40.083451" lon="0.087248">
        <ele>296.6</ele>
        <time>2021-08-24T22:32:57.502Z</time>
      </trkpt>
      <trkpt lat="40.083283" lon="0.086882">
        <ele>295.2</ele>
        <time>2021-08-24T22:33:05.778Z</time>
      </trkpt>
      <trkpt lat="40.083105" lon="0.086666">
        <ele>294.2</ele>
        <time>2021-08-24T22:33:11.967Z</time>
      </trkpt>
      <trkpt lat="40.082798" lon="0.086045">
        <ele>291.8</ele>
        <time>2021-08-24T22:33:25.732Z</time>
      </trkpt>
      <trkpt lat="40.082613" lon="0.085591">
        <ele>290.1</ele>
        <time>2021-08-24T22:33:35.139Z</time>
      </trkpt>
      <trkpt lat="40.082421" lon="0.084939">
        <ele>287.6</ele>
        <time>2021-08-24T22:33:48.237Z</time>
      </trkpt>
      <trkpt lat="40.082339" lon="0.084847">
        <ele>287.0</ele>
        <time>2021-08-24T22:33:50.811Z</time>
      </trkpt>
      <trkpt lat="40.082085" lon="0.084854">
        <ele>285.8</ele>
        <time>2021-08-24T22:33:57.203Z</time>
      </trkpt>
      <trkpt lat="40.081897" lon="0.084968">
        <ele>284.7</ele>
        <time>2021-08-24T22:34:02.252Z</time>
      </trkpt>
      <trkpt lat="40.081784" lon="0.084999">
        <ele>284.1</ele>
        <time>2021-08-24T22:34:05.174Z</time>
      </trkpt>
      <trkpt lat="40.081642" lon="0.084854">
        <ele>283.2</ele>
        <time>2021-08-24T22:34:09.465Z</time>
      </trkpt>
      <trkpt lat="40.081615" lon="0.084759">
        <ele>282.8</ele>
        <time>2021-08-24T22:34:11.458Z</time>
      </trkpt>
      <trkpt lat="40.081706" lon="0.084424">
        <ele>281.4</ele>
        <time>2021-08-24T22:34:18.033Z</time>
      </trkpt>
      <trkpt lat="40.081737" lon="0.084092">
        <ele>280.1</ele>
        <time>2021-08-24T22:34:24.004Z</time>
      </trkpt>
      <trkpt lat="40.081806" lon="0.083793">
        <ele>278.2</ele>
        <time>2021-08-24T22:34:29.450Z</time>
      </trkpt>
      <trkpt lat="40.081948" lon="0.083549">
        <ele>276.3</ele>
        <time>2021-08-24T22:34:34.618Z</time>
      </trkpt>
      <trkpt lat="40.081978" lon="0.083379">
        <ele>275.3</ele>
        <time>2021-08-24T22:34:37.741Z</time>
      </trkpt>
      <trkpt lat="40.081920" lon="0.083194">
        <ele>274.0</ele>
        <time>2021-08-24T22:34:41.075Z</time>
      </trkpt>
      <trkpt lat="40.081867" lon="0.083183">
        <ele>273.6</ele>
        <time>2021-08-24T22:34:42.231Z</time>
      </trkpt>
      <trkpt lat="40.081739" lon="0.083411">
        <ele>271.8</ele>
        <time>2021-08-24T22:34:47.112Z</time>
      </trkpt>
      <trkpt lat="40.081583" lon="0.083519">
        <ele>270.4</ele>
        <time>2021-08-24T22:34:51.005Z</time>
      </trkpt>
      <trkpt lat="40.081450" lon="0.083556">
        <ele>269.3</ele>
        <time>2021-08-24T22:34:54.099Z</time>
      </trkpt>
      <trkpt lat="40.081233" lon="0.083499">
        <ele>267.5</ele>
        <time>2021-08-24T22:34:58.946Z</time>
      </trkpt>
      <trkpt lat="40.081174" lon="0.083428">
        <ele>266.8</ele>
        <time>2021-08-24T22:35:00.759Z</time>
      </trkpt>
      <trkpt lat="40.081159" lon="0.082872">
        <ele>262.7</ele>
        <time>2021-08-24T22:35:09.922Z</time>
      </trkpt>
      <trkpt lat="40.081311" lon="0.082508">
        <ele>259.2</ele>
        <time>2021-08-24T22:35:16.559Z</time>
      </trkpt>
      <trkpt lat="40.081203" lon="0.082294">
        <ele>257.1</ele>
        <time>2021-08-24T22:35:20.687Z</time>
      </trkpt>
      <trkpt lat="40.080898" lon="0.082066">
        <ele>253.3</ele>
        <time>2021-08-24T22:35:27.987Z</time>
      </trkpt>
      <trkpt lat="40.080737" lon="0.081808">
        <ele>250.6</ele>
        <time>2021-08-24T22:35:33.311Z</time>
      </trkpt>
      <trkpt lat="40.080691" lon="0.081644">
        <ele>249.1</ele>
        <time>2021-08-24T22:35:36.265Z</time>
      </trkpt>
      <trkpt lat="40.080627" lon="0.081561">
        <ele>248.1</ele>
        <time>2021-08-24T22:35:38.103Z</time>
      </trkpt>
      <trkpt lat="40.080359" lon="0.081461">
        <ele>245.4</ele>
        <time>2021-08-24T22:35:44.241Z</time>
      </trkpt>
      <trkpt lat="40.080310" lon="0.081407">
        <ele>244.8</ele>
        <time>2021-08-24T22:35:45.540Z</time>
      </trkpt>
      <trkpt lat="40.080204" lon="0.081130">
        <ele>242.9</ele>
        <time>2021-08-24T22:35:50.734Z</time>
      </trkpt>
      <trkpt lat="40.079754" lon="0.080627">
        <ele>238.1</ele>
        <time>2021-08-24T22:36:03.623Z</time>
      </trkpt>
      <trkpt lat="40.079358" lon="0.080036">
        <ele>233.1</ele>
        <time>2021-08-24T22:36:17.153Z</time>
      </trkpt>
      <trkpt lat="40.079007" lon="0.079787">
        <ele>230.3</ele>
        <time>2021-08-24T22:36:26.608Z</time>
      </trkpt>
      <trkpt lat="40.078516" lon="0.079696">
        <ele>227.3</ele>
        <time>2021-08-24T22:36:38.953Z</time>
      </trkpt>
      <trkpt lat="40.077887" lon="0.079234">
        <ele>223.0</ele>
        <time>2021-08-24T22:36:56.259Z</time>
      </trkpt>
      <trkpt lat="40.077266" lon="0.078429">
        <ele>214.8</ele>
        <time>2021-08-24T22:37:15.897Z</time>
      </trkpt>
      <trkpt lat="40.076061" lon="0.076589">
        <ele>189.1</ele>
        <time>2021-08-24T22:37:53.695Z</time>
      </trkpt>
      <trkpt lat="40.075898" lon="0.076435">
        <ele>185.4</ele>
        <time>2021-08-24T22:37:57.667Z</time>
      </trkpt>
      <trkpt lat="40.075651" lon="0.076342">
        <ele>180.8</ele>
        <time>2021-08-24T22:38:02.741Z</time>
      </trkpt>
      <trkpt lat="40.075554" lon="0.076379">
        <ele>179.0</ele>
        <time>2021-08-24T22:38:04.742Z</time>
      </trkpt>
      <trkpt lat="40.075351" lon="0.076593">
        <ele>174.3</ele>
        <time>2021-08-24T22:38:09.790Z</time>
      </trkpt>
      <trkpt lat="40.075045" lon="0.076737">
        <ele>168.4</ele>
        <time>2021-08-24T22:38:16.117Z</time>
      </trkpt>
      <trkpt lat="40.074813" lon="0.076724">
        <ele>164.3</ele>
        <time>2021-08-24T22:38:20.721Z</time>
      </trkpt>
      <trkpt lat="40.074423" lon="0.076840">
        <ele>157.6</ele>
        <time>2021-08-24T22:38:28.515Z</time>
      </trkpt>
      <trkpt lat="40.074162" lon="0.077030">
        <ele>152.6</ele>
        <time>2021-08-24T22:38:34.522Z</time>
      </trkpt>
      <trkpt lat="40.074106" lon="0.077030">
        <ele>151.7</ele>
        <time>2021-08-24T22:38:35.634Z</time>
      </trkpt>
      <trkpt lat="40.074063" lon="0.076951">
        <ele>150.5</ele>
        <time>2021-08-24T22:38:37.131Z</time>
      </trkpt>
      <trkpt lat="40.073973" lon="0.076650">
        <ele>146.3</ele>
        <time>2021-08-24T22:38:42.144Z</time>
      </trkpt>
      <trkpt lat="40.073987" lon="0.076568">
        <ele>145.2</ele>
        <time>2021-08-24T22:38:43.403Z</time>
      </trkpt>
      <trkpt lat="40.074281" lon="0.076489">
        <ele>140.2</ele>
        <time>2021-08-24T22:38:49.620Z</time>
      </trkpt>
      <trkpt lat="40.074308" lon="0.076428">
        <ele>139.3</ele>
        <time>2021-08-24T22:38:50.666Z</time>
      </trkpt>
      <trkpt lat="40.074279" lon="0.076360">
        <ele>138.3</ele>
        <time>2021-08-24T22:38:51.939Z</time>
      </trkpt>
      <trkpt lat="40.074065" lon="0.076231">
        <ele>135.3</ele>
        <time>2021-08-24T22:38:57.047Z</time>
      </trkpt>
      <trkpt lat="40.073917" lon="0.076076">
        <ele>133.9</ele>
        <time>2021-08-24T22:39:00.969Z</time>
      </trkpt>
      <trkpt lat="40.073831" lon="0.076101">
        <ele>133.3</ele>
        <time>2021-08-24T22:39:02.842Z</time>
      </trkpt>
      <trkpt lat="40.073616" lon="0.076450">
        <ele>130.7</ele>
        <time>2021-08-24T22:39:10.198Z</time>
      </trkpt>
      <trkpt lat="40.073529" lon="0.076725">
        <ele>129.1</ele>
        <time>2021-08-24T22:39:15.800Z</time>
      </trkpt>
      <trkpt lat="40.073589" lon="0.077360">
        <ele>125.5</ele>
        <time>2021-08-24T22:39:27.512Z</time>
      </trkpt>
      <trkpt lat="40.073429" lon="0.077795">
        <ele>122.8</ele>
        <time>2021-08-24T22:39:36.415Z</time>
      </trkpt>
      <trkpt lat="40.073404" lon="0.078101">
        <ele>121.7</ele>
        <time>2021-08-24T22:39:42.623Z</time>
      </trkpt>
      <trkpt lat="40.073278" lon="0.078513">
        <ele>120.1</ele>
        <time>2021-08-24T22:39:51.713Z</time>
      </trkpt>
      <trkpt lat="40.073278" lon="0.078513">
        <ele>120.1</ele>
        <time>2021-08-24T22:39:51.758Z</time>
      </trkpt>
      <trkpt lat="40.073271" lon="0.078871">
        <ele>118.8</ele>
        <time>2021-08-24T22:39:58.844Z</time>
      </trkpt>
      <trkpt lat="40.073212" lon="0.079064">
        <ele>118.1</ele>
        <time>2021-08-24T22:40:02.877Z</time>
      </trkpt>
      <trkpt lat="40.073026" lon="0.079031">
        <ele>117.2</ele>
        <time>2021-08-24T22:40:07.433Z</time>
      </trkpt>
      <trkpt lat="40.072840" lon="0.078908">
        <ele>116.2</ele>
        <time>2021-08-24T22:40:12.404Z</time>
      </trkpt>
      <trkpt lat="40.072752" lon="0.078822">
        <ele>115.7</ele>
        <time>2021-08-24T22:40:15.042Z</time>
      </trkpt>
      <trkpt lat="40.072676" lon="0.078594">
        <ele>114.8</ele>
        <time>2021-08-24T22:40:19.489Z</time>
      </trkpt>
      <trkpt lat="40.072617" lon="0.078561">
        <ele>114.5</ele>
        <time>2021-08-24T22:40:20.960Z</time>
      </trkpt>
      <trkpt lat="40.072576" lon="0.078630">
        <ele>113.9</ele>
        <time>2021-08-24T22:40:22.563Z</time>
      </trkpt>
      <trkpt lat="40.072625" lon="0.078985">
        <ele>110.8</ele>
        <time>2021-08-24T22:40:28.992Z</time>
      </trkpt>
      <trkpt lat="40.072625" lon="0.078985">
        <ele>110.8</ele>
        <time>2021-08-24T22:40:29.016Z</time>
      </trkpt>
      <trkpt lat="40.072555" lon="0.078996">
        <ele>110.0</ele>
        <time>2021-08-24T22:40:30.577Z</time>
      </trkpt>
      <trkpt lat="40.072062" lon="0.077911">
        <ele>98.9</ele>
        <time>2021-08-24T22:40:50.637Z</time>
      </trkpt>
      <trkpt lat="40.071895" lon="0.077766">
        <ele>96.6</ele>
        <time>2021-08-24T22:40:54.707Z</time>
      </trkpt>
      <trkpt lat="40.071765" lon="0.077505">
        <ele>93.9</ele>
        <time>2021-08-24T22:40:59.594Z</time>
      </trkpt>
      <trkpt lat="40.071643" lon="0.077294">
        <ele>91.3</ele>
        <time>2021-08-24T22:41:03.637Z</time>
      </trkpt>
      <trkpt lat="40.071348" lon="0.076906">
        <ele>85.8</ele>
        <time>2021-08-24T22:41:08.737Z</time>
      </trkpt>
      <trkpt lat="40.071189" lon="0.076493">
        <ele>81.1</ele>
        <time>2021-08-24T22:41:13.061Z</time>
      </trkpt>
      <trkpt lat="40.071068" lon="0.075514">
        <ele>71.2</ele>
        <time>2021-08-24T22:41:22.361Z</time>
      </trkpt>
      <trkpt lat="40.070775" lon="0.074843">
        <ele>66.2</ele>
        <time>2021-08-24T22:41:29.943Z</time>
      </trkpt>
      <trkpt lat="40.070629" lon="0.074765">
        <ele>64.9</ele>
        <time>2021-08-24T22:41:31.983Z</time>
      </trkpt>
      <trkpt lat="40.070258" lon="0.074848">
        <ele>62.0</ele>
        <time>2021-08-24T22:41:37.084Z</time>
      </trkpt>
      <trkpt lat="40.070067" lon="0.074903">
        <ele>60.4</ele>
        <time>2021-08-24T22:41:39.841Z</time>
      </trkpt>
      <trkpt lat="40.069857" lon="0.074903">
        <ele>58.8</ele>
        <time>2021-08-24T22:41:42.688Z</time>
      </trkpt>
      <trkpt lat="40.069857" lon="0.074903">
        <ele>58.8</ele>
        <time>2021-08-24T22:41:42.689Z</time>
      </trkpt>
      <trkpt lat="40.069710" lon="0.074966">
        <ele>57.5</ele>
        <time>2021-08-24T22:41:44.758Z</time>
      </trkpt>
      <trkpt lat="40.069651" lon="0.074947">
        <ele>57.1</ele>
        <time>2021-08-24T22:41:45.532Z</time>
      </trkpt>
      <trkpt lat="40.069227" lon="0.074850">
        <ele>54.6</ele>
        <time>2021-08-24T22:41:51.473Z</time>
      </trkpt>
      <trkpt lat="40.068798" lon="0.074890">
        <ele>52.6</ele>
        <time>2021-08-24T22:41:57.564Z</time>
      </trkpt>
      <trkpt lat="40.068447" lon="0.074853">
        <ele>50.9</ele>
        <time>2021-08-24T22:42:02.689Z</time>
      </trkpt>
      <trkpt lat="40.068330" lon="0.074826">
        <ele>50.3</ele>
        <time>2021-08-24T22:42:04.388Z</time>
      </trkpt>
      <trkpt lat="40.068271" lon="0.074760">
        <ele>49.9</ele>
        <time>2021-08-24T22:42:05.427Z</time>
      </trkpt>
      <trkpt lat="40.068045" lon="0.074403">
        <ele>48.2</ele>
        <time>2021-08-24T22:42:10.628Z</time>
      </trkpt>
      <trkpt lat="40.067565" lon="0.074062">
        <ele>46.5</ele>
        <time>2021-08-24T22:42:19.074Z</time>
      </trkpt>
      <trkpt lat="40.067353" lon="0.073834">
        <ele>45.9</ele>
        <time>2021-08-24T22:42:23.261Z</time>
      </trkpt>
      <trkpt lat="40.067024" lon="0.073582">
        <ele>45.0</ele>
        <time>2021-08-24T22:42:29.263Z</time>
      </trkpt>
      <trkpt lat="40.065982" lon="0.072837">
        <ele>42.3</ele>
        <time>2021-08-24T22:42:50.088Z</time>
      </trkpt>
      <trkpt lat="40.065763" lon="0.072669">
        <ele>41.7</ele>
        <time>2021-08-24T22:42:54.335Z</time>
      </trkpt>
      <trkpt lat="40.065430" lon="0.072509">
        <ele>41.0</ele>
        <time>2021-08-24T22:43:00.239Z</time>
      </trkpt>
      <trkpt lat="40.065357" lon="0.072398">
        <ele>40.8</ele>
        <time>2021-08-24T22:43:02.029Z</time>
      </trkpt>
      <trkpt lat="40.065346" lon="0.072381">
        <ele>40.7</ele>
        <time>2021-08-24T22:43:02.278Z</time>
      </trkpt>
      <trkpt lat="40.065198" lon="0.072018">
        <ele>40.1</ele>
        <time>2021-08-24T22:43:07.243Z</time>
      </trkpt>
      <trkpt lat="40.065109" lon="0.071821">
        <ele>39.7</ele>
        <time>2021-08-24T22:43:09.918Z</time>
      </trkpt>
      <trkpt lat="40.064938" lon="0.071712">
        <ele>39.2</ele>
        <time>2021-08-24T22:43:12.931Z</time>
      </trkpt>
      <trkpt lat="40.064445" lon="0.071848">
        <ele>37.3</ele>
        <time>2021-08-24T22:43:20.676Z</time>
      </trkpt>
      <trkpt lat="40.064181" lon="0.071881">
        <ele>36.3</ele>
        <time>2021-08-24T22:43:24.695Z</time>
      </trkpt>
      <trkpt lat="40.063974" lon="0.071761">
        <ele>35.4</ele>
        <time>2021-08-24T22:43:28.043Z</time>
      </trkpt>
      <trkpt lat="40.063410" lon="0.071044">
        <ele>32.3</ele>
        <time>2021-08-24T22:43:39.276Z</time>
      </trkpt>
      <trkpt lat="40.062891" lon="0.070848">
        <ele>30.0</ele>
        <time>2021-08-24T22:43:47.152Z</time>
      </trkpt>
      <trkpt lat="40.062772" lon="0.070825">
        <ele>29.5</ele>
        <time>2021-08-24T22:43:48.932Z</time>
      </trkpt>
      <trkpt lat="40.062772" lon="0.070825">
        <ele>29.5</ele>
        <time>2021-08-24T22:43:48.950Z</time>
      </trkpt>
      <trkpt lat="40.062044" lon="0.071003">
        <ele>34.2</ele>
        <time>2021-08-24T22:44:21.969Z</time>
      </trkpt>
      <trkpt lat="40.061865" lon="0.070816">
        <ele>34.1</ele>
        <time>2021-08-24T22:44:28.108Z</time>
      </trkpt>
      <trkpt lat="40.061409" lon="0.071102">
        <ele>30.3</ele>
        <time>2021-08-24T22:44:41.702Z</time>
      </trkpt>
      <trkpt lat="40.061399" lon="0.071743">
        <ele>23.1</ele>
        <time>2021-08-24T22:44:54.959Z</time>
      </trkpt>
      <trkpt lat="40.060734" lon="0.072394">
        <ele>24.7</ele>
        <time>2021-08-24T22:45:27.994Z</time>
      </trkpt>
      <trkpt lat="40.060507" lon="0.072071">
        <ele>24.2</ele>
        <time>2021-08-24T22:45:39.366Z</time>
      </trkpt>
      <trkpt lat="40.060026" lon="0.072619">
        <ele>21.7</ele>
        <time>2021-08-24T22:46:01.003Z</time>
      </trkpt>
      <trkpt lat="40.059338" lon="0.073121">
        <ele>16.3</ele>
        <time>2021-08-24T22:46:34.007Z</time>
      </trkpt>
      <trkpt lat="40.058906" lon="0.072067">
        <ele>19.0</ele>
        <time>2021-08-24T22:47:09.198Z</time>
      </trkpt>
      <trkpt lat="40.058531" lon="0.070958">
        <ele>13.1</ele>
        <time>2021-08-24T22:47:44.387Z</time>
      </trkpt>
      <trkpt lat="40.058029" lon="0.070002">
        <ele>18.3</ele>
        <time>2021-08-24T22:48:19.578Z</time>
      </trkpt>
      <trkpt lat="40.057591" lon="0.069381">
        <ele>19.4</ele>
        <time>2021-08-24T22:48:54.769Z</time>
      </trkpt>
      <trkpt lat="40.057045" lon="0.068565">
        <ele>16.4</ele>
        <time>2021-08-24T22:49:29.955Z</time>
      </trkpt>
      <trkpt lat="40.056910" lon="0.068475">
        <ele>15.5</ele>
        <time>2021-08-24T22:49:34.249Z</time>
      </trkpt>
      <trkpt lat="40.056598" lon="0.068317">
        <ele>9.3</ele>
        <time>2021-08-24T22:49:39.806Z</time>
      </trkpt>
      <trkpt lat="40.056550" lon="0.068342">
        <ele>9.2</ele>
        <time>2021-08-24T22:49:43.393Z</time>
      </trkpt>
      <trkpt lat="40.056499" lon="0.068288">
        <ele>9.2</ele>
        <time>2021-08-24T22:49:44.682Z</time>
      </trkpt>
      <trkpt lat="40.056513" lon="0.068482">
        <ele>9.0</ele>
        <time>2021-08-24T22:49:47.567Z</time>
      </trkpt>
      <trkpt lat="40.056530" lon="0.068717">
        <ele>8.9</ele>
        <time>2021-08-24T22:49:50.775Z</time>
      </trkpt>
      <trkpt lat="40.056354" lon="0.068885">
        <ele>8.7</ele>
        <time>2021-08-24T22:49:54.693Z</time>
      </trkpt>
      <trkpt lat="40.055744" lon="0.069465">
        <ele>8.1</ele>
        <time>2021-08-24T22:50:07.211Z</time>
      </trkpt>
      <trkpt lat="40.055628" lon="0.069610">
        <ele>8.0</ele>
        <time>2021-08-24T22:50:09.816Z</time>
      </trkpt>
      <trkpt lat="40.055539" lon="0.069714">
        <ele>7.9</ele>
        <time>2021-08-24T22:50:11.712Z</time>
      </trkpt>
      <trkpt lat="40.055428" lon="0.069843">
        <ele>7.7</ele>
        <time>2021-08-24T22:50:14.126Z</time>
      </trkpt>
      <trkpt lat="40.055329" lon="0.069959">
        <ele>7.6</ele>
        <time>2021-08-24T22:50:16.271Z</time>
      </trkpt>
      <trkpt lat="40.054773" lon="0.070607">
        <ele>7.0</ele>
        <time>2021-08-24T22:50:29.207Z</time>
      </trkpt>
      <trkpt lat="40.054701" lon="0.070690">
        <ele>6.9</ele>
        <time>2021-08-24T22:50:31.011Z</time>
      </trkpt>
      <trkpt lat="40.054300" lon="0.071158">
        <ele>6.4</ele>
        <time>2021-08-24T22:50:40.287Z</time>
      </trkpt>
      <trkpt lat="40.054212" lon="0.071204">
        <ele>6.4</ele>
        <time>2021-08-24T22:50:41.832Z</time>
      </trkpt>
      <trkpt lat="40.054140" lon="0.071184">
        <ele>6.3</ele>
        <time>2021-08-24T22:50:43.164Z</time>
      </trkpt>
      <trkpt lat="40.054069" lon="0.071206">
        <ele>6.3</ele>
        <time>2021-08-24T22:50:44.476Z</time>
      </trkpt>
      <trkpt lat="40.053994" lon="0.071299">
        <ele>6.3</ele>
        <time>2021-08-24T22:50:46.230Z</time>
      </trkpt>
      <trkpt lat="40.053975" lon="0.071376">
        <ele>6.2</ele>
        <time>2021-08-24T22:50:47.212Z</time>
      </trkpt>
      <trkpt lat="40.053978" lon="0.071458">
        <ele>6.2</ele>
        <time>2021-08-24T22:50:48.457Z</time>
      </trkpt>
      <trkpt lat="40.053888" lon="0.071567">
        <ele>6.2</ele>
        <time>2021-08-24T22:50:50.987Z</time>
      </trkpt>
      <trkpt lat="40.053515" lon="0.071939">
        <ele>6.0</ele>
        <time>2021-08-24T22:51:00.422Z</time>
      </trkpt>
      <trkpt lat="40.053477" lon="0.071875">
        <ele>6.0</ele>
        <time>2021-08-24T22:51:01.536Z</time>
      </trkpt>
      <trkpt lat="40.053321" lon="0.071609">
        <ele>5.9</ele>
        <time>2021-08-24T22:51:07.658Z</time>
      </trkpt>
      <trkpt lat="40.053265" lon="0.071504">
        <ele>5.8</ele>
        <time>2021-08-24T22:51:09.382Z</time>
      </trkpt>
      <trkpt lat="40.052641" lon="0.070334">
        <ele>5.1</ele>
        <time>2021-08-24T22:51:29.520Z</time>
      </trkpt>
      <trkpt lat="40.052641" lon="0.070334">
        <ele>5.1</ele>
        <time>2021-08-24T22:51:29.568Z</time>
      </trkpt>
      <trkpt lat="40.052573" lon="0.070207">
        <ele>5.0</ele>
        <time>2021-08-24T22:51:31.698Z</time>
      </trkpt>
      <trkpt lat="40.052096" lon="0.070642">
        <ele>4.6</ele>
        <time>2021-08-24T22:51:42.109Z</time>
      </trkpt>
      <trkpt lat="40.051492" lon="0.071190">
        <ele>3.9</ele>
        <time>2021-08-24T22:51:55.734Z</time>
      </trkpt>
      <trkpt lat="40.051066" lon="0.071578">
        <ele>3.2</ele>
        <time>2021-08-24T22:52:04.480Z</time>
      </trkpt>
      <trkpt lat="40.050594" lon="0.072007">
        <ele>2.6</ele>
        <time>2021-08-24T22:52:14.325Z</time>
      </trkpt>
      <trkpt lat="40.050625" lon="0.072066">
        <ele>2.5</ele>
        <time>2021-08-24T22:52:15.289Z</time>
      </trkpt>
      <trkpt lat="40.050011" lon="0.072771">
        <ele>1.8</ele>
        <time>2021-08-24T22:53:12.097Z</time>
      </trkpt>
      <trkpt lat="40.049487" lon="0.072041">
        <ele>1.4</ele>
        <time>2021-08-24T22:54:05.314Z</time>
      </trkpt>
      <trkpt lat="40.049487" lon="0.072041">
        <ele>1.4</ele>
        <time>2021-08-24T22:54:05.333Z</time>
      </trkpt>
      <trkpt lat="40.048982" lon="0.071408">
        <ele>1.1</ele>
        <time>2021-08-24T22:54:53.994Z</time>
      </trkpt>
      <trkpt lat="40.048279" lon="0.070647">
        <ele>1.1</ele>
        <time>2021-08-24T22:55:57.424Z</time>
      </trkpt>
      <trkpt lat="40.048195" lon="0.070575">
        <ele>1.1</ele>
        <time>2021-08-24T22:56:04.425Z</time>
      </trkpt>
      <trkpt lat="40.048136" lon="0.070496">
        <ele>1.1</ele>
        <time>2021-08-24T22:56:10.289Z</time>
      </trkpt>
      <trkpt lat="40.048020" lon="0.070383">
        <ele>1.1</ele>
        <time>2021-08-24T22:56:20.343Z</time>
      </trkpt>
      <trkpt lat="40.047741" lon="0.069911">
        <ele>1.1</ele>
        <time>2021-08-24T22:56:52.053Z</time>
      </trkpt>
      <trkpt lat="40.047741" lon="0.069911">
        <ele>1.1</ele>
        <time>2021-08-24T22:56:52.070Z</time>
      </trkpt>
    </trkseg>
  </trk>
</gpx>
